<?xml version="1.0" encoding="UTF-8"?>
<gpx version="1.1" creator="https://www.youtrack.es" xsi:schemaLocation="http://www.topografix.com/GPX/1/1 http://www.topografix.com/GPX/1/1/gpx.xsd http://www.garmin.com/xmlschemas/GpxExtensions/v3 http://www.garmin.com/xmlschemas/GpxExtensionsv3.xsd http://www.garmin.com/xmlschemas/TrackPointExtension/v1 http://www.garmin.com/xmlschemas/TrackPointExtensionv1.xsd" xmlns:gpxtpx="http://www.garmin.com/xmlschemas/TrackPointExtension/v1" xmlns:gpxx="http://www.garmin.com/xmlschemas/GpxExtensions/v3" xmlns:xsi="http://www.w3.org/2001/XMLSchema-instance">
  <metadata>
    <link href="https://www.youtrack.es">
      <text>YouTrack.es</text>
    </link>
    <time>2026-05-10T15:49:30Z</time>
  </metadata>
  <trk>
    <src>https://www.youtrack.es</src>
    <link href="https://www.youtrack.es/ruta/25655-espadas-posets">
      <text>YouTrack.es</text>
    </link>
    <trkseg>
      <trkpt lat="42.615303" lon="0.478035">
        <ele>1586.000000</ele>
        <time>2021-09-04T09:10:09Z</time>
      </trkpt>
      <trkpt lat="42.615313" lon="0.478035">
        <ele>1586.000000</ele>
        <time>2021-09-04T09:10:10Z</time>
      </trkpt>
      <trkpt lat="42.615327" lon="0.478048">
        <ele>1586.000000</ele>
        <time>2021-09-04T09:10:11Z</time>
      </trkpt>
      <trkpt lat="42.615343" lon="0.478058">
        <ele>1586.000000</ele>
        <time>2021-09-04T09:10:12Z</time>
      </trkpt>
      <trkpt lat="42.615353" lon="0.478070">
        <ele>1586.000000</ele>
        <time>2021-09-04T09:10:13Z</time>
      </trkpt>
      <trkpt lat="42.615368" lon="0.478077">
        <ele>1586.000000</ele>
        <time>2021-09-04T09:10:14Z</time>
      </trkpt>
      <trkpt lat="42.615378" lon="0.478093">
        <ele>1586.000000</ele>
        <time>2021-09-04T09:10:15Z</time>
      </trkpt>
      <trkpt lat="42.615393" lon="0.478107">
        <ele>1586.000000</ele>
        <time>2021-09-04T09:10:16Z</time>
      </trkpt>
      <trkpt lat="42.615402" lon="0.478105">
        <ele>1586.000000</ele>
        <time>2021-09-04T09:10:17Z</time>
      </trkpt>
      <trkpt lat="42.615410" lon="0.478103">
        <ele>1586.000000</ele>
        <time>2021-09-04T09:10:18Z</time>
      </trkpt>
      <trkpt lat="42.615418" lon="0.478103">
        <ele>1586.000000</ele>
        <time>2021-09-04T09:10:19Z</time>
      </trkpt>
      <trkpt lat="42.615422" lon="0.478098">
        <ele>1586.000000</ele>
        <time>2021-09-04T09:10:20Z</time>
      </trkpt>
      <trkpt lat="42.615430" lon="0.478100">
        <ele>1586.000000</ele>
        <time>2021-09-04T09:10:21Z</time>
      </trkpt>
      <trkpt lat="42.615438" lon="0.478108">
        <ele>1586.000000</ele>
        <time>2021-09-04T09:10:22Z</time>
      </trkpt>
      <trkpt lat="42.615452" lon="0.478113">
        <ele>1586.000000</ele>
        <time>2021-09-04T09:10:23Z</time>
      </trkpt>
      <trkpt lat="42.615468" lon="0.478118">
        <ele>1586.000000</ele>
        <time>2021-09-04T09:10:24Z</time>
      </trkpt>
      <trkpt lat="42.615488" lon="0.478130">
        <ele>1586.000000</ele>
        <time>2021-09-04T09:10:26Z</time>
      </trkpt>
      <trkpt lat="42.615507" lon="0.478138">
        <ele>1586.000000</ele>
        <time>2021-09-04T09:10:27Z</time>
      </trkpt>
      <trkpt lat="42.615525" lon="0.478145">
        <ele>1587.000000</ele>
        <time>2021-09-04T09:10:28Z</time>
      </trkpt>
      <trkpt lat="42.615538" lon="0.478157">
        <ele>1587.000000</ele>
        <time>2021-09-04T09:10:29Z</time>
      </trkpt>
      <trkpt lat="42.615555" lon="0.478167">
        <ele>1587.000000</ele>
        <time>2021-09-04T09:10:30Z</time>
      </trkpt>
      <trkpt lat="42.615567" lon="0.478172">
        <ele>1588.000000</ele>
        <time>2021-09-04T09:10:31Z</time>
      </trkpt>
      <trkpt lat="42.615585" lon="0.478183">
        <ele>1588.000000</ele>
        <time>2021-09-04T09:10:32Z</time>
      </trkpt>
      <trkpt lat="42.615607" lon="0.478197">
        <ele>1588.000000</ele>
        <time>2021-09-04T09:10:33Z</time>
      </trkpt>
      <trkpt lat="42.615622" lon="0.478205">
        <ele>1589.000000</ele>
        <time>2021-09-04T09:10:34Z</time>
      </trkpt>
      <trkpt lat="42.615643" lon="0.478217">
        <ele>1589.000000</ele>
        <time>2021-09-04T09:10:35Z</time>
      </trkpt>
      <trkpt lat="42.615657" lon="0.478228">
        <ele>1589.000000</ele>
        <time>2021-09-04T09:10:36Z</time>
      </trkpt>
      <trkpt lat="42.615672" lon="0.478240">
        <ele>1589.000000</ele>
        <time>2021-09-04T09:10:37Z</time>
      </trkpt>
      <trkpt lat="42.615683" lon="0.478247">
        <ele>1590.000000</ele>
        <time>2021-09-04T09:10:38Z</time>
      </trkpt>
      <trkpt lat="42.615695" lon="0.478252">
        <ele>1590.000000</ele>
        <time>2021-09-04T09:10:39Z</time>
      </trkpt>
      <trkpt lat="42.615707" lon="0.478255">
        <ele>1590.000000</ele>
        <time>2021-09-04T09:10:40Z</time>
      </trkpt>
      <trkpt lat="42.615720" lon="0.478255">
        <ele>1591.000000</ele>
        <time>2021-09-04T09:10:41Z</time>
      </trkpt>
      <trkpt lat="42.615735" lon="0.478258">
        <ele>1591.000000</ele>
        <time>2021-09-04T09:10:42Z</time>
      </trkpt>
      <trkpt lat="42.615750" lon="0.478243">
        <ele>1591.000000</ele>
        <time>2021-09-04T09:10:43Z</time>
      </trkpt>
      <trkpt lat="42.615762" lon="0.478233">
        <ele>1592.000000</ele>
        <time>2021-09-04T09:10:44Z</time>
      </trkpt>
      <trkpt lat="42.615777" lon="0.478232">
        <ele>1592.000000</ele>
        <time>2021-09-04T09:10:45Z</time>
      </trkpt>
      <trkpt lat="42.615795" lon="0.478222">
        <ele>1592.000000</ele>
        <time>2021-09-04T09:10:46Z</time>
      </trkpt>
      <trkpt lat="42.615805" lon="0.478213">
        <ele>1593.000000</ele>
        <time>2021-09-04T09:10:47Z</time>
      </trkpt>
      <trkpt lat="42.615808" lon="0.478202">
        <ele>1593.000000</ele>
        <time>2021-09-04T09:10:48Z</time>
      </trkpt>
      <trkpt lat="42.615808" lon="0.478193">
        <ele>1593.000000</ele>
        <time>2021-09-04T09:10:49Z</time>
      </trkpt>
      <trkpt lat="42.615807" lon="0.478188">
        <ele>1593.000000</ele>
        <time>2021-09-04T09:10:50Z</time>
      </trkpt>
      <trkpt lat="42.615807" lon="0.478183">
        <ele>1594.000000</ele>
        <time>2021-09-04T09:10:51Z</time>
      </trkpt>
      <trkpt lat="42.615808" lon="0.478178">
        <ele>1594.000000</ele>
        <time>2021-09-04T09:10:52Z</time>
      </trkpt>
      <trkpt lat="42.615808" lon="0.478172">
        <ele>1594.000000</ele>
        <time>2021-09-04T09:10:53Z</time>
      </trkpt>
      <trkpt lat="42.615805" lon="0.478165">
        <ele>1594.000000</ele>
        <time>2021-09-04T09:10:54Z</time>
      </trkpt>
      <trkpt lat="42.615803" lon="0.478152">
        <ele>1594.000000</ele>
        <time>2021-09-04T09:10:55Z</time>
      </trkpt>
      <trkpt lat="42.615800" lon="0.478138">
        <ele>1595.000000</ele>
        <time>2021-09-04T09:10:56Z</time>
      </trkpt>
      <trkpt lat="42.615799" lon="0.478123">
        <ele>1595.000000</ele>
        <time>2021-09-04T09:10:57Z</time>
      </trkpt>
      <trkpt lat="42.615797" lon="0.478105">
        <ele>1595.000000</ele>
        <time>2021-09-04T09:10:58Z</time>
      </trkpt>
      <trkpt lat="42.615797" lon="0.478093">
        <ele>1595.000000</ele>
        <time>2021-09-04T09:10:59Z</time>
      </trkpt>
      <trkpt lat="42.615796" lon="0.478078">
        <ele>1595.000000</ele>
        <time>2021-09-04T09:11:00Z</time>
      </trkpt>
      <trkpt lat="42.615795" lon="0.478067">
        <ele>1595.000000</ele>
        <time>2021-09-04T09:11:01Z</time>
      </trkpt>
      <trkpt lat="42.615794" lon="0.478057">
        <ele>1595.000000</ele>
        <time>2021-09-04T09:11:02Z</time>
      </trkpt>
      <trkpt lat="42.615793" lon="0.478050">
        <ele>1595.000000</ele>
        <time>2021-09-04T09:11:03Z</time>
      </trkpt>
      <trkpt lat="42.615791" lon="0.478045">
        <ele>1595.000000</ele>
        <time>2021-09-04T09:11:04Z</time>
      </trkpt>
      <trkpt lat="42.615790" lon="0.478040">
        <ele>1595.000000</ele>
        <time>2021-09-04T09:11:06Z</time>
      </trkpt>
      <trkpt lat="42.615791" lon="0.478050">
        <ele>1595.000000</ele>
        <time>2021-09-04T09:11:07Z</time>
      </trkpt>
      <trkpt lat="42.615789" lon="0.478042">
        <ele>1595.000000</ele>
        <time>2021-09-04T09:11:08Z</time>
      </trkpt>
      <trkpt lat="42.615789" lon="0.478038">
        <ele>1595.000000</ele>
        <time>2021-09-04T09:11:10Z</time>
      </trkpt>
      <trkpt lat="42.615789" lon="0.478032">
        <ele>1596.000000</ele>
        <time>2021-09-04T09:11:11Z</time>
      </trkpt>
      <trkpt lat="42.615789" lon="0.478027">
        <ele>1596.000000</ele>
        <time>2021-09-04T09:11:12Z</time>
      </trkpt>
      <trkpt lat="42.615789" lon="0.478020">
        <ele>1596.000000</ele>
        <time>2021-09-04T09:11:13Z</time>
      </trkpt>
      <trkpt lat="42.615790" lon="0.478015">
        <ele>1596.000000</ele>
        <time>2021-09-04T09:11:14Z</time>
      </trkpt>
      <trkpt lat="42.615792" lon="0.478022">
        <ele>1596.000000</ele>
        <time>2021-09-04T09:11:15Z</time>
      </trkpt>
      <trkpt lat="42.615793" lon="0.478027">
        <ele>1596.000000</ele>
        <time>2021-09-04T09:11:16Z</time>
      </trkpt>
      <trkpt lat="42.615790" lon="0.478052">
        <ele>1596.000000</ele>
        <time>2021-09-04T09:11:18Z</time>
      </trkpt>
      <trkpt lat="42.615787" lon="0.478062">
        <ele>1597.000000</ele>
        <time>2021-09-04T09:11:19Z</time>
      </trkpt>
      <trkpt lat="42.615785" lon="0.478057">
        <ele>1597.000000</ele>
        <time>2021-09-04T09:11:20Z</time>
      </trkpt>
      <trkpt lat="42.615783" lon="0.478049">
        <ele>1597.000000</ele>
        <time>2021-09-04T09:11:21Z</time>
      </trkpt>
      <trkpt lat="42.615785" lon="0.478046">
        <ele>1597.000000</ele>
        <time>2021-09-04T09:11:23Z</time>
      </trkpt>
      <trkpt lat="42.615785" lon="0.478037">
        <ele>1597.000000</ele>
        <time>2021-09-04T09:11:24Z</time>
      </trkpt>
      <trkpt lat="42.615783" lon="0.478032">
        <ele>1597.000000</ele>
        <time>2021-09-04T09:11:25Z</time>
      </trkpt>
      <trkpt lat="42.615778" lon="0.478000">
        <ele>1598.000000</ele>
        <time>2021-09-04T09:11:26Z</time>
      </trkpt>
      <trkpt lat="42.615775" lon="0.477988">
        <ele>1598.000000</ele>
        <time>2021-09-04T09:11:27Z</time>
      </trkpt>
      <trkpt lat="42.615775" lon="0.477977">
        <ele>1598.000000</ele>
        <time>2021-09-04T09:11:28Z</time>
      </trkpt>
      <trkpt lat="42.615778" lon="0.477968">
        <ele>1598.000000</ele>
        <time>2021-09-04T09:11:30Z</time>
      </trkpt>
      <trkpt lat="42.615780" lon="0.477958">
        <ele>1598.000000</ele>
        <time>2021-09-04T09:11:31Z</time>
      </trkpt>
      <trkpt lat="42.615781" lon="0.477950">
        <ele>1598.000000</ele>
        <time>2021-09-04T09:11:32Z</time>
      </trkpt>
      <trkpt lat="42.615782" lon="0.477938">
        <ele>1599.000000</ele>
        <time>2021-09-04T09:11:33Z</time>
      </trkpt>
      <trkpt lat="42.615781" lon="0.477930">
        <ele>1599.000000</ele>
        <time>2021-09-04T09:11:34Z</time>
      </trkpt>
      <trkpt lat="42.615781" lon="0.477920">
        <ele>1599.000000</ele>
        <time>2021-09-04T09:11:35Z</time>
      </trkpt>
      <trkpt lat="42.615780" lon="0.477912">
        <ele>1599.000000</ele>
        <time>2021-09-04T09:11:36Z</time>
      </trkpt>
      <trkpt lat="42.615778" lon="0.477908">
        <ele>1599.000000</ele>
        <time>2021-09-04T09:11:38Z</time>
      </trkpt>
      <trkpt lat="42.615776" lon="0.477905">
        <ele>1599.000000</ele>
        <time>2021-09-04T09:11:39Z</time>
      </trkpt>
      <trkpt lat="42.615775" lon="0.477893">
        <ele>1599.000000</ele>
        <time>2021-09-04T09:11:40Z</time>
      </trkpt>
      <trkpt lat="42.615773" lon="0.477873">
        <ele>1599.000000</ele>
        <time>2021-09-04T09:11:41Z</time>
      </trkpt>
      <trkpt lat="42.615772" lon="0.477860">
        <ele>1599.000000</ele>
        <time>2021-09-04T09:11:42Z</time>
      </trkpt>
      <trkpt lat="42.615775" lon="0.477867">
        <ele>1599.000000</ele>
        <time>2021-09-04T09:11:43Z</time>
      </trkpt>
      <trkpt lat="42.615775" lon="0.477857">
        <ele>1599.000000</ele>
        <time>2021-09-04T09:11:44Z</time>
      </trkpt>
      <trkpt lat="42.615774" lon="0.477848">
        <ele>1600.000000</ele>
        <time>2021-09-04T09:11:45Z</time>
      </trkpt>
      <trkpt lat="42.615776" lon="0.477835">
        <ele>1600.000000</ele>
        <time>2021-09-04T09:11:46Z</time>
      </trkpt>
      <trkpt lat="42.615777" lon="0.477833">
        <ele>1600.000000</ele>
        <time>2021-09-04T09:11:47Z</time>
      </trkpt>
      <trkpt lat="42.615777" lon="0.477843">
        <ele>1600.000000</ele>
        <time>2021-09-04T09:11:48Z</time>
      </trkpt>
      <trkpt lat="42.615779" lon="0.477837">
        <ele>1601.000000</ele>
        <time>2021-09-04T09:11:49Z</time>
      </trkpt>
      <trkpt lat="42.615780" lon="0.477840">
        <ele>1601.000000</ele>
        <time>2021-09-04T09:11:50Z</time>
      </trkpt>
      <trkpt lat="42.615782" lon="0.477835">
        <ele>1601.000000</ele>
        <time>2021-09-04T09:11:51Z</time>
      </trkpt>
      <trkpt lat="42.615786" lon="0.477827">
        <ele>1601.000000</ele>
        <time>2021-09-04T09:11:53Z</time>
      </trkpt>
      <trkpt lat="42.615789" lon="0.477820">
        <ele>1601.000000</ele>
        <time>2021-09-04T09:11:54Z</time>
      </trkpt>
      <trkpt lat="42.615791" lon="0.477812">
        <ele>1601.000000</ele>
        <time>2021-09-04T09:11:55Z</time>
      </trkpt>
      <trkpt lat="42.615793" lon="0.477803">
        <ele>1602.000000</ele>
        <time>2021-09-04T09:11:56Z</time>
      </trkpt>
      <trkpt lat="42.615794" lon="0.477797">
        <ele>1602.000000</ele>
        <time>2021-09-04T09:11:57Z</time>
      </trkpt>
      <trkpt lat="42.615794" lon="0.477790">
        <ele>1602.000000</ele>
        <time>2021-09-04T09:11:59Z</time>
      </trkpt>
      <trkpt lat="42.615793" lon="0.477787">
        <ele>1602.000000</ele>
        <time>2021-09-04T09:12:00Z</time>
      </trkpt>
      <trkpt lat="42.615793" lon="0.477790">
        <ele>1602.000000</ele>
        <time>2021-09-04T09:12:01Z</time>
      </trkpt>
      <trkpt lat="42.615796" lon="0.477780">
        <ele>1602.000000</ele>
        <time>2021-09-04T09:12:02Z</time>
      </trkpt>
      <trkpt lat="42.615798" lon="0.477772">
        <ele>1602.000000</ele>
        <time>2021-09-04T09:12:03Z</time>
      </trkpt>
      <trkpt lat="42.615801" lon="0.477760">
        <ele>1602.000000</ele>
        <time>2021-09-04T09:12:04Z</time>
      </trkpt>
      <trkpt lat="42.615805" lon="0.477745">
        <ele>1602.000000</ele>
        <time>2021-09-04T09:12:05Z</time>
      </trkpt>
      <trkpt lat="42.615808" lon="0.477728">
        <ele>1602.000000</ele>
        <time>2021-09-04T09:12:06Z</time>
      </trkpt>
      <trkpt lat="42.615810" lon="0.477715">
        <ele>1602.000000</ele>
        <time>2021-09-04T09:12:07Z</time>
      </trkpt>
      <trkpt lat="42.615812" lon="0.477700">
        <ele>1602.000000</ele>
        <time>2021-09-04T09:12:08Z</time>
      </trkpt>
      <trkpt lat="42.615813" lon="0.477685">
        <ele>1602.000000</ele>
        <time>2021-09-04T09:12:09Z</time>
      </trkpt>
      <trkpt lat="42.615812" lon="0.477675">
        <ele>1603.000000</ele>
        <time>2021-09-04T09:12:10Z</time>
      </trkpt>
      <trkpt lat="42.615810" lon="0.477672">
        <ele>1603.000000</ele>
        <time>2021-09-04T09:12:11Z</time>
      </trkpt>
      <trkpt lat="42.615808" lon="0.477660">
        <ele>1603.000000</ele>
        <time>2021-09-04T09:12:12Z</time>
      </trkpt>
      <trkpt lat="42.615788" lon="0.477653">
        <ele>1603.000000</ele>
        <time>2021-09-04T09:12:13Z</time>
      </trkpt>
      <trkpt lat="42.615785" lon="0.477645">
        <ele>1603.000000</ele>
        <time>2021-09-04T09:12:14Z</time>
      </trkpt>
      <trkpt lat="42.615777" lon="0.477647">
        <ele>1603.000000</ele>
        <time>2021-09-04T09:12:15Z</time>
      </trkpt>
      <trkpt lat="42.615773" lon="0.477647">
        <ele>1603.000000</ele>
        <time>2021-09-04T09:12:16Z</time>
      </trkpt>
      <trkpt lat="42.615772" lon="0.477640">
        <ele>1603.000000</ele>
        <time>2021-09-04T09:12:17Z</time>
      </trkpt>
      <trkpt lat="42.615768" lon="0.477640">
        <ele>1604.000000</ele>
        <time>2021-09-04T09:12:18Z</time>
      </trkpt>
      <trkpt lat="42.615762" lon="0.477642">
        <ele>1604.000000</ele>
        <time>2021-09-04T09:12:19Z</time>
      </trkpt>
      <trkpt lat="42.615777" lon="0.477643">
        <ele>1604.000000</ele>
        <time>2021-09-04T09:12:20Z</time>
      </trkpt>
      <trkpt lat="42.615781" lon="0.477643">
        <ele>1604.000000</ele>
        <time>2021-09-04T09:12:21Z</time>
      </trkpt>
      <trkpt lat="42.615788" lon="0.477642">
        <ele>1604.000000</ele>
        <time>2021-09-04T09:12:22Z</time>
      </trkpt>
      <trkpt lat="42.615791" lon="0.477633">
        <ele>1605.000000</ele>
        <time>2021-09-04T09:12:23Z</time>
      </trkpt>
      <trkpt lat="42.615792" lon="0.477623">
        <ele>1605.000000</ele>
        <time>2021-09-04T09:12:24Z</time>
      </trkpt>
      <trkpt lat="42.615798" lon="0.477612">
        <ele>1605.000000</ele>
        <time>2021-09-04T09:12:25Z</time>
      </trkpt>
      <trkpt lat="42.615805" lon="0.477600">
        <ele>1605.000000</ele>
        <time>2021-09-04T09:12:26Z</time>
      </trkpt>
      <trkpt lat="42.615806" lon="0.477598">
        <ele>1605.000000</ele>
        <time>2021-09-04T09:12:27Z</time>
      </trkpt>
      <trkpt lat="42.615810" lon="0.477593">
        <ele>1605.000000</ele>
        <time>2021-09-04T09:12:28Z</time>
      </trkpt>
      <trkpt lat="42.615811" lon="0.477592">
        <ele>1605.000000</ele>
        <time>2021-09-04T09:12:29Z</time>
      </trkpt>
      <trkpt lat="42.615808" lon="0.477593">
        <ele>1606.000000</ele>
        <time>2021-09-04T09:12:30Z</time>
      </trkpt>
      <trkpt lat="42.615804" lon="0.477602">
        <ele>1606.000000</ele>
        <time>2021-09-04T09:12:31Z</time>
      </trkpt>
      <trkpt lat="42.615813" lon="0.477587">
        <ele>1606.000000</ele>
        <time>2021-09-04T09:12:32Z</time>
      </trkpt>
      <trkpt lat="42.615818" lon="0.477577">
        <ele>1606.000000</ele>
        <time>2021-09-04T09:12:33Z</time>
      </trkpt>
      <trkpt lat="42.615819" lon="0.477575">
        <ele>1606.000000</ele>
        <time>2021-09-04T09:12:34Z</time>
      </trkpt>
      <trkpt lat="42.615822" lon="0.477567">
        <ele>1606.000000</ele>
        <time>2021-09-04T09:12:35Z</time>
      </trkpt>
      <trkpt lat="42.615822" lon="0.477555">
        <ele>1607.000000</ele>
        <time>2021-09-04T09:12:36Z</time>
      </trkpt>
      <trkpt lat="42.615819" lon="0.477558">
        <ele>1607.000000</ele>
        <time>2021-09-04T09:12:37Z</time>
      </trkpt>
      <trkpt lat="42.615822" lon="0.477557">
        <ele>1607.000000</ele>
        <time>2021-09-04T09:12:38Z</time>
      </trkpt>
      <trkpt lat="42.615823" lon="0.477560">
        <ele>1607.000000</ele>
        <time>2021-09-04T09:12:39Z</time>
      </trkpt>
      <trkpt lat="42.615830" lon="0.477562">
        <ele>1607.000000</ele>
        <time>2021-09-04T09:12:40Z</time>
      </trkpt>
      <trkpt lat="42.615840" lon="0.477578">
        <ele>1607.000000</ele>
        <time>2021-09-04T09:12:41Z</time>
      </trkpt>
      <trkpt lat="42.615857" lon="0.477592">
        <ele>1607.000000</ele>
        <time>2021-09-04T09:12:42Z</time>
      </trkpt>
      <trkpt lat="42.615862" lon="0.477590">
        <ele>1608.000000</ele>
        <time>2021-09-04T09:12:43Z</time>
      </trkpt>
      <trkpt lat="42.615870" lon="0.477587">
        <ele>1608.000000</ele>
        <time>2021-09-04T09:12:44Z</time>
      </trkpt>
      <trkpt lat="42.615873" lon="0.477582">
        <ele>1608.000000</ele>
        <time>2021-09-04T09:12:45Z</time>
      </trkpt>
      <trkpt lat="42.615877" lon="0.477577">
        <ele>1608.000000</ele>
        <time>2021-09-04T09:12:46Z</time>
      </trkpt>
      <trkpt lat="42.615877" lon="0.477579">
        <ele>1608.000000</ele>
        <time>2021-09-04T09:12:47Z</time>
      </trkpt>
      <trkpt lat="42.615890" lon="0.477579">
        <ele>1608.000000</ele>
        <time>2021-09-04T09:12:48Z</time>
      </trkpt>
      <trkpt lat="42.615902" lon="0.477586">
        <ele>1608.000000</ele>
        <time>2021-09-04T09:12:49Z</time>
      </trkpt>
      <trkpt lat="42.615907" lon="0.477612">
        <ele>1608.000000</ele>
        <time>2021-09-04T09:12:50Z</time>
      </trkpt>
      <trkpt lat="42.615912" lon="0.477625">
        <ele>1608.000000</ele>
        <time>2021-09-04T09:12:51Z</time>
      </trkpt>
      <trkpt lat="42.615923" lon="0.477643">
        <ele>1608.000000</ele>
        <time>2021-09-04T09:12:52Z</time>
      </trkpt>
      <trkpt lat="42.615927" lon="0.477662">
        <ele>1608.000000</ele>
        <time>2021-09-04T09:12:53Z</time>
      </trkpt>
      <trkpt lat="42.615926" lon="0.477675">
        <ele>1608.000000</ele>
        <time>2021-09-04T09:12:54Z</time>
      </trkpt>
      <trkpt lat="42.615915" lon="0.477683">
        <ele>1609.000000</ele>
        <time>2021-09-04T09:12:55Z</time>
      </trkpt>
      <trkpt lat="42.615910" lon="0.477695">
        <ele>1609.000000</ele>
        <time>2021-09-04T09:12:56Z</time>
      </trkpt>
      <trkpt lat="42.615912" lon="0.477705">
        <ele>1609.000000</ele>
        <time>2021-09-04T09:12:57Z</time>
      </trkpt>
      <trkpt lat="42.615919" lon="0.477707">
        <ele>1609.000000</ele>
        <time>2021-09-04T09:12:58Z</time>
      </trkpt>
      <trkpt lat="42.615922" lon="0.477707">
        <ele>1609.000000</ele>
        <time>2021-09-04T09:12:59Z</time>
      </trkpt>
      <trkpt lat="42.615937" lon="0.477712">
        <ele>1609.000000</ele>
        <time>2021-09-04T09:13:00Z</time>
      </trkpt>
      <trkpt lat="42.615945" lon="0.477717">
        <ele>1609.000000</ele>
        <time>2021-09-04T09:13:01Z</time>
      </trkpt>
      <trkpt lat="42.615953" lon="0.477718">
        <ele>1609.000000</ele>
        <time>2021-09-04T09:13:02Z</time>
      </trkpt>
      <trkpt lat="42.615952" lon="0.477714">
        <ele>1609.000000</ele>
        <time>2021-09-04T09:13:03Z</time>
      </trkpt>
      <trkpt lat="42.615955" lon="0.477712">
        <ele>1610.000000</ele>
        <time>2021-09-04T09:13:04Z</time>
      </trkpt>
      <trkpt lat="42.615953" lon="0.477707">
        <ele>1610.000000</ele>
        <time>2021-09-04T09:13:05Z</time>
      </trkpt>
      <trkpt lat="42.615948" lon="0.477703">
        <ele>1610.000000</ele>
        <time>2021-09-04T09:13:06Z</time>
      </trkpt>
      <trkpt lat="42.615947" lon="0.477697">
        <ele>1610.000000</ele>
        <time>2021-09-04T09:13:07Z</time>
      </trkpt>
      <trkpt lat="42.615955" lon="0.477709">
        <ele>1610.000000</ele>
        <time>2021-09-04T09:13:08Z</time>
      </trkpt>
      <trkpt lat="42.615958" lon="0.477712">
        <ele>1610.000000</ele>
        <time>2021-09-04T09:13:09Z</time>
      </trkpt>
      <trkpt lat="42.615955" lon="0.477728">
        <ele>1610.000000</ele>
        <time>2021-09-04T09:13:10Z</time>
      </trkpt>
      <trkpt lat="42.615953" lon="0.477747">
        <ele>1611.000000</ele>
        <time>2021-09-04T09:13:11Z</time>
      </trkpt>
      <trkpt lat="42.615958" lon="0.477760">
        <ele>1611.000000</ele>
        <time>2021-09-04T09:13:12Z</time>
      </trkpt>
      <trkpt lat="42.615961" lon="0.477772">
        <ele>1611.000000</ele>
        <time>2021-09-04T09:13:13Z</time>
      </trkpt>
      <trkpt lat="42.615964" lon="0.477775">
        <ele>1611.000000</ele>
        <time>2021-09-04T09:13:14Z</time>
      </trkpt>
      <trkpt lat="42.615968" lon="0.477783">
        <ele>1611.000000</ele>
        <time>2021-09-04T09:13:15Z</time>
      </trkpt>
      <trkpt lat="42.615972" lon="0.477785">
        <ele>1611.000000</ele>
        <time>2021-09-04T09:13:16Z</time>
      </trkpt>
      <trkpt lat="42.615990" lon="0.477787">
        <ele>1612.000000</ele>
        <time>2021-09-04T09:13:17Z</time>
      </trkpt>
      <trkpt lat="42.615992" lon="0.477800">
        <ele>1612.000000</ele>
        <time>2021-09-04T09:13:18Z</time>
      </trkpt>
      <trkpt lat="42.615990" lon="0.477813">
        <ele>1612.000000</ele>
        <time>2021-09-04T09:13:19Z</time>
      </trkpt>
      <trkpt lat="42.615992" lon="0.477823">
        <ele>1612.000000</ele>
        <time>2021-09-04T09:13:20Z</time>
      </trkpt>
      <trkpt lat="42.615995" lon="0.477828">
        <ele>1612.000000</ele>
        <time>2021-09-04T09:13:21Z</time>
      </trkpt>
      <trkpt lat="42.616000" lon="0.477832">
        <ele>1613.000000</ele>
        <time>2021-09-04T09:13:22Z</time>
      </trkpt>
      <trkpt lat="42.616002" lon="0.477837">
        <ele>1613.000000</ele>
        <time>2021-09-04T09:13:23Z</time>
      </trkpt>
      <trkpt lat="42.616000" lon="0.477847">
        <ele>1613.000000</ele>
        <time>2021-09-04T09:13:24Z</time>
      </trkpt>
      <trkpt lat="42.616002" lon="0.477852">
        <ele>1613.000000</ele>
        <time>2021-09-04T09:13:25Z</time>
      </trkpt>
      <trkpt lat="42.616000" lon="0.477857">
        <ele>1613.000000</ele>
        <time>2021-09-04T09:13:26Z</time>
      </trkpt>
      <trkpt lat="42.616002" lon="0.477865">
        <ele>1613.000000</ele>
        <time>2021-09-04T09:13:27Z</time>
      </trkpt>
      <trkpt lat="42.616002" lon="0.477872">
        <ele>1613.000000</ele>
        <time>2021-09-04T09:13:28Z</time>
      </trkpt>
      <trkpt lat="42.616003" lon="0.477872">
        <ele>1613.000000</ele>
        <time>2021-09-04T09:13:29Z</time>
      </trkpt>
      <trkpt lat="42.616008" lon="0.477867">
        <ele>1614.000000</ele>
        <time>2021-09-04T09:13:30Z</time>
      </trkpt>
      <trkpt lat="42.616006" lon="0.477877">
        <ele>1614.000000</ele>
        <time>2021-09-04T09:13:31Z</time>
      </trkpt>
      <trkpt lat="42.616005" lon="0.477890">
        <ele>1614.000000</ele>
        <time>2021-09-04T09:13:32Z</time>
      </trkpt>
      <trkpt lat="42.615998" lon="0.477907">
        <ele>1614.000000</ele>
        <time>2021-09-04T09:13:33Z</time>
      </trkpt>
      <trkpt lat="42.615997" lon="0.477913">
        <ele>1614.000000</ele>
        <time>2021-09-04T09:13:34Z</time>
      </trkpt>
      <trkpt lat="42.615995" lon="0.477918">
        <ele>1614.000000</ele>
        <time>2021-09-04T09:13:35Z</time>
      </trkpt>
      <trkpt lat="42.615993" lon="0.477927">
        <ele>1614.000000</ele>
        <time>2021-09-04T09:13:36Z</time>
      </trkpt>
      <trkpt lat="42.615998" lon="0.477912">
        <ele>1614.000000</ele>
        <time>2021-09-04T09:13:37Z</time>
      </trkpt>
      <trkpt lat="42.615999" lon="0.477908">
        <ele>1614.000000</ele>
        <time>2021-09-04T09:13:38Z</time>
      </trkpt>
      <trkpt lat="42.616005" lon="0.477902">
        <ele>1614.000000</ele>
        <time>2021-09-04T09:13:39Z</time>
      </trkpt>
      <trkpt lat="42.616014" lon="0.477895">
        <ele>1614.000000</ele>
        <time>2021-09-04T09:13:40Z</time>
      </trkpt>
      <trkpt lat="42.616028" lon="0.477902">
        <ele>1614.000000</ele>
        <time>2021-09-04T09:13:41Z</time>
      </trkpt>
      <trkpt lat="42.616033" lon="0.477907">
        <ele>1615.000000</ele>
        <time>2021-09-04T09:13:42Z</time>
      </trkpt>
      <trkpt lat="42.616027" lon="0.477912">
        <ele>1615.000000</ele>
        <time>2021-09-04T09:13:43Z</time>
      </trkpt>
      <trkpt lat="42.616033" lon="0.477915">
        <ele>1615.000000</ele>
        <time>2021-09-04T09:13:44Z</time>
      </trkpt>
      <trkpt lat="42.616040" lon="0.477922">
        <ele>1615.000000</ele>
        <time>2021-09-04T09:13:45Z</time>
      </trkpt>
      <trkpt lat="42.616048" lon="0.477930">
        <ele>1615.000000</ele>
        <time>2021-09-04T09:13:46Z</time>
      </trkpt>
      <trkpt lat="42.616050" lon="0.477932">
        <ele>1615.000000</ele>
        <time>2021-09-04T09:13:47Z</time>
      </trkpt>
      <trkpt lat="42.616052" lon="0.477938">
        <ele>1615.000000</ele>
        <time>2021-09-04T09:13:48Z</time>
      </trkpt>
      <trkpt lat="42.616047" lon="0.477948">
        <ele>1615.000000</ele>
        <time>2021-09-04T09:13:49Z</time>
      </trkpt>
      <trkpt lat="42.616047" lon="0.477958">
        <ele>1615.000000</ele>
        <time>2021-09-04T09:13:50Z</time>
      </trkpt>
      <trkpt lat="42.616045" lon="0.477970">
        <ele>1616.000000</ele>
        <time>2021-09-04T09:13:51Z</time>
      </trkpt>
      <trkpt lat="42.616045" lon="0.477978">
        <ele>1616.000000</ele>
        <time>2021-09-04T09:13:52Z</time>
      </trkpt>
      <trkpt lat="42.616043" lon="0.477988">
        <ele>1616.000000</ele>
        <time>2021-09-04T09:13:53Z</time>
      </trkpt>
      <trkpt lat="42.616047" lon="0.477997">
        <ele>1616.000000</ele>
        <time>2021-09-04T09:13:54Z</time>
      </trkpt>
      <trkpt lat="42.616051" lon="0.477995">
        <ele>1616.000000</ele>
        <time>2021-09-04T09:13:55Z</time>
      </trkpt>
      <trkpt lat="42.616063" lon="0.477997">
        <ele>1617.000000</ele>
        <time>2021-09-04T09:13:56Z</time>
      </trkpt>
      <trkpt lat="42.616075" lon="0.477997">
        <ele>1617.000000</ele>
        <time>2021-09-04T09:13:57Z</time>
      </trkpt>
      <trkpt lat="42.616082" lon="0.477998">
        <ele>1617.000000</ele>
        <time>2021-09-04T09:13:58Z</time>
      </trkpt>
      <trkpt lat="42.616090" lon="0.478005">
        <ele>1617.000000</ele>
        <time>2021-09-04T09:13:59Z</time>
      </trkpt>
      <trkpt lat="42.616097" lon="0.478010">
        <ele>1617.000000</ele>
        <time>2021-09-04T09:14:00Z</time>
      </trkpt>
      <trkpt lat="42.616103" lon="0.478011">
        <ele>1617.000000</ele>
        <time>2021-09-04T09:14:01Z</time>
      </trkpt>
      <trkpt lat="42.616110" lon="0.478012">
        <ele>1618.000000</ele>
        <time>2021-09-04T09:14:02Z</time>
      </trkpt>
      <trkpt lat="42.616117" lon="0.478016">
        <ele>1618.000000</ele>
        <time>2021-09-04T09:14:03Z</time>
      </trkpt>
      <trkpt lat="42.616118" lon="0.478028">
        <ele>1618.000000</ele>
        <time>2021-09-04T09:14:04Z</time>
      </trkpt>
      <trkpt lat="42.616123" lon="0.478035">
        <ele>1618.000000</ele>
        <time>2021-09-04T09:14:05Z</time>
      </trkpt>
      <trkpt lat="42.616125" lon="0.478037">
        <ele>1618.000000</ele>
        <time>2021-09-04T09:14:06Z</time>
      </trkpt>
      <trkpt lat="42.616121" lon="0.478038">
        <ele>1618.000000</ele>
        <time>2021-09-04T09:14:07Z</time>
      </trkpt>
      <trkpt lat="42.616118" lon="0.478040">
        <ele>1619.000000</ele>
        <time>2021-09-04T09:14:08Z</time>
      </trkpt>
      <trkpt lat="42.616117" lon="0.478043">
        <ele>1619.000000</ele>
        <time>2021-09-04T09:14:09Z</time>
      </trkpt>
      <trkpt lat="42.616120" lon="0.478045">
        <ele>1619.000000</ele>
        <time>2021-09-04T09:14:10Z</time>
      </trkpt>
      <trkpt lat="42.616117" lon="0.478050">
        <ele>1619.000000</ele>
        <time>2021-09-04T09:14:11Z</time>
      </trkpt>
      <trkpt lat="42.616118" lon="0.478055">
        <ele>1619.000000</ele>
        <time>2021-09-04T09:14:12Z</time>
      </trkpt>
      <trkpt lat="42.616123" lon="0.478063">
        <ele>1619.000000</ele>
        <time>2021-09-04T09:14:13Z</time>
      </trkpt>
      <trkpt lat="42.616130" lon="0.478072">
        <ele>1619.000000</ele>
        <time>2021-09-04T09:14:14Z</time>
      </trkpt>
      <trkpt lat="42.616137" lon="0.478083">
        <ele>1619.000000</ele>
        <time>2021-09-04T09:14:15Z</time>
      </trkpt>
      <trkpt lat="42.616138" lon="0.478098">
        <ele>1620.000000</ele>
        <time>2021-09-04T09:14:16Z</time>
      </trkpt>
      <trkpt lat="42.616130" lon="0.478117">
        <ele>1620.000000</ele>
        <time>2021-09-04T09:14:17Z</time>
      </trkpt>
      <trkpt lat="42.616134" lon="0.478122">
        <ele>1620.000000</ele>
        <time>2021-09-04T09:14:18Z</time>
      </trkpt>
      <trkpt lat="42.616136" lon="0.478130">
        <ele>1620.000000</ele>
        <time>2021-09-04T09:14:20Z</time>
      </trkpt>
      <trkpt lat="42.616137" lon="0.478140">
        <ele>1620.000000</ele>
        <time>2021-09-04T09:14:21Z</time>
      </trkpt>
      <trkpt lat="42.616137" lon="0.478152">
        <ele>1621.000000</ele>
        <time>2021-09-04T09:14:22Z</time>
      </trkpt>
      <trkpt lat="42.616137" lon="0.478160">
        <ele>1621.000000</ele>
        <time>2021-09-04T09:14:23Z</time>
      </trkpt>
      <trkpt lat="42.616138" lon="0.478163">
        <ele>1621.000000</ele>
        <time>2021-09-04T09:14:24Z</time>
      </trkpt>
      <trkpt lat="42.616140" lon="0.478168">
        <ele>1621.000000</ele>
        <time>2021-09-04T09:14:25Z</time>
      </trkpt>
      <trkpt lat="42.616142" lon="0.478173">
        <ele>1621.000000</ele>
        <time>2021-09-04T09:14:26Z</time>
      </trkpt>
      <trkpt lat="42.616146" lon="0.478182">
        <ele>1621.000000</ele>
        <time>2021-09-04T09:14:27Z</time>
      </trkpt>
      <trkpt lat="42.616158" lon="0.478183">
        <ele>1621.000000</ele>
        <time>2021-09-04T09:14:28Z</time>
      </trkpt>
      <trkpt lat="42.616163" lon="0.478190">
        <ele>1621.000000</ele>
        <time>2021-09-04T09:14:29Z</time>
      </trkpt>
      <trkpt lat="42.616170" lon="0.478200">
        <ele>1621.000000</ele>
        <time>2021-09-04T09:14:30Z</time>
      </trkpt>
      <trkpt lat="42.616176" lon="0.478210">
        <ele>1621.000000</ele>
        <time>2021-09-04T09:14:31Z</time>
      </trkpt>
      <trkpt lat="42.616183" lon="0.478207">
        <ele>1621.000000</ele>
        <time>2021-09-04T09:14:33Z</time>
      </trkpt>
      <trkpt lat="42.616190" lon="0.478208">
        <ele>1621.000000</ele>
        <time>2021-09-04T09:14:34Z</time>
      </trkpt>
      <trkpt lat="42.616200" lon="0.478203">
        <ele>1621.000000</ele>
        <time>2021-09-04T09:14:35Z</time>
      </trkpt>
      <trkpt lat="42.616208" lon="0.478200">
        <ele>1622.000000</ele>
        <time>2021-09-04T09:14:36Z</time>
      </trkpt>
      <trkpt lat="42.616217" lon="0.478200">
        <ele>1622.000000</ele>
        <time>2021-09-04T09:14:37Z</time>
      </trkpt>
      <trkpt lat="42.616230" lon="0.478197">
        <ele>1622.000000</ele>
        <time>2021-09-04T09:14:38Z</time>
      </trkpt>
      <trkpt lat="42.616240" lon="0.478199">
        <ele>1622.000000</ele>
        <time>2021-09-04T09:14:39Z</time>
      </trkpt>
      <trkpt lat="42.616248" lon="0.478204">
        <ele>1622.000000</ele>
        <time>2021-09-04T09:14:40Z</time>
      </trkpt>
      <trkpt lat="42.616252" lon="0.478212">
        <ele>1622.000000</ele>
        <time>2021-09-04T09:14:41Z</time>
      </trkpt>
      <trkpt lat="42.616255" lon="0.478210">
        <ele>1622.000000</ele>
        <time>2021-09-04T09:14:42Z</time>
      </trkpt>
      <trkpt lat="42.616262" lon="0.478214">
        <ele>1623.000000</ele>
        <time>2021-09-04T09:14:43Z</time>
      </trkpt>
      <trkpt lat="42.616263" lon="0.478219">
        <ele>1623.000000</ele>
        <time>2021-09-04T09:14:44Z</time>
      </trkpt>
      <trkpt lat="42.616270" lon="0.478229">
        <ele>1623.000000</ele>
        <time>2021-09-04T09:14:45Z</time>
      </trkpt>
      <trkpt lat="42.616283" lon="0.478239">
        <ele>1623.000000</ele>
        <time>2021-09-04T09:14:46Z</time>
      </trkpt>
      <trkpt lat="42.616295" lon="0.478238">
        <ele>1623.000000</ele>
        <time>2021-09-04T09:14:47Z</time>
      </trkpt>
      <trkpt lat="42.616307" lon="0.478237">
        <ele>1624.000000</ele>
        <time>2021-09-04T09:14:48Z</time>
      </trkpt>
      <trkpt lat="42.616310" lon="0.478247">
        <ele>1624.000000</ele>
        <time>2021-09-04T09:14:49Z</time>
      </trkpt>
      <trkpt lat="42.616317" lon="0.478262">
        <ele>1624.000000</ele>
        <time>2021-09-04T09:14:50Z</time>
      </trkpt>
      <trkpt lat="42.616317" lon="0.478272">
        <ele>1624.000000</ele>
        <time>2021-09-04T09:14:51Z</time>
      </trkpt>
      <trkpt lat="42.616318" lon="0.478278">
        <ele>1624.000000</ele>
        <time>2021-09-04T09:14:52Z</time>
      </trkpt>
      <trkpt lat="42.616317" lon="0.478295">
        <ele>1625.000000</ele>
        <time>2021-09-04T09:14:53Z</time>
      </trkpt>
      <trkpt lat="42.616317" lon="0.478305">
        <ele>1625.000000</ele>
        <time>2021-09-04T09:14:54Z</time>
      </trkpt>
      <trkpt lat="42.616329" lon="0.478307">
        <ele>1625.000000</ele>
        <time>2021-09-04T09:14:55Z</time>
      </trkpt>
      <trkpt lat="42.616333" lon="0.478307">
        <ele>1625.000000</ele>
        <time>2021-09-04T09:14:56Z</time>
      </trkpt>
      <trkpt lat="42.616352" lon="0.478302">
        <ele>1625.000000</ele>
        <time>2021-09-04T09:14:57Z</time>
      </trkpt>
      <trkpt lat="42.616362" lon="0.478298">
        <ele>1626.000000</ele>
        <time>2021-09-04T09:14:58Z</time>
      </trkpt>
      <trkpt lat="42.616367" lon="0.478309">
        <ele>1626.000000</ele>
        <time>2021-09-04T09:14:59Z</time>
      </trkpt>
      <trkpt lat="42.616367" lon="0.478310">
        <ele>1626.000000</ele>
        <time>2021-09-04T09:15:00Z</time>
      </trkpt>
      <trkpt lat="42.616368" lon="0.478317">
        <ele>1626.000000</ele>
        <time>2021-09-04T09:15:01Z</time>
      </trkpt>
      <trkpt lat="42.616372" lon="0.478325">
        <ele>1626.000000</ele>
        <time>2021-09-04T09:15:02Z</time>
      </trkpt>
      <trkpt lat="42.616375" lon="0.478338">
        <ele>1626.000000</ele>
        <time>2021-09-04T09:15:03Z</time>
      </trkpt>
      <trkpt lat="42.616377" lon="0.478345">
        <ele>1626.000000</ele>
        <time>2021-09-04T09:15:04Z</time>
      </trkpt>
      <trkpt lat="42.616382" lon="0.478352">
        <ele>1627.000000</ele>
        <time>2021-09-04T09:15:05Z</time>
      </trkpt>
      <trkpt lat="42.616381" lon="0.478368">
        <ele>1627.000000</ele>
        <time>2021-09-04T09:15:06Z</time>
      </trkpt>
      <trkpt lat="42.616379" lon="0.478377">
        <ele>1627.000000</ele>
        <time>2021-09-04T09:15:07Z</time>
      </trkpt>
      <trkpt lat="42.616381" lon="0.478383">
        <ele>1627.000000</ele>
        <time>2021-09-04T09:15:08Z</time>
      </trkpt>
      <trkpt lat="42.616381" lon="0.478395">
        <ele>1627.000000</ele>
        <time>2021-09-04T09:15:09Z</time>
      </trkpt>
      <trkpt lat="42.616382" lon="0.478403">
        <ele>1627.000000</ele>
        <time>2021-09-04T09:15:10Z</time>
      </trkpt>
      <trkpt lat="42.616383" lon="0.478415">
        <ele>1627.000000</ele>
        <time>2021-09-04T09:15:11Z</time>
      </trkpt>
      <trkpt lat="42.616384" lon="0.478423">
        <ele>1627.000000</ele>
        <time>2021-09-04T09:15:12Z</time>
      </trkpt>
      <trkpt lat="42.616384" lon="0.478433">
        <ele>1627.000000</ele>
        <time>2021-09-04T09:15:13Z</time>
      </trkpt>
      <trkpt lat="42.616384" lon="0.478440">
        <ele>1627.000000</ele>
        <time>2021-09-04T09:15:14Z</time>
      </trkpt>
      <trkpt lat="42.616384" lon="0.478447">
        <ele>1627.000000</ele>
        <time>2021-09-04T09:15:15Z</time>
      </trkpt>
      <trkpt lat="42.616386" lon="0.478458">
        <ele>1627.000000</ele>
        <time>2021-09-04T09:15:16Z</time>
      </trkpt>
      <trkpt lat="42.616395" lon="0.478467">
        <ele>1627.000000</ele>
        <time>2021-09-04T09:15:17Z</time>
      </trkpt>
      <trkpt lat="42.616402" lon="0.478468">
        <ele>1627.000000</ele>
        <time>2021-09-04T09:15:18Z</time>
      </trkpt>
      <trkpt lat="42.616405" lon="0.478473">
        <ele>1627.000000</ele>
        <time>2021-09-04T09:15:19Z</time>
      </trkpt>
      <trkpt lat="42.616410" lon="0.478477">
        <ele>1627.000000</ele>
        <time>2021-09-04T09:15:20Z</time>
      </trkpt>
      <trkpt lat="42.616417" lon="0.478483">
        <ele>1627.000000</ele>
        <time>2021-09-04T09:15:21Z</time>
      </trkpt>
      <trkpt lat="42.616423" lon="0.478484">
        <ele>1627.000000</ele>
        <time>2021-09-04T09:15:22Z</time>
      </trkpt>
      <trkpt lat="42.616425" lon="0.478489">
        <ele>1627.000000</ele>
        <time>2021-09-04T09:15:23Z</time>
      </trkpt>
      <trkpt lat="42.616427" lon="0.478494">
        <ele>1627.000000</ele>
        <time>2021-09-04T09:15:24Z</time>
      </trkpt>
      <trkpt lat="42.616428" lon="0.478510">
        <ele>1627.000000</ele>
        <time>2021-09-04T09:15:25Z</time>
      </trkpt>
      <trkpt lat="42.616428" lon="0.478518">
        <ele>1627.000000</ele>
        <time>2021-09-04T09:15:26Z</time>
      </trkpt>
      <trkpt lat="42.616428" lon="0.478523">
        <ele>1627.000000</ele>
        <time>2021-09-04T09:15:27Z</time>
      </trkpt>
      <trkpt lat="42.616432" lon="0.478527">
        <ele>1627.000000</ele>
        <time>2021-09-04T09:15:28Z</time>
      </trkpt>
      <trkpt lat="42.616432" lon="0.478523">
        <ele>1627.000000</ele>
        <time>2021-09-04T09:15:29Z</time>
      </trkpt>
      <trkpt lat="42.616433" lon="0.478520">
        <ele>1627.000000</ele>
        <time>2021-09-04T09:15:31Z</time>
      </trkpt>
      <trkpt lat="42.616440" lon="0.478523">
        <ele>1627.000000</ele>
        <time>2021-09-04T09:15:33Z</time>
      </trkpt>
      <trkpt lat="42.616448" lon="0.478531">
        <ele>1627.000000</ele>
        <time>2021-09-04T09:15:34Z</time>
      </trkpt>
      <trkpt lat="42.616450" lon="0.478535">
        <ele>1628.000000</ele>
        <time>2021-09-04T09:15:35Z</time>
      </trkpt>
      <trkpt lat="42.616447" lon="0.478542">
        <ele>1628.000000</ele>
        <time>2021-09-04T09:15:36Z</time>
      </trkpt>
      <trkpt lat="42.616445" lon="0.478545">
        <ele>1628.000000</ele>
        <time>2021-09-04T09:15:37Z</time>
      </trkpt>
      <trkpt lat="42.616448" lon="0.478547">
        <ele>1628.000000</ele>
        <time>2021-09-04T09:15:38Z</time>
      </trkpt>
      <trkpt lat="42.616450" lon="0.478552">
        <ele>1628.000000</ele>
        <time>2021-09-04T09:15:40Z</time>
      </trkpt>
      <trkpt lat="42.616454" lon="0.478557">
        <ele>1629.000000</ele>
        <time>2021-09-04T09:15:41Z</time>
      </trkpt>
      <trkpt lat="42.616455" lon="0.478552">
        <ele>1629.000000</ele>
        <time>2021-09-04T09:15:42Z</time>
      </trkpt>
      <trkpt lat="42.616447" lon="0.478553">
        <ele>1629.000000</ele>
        <time>2021-09-04T09:15:44Z</time>
      </trkpt>
      <trkpt lat="42.616443" lon="0.478552">
        <ele>1629.000000</ele>
        <time>2021-09-04T09:15:47Z</time>
      </trkpt>
      <trkpt lat="42.616440" lon="0.478548">
        <ele>1630.000000</ele>
        <time>2021-09-04T09:15:48Z</time>
      </trkpt>
      <trkpt lat="42.616442" lon="0.478540">
        <ele>1630.000000</ele>
        <time>2021-09-04T09:15:49Z</time>
      </trkpt>
      <trkpt lat="42.616437" lon="0.478530">
        <ele>1630.000000</ele>
        <time>2021-09-04T09:15:51Z</time>
      </trkpt>
      <trkpt lat="42.616435" lon="0.478530">
        <ele>1630.000000</ele>
        <time>2021-09-04T09:15:52Z</time>
      </trkpt>
      <trkpt lat="42.616438" lon="0.478534">
        <ele>1630.000000</ele>
        <time>2021-09-04T09:15:53Z</time>
      </trkpt>
      <trkpt lat="42.616442" lon="0.478539">
        <ele>1630.000000</ele>
        <time>2021-09-04T09:15:54Z</time>
      </trkpt>
      <trkpt lat="42.616450" lon="0.478545">
        <ele>1632.000000</ele>
        <time>2021-09-04T09:16:06Z</time>
      </trkpt>
      <trkpt lat="42.616453" lon="0.478547">
        <ele>1632.000000</ele>
        <time>2021-09-04T09:16:07Z</time>
      </trkpt>
      <trkpt lat="42.616453" lon="0.478544">
        <ele>1632.000000</ele>
        <time>2021-09-04T09:16:08Z</time>
      </trkpt>
      <trkpt lat="42.616455" lon="0.478541">
        <ele>1632.000000</ele>
        <time>2021-09-04T09:16:09Z</time>
      </trkpt>
      <trkpt lat="42.616460" lon="0.478539">
        <ele>1632.000000</ele>
        <time>2021-09-04T09:16:11Z</time>
      </trkpt>
      <trkpt lat="42.616467" lon="0.478539">
        <ele>1632.000000</ele>
        <time>2021-09-04T09:16:12Z</time>
      </trkpt>
      <trkpt lat="42.616472" lon="0.478539">
        <ele>1632.000000</ele>
        <time>2021-09-04T09:16:13Z</time>
      </trkpt>
      <trkpt lat="42.616478" lon="0.478539">
        <ele>1632.000000</ele>
        <time>2021-09-04T09:16:14Z</time>
      </trkpt>
      <trkpt lat="42.616483" lon="0.478539">
        <ele>1632.000000</ele>
        <time>2021-09-04T09:16:15Z</time>
      </trkpt>
      <trkpt lat="42.616490" lon="0.478539">
        <ele>1632.000000</ele>
        <time>2021-09-04T09:16:16Z</time>
      </trkpt>
      <trkpt lat="42.616497" lon="0.478539">
        <ele>1632.000000</ele>
        <time>2021-09-04T09:16:17Z</time>
      </trkpt>
      <trkpt lat="42.616500" lon="0.478539">
        <ele>1633.000000</ele>
        <time>2021-09-04T09:16:18Z</time>
      </trkpt>
      <trkpt lat="42.616503" lon="0.478542">
        <ele>1633.000000</ele>
        <time>2021-09-04T09:16:21Z</time>
      </trkpt>
      <trkpt lat="42.616507" lon="0.478543">
        <ele>1633.000000</ele>
        <time>2021-09-04T09:16:22Z</time>
      </trkpt>
      <trkpt lat="42.616510" lon="0.478545">
        <ele>1633.000000</ele>
        <time>2021-09-04T09:16:23Z</time>
      </trkpt>
      <trkpt lat="42.616522" lon="0.478542">
        <ele>1633.000000</ele>
        <time>2021-09-04T09:16:24Z</time>
      </trkpt>
      <trkpt lat="42.616534" lon="0.478550">
        <ele>1634.000000</ele>
        <time>2021-09-04T09:16:25Z</time>
      </trkpt>
      <trkpt lat="42.616543" lon="0.478558">
        <ele>1634.000000</ele>
        <time>2021-09-04T09:16:26Z</time>
      </trkpt>
      <trkpt lat="42.616557" lon="0.478563">
        <ele>1634.000000</ele>
        <time>2021-09-04T09:16:27Z</time>
      </trkpt>
      <trkpt lat="42.616565" lon="0.478567">
        <ele>1634.000000</ele>
        <time>2021-09-04T09:16:28Z</time>
      </trkpt>
      <trkpt lat="42.616570" lon="0.478562">
        <ele>1634.000000</ele>
        <time>2021-09-04T09:16:29Z</time>
      </trkpt>
      <trkpt lat="42.616580" lon="0.478559">
        <ele>1634.000000</ele>
        <time>2021-09-04T09:16:30Z</time>
      </trkpt>
      <trkpt lat="42.616582" lon="0.478562">
        <ele>1635.000000</ele>
        <time>2021-09-04T09:16:31Z</time>
      </trkpt>
      <trkpt lat="42.616588" lon="0.478562">
        <ele>1635.000000</ele>
        <time>2021-09-04T09:16:32Z</time>
      </trkpt>
      <trkpt lat="42.616595" lon="0.478560">
        <ele>1635.000000</ele>
        <time>2021-09-04T09:16:33Z</time>
      </trkpt>
      <trkpt lat="42.616600" lon="0.478556">
        <ele>1635.000000</ele>
        <time>2021-09-04T09:16:34Z</time>
      </trkpt>
      <trkpt lat="42.616607" lon="0.478551">
        <ele>1635.000000</ele>
        <time>2021-09-04T09:16:35Z</time>
      </trkpt>
      <trkpt lat="42.616607" lon="0.478537">
        <ele>1635.000000</ele>
        <time>2021-09-04T09:16:36Z</time>
      </trkpt>
      <trkpt lat="42.616610" lon="0.478528">
        <ele>1636.000000</ele>
        <time>2021-09-04T09:16:37Z</time>
      </trkpt>
      <trkpt lat="42.616612" lon="0.478518">
        <ele>1636.000000</ele>
        <time>2021-09-04T09:16:38Z</time>
      </trkpt>
      <trkpt lat="42.616615" lon="0.478510">
        <ele>1636.000000</ele>
        <time>2021-09-04T09:16:39Z</time>
      </trkpt>
      <trkpt lat="42.616618" lon="0.478505">
        <ele>1636.000000</ele>
        <time>2021-09-04T09:16:40Z</time>
      </trkpt>
      <trkpt lat="42.616620" lon="0.478507">
        <ele>1636.000000</ele>
        <time>2021-09-04T09:16:41Z</time>
      </trkpt>
      <trkpt lat="42.616628" lon="0.478505">
        <ele>1636.000000</ele>
        <time>2021-09-04T09:16:42Z</time>
      </trkpt>
      <trkpt lat="42.616638" lon="0.478507">
        <ele>1636.000000</ele>
        <time>2021-09-04T09:16:43Z</time>
      </trkpt>
      <trkpt lat="42.616637" lon="0.478513">
        <ele>1637.000000</ele>
        <time>2021-09-04T09:16:44Z</time>
      </trkpt>
      <trkpt lat="42.616628" lon="0.478514">
        <ele>1637.000000</ele>
        <time>2021-09-04T09:16:45Z</time>
      </trkpt>
      <trkpt lat="42.616633" lon="0.478512">
        <ele>1637.000000</ele>
        <time>2021-09-04T09:16:46Z</time>
      </trkpt>
      <trkpt lat="42.616643" lon="0.478515">
        <ele>1637.000000</ele>
        <time>2021-09-04T09:16:47Z</time>
      </trkpt>
      <trkpt lat="42.616650" lon="0.478518">
        <ele>1637.000000</ele>
        <time>2021-09-04T09:16:48Z</time>
      </trkpt>
      <trkpt lat="42.616655" lon="0.478519">
        <ele>1638.000000</ele>
        <time>2021-09-04T09:16:49Z</time>
      </trkpt>
      <trkpt lat="42.616662" lon="0.478518">
        <ele>1638.000000</ele>
        <time>2021-09-04T09:16:50Z</time>
      </trkpt>
      <trkpt lat="42.616670" lon="0.478519">
        <ele>1638.000000</ele>
        <time>2021-09-04T09:16:51Z</time>
      </trkpt>
      <trkpt lat="42.616675" lon="0.478520">
        <ele>1638.000000</ele>
        <time>2021-09-04T09:16:52Z</time>
      </trkpt>
      <trkpt lat="42.616683" lon="0.478521">
        <ele>1638.000000</ele>
        <time>2021-09-04T09:16:53Z</time>
      </trkpt>
      <trkpt lat="42.616690" lon="0.478522">
        <ele>1638.000000</ele>
        <time>2021-09-04T09:16:54Z</time>
      </trkpt>
      <trkpt lat="42.616695" lon="0.478524">
        <ele>1638.000000</ele>
        <time>2021-09-04T09:16:55Z</time>
      </trkpt>
      <trkpt lat="42.616705" lon="0.478528">
        <ele>1638.000000</ele>
        <time>2021-09-04T09:16:56Z</time>
      </trkpt>
      <trkpt lat="42.616713" lon="0.478531">
        <ele>1638.000000</ele>
        <time>2021-09-04T09:16:57Z</time>
      </trkpt>
      <trkpt lat="42.616720" lon="0.478542">
        <ele>1638.000000</ele>
        <time>2021-09-04T09:16:58Z</time>
      </trkpt>
      <trkpt lat="42.616725" lon="0.478545">
        <ele>1638.000000</ele>
        <time>2021-09-04T09:16:59Z</time>
      </trkpt>
      <trkpt lat="42.616728" lon="0.478550">
        <ele>1638.000000</ele>
        <time>2021-09-04T09:17:00Z</time>
      </trkpt>
      <trkpt lat="42.616733" lon="0.478555">
        <ele>1639.000000</ele>
        <time>2021-09-04T09:17:01Z</time>
      </trkpt>
      <trkpt lat="42.616742" lon="0.478558">
        <ele>1639.000000</ele>
        <time>2021-09-04T09:17:02Z</time>
      </trkpt>
      <trkpt lat="42.616745" lon="0.478563">
        <ele>1639.000000</ele>
        <time>2021-09-04T09:17:03Z</time>
      </trkpt>
      <trkpt lat="42.616743" lon="0.478565">
        <ele>1639.000000</ele>
        <time>2021-09-04T09:17:05Z</time>
      </trkpt>
      <trkpt lat="42.616745" lon="0.478566">
        <ele>1639.000000</ele>
        <time>2021-09-04T09:17:06Z</time>
      </trkpt>
      <trkpt lat="42.616753" lon="0.478570">
        <ele>1639.000000</ele>
        <time>2021-09-04T09:17:07Z</time>
      </trkpt>
      <trkpt lat="42.616760" lon="0.478566">
        <ele>1640.000000</ele>
        <time>2021-09-04T09:17:08Z</time>
      </trkpt>
      <trkpt lat="42.616763" lon="0.478563">
        <ele>1640.000000</ele>
        <time>2021-09-04T09:17:09Z</time>
      </trkpt>
      <trkpt lat="42.616762" lon="0.478558">
        <ele>1640.000000</ele>
        <time>2021-09-04T09:17:10Z</time>
      </trkpt>
      <trkpt lat="42.616765" lon="0.478560">
        <ele>1640.000000</ele>
        <time>2021-09-04T09:17:12Z</time>
      </trkpt>
      <trkpt lat="42.616761" lon="0.478555">
        <ele>1640.000000</ele>
        <time>2021-09-04T09:17:13Z</time>
      </trkpt>
      <trkpt lat="42.616765" lon="0.478548">
        <ele>1640.000000</ele>
        <time>2021-09-04T09:17:14Z</time>
      </trkpt>
      <trkpt lat="42.616775" lon="0.478540">
        <ele>1641.000000</ele>
        <time>2021-09-04T09:17:15Z</time>
      </trkpt>
      <trkpt lat="42.616783" lon="0.478540">
        <ele>1641.000000</ele>
        <time>2021-09-04T09:17:16Z</time>
      </trkpt>
      <trkpt lat="42.616788" lon="0.478545">
        <ele>1641.000000</ele>
        <time>2021-09-04T09:17:17Z</time>
      </trkpt>
      <trkpt lat="42.616795" lon="0.478553">
        <ele>1641.000000</ele>
        <time>2021-09-04T09:17:18Z</time>
      </trkpt>
      <trkpt lat="42.616802" lon="0.478558">
        <ele>1641.000000</ele>
        <time>2021-09-04T09:17:19Z</time>
      </trkpt>
      <trkpt lat="42.616805" lon="0.478565">
        <ele>1641.000000</ele>
        <time>2021-09-04T09:17:20Z</time>
      </trkpt>
      <trkpt lat="42.616808" lon="0.478573">
        <ele>1641.000000</ele>
        <time>2021-09-04T09:17:21Z</time>
      </trkpt>
      <trkpt lat="42.616812" lon="0.478580">
        <ele>1642.000000</ele>
        <time>2021-09-04T09:17:22Z</time>
      </trkpt>
      <trkpt lat="42.616812" lon="0.478583">
        <ele>1642.000000</ele>
        <time>2021-09-04T09:17:23Z</time>
      </trkpt>
      <trkpt lat="42.616818" lon="0.478588">
        <ele>1642.000000</ele>
        <time>2021-09-04T09:17:25Z</time>
      </trkpt>
      <trkpt lat="42.616826" lon="0.478587">
        <ele>1642.000000</ele>
        <time>2021-09-04T09:17:26Z</time>
      </trkpt>
      <trkpt lat="42.616828" lon="0.478587">
        <ele>1642.000000</ele>
        <time>2021-09-04T09:17:27Z</time>
      </trkpt>
      <trkpt lat="42.616835" lon="0.478583">
        <ele>1642.000000</ele>
        <time>2021-09-04T09:17:28Z</time>
      </trkpt>
      <trkpt lat="42.616842" lon="0.478587">
        <ele>1642.000000</ele>
        <time>2021-09-04T09:17:30Z</time>
      </trkpt>
      <trkpt lat="42.616845" lon="0.478590">
        <ele>1642.000000</ele>
        <time>2021-09-04T09:17:30Z</time>
      </trkpt>
      <trkpt lat="42.616848" lon="0.478593">
        <ele>1643.000000</ele>
        <time>2021-09-04T09:17:31Z</time>
      </trkpt>
      <trkpt lat="42.616853" lon="0.478599">
        <ele>1643.000000</ele>
        <time>2021-09-04T09:17:32Z</time>
      </trkpt>
      <trkpt lat="42.616858" lon="0.478603">
        <ele>1643.000000</ele>
        <time>2021-09-04T09:17:33Z</time>
      </trkpt>
      <trkpt lat="42.616862" lon="0.478613">
        <ele>1643.000000</ele>
        <time>2021-09-04T09:17:35Z</time>
      </trkpt>
      <trkpt lat="42.616863" lon="0.478618">
        <ele>1643.000000</ele>
        <time>2021-09-04T09:17:36Z</time>
      </trkpt>
      <trkpt lat="42.616864" lon="0.478615">
        <ele>1643.000000</ele>
        <time>2021-09-04T09:17:37Z</time>
      </trkpt>
      <trkpt lat="42.616867" lon="0.478612">
        <ele>1643.000000</ele>
        <time>2021-09-04T09:17:38Z</time>
      </trkpt>
      <trkpt lat="42.616868" lon="0.478617">
        <ele>1643.000000</ele>
        <time>2021-09-04T09:17:39Z</time>
      </trkpt>
      <trkpt lat="42.616882" lon="0.478618">
        <ele>1643.000000</ele>
        <time>2021-09-04T09:17:40Z</time>
      </trkpt>
      <trkpt lat="42.616887" lon="0.478622">
        <ele>1643.000000</ele>
        <time>2021-09-04T09:17:41Z</time>
      </trkpt>
      <trkpt lat="42.616888" lon="0.478630">
        <ele>1643.000000</ele>
        <time>2021-09-04T09:17:42Z</time>
      </trkpt>
      <trkpt lat="42.616890" lon="0.478637">
        <ele>1643.000000</ele>
        <time>2021-09-04T09:17:43Z</time>
      </trkpt>
      <trkpt lat="42.616892" lon="0.478643">
        <ele>1643.000000</ele>
        <time>2021-09-04T09:17:44Z</time>
      </trkpt>
      <trkpt lat="42.616895" lon="0.478647">
        <ele>1643.000000</ele>
        <time>2021-09-04T09:17:45Z</time>
      </trkpt>
      <trkpt lat="42.616897" lon="0.478648">
        <ele>1643.000000</ele>
        <time>2021-09-04T09:17:46Z</time>
      </trkpt>
      <trkpt lat="42.616898" lon="0.478652">
        <ele>1643.000000</ele>
        <time>2021-09-04T09:17:47Z</time>
      </trkpt>
      <trkpt lat="42.616896" lon="0.478650">
        <ele>1643.000000</ele>
        <time>2021-09-04T09:17:48Z</time>
      </trkpt>
      <trkpt lat="42.616895" lon="0.478648">
        <ele>1644.000000</ele>
        <time>2021-09-04T09:17:49Z</time>
      </trkpt>
      <trkpt lat="42.616898" lon="0.478653">
        <ele>1644.000000</ele>
        <time>2021-09-04T09:17:50Z</time>
      </trkpt>
      <trkpt lat="42.616900" lon="0.478655">
        <ele>1644.000000</ele>
        <time>2021-09-04T09:17:51Z</time>
      </trkpt>
      <trkpt lat="42.616905" lon="0.478657">
        <ele>1644.000000</ele>
        <time>2021-09-04T09:17:52Z</time>
      </trkpt>
      <trkpt lat="42.616908" lon="0.478658">
        <ele>1644.000000</ele>
        <time>2021-09-04T09:17:53Z</time>
      </trkpt>
      <trkpt lat="42.616912" lon="0.478663">
        <ele>1644.000000</ele>
        <time>2021-09-04T09:17:54Z</time>
      </trkpt>
      <trkpt lat="42.616915" lon="0.478668">
        <ele>1644.000000</ele>
        <time>2021-09-04T09:17:55Z</time>
      </trkpt>
      <trkpt lat="42.616922" lon="0.478666">
        <ele>1644.000000</ele>
        <time>2021-09-04T09:17:56Z</time>
      </trkpt>
      <trkpt lat="42.616923" lon="0.478671">
        <ele>1645.000000</ele>
        <time>2021-09-04T09:17:58Z</time>
      </trkpt>
      <trkpt lat="42.616925" lon="0.478675">
        <ele>1645.000000</ele>
        <time>2021-09-04T09:17:59Z</time>
      </trkpt>
      <trkpt lat="42.616930" lon="0.478684">
        <ele>1645.000000</ele>
        <time>2021-09-04T09:18:00Z</time>
      </trkpt>
      <trkpt lat="42.616935" lon="0.478692">
        <ele>1645.000000</ele>
        <time>2021-09-04T09:18:01Z</time>
      </trkpt>
      <trkpt lat="42.616940" lon="0.478707">
        <ele>1645.000000</ele>
        <time>2021-09-04T09:18:02Z</time>
      </trkpt>
      <trkpt lat="42.616943" lon="0.478712">
        <ele>1645.000000</ele>
        <time>2021-09-04T09:18:03Z</time>
      </trkpt>
      <trkpt lat="42.616945" lon="0.478702">
        <ele>1646.000000</ele>
        <time>2021-09-04T09:18:04Z</time>
      </trkpt>
      <trkpt lat="42.616950" lon="0.478700">
        <ele>1646.000000</ele>
        <time>2021-09-04T09:18:05Z</time>
      </trkpt>
      <trkpt lat="42.616955" lon="0.478703">
        <ele>1646.000000</ele>
        <time>2021-09-04T09:18:06Z</time>
      </trkpt>
      <trkpt lat="42.616960" lon="0.478707">
        <ele>1646.000000</ele>
        <time>2021-09-04T09:18:07Z</time>
      </trkpt>
      <trkpt lat="42.616962" lon="0.478714">
        <ele>1646.000000</ele>
        <time>2021-09-04T09:18:08Z</time>
      </trkpt>
      <trkpt lat="42.616965" lon="0.478723">
        <ele>1647.000000</ele>
        <time>2021-09-04T09:18:09Z</time>
      </trkpt>
      <trkpt lat="42.616968" lon="0.478727">
        <ele>1647.000000</ele>
        <time>2021-09-04T09:18:10Z</time>
      </trkpt>
      <trkpt lat="42.616977" lon="0.478733">
        <ele>1647.000000</ele>
        <time>2021-09-04T09:18:11Z</time>
      </trkpt>
      <trkpt lat="42.616980" lon="0.478737">
        <ele>1647.000000</ele>
        <time>2021-09-04T09:18:12Z</time>
      </trkpt>
      <trkpt lat="42.616982" lon="0.478747">
        <ele>1647.000000</ele>
        <time>2021-09-04T09:18:13Z</time>
      </trkpt>
      <trkpt lat="42.616985" lon="0.478748">
        <ele>1647.000000</ele>
        <time>2021-09-04T09:18:14Z</time>
      </trkpt>
      <trkpt lat="42.616988" lon="0.478750">
        <ele>1648.000000</ele>
        <time>2021-09-04T09:18:15Z</time>
      </trkpt>
      <trkpt lat="42.616993" lon="0.478755">
        <ele>1648.000000</ele>
        <time>2021-09-04T09:18:16Z</time>
      </trkpt>
      <trkpt lat="42.616997" lon="0.478760">
        <ele>1648.000000</ele>
        <time>2021-09-04T09:18:17Z</time>
      </trkpt>
      <trkpt lat="42.617002" lon="0.478764">
        <ele>1648.000000</ele>
        <time>2021-09-04T09:18:18Z</time>
      </trkpt>
      <trkpt lat="42.617008" lon="0.478765">
        <ele>1648.000000</ele>
        <time>2021-09-04T09:18:19Z</time>
      </trkpt>
      <trkpt lat="42.617013" lon="0.478766">
        <ele>1648.000000</ele>
        <time>2021-09-04T09:18:20Z</time>
      </trkpt>
      <trkpt lat="42.617020" lon="0.478765">
        <ele>1648.000000</ele>
        <time>2021-09-04T09:18:21Z</time>
      </trkpt>
      <trkpt lat="42.617027" lon="0.478763">
        <ele>1648.000000</ele>
        <time>2021-09-04T09:18:22Z</time>
      </trkpt>
      <trkpt lat="42.617030" lon="0.478762">
        <ele>1648.000000</ele>
        <time>2021-09-04T09:18:23Z</time>
      </trkpt>
      <trkpt lat="42.617035" lon="0.478767">
        <ele>1648.000000</ele>
        <time>2021-09-04T09:18:24Z</time>
      </trkpt>
      <trkpt lat="42.617038" lon="0.478769">
        <ele>1648.000000</ele>
        <time>2021-09-04T09:18:25Z</time>
      </trkpt>
      <trkpt lat="42.617035" lon="0.478771">
        <ele>1648.000000</ele>
        <time>2021-09-04T09:18:26Z</time>
      </trkpt>
      <trkpt lat="42.617037" lon="0.478778">
        <ele>1648.000000</ele>
        <time>2021-09-04T09:18:27Z</time>
      </trkpt>
      <trkpt lat="42.617040" lon="0.478789">
        <ele>1649.000000</ele>
        <time>2021-09-04T09:18:28Z</time>
      </trkpt>
      <trkpt lat="42.617043" lon="0.478797">
        <ele>1649.000000</ele>
        <time>2021-09-04T09:18:29Z</time>
      </trkpt>
      <trkpt lat="42.617050" lon="0.478800">
        <ele>1649.000000</ele>
        <time>2021-09-04T09:18:30Z</time>
      </trkpt>
      <trkpt lat="42.617058" lon="0.478799">
        <ele>1649.000000</ele>
        <time>2021-09-04T09:18:31Z</time>
      </trkpt>
      <trkpt lat="42.617070" lon="0.478802">
        <ele>1649.000000</ele>
        <time>2021-09-04T09:18:32Z</time>
      </trkpt>
      <trkpt lat="42.617080" lon="0.478802">
        <ele>1649.000000</ele>
        <time>2021-09-04T09:18:33Z</time>
      </trkpt>
      <trkpt lat="42.617087" lon="0.478800">
        <ele>1649.000000</ele>
        <time>2021-09-04T09:18:34Z</time>
      </trkpt>
      <trkpt lat="42.617095" lon="0.478799">
        <ele>1650.000000</ele>
        <time>2021-09-04T09:18:35Z</time>
      </trkpt>
      <trkpt lat="42.617100" lon="0.478797">
        <ele>1650.000000</ele>
        <time>2021-09-04T09:18:36Z</time>
      </trkpt>
      <trkpt lat="42.617102" lon="0.478794">
        <ele>1650.000000</ele>
        <time>2021-09-04T09:18:37Z</time>
      </trkpt>
      <trkpt lat="42.617107" lon="0.478794">
        <ele>1650.000000</ele>
        <time>2021-09-04T09:18:38Z</time>
      </trkpt>
      <trkpt lat="42.617113" lon="0.478794">
        <ele>1650.000000</ele>
        <time>2021-09-04T09:18:39Z</time>
      </trkpt>
      <trkpt lat="42.617117" lon="0.478792">
        <ele>1650.000000</ele>
        <time>2021-09-04T09:18:39Z</time>
      </trkpt>
      <trkpt lat="42.617113" lon="0.478790">
        <ele>1650.000000</ele>
        <time>2021-09-04T09:18:40Z</time>
      </trkpt>
      <trkpt lat="42.617115" lon="0.478789">
        <ele>1650.000000</ele>
        <time>2021-09-04T09:18:41Z</time>
      </trkpt>
      <trkpt lat="42.617117" lon="0.478787">
        <ele>1651.000000</ele>
        <time>2021-09-04T09:18:42Z</time>
      </trkpt>
      <trkpt lat="42.617120" lon="0.478785">
        <ele>1651.000000</ele>
        <time>2021-09-04T09:18:43Z</time>
      </trkpt>
      <trkpt lat="42.617122" lon="0.478755">
        <ele>1651.000000</ele>
        <time>2021-09-04T09:18:44Z</time>
      </trkpt>
      <trkpt lat="42.617123" lon="0.478750">
        <ele>1651.000000</ele>
        <time>2021-09-04T09:18:45Z</time>
      </trkpt>
      <trkpt lat="42.617123" lon="0.478745">
        <ele>1651.000000</ele>
        <time>2021-09-04T09:18:46Z</time>
      </trkpt>
      <trkpt lat="42.617125" lon="0.478738">
        <ele>1651.000000</ele>
        <time>2021-09-04T09:18:47Z</time>
      </trkpt>
      <trkpt lat="42.617126" lon="0.478728">
        <ele>1651.000000</ele>
        <time>2021-09-04T09:18:48Z</time>
      </trkpt>
      <trkpt lat="42.617130" lon="0.478725">
        <ele>1651.000000</ele>
        <time>2021-09-04T09:18:49Z</time>
      </trkpt>
      <trkpt lat="42.617135" lon="0.478718">
        <ele>1651.000000</ele>
        <time>2021-09-04T09:18:50Z</time>
      </trkpt>
      <trkpt lat="42.617137" lon="0.478710">
        <ele>1652.000000</ele>
        <time>2021-09-04T09:18:51Z</time>
      </trkpt>
      <trkpt lat="42.617137" lon="0.478698">
        <ele>1652.000000</ele>
        <time>2021-09-04T09:18:52Z</time>
      </trkpt>
      <trkpt lat="42.617137" lon="0.478695">
        <ele>1652.000000</ele>
        <time>2021-09-04T09:18:53Z</time>
      </trkpt>
      <trkpt lat="42.617133" lon="0.478693">
        <ele>1652.000000</ele>
        <time>2021-09-04T09:18:54Z</time>
      </trkpt>
      <trkpt lat="42.617130" lon="0.478690">
        <ele>1652.000000</ele>
        <time>2021-09-04T09:18:55Z</time>
      </trkpt>
      <trkpt lat="42.617128" lon="0.478682">
        <ele>1652.000000</ele>
        <time>2021-09-04T09:18:56Z</time>
      </trkpt>
      <trkpt lat="42.617128" lon="0.478675">
        <ele>1652.000000</ele>
        <time>2021-09-04T09:18:57Z</time>
      </trkpt>
      <trkpt lat="42.617130" lon="0.478672">
        <ele>1652.000000</ele>
        <time>2021-09-04T09:18:58Z</time>
      </trkpt>
      <trkpt lat="42.617134" lon="0.478667">
        <ele>1653.000000</ele>
        <time>2021-09-04T09:19:00Z</time>
      </trkpt>
      <trkpt lat="42.617142" lon="0.478657">
        <ele>1653.000000</ele>
        <time>2021-09-04T09:19:00Z</time>
      </trkpt>
      <trkpt lat="42.617143" lon="0.478652">
        <ele>1653.000000</ele>
        <time>2021-09-04T09:19:01Z</time>
      </trkpt>
      <trkpt lat="42.617146" lon="0.478647">
        <ele>1653.000000</ele>
        <time>2021-09-04T09:19:03Z</time>
      </trkpt>
      <trkpt lat="42.617149" lon="0.478642">
        <ele>1653.000000</ele>
        <time>2021-09-04T09:19:04Z</time>
      </trkpt>
      <trkpt lat="42.617152" lon="0.478633">
        <ele>1654.000000</ele>
        <time>2021-09-04T09:19:05Z</time>
      </trkpt>
      <trkpt lat="42.617156" lon="0.478628">
        <ele>1654.000000</ele>
        <time>2021-09-04T09:19:06Z</time>
      </trkpt>
      <trkpt lat="42.617158" lon="0.478623">
        <ele>1654.000000</ele>
        <time>2021-09-04T09:19:07Z</time>
      </trkpt>
      <trkpt lat="42.617158" lon="0.478622">
        <ele>1654.000000</ele>
        <time>2021-09-04T09:19:08Z</time>
      </trkpt>
      <trkpt lat="42.617158" lon="0.478623">
        <ele>1654.000000</ele>
        <time>2021-09-04T09:19:09Z</time>
      </trkpt>
      <trkpt lat="42.617159" lon="0.478625">
        <ele>1654.000000</ele>
        <time>2021-09-04T09:19:11Z</time>
      </trkpt>
      <trkpt lat="42.617162" lon="0.478622">
        <ele>1654.000000</ele>
        <time>2021-09-04T09:19:12Z</time>
      </trkpt>
      <trkpt lat="42.617168" lon="0.478615">
        <ele>1654.000000</ele>
        <time>2021-09-04T09:19:13Z</time>
      </trkpt>
      <trkpt lat="42.617172" lon="0.478612">
        <ele>1654.000000</ele>
        <time>2021-09-04T09:19:14Z</time>
      </trkpt>
      <trkpt lat="42.617178" lon="0.478603">
        <ele>1654.000000</ele>
        <time>2021-09-04T09:19:15Z</time>
      </trkpt>
      <trkpt lat="42.617185" lon="0.478598">
        <ele>1654.000000</ele>
        <time>2021-09-04T09:19:16Z</time>
      </trkpt>
      <trkpt lat="42.617190" lon="0.478596">
        <ele>1654.000000</ele>
        <time>2021-09-04T09:19:17Z</time>
      </trkpt>
      <trkpt lat="42.617195" lon="0.478592">
        <ele>1655.000000</ele>
        <time>2021-09-04T09:19:18Z</time>
      </trkpt>
      <trkpt lat="42.617202" lon="0.478587">
        <ele>1655.000000</ele>
        <time>2021-09-04T09:19:19Z</time>
      </trkpt>
      <trkpt lat="42.617205" lon="0.478578">
        <ele>1655.000000</ele>
        <time>2021-09-04T09:19:20Z</time>
      </trkpt>
      <trkpt lat="42.617210" lon="0.478570">
        <ele>1655.000000</ele>
        <time>2021-09-04T09:19:21Z</time>
      </trkpt>
      <trkpt lat="42.617212" lon="0.478566">
        <ele>1655.000000</ele>
        <time>2021-09-04T09:19:22Z</time>
      </trkpt>
      <trkpt lat="42.617215" lon="0.478559">
        <ele>1655.000000</ele>
        <time>2021-09-04T09:19:23Z</time>
      </trkpt>
      <trkpt lat="42.617215" lon="0.478556">
        <ele>1656.000000</ele>
        <time>2021-09-04T09:19:24Z</time>
      </trkpt>
      <trkpt lat="42.617212" lon="0.478533">
        <ele>1656.000000</ele>
        <time>2021-09-04T09:19:25Z</time>
      </trkpt>
      <trkpt lat="42.617215" lon="0.478525">
        <ele>1656.000000</ele>
        <time>2021-09-04T09:19:26Z</time>
      </trkpt>
      <trkpt lat="42.617218" lon="0.478517">
        <ele>1656.000000</ele>
        <time>2021-09-04T09:19:27Z</time>
      </trkpt>
      <trkpt lat="42.617225" lon="0.478505">
        <ele>1656.000000</ele>
        <time>2021-09-04T09:19:28Z</time>
      </trkpt>
      <trkpt lat="42.617229" lon="0.478492">
        <ele>1656.000000</ele>
        <time>2021-09-04T09:19:29Z</time>
      </trkpt>
      <trkpt lat="42.617235" lon="0.478483">
        <ele>1656.000000</ele>
        <time>2021-09-04T09:19:30Z</time>
      </trkpt>
      <trkpt lat="42.617245" lon="0.478483">
        <ele>1657.000000</ele>
        <time>2021-09-04T09:19:31Z</time>
      </trkpt>
      <trkpt lat="42.617253" lon="0.478482">
        <ele>1657.000000</ele>
        <time>2021-09-04T09:19:32Z</time>
      </trkpt>
      <trkpt lat="42.617258" lon="0.478480">
        <ele>1657.000000</ele>
        <time>2021-09-04T09:19:33Z</time>
      </trkpt>
      <trkpt lat="42.617263" lon="0.478483">
        <ele>1657.000000</ele>
        <time>2021-09-04T09:19:34Z</time>
      </trkpt>
      <trkpt lat="42.617270" lon="0.478485">
        <ele>1657.000000</ele>
        <time>2021-09-04T09:19:35Z</time>
      </trkpt>
      <trkpt lat="42.617278" lon="0.478485">
        <ele>1658.000000</ele>
        <time>2021-09-04T09:19:36Z</time>
      </trkpt>
      <trkpt lat="42.617282" lon="0.478480">
        <ele>1658.000000</ele>
        <time>2021-09-04T09:19:37Z</time>
      </trkpt>
      <trkpt lat="42.617283" lon="0.478476">
        <ele>1658.000000</ele>
        <time>2021-09-04T09:19:38Z</time>
      </trkpt>
      <trkpt lat="42.617283" lon="0.478468">
        <ele>1658.000000</ele>
        <time>2021-09-04T09:19:39Z</time>
      </trkpt>
      <trkpt lat="42.617283" lon="0.478463">
        <ele>1658.000000</ele>
        <time>2021-09-04T09:19:40Z</time>
      </trkpt>
      <trkpt lat="42.617288" lon="0.478457">
        <ele>1658.000000</ele>
        <time>2021-09-04T09:19:41Z</time>
      </trkpt>
      <trkpt lat="42.617285" lon="0.478450">
        <ele>1659.000000</ele>
        <time>2021-09-04T09:19:42Z</time>
      </trkpt>
      <trkpt lat="42.617287" lon="0.478447">
        <ele>1659.000000</ele>
        <time>2021-09-04T09:19:43Z</time>
      </trkpt>
      <trkpt lat="42.617285" lon="0.478443">
        <ele>1659.000000</ele>
        <time>2021-09-04T09:19:44Z</time>
      </trkpt>
      <trkpt lat="42.617282" lon="0.478440">
        <ele>1659.000000</ele>
        <time>2021-09-04T09:19:45Z</time>
      </trkpt>
      <trkpt lat="42.617278" lon="0.478437">
        <ele>1659.000000</ele>
        <time>2021-09-04T09:19:46Z</time>
      </trkpt>
      <trkpt lat="42.617268" lon="0.478423">
        <ele>1659.000000</ele>
        <time>2021-09-04T09:19:47Z</time>
      </trkpt>
      <trkpt lat="42.617260" lon="0.478418">
        <ele>1660.000000</ele>
        <time>2021-09-04T09:19:49Z</time>
      </trkpt>
      <trkpt lat="42.617250" lon="0.478412">
        <ele>1660.000000</ele>
        <time>2021-09-04T09:19:49Z</time>
      </trkpt>
      <trkpt lat="42.617243" lon="0.478403">
        <ele>1660.000000</ele>
        <time>2021-09-04T09:19:50Z</time>
      </trkpt>
      <trkpt lat="42.617238" lon="0.478397">
        <ele>1660.000000</ele>
        <time>2021-09-04T09:19:51Z</time>
      </trkpt>
      <trkpt lat="42.617230" lon="0.478389">
        <ele>1660.000000</ele>
        <time>2021-09-04T09:19:52Z</time>
      </trkpt>
      <trkpt lat="42.617222" lon="0.478381">
        <ele>1660.000000</ele>
        <time>2021-09-04T09:19:53Z</time>
      </trkpt>
      <trkpt lat="42.617218" lon="0.478378">
        <ele>1660.000000</ele>
        <time>2021-09-04T09:19:54Z</time>
      </trkpt>
      <trkpt lat="42.617215" lon="0.478373">
        <ele>1660.000000</ele>
        <time>2021-09-04T09:19:55Z</time>
      </trkpt>
      <trkpt lat="42.617215" lon="0.478370">
        <ele>1660.000000</ele>
        <time>2021-09-04T09:19:57Z</time>
      </trkpt>
      <trkpt lat="42.617216" lon="0.478367">
        <ele>1661.000000</ele>
        <time>2021-09-04T09:19:59Z</time>
      </trkpt>
      <trkpt lat="42.617216" lon="0.478368">
        <ele>1661.000000</ele>
        <time>2021-09-04T09:20:00Z</time>
      </trkpt>
      <trkpt lat="42.617215" lon="0.478363">
        <ele>1661.000000</ele>
        <time>2021-09-04T09:20:01Z</time>
      </trkpt>
      <trkpt lat="42.617212" lon="0.478357">
        <ele>1661.000000</ele>
        <time>2021-09-04T09:20:02Z</time>
      </trkpt>
      <trkpt lat="42.617209" lon="0.478350">
        <ele>1661.000000</ele>
        <time>2021-09-04T09:20:03Z</time>
      </trkpt>
      <trkpt lat="42.617207" lon="0.478340">
        <ele>1662.000000</ele>
        <time>2021-09-04T09:20:04Z</time>
      </trkpt>
      <trkpt lat="42.617207" lon="0.478335">
        <ele>1662.000000</ele>
        <time>2021-09-04T09:20:05Z</time>
      </trkpt>
      <trkpt lat="42.617208" lon="0.478333">
        <ele>1662.000000</ele>
        <time>2021-09-04T09:20:06Z</time>
      </trkpt>
      <trkpt lat="42.617208" lon="0.478335">
        <ele>1662.000000</ele>
        <time>2021-09-04T09:20:07Z</time>
      </trkpt>
      <trkpt lat="42.617210" lon="0.478330">
        <ele>1662.000000</ele>
        <time>2021-09-04T09:20:08Z</time>
      </trkpt>
      <trkpt lat="42.617212" lon="0.478327">
        <ele>1662.000000</ele>
        <time>2021-09-04T09:20:09Z</time>
      </trkpt>
      <trkpt lat="42.617212" lon="0.478320">
        <ele>1663.000000</ele>
        <time>2021-09-04T09:20:10Z</time>
      </trkpt>
      <trkpt lat="42.617213" lon="0.478313">
        <ele>1663.000000</ele>
        <time>2021-09-04T09:20:11Z</time>
      </trkpt>
      <trkpt lat="42.617216" lon="0.478308">
        <ele>1663.000000</ele>
        <time>2021-09-04T09:20:12Z</time>
      </trkpt>
      <trkpt lat="42.617217" lon="0.478303">
        <ele>1663.000000</ele>
        <time>2021-09-04T09:20:13Z</time>
      </trkpt>
      <trkpt lat="42.617218" lon="0.478298">
        <ele>1663.000000</ele>
        <time>2021-09-04T09:20:14Z</time>
      </trkpt>
      <trkpt lat="42.617222" lon="0.478292">
        <ele>1663.000000</ele>
        <time>2021-09-04T09:20:15Z</time>
      </trkpt>
      <trkpt lat="42.617226" lon="0.478287">
        <ele>1664.000000</ele>
        <time>2021-09-04T09:20:16Z</time>
      </trkpt>
      <trkpt lat="42.617232" lon="0.478285">
        <ele>1664.000000</ele>
        <time>2021-09-04T09:20:17Z</time>
      </trkpt>
      <trkpt lat="42.617235" lon="0.478288">
        <ele>1664.000000</ele>
        <time>2021-09-04T09:20:18Z</time>
      </trkpt>
      <trkpt lat="42.617237" lon="0.478285">
        <ele>1664.000000</ele>
        <time>2021-09-04T09:20:20Z</time>
      </trkpt>
      <trkpt lat="42.617238" lon="0.478283">
        <ele>1664.000000</ele>
        <time>2021-09-04T09:20:21Z</time>
      </trkpt>
      <trkpt lat="42.617242" lon="0.478277">
        <ele>1665.000000</ele>
        <time>2021-09-04T09:20:22Z</time>
      </trkpt>
      <trkpt lat="42.617248" lon="0.478269">
        <ele>1665.000000</ele>
        <time>2021-09-04T09:20:23Z</time>
      </trkpt>
      <trkpt lat="42.617252" lon="0.478266">
        <ele>1665.000000</ele>
        <time>2021-09-04T09:20:24Z</time>
      </trkpt>
      <trkpt lat="42.617250" lon="0.478267">
        <ele>1665.000000</ele>
        <time>2021-09-04T09:20:25Z</time>
      </trkpt>
      <trkpt lat="42.617253" lon="0.478258">
        <ele>1665.000000</ele>
        <time>2021-09-04T09:20:27Z</time>
      </trkpt>
      <trkpt lat="42.617257" lon="0.478257">
        <ele>1666.000000</ele>
        <time>2021-09-04T09:20:28Z</time>
      </trkpt>
      <trkpt lat="42.617258" lon="0.478257">
        <ele>1666.000000</ele>
        <time>2021-09-04T09:20:29Z</time>
      </trkpt>
      <trkpt lat="42.617257" lon="0.478255">
        <ele>1666.000000</ele>
        <time>2021-09-04T09:20:30Z</time>
      </trkpt>
      <trkpt lat="42.617254" lon="0.478253">
        <ele>1666.000000</ele>
        <time>2021-09-04T09:20:31Z</time>
      </trkpt>
      <trkpt lat="42.617250" lon="0.478253">
        <ele>1666.000000</ele>
        <time>2021-09-04T09:20:32Z</time>
      </trkpt>
      <trkpt lat="42.617245" lon="0.478255">
        <ele>1666.000000</ele>
        <time>2021-09-04T09:20:33Z</time>
      </trkpt>
      <trkpt lat="42.617243" lon="0.478257">
        <ele>1666.000000</ele>
        <time>2021-09-04T09:20:35Z</time>
      </trkpt>
      <trkpt lat="42.617238" lon="0.478260">
        <ele>1666.000000</ele>
        <time>2021-09-04T09:20:35Z</time>
      </trkpt>
      <trkpt lat="42.617232" lon="0.478262">
        <ele>1666.000000</ele>
        <time>2021-09-04T09:20:36Z</time>
      </trkpt>
      <trkpt lat="42.617220" lon="0.478258">
        <ele>1666.000000</ele>
        <time>2021-09-04T09:20:37Z</time>
      </trkpt>
      <trkpt lat="42.617207" lon="0.478248">
        <ele>1666.000000</ele>
        <time>2021-09-04T09:20:38Z</time>
      </trkpt>
      <trkpt lat="42.617192" lon="0.478237">
        <ele>1666.000000</ele>
        <time>2021-09-04T09:20:39Z</time>
      </trkpt>
      <trkpt lat="42.617185" lon="0.478228">
        <ele>1667.000000</ele>
        <time>2021-09-04T09:20:40Z</time>
      </trkpt>
      <trkpt lat="42.617182" lon="0.478218">
        <ele>1667.000000</ele>
        <time>2021-09-04T09:20:41Z</time>
      </trkpt>
      <trkpt lat="42.617187" lon="0.478213">
        <ele>1667.000000</ele>
        <time>2021-09-04T09:20:42Z</time>
      </trkpt>
      <trkpt lat="42.617188" lon="0.478205">
        <ele>1667.000000</ele>
        <time>2021-09-04T09:20:43Z</time>
      </trkpt>
      <trkpt lat="42.617188" lon="0.478192">
        <ele>1667.000000</ele>
        <time>2021-09-04T09:20:44Z</time>
      </trkpt>
      <trkpt lat="42.617188" lon="0.478177">
        <ele>1668.000000</ele>
        <time>2021-09-04T09:20:45Z</time>
      </trkpt>
      <trkpt lat="42.617190" lon="0.478163">
        <ele>1668.000000</ele>
        <time>2021-09-04T09:20:46Z</time>
      </trkpt>
      <trkpt lat="42.617185" lon="0.478155">
        <ele>1668.000000</ele>
        <time>2021-09-04T09:20:47Z</time>
      </trkpt>
      <trkpt lat="42.617184" lon="0.478150">
        <ele>1668.000000</ele>
        <time>2021-09-04T09:20:48Z</time>
      </trkpt>
      <trkpt lat="42.617180" lon="0.478145">
        <ele>1668.000000</ele>
        <time>2021-09-04T09:20:50Z</time>
      </trkpt>
      <trkpt lat="42.617177" lon="0.478143">
        <ele>1669.000000</ele>
        <time>2021-09-04T09:20:51Z</time>
      </trkpt>
      <trkpt lat="42.617172" lon="0.478142">
        <ele>1669.000000</ele>
        <time>2021-09-04T09:20:52Z</time>
      </trkpt>
      <trkpt lat="42.617165" lon="0.478142">
        <ele>1669.000000</ele>
        <time>2021-09-04T09:20:54Z</time>
      </trkpt>
      <trkpt lat="42.617157" lon="0.478138">
        <ele>1670.000000</ele>
        <time>2021-09-04T09:20:55Z</time>
      </trkpt>
      <trkpt lat="42.617150" lon="0.478135">
        <ele>1670.000000</ele>
        <time>2021-09-04T09:20:56Z</time>
      </trkpt>
      <trkpt lat="42.617143" lon="0.478137">
        <ele>1670.000000</ele>
        <time>2021-09-04T09:20:57Z</time>
      </trkpt>
      <trkpt lat="42.617138" lon="0.478138">
        <ele>1670.000000</ele>
        <time>2021-09-04T09:20:58Z</time>
      </trkpt>
      <trkpt lat="42.617137" lon="0.478142">
        <ele>1671.000000</ele>
        <time>2021-09-04T09:20:59Z</time>
      </trkpt>
      <trkpt lat="42.617138" lon="0.478145">
        <ele>1671.000000</ele>
        <time>2021-09-04T09:21:00Z</time>
      </trkpt>
      <trkpt lat="42.617135" lon="0.478142">
        <ele>1671.000000</ele>
        <time>2021-09-04T09:21:01Z</time>
      </trkpt>
      <trkpt lat="42.617126" lon="0.478143">
        <ele>1671.000000</ele>
        <time>2021-09-04T09:21:03Z</time>
      </trkpt>
      <trkpt lat="42.617120" lon="0.478145">
        <ele>1671.000000</ele>
        <time>2021-09-04T09:21:04Z</time>
      </trkpt>
      <trkpt lat="42.617115" lon="0.478148">
        <ele>1672.000000</ele>
        <time>2021-09-04T09:21:05Z</time>
      </trkpt>
      <trkpt lat="42.617116" lon="0.478152">
        <ele>1672.000000</ele>
        <time>2021-09-04T09:21:06Z</time>
      </trkpt>
      <trkpt lat="42.617116" lon="0.478155">
        <ele>1672.000000</ele>
        <time>2021-09-04T09:21:07Z</time>
      </trkpt>
      <trkpt lat="42.617111" lon="0.478165">
        <ele>1672.000000</ele>
        <time>2021-09-04T09:21:08Z</time>
      </trkpt>
      <trkpt lat="42.617110" lon="0.478170">
        <ele>1672.000000</ele>
        <time>2021-09-04T09:21:09Z</time>
      </trkpt>
      <trkpt lat="42.617113" lon="0.478175">
        <ele>1672.000000</ele>
        <time>2021-09-04T09:21:10Z</time>
      </trkpt>
      <trkpt lat="42.617113" lon="0.478183">
        <ele>1672.000000</ele>
        <time>2021-09-04T09:21:11Z</time>
      </trkpt>
      <trkpt lat="42.617112" lon="0.478192">
        <ele>1672.000000</ele>
        <time>2021-09-04T09:21:12Z</time>
      </trkpt>
      <trkpt lat="42.617110" lon="0.478195">
        <ele>1672.000000</ele>
        <time>2021-09-04T09:21:13Z</time>
      </trkpt>
      <trkpt lat="42.617108" lon="0.478200">
        <ele>1672.000000</ele>
        <time>2021-09-04T09:21:16Z</time>
      </trkpt>
      <trkpt lat="42.617107" lon="0.478201">
        <ele>1672.000000</ele>
        <time>2021-09-04T09:21:17Z</time>
      </trkpt>
      <trkpt lat="42.617105" lon="0.478205">
        <ele>1672.000000</ele>
        <time>2021-09-04T09:21:19Z</time>
      </trkpt>
      <trkpt lat="42.617107" lon="0.478203">
        <ele>1673.000000</ele>
        <time>2021-09-04T09:21:19Z</time>
      </trkpt>
      <trkpt lat="42.617112" lon="0.478205">
        <ele>1673.000000</ele>
        <time>2021-09-04T09:21:20Z</time>
      </trkpt>
      <trkpt lat="42.617113" lon="0.478208">
        <ele>1673.000000</ele>
        <time>2021-09-04T09:21:21Z</time>
      </trkpt>
      <trkpt lat="42.617110" lon="0.478210">
        <ele>1673.000000</ele>
        <time>2021-09-04T09:21:22Z</time>
      </trkpt>
      <trkpt lat="42.617107" lon="0.478210">
        <ele>1673.000000</ele>
        <time>2021-09-04T09:21:23Z</time>
      </trkpt>
      <trkpt lat="42.617098" lon="0.478207">
        <ele>1673.000000</ele>
        <time>2021-09-04T09:21:24Z</time>
      </trkpt>
      <trkpt lat="42.617092" lon="0.478208">
        <ele>1673.000000</ele>
        <time>2021-09-04T09:21:26Z</time>
      </trkpt>
      <trkpt lat="42.617085" lon="0.478213">
        <ele>1673.000000</ele>
        <time>2021-09-04T09:21:27Z</time>
      </trkpt>
      <trkpt lat="42.617077" lon="0.478218">
        <ele>1673.000000</ele>
        <time>2021-09-04T09:21:28Z</time>
      </trkpt>
      <trkpt lat="42.617067" lon="0.478221">
        <ele>1673.000000</ele>
        <time>2021-09-04T09:21:29Z</time>
      </trkpt>
      <trkpt lat="42.617062" lon="0.478217">
        <ele>1673.000000</ele>
        <time>2021-09-04T09:21:30Z</time>
      </trkpt>
      <trkpt lat="42.617063" lon="0.478208">
        <ele>1673.000000</ele>
        <time>2021-09-04T09:21:31Z</time>
      </trkpt>
      <trkpt lat="42.617067" lon="0.478207">
        <ele>1673.000000</ele>
        <time>2021-09-04T09:21:34Z</time>
      </trkpt>
      <trkpt lat="42.617068" lon="0.478201">
        <ele>1673.000000</ele>
        <time>2021-09-04T09:21:35Z</time>
      </trkpt>
      <trkpt lat="42.617070" lon="0.478198">
        <ele>1673.000000</ele>
        <time>2021-09-04T09:21:36Z</time>
      </trkpt>
      <trkpt lat="42.617072" lon="0.478193">
        <ele>1673.000000</ele>
        <time>2021-09-04T09:21:37Z</time>
      </trkpt>
      <trkpt lat="42.617072" lon="0.478192">
        <ele>1673.000000</ele>
        <time>2021-09-04T09:21:38Z</time>
      </trkpt>
      <trkpt lat="42.617073" lon="0.478183">
        <ele>1673.000000</ele>
        <time>2021-09-04T09:21:39Z</time>
      </trkpt>
      <trkpt lat="42.617075" lon="0.478163">
        <ele>1673.000000</ele>
        <time>2021-09-04T09:21:40Z</time>
      </trkpt>
      <trkpt lat="42.617075" lon="0.478155">
        <ele>1674.000000</ele>
        <time>2021-09-04T09:21:41Z</time>
      </trkpt>
      <trkpt lat="42.617077" lon="0.478147">
        <ele>1674.000000</ele>
        <time>2021-09-04T09:21:42Z</time>
      </trkpt>
      <trkpt lat="42.617080" lon="0.478140">
        <ele>1674.000000</ele>
        <time>2021-09-04T09:21:43Z</time>
      </trkpt>
      <trkpt lat="42.617082" lon="0.478132">
        <ele>1674.000000</ele>
        <time>2021-09-04T09:21:44Z</time>
      </trkpt>
      <trkpt lat="42.617082" lon="0.478123">
        <ele>1675.000000</ele>
        <time>2021-09-04T09:21:45Z</time>
      </trkpt>
      <trkpt lat="42.617083" lon="0.478113">
        <ele>1675.000000</ele>
        <time>2021-09-04T09:21:46Z</time>
      </trkpt>
      <trkpt lat="42.617084" lon="0.478108">
        <ele>1675.000000</ele>
        <time>2021-09-04T09:21:47Z</time>
      </trkpt>
      <trkpt lat="42.617086" lon="0.478105">
        <ele>1675.000000</ele>
        <time>2021-09-04T09:21:48Z</time>
      </trkpt>
      <trkpt lat="42.617092" lon="0.478103">
        <ele>1675.000000</ele>
        <time>2021-09-04T09:21:49Z</time>
      </trkpt>
      <trkpt lat="42.617093" lon="0.478100">
        <ele>1675.000000</ele>
        <time>2021-09-04T09:21:50Z</time>
      </trkpt>
      <trkpt lat="42.617095" lon="0.478097">
        <ele>1676.000000</ele>
        <time>2021-09-04T09:21:51Z</time>
      </trkpt>
      <trkpt lat="42.617095" lon="0.478092">
        <ele>1676.000000</ele>
        <time>2021-09-04T09:21:52Z</time>
      </trkpt>
      <trkpt lat="42.617096" lon="0.478088">
        <ele>1676.000000</ele>
        <time>2021-09-04T09:21:53Z</time>
      </trkpt>
      <trkpt lat="42.617095" lon="0.478083">
        <ele>1676.000000</ele>
        <time>2021-09-04T09:21:54Z</time>
      </trkpt>
      <trkpt lat="42.617098" lon="0.478077">
        <ele>1676.000000</ele>
        <time>2021-09-04T09:21:57Z</time>
      </trkpt>
      <trkpt lat="42.617100" lon="0.478072">
        <ele>1676.000000</ele>
        <time>2021-09-04T09:21:57Z</time>
      </trkpt>
      <trkpt lat="42.617100" lon="0.478063">
        <ele>1676.000000</ele>
        <time>2021-09-04T09:21:58Z</time>
      </trkpt>
      <trkpt lat="42.617099" lon="0.478053">
        <ele>1676.000000</ele>
        <time>2021-09-04T09:21:59Z</time>
      </trkpt>
      <trkpt lat="42.617097" lon="0.478040">
        <ele>1676.000000</ele>
        <time>2021-09-04T09:22:00Z</time>
      </trkpt>
      <trkpt lat="42.617097" lon="0.478032">
        <ele>1676.000000</ele>
        <time>2021-09-04T09:22:01Z</time>
      </trkpt>
      <trkpt lat="42.617098" lon="0.478025">
        <ele>1676.000000</ele>
        <time>2021-09-04T09:22:02Z</time>
      </trkpt>
      <trkpt lat="42.617099" lon="0.478018">
        <ele>1676.000000</ele>
        <time>2021-09-04T09:22:04Z</time>
      </trkpt>
      <trkpt lat="42.617100" lon="0.478008">
        <ele>1676.000000</ele>
        <time>2021-09-04T09:22:04Z</time>
      </trkpt>
      <trkpt lat="42.617099" lon="0.477997">
        <ele>1676.000000</ele>
        <time>2021-09-04T09:22:05Z</time>
      </trkpt>
      <trkpt lat="42.617097" lon="0.477982">
        <ele>1676.000000</ele>
        <time>2021-09-04T09:22:06Z</time>
      </trkpt>
      <trkpt lat="42.617097" lon="0.477972">
        <ele>1676.000000</ele>
        <time>2021-09-04T09:22:07Z</time>
      </trkpt>
      <trkpt lat="42.617099" lon="0.477965">
        <ele>1676.000000</ele>
        <time>2021-09-04T09:22:08Z</time>
      </trkpt>
      <trkpt lat="42.617099" lon="0.477953">
        <ele>1676.000000</ele>
        <time>2021-09-04T09:22:09Z</time>
      </trkpt>
      <trkpt lat="42.617100" lon="0.477950">
        <ele>1676.000000</ele>
        <time>2021-09-04T09:22:10Z</time>
      </trkpt>
      <trkpt lat="42.617105" lon="0.477955">
        <ele>1677.000000</ele>
        <time>2021-09-04T09:22:12Z</time>
      </trkpt>
      <trkpt lat="42.617103" lon="0.477953">
        <ele>1677.000000</ele>
        <time>2021-09-04T09:22:14Z</time>
      </trkpt>
      <trkpt lat="42.617103" lon="0.477951">
        <ele>1677.000000</ele>
        <time>2021-09-04T09:22:15Z</time>
      </trkpt>
      <trkpt lat="42.617102" lon="0.477943">
        <ele>1678.000000</ele>
        <time>2021-09-04T09:22:16Z</time>
      </trkpt>
      <trkpt lat="42.617107" lon="0.477937">
        <ele>1678.000000</ele>
        <time>2021-09-04T09:22:17Z</time>
      </trkpt>
      <trkpt lat="42.617106" lon="0.477925">
        <ele>1678.000000</ele>
        <time>2021-09-04T09:22:18Z</time>
      </trkpt>
      <trkpt lat="42.617107" lon="0.477913">
        <ele>1678.000000</ele>
        <time>2021-09-04T09:22:19Z</time>
      </trkpt>
      <trkpt lat="42.617110" lon="0.477903">
        <ele>1679.000000</ele>
        <time>2021-09-04T09:22:20Z</time>
      </trkpt>
      <trkpt lat="42.617114" lon="0.477888">
        <ele>1679.000000</ele>
        <time>2021-09-04T09:22:21Z</time>
      </trkpt>
      <trkpt lat="42.617118" lon="0.477880">
        <ele>1679.000000</ele>
        <time>2021-09-04T09:22:22Z</time>
      </trkpt>
      <trkpt lat="42.617122" lon="0.477875">
        <ele>1679.000000</ele>
        <time>2021-09-04T09:22:23Z</time>
      </trkpt>
      <trkpt lat="42.617130" lon="0.477872">
        <ele>1680.000000</ele>
        <time>2021-09-04T09:22:25Z</time>
      </trkpt>
      <trkpt lat="42.617133" lon="0.477870">
        <ele>1680.000000</ele>
        <time>2021-09-04T09:22:26Z</time>
      </trkpt>
      <trkpt lat="42.617138" lon="0.477865">
        <ele>1680.000000</ele>
        <time>2021-09-04T09:22:27Z</time>
      </trkpt>
      <trkpt lat="42.617142" lon="0.477862">
        <ele>1680.000000</ele>
        <time>2021-09-04T09:22:28Z</time>
      </trkpt>
      <trkpt lat="42.617148" lon="0.477863">
        <ele>1680.000000</ele>
        <time>2021-09-04T09:22:30Z</time>
      </trkpt>
      <trkpt lat="42.617153" lon="0.477859">
        <ele>1680.000000</ele>
        <time>2021-09-04T09:22:31Z</time>
      </trkpt>
      <trkpt lat="42.617163" lon="0.477855">
        <ele>1680.000000</ele>
        <time>2021-09-04T09:22:32Z</time>
      </trkpt>
      <trkpt lat="42.617168" lon="0.477850">
        <ele>1680.000000</ele>
        <time>2021-09-04T09:22:33Z</time>
      </trkpt>
      <trkpt lat="42.617172" lon="0.477846">
        <ele>1680.000000</ele>
        <time>2021-09-04T09:22:34Z</time>
      </trkpt>
      <trkpt lat="42.617177" lon="0.477839">
        <ele>1681.000000</ele>
        <time>2021-09-04T09:22:35Z</time>
      </trkpt>
      <trkpt lat="42.617178" lon="0.477835">
        <ele>1681.000000</ele>
        <time>2021-09-04T09:22:36Z</time>
      </trkpt>
      <trkpt lat="42.617180" lon="0.477820">
        <ele>1681.000000</ele>
        <time>2021-09-04T09:22:37Z</time>
      </trkpt>
      <trkpt lat="42.617175" lon="0.477813">
        <ele>1681.000000</ele>
        <time>2021-09-04T09:22:38Z</time>
      </trkpt>
      <trkpt lat="42.617168" lon="0.477808">
        <ele>1681.000000</ele>
        <time>2021-09-04T09:22:39Z</time>
      </trkpt>
      <trkpt lat="42.617163" lon="0.477808">
        <ele>1681.000000</ele>
        <time>2021-09-04T09:22:40Z</time>
      </trkpt>
      <trkpt lat="42.617160" lon="0.477810">
        <ele>1681.000000</ele>
        <time>2021-09-04T09:22:41Z</time>
      </trkpt>
      <trkpt lat="42.617153" lon="0.477802">
        <ele>1681.000000</ele>
        <time>2021-09-04T09:22:42Z</time>
      </trkpt>
      <trkpt lat="42.617150" lon="0.477790">
        <ele>1682.000000</ele>
        <time>2021-09-04T09:22:43Z</time>
      </trkpt>
      <trkpt lat="42.617146" lon="0.477782">
        <ele>1682.000000</ele>
        <time>2021-09-04T09:22:44Z</time>
      </trkpt>
      <trkpt lat="42.617139" lon="0.477775">
        <ele>1682.000000</ele>
        <time>2021-09-04T09:22:45Z</time>
      </trkpt>
      <trkpt lat="42.617130" lon="0.477763">
        <ele>1682.000000</ele>
        <time>2021-09-04T09:22:46Z</time>
      </trkpt>
      <trkpt lat="42.617123" lon="0.477757">
        <ele>1682.000000</ele>
        <time>2021-09-04T09:22:47Z</time>
      </trkpt>
      <trkpt lat="42.617115" lon="0.477747">
        <ele>1682.000000</ele>
        <time>2021-09-04T09:22:48Z</time>
      </trkpt>
      <trkpt lat="42.617112" lon="0.477742">
        <ele>1683.000000</ele>
        <time>2021-09-04T09:22:49Z</time>
      </trkpt>
      <trkpt lat="42.617109" lon="0.477737">
        <ele>1683.000000</ele>
        <time>2021-09-04T09:22:51Z</time>
      </trkpt>
      <trkpt lat="42.617108" lon="0.477733">
        <ele>1683.000000</ele>
        <time>2021-09-04T09:22:53Z</time>
      </trkpt>
      <trkpt lat="42.617107" lon="0.477729">
        <ele>1684.000000</ele>
        <time>2021-09-04T09:22:53Z</time>
      </trkpt>
      <trkpt lat="42.617103" lon="0.477723">
        <ele>1684.000000</ele>
        <time>2021-09-04T09:22:54Z</time>
      </trkpt>
      <trkpt lat="42.617100" lon="0.477719">
        <ele>1684.000000</ele>
        <time>2021-09-04T09:22:54Z</time>
      </trkpt>
      <trkpt lat="42.617097" lon="0.477714">
        <ele>1684.000000</ele>
        <time>2021-09-04T09:22:55Z</time>
      </trkpt>
      <trkpt lat="42.617095" lon="0.477703">
        <ele>1684.000000</ele>
        <time>2021-09-04T09:22:56Z</time>
      </trkpt>
      <trkpt lat="42.617092" lon="0.477698">
        <ele>1685.000000</ele>
        <time>2021-09-04T09:22:57Z</time>
      </trkpt>
      <trkpt lat="42.617092" lon="0.477693">
        <ele>1685.000000</ele>
        <time>2021-09-04T09:22:58Z</time>
      </trkpt>
      <trkpt lat="42.617093" lon="0.477690">
        <ele>1685.000000</ele>
        <time>2021-09-04T09:22:59Z</time>
      </trkpt>
      <trkpt lat="42.617093" lon="0.477682">
        <ele>1685.000000</ele>
        <time>2021-09-04T09:23:00Z</time>
      </trkpt>
      <trkpt lat="42.617090" lon="0.477677">
        <ele>1686.000000</ele>
        <time>2021-09-04T09:23:01Z</time>
      </trkpt>
      <trkpt lat="42.617089" lon="0.477672">
        <ele>1686.000000</ele>
        <time>2021-09-04T09:23:02Z</time>
      </trkpt>
      <trkpt lat="42.617087" lon="0.477665">
        <ele>1686.000000</ele>
        <time>2021-09-04T09:23:03Z</time>
      </trkpt>
      <trkpt lat="42.617086" lon="0.477658">
        <ele>1686.000000</ele>
        <time>2021-09-04T09:23:04Z</time>
      </trkpt>
      <trkpt lat="42.617086" lon="0.477650">
        <ele>1686.000000</ele>
        <time>2021-09-04T09:23:05Z</time>
      </trkpt>
      <trkpt lat="42.617093" lon="0.477648">
        <ele>1686.000000</ele>
        <time>2021-09-04T09:23:06Z</time>
      </trkpt>
      <trkpt lat="42.617098" lon="0.477645">
        <ele>1686.000000</ele>
        <time>2021-09-04T09:23:07Z</time>
      </trkpt>
      <trkpt lat="42.617098" lon="0.477643">
        <ele>1686.000000</ele>
        <time>2021-09-04T09:23:09Z</time>
      </trkpt>
      <trkpt lat="42.617097" lon="0.477637">
        <ele>1686.000000</ele>
        <time>2021-09-04T09:23:10Z</time>
      </trkpt>
      <trkpt lat="42.617098" lon="0.477630">
        <ele>1687.000000</ele>
        <time>2021-09-04T09:23:11Z</time>
      </trkpt>
      <trkpt lat="42.617100" lon="0.477622">
        <ele>1687.000000</ele>
        <time>2021-09-04T09:23:12Z</time>
      </trkpt>
      <trkpt lat="42.617101" lon="0.477615">
        <ele>1687.000000</ele>
        <time>2021-09-04T09:23:13Z</time>
      </trkpt>
      <trkpt lat="42.617107" lon="0.477608">
        <ele>1687.000000</ele>
        <time>2021-09-04T09:23:14Z</time>
      </trkpt>
      <trkpt lat="42.617110" lon="0.477608">
        <ele>1687.000000</ele>
        <time>2021-09-04T09:23:15Z</time>
      </trkpt>
      <trkpt lat="42.617122" lon="0.477608">
        <ele>1687.000000</ele>
        <time>2021-09-04T09:23:16Z</time>
      </trkpt>
      <trkpt lat="42.617120" lon="0.477605">
        <ele>1688.000000</ele>
        <time>2021-09-04T09:23:17Z</time>
      </trkpt>
      <trkpt lat="42.617122" lon="0.477598">
        <ele>1688.000000</ele>
        <time>2021-09-04T09:23:18Z</time>
      </trkpt>
      <trkpt lat="42.617122" lon="0.477592">
        <ele>1688.000000</ele>
        <time>2021-09-04T09:23:19Z</time>
      </trkpt>
      <trkpt lat="42.617122" lon="0.477588">
        <ele>1688.000000</ele>
        <time>2021-09-04T09:23:20Z</time>
      </trkpt>
      <trkpt lat="42.617120" lon="0.477582">
        <ele>1688.000000</ele>
        <time>2021-09-04T09:23:21Z</time>
      </trkpt>
      <trkpt lat="42.617123" lon="0.477573">
        <ele>1688.000000</ele>
        <time>2021-09-04T09:23:22Z</time>
      </trkpt>
      <trkpt lat="42.617126" lon="0.477572">
        <ele>1688.000000</ele>
        <time>2021-09-04T09:23:23Z</time>
      </trkpt>
      <trkpt lat="42.617128" lon="0.477565">
        <ele>1689.000000</ele>
        <time>2021-09-04T09:23:24Z</time>
      </trkpt>
      <trkpt lat="42.617129" lon="0.477555">
        <ele>1689.000000</ele>
        <time>2021-09-04T09:23:25Z</time>
      </trkpt>
      <trkpt lat="42.617130" lon="0.477543">
        <ele>1689.000000</ele>
        <time>2021-09-04T09:23:26Z</time>
      </trkpt>
      <trkpt lat="42.617131" lon="0.477532">
        <ele>1689.000000</ele>
        <time>2021-09-04T09:23:27Z</time>
      </trkpt>
      <trkpt lat="42.617132" lon="0.477522">
        <ele>1689.000000</ele>
        <time>2021-09-04T09:23:28Z</time>
      </trkpt>
      <trkpt lat="42.617134" lon="0.477513">
        <ele>1689.000000</ele>
        <time>2021-09-04T09:23:29Z</time>
      </trkpt>
      <trkpt lat="42.617136" lon="0.477503">
        <ele>1689.000000</ele>
        <time>2021-09-04T09:23:30Z</time>
      </trkpt>
      <trkpt lat="42.617138" lon="0.477487">
        <ele>1690.000000</ele>
        <time>2021-09-04T09:23:31Z</time>
      </trkpt>
      <trkpt lat="42.617138" lon="0.477477">
        <ele>1690.000000</ele>
        <time>2021-09-04T09:23:32Z</time>
      </trkpt>
      <trkpt lat="42.617138" lon="0.477475">
        <ele>1690.000000</ele>
        <time>2021-09-04T09:23:33Z</time>
      </trkpt>
      <trkpt lat="42.617139" lon="0.477472">
        <ele>1690.000000</ele>
        <time>2021-09-04T09:23:34Z</time>
      </trkpt>
      <trkpt lat="42.617147" lon="0.477468">
        <ele>1690.000000</ele>
        <time>2021-09-04T09:23:35Z</time>
      </trkpt>
      <trkpt lat="42.617152" lon="0.477467">
        <ele>1690.000000</ele>
        <time>2021-09-04T09:23:37Z</time>
      </trkpt>
      <trkpt lat="42.617155" lon="0.477467">
        <ele>1690.000000</ele>
        <time>2021-09-04T09:23:37Z</time>
      </trkpt>
      <trkpt lat="42.617152" lon="0.477462">
        <ele>1690.000000</ele>
        <time>2021-09-04T09:23:38Z</time>
      </trkpt>
      <trkpt lat="42.617148" lon="0.477457">
        <ele>1690.000000</ele>
        <time>2021-09-04T09:23:39Z</time>
      </trkpt>
      <trkpt lat="42.617147" lon="0.477453">
        <ele>1690.000000</ele>
        <time>2021-09-04T09:23:40Z</time>
      </trkpt>
      <trkpt lat="42.617153" lon="0.477459">
        <ele>1690.000000</ele>
        <time>2021-09-04T09:23:41Z</time>
      </trkpt>
      <trkpt lat="42.617163" lon="0.477451">
        <ele>1691.000000</ele>
        <time>2021-09-04T09:23:42Z</time>
      </trkpt>
      <trkpt lat="42.617172" lon="0.477443">
        <ele>1691.000000</ele>
        <time>2021-09-04T09:23:43Z</time>
      </trkpt>
      <trkpt lat="42.617182" lon="0.477438">
        <ele>1691.000000</ele>
        <time>2021-09-04T09:23:44Z</time>
      </trkpt>
      <trkpt lat="42.617192" lon="0.477438">
        <ele>1691.000000</ele>
        <time>2021-09-04T09:23:45Z</time>
      </trkpt>
      <trkpt lat="42.617197" lon="0.477435">
        <ele>1691.000000</ele>
        <time>2021-09-04T09:23:46Z</time>
      </trkpt>
      <trkpt lat="42.617205" lon="0.477431">
        <ele>1691.000000</ele>
        <time>2021-09-04T09:23:47Z</time>
      </trkpt>
      <trkpt lat="42.617217" lon="0.477420">
        <ele>1691.000000</ele>
        <time>2021-09-04T09:23:48Z</time>
      </trkpt>
      <trkpt lat="42.617228" lon="0.477418">
        <ele>1691.000000</ele>
        <time>2021-09-04T09:23:49Z</time>
      </trkpt>
      <trkpt lat="42.617237" lon="0.477417">
        <ele>1691.000000</ele>
        <time>2021-09-04T09:23:50Z</time>
      </trkpt>
      <trkpt lat="42.617242" lon="0.477413">
        <ele>1691.000000</ele>
        <time>2021-09-04T09:23:51Z</time>
      </trkpt>
      <trkpt lat="42.617247" lon="0.477413">
        <ele>1691.000000</ele>
        <time>2021-09-04T09:23:52Z</time>
      </trkpt>
      <trkpt lat="42.617258" lon="0.477420">
        <ele>1692.000000</ele>
        <time>2021-09-04T09:23:53Z</time>
      </trkpt>
      <trkpt lat="42.617260" lon="0.477422">
        <ele>1692.000000</ele>
        <time>2021-09-04T09:23:54Z</time>
      </trkpt>
      <trkpt lat="42.617265" lon="0.477427">
        <ele>1692.000000</ele>
        <time>2021-09-04T09:23:55Z</time>
      </trkpt>
      <trkpt lat="42.617272" lon="0.477425">
        <ele>1692.000000</ele>
        <time>2021-09-04T09:23:56Z</time>
      </trkpt>
      <trkpt lat="42.617288" lon="0.477422">
        <ele>1692.000000</ele>
        <time>2021-09-04T09:23:57Z</time>
      </trkpt>
      <trkpt lat="42.617300" lon="0.477420">
        <ele>1692.000000</ele>
        <time>2021-09-04T09:23:58Z</time>
      </trkpt>
      <trkpt lat="42.617310" lon="0.477416">
        <ele>1692.000000</ele>
        <time>2021-09-04T09:23:59Z</time>
      </trkpt>
      <trkpt lat="42.617325" lon="0.477411">
        <ele>1692.000000</ele>
        <time>2021-09-04T09:24:00Z</time>
      </trkpt>
      <trkpt lat="42.617337" lon="0.477409">
        <ele>1692.000000</ele>
        <time>2021-09-04T09:24:01Z</time>
      </trkpt>
      <trkpt lat="42.617342" lon="0.477408">
        <ele>1692.000000</ele>
        <time>2021-09-04T09:24:02Z</time>
      </trkpt>
      <trkpt lat="42.617350" lon="0.477408">
        <ele>1692.000000</ele>
        <time>2021-09-04T09:24:03Z</time>
      </trkpt>
      <trkpt lat="42.617357" lon="0.477407">
        <ele>1692.000000</ele>
        <time>2021-09-04T09:24:04Z</time>
      </trkpt>
      <trkpt lat="42.617368" lon="0.477405">
        <ele>1693.000000</ele>
        <time>2021-09-04T09:24:05Z</time>
      </trkpt>
      <trkpt lat="42.617380" lon="0.477402">
        <ele>1693.000000</ele>
        <time>2021-09-04T09:24:06Z</time>
      </trkpt>
      <trkpt lat="42.617393" lon="0.477399">
        <ele>1693.000000</ele>
        <time>2021-09-04T09:24:07Z</time>
      </trkpt>
      <trkpt lat="42.617403" lon="0.477397">
        <ele>1693.000000</ele>
        <time>2021-09-04T09:24:08Z</time>
      </trkpt>
      <trkpt lat="42.617407" lon="0.477399">
        <ele>1693.000000</ele>
        <time>2021-09-04T09:24:09Z</time>
      </trkpt>
      <trkpt lat="42.617413" lon="0.477399">
        <ele>1693.000000</ele>
        <time>2021-09-04T09:24:10Z</time>
      </trkpt>
      <trkpt lat="42.617422" lon="0.477398">
        <ele>1693.000000</ele>
        <time>2021-09-04T09:24:11Z</time>
      </trkpt>
      <trkpt lat="42.617427" lon="0.477398">
        <ele>1693.000000</ele>
        <time>2021-09-04T09:24:12Z</time>
      </trkpt>
      <trkpt lat="42.617428" lon="0.477398">
        <ele>1694.000000</ele>
        <time>2021-09-04T09:24:13Z</time>
      </trkpt>
      <trkpt lat="42.617428" lon="0.477398">
        <ele>1694.000000</ele>
        <time>2021-09-04T09:24:14Z</time>
      </trkpt>
      <trkpt lat="42.617430" lon="0.477399">
        <ele>1694.000000</ele>
        <time>2021-09-04T09:24:15Z</time>
      </trkpt>
      <trkpt lat="42.617430" lon="0.477401">
        <ele>1694.000000</ele>
        <time>2021-09-04T09:24:16Z</time>
      </trkpt>
      <trkpt lat="42.617433" lon="0.477402">
        <ele>1694.000000</ele>
        <time>2021-09-04T09:24:17Z</time>
      </trkpt>
      <trkpt lat="42.617437" lon="0.477403">
        <ele>1695.000000</ele>
        <time>2021-09-04T09:24:18Z</time>
      </trkpt>
      <trkpt lat="42.617438" lon="0.477404">
        <ele>1695.000000</ele>
        <time>2021-09-04T09:24:19Z</time>
      </trkpt>
      <trkpt lat="42.617442" lon="0.477405">
        <ele>1695.000000</ele>
        <time>2021-09-04T09:24:20Z</time>
      </trkpt>
      <trkpt lat="42.617445" lon="0.477406">
        <ele>1695.000000</ele>
        <time>2021-09-04T09:24:22Z</time>
      </trkpt>
      <trkpt lat="42.617443" lon="0.477407">
        <ele>1695.000000</ele>
        <time>2021-09-04T09:24:22Z</time>
      </trkpt>
      <trkpt lat="42.617440" lon="0.477407">
        <ele>1695.000000</ele>
        <time>2021-09-04T09:24:23Z</time>
      </trkpt>
      <trkpt lat="42.617440" lon="0.477407">
        <ele>1695.000000</ele>
        <time>2021-09-04T09:24:24Z</time>
      </trkpt>
      <trkpt lat="42.617453" lon="0.477393">
        <ele>1695.000000</ele>
        <time>2021-09-04T09:24:27Z</time>
      </trkpt>
      <trkpt lat="42.617455" lon="0.477391">
        <ele>1695.000000</ele>
        <time>2021-09-04T09:24:28Z</time>
      </trkpt>
      <trkpt lat="42.617463" lon="0.477393">
        <ele>1695.000000</ele>
        <time>2021-09-04T09:24:29Z</time>
      </trkpt>
      <trkpt lat="42.617467" lon="0.477394">
        <ele>1695.000000</ele>
        <time>2021-09-04T09:24:30Z</time>
      </trkpt>
      <trkpt lat="42.617477" lon="0.477396">
        <ele>1695.000000</ele>
        <time>2021-09-04T09:24:31Z</time>
      </trkpt>
      <trkpt lat="42.617480" lon="0.477395">
        <ele>1695.000000</ele>
        <time>2021-09-04T09:24:32Z</time>
      </trkpt>
      <trkpt lat="42.617485" lon="0.477395">
        <ele>1695.000000</ele>
        <time>2021-09-04T09:24:33Z</time>
      </trkpt>
      <trkpt lat="42.617490" lon="0.477393">
        <ele>1695.000000</ele>
        <time>2021-09-04T09:24:34Z</time>
      </trkpt>
      <trkpt lat="42.617497" lon="0.477392">
        <ele>1695.000000</ele>
        <time>2021-09-04T09:24:35Z</time>
      </trkpt>
      <trkpt lat="42.617503" lon="0.477391">
        <ele>1695.000000</ele>
        <time>2021-09-04T09:24:36Z</time>
      </trkpt>
      <trkpt lat="42.617517" lon="0.477392">
        <ele>1696.000000</ele>
        <time>2021-09-04T09:24:37Z</time>
      </trkpt>
      <trkpt lat="42.617528" lon="0.477394">
        <ele>1696.000000</ele>
        <time>2021-09-04T09:24:38Z</time>
      </trkpt>
      <trkpt lat="42.617540" lon="0.477395">
        <ele>1696.000000</ele>
        <time>2021-09-04T09:24:39Z</time>
      </trkpt>
      <trkpt lat="42.617552" lon="0.477394">
        <ele>1696.000000</ele>
        <time>2021-09-04T09:24:40Z</time>
      </trkpt>
      <trkpt lat="42.617557" lon="0.477393">
        <ele>1696.000000</ele>
        <time>2021-09-04T09:24:41Z</time>
      </trkpt>
      <trkpt lat="42.617568" lon="0.477389">
        <ele>1696.000000</ele>
        <time>2021-09-04T09:24:42Z</time>
      </trkpt>
      <trkpt lat="42.617570" lon="0.477386">
        <ele>1696.000000</ele>
        <time>2021-09-04T09:24:43Z</time>
      </trkpt>
      <trkpt lat="42.617572" lon="0.477365">
        <ele>1696.000000</ele>
        <time>2021-09-04T09:24:44Z</time>
      </trkpt>
      <trkpt lat="42.617573" lon="0.477362">
        <ele>1696.000000</ele>
        <time>2021-09-04T09:24:45Z</time>
      </trkpt>
      <trkpt lat="42.617577" lon="0.477358">
        <ele>1696.000000</ele>
        <time>2021-09-04T09:24:48Z</time>
      </trkpt>
      <trkpt lat="42.617577" lon="0.477362">
        <ele>1696.000000</ele>
        <time>2021-09-04T09:24:49Z</time>
      </trkpt>
      <trkpt lat="42.617580" lon="0.477367">
        <ele>1696.000000</ele>
        <time>2021-09-04T09:24:50Z</time>
      </trkpt>
      <trkpt lat="42.617579" lon="0.477365">
        <ele>1696.000000</ele>
        <time>2021-09-04T09:24:51Z</time>
      </trkpt>
      <trkpt lat="42.617578" lon="0.477360">
        <ele>1696.000000</ele>
        <time>2021-09-04T09:24:52Z</time>
      </trkpt>
      <trkpt lat="42.617580" lon="0.477360">
        <ele>1696.000000</ele>
        <time>2021-09-04T09:24:53Z</time>
      </trkpt>
      <trkpt lat="42.617600" lon="0.477357">
        <ele>1696.000000</ele>
        <time>2021-09-04T09:24:54Z</time>
      </trkpt>
      <trkpt lat="42.617615" lon="0.477360">
        <ele>1696.000000</ele>
        <time>2021-09-04T09:24:55Z</time>
      </trkpt>
      <trkpt lat="42.617620" lon="0.477362">
        <ele>1696.000000</ele>
        <time>2021-09-04T09:24:56Z</time>
      </trkpt>
      <trkpt lat="42.617623" lon="0.477363">
        <ele>1696.000000</ele>
        <time>2021-09-04T09:24:57Z</time>
      </trkpt>
      <trkpt lat="42.617625" lon="0.477360">
        <ele>1697.000000</ele>
        <time>2021-09-04T09:24:58Z</time>
      </trkpt>
      <trkpt lat="42.617633" lon="0.477351">
        <ele>1697.000000</ele>
        <time>2021-09-04T09:24:59Z</time>
      </trkpt>
      <trkpt lat="42.617645" lon="0.477345">
        <ele>1697.000000</ele>
        <time>2021-09-04T09:25:00Z</time>
      </trkpt>
      <trkpt lat="42.617657" lon="0.477342">
        <ele>1697.000000</ele>
        <time>2021-09-04T09:25:01Z</time>
      </trkpt>
      <trkpt lat="42.617662" lon="0.477340">
        <ele>1697.000000</ele>
        <time>2021-09-04T09:25:02Z</time>
      </trkpt>
      <trkpt lat="42.617670" lon="0.477342">
        <ele>1697.000000</ele>
        <time>2021-09-04T09:25:03Z</time>
      </trkpt>
      <trkpt lat="42.617673" lon="0.477345">
        <ele>1697.000000</ele>
        <time>2021-09-04T09:25:04Z</time>
      </trkpt>
      <trkpt lat="42.617675" lon="0.477347">
        <ele>1697.000000</ele>
        <time>2021-09-04T09:25:06Z</time>
      </trkpt>
      <trkpt lat="42.617677" lon="0.477350">
        <ele>1697.000000</ele>
        <time>2021-09-04T09:25:06Z</time>
      </trkpt>
      <trkpt lat="42.617685" lon="0.477353">
        <ele>1697.000000</ele>
        <time>2021-09-04T09:25:08Z</time>
      </trkpt>
      <trkpt lat="42.617690" lon="0.477354">
        <ele>1697.000000</ele>
        <time>2021-09-04T09:25:09Z</time>
      </trkpt>
      <trkpt lat="42.617692" lon="0.477356">
        <ele>1697.000000</ele>
        <time>2021-09-04T09:25:10Z</time>
      </trkpt>
      <trkpt lat="42.617695" lon="0.477358">
        <ele>1697.000000</ele>
        <time>2021-09-04T09:25:11Z</time>
      </trkpt>
      <trkpt lat="42.617697" lon="0.477363">
        <ele>1697.000000</ele>
        <time>2021-09-04T09:25:12Z</time>
      </trkpt>
      <trkpt lat="42.617708" lon="0.477365">
        <ele>1698.000000</ele>
        <time>2021-09-04T09:25:13Z</time>
      </trkpt>
      <trkpt lat="42.617720" lon="0.477371">
        <ele>1698.000000</ele>
        <time>2021-09-04T09:25:14Z</time>
      </trkpt>
      <trkpt lat="42.617732" lon="0.477378">
        <ele>1698.000000</ele>
        <time>2021-09-04T09:25:15Z</time>
      </trkpt>
      <trkpt lat="42.617742" lon="0.477378">
        <ele>1698.000000</ele>
        <time>2021-09-04T09:25:16Z</time>
      </trkpt>
      <trkpt lat="42.617745" lon="0.477377">
        <ele>1698.000000</ele>
        <time>2021-09-04T09:25:17Z</time>
      </trkpt>
      <trkpt lat="42.617752" lon="0.477375">
        <ele>1698.000000</ele>
        <time>2021-09-04T09:25:18Z</time>
      </trkpt>
      <trkpt lat="42.617758" lon="0.477380">
        <ele>1698.000000</ele>
        <time>2021-09-04T09:25:19Z</time>
      </trkpt>
      <trkpt lat="42.617762" lon="0.477385">
        <ele>1698.000000</ele>
        <time>2021-09-04T09:25:20Z</time>
      </trkpt>
      <trkpt lat="42.617767" lon="0.477385">
        <ele>1698.000000</ele>
        <time>2021-09-04T09:25:21Z</time>
      </trkpt>
      <trkpt lat="42.617768" lon="0.477390">
        <ele>1698.000000</ele>
        <time>2021-09-04T09:25:22Z</time>
      </trkpt>
      <trkpt lat="42.617770" lon="0.477393">
        <ele>1698.000000</ele>
        <time>2021-09-04T09:25:23Z</time>
      </trkpt>
      <trkpt lat="42.617782" lon="0.477388">
        <ele>1698.000000</ele>
        <time>2021-09-04T09:25:24Z</time>
      </trkpt>
      <trkpt lat="42.617787" lon="0.477385">
        <ele>1698.000000</ele>
        <time>2021-09-04T09:25:25Z</time>
      </trkpt>
      <trkpt lat="42.617793" lon="0.477382">
        <ele>1698.000000</ele>
        <time>2021-09-04T09:25:26Z</time>
      </trkpt>
      <trkpt lat="42.617798" lon="0.477380">
        <ele>1698.000000</ele>
        <time>2021-09-04T09:25:27Z</time>
      </trkpt>
      <trkpt lat="42.617803" lon="0.477375">
        <ele>1698.000000</ele>
        <time>2021-09-04T09:25:28Z</time>
      </trkpt>
      <trkpt lat="42.617817" lon="0.477370">
        <ele>1698.000000</ele>
        <time>2021-09-04T09:25:29Z</time>
      </trkpt>
      <trkpt lat="42.617830" lon="0.477368">
        <ele>1698.000000</ele>
        <time>2021-09-04T09:25:30Z</time>
      </trkpt>
      <trkpt lat="42.617828" lon="0.477368">
        <ele>1699.000000</ele>
        <time>2021-09-04T09:25:32Z</time>
      </trkpt>
      <trkpt lat="42.617825" lon="0.477372">
        <ele>1699.000000</ele>
        <time>2021-09-04T09:25:33Z</time>
      </trkpt>
      <trkpt lat="42.617830" lon="0.477378">
        <ele>1699.000000</ele>
        <time>2021-09-04T09:25:34Z</time>
      </trkpt>
      <trkpt lat="42.617832" lon="0.477413">
        <ele>1699.000000</ele>
        <time>2021-09-04T09:25:35Z</time>
      </trkpt>
      <trkpt lat="42.617842" lon="0.477422">
        <ele>1699.000000</ele>
        <time>2021-09-04T09:25:36Z</time>
      </trkpt>
      <trkpt lat="42.617851" lon="0.477428">
        <ele>1699.000000</ele>
        <time>2021-09-04T09:25:37Z</time>
      </trkpt>
      <trkpt lat="42.617858" lon="0.477433">
        <ele>1699.000000</ele>
        <time>2021-09-04T09:25:38Z</time>
      </trkpt>
      <trkpt lat="42.617858" lon="0.477437">
        <ele>1699.000000</ele>
        <time>2021-09-04T09:25:39Z</time>
      </trkpt>
      <trkpt lat="42.617858" lon="0.477445">
        <ele>1699.000000</ele>
        <time>2021-09-04T09:25:40Z</time>
      </trkpt>
      <trkpt lat="42.617860" lon="0.477447">
        <ele>1699.000000</ele>
        <time>2021-09-04T09:25:41Z</time>
      </trkpt>
      <trkpt lat="42.617861" lon="0.477443">
        <ele>1700.000000</ele>
        <time>2021-09-04T09:25:42Z</time>
      </trkpt>
      <trkpt lat="42.617878" lon="0.477442">
        <ele>1700.000000</ele>
        <time>2021-09-04T09:25:43Z</time>
      </trkpt>
      <trkpt lat="42.617892" lon="0.477447">
        <ele>1700.000000</ele>
        <time>2021-09-04T09:25:44Z</time>
      </trkpt>
      <trkpt lat="42.617898" lon="0.477455">
        <ele>1700.000000</ele>
        <time>2021-09-04T09:25:45Z</time>
      </trkpt>
      <trkpt lat="42.617902" lon="0.477459">
        <ele>1700.000000</ele>
        <time>2021-09-04T09:25:46Z</time>
      </trkpt>
      <trkpt lat="42.617907" lon="0.477463">
        <ele>1700.000000</ele>
        <time>2021-09-04T09:25:47Z</time>
      </trkpt>
      <trkpt lat="42.617907" lon="0.477464">
        <ele>1700.000000</ele>
        <time>2021-09-04T09:25:48Z</time>
      </trkpt>
      <trkpt lat="42.617910" lon="0.477468">
        <ele>1700.000000</ele>
        <time>2021-09-04T09:25:49Z</time>
      </trkpt>
      <trkpt lat="42.617915" lon="0.477472">
        <ele>1700.000000</ele>
        <time>2021-09-04T09:25:50Z</time>
      </trkpt>
      <trkpt lat="42.617918" lon="0.477473">
        <ele>1701.000000</ele>
        <time>2021-09-04T09:25:51Z</time>
      </trkpt>
      <trkpt lat="42.617927" lon="0.477472">
        <ele>1701.000000</ele>
        <time>2021-09-04T09:25:52Z</time>
      </trkpt>
      <trkpt lat="42.617943" lon="0.477468">
        <ele>1701.000000</ele>
        <time>2021-09-04T09:25:53Z</time>
      </trkpt>
      <trkpt lat="42.617957" lon="0.477467">
        <ele>1701.000000</ele>
        <time>2021-09-04T09:25:54Z</time>
      </trkpt>
      <trkpt lat="42.617965" lon="0.477471">
        <ele>1701.000000</ele>
        <time>2021-09-04T09:25:56Z</time>
      </trkpt>
      <trkpt lat="42.617967" lon="0.477473">
        <ele>1701.000000</ele>
        <time>2021-09-04T09:25:56Z</time>
      </trkpt>
      <trkpt lat="42.617972" lon="0.477475">
        <ele>1701.000000</ele>
        <time>2021-09-04T09:25:57Z</time>
      </trkpt>
      <trkpt lat="42.617973" lon="0.477474">
        <ele>1701.000000</ele>
        <time>2021-09-04T09:25:58Z</time>
      </trkpt>
      <trkpt lat="42.617973" lon="0.477475">
        <ele>1701.000000</ele>
        <time>2021-09-04T09:25:59Z</time>
      </trkpt>
      <trkpt lat="42.617977" lon="0.477475">
        <ele>1701.000000</ele>
        <time>2021-09-04T09:26:00Z</time>
      </trkpt>
      <trkpt lat="42.617988" lon="0.477478">
        <ele>1701.000000</ele>
        <time>2021-09-04T09:26:01Z</time>
      </trkpt>
      <trkpt lat="42.617998" lon="0.477481">
        <ele>1701.000000</ele>
        <time>2021-09-04T09:26:02Z</time>
      </trkpt>
      <trkpt lat="42.618008" lon="0.477484">
        <ele>1701.000000</ele>
        <time>2021-09-04T09:26:03Z</time>
      </trkpt>
      <trkpt lat="42.618023" lon="0.477488">
        <ele>1701.000000</ele>
        <time>2021-09-04T09:26:04Z</time>
      </trkpt>
      <trkpt lat="42.618037" lon="0.477490">
        <ele>1701.000000</ele>
        <time>2021-09-04T09:26:05Z</time>
      </trkpt>
      <trkpt lat="42.618048" lon="0.477492">
        <ele>1701.000000</ele>
        <time>2021-09-04T09:26:06Z</time>
      </trkpt>
      <trkpt lat="42.618055" lon="0.477494">
        <ele>1701.000000</ele>
        <time>2021-09-04T09:26:07Z</time>
      </trkpt>
      <trkpt lat="42.618053" lon="0.477493">
        <ele>1701.000000</ele>
        <time>2021-09-04T09:26:09Z</time>
      </trkpt>
      <trkpt lat="42.618055" lon="0.477493">
        <ele>1701.000000</ele>
        <time>2021-09-04T09:26:10Z</time>
      </trkpt>
      <trkpt lat="42.618058" lon="0.477494">
        <ele>1701.000000</ele>
        <time>2021-09-04T09:26:12Z</time>
      </trkpt>
      <trkpt lat="42.618062" lon="0.477495">
        <ele>1699.000000</ele>
        <time>2021-09-04T09:26:13Z</time>
      </trkpt>
      <trkpt lat="42.618067" lon="0.477497">
        <ele>1698.000000</ele>
        <time>2021-09-04T09:26:15Z</time>
      </trkpt>
      <trkpt lat="42.618072" lon="0.477498">
        <ele>1698.000000</ele>
        <time>2021-09-04T09:26:16Z</time>
      </trkpt>
      <trkpt lat="42.618078" lon="0.477499">
        <ele>1698.000000</ele>
        <time>2021-09-04T09:26:17Z</time>
      </trkpt>
      <trkpt lat="42.618090" lon="0.477500">
        <ele>1698.000000</ele>
        <time>2021-09-04T09:26:18Z</time>
      </trkpt>
      <trkpt lat="42.618102" lon="0.477500">
        <ele>1698.000000</ele>
        <time>2021-09-04T09:26:19Z</time>
      </trkpt>
      <trkpt lat="42.618108" lon="0.477499">
        <ele>1698.000000</ele>
        <time>2021-09-04T09:26:20Z</time>
      </trkpt>
      <trkpt lat="42.618115" lon="0.477497">
        <ele>1698.000000</ele>
        <time>2021-09-04T09:26:21Z</time>
      </trkpt>
      <trkpt lat="42.618123" lon="0.477495">
        <ele>1698.000000</ele>
        <time>2021-09-04T09:26:22Z</time>
      </trkpt>
      <trkpt lat="42.618127" lon="0.477492">
        <ele>1698.000000</ele>
        <time>2021-09-04T09:26:23Z</time>
      </trkpt>
      <trkpt lat="42.618133" lon="0.477489">
        <ele>1698.000000</ele>
        <time>2021-09-04T09:26:24Z</time>
      </trkpt>
      <trkpt lat="42.618140" lon="0.477485">
        <ele>1698.000000</ele>
        <time>2021-09-04T09:26:25Z</time>
      </trkpt>
      <trkpt lat="42.618150" lon="0.477481">
        <ele>1698.000000</ele>
        <time>2021-09-04T09:26:26Z</time>
      </trkpt>
      <trkpt lat="42.618158" lon="0.477476">
        <ele>1698.000000</ele>
        <time>2021-09-04T09:26:27Z</time>
      </trkpt>
      <trkpt lat="42.618162" lon="0.477471">
        <ele>1698.000000</ele>
        <time>2021-09-04T09:26:28Z</time>
      </trkpt>
      <trkpt lat="42.618163" lon="0.477467">
        <ele>1698.000000</ele>
        <time>2021-09-04T09:26:29Z</time>
      </trkpt>
      <trkpt lat="42.618167" lon="0.477408">
        <ele>1698.000000</ele>
        <time>2021-09-04T09:26:30Z</time>
      </trkpt>
      <trkpt lat="42.618172" lon="0.477402">
        <ele>1698.000000</ele>
        <time>2021-09-04T09:26:31Z</time>
      </trkpt>
      <trkpt lat="42.618172" lon="0.477393">
        <ele>1698.000000</ele>
        <time>2021-09-04T09:26:32Z</time>
      </trkpt>
      <trkpt lat="42.618173" lon="0.477385">
        <ele>1698.000000</ele>
        <time>2021-09-04T09:26:33Z</time>
      </trkpt>
      <trkpt lat="42.618173" lon="0.477380">
        <ele>1698.000000</ele>
        <time>2021-09-04T09:26:34Z</time>
      </trkpt>
      <trkpt lat="42.618172" lon="0.477372">
        <ele>1698.000000</ele>
        <time>2021-09-04T09:26:35Z</time>
      </trkpt>
      <trkpt lat="42.618178" lon="0.477367">
        <ele>1698.000000</ele>
        <time>2021-09-04T09:26:36Z</time>
      </trkpt>
      <trkpt lat="42.618187" lon="0.477357">
        <ele>1699.000000</ele>
        <time>2021-09-04T09:26:37Z</time>
      </trkpt>
      <trkpt lat="42.618192" lon="0.477355">
        <ele>1699.000000</ele>
        <time>2021-09-04T09:26:38Z</time>
      </trkpt>
      <trkpt lat="42.618190" lon="0.477350">
        <ele>1700.000000</ele>
        <time>2021-09-04T09:26:41Z</time>
      </trkpt>
      <trkpt lat="42.618188" lon="0.477343">
        <ele>1701.000000</ele>
        <time>2021-09-04T09:26:42Z</time>
      </trkpt>
      <trkpt lat="42.618192" lon="0.477338">
        <ele>1701.000000</ele>
        <time>2021-09-04T09:26:43Z</time>
      </trkpt>
      <trkpt lat="42.618198" lon="0.477335">
        <ele>1702.000000</ele>
        <time>2021-09-04T09:26:44Z</time>
      </trkpt>
      <trkpt lat="42.618200" lon="0.477335">
        <ele>1702.000000</ele>
        <time>2021-09-04T09:26:45Z</time>
      </trkpt>
      <trkpt lat="42.618201" lon="0.477342">
        <ele>1702.000000</ele>
        <time>2021-09-04T09:26:46Z</time>
      </trkpt>
      <trkpt lat="42.618201" lon="0.477345">
        <ele>1703.000000</ele>
        <time>2021-09-04T09:26:47Z</time>
      </trkpt>
      <trkpt lat="42.618200" lon="0.477340">
        <ele>1703.000000</ele>
        <time>2021-09-04T09:26:49Z</time>
      </trkpt>
      <trkpt lat="42.618201" lon="0.477340">
        <ele>1704.000000</ele>
        <time>2021-09-04T09:26:50Z</time>
      </trkpt>
      <trkpt lat="42.618200" lon="0.477340">
        <ele>1704.000000</ele>
        <time>2021-09-04T09:26:51Z</time>
      </trkpt>
      <trkpt lat="42.618192" lon="0.477355">
        <ele>1704.000000</ele>
        <time>2021-09-04T09:26:52Z</time>
      </trkpt>
      <trkpt lat="42.618243" lon="0.477335">
        <ele>1705.000000</ele>
        <time>2021-09-04T09:26:54Z</time>
      </trkpt>
      <trkpt lat="42.618253" lon="0.477332">
        <ele>1705.000000</ele>
        <time>2021-09-04T09:26:55Z</time>
      </trkpt>
      <trkpt lat="42.618258" lon="0.477329">
        <ele>1705.000000</ele>
        <time>2021-09-04T09:26:56Z</time>
      </trkpt>
      <trkpt lat="42.618268" lon="0.477315">
        <ele>1705.000000</ele>
        <time>2021-09-04T09:26:57Z</time>
      </trkpt>
      <trkpt lat="42.618278" lon="0.477317">
        <ele>1705.000000</ele>
        <time>2021-09-04T09:26:58Z</time>
      </trkpt>
      <trkpt lat="42.618285" lon="0.477318">
        <ele>1706.000000</ele>
        <time>2021-09-04T09:26:59Z</time>
      </trkpt>
      <trkpt lat="42.618287" lon="0.477321">
        <ele>1706.000000</ele>
        <time>2021-09-04T09:27:00Z</time>
      </trkpt>
      <trkpt lat="42.618292" lon="0.477327">
        <ele>1706.000000</ele>
        <time>2021-09-04T09:27:01Z</time>
      </trkpt>
      <trkpt lat="42.618297" lon="0.477335">
        <ele>1706.000000</ele>
        <time>2021-09-04T09:27:02Z</time>
      </trkpt>
      <trkpt lat="42.618297" lon="0.477339">
        <ele>1706.000000</ele>
        <time>2021-09-04T09:27:03Z</time>
      </trkpt>
      <trkpt lat="42.618300" lon="0.477352">
        <ele>1706.000000</ele>
        <time>2021-09-04T09:27:05Z</time>
      </trkpt>
      <trkpt lat="42.618303" lon="0.477354">
        <ele>1707.000000</ele>
        <time>2021-09-04T09:27:06Z</time>
      </trkpt>
      <trkpt lat="42.618313" lon="0.477359">
        <ele>1707.000000</ele>
        <time>2021-09-04T09:27:07Z</time>
      </trkpt>
      <trkpt lat="42.618328" lon="0.477363">
        <ele>1707.000000</ele>
        <time>2021-09-04T09:27:08Z</time>
      </trkpt>
      <trkpt lat="42.618338" lon="0.477362">
        <ele>1707.000000</ele>
        <time>2021-09-04T09:27:09Z</time>
      </trkpt>
      <trkpt lat="42.618345" lon="0.477360">
        <ele>1707.000000</ele>
        <time>2021-09-04T09:27:09Z</time>
      </trkpt>
      <trkpt lat="42.618357" lon="0.477343">
        <ele>1707.000000</ele>
        <time>2021-09-04T09:27:10Z</time>
      </trkpt>
      <trkpt lat="42.618363" lon="0.477332">
        <ele>1707.000000</ele>
        <time>2021-09-04T09:27:11Z</time>
      </trkpt>
      <trkpt lat="42.618377" lon="0.477322">
        <ele>1707.000000</ele>
        <time>2021-09-04T09:27:12Z</time>
      </trkpt>
      <trkpt lat="42.618383" lon="0.477322">
        <ele>1708.000000</ele>
        <time>2021-09-04T09:27:13Z</time>
      </trkpt>
      <trkpt lat="42.618387" lon="0.477323">
        <ele>1708.000000</ele>
        <time>2021-09-04T09:27:14Z</time>
      </trkpt>
      <trkpt lat="42.618388" lon="0.477325">
        <ele>1708.000000</ele>
        <time>2021-09-04T09:27:15Z</time>
      </trkpt>
      <trkpt lat="42.618392" lon="0.477330">
        <ele>1708.000000</ele>
        <time>2021-09-04T09:27:16Z</time>
      </trkpt>
      <trkpt lat="42.618393" lon="0.477332">
        <ele>1708.000000</ele>
        <time>2021-09-04T09:27:17Z</time>
      </trkpt>
      <trkpt lat="42.618390" lon="0.477335">
        <ele>1708.000000</ele>
        <time>2021-09-04T09:27:18Z</time>
      </trkpt>
      <trkpt lat="42.618385" lon="0.477336">
        <ele>1708.000000</ele>
        <time>2021-09-04T09:27:19Z</time>
      </trkpt>
      <trkpt lat="42.618382" lon="0.477326">
        <ele>1709.000000</ele>
        <time>2021-09-04T09:27:20Z</time>
      </trkpt>
      <trkpt lat="42.618385" lon="0.477325">
        <ele>1709.000000</ele>
        <time>2021-09-04T09:27:21Z</time>
      </trkpt>
      <trkpt lat="42.618392" lon="0.477327">
        <ele>1709.000000</ele>
        <time>2021-09-04T09:27:22Z</time>
      </trkpt>
      <trkpt lat="42.618395" lon="0.477307">
        <ele>1709.000000</ele>
        <time>2021-09-04T09:27:23Z</time>
      </trkpt>
      <trkpt lat="42.618397" lon="0.477303">
        <ele>1709.000000</ele>
        <time>2021-09-04T09:27:24Z</time>
      </trkpt>
      <trkpt lat="42.618400" lon="0.477301">
        <ele>1709.000000</ele>
        <time>2021-09-04T09:27:25Z</time>
      </trkpt>
      <trkpt lat="42.618403" lon="0.477301">
        <ele>1709.000000</ele>
        <time>2021-09-04T09:27:26Z</time>
      </trkpt>
      <trkpt lat="42.618410" lon="0.477303">
        <ele>1709.000000</ele>
        <time>2021-09-04T09:27:27Z</time>
      </trkpt>
      <trkpt lat="42.618418" lon="0.477307">
        <ele>1709.000000</ele>
        <time>2021-09-04T09:27:28Z</time>
      </trkpt>
      <trkpt lat="42.618428" lon="0.477308">
        <ele>1710.000000</ele>
        <time>2021-09-04T09:27:29Z</time>
      </trkpt>
      <trkpt lat="42.618437" lon="0.477310">
        <ele>1710.000000</ele>
        <time>2021-09-04T09:27:30Z</time>
      </trkpt>
      <trkpt lat="42.618443" lon="0.477309">
        <ele>1710.000000</ele>
        <time>2021-09-04T09:27:31Z</time>
      </trkpt>
      <trkpt lat="42.618455" lon="0.477308">
        <ele>1710.000000</ele>
        <time>2021-09-04T09:27:32Z</time>
      </trkpt>
      <trkpt lat="42.618463" lon="0.477304">
        <ele>1710.000000</ele>
        <time>2021-09-04T09:27:33Z</time>
      </trkpt>
      <trkpt lat="42.618473" lon="0.477299">
        <ele>1710.000000</ele>
        <time>2021-09-04T09:27:34Z</time>
      </trkpt>
      <trkpt lat="42.618482" lon="0.477295">
        <ele>1710.000000</ele>
        <time>2021-09-04T09:27:35Z</time>
      </trkpt>
      <trkpt lat="42.618492" lon="0.477289">
        <ele>1710.000000</ele>
        <time>2021-09-04T09:27:36Z</time>
      </trkpt>
      <trkpt lat="42.618502" lon="0.477281">
        <ele>1711.000000</ele>
        <time>2021-09-04T09:27:37Z</time>
      </trkpt>
      <trkpt lat="42.618508" lon="0.477274">
        <ele>1711.000000</ele>
        <time>2021-09-04T09:27:38Z</time>
      </trkpt>
      <trkpt lat="42.618517" lon="0.477266">
        <ele>1711.000000</ele>
        <time>2021-09-04T09:27:39Z</time>
      </trkpt>
      <trkpt lat="42.618523" lon="0.477260">
        <ele>1711.000000</ele>
        <time>2021-09-04T09:27:40Z</time>
      </trkpt>
      <trkpt lat="42.618527" lon="0.477256">
        <ele>1711.000000</ele>
        <time>2021-09-04T09:27:41Z</time>
      </trkpt>
      <trkpt lat="42.618533" lon="0.477251">
        <ele>1711.000000</ele>
        <time>2021-09-04T09:27:42Z</time>
      </trkpt>
      <trkpt lat="42.618542" lon="0.477246">
        <ele>1711.000000</ele>
        <time>2021-09-04T09:27:43Z</time>
      </trkpt>
      <trkpt lat="42.618547" lon="0.477244">
        <ele>1711.000000</ele>
        <time>2021-09-04T09:27:44Z</time>
      </trkpt>
      <trkpt lat="42.618557" lon="0.477239">
        <ele>1711.000000</ele>
        <time>2021-09-04T09:27:45Z</time>
      </trkpt>
      <trkpt lat="42.618565" lon="0.477236">
        <ele>1712.000000</ele>
        <time>2021-09-04T09:27:46Z</time>
      </trkpt>
      <trkpt lat="42.618572" lon="0.477234">
        <ele>1712.000000</ele>
        <time>2021-09-04T09:27:47Z</time>
      </trkpt>
      <trkpt lat="42.618580" lon="0.477231">
        <ele>1712.000000</ele>
        <time>2021-09-04T09:27:48Z</time>
      </trkpt>
      <trkpt lat="42.618590" lon="0.477228">
        <ele>1712.000000</ele>
        <time>2021-09-04T09:27:49Z</time>
      </trkpt>
      <trkpt lat="42.618595" lon="0.477227">
        <ele>1712.000000</ele>
        <time>2021-09-04T09:27:50Z</time>
      </trkpt>
      <trkpt lat="42.618600" lon="0.477225">
        <ele>1712.000000</ele>
        <time>2021-09-04T09:27:51Z</time>
      </trkpt>
      <trkpt lat="42.618612" lon="0.477220">
        <ele>1712.000000</ele>
        <time>2021-09-04T09:27:52Z</time>
      </trkpt>
      <trkpt lat="42.618623" lon="0.477216">
        <ele>1712.000000</ele>
        <time>2021-09-04T09:27:53Z</time>
      </trkpt>
      <trkpt lat="42.618627" lon="0.477215">
        <ele>1712.000000</ele>
        <time>2021-09-04T09:27:54Z</time>
      </trkpt>
      <trkpt lat="42.618632" lon="0.477213">
        <ele>1712.000000</ele>
        <time>2021-09-04T09:27:55Z</time>
      </trkpt>
      <trkpt lat="42.618642" lon="0.477203">
        <ele>1712.000000</ele>
        <time>2021-09-04T09:27:56Z</time>
      </trkpt>
      <trkpt lat="42.618652" lon="0.477195">
        <ele>1713.000000</ele>
        <time>2021-09-04T09:27:57Z</time>
      </trkpt>
      <trkpt lat="42.618658" lon="0.477183">
        <ele>1713.000000</ele>
        <time>2021-09-04T09:27:58Z</time>
      </trkpt>
      <trkpt lat="42.618668" lon="0.477170">
        <ele>1713.000000</ele>
        <time>2021-09-04T09:27:59Z</time>
      </trkpt>
      <trkpt lat="42.618673" lon="0.477164">
        <ele>1713.000000</ele>
        <time>2021-09-04T09:28:00Z</time>
      </trkpt>
      <trkpt lat="42.618677" lon="0.477163">
        <ele>1713.000000</ele>
        <time>2021-09-04T09:28:01Z</time>
      </trkpt>
      <trkpt lat="42.618670" lon="0.477158">
        <ele>1714.000000</ele>
        <time>2021-09-04T09:28:03Z</time>
      </trkpt>
      <trkpt lat="42.618667" lon="0.477155">
        <ele>1714.000000</ele>
        <time>2021-09-04T09:28:04Z</time>
      </trkpt>
      <trkpt lat="42.618665" lon="0.477152">
        <ele>1714.000000</ele>
        <time>2021-09-04T09:28:05Z</time>
      </trkpt>
      <trkpt lat="42.618667" lon="0.477153">
        <ele>1714.000000</ele>
        <time>2021-09-04T09:28:06Z</time>
      </trkpt>
      <trkpt lat="42.618668" lon="0.477153">
        <ele>1714.000000</ele>
        <time>2021-09-04T09:28:07Z</time>
      </trkpt>
      <trkpt lat="42.618671" lon="0.477153">
        <ele>1714.000000</ele>
        <time>2021-09-04T09:28:09Z</time>
      </trkpt>
      <trkpt lat="42.618673" lon="0.477148">
        <ele>1714.000000</ele>
        <time>2021-09-04T09:28:09Z</time>
      </trkpt>
      <trkpt lat="42.618679" lon="0.477145">
        <ele>1714.000000</ele>
        <time>2021-09-04T09:28:10Z</time>
      </trkpt>
      <trkpt lat="42.618685" lon="0.477143">
        <ele>1714.000000</ele>
        <time>2021-09-04T09:28:11Z</time>
      </trkpt>
      <trkpt lat="42.618695" lon="0.477143">
        <ele>1714.000000</ele>
        <time>2021-09-04T09:28:12Z</time>
      </trkpt>
      <trkpt lat="42.618700" lon="0.477137">
        <ele>1714.000000</ele>
        <time>2021-09-04T09:28:13Z</time>
      </trkpt>
      <trkpt lat="42.618707" lon="0.477128">
        <ele>1715.000000</ele>
        <time>2021-09-04T09:28:14Z</time>
      </trkpt>
      <trkpt lat="42.618712" lon="0.477117">
        <ele>1715.000000</ele>
        <time>2021-09-04T09:28:15Z</time>
      </trkpt>
      <trkpt lat="42.618715" lon="0.477110">
        <ele>1715.000000</ele>
        <time>2021-09-04T09:28:16Z</time>
      </trkpt>
      <trkpt lat="42.618721" lon="0.477100">
        <ele>1715.000000</ele>
        <time>2021-09-04T09:28:17Z</time>
      </trkpt>
      <trkpt lat="42.618728" lon="0.477090">
        <ele>1715.000000</ele>
        <time>2021-09-04T09:28:18Z</time>
      </trkpt>
      <trkpt lat="42.618735" lon="0.477083">
        <ele>1715.000000</ele>
        <time>2021-09-04T09:28:19Z</time>
      </trkpt>
      <trkpt lat="42.618750" lon="0.477088">
        <ele>1715.000000</ele>
        <time>2021-09-04T09:28:20Z</time>
      </trkpt>
      <trkpt lat="42.618762" lon="0.477085">
        <ele>1715.000000</ele>
        <time>2021-09-04T09:28:21Z</time>
      </trkpt>
      <trkpt lat="42.618772" lon="0.477082">
        <ele>1716.000000</ele>
        <time>2021-09-04T09:28:22Z</time>
      </trkpt>
      <trkpt lat="42.618777" lon="0.477077">
        <ele>1716.000000</ele>
        <time>2021-09-04T09:28:23Z</time>
      </trkpt>
      <trkpt lat="42.618780" lon="0.477067">
        <ele>1716.000000</ele>
        <time>2021-09-04T09:28:24Z</time>
      </trkpt>
      <trkpt lat="42.618785" lon="0.477067">
        <ele>1716.000000</ele>
        <time>2021-09-04T09:28:25Z</time>
      </trkpt>
      <trkpt lat="42.618795" lon="0.477070">
        <ele>1716.000000</ele>
        <time>2021-09-04T09:28:26Z</time>
      </trkpt>
      <trkpt lat="42.618802" lon="0.477069">
        <ele>1716.000000</ele>
        <time>2021-09-04T09:28:27Z</time>
      </trkpt>
      <trkpt lat="42.618813" lon="0.477057">
        <ele>1717.000000</ele>
        <time>2021-09-04T09:28:28Z</time>
      </trkpt>
      <trkpt lat="42.618818" lon="0.477049">
        <ele>1717.000000</ele>
        <time>2021-09-04T09:28:29Z</time>
      </trkpt>
      <trkpt lat="42.618825" lon="0.477041">
        <ele>1717.000000</ele>
        <time>2021-09-04T09:28:30Z</time>
      </trkpt>
      <trkpt lat="42.618830" lon="0.477038">
        <ele>1717.000000</ele>
        <time>2021-09-04T09:28:31Z</time>
      </trkpt>
      <trkpt lat="42.618837" lon="0.477036">
        <ele>1717.000000</ele>
        <time>2021-09-04T09:28:32Z</time>
      </trkpt>
      <trkpt lat="42.618840" lon="0.477045">
        <ele>1717.000000</ele>
        <time>2021-09-04T09:28:34Z</time>
      </trkpt>
      <trkpt lat="42.618847" lon="0.477043">
        <ele>1718.000000</ele>
        <time>2021-09-04T09:28:35Z</time>
      </trkpt>
      <trkpt lat="42.618852" lon="0.477042">
        <ele>1718.000000</ele>
        <time>2021-09-04T09:28:36Z</time>
      </trkpt>
      <trkpt lat="42.618855" lon="0.477038">
        <ele>1718.000000</ele>
        <time>2021-09-04T09:28:37Z</time>
      </trkpt>
      <trkpt lat="42.618858" lon="0.477038">
        <ele>1718.000000</ele>
        <time>2021-09-04T09:28:38Z</time>
      </trkpt>
      <trkpt lat="42.618863" lon="0.477037">
        <ele>1718.000000</ele>
        <time>2021-09-04T09:28:39Z</time>
      </trkpt>
      <trkpt lat="42.618860" lon="0.477039">
        <ele>1718.000000</ele>
        <time>2021-09-04T09:28:40Z</time>
      </trkpt>
      <trkpt lat="42.618862" lon="0.477038">
        <ele>1718.000000</ele>
        <time>2021-09-04T09:28:41Z</time>
      </trkpt>
      <trkpt lat="42.618862" lon="0.477032">
        <ele>1718.000000</ele>
        <time>2021-09-04T09:28:42Z</time>
      </trkpt>
      <trkpt lat="42.618863" lon="0.477027">
        <ele>1718.000000</ele>
        <time>2021-09-04T09:28:43Z</time>
      </trkpt>
      <trkpt lat="42.618868" lon="0.477020">
        <ele>1718.000000</ele>
        <time>2021-09-04T09:28:44Z</time>
      </trkpt>
      <trkpt lat="42.618872" lon="0.477013">
        <ele>1718.000000</ele>
        <time>2021-09-04T09:28:45Z</time>
      </trkpt>
      <trkpt lat="42.618877" lon="0.477008">
        <ele>1718.000000</ele>
        <time>2021-09-04T09:28:46Z</time>
      </trkpt>
      <trkpt lat="42.618880" lon="0.477007">
        <ele>1718.000000</ele>
        <time>2021-09-04T09:28:47Z</time>
      </trkpt>
      <trkpt lat="42.618883" lon="0.477003">
        <ele>1718.000000</ele>
        <time>2021-09-04T09:28:48Z</time>
      </trkpt>
      <trkpt lat="42.618890" lon="0.476997">
        <ele>1718.000000</ele>
        <time>2021-09-04T09:28:49Z</time>
      </trkpt>
      <trkpt lat="42.618893" lon="0.476991">
        <ele>1718.000000</ele>
        <time>2021-09-04T09:28:50Z</time>
      </trkpt>
      <trkpt lat="42.618898" lon="0.476984">
        <ele>1718.000000</ele>
        <time>2021-09-04T09:28:51Z</time>
      </trkpt>
      <trkpt lat="42.618902" lon="0.476981">
        <ele>1718.000000</ele>
        <time>2021-09-04T09:28:52Z</time>
      </trkpt>
      <trkpt lat="42.618912" lon="0.476977">
        <ele>1718.000000</ele>
        <time>2021-09-04T09:28:53Z</time>
      </trkpt>
      <trkpt lat="42.618913" lon="0.476976">
        <ele>1718.000000</ele>
        <time>2021-09-04T09:28:54Z</time>
      </trkpt>
      <trkpt lat="42.618917" lon="0.476977">
        <ele>1719.000000</ele>
        <time>2021-09-04T09:28:55Z</time>
      </trkpt>
      <trkpt lat="42.618927" lon="0.476977">
        <ele>1719.000000</ele>
        <time>2021-09-04T09:28:56Z</time>
      </trkpt>
      <trkpt lat="42.618933" lon="0.476987">
        <ele>1719.000000</ele>
        <time>2021-09-04T09:28:57Z</time>
      </trkpt>
      <trkpt lat="42.618938" lon="0.476985">
        <ele>1719.000000</ele>
        <time>2021-09-04T09:28:58Z</time>
      </trkpt>
      <trkpt lat="42.618940" lon="0.476982">
        <ele>1719.000000</ele>
        <time>2021-09-04T09:28:59Z</time>
      </trkpt>
      <trkpt lat="42.618940" lon="0.476985">
        <ele>1720.000000</ele>
        <time>2021-09-04T09:29:01Z</time>
      </trkpt>
      <trkpt lat="42.618933" lon="0.476992">
        <ele>1720.000000</ele>
        <time>2021-09-04T09:29:02Z</time>
      </trkpt>
      <trkpt lat="42.618930" lon="0.476998">
        <ele>1720.000000</ele>
        <time>2021-09-04T09:29:03Z</time>
      </trkpt>
      <trkpt lat="42.618928" lon="0.477002">
        <ele>1720.000000</ele>
        <time>2021-09-04T09:29:04Z</time>
      </trkpt>
      <trkpt lat="42.618932" lon="0.476999">
        <ele>1721.000000</ele>
        <time>2021-09-04T09:29:05Z</time>
      </trkpt>
      <trkpt lat="42.618935" lon="0.476995">
        <ele>1721.000000</ele>
        <time>2021-09-04T09:29:06Z</time>
      </trkpt>
      <trkpt lat="42.618940" lon="0.476991">
        <ele>1721.000000</ele>
        <time>2021-09-04T09:29:07Z</time>
      </trkpt>
      <trkpt lat="42.618943" lon="0.476992">
        <ele>1721.000000</ele>
        <time>2021-09-04T09:29:08Z</time>
      </trkpt>
      <trkpt lat="42.618948" lon="0.476992">
        <ele>1721.000000</ele>
        <time>2021-09-04T09:29:09Z</time>
      </trkpt>
      <trkpt lat="42.618952" lon="0.476985">
        <ele>1721.000000</ele>
        <time>2021-09-04T09:29:10Z</time>
      </trkpt>
      <trkpt lat="42.618958" lon="0.476978">
        <ele>1721.000000</ele>
        <time>2021-09-04T09:29:11Z</time>
      </trkpt>
      <trkpt lat="42.618967" lon="0.476977">
        <ele>1722.000000</ele>
        <time>2021-09-04T09:29:12Z</time>
      </trkpt>
      <trkpt lat="42.618973" lon="0.476973">
        <ele>1722.000000</ele>
        <time>2021-09-04T09:29:13Z</time>
      </trkpt>
      <trkpt lat="42.618980" lon="0.476973">
        <ele>1722.000000</ele>
        <time>2021-09-04T09:29:14Z</time>
      </trkpt>
      <trkpt lat="42.618988" lon="0.476970">
        <ele>1722.000000</ele>
        <time>2021-09-04T09:29:15Z</time>
      </trkpt>
      <trkpt lat="42.618997" lon="0.476967">
        <ele>1722.000000</ele>
        <time>2021-09-04T09:29:16Z</time>
      </trkpt>
      <trkpt lat="42.619003" lon="0.476966">
        <ele>1722.000000</ele>
        <time>2021-09-04T09:29:17Z</time>
      </trkpt>
      <trkpt lat="42.619010" lon="0.476964">
        <ele>1722.000000</ele>
        <time>2021-09-04T09:29:18Z</time>
      </trkpt>
      <trkpt lat="42.619013" lon="0.476962">
        <ele>1723.000000</ele>
        <time>2021-09-04T09:29:19Z</time>
      </trkpt>
      <trkpt lat="42.619008" lon="0.476963">
        <ele>1723.000000</ele>
        <time>2021-09-04T09:29:20Z</time>
      </trkpt>
      <trkpt lat="42.619008" lon="0.476961">
        <ele>1723.000000</ele>
        <time>2021-09-04T09:29:21Z</time>
      </trkpt>
      <trkpt lat="42.619012" lon="0.476959">
        <ele>1723.000000</ele>
        <time>2021-09-04T09:29:22Z</time>
      </trkpt>
      <trkpt lat="42.619017" lon="0.476956">
        <ele>1723.000000</ele>
        <time>2021-09-04T09:29:23Z</time>
      </trkpt>
      <trkpt lat="42.619025" lon="0.476952">
        <ele>1723.000000</ele>
        <time>2021-09-04T09:29:24Z</time>
      </trkpt>
      <trkpt lat="42.619030" lon="0.476950">
        <ele>1723.000000</ele>
        <time>2021-09-04T09:29:25Z</time>
      </trkpt>
      <trkpt lat="42.619035" lon="0.476949">
        <ele>1723.000000</ele>
        <time>2021-09-04T09:29:26Z</time>
      </trkpt>
      <trkpt lat="42.619038" lon="0.476947">
        <ele>1724.000000</ele>
        <time>2021-09-04T09:29:27Z</time>
      </trkpt>
      <trkpt lat="42.619042" lon="0.476946">
        <ele>1724.000000</ele>
        <time>2021-09-04T09:29:28Z</time>
      </trkpt>
      <trkpt lat="42.619042" lon="0.476946">
        <ele>1724.000000</ele>
        <time>2021-09-04T09:29:31Z</time>
      </trkpt>
      <trkpt lat="42.619038" lon="0.476948">
        <ele>1724.000000</ele>
        <time>2021-09-04T09:29:32Z</time>
      </trkpt>
      <trkpt lat="42.619035" lon="0.476948">
        <ele>1724.000000</ele>
        <time>2021-09-04T09:29:33Z</time>
      </trkpt>
      <trkpt lat="42.619035" lon="0.476948">
        <ele>1724.000000</ele>
        <time>2021-09-04T09:29:34Z</time>
      </trkpt>
      <trkpt lat="42.619035" lon="0.476933">
        <ele>1724.000000</ele>
        <time>2021-09-04T09:29:35Z</time>
      </trkpt>
      <trkpt lat="42.619030" lon="0.476927">
        <ele>1724.000000</ele>
        <time>2021-09-04T09:29:36Z</time>
      </trkpt>
      <trkpt lat="42.619027" lon="0.476920">
        <ele>1724.000000</ele>
        <time>2021-09-04T09:29:37Z</time>
      </trkpt>
      <trkpt lat="42.619020" lon="0.476912">
        <ele>1724.000000</ele>
        <time>2021-09-04T09:29:38Z</time>
      </trkpt>
      <trkpt lat="42.619013" lon="0.476905">
        <ele>1724.000000</ele>
        <time>2021-09-04T09:29:39Z</time>
      </trkpt>
      <trkpt lat="42.619005" lon="0.476903">
        <ele>1724.000000</ele>
        <time>2021-09-04T09:29:40Z</time>
      </trkpt>
      <trkpt lat="42.619005" lon="0.476908">
        <ele>1724.000000</ele>
        <time>2021-09-04T09:29:41Z</time>
      </trkpt>
      <trkpt lat="42.618997" lon="0.476897">
        <ele>1724.000000</ele>
        <time>2021-09-04T09:29:42Z</time>
      </trkpt>
      <trkpt lat="42.618995" lon="0.476896">
        <ele>1724.000000</ele>
        <time>2021-09-04T09:29:44Z</time>
      </trkpt>
      <trkpt lat="42.618997" lon="0.476898">
        <ele>1724.000000</ele>
        <time>2021-09-04T09:29:45Z</time>
      </trkpt>
      <trkpt lat="42.618990" lon="0.476894">
        <ele>1724.000000</ele>
        <time>2021-09-04T09:29:46Z</time>
      </trkpt>
      <trkpt lat="42.618987" lon="0.476893">
        <ele>1724.000000</ele>
        <time>2021-09-04T09:29:47Z</time>
      </trkpt>
      <trkpt lat="42.618990" lon="0.476893">
        <ele>1724.000000</ele>
        <time>2021-09-04T09:29:48Z</time>
      </trkpt>
      <trkpt lat="42.618990" lon="0.476890">
        <ele>1724.000000</ele>
        <time>2021-09-04T09:29:49Z</time>
      </trkpt>
      <trkpt lat="42.619000" lon="0.476896">
        <ele>1724.000000</ele>
        <time>2021-09-04T09:29:50Z</time>
      </trkpt>
      <trkpt lat="42.619008" lon="0.476887">
        <ele>1724.000000</ele>
        <time>2021-09-04T09:29:51Z</time>
      </trkpt>
      <trkpt lat="42.619013" lon="0.476878">
        <ele>1724.000000</ele>
        <time>2021-09-04T09:29:52Z</time>
      </trkpt>
      <trkpt lat="42.619017" lon="0.476874">
        <ele>1724.000000</ele>
        <time>2021-09-04T09:29:53Z</time>
      </trkpt>
      <trkpt lat="42.619020" lon="0.476873">
        <ele>1725.000000</ele>
        <time>2021-09-04T09:29:54Z</time>
      </trkpt>
      <trkpt lat="42.619025" lon="0.476875">
        <ele>1725.000000</ele>
        <time>2021-09-04T09:29:55Z</time>
      </trkpt>
      <trkpt lat="42.619032" lon="0.476875">
        <ele>1725.000000</ele>
        <time>2021-09-04T09:29:56Z</time>
      </trkpt>
      <trkpt lat="42.619035" lon="0.476874">
        <ele>1725.000000</ele>
        <time>2021-09-04T09:29:57Z</time>
      </trkpt>
      <trkpt lat="42.619043" lon="0.476878">
        <ele>1725.000000</ele>
        <time>2021-09-04T09:29:58Z</time>
      </trkpt>
      <trkpt lat="42.619052" lon="0.476880">
        <ele>1725.000000</ele>
        <time>2021-09-04T09:29:59Z</time>
      </trkpt>
      <trkpt lat="42.619063" lon="0.476880">
        <ele>1725.000000</ele>
        <time>2021-09-04T09:30:00Z</time>
      </trkpt>
      <trkpt lat="42.619070" lon="0.476882">
        <ele>1726.000000</ele>
        <time>2021-09-04T09:30:01Z</time>
      </trkpt>
      <trkpt lat="42.619075" lon="0.476883">
        <ele>1726.000000</ele>
        <time>2021-09-04T09:30:02Z</time>
      </trkpt>
      <trkpt lat="42.619078" lon="0.476885">
        <ele>1726.000000</ele>
        <time>2021-09-04T09:30:03Z</time>
      </trkpt>
      <trkpt lat="42.619080" lon="0.476885">
        <ele>1726.000000</ele>
        <time>2021-09-04T09:30:05Z</time>
      </trkpt>
      <trkpt lat="42.619082" lon="0.476884">
        <ele>1726.000000</ele>
        <time>2021-09-04T09:30:06Z</time>
      </trkpt>
      <trkpt lat="42.619078" lon="0.476881">
        <ele>1726.000000</ele>
        <time>2021-09-04T09:30:07Z</time>
      </trkpt>
      <trkpt lat="42.619082" lon="0.476878">
        <ele>1727.000000</ele>
        <time>2021-09-04T09:30:08Z</time>
      </trkpt>
      <trkpt lat="42.619087" lon="0.476873">
        <ele>1727.000000</ele>
        <time>2021-09-04T09:30:09Z</time>
      </trkpt>
      <trkpt lat="42.619087" lon="0.476869">
        <ele>1727.000000</ele>
        <time>2021-09-04T09:30:10Z</time>
      </trkpt>
      <trkpt lat="42.619097" lon="0.476859">
        <ele>1727.000000</ele>
        <time>2021-09-04T09:30:11Z</time>
      </trkpt>
      <trkpt lat="42.619105" lon="0.476853">
        <ele>1727.000000</ele>
        <time>2021-09-04T09:30:12Z</time>
      </trkpt>
      <trkpt lat="42.619115" lon="0.476850">
        <ele>1727.000000</ele>
        <time>2021-09-04T09:30:13Z</time>
      </trkpt>
      <trkpt lat="42.619127" lon="0.476847">
        <ele>1727.000000</ele>
        <time>2021-09-04T09:30:14Z</time>
      </trkpt>
      <trkpt lat="42.619142" lon="0.476846">
        <ele>1728.000000</ele>
        <time>2021-09-04T09:30:15Z</time>
      </trkpt>
      <trkpt lat="42.619152" lon="0.476846">
        <ele>1728.000000</ele>
        <time>2021-09-04T09:30:16Z</time>
      </trkpt>
      <trkpt lat="42.619160" lon="0.476847">
        <ele>1728.000000</ele>
        <time>2021-09-04T09:30:17Z</time>
      </trkpt>
      <trkpt lat="42.619165" lon="0.476841">
        <ele>1728.000000</ele>
        <time>2021-09-04T09:30:18Z</time>
      </trkpt>
      <trkpt lat="42.619168" lon="0.476836">
        <ele>1728.000000</ele>
        <time>2021-09-04T09:30:19Z</time>
      </trkpt>
      <trkpt lat="42.619177" lon="0.476827">
        <ele>1729.000000</ele>
        <time>2021-09-04T09:30:20Z</time>
      </trkpt>
      <trkpt lat="42.619178" lon="0.476823">
        <ele>1729.000000</ele>
        <time>2021-09-04T09:30:21Z</time>
      </trkpt>
      <trkpt lat="42.619180" lon="0.476827">
        <ele>1729.000000</ele>
        <time>2021-09-04T09:30:22Z</time>
      </trkpt>
      <trkpt lat="42.619182" lon="0.476829">
        <ele>1729.000000</ele>
        <time>2021-09-04T09:30:23Z</time>
      </trkpt>
      <trkpt lat="42.619177" lon="0.476827">
        <ele>1729.000000</ele>
        <time>2021-09-04T09:30:24Z</time>
      </trkpt>
      <trkpt lat="42.619178" lon="0.476828">
        <ele>1730.000000</ele>
        <time>2021-09-04T09:30:25Z</time>
      </trkpt>
      <trkpt lat="42.619182" lon="0.476829">
        <ele>1730.000000</ele>
        <time>2021-09-04T09:30:26Z</time>
      </trkpt>
      <trkpt lat="42.619187" lon="0.476828">
        <ele>1730.000000</ele>
        <time>2021-09-04T09:30:28Z</time>
      </trkpt>
      <trkpt lat="42.619192" lon="0.476827">
        <ele>1730.000000</ele>
        <time>2021-09-04T09:30:29Z</time>
      </trkpt>
      <trkpt lat="42.619197" lon="0.476825">
        <ele>1730.000000</ele>
        <time>2021-09-04T09:30:30Z</time>
      </trkpt>
      <trkpt lat="42.619205" lon="0.476822">
        <ele>1730.000000</ele>
        <time>2021-09-04T09:30:31Z</time>
      </trkpt>
      <trkpt lat="42.619212" lon="0.476818">
        <ele>1730.000000</ele>
        <time>2021-09-04T09:30:32Z</time>
      </trkpt>
      <trkpt lat="42.619218" lon="0.476816">
        <ele>1730.000000</ele>
        <time>2021-09-04T09:30:33Z</time>
      </trkpt>
      <trkpt lat="42.619225" lon="0.476816">
        <ele>1730.000000</ele>
        <time>2021-09-04T09:30:34Z</time>
      </trkpt>
      <trkpt lat="42.619235" lon="0.476815">
        <ele>1730.000000</ele>
        <time>2021-09-04T09:30:35Z</time>
      </trkpt>
      <trkpt lat="42.619242" lon="0.476814">
        <ele>1730.000000</ele>
        <time>2021-09-04T09:30:36Z</time>
      </trkpt>
      <trkpt lat="42.619245" lon="0.476812">
        <ele>1730.000000</ele>
        <time>2021-09-04T09:30:37Z</time>
      </trkpt>
      <trkpt lat="42.619247" lon="0.476811">
        <ele>1730.000000</ele>
        <time>2021-09-04T09:30:38Z</time>
      </trkpt>
      <trkpt lat="42.619248" lon="0.476802">
        <ele>1730.000000</ele>
        <time>2021-09-04T09:30:39Z</time>
      </trkpt>
      <trkpt lat="42.619247" lon="0.476797">
        <ele>1730.000000</ele>
        <time>2021-09-04T09:30:40Z</time>
      </trkpt>
      <trkpt lat="42.619240" lon="0.476790">
        <ele>1730.000000</ele>
        <time>2021-09-04T09:30:41Z</time>
      </trkpt>
      <trkpt lat="42.619233" lon="0.476782">
        <ele>1730.000000</ele>
        <time>2021-09-04T09:30:42Z</time>
      </trkpt>
      <trkpt lat="42.619230" lon="0.476782">
        <ele>1730.000000</ele>
        <time>2021-09-04T09:30:43Z</time>
      </trkpt>
      <trkpt lat="42.619227" lon="0.476778">
        <ele>1730.000000</ele>
        <time>2021-09-04T09:30:44Z</time>
      </trkpt>
      <trkpt lat="42.619225" lon="0.476777">
        <ele>1730.000000</ele>
        <time>2021-09-04T09:30:45Z</time>
      </trkpt>
      <trkpt lat="42.619222" lon="0.476778">
        <ele>1730.000000</ele>
        <time>2021-09-04T09:30:46Z</time>
      </trkpt>
      <trkpt lat="42.619215" lon="0.476780">
        <ele>1730.000000</ele>
        <time>2021-09-04T09:30:47Z</time>
      </trkpt>
      <trkpt lat="42.619212" lon="0.476782">
        <ele>1730.000000</ele>
        <time>2021-09-04T09:30:48Z</time>
      </trkpt>
      <trkpt lat="42.619208" lon="0.476787">
        <ele>1730.000000</ele>
        <time>2021-09-04T09:30:49Z</time>
      </trkpt>
      <trkpt lat="42.619200" lon="0.476790">
        <ele>1730.000000</ele>
        <time>2021-09-04T09:30:50Z</time>
      </trkpt>
      <trkpt lat="42.619187" lon="0.476790">
        <ele>1730.000000</ele>
        <time>2021-09-04T09:30:51Z</time>
      </trkpt>
      <trkpt lat="42.619180" lon="0.476788">
        <ele>1729.000000</ele>
        <time>2021-09-04T09:30:52Z</time>
      </trkpt>
      <trkpt lat="42.619173" lon="0.476784">
        <ele>1729.000000</ele>
        <time>2021-09-04T09:30:53Z</time>
      </trkpt>
      <trkpt lat="42.619167" lon="0.476778">
        <ele>1729.000000</ele>
        <time>2021-09-04T09:30:54Z</time>
      </trkpt>
      <trkpt lat="42.619162" lon="0.476771">
        <ele>1729.000000</ele>
        <time>2021-09-04T09:30:55Z</time>
      </trkpt>
      <trkpt lat="42.619157" lon="0.476764">
        <ele>1729.000000</ele>
        <time>2021-09-04T09:30:56Z</time>
      </trkpt>
      <trkpt lat="42.619153" lon="0.476753">
        <ele>1729.000000</ele>
        <time>2021-09-04T09:30:57Z</time>
      </trkpt>
      <trkpt lat="42.619150" lon="0.476747">
        <ele>1729.000000</ele>
        <time>2021-09-04T09:30:58Z</time>
      </trkpt>
      <trkpt lat="42.619152" lon="0.476745">
        <ele>1729.000000</ele>
        <time>2021-09-04T09:30:59Z</time>
      </trkpt>
      <trkpt lat="42.619153" lon="0.476740">
        <ele>1729.000000</ele>
        <time>2021-09-04T09:31:00Z</time>
      </trkpt>
      <trkpt lat="42.619155" lon="0.476733">
        <ele>1729.000000</ele>
        <time>2021-09-04T09:31:01Z</time>
      </trkpt>
      <trkpt lat="42.619160" lon="0.476732">
        <ele>1730.000000</ele>
        <time>2021-09-04T09:31:02Z</time>
      </trkpt>
      <trkpt lat="42.619163" lon="0.476727">
        <ele>1730.000000</ele>
        <time>2021-09-04T09:31:03Z</time>
      </trkpt>
      <trkpt lat="42.619165" lon="0.476722">
        <ele>1730.000000</ele>
        <time>2021-09-04T09:31:04Z</time>
      </trkpt>
      <trkpt lat="42.619167" lon="0.476718">
        <ele>1731.000000</ele>
        <time>2021-09-04T09:31:05Z</time>
      </trkpt>
      <trkpt lat="42.619169" lon="0.476718">
        <ele>1731.000000</ele>
        <time>2021-09-04T09:31:07Z</time>
      </trkpt>
      <trkpt lat="42.619173" lon="0.476715">
        <ele>1732.000000</ele>
        <time>2021-09-04T09:31:08Z</time>
      </trkpt>
      <trkpt lat="42.619182" lon="0.476715">
        <ele>1732.000000</ele>
        <time>2021-09-04T09:31:09Z</time>
      </trkpt>
      <trkpt lat="42.619185" lon="0.476717">
        <ele>1732.000000</ele>
        <time>2021-09-04T09:31:11Z</time>
      </trkpt>
      <trkpt lat="42.619193" lon="0.476713">
        <ele>1733.000000</ele>
        <time>2021-09-04T09:31:11Z</time>
      </trkpt>
      <trkpt lat="42.619200" lon="0.476713">
        <ele>1733.000000</ele>
        <time>2021-09-04T09:31:12Z</time>
      </trkpt>
      <trkpt lat="42.619203" lon="0.476710">
        <ele>1733.000000</ele>
        <time>2021-09-04T09:31:13Z</time>
      </trkpt>
      <trkpt lat="42.619208" lon="0.476711">
        <ele>1734.000000</ele>
        <time>2021-09-04T09:31:14Z</time>
      </trkpt>
      <trkpt lat="42.619210" lon="0.476710">
        <ele>1734.000000</ele>
        <time>2021-09-04T09:31:15Z</time>
      </trkpt>
      <trkpt lat="42.619212" lon="0.476707">
        <ele>1734.000000</ele>
        <time>2021-09-04T09:31:16Z</time>
      </trkpt>
      <trkpt lat="42.619212" lon="0.476703">
        <ele>1734.000000</ele>
        <time>2021-09-04T09:31:18Z</time>
      </trkpt>
      <trkpt lat="42.619217" lon="0.476697">
        <ele>1735.000000</ele>
        <time>2021-09-04T09:31:20Z</time>
      </trkpt>
      <trkpt lat="42.619223" lon="0.476695">
        <ele>1735.000000</ele>
        <time>2021-09-04T09:31:21Z</time>
      </trkpt>
      <trkpt lat="42.619232" lon="0.476700">
        <ele>1735.000000</ele>
        <time>2021-09-04T09:31:22Z</time>
      </trkpt>
      <trkpt lat="42.619237" lon="0.476703">
        <ele>1736.000000</ele>
        <time>2021-09-04T09:31:23Z</time>
      </trkpt>
      <trkpt lat="42.619243" lon="0.476710">
        <ele>1736.000000</ele>
        <time>2021-09-04T09:31:24Z</time>
      </trkpt>
      <trkpt lat="42.619247" lon="0.476713">
        <ele>1736.000000</ele>
        <time>2021-09-04T09:31:24Z</time>
      </trkpt>
      <trkpt lat="42.619255" lon="0.476717">
        <ele>1736.000000</ele>
        <time>2021-09-04T09:31:25Z</time>
      </trkpt>
      <trkpt lat="42.619263" lon="0.476718">
        <ele>1737.000000</ele>
        <time>2021-09-04T09:31:26Z</time>
      </trkpt>
      <trkpt lat="42.619267" lon="0.476717">
        <ele>1737.000000</ele>
        <time>2021-09-04T09:31:27Z</time>
      </trkpt>
      <trkpt lat="42.619272" lon="0.476717">
        <ele>1737.000000</ele>
        <time>2021-09-04T09:31:28Z</time>
      </trkpt>
      <trkpt lat="42.619280" lon="0.476716">
        <ele>1737.000000</ele>
        <time>2021-09-04T09:31:29Z</time>
      </trkpt>
      <trkpt lat="42.619287" lon="0.476712">
        <ele>1738.000000</ele>
        <time>2021-09-04T09:31:30Z</time>
      </trkpt>
      <trkpt lat="42.619293" lon="0.476712">
        <ele>1738.000000</ele>
        <time>2021-09-04T09:31:31Z</time>
      </trkpt>
      <trkpt lat="42.619302" lon="0.476713">
        <ele>1738.000000</ele>
        <time>2021-09-04T09:31:32Z</time>
      </trkpt>
      <trkpt lat="42.619307" lon="0.476712">
        <ele>1739.000000</ele>
        <time>2021-09-04T09:31:33Z</time>
      </trkpt>
      <trkpt lat="42.619313" lon="0.476710">
        <ele>1739.000000</ele>
        <time>2021-09-04T09:31:34Z</time>
      </trkpt>
      <trkpt lat="42.619320" lon="0.476711">
        <ele>1739.000000</ele>
        <time>2021-09-04T09:31:35Z</time>
      </trkpt>
      <trkpt lat="42.619327" lon="0.476713">
        <ele>1740.000000</ele>
        <time>2021-09-04T09:31:36Z</time>
      </trkpt>
      <trkpt lat="42.619330" lon="0.476713">
        <ele>1740.000000</ele>
        <time>2021-09-04T09:31:37Z</time>
      </trkpt>
      <trkpt lat="42.619333" lon="0.476712">
        <ele>1740.000000</ele>
        <time>2021-09-04T09:31:38Z</time>
      </trkpt>
      <trkpt lat="42.619337" lon="0.476712">
        <ele>1740.000000</ele>
        <time>2021-09-04T09:31:39Z</time>
      </trkpt>
      <trkpt lat="42.619340" lon="0.476711">
        <ele>1740.000000</ele>
        <time>2021-09-04T09:31:40Z</time>
      </trkpt>
      <trkpt lat="42.619343" lon="0.476711">
        <ele>1741.000000</ele>
        <time>2021-09-04T09:31:41Z</time>
      </trkpt>
      <trkpt lat="42.619342" lon="0.476711">
        <ele>1741.000000</ele>
        <time>2021-09-04T09:31:42Z</time>
      </trkpt>
      <trkpt lat="42.619345" lon="0.476710">
        <ele>1741.000000</ele>
        <time>2021-09-04T09:31:43Z</time>
      </trkpt>
      <trkpt lat="42.619343" lon="0.476709">
        <ele>1741.000000</ele>
        <time>2021-09-04T09:31:44Z</time>
      </trkpt>
      <trkpt lat="42.619347" lon="0.476707">
        <ele>1741.000000</ele>
        <time>2021-09-04T09:31:45Z</time>
      </trkpt>
      <trkpt lat="42.619358" lon="0.476703">
        <ele>1741.000000</ele>
        <time>2021-09-04T09:31:46Z</time>
      </trkpt>
      <trkpt lat="42.619367" lon="0.476699">
        <ele>1741.000000</ele>
        <time>2021-09-04T09:31:47Z</time>
      </trkpt>
      <trkpt lat="42.619372" lon="0.476697">
        <ele>1741.000000</ele>
        <time>2021-09-04T09:31:48Z</time>
      </trkpt>
      <trkpt lat="42.619382" lon="0.476694">
        <ele>1741.000000</ele>
        <time>2021-09-04T09:31:49Z</time>
      </trkpt>
      <trkpt lat="42.619390" lon="0.476693">
        <ele>1741.000000</ele>
        <time>2021-09-04T09:31:50Z</time>
      </trkpt>
      <trkpt lat="42.619397" lon="0.476693">
        <ele>1741.000000</ele>
        <time>2021-09-04T09:31:51Z</time>
      </trkpt>
      <trkpt lat="42.619400" lon="0.476703">
        <ele>1741.000000</ele>
        <time>2021-09-04T09:31:53Z</time>
      </trkpt>
      <trkpt lat="42.619402" lon="0.476696">
        <ele>1741.000000</ele>
        <time>2021-09-04T09:31:54Z</time>
      </trkpt>
      <trkpt lat="42.619400" lon="0.476698">
        <ele>1742.000000</ele>
        <time>2021-09-04T09:31:59Z</time>
      </trkpt>
      <trkpt lat="42.619405" lon="0.476698">
        <ele>1742.000000</ele>
        <time>2021-09-04T09:32:00Z</time>
      </trkpt>
      <trkpt lat="42.619407" lon="0.476695">
        <ele>1742.000000</ele>
        <time>2021-09-04T09:32:01Z</time>
      </trkpt>
      <trkpt lat="42.619412" lon="0.476689">
        <ele>1742.000000</ele>
        <time>2021-09-04T09:32:02Z</time>
      </trkpt>
      <trkpt lat="42.619417" lon="0.476685">
        <ele>1742.000000</ele>
        <time>2021-09-04T09:32:03Z</time>
      </trkpt>
      <trkpt lat="42.619423" lon="0.476680">
        <ele>1742.000000</ele>
        <time>2021-09-04T09:32:04Z</time>
      </trkpt>
      <trkpt lat="42.619430" lon="0.476678">
        <ele>1742.000000</ele>
        <time>2021-09-04T09:32:05Z</time>
      </trkpt>
      <trkpt lat="42.619435" lon="0.476675">
        <ele>1743.000000</ele>
        <time>2021-09-04T09:32:06Z</time>
      </trkpt>
      <trkpt lat="42.619442" lon="0.476671">
        <ele>1743.000000</ele>
        <time>2021-09-04T09:32:07Z</time>
      </trkpt>
      <trkpt lat="42.619452" lon="0.476667">
        <ele>1743.000000</ele>
        <time>2021-09-04T09:32:08Z</time>
      </trkpt>
      <trkpt lat="42.619458" lon="0.476663">
        <ele>1743.000000</ele>
        <time>2021-09-04T09:32:09Z</time>
      </trkpt>
      <trkpt lat="42.619465" lon="0.476668">
        <ele>1743.000000</ele>
        <time>2021-09-04T09:32:10Z</time>
      </trkpt>
      <trkpt lat="42.619468" lon="0.476670">
        <ele>1744.000000</ele>
        <time>2021-09-04T09:32:11Z</time>
      </trkpt>
      <trkpt lat="42.619470" lon="0.476670">
        <ele>1744.000000</ele>
        <time>2021-09-04T09:32:12Z</time>
      </trkpt>
      <trkpt lat="42.619473" lon="0.476668">
        <ele>1744.000000</ele>
        <time>2021-09-04T09:32:13Z</time>
      </trkpt>
      <trkpt lat="42.619477" lon="0.476667">
        <ele>1744.000000</ele>
        <time>2021-09-04T09:32:14Z</time>
      </trkpt>
      <trkpt lat="42.619482" lon="0.476666">
        <ele>1745.000000</ele>
        <time>2021-09-04T09:32:15Z</time>
      </trkpt>
      <trkpt lat="42.619485" lon="0.476665">
        <ele>1745.000000</ele>
        <time>2021-09-04T09:32:16Z</time>
      </trkpt>
      <trkpt lat="42.619490" lon="0.476662">
        <ele>1745.000000</ele>
        <time>2021-09-04T09:32:17Z</time>
      </trkpt>
      <trkpt lat="42.619495" lon="0.476659">
        <ele>1745.000000</ele>
        <time>2021-09-04T09:32:18Z</time>
      </trkpt>
      <trkpt lat="42.619503" lon="0.476655">
        <ele>1745.000000</ele>
        <time>2021-09-04T09:32:19Z</time>
      </trkpt>
      <trkpt lat="42.619513" lon="0.476649">
        <ele>1745.000000</ele>
        <time>2021-09-04T09:32:20Z</time>
      </trkpt>
      <trkpt lat="42.619517" lon="0.476648">
        <ele>1746.000000</ele>
        <time>2021-09-04T09:32:21Z</time>
      </trkpt>
      <trkpt lat="42.619525" lon="0.476644">
        <ele>1746.000000</ele>
        <time>2021-09-04T09:32:22Z</time>
      </trkpt>
      <trkpt lat="42.619532" lon="0.476639">
        <ele>1746.000000</ele>
        <time>2021-09-04T09:32:23Z</time>
      </trkpt>
      <trkpt lat="42.619535" lon="0.476637">
        <ele>1746.000000</ele>
        <time>2021-09-04T09:32:24Z</time>
      </trkpt>
      <trkpt lat="42.619538" lon="0.476635">
        <ele>1746.000000</ele>
        <time>2021-09-04T09:32:25Z</time>
      </trkpt>
      <trkpt lat="42.619542" lon="0.476632">
        <ele>1747.000000</ele>
        <time>2021-09-04T09:32:29Z</time>
      </trkpt>
      <trkpt lat="42.619545" lon="0.476630">
        <ele>1747.000000</ele>
        <time>2021-09-04T09:32:30Z</time>
      </trkpt>
      <trkpt lat="42.619550" lon="0.476627">
        <ele>1747.000000</ele>
        <time>2021-09-04T09:32:31Z</time>
      </trkpt>
      <trkpt lat="42.619555" lon="0.476624">
        <ele>1748.000000</ele>
        <time>2021-09-04T09:32:32Z</time>
      </trkpt>
      <trkpt lat="42.619560" lon="0.476622">
        <ele>1748.000000</ele>
        <time>2021-09-04T09:32:33Z</time>
      </trkpt>
      <trkpt lat="42.619567" lon="0.476620">
        <ele>1748.000000</ele>
        <time>2021-09-04T09:32:34Z</time>
      </trkpt>
      <trkpt lat="42.619575" lon="0.476618">
        <ele>1748.000000</ele>
        <time>2021-09-04T09:32:35Z</time>
      </trkpt>
      <trkpt lat="42.619582" lon="0.476617">
        <ele>1748.000000</ele>
        <time>2021-09-04T09:32:36Z</time>
      </trkpt>
      <trkpt lat="42.619592" lon="0.476617">
        <ele>1748.000000</ele>
        <time>2021-09-04T09:32:37Z</time>
      </trkpt>
      <trkpt lat="42.619602" lon="0.476617">
        <ele>1748.000000</ele>
        <time>2021-09-04T09:32:38Z</time>
      </trkpt>
      <trkpt lat="42.619612" lon="0.476613">
        <ele>1748.000000</ele>
        <time>2021-09-04T09:32:39Z</time>
      </trkpt>
      <trkpt lat="42.619620" lon="0.476611">
        <ele>1748.000000</ele>
        <time>2021-09-04T09:32:40Z</time>
      </trkpt>
      <trkpt lat="42.619623" lon="0.476610">
        <ele>1748.000000</ele>
        <time>2021-09-04T09:32:41Z</time>
      </trkpt>
      <trkpt lat="42.619628" lon="0.476610">
        <ele>1748.000000</ele>
        <time>2021-09-04T09:32:42Z</time>
      </trkpt>
      <trkpt lat="42.619635" lon="0.476615">
        <ele>1748.000000</ele>
        <time>2021-09-04T09:32:44Z</time>
      </trkpt>
      <trkpt lat="42.619638" lon="0.476617">
        <ele>1748.000000</ele>
        <time>2021-09-04T09:32:44Z</time>
      </trkpt>
      <trkpt lat="42.619650" lon="0.476615">
        <ele>1748.000000</ele>
        <time>2021-09-04T09:32:45Z</time>
      </trkpt>
      <trkpt lat="42.619655" lon="0.476615">
        <ele>1748.000000</ele>
        <time>2021-09-04T09:32:46Z</time>
      </trkpt>
      <trkpt lat="42.619658" lon="0.476614">
        <ele>1748.000000</ele>
        <time>2021-09-04T09:32:47Z</time>
      </trkpt>
      <trkpt lat="42.619662" lon="0.476603">
        <ele>1748.000000</ele>
        <time>2021-09-04T09:32:48Z</time>
      </trkpt>
      <trkpt lat="42.619670" lon="0.476598">
        <ele>1748.000000</ele>
        <time>2021-09-04T09:32:49Z</time>
      </trkpt>
      <trkpt lat="42.619673" lon="0.476596">
        <ele>1748.000000</ele>
        <time>2021-09-04T09:32:50Z</time>
      </trkpt>
      <trkpt lat="42.619680" lon="0.476596">
        <ele>1749.000000</ele>
        <time>2021-09-04T09:32:51Z</time>
      </trkpt>
      <trkpt lat="42.619690" lon="0.476592">
        <ele>1749.000000</ele>
        <time>2021-09-04T09:32:52Z</time>
      </trkpt>
      <trkpt lat="42.619702" lon="0.476588">
        <ele>1749.000000</ele>
        <time>2021-09-04T09:32:53Z</time>
      </trkpt>
      <trkpt lat="42.619710" lon="0.476587">
        <ele>1749.000000</ele>
        <time>2021-09-04T09:32:54Z</time>
      </trkpt>
      <trkpt lat="42.619720" lon="0.476583">
        <ele>1749.000000</ele>
        <time>2021-09-04T09:32:55Z</time>
      </trkpt>
      <trkpt lat="42.619728" lon="0.476579">
        <ele>1749.000000</ele>
        <time>2021-09-04T09:32:56Z</time>
      </trkpt>
      <trkpt lat="42.619732" lon="0.476577">
        <ele>1749.000000</ele>
        <time>2021-09-04T09:32:57Z</time>
      </trkpt>
      <trkpt lat="42.619735" lon="0.476575">
        <ele>1749.000000</ele>
        <time>2021-09-04T09:32:58Z</time>
      </trkpt>
      <trkpt lat="42.619737" lon="0.476576">
        <ele>1749.000000</ele>
        <time>2021-09-04T09:32:59Z</time>
      </trkpt>
      <trkpt lat="42.619740" lon="0.476576">
        <ele>1750.000000</ele>
        <time>2021-09-04T09:33:00Z</time>
      </trkpt>
      <trkpt lat="42.619735" lon="0.476579">
        <ele>1750.000000</ele>
        <time>2021-09-04T09:33:02Z</time>
      </trkpt>
      <trkpt lat="42.619733" lon="0.476580">
        <ele>1750.000000</ele>
        <time>2021-09-04T09:33:03Z</time>
      </trkpt>
      <trkpt lat="42.619737" lon="0.476581">
        <ele>1750.000000</ele>
        <time>2021-09-04T09:33:04Z</time>
      </trkpt>
      <trkpt lat="42.619748" lon="0.476579">
        <ele>1750.000000</ele>
        <time>2021-09-04T09:33:06Z</time>
      </trkpt>
      <trkpt lat="42.619757" lon="0.476578">
        <ele>1750.000000</ele>
        <time>2021-09-04T09:33:07Z</time>
      </trkpt>
      <trkpt lat="42.619762" lon="0.476579">
        <ele>1750.000000</ele>
        <time>2021-09-04T09:33:08Z</time>
      </trkpt>
      <trkpt lat="42.619768" lon="0.476578">
        <ele>1751.000000</ele>
        <time>2021-09-04T09:33:09Z</time>
      </trkpt>
      <trkpt lat="42.619772" lon="0.476577">
        <ele>1751.000000</ele>
        <time>2021-09-04T09:33:10Z</time>
      </trkpt>
      <trkpt lat="42.619773" lon="0.476573">
        <ele>1751.000000</ele>
        <time>2021-09-04T09:33:11Z</time>
      </trkpt>
      <trkpt lat="42.619780" lon="0.476568">
        <ele>1751.000000</ele>
        <time>2021-09-04T09:33:12Z</time>
      </trkpt>
      <trkpt lat="42.619788" lon="0.476561">
        <ele>1751.000000</ele>
        <time>2021-09-04T09:33:13Z</time>
      </trkpt>
      <trkpt lat="42.619798" lon="0.476554">
        <ele>1751.000000</ele>
        <time>2021-09-04T09:33:14Z</time>
      </trkpt>
      <trkpt lat="42.619812" lon="0.476527">
        <ele>1751.000000</ele>
        <time>2021-09-04T09:33:15Z</time>
      </trkpt>
      <trkpt lat="42.619822" lon="0.476525">
        <ele>1751.000000</ele>
        <time>2021-09-04T09:33:16Z</time>
      </trkpt>
      <trkpt lat="42.619833" lon="0.476515">
        <ele>1751.000000</ele>
        <time>2021-09-04T09:33:17Z</time>
      </trkpt>
      <trkpt lat="42.619847" lon="0.476505">
        <ele>1751.000000</ele>
        <time>2021-09-04T09:33:18Z</time>
      </trkpt>
      <trkpt lat="42.619865" lon="0.476496">
        <ele>1751.000000</ele>
        <time>2021-09-04T09:33:19Z</time>
      </trkpt>
      <trkpt lat="42.619872" lon="0.476488">
        <ele>1751.000000</ele>
        <time>2021-09-04T09:33:20Z</time>
      </trkpt>
      <trkpt lat="42.619880" lon="0.476478">
        <ele>1751.000000</ele>
        <time>2021-09-04T09:33:21Z</time>
      </trkpt>
      <trkpt lat="42.619888" lon="0.476470">
        <ele>1751.000000</ele>
        <time>2021-09-04T09:33:22Z</time>
      </trkpt>
      <trkpt lat="42.619903" lon="0.476459">
        <ele>1751.000000</ele>
        <time>2021-09-04T09:33:23Z</time>
      </trkpt>
      <trkpt lat="42.619910" lon="0.476456">
        <ele>1751.000000</ele>
        <time>2021-09-04T09:33:24Z</time>
      </trkpt>
      <trkpt lat="42.619922" lon="0.476448">
        <ele>1751.000000</ele>
        <time>2021-09-04T09:33:25Z</time>
      </trkpt>
      <trkpt lat="42.619928" lon="0.476442">
        <ele>1751.000000</ele>
        <time>2021-09-04T09:33:26Z</time>
      </trkpt>
      <trkpt lat="42.619940" lon="0.476433">
        <ele>1751.000000</ele>
        <time>2021-09-04T09:33:28Z</time>
      </trkpt>
      <trkpt lat="42.619960" lon="0.476420">
        <ele>1751.000000</ele>
        <time>2021-09-04T09:33:28Z</time>
      </trkpt>
      <trkpt lat="42.619975" lon="0.476412">
        <ele>1751.000000</ele>
        <time>2021-09-04T09:33:29Z</time>
      </trkpt>
      <trkpt lat="42.619990" lon="0.476407">
        <ele>1751.000000</ele>
        <time>2021-09-04T09:33:30Z</time>
      </trkpt>
      <trkpt lat="42.620000" lon="0.476406">
        <ele>1751.000000</ele>
        <time>2021-09-04T09:33:31Z</time>
      </trkpt>
      <trkpt lat="42.620008" lon="0.476422">
        <ele>1751.000000</ele>
        <time>2021-09-04T09:33:32Z</time>
      </trkpt>
      <trkpt lat="42.620015" lon="0.476428">
        <ele>1751.000000</ele>
        <time>2021-09-04T09:33:33Z</time>
      </trkpt>
      <trkpt lat="42.620020" lon="0.476430">
        <ele>1751.000000</ele>
        <time>2021-09-04T09:33:34Z</time>
      </trkpt>
      <trkpt lat="42.620022" lon="0.476423">
        <ele>1751.000000</ele>
        <time>2021-09-04T09:33:35Z</time>
      </trkpt>
      <trkpt lat="42.620023" lon="0.476414">
        <ele>1751.000000</ele>
        <time>2021-09-04T09:33:36Z</time>
      </trkpt>
      <trkpt lat="42.620030" lon="0.476402">
        <ele>1751.000000</ele>
        <time>2021-09-04T09:33:37Z</time>
      </trkpt>
      <trkpt lat="42.620037" lon="0.476397">
        <ele>1751.000000</ele>
        <time>2021-09-04T09:33:38Z</time>
      </trkpt>
      <trkpt lat="42.620048" lon="0.476388">
        <ele>1751.000000</ele>
        <time>2021-09-04T09:33:39Z</time>
      </trkpt>
      <trkpt lat="42.620057" lon="0.476381">
        <ele>1751.000000</ele>
        <time>2021-09-04T09:33:40Z</time>
      </trkpt>
      <trkpt lat="42.620067" lon="0.476372">
        <ele>1751.000000</ele>
        <time>2021-09-04T09:33:41Z</time>
      </trkpt>
      <trkpt lat="42.620078" lon="0.476358">
        <ele>1751.000000</ele>
        <time>2021-09-04T09:33:42Z</time>
      </trkpt>
      <trkpt lat="42.620085" lon="0.476352">
        <ele>1751.000000</ele>
        <time>2021-09-04T09:33:43Z</time>
      </trkpt>
      <trkpt lat="42.620093" lon="0.476345">
        <ele>1751.000000</ele>
        <time>2021-09-04T09:33:44Z</time>
      </trkpt>
      <trkpt lat="42.620098" lon="0.476342">
        <ele>1751.000000</ele>
        <time>2021-09-04T09:33:45Z</time>
      </trkpt>
      <trkpt lat="42.620107" lon="0.476339">
        <ele>1751.000000</ele>
        <time>2021-09-04T09:33:46Z</time>
      </trkpt>
      <trkpt lat="42.620112" lon="0.476336">
        <ele>1751.000000</ele>
        <time>2021-09-04T09:33:47Z</time>
      </trkpt>
      <trkpt lat="42.620122" lon="0.476329">
        <ele>1751.000000</ele>
        <time>2021-09-04T09:33:48Z</time>
      </trkpt>
      <trkpt lat="42.620125" lon="0.476327">
        <ele>1751.000000</ele>
        <time>2021-09-04T09:33:49Z</time>
      </trkpt>
      <trkpt lat="42.620132" lon="0.476327">
        <ele>1751.000000</ele>
        <time>2021-09-04T09:33:50Z</time>
      </trkpt>
      <trkpt lat="42.620135" lon="0.476323">
        <ele>1751.000000</ele>
        <time>2021-09-04T09:33:51Z</time>
      </trkpt>
      <trkpt lat="42.620140" lon="0.476322">
        <ele>1751.000000</ele>
        <time>2021-09-04T09:33:52Z</time>
      </trkpt>
      <trkpt lat="42.620145" lon="0.476320">
        <ele>1751.000000</ele>
        <time>2021-09-04T09:33:53Z</time>
      </trkpt>
      <trkpt lat="42.620152" lon="0.476313">
        <ele>1751.000000</ele>
        <time>2021-09-04T09:33:54Z</time>
      </trkpt>
      <trkpt lat="42.620163" lon="0.476312">
        <ele>1751.000000</ele>
        <time>2021-09-04T09:33:55Z</time>
      </trkpt>
      <trkpt lat="42.620162" lon="0.476309">
        <ele>1751.000000</ele>
        <time>2021-09-04T09:33:56Z</time>
      </trkpt>
      <trkpt lat="42.620162" lon="0.476306">
        <ele>1751.000000</ele>
        <time>2021-09-04T09:33:57Z</time>
      </trkpt>
      <trkpt lat="42.620160" lon="0.476305">
        <ele>1751.000000</ele>
        <time>2021-09-04T09:33:58Z</time>
      </trkpt>
      <trkpt lat="42.620158" lon="0.476304">
        <ele>1751.000000</ele>
        <time>2021-09-04T09:33:59Z</time>
      </trkpt>
      <trkpt lat="42.620162" lon="0.476277">
        <ele>1751.000000</ele>
        <time>2021-09-04T09:34:00Z</time>
      </trkpt>
      <trkpt lat="42.620162" lon="0.476265">
        <ele>1751.000000</ele>
        <time>2021-09-04T09:34:01Z</time>
      </trkpt>
      <trkpt lat="42.620162" lon="0.476255">
        <ele>1751.000000</ele>
        <time>2021-09-04T09:34:02Z</time>
      </trkpt>
      <trkpt lat="42.620162" lon="0.476253">
        <ele>1751.000000</ele>
        <time>2021-09-04T09:34:03Z</time>
      </trkpt>
      <trkpt lat="42.620170" lon="0.476252">
        <ele>1751.000000</ele>
        <time>2021-09-04T09:34:05Z</time>
      </trkpt>
      <trkpt lat="42.620172" lon="0.476242">
        <ele>1751.000000</ele>
        <time>2021-09-04T09:34:06Z</time>
      </trkpt>
      <trkpt lat="42.620173" lon="0.476237">
        <ele>1751.000000</ele>
        <time>2021-09-04T09:34:07Z</time>
      </trkpt>
      <trkpt lat="42.620175" lon="0.476218">
        <ele>1751.000000</ele>
        <time>2021-09-04T09:34:08Z</time>
      </trkpt>
      <trkpt lat="42.620173" lon="0.476207">
        <ele>1751.000000</ele>
        <time>2021-09-04T09:34:09Z</time>
      </trkpt>
      <trkpt lat="42.620178" lon="0.476203">
        <ele>1751.000000</ele>
        <time>2021-09-04T09:34:10Z</time>
      </trkpt>
      <trkpt lat="42.620185" lon="0.476198">
        <ele>1751.000000</ele>
        <time>2021-09-04T09:34:11Z</time>
      </trkpt>
      <trkpt lat="42.620188" lon="0.476198">
        <ele>1751.000000</ele>
        <time>2021-09-04T09:34:12Z</time>
      </trkpt>
      <trkpt lat="42.620200" lon="0.476200">
        <ele>1751.000000</ele>
        <time>2021-09-04T09:34:13Z</time>
      </trkpt>
      <trkpt lat="42.620205" lon="0.476198">
        <ele>1751.000000</ele>
        <time>2021-09-04T09:34:14Z</time>
      </trkpt>
      <trkpt lat="42.620212" lon="0.476197">
        <ele>1751.000000</ele>
        <time>2021-09-04T09:34:15Z</time>
      </trkpt>
      <trkpt lat="42.620217" lon="0.476190">
        <ele>1751.000000</ele>
        <time>2021-09-04T09:34:16Z</time>
      </trkpt>
      <trkpt lat="42.620227" lon="0.476183">
        <ele>1751.000000</ele>
        <time>2021-09-04T09:34:17Z</time>
      </trkpt>
      <trkpt lat="42.620232" lon="0.476170">
        <ele>1751.000000</ele>
        <time>2021-09-04T09:34:18Z</time>
      </trkpt>
      <trkpt lat="42.620238" lon="0.476154">
        <ele>1751.000000</ele>
        <time>2021-09-04T09:34:19Z</time>
      </trkpt>
      <trkpt lat="42.620245" lon="0.476140">
        <ele>1751.000000</ele>
        <time>2021-09-04T09:34:20Z</time>
      </trkpt>
      <trkpt lat="42.620250" lon="0.476131">
        <ele>1750.000000</ele>
        <time>2021-09-04T09:34:21Z</time>
      </trkpt>
      <trkpt lat="42.620255" lon="0.476122">
        <ele>1750.000000</ele>
        <time>2021-09-04T09:34:22Z</time>
      </trkpt>
      <trkpt lat="42.620268" lon="0.476105">
        <ele>1750.000000</ele>
        <time>2021-09-04T09:34:23Z</time>
      </trkpt>
      <trkpt lat="42.620282" lon="0.476097">
        <ele>1750.000000</ele>
        <time>2021-09-04T09:34:24Z</time>
      </trkpt>
      <trkpt lat="42.620290" lon="0.476095">
        <ele>1750.000000</ele>
        <time>2021-09-04T09:34:25Z</time>
      </trkpt>
      <trkpt lat="42.620297" lon="0.476110">
        <ele>1750.000000</ele>
        <time>2021-09-04T09:34:26Z</time>
      </trkpt>
      <trkpt lat="42.620303" lon="0.476112">
        <ele>1750.000000</ele>
        <time>2021-09-04T09:34:27Z</time>
      </trkpt>
      <trkpt lat="42.620308" lon="0.476106">
        <ele>1749.000000</ele>
        <time>2021-09-04T09:34:28Z</time>
      </trkpt>
      <trkpt lat="42.620313" lon="0.476100">
        <ele>1749.000000</ele>
        <time>2021-09-04T09:34:29Z</time>
      </trkpt>
      <trkpt lat="42.620317" lon="0.476091">
        <ele>1749.000000</ele>
        <time>2021-09-04T09:34:30Z</time>
      </trkpt>
      <trkpt lat="42.620322" lon="0.476072">
        <ele>1749.000000</ele>
        <time>2021-09-04T09:34:31Z</time>
      </trkpt>
      <trkpt lat="42.620320" lon="0.476053">
        <ele>1749.000000</ele>
        <time>2021-09-04T09:34:32Z</time>
      </trkpt>
      <trkpt lat="42.620320" lon="0.476035">
        <ele>1749.000000</ele>
        <time>2021-09-04T09:34:33Z</time>
      </trkpt>
      <trkpt lat="42.620327" lon="0.476022">
        <ele>1749.000000</ele>
        <time>2021-09-04T09:34:34Z</time>
      </trkpt>
      <trkpt lat="42.620329" lon="0.476005">
        <ele>1748.000000</ele>
        <time>2021-09-04T09:34:35Z</time>
      </trkpt>
      <trkpt lat="42.620331" lon="0.475997">
        <ele>1748.000000</ele>
        <time>2021-09-04T09:34:36Z</time>
      </trkpt>
      <trkpt lat="42.620335" lon="0.475983">
        <ele>1748.000000</ele>
        <time>2021-09-04T09:34:37Z</time>
      </trkpt>
      <trkpt lat="42.620339" lon="0.475977">
        <ele>1748.000000</ele>
        <time>2021-09-04T09:34:38Z</time>
      </trkpt>
      <trkpt lat="42.620342" lon="0.475977">
        <ele>1748.000000</ele>
        <time>2021-09-04T09:34:39Z</time>
      </trkpt>
      <trkpt lat="42.620350" lon="0.475970">
        <ele>1748.000000</ele>
        <time>2021-09-04T09:34:40Z</time>
      </trkpt>
      <trkpt lat="42.620373" lon="0.475963">
        <ele>1748.000000</ele>
        <time>2021-09-04T09:34:41Z</time>
      </trkpt>
      <trkpt lat="42.620380" lon="0.475957">
        <ele>1748.000000</ele>
        <time>2021-09-04T09:34:42Z</time>
      </trkpt>
      <trkpt lat="42.620382" lon="0.475949">
        <ele>1748.000000</ele>
        <time>2021-09-04T09:34:43Z</time>
      </trkpt>
      <trkpt lat="42.620385" lon="0.475949">
        <ele>1748.000000</ele>
        <time>2021-09-04T09:34:44Z</time>
      </trkpt>
      <trkpt lat="42.620387" lon="0.475946">
        <ele>1748.000000</ele>
        <time>2021-09-04T09:34:45Z</time>
      </trkpt>
      <trkpt lat="42.620390" lon="0.475941">
        <ele>1748.000000</ele>
        <time>2021-09-04T09:34:46Z</time>
      </trkpt>
      <trkpt lat="42.620395" lon="0.475937">
        <ele>1748.000000</ele>
        <time>2021-09-04T09:34:47Z</time>
      </trkpt>
      <trkpt lat="42.620392" lon="0.475939">
        <ele>1748.000000</ele>
        <time>2021-09-04T09:34:48Z</time>
      </trkpt>
      <trkpt lat="42.620387" lon="0.475943">
        <ele>1748.000000</ele>
        <time>2021-09-04T09:34:49Z</time>
      </trkpt>
      <trkpt lat="42.620387" lon="0.475918">
        <ele>1748.000000</ele>
        <time>2021-09-04T09:34:50Z</time>
      </trkpt>
      <trkpt lat="42.620388" lon="0.475903">
        <ele>1748.000000</ele>
        <time>2021-09-04T09:34:51Z</time>
      </trkpt>
      <trkpt lat="42.620392" lon="0.475895">
        <ele>1748.000000</ele>
        <time>2021-09-04T09:34:52Z</time>
      </trkpt>
      <trkpt lat="42.620398" lon="0.475883">
        <ele>1748.000000</ele>
        <time>2021-09-04T09:34:54Z</time>
      </trkpt>
      <trkpt lat="42.620408" lon="0.475867">
        <ele>1748.000000</ele>
        <time>2021-09-04T09:34:54Z</time>
      </trkpt>
      <trkpt lat="42.620417" lon="0.475847">
        <ele>1748.000000</ele>
        <time>2021-09-04T09:34:55Z</time>
      </trkpt>
      <trkpt lat="42.620426" lon="0.475828">
        <ele>1748.000000</ele>
        <time>2021-09-04T09:34:56Z</time>
      </trkpt>
      <trkpt lat="42.620433" lon="0.475813">
        <ele>1748.000000</ele>
        <time>2021-09-04T09:34:57Z</time>
      </trkpt>
      <trkpt lat="42.620440" lon="0.475797">
        <ele>1748.000000</ele>
        <time>2021-09-04T09:34:58Z</time>
      </trkpt>
      <trkpt lat="42.620446" lon="0.475787">
        <ele>1748.000000</ele>
        <time>2021-09-04T09:34:59Z</time>
      </trkpt>
      <trkpt lat="42.620457" lon="0.475780">
        <ele>1748.000000</ele>
        <time>2021-09-04T09:35:00Z</time>
      </trkpt>
      <trkpt lat="42.620460" lon="0.475768">
        <ele>1747.000000</ele>
        <time>2021-09-04T09:35:01Z</time>
      </trkpt>
      <trkpt lat="42.620463" lon="0.475761">
        <ele>1747.000000</ele>
        <time>2021-09-04T09:35:02Z</time>
      </trkpt>
      <trkpt lat="42.620470" lon="0.475754">
        <ele>1747.000000</ele>
        <time>2021-09-04T09:35:03Z</time>
      </trkpt>
      <trkpt lat="42.620480" lon="0.475748">
        <ele>1747.000000</ele>
        <time>2021-09-04T09:35:04Z</time>
      </trkpt>
      <trkpt lat="42.620483" lon="0.475740">
        <ele>1747.000000</ele>
        <time>2021-09-04T09:35:05Z</time>
      </trkpt>
      <trkpt lat="42.620487" lon="0.475730">
        <ele>1747.000000</ele>
        <time>2021-09-04T09:35:06Z</time>
      </trkpt>
      <trkpt lat="42.620490" lon="0.475719">
        <ele>1747.000000</ele>
        <time>2021-09-04T09:35:07Z</time>
      </trkpt>
      <trkpt lat="42.620495" lon="0.475707">
        <ele>1747.000000</ele>
        <time>2021-09-04T09:35:08Z</time>
      </trkpt>
      <trkpt lat="42.620502" lon="0.475696">
        <ele>1747.000000</ele>
        <time>2021-09-04T09:35:09Z</time>
      </trkpt>
      <trkpt lat="42.620510" lon="0.475681">
        <ele>1747.000000</ele>
        <time>2021-09-04T09:35:10Z</time>
      </trkpt>
      <trkpt lat="42.620513" lon="0.475672">
        <ele>1747.000000</ele>
        <time>2021-09-04T09:35:11Z</time>
      </trkpt>
      <trkpt lat="42.620517" lon="0.475662">
        <ele>1747.000000</ele>
        <time>2021-09-04T09:35:12Z</time>
      </trkpt>
      <trkpt lat="42.620522" lon="0.475642">
        <ele>1747.000000</ele>
        <time>2021-09-04T09:35:13Z</time>
      </trkpt>
      <trkpt lat="42.620526" lon="0.475623">
        <ele>1747.000000</ele>
        <time>2021-09-04T09:35:14Z</time>
      </trkpt>
      <trkpt lat="42.620534" lon="0.475610">
        <ele>1746.000000</ele>
        <time>2021-09-04T09:35:15Z</time>
      </trkpt>
      <trkpt lat="42.620540" lon="0.475603">
        <ele>1746.000000</ele>
        <time>2021-09-04T09:35:16Z</time>
      </trkpt>
      <trkpt lat="42.620550" lon="0.475593">
        <ele>1746.000000</ele>
        <time>2021-09-04T09:35:17Z</time>
      </trkpt>
      <trkpt lat="42.620550" lon="0.475590">
        <ele>1746.000000</ele>
        <time>2021-09-04T09:35:18Z</time>
      </trkpt>
      <trkpt lat="42.620551" lon="0.475585">
        <ele>1746.000000</ele>
        <time>2021-09-04T09:35:19Z</time>
      </trkpt>
      <trkpt lat="42.620550" lon="0.475578">
        <ele>1745.000000</ele>
        <time>2021-09-04T09:35:20Z</time>
      </trkpt>
      <trkpt lat="42.620552" lon="0.475577">
        <ele>1745.000000</ele>
        <time>2021-09-04T09:35:21Z</time>
      </trkpt>
      <trkpt lat="42.620557" lon="0.475578">
        <ele>1745.000000</ele>
        <time>2021-09-04T09:35:24Z</time>
      </trkpt>
      <trkpt lat="42.620558" lon="0.475575">
        <ele>1745.000000</ele>
        <time>2021-09-04T09:35:25Z</time>
      </trkpt>
      <trkpt lat="42.620563" lon="0.475565">
        <ele>1744.000000</ele>
        <time>2021-09-04T09:35:26Z</time>
      </trkpt>
      <trkpt lat="42.620565" lon="0.475555">
        <ele>1744.000000</ele>
        <time>2021-09-04T09:35:27Z</time>
      </trkpt>
      <trkpt lat="42.620567" lon="0.475542">
        <ele>1744.000000</ele>
        <time>2021-09-04T09:35:28Z</time>
      </trkpt>
      <trkpt lat="42.620572" lon="0.475528">
        <ele>1744.000000</ele>
        <time>2021-09-04T09:35:29Z</time>
      </trkpt>
      <trkpt lat="42.620583" lon="0.475517">
        <ele>1744.000000</ele>
        <time>2021-09-04T09:35:30Z</time>
      </trkpt>
      <trkpt lat="42.620588" lon="0.475508">
        <ele>1743.000000</ele>
        <time>2021-09-04T09:35:31Z</time>
      </trkpt>
      <trkpt lat="42.620600" lon="0.475500">
        <ele>1743.000000</ele>
        <time>2021-09-04T09:35:32Z</time>
      </trkpt>
      <trkpt lat="42.620602" lon="0.475487">
        <ele>1743.000000</ele>
        <time>2021-09-04T09:35:33Z</time>
      </trkpt>
      <trkpt lat="42.620604" lon="0.475478">
        <ele>1743.000000</ele>
        <time>2021-09-04T09:35:34Z</time>
      </trkpt>
      <trkpt lat="42.620605" lon="0.475468">
        <ele>1743.000000</ele>
        <time>2021-09-04T09:35:35Z</time>
      </trkpt>
      <trkpt lat="42.620606" lon="0.475458">
        <ele>1743.000000</ele>
        <time>2021-09-04T09:35:36Z</time>
      </trkpt>
      <trkpt lat="42.620613" lon="0.475442">
        <ele>1743.000000</ele>
        <time>2021-09-04T09:35:37Z</time>
      </trkpt>
      <trkpt lat="42.620618" lon="0.475425">
        <ele>1743.000000</ele>
        <time>2021-09-04T09:35:38Z</time>
      </trkpt>
      <trkpt lat="42.620623" lon="0.475410">
        <ele>1743.000000</ele>
        <time>2021-09-04T09:35:39Z</time>
      </trkpt>
      <trkpt lat="42.620628" lon="0.475395">
        <ele>1743.000000</ele>
        <time>2021-09-04T09:35:39Z</time>
      </trkpt>
      <trkpt lat="42.620637" lon="0.475375">
        <ele>1743.000000</ele>
        <time>2021-09-04T09:35:40Z</time>
      </trkpt>
      <trkpt lat="42.620644" lon="0.475360">
        <ele>1743.000000</ele>
        <time>2021-09-04T09:35:41Z</time>
      </trkpt>
      <trkpt lat="42.620650" lon="0.475347">
        <ele>1743.000000</ele>
        <time>2021-09-04T09:35:42Z</time>
      </trkpt>
      <trkpt lat="42.620654" lon="0.475338">
        <ele>1743.000000</ele>
        <time>2021-09-04T09:35:43Z</time>
      </trkpt>
      <trkpt lat="42.620658" lon="0.475327">
        <ele>1743.000000</ele>
        <time>2021-09-04T09:35:44Z</time>
      </trkpt>
      <trkpt lat="42.620665" lon="0.475312">
        <ele>1743.000000</ele>
        <time>2021-09-04T09:35:45Z</time>
      </trkpt>
      <trkpt lat="42.620669" lon="0.475305">
        <ele>1743.000000</ele>
        <time>2021-09-04T09:35:46Z</time>
      </trkpt>
      <trkpt lat="42.620674" lon="0.475293">
        <ele>1743.000000</ele>
        <time>2021-09-04T09:35:47Z</time>
      </trkpt>
      <trkpt lat="42.620676" lon="0.475287">
        <ele>1743.000000</ele>
        <time>2021-09-04T09:35:48Z</time>
      </trkpt>
      <trkpt lat="42.620679" lon="0.475277">
        <ele>1743.000000</ele>
        <time>2021-09-04T09:35:49Z</time>
      </trkpt>
      <trkpt lat="42.620684" lon="0.475267">
        <ele>1743.000000</ele>
        <time>2021-09-04T09:35:50Z</time>
      </trkpt>
      <trkpt lat="42.620690" lon="0.475253">
        <ele>1743.000000</ele>
        <time>2021-09-04T09:35:51Z</time>
      </trkpt>
      <trkpt lat="42.620697" lon="0.475235">
        <ele>1743.000000</ele>
        <time>2021-09-04T09:35:52Z</time>
      </trkpt>
      <trkpt lat="42.620702" lon="0.475218">
        <ele>1743.000000</ele>
        <time>2021-09-04T09:35:53Z</time>
      </trkpt>
      <trkpt lat="42.620706" lon="0.475207">
        <ele>1743.000000</ele>
        <time>2021-09-04T09:35:54Z</time>
      </trkpt>
      <trkpt lat="42.620711" lon="0.475195">
        <ele>1743.000000</ele>
        <time>2021-09-04T09:35:55Z</time>
      </trkpt>
      <trkpt lat="42.620713" lon="0.475185">
        <ele>1743.000000</ele>
        <time>2021-09-04T09:35:56Z</time>
      </trkpt>
      <trkpt lat="42.620716" lon="0.475175">
        <ele>1743.000000</ele>
        <time>2021-09-04T09:35:57Z</time>
      </trkpt>
      <trkpt lat="42.620717" lon="0.475165">
        <ele>1743.000000</ele>
        <time>2021-09-04T09:35:58Z</time>
      </trkpt>
      <trkpt lat="42.620720" lon="0.475157">
        <ele>1743.000000</ele>
        <time>2021-09-04T09:35:59Z</time>
      </trkpt>
      <trkpt lat="42.620730" lon="0.475148">
        <ele>1743.000000</ele>
        <time>2021-09-04T09:36:00Z</time>
      </trkpt>
      <trkpt lat="42.620736" lon="0.475140">
        <ele>1743.000000</ele>
        <time>2021-09-04T09:36:01Z</time>
      </trkpt>
      <trkpt lat="42.620740" lon="0.475125">
        <ele>1743.000000</ele>
        <time>2021-09-04T09:36:02Z</time>
      </trkpt>
      <trkpt lat="42.620740" lon="0.475108">
        <ele>1743.000000</ele>
        <time>2021-09-04T09:36:03Z</time>
      </trkpt>
      <trkpt lat="42.620742" lon="0.475097">
        <ele>1743.000000</ele>
        <time>2021-09-04T09:36:04Z</time>
      </trkpt>
      <trkpt lat="42.620745" lon="0.475083">
        <ele>1743.000000</ele>
        <time>2021-09-04T09:36:05Z</time>
      </trkpt>
      <trkpt lat="42.620748" lon="0.475075">
        <ele>1743.000000</ele>
        <time>2021-09-04T09:36:06Z</time>
      </trkpt>
      <trkpt lat="42.620752" lon="0.475063">
        <ele>1743.000000</ele>
        <time>2021-09-04T09:36:07Z</time>
      </trkpt>
      <trkpt lat="42.620758" lon="0.475052">
        <ele>1743.000000</ele>
        <time>2021-09-04T09:36:08Z</time>
      </trkpt>
      <trkpt lat="42.620766" lon="0.475040">
        <ele>1743.000000</ele>
        <time>2021-09-04T09:36:09Z</time>
      </trkpt>
      <trkpt lat="42.620778" lon="0.475032">
        <ele>1743.000000</ele>
        <time>2021-09-04T09:36:10Z</time>
      </trkpt>
      <trkpt lat="42.620785" lon="0.475025">
        <ele>1743.000000</ele>
        <time>2021-09-04T09:36:11Z</time>
      </trkpt>
      <trkpt lat="42.620792" lon="0.475018">
        <ele>1743.000000</ele>
        <time>2021-09-04T09:36:12Z</time>
      </trkpt>
      <trkpt lat="42.620798" lon="0.475007">
        <ele>1743.000000</ele>
        <time>2021-09-04T09:36:13Z</time>
      </trkpt>
      <trkpt lat="42.620801" lon="0.474993">
        <ele>1743.000000</ele>
        <time>2021-09-04T09:36:14Z</time>
      </trkpt>
      <trkpt lat="42.620800" lon="0.474978">
        <ele>1743.000000</ele>
        <time>2021-09-04T09:36:15Z</time>
      </trkpt>
      <trkpt lat="42.620802" lon="0.474965">
        <ele>1741.000000</ele>
        <time>2021-09-04T09:36:16Z</time>
      </trkpt>
      <trkpt lat="42.620804" lon="0.474953">
        <ele>1741.000000</ele>
        <time>2021-09-04T09:36:17Z</time>
      </trkpt>
      <trkpt lat="42.620810" lon="0.474940">
        <ele>1741.000000</ele>
        <time>2021-09-04T09:36:18Z</time>
      </trkpt>
      <trkpt lat="42.620815" lon="0.474928">
        <ele>1741.000000</ele>
        <time>2021-09-04T09:36:19Z</time>
      </trkpt>
      <trkpt lat="42.620819" lon="0.474918">
        <ele>1741.000000</ele>
        <time>2021-09-04T09:36:20Z</time>
      </trkpt>
      <trkpt lat="42.620824" lon="0.474900">
        <ele>1741.000000</ele>
        <time>2021-09-04T09:36:21Z</time>
      </trkpt>
      <trkpt lat="42.620829" lon="0.474888">
        <ele>1741.000000</ele>
        <time>2021-09-04T09:36:22Z</time>
      </trkpt>
      <trkpt lat="42.620834" lon="0.474875">
        <ele>1741.000000</ele>
        <time>2021-09-04T09:36:23Z</time>
      </trkpt>
      <trkpt lat="42.620837" lon="0.474862">
        <ele>1742.000000</ele>
        <time>2021-09-04T09:36:24Z</time>
      </trkpt>
      <trkpt lat="42.620839" lon="0.474852">
        <ele>1742.000000</ele>
        <time>2021-09-04T09:36:25Z</time>
      </trkpt>
      <trkpt lat="42.620844" lon="0.474840">
        <ele>1742.000000</ele>
        <time>2021-09-04T09:36:26Z</time>
      </trkpt>
      <trkpt lat="42.620852" lon="0.474823">
        <ele>1742.000000</ele>
        <time>2021-09-04T09:36:27Z</time>
      </trkpt>
      <trkpt lat="42.620858" lon="0.474807">
        <ele>1742.000000</ele>
        <time>2021-09-04T09:36:28Z</time>
      </trkpt>
      <trkpt lat="42.620864" lon="0.474798">
        <ele>1742.000000</ele>
        <time>2021-09-04T09:36:29Z</time>
      </trkpt>
      <trkpt lat="42.620872" lon="0.474787">
        <ele>1742.000000</ele>
        <time>2021-09-04T09:36:30Z</time>
      </trkpt>
      <trkpt lat="42.620890" lon="0.474778">
        <ele>1743.000000</ele>
        <time>2021-09-04T09:36:31Z</time>
      </trkpt>
      <trkpt lat="42.620893" lon="0.474775">
        <ele>1743.000000</ele>
        <time>2021-09-04T09:36:32Z</time>
      </trkpt>
      <trkpt lat="42.620898" lon="0.474773">
        <ele>1743.000000</ele>
        <time>2021-09-04T09:36:33Z</time>
      </trkpt>
      <trkpt lat="42.620904" lon="0.474775">
        <ele>1743.000000</ele>
        <time>2021-09-04T09:36:35Z</time>
      </trkpt>
      <trkpt lat="42.620905" lon="0.474772">
        <ele>1743.000000</ele>
        <time>2021-09-04T09:36:37Z</time>
      </trkpt>
      <trkpt lat="42.620912" lon="0.474767">
        <ele>1743.000000</ele>
        <time>2021-09-04T09:36:38Z</time>
      </trkpt>
      <trkpt lat="42.620917" lon="0.474760">
        <ele>1743.000000</ele>
        <time>2021-09-04T09:36:39Z</time>
      </trkpt>
      <trkpt lat="42.620917" lon="0.474756">
        <ele>1743.000000</ele>
        <time>2021-09-04T09:36:40Z</time>
      </trkpt>
      <trkpt lat="42.620920" lon="0.474735">
        <ele>1743.000000</ele>
        <time>2021-09-04T09:36:41Z</time>
      </trkpt>
      <trkpt lat="42.620927" lon="0.474718">
        <ele>1743.000000</ele>
        <time>2021-09-04T09:36:42Z</time>
      </trkpt>
      <trkpt lat="42.620935" lon="0.474703">
        <ele>1743.000000</ele>
        <time>2021-09-04T09:36:43Z</time>
      </trkpt>
      <trkpt lat="42.620939" lon="0.474690">
        <ele>1743.000000</ele>
        <time>2021-09-04T09:36:44Z</time>
      </trkpt>
      <trkpt lat="42.620946" lon="0.474677">
        <ele>1743.000000</ele>
        <time>2021-09-04T09:36:45Z</time>
      </trkpt>
      <trkpt lat="42.620949" lon="0.474670">
        <ele>1743.000000</ele>
        <time>2021-09-04T09:36:46Z</time>
      </trkpt>
      <trkpt lat="42.620952" lon="0.474658">
        <ele>1743.000000</ele>
        <time>2021-09-04T09:36:47Z</time>
      </trkpt>
      <trkpt lat="42.620953" lon="0.474645">
        <ele>1743.000000</ele>
        <time>2021-09-04T09:36:48Z</time>
      </trkpt>
      <trkpt lat="42.620956" lon="0.474633">
        <ele>1743.000000</ele>
        <time>2021-09-04T09:36:49Z</time>
      </trkpt>
      <trkpt lat="42.620960" lon="0.474622">
        <ele>1743.000000</ele>
        <time>2021-09-04T09:36:50Z</time>
      </trkpt>
      <trkpt lat="42.620962" lon="0.474612">
        <ele>1743.000000</ele>
        <time>2021-09-04T09:36:51Z</time>
      </trkpt>
      <trkpt lat="42.620965" lon="0.474600">
        <ele>1743.000000</ele>
        <time>2021-09-04T09:36:52Z</time>
      </trkpt>
      <trkpt lat="42.620969" lon="0.474588">
        <ele>1743.000000</ele>
        <time>2021-09-04T09:36:53Z</time>
      </trkpt>
      <trkpt lat="42.620974" lon="0.474577">
        <ele>1743.000000</ele>
        <time>2021-09-04T09:36:54Z</time>
      </trkpt>
      <trkpt lat="42.620990" lon="0.474570">
        <ele>1743.000000</ele>
        <time>2021-09-04T09:36:55Z</time>
      </trkpt>
      <trkpt lat="42.620993" lon="0.474558">
        <ele>1743.000000</ele>
        <time>2021-09-04T09:36:56Z</time>
      </trkpt>
      <trkpt lat="42.621002" lon="0.474544">
        <ele>1743.000000</ele>
        <time>2021-09-04T09:36:57Z</time>
      </trkpt>
      <trkpt lat="42.621007" lon="0.474533">
        <ele>1743.000000</ele>
        <time>2021-09-04T09:36:58Z</time>
      </trkpt>
      <trkpt lat="42.621007" lon="0.474523">
        <ele>1743.000000</ele>
        <time>2021-09-04T09:36:59Z</time>
      </trkpt>
      <trkpt lat="42.621007" lon="0.474512">
        <ele>1743.000000</ele>
        <time>2021-09-04T09:37:00Z</time>
      </trkpt>
      <trkpt lat="42.621010" lon="0.474502">
        <ele>1743.000000</ele>
        <time>2021-09-04T09:37:01Z</time>
      </trkpt>
      <trkpt lat="42.621015" lon="0.474490">
        <ele>1743.000000</ele>
        <time>2021-09-04T09:37:02Z</time>
      </trkpt>
      <trkpt lat="42.621021" lon="0.474477">
        <ele>1743.000000</ele>
        <time>2021-09-04T09:37:03Z</time>
      </trkpt>
      <trkpt lat="42.621025" lon="0.474455">
        <ele>1744.000000</ele>
        <time>2021-09-04T09:37:04Z</time>
      </trkpt>
      <trkpt lat="42.621028" lon="0.474435">
        <ele>1744.000000</ele>
        <time>2021-09-04T09:37:05Z</time>
      </trkpt>
      <trkpt lat="42.621031" lon="0.474417">
        <ele>1744.000000</ele>
        <time>2021-09-04T09:37:06Z</time>
      </trkpt>
      <trkpt lat="42.621034" lon="0.474402">
        <ele>1744.000000</ele>
        <time>2021-09-04T09:37:07Z</time>
      </trkpt>
      <trkpt lat="42.621037" lon="0.474385">
        <ele>1744.000000</ele>
        <time>2021-09-04T09:37:08Z</time>
      </trkpt>
      <trkpt lat="42.621041" lon="0.474367">
        <ele>1744.000000</ele>
        <time>2021-09-04T09:37:10Z</time>
      </trkpt>
      <trkpt lat="42.621046" lon="0.474345">
        <ele>1744.000000</ele>
        <time>2021-09-04T09:37:10Z</time>
      </trkpt>
      <trkpt lat="42.621050" lon="0.474327">
        <ele>1744.000000</ele>
        <time>2021-09-04T09:37:11Z</time>
      </trkpt>
      <trkpt lat="42.621055" lon="0.474310">
        <ele>1744.000000</ele>
        <time>2021-09-04T09:37:12Z</time>
      </trkpt>
      <trkpt lat="42.621058" lon="0.474298">
        <ele>1744.000000</ele>
        <time>2021-09-04T09:37:13Z</time>
      </trkpt>
      <trkpt lat="42.621060" lon="0.474288">
        <ele>1745.000000</ele>
        <time>2021-09-04T09:37:14Z</time>
      </trkpt>
      <trkpt lat="42.621064" lon="0.474273">
        <ele>1745.000000</ele>
        <time>2021-09-04T09:37:15Z</time>
      </trkpt>
      <trkpt lat="42.621067" lon="0.474262">
        <ele>1745.000000</ele>
        <time>2021-09-04T09:37:16Z</time>
      </trkpt>
      <trkpt lat="42.621071" lon="0.474250">
        <ele>1745.000000</ele>
        <time>2021-09-04T09:37:17Z</time>
      </trkpt>
      <trkpt lat="42.621075" lon="0.474238">
        <ele>1745.000000</ele>
        <time>2021-09-04T09:37:18Z</time>
      </trkpt>
      <trkpt lat="42.621088" lon="0.474230">
        <ele>1745.000000</ele>
        <time>2021-09-04T09:37:19Z</time>
      </trkpt>
      <trkpt lat="42.621093" lon="0.474218">
        <ele>1745.000000</ele>
        <time>2021-09-04T09:37:20Z</time>
      </trkpt>
      <trkpt lat="42.621097" lon="0.474202">
        <ele>1745.000000</ele>
        <time>2021-09-04T09:37:21Z</time>
      </trkpt>
      <trkpt lat="42.621100" lon="0.474187">
        <ele>1745.000000</ele>
        <time>2021-09-04T09:37:22Z</time>
      </trkpt>
      <trkpt lat="42.621100" lon="0.474172">
        <ele>1746.000000</ele>
        <time>2021-09-04T09:37:23Z</time>
      </trkpt>
      <trkpt lat="42.621102" lon="0.474158">
        <ele>1746.000000</ele>
        <time>2021-09-04T09:37:24Z</time>
      </trkpt>
      <trkpt lat="42.621100" lon="0.474153">
        <ele>1746.000000</ele>
        <time>2021-09-04T09:37:25Z</time>
      </trkpt>
      <trkpt lat="42.621103" lon="0.474152">
        <ele>1746.000000</ele>
        <time>2021-09-04T09:37:26Z</time>
      </trkpt>
      <trkpt lat="42.621110" lon="0.474155">
        <ele>1746.000000</ele>
        <time>2021-09-04T09:37:28Z</time>
      </trkpt>
      <trkpt lat="42.621113" lon="0.474152">
        <ele>1746.000000</ele>
        <time>2021-09-04T09:37:31Z</time>
      </trkpt>
      <trkpt lat="42.621118" lon="0.474147">
        <ele>1746.000000</ele>
        <time>2021-09-04T09:37:32Z</time>
      </trkpt>
      <trkpt lat="42.621119" lon="0.474143">
        <ele>1746.000000</ele>
        <time>2021-09-04T09:37:33Z</time>
      </trkpt>
      <trkpt lat="42.621121" lon="0.474140">
        <ele>1746.000000</ele>
        <time>2021-09-04T09:37:34Z</time>
      </trkpt>
      <trkpt lat="42.621121" lon="0.474140">
        <ele>1746.000000</ele>
        <time>2021-09-04T09:37:35Z</time>
      </trkpt>
      <trkpt lat="42.621124" lon="0.474133">
        <ele>1746.000000</ele>
        <time>2021-09-04T09:37:36Z</time>
      </trkpt>
      <trkpt lat="42.621123" lon="0.474127">
        <ele>1746.000000</ele>
        <time>2021-09-04T09:37:37Z</time>
      </trkpt>
      <trkpt lat="42.621119" lon="0.474118">
        <ele>1746.000000</ele>
        <time>2021-09-04T09:37:38Z</time>
      </trkpt>
      <trkpt lat="42.621116" lon="0.474108">
        <ele>1746.000000</ele>
        <time>2021-09-04T09:37:39Z</time>
      </trkpt>
      <trkpt lat="42.621114" lon="0.474100">
        <ele>1746.000000</ele>
        <time>2021-09-04T09:37:40Z</time>
      </trkpt>
      <trkpt lat="42.621112" lon="0.474090">
        <ele>1746.000000</ele>
        <time>2021-09-04T09:37:41Z</time>
      </trkpt>
      <trkpt lat="42.621111" lon="0.474075">
        <ele>1746.000000</ele>
        <time>2021-09-04T09:37:42Z</time>
      </trkpt>
      <trkpt lat="42.621113" lon="0.474063">
        <ele>1746.000000</ele>
        <time>2021-09-04T09:37:43Z</time>
      </trkpt>
      <trkpt lat="42.621114" lon="0.474053">
        <ele>1746.000000</ele>
        <time>2021-09-04T09:37:44Z</time>
      </trkpt>
      <trkpt lat="42.621116" lon="0.474043">
        <ele>1746.000000</ele>
        <time>2021-09-04T09:37:45Z</time>
      </trkpt>
      <trkpt lat="42.621118" lon="0.474028">
        <ele>1746.000000</ele>
        <time>2021-09-04T09:37:46Z</time>
      </trkpt>
      <trkpt lat="42.621120" lon="0.474020">
        <ele>1746.000000</ele>
        <time>2021-09-04T09:37:47Z</time>
      </trkpt>
      <trkpt lat="42.621124" lon="0.474007">
        <ele>1746.000000</ele>
        <time>2021-09-04T09:37:48Z</time>
      </trkpt>
      <trkpt lat="42.621127" lon="0.473998">
        <ele>1747.000000</ele>
        <time>2021-09-04T09:37:49Z</time>
      </trkpt>
      <trkpt lat="42.621131" lon="0.473985">
        <ele>1747.000000</ele>
        <time>2021-09-04T09:37:50Z</time>
      </trkpt>
      <trkpt lat="42.621136" lon="0.473970">
        <ele>1747.000000</ele>
        <time>2021-09-04T09:37:51Z</time>
      </trkpt>
      <trkpt lat="42.621140" lon="0.473952">
        <ele>1747.000000</ele>
        <time>2021-09-04T09:37:52Z</time>
      </trkpt>
      <trkpt lat="42.621144" lon="0.473933">
        <ele>1747.000000</ele>
        <time>2021-09-04T09:37:54Z</time>
      </trkpt>
      <trkpt lat="42.621147" lon="0.473918">
        <ele>1747.000000</ele>
        <time>2021-09-04T09:37:54Z</time>
      </trkpt>
      <trkpt lat="42.621150" lon="0.473902">
        <ele>1747.000000</ele>
        <time>2021-09-04T09:37:55Z</time>
      </trkpt>
      <trkpt lat="42.621152" lon="0.473887">
        <ele>1747.000000</ele>
        <time>2021-09-04T09:37:56Z</time>
      </trkpt>
      <trkpt lat="42.621155" lon="0.473872">
        <ele>1748.000000</ele>
        <time>2021-09-04T09:37:57Z</time>
      </trkpt>
      <trkpt lat="42.621159" lon="0.473857">
        <ele>1748.000000</ele>
        <time>2021-09-04T09:37:58Z</time>
      </trkpt>
      <trkpt lat="42.621175" lon="0.473843">
        <ele>1748.000000</ele>
        <time>2021-09-04T09:37:59Z</time>
      </trkpt>
      <trkpt lat="42.621183" lon="0.473833">
        <ele>1748.000000</ele>
        <time>2021-09-04T09:38:00Z</time>
      </trkpt>
      <trkpt lat="42.621193" lon="0.473818">
        <ele>1748.000000</ele>
        <time>2021-09-04T09:38:01Z</time>
      </trkpt>
      <trkpt lat="42.621193" lon="0.473808">
        <ele>1749.000000</ele>
        <time>2021-09-04T09:38:02Z</time>
      </trkpt>
      <trkpt lat="42.621199" lon="0.473793">
        <ele>1749.000000</ele>
        <time>2021-09-04T09:38:03Z</time>
      </trkpt>
      <trkpt lat="42.621201" lon="0.473780">
        <ele>1749.000000</ele>
        <time>2021-09-04T09:38:04Z</time>
      </trkpt>
      <trkpt lat="42.621207" lon="0.473768">
        <ele>1749.000000</ele>
        <time>2021-09-04T09:38:05Z</time>
      </trkpt>
      <trkpt lat="42.621215" lon="0.473757">
        <ele>1749.000000</ele>
        <time>2021-09-04T09:38:06Z</time>
      </trkpt>
      <trkpt lat="42.621223" lon="0.473750">
        <ele>1749.000000</ele>
        <time>2021-09-04T09:38:07Z</time>
      </trkpt>
      <trkpt lat="42.621232" lon="0.473743">
        <ele>1750.000000</ele>
        <time>2021-09-04T09:38:08Z</time>
      </trkpt>
      <trkpt lat="42.621242" lon="0.473733">
        <ele>1750.000000</ele>
        <time>2021-09-04T09:38:09Z</time>
      </trkpt>
      <trkpt lat="42.621250" lon="0.473725">
        <ele>1750.000000</ele>
        <time>2021-09-04T09:38:10Z</time>
      </trkpt>
      <trkpt lat="42.621254" lon="0.473722">
        <ele>1750.000000</ele>
        <time>2021-09-04T09:38:11Z</time>
      </trkpt>
      <trkpt lat="42.621258" lon="0.473720">
        <ele>1750.000000</ele>
        <time>2021-09-04T09:38:12Z</time>
      </trkpt>
      <trkpt lat="42.621261" lon="0.473718">
        <ele>1750.000000</ele>
        <time>2021-09-04T09:38:13Z</time>
      </trkpt>
      <trkpt lat="42.621272" lon="0.473715">
        <ele>1751.000000</ele>
        <time>2021-09-04T09:38:14Z</time>
      </trkpt>
      <trkpt lat="42.621273" lon="0.473713">
        <ele>1751.000000</ele>
        <time>2021-09-04T09:38:15Z</time>
      </trkpt>
      <trkpt lat="42.621273" lon="0.473710">
        <ele>1751.000000</ele>
        <time>2021-09-04T09:38:16Z</time>
      </trkpt>
      <trkpt lat="42.621275" lon="0.473707">
        <ele>1751.000000</ele>
        <time>2021-09-04T09:38:17Z</time>
      </trkpt>
      <trkpt lat="42.621275" lon="0.473705">
        <ele>1751.000000</ele>
        <time>2021-09-04T09:38:18Z</time>
      </trkpt>
      <trkpt lat="42.621272" lon="0.473706">
        <ele>1751.000000</ele>
        <time>2021-09-04T09:38:19Z</time>
      </trkpt>
      <trkpt lat="42.621273" lon="0.473685">
        <ele>1751.000000</ele>
        <time>2021-09-04T09:38:20Z</time>
      </trkpt>
      <trkpt lat="42.621272" lon="0.473682">
        <ele>1751.000000</ele>
        <time>2021-09-04T09:38:21Z</time>
      </trkpt>
      <trkpt lat="42.621275" lon="0.473672">
        <ele>1751.000000</ele>
        <time>2021-09-04T09:38:22Z</time>
      </trkpt>
      <trkpt lat="42.621281" lon="0.473663">
        <ele>1751.000000</ele>
        <time>2021-09-04T09:38:23Z</time>
      </trkpt>
      <trkpt lat="42.621287" lon="0.473655">
        <ele>1751.000000</ele>
        <time>2021-09-04T09:38:24Z</time>
      </trkpt>
      <trkpt lat="42.621294" lon="0.473642">
        <ele>1751.000000</ele>
        <time>2021-09-04T09:38:25Z</time>
      </trkpt>
      <trkpt lat="42.621300" lon="0.473630">
        <ele>1751.000000</ele>
        <time>2021-09-04T09:38:26Z</time>
      </trkpt>
      <trkpt lat="42.621305" lon="0.473620">
        <ele>1751.000000</ele>
        <time>2021-09-04T09:38:27Z</time>
      </trkpt>
      <trkpt lat="42.621314" lon="0.473603">
        <ele>1751.000000</ele>
        <time>2021-09-04T09:38:28Z</time>
      </trkpt>
      <trkpt lat="42.621322" lon="0.473588">
        <ele>1751.000000</ele>
        <time>2021-09-04T09:38:29Z</time>
      </trkpt>
      <trkpt lat="42.621329" lon="0.473577">
        <ele>1751.000000</ele>
        <time>2021-09-04T09:38:30Z</time>
      </trkpt>
      <trkpt lat="42.621337" lon="0.473563">
        <ele>1751.000000</ele>
        <time>2021-09-04T09:38:31Z</time>
      </trkpt>
      <trkpt lat="42.621344" lon="0.473553">
        <ele>1751.000000</ele>
        <time>2021-09-04T09:38:32Z</time>
      </trkpt>
      <trkpt lat="42.621349" lon="0.473548">
        <ele>1751.000000</ele>
        <time>2021-09-04T09:38:33Z</time>
      </trkpt>
      <trkpt lat="42.621362" lon="0.473552">
        <ele>1751.000000</ele>
        <time>2021-09-04T09:38:35Z</time>
      </trkpt>
      <trkpt lat="42.621365" lon="0.473552">
        <ele>1751.000000</ele>
        <time>2021-09-04T09:38:36Z</time>
      </trkpt>
      <trkpt lat="42.621370" lon="0.473548">
        <ele>1751.000000</ele>
        <time>2021-09-04T09:38:37Z</time>
      </trkpt>
      <trkpt lat="42.621372" lon="0.473546">
        <ele>1751.000000</ele>
        <time>2021-09-04T09:38:38Z</time>
      </trkpt>
      <trkpt lat="42.621372" lon="0.473544">
        <ele>1751.000000</ele>
        <time>2021-09-04T09:38:39Z</time>
      </trkpt>
      <trkpt lat="42.621373" lon="0.473536">
        <ele>1751.000000</ele>
        <time>2021-09-04T09:38:40Z</time>
      </trkpt>
      <trkpt lat="42.621377" lon="0.473521">
        <ele>1751.000000</ele>
        <time>2021-09-04T09:38:41Z</time>
      </trkpt>
      <trkpt lat="42.621383" lon="0.473507">
        <ele>1751.000000</ele>
        <time>2021-09-04T09:38:42Z</time>
      </trkpt>
      <trkpt lat="42.621390" lon="0.473488">
        <ele>1752.000000</ele>
        <time>2021-09-04T09:38:43Z</time>
      </trkpt>
      <trkpt lat="42.621397" lon="0.473475">
        <ele>1752.000000</ele>
        <time>2021-09-04T09:38:44Z</time>
      </trkpt>
      <trkpt lat="42.621400" lon="0.473460">
        <ele>1752.000000</ele>
        <time>2021-09-04T09:38:45Z</time>
      </trkpt>
      <trkpt lat="42.621404" lon="0.473453">
        <ele>1752.000000</ele>
        <time>2021-09-04T09:38:46Z</time>
      </trkpt>
      <trkpt lat="42.621410" lon="0.473438">
        <ele>1752.000000</ele>
        <time>2021-09-04T09:38:47Z</time>
      </trkpt>
      <trkpt lat="42.621412" lon="0.473432">
        <ele>1752.000000</ele>
        <time>2021-09-04T09:38:48Z</time>
      </trkpt>
      <trkpt lat="42.621415" lon="0.473423">
        <ele>1752.000000</ele>
        <time>2021-09-04T09:38:49Z</time>
      </trkpt>
      <trkpt lat="42.621417" lon="0.473417">
        <ele>1752.000000</ele>
        <time>2021-09-04T09:38:50Z</time>
      </trkpt>
      <trkpt lat="42.621421" lon="0.473408">
        <ele>1752.000000</ele>
        <time>2021-09-04T09:38:51Z</time>
      </trkpt>
      <trkpt lat="42.621424" lon="0.473402">
        <ele>1752.000000</ele>
        <time>2021-09-04T09:38:52Z</time>
      </trkpt>
      <trkpt lat="42.621425" lon="0.473402">
        <ele>1752.000000</ele>
        <time>2021-09-04T09:38:53Z</time>
      </trkpt>
      <trkpt lat="42.621432" lon="0.473393">
        <ele>1753.000000</ele>
        <time>2021-09-04T09:38:54Z</time>
      </trkpt>
      <trkpt lat="42.621430" lon="0.473382">
        <ele>1753.000000</ele>
        <time>2021-09-04T09:38:55Z</time>
      </trkpt>
      <trkpt lat="42.621431" lon="0.473370">
        <ele>1753.000000</ele>
        <time>2021-09-04T09:38:56Z</time>
      </trkpt>
      <trkpt lat="42.621432" lon="0.473355">
        <ele>1753.000000</ele>
        <time>2021-09-04T09:38:57Z</time>
      </trkpt>
      <trkpt lat="42.621436" lon="0.473343">
        <ele>1753.000000</ele>
        <time>2021-09-04T09:38:58Z</time>
      </trkpt>
      <trkpt lat="42.621441" lon="0.473335">
        <ele>1753.000000</ele>
        <time>2021-09-04T09:38:59Z</time>
      </trkpt>
      <trkpt lat="42.621444" lon="0.473327">
        <ele>1753.000000</ele>
        <time>2021-09-04T09:39:00Z</time>
      </trkpt>
      <trkpt lat="42.621447" lon="0.473317">
        <ele>1753.000000</ele>
        <time>2021-09-04T09:39:01Z</time>
      </trkpt>
      <trkpt lat="42.621448" lon="0.473305">
        <ele>1753.000000</ele>
        <time>2021-09-04T09:39:02Z</time>
      </trkpt>
      <trkpt lat="42.621447" lon="0.473297">
        <ele>1753.000000</ele>
        <time>2021-09-04T09:39:03Z</time>
      </trkpt>
      <trkpt lat="42.621447" lon="0.473285">
        <ele>1754.000000</ele>
        <time>2021-09-04T09:39:04Z</time>
      </trkpt>
      <trkpt lat="42.621447" lon="0.473278">
        <ele>1754.000000</ele>
        <time>2021-09-04T09:39:05Z</time>
      </trkpt>
      <trkpt lat="42.621448" lon="0.473268">
        <ele>1754.000000</ele>
        <time>2021-09-04T09:39:06Z</time>
      </trkpt>
      <trkpt lat="42.621451" lon="0.473258">
        <ele>1754.000000</ele>
        <time>2021-09-04T09:39:07Z</time>
      </trkpt>
      <trkpt lat="42.621460" lon="0.473253">
        <ele>1754.000000</ele>
        <time>2021-09-04T09:39:08Z</time>
      </trkpt>
      <trkpt lat="42.621463" lon="0.473252">
        <ele>1755.000000</ele>
        <time>2021-09-04T09:39:09Z</time>
      </trkpt>
      <trkpt lat="42.621465" lon="0.473248">
        <ele>1755.000000</ele>
        <time>2021-09-04T09:39:10Z</time>
      </trkpt>
      <trkpt lat="42.621467" lon="0.473240">
        <ele>1755.000000</ele>
        <time>2021-09-04T09:39:11Z</time>
      </trkpt>
      <trkpt lat="42.621468" lon="0.473235">
        <ele>1755.000000</ele>
        <time>2021-09-04T09:39:12Z</time>
      </trkpt>
      <trkpt lat="42.621472" lon="0.473232">
        <ele>1755.000000</ele>
        <time>2021-09-04T09:39:13Z</time>
      </trkpt>
      <trkpt lat="42.621478" lon="0.473222">
        <ele>1755.000000</ele>
        <time>2021-09-04T09:39:14Z</time>
      </trkpt>
      <trkpt lat="42.621482" lon="0.473215">
        <ele>1755.000000</ele>
        <time>2021-09-04T09:39:15Z</time>
      </trkpt>
      <trkpt lat="42.621488" lon="0.473203">
        <ele>1756.000000</ele>
        <time>2021-09-04T09:39:16Z</time>
      </trkpt>
      <trkpt lat="42.621494" lon="0.473190">
        <ele>1756.000000</ele>
        <time>2021-09-04T09:39:17Z</time>
      </trkpt>
      <trkpt lat="42.621499" lon="0.473173">
        <ele>1756.000000</ele>
        <time>2021-09-04T09:39:18Z</time>
      </trkpt>
      <trkpt lat="42.621504" lon="0.473155">
        <ele>1756.000000</ele>
        <time>2021-09-04T09:39:19Z</time>
      </trkpt>
      <trkpt lat="42.621503" lon="0.473140">
        <ele>1756.000000</ele>
        <time>2021-09-04T09:39:20Z</time>
      </trkpt>
      <trkpt lat="42.621507" lon="0.473130">
        <ele>1756.000000</ele>
        <time>2021-09-04T09:39:21Z</time>
      </trkpt>
      <trkpt lat="42.621510" lon="0.473125">
        <ele>1757.000000</ele>
        <time>2021-09-04T09:39:22Z</time>
      </trkpt>
      <trkpt lat="42.621513" lon="0.473117">
        <ele>1757.000000</ele>
        <time>2021-09-04T09:39:23Z</time>
      </trkpt>
      <trkpt lat="42.621518" lon="0.473107">
        <ele>1757.000000</ele>
        <time>2021-09-04T09:39:24Z</time>
      </trkpt>
      <trkpt lat="42.621522" lon="0.473098">
        <ele>1757.000000</ele>
        <time>2021-09-04T09:39:26Z</time>
      </trkpt>
      <trkpt lat="42.621529" lon="0.473083">
        <ele>1757.000000</ele>
        <time>2021-09-04T09:39:26Z</time>
      </trkpt>
      <trkpt lat="42.621534" lon="0.473067">
        <ele>1758.000000</ele>
        <time>2021-09-04T09:39:27Z</time>
      </trkpt>
      <trkpt lat="42.621537" lon="0.473058">
        <ele>1758.000000</ele>
        <time>2021-09-04T09:39:28Z</time>
      </trkpt>
      <trkpt lat="42.621541" lon="0.473045">
        <ele>1758.000000</ele>
        <time>2021-09-04T09:39:29Z</time>
      </trkpt>
      <trkpt lat="42.621547" lon="0.473032">
        <ele>1758.000000</ele>
        <time>2021-09-04T09:39:30Z</time>
      </trkpt>
      <trkpt lat="42.621553" lon="0.473022">
        <ele>1758.000000</ele>
        <time>2021-09-04T09:39:31Z</time>
      </trkpt>
      <trkpt lat="42.621560" lon="0.473010">
        <ele>1758.000000</ele>
        <time>2021-09-04T09:39:32Z</time>
      </trkpt>
      <trkpt lat="42.621566" lon="0.472998">
        <ele>1758.000000</ele>
        <time>2021-09-04T09:39:33Z</time>
      </trkpt>
      <trkpt lat="42.621572" lon="0.472983">
        <ele>1758.000000</ele>
        <time>2021-09-04T09:39:34Z</time>
      </trkpt>
      <trkpt lat="42.621578" lon="0.472970">
        <ele>1758.000000</ele>
        <time>2021-09-04T09:39:35Z</time>
      </trkpt>
      <trkpt lat="42.621583" lon="0.472958">
        <ele>1758.000000</ele>
        <time>2021-09-04T09:39:36Z</time>
      </trkpt>
      <trkpt lat="42.621589" lon="0.472947">
        <ele>1758.000000</ele>
        <time>2021-09-04T09:39:37Z</time>
      </trkpt>
      <trkpt lat="42.621594" lon="0.472937">
        <ele>1758.000000</ele>
        <time>2021-09-04T09:39:38Z</time>
      </trkpt>
      <trkpt lat="42.621601" lon="0.472920">
        <ele>1758.000000</ele>
        <time>2021-09-04T09:39:39Z</time>
      </trkpt>
      <trkpt lat="42.621606" lon="0.472910">
        <ele>1758.000000</ele>
        <time>2021-09-04T09:39:40Z</time>
      </trkpt>
      <trkpt lat="42.621608" lon="0.472903">
        <ele>1758.000000</ele>
        <time>2021-09-04T09:39:41Z</time>
      </trkpt>
      <trkpt lat="42.621613" lon="0.472892">
        <ele>1759.000000</ele>
        <time>2021-09-04T09:39:42Z</time>
      </trkpt>
      <trkpt lat="42.621618" lon="0.472882">
        <ele>1759.000000</ele>
        <time>2021-09-04T09:39:43Z</time>
      </trkpt>
      <trkpt lat="42.621624" lon="0.472867">
        <ele>1759.000000</ele>
        <time>2021-09-04T09:39:44Z</time>
      </trkpt>
      <trkpt lat="42.621627" lon="0.472857">
        <ele>1759.000000</ele>
        <time>2021-09-04T09:39:45Z</time>
      </trkpt>
      <trkpt lat="42.621631" lon="0.472847">
        <ele>1759.000000</ele>
        <time>2021-09-04T09:39:46Z</time>
      </trkpt>
      <trkpt lat="42.621625" lon="0.472827">
        <ele>1759.000000</ele>
        <time>2021-09-04T09:39:47Z</time>
      </trkpt>
      <trkpt lat="42.621625" lon="0.472810">
        <ele>1759.000000</ele>
        <time>2021-09-04T09:39:48Z</time>
      </trkpt>
      <trkpt lat="42.621628" lon="0.472795">
        <ele>1759.000000</ele>
        <time>2021-09-04T09:39:49Z</time>
      </trkpt>
      <trkpt lat="42.621630" lon="0.472777">
        <ele>1759.000000</ele>
        <time>2021-09-04T09:39:50Z</time>
      </trkpt>
      <trkpt lat="42.621634" lon="0.472757">
        <ele>1759.000000</ele>
        <time>2021-09-04T09:39:51Z</time>
      </trkpt>
      <trkpt lat="42.621638" lon="0.472745">
        <ele>1759.000000</ele>
        <time>2021-09-04T09:39:52Z</time>
      </trkpt>
      <trkpt lat="42.621641" lon="0.472735">
        <ele>1759.000000</ele>
        <time>2021-09-04T09:39:53Z</time>
      </trkpt>
      <trkpt lat="42.621644" lon="0.472718">
        <ele>1759.000000</ele>
        <time>2021-09-04T09:39:54Z</time>
      </trkpt>
      <trkpt lat="42.621645" lon="0.472705">
        <ele>1760.000000</ele>
        <time>2021-09-04T09:39:54Z</time>
      </trkpt>
      <trkpt lat="42.621646" lon="0.472685">
        <ele>1760.000000</ele>
        <time>2021-09-04T09:39:55Z</time>
      </trkpt>
      <trkpt lat="42.621644" lon="0.472678">
        <ele>1760.000000</ele>
        <time>2021-09-04T09:39:56Z</time>
      </trkpt>
      <trkpt lat="42.621644" lon="0.472665">
        <ele>1760.000000</ele>
        <time>2021-09-04T09:39:57Z</time>
      </trkpt>
      <trkpt lat="42.621645" lon="0.472650">
        <ele>1760.000000</ele>
        <time>2021-09-04T09:39:58Z</time>
      </trkpt>
      <trkpt lat="42.621646" lon="0.472633">
        <ele>1760.000000</ele>
        <time>2021-09-04T09:39:59Z</time>
      </trkpt>
      <trkpt lat="42.621647" lon="0.472623">
        <ele>1760.000000</ele>
        <time>2021-09-04T09:40:00Z</time>
      </trkpt>
      <trkpt lat="42.621648" lon="0.472617">
        <ele>1760.000000</ele>
        <time>2021-09-04T09:40:01Z</time>
      </trkpt>
      <trkpt lat="42.621648" lon="0.472610">
        <ele>1760.000000</ele>
        <time>2021-09-04T09:40:02Z</time>
      </trkpt>
      <trkpt lat="42.621643" lon="0.472607">
        <ele>1760.000000</ele>
        <time>2021-09-04T09:40:03Z</time>
      </trkpt>
      <trkpt lat="42.621642" lon="0.472603">
        <ele>1760.000000</ele>
        <time>2021-09-04T09:40:04Z</time>
      </trkpt>
      <trkpt lat="42.621647" lon="0.472598">
        <ele>1760.000000</ele>
        <time>2021-09-04T09:40:05Z</time>
      </trkpt>
      <trkpt lat="42.621650" lon="0.472593">
        <ele>1760.000000</ele>
        <time>2021-09-04T09:40:06Z</time>
      </trkpt>
      <trkpt lat="42.621650" lon="0.472590">
        <ele>1760.000000</ele>
        <time>2021-09-04T09:40:07Z</time>
      </trkpt>
      <trkpt lat="42.621652" lon="0.472587">
        <ele>1760.000000</ele>
        <time>2021-09-04T09:40:08Z</time>
      </trkpt>
      <trkpt lat="42.621652" lon="0.472578">
        <ele>1760.000000</ele>
        <time>2021-09-04T09:40:09Z</time>
      </trkpt>
      <trkpt lat="42.621652" lon="0.472565">
        <ele>1760.000000</ele>
        <time>2021-09-04T09:40:10Z</time>
      </trkpt>
      <trkpt lat="42.621652" lon="0.472550">
        <ele>1760.000000</ele>
        <time>2021-09-04T09:40:11Z</time>
      </trkpt>
      <trkpt lat="42.621657" lon="0.472542">
        <ele>1760.000000</ele>
        <time>2021-09-04T09:40:12Z</time>
      </trkpt>
      <trkpt lat="42.621663" lon="0.472532">
        <ele>1760.000000</ele>
        <time>2021-09-04T09:40:13Z</time>
      </trkpt>
      <trkpt lat="42.621668" lon="0.472513">
        <ele>1760.000000</ele>
        <time>2021-09-04T09:40:14Z</time>
      </trkpt>
      <trkpt lat="42.621670" lon="0.472500">
        <ele>1760.000000</ele>
        <time>2021-09-04T09:40:15Z</time>
      </trkpt>
      <trkpt lat="42.621673" lon="0.472482">
        <ele>1760.000000</ele>
        <time>2021-09-04T09:40:16Z</time>
      </trkpt>
      <trkpt lat="42.621675" lon="0.472465">
        <ele>1760.000000</ele>
        <time>2021-09-04T09:40:17Z</time>
      </trkpt>
      <trkpt lat="42.621677" lon="0.472452">
        <ele>1760.000000</ele>
        <time>2021-09-04T09:40:18Z</time>
      </trkpt>
      <trkpt lat="42.621677" lon="0.472433">
        <ele>1760.000000</ele>
        <time>2021-09-04T09:40:19Z</time>
      </trkpt>
      <trkpt lat="42.621678" lon="0.472422">
        <ele>1760.000000</ele>
        <time>2021-09-04T09:40:20Z</time>
      </trkpt>
      <trkpt lat="42.621682" lon="0.472405">
        <ele>1760.000000</ele>
        <time>2021-09-04T09:40:21Z</time>
      </trkpt>
      <trkpt lat="42.621685" lon="0.472395">
        <ele>1760.000000</ele>
        <time>2021-09-04T09:40:22Z</time>
      </trkpt>
      <trkpt lat="42.621689" lon="0.472385">
        <ele>1760.000000</ele>
        <time>2021-09-04T09:40:23Z</time>
      </trkpt>
      <trkpt lat="42.621692" lon="0.472378">
        <ele>1760.000000</ele>
        <time>2021-09-04T09:40:24Z</time>
      </trkpt>
      <trkpt lat="42.621695" lon="0.472370">
        <ele>1760.000000</ele>
        <time>2021-09-04T09:40:25Z</time>
      </trkpt>
      <trkpt lat="42.621698" lon="0.472358">
        <ele>1760.000000</ele>
        <time>2021-09-04T09:40:26Z</time>
      </trkpt>
      <trkpt lat="42.621702" lon="0.472347">
        <ele>1760.000000</ele>
        <time>2021-09-04T09:40:27Z</time>
      </trkpt>
      <trkpt lat="42.621706" lon="0.472335">
        <ele>1760.000000</ele>
        <time>2021-09-04T09:40:28Z</time>
      </trkpt>
      <trkpt lat="42.621718" lon="0.472328">
        <ele>1762.000000</ele>
        <time>2021-09-04T09:40:29Z</time>
      </trkpt>
      <trkpt lat="42.621718" lon="0.472325">
        <ele>1762.000000</ele>
        <time>2021-09-04T09:40:30Z</time>
      </trkpt>
      <trkpt lat="42.621718" lon="0.472327">
        <ele>1762.000000</ele>
        <time>2021-09-04T09:40:31Z</time>
      </trkpt>
      <trkpt lat="42.621716" lon="0.472330">
        <ele>1762.000000</ele>
        <time>2021-09-04T09:40:32Z</time>
      </trkpt>
      <trkpt lat="42.621718" lon="0.472330">
        <ele>1762.000000</ele>
        <time>2021-09-04T09:40:34Z</time>
      </trkpt>
      <trkpt lat="42.621715" lon="0.472328">
        <ele>1762.000000</ele>
        <time>2021-09-04T09:40:36Z</time>
      </trkpt>
      <trkpt lat="42.621715" lon="0.472326">
        <ele>1762.000000</ele>
        <time>2021-09-04T09:40:37Z</time>
      </trkpt>
      <trkpt lat="42.621717" lon="0.472325">
        <ele>1762.000000</ele>
        <time>2021-09-04T09:40:38Z</time>
      </trkpt>
      <trkpt lat="42.621720" lon="0.472313">
        <ele>1762.000000</ele>
        <time>2021-09-04T09:40:39Z</time>
      </trkpt>
      <trkpt lat="42.621717" lon="0.472300">
        <ele>1762.000000</ele>
        <time>2021-09-04T09:40:40Z</time>
      </trkpt>
      <trkpt lat="42.621715" lon="0.472293">
        <ele>1762.000000</ele>
        <time>2021-09-04T09:40:41Z</time>
      </trkpt>
      <trkpt lat="42.621717" lon="0.472290">
        <ele>1762.000000</ele>
        <time>2021-09-04T09:40:42Z</time>
      </trkpt>
      <trkpt lat="42.621720" lon="0.472282">
        <ele>1762.000000</ele>
        <time>2021-09-04T09:40:43Z</time>
      </trkpt>
      <trkpt lat="42.621724" lon="0.472277">
        <ele>1762.000000</ele>
        <time>2021-09-04T09:40:44Z</time>
      </trkpt>
      <trkpt lat="42.621730" lon="0.472265">
        <ele>1762.000000</ele>
        <time>2021-09-04T09:40:45Z</time>
      </trkpt>
      <trkpt lat="42.621733" lon="0.472253">
        <ele>1762.000000</ele>
        <time>2021-09-04T09:40:46Z</time>
      </trkpt>
      <trkpt lat="42.621734" lon="0.472247">
        <ele>1762.000000</ele>
        <time>2021-09-04T09:40:47Z</time>
      </trkpt>
      <trkpt lat="42.621736" lon="0.472242">
        <ele>1762.000000</ele>
        <time>2021-09-04T09:40:48Z</time>
      </trkpt>
      <trkpt lat="42.621739" lon="0.472235">
        <ele>1762.000000</ele>
        <time>2021-09-04T09:40:49Z</time>
      </trkpt>
      <trkpt lat="42.621748" lon="0.472230">
        <ele>1762.000000</ele>
        <time>2021-09-04T09:40:50Z</time>
      </trkpt>
      <trkpt lat="42.621748" lon="0.472223">
        <ele>1762.000000</ele>
        <time>2021-09-04T09:40:51Z</time>
      </trkpt>
      <trkpt lat="42.621753" lon="0.472215">
        <ele>1762.000000</ele>
        <time>2021-09-04T09:40:52Z</time>
      </trkpt>
      <trkpt lat="42.621757" lon="0.472203">
        <ele>1762.000000</ele>
        <time>2021-09-04T09:40:53Z</time>
      </trkpt>
      <trkpt lat="42.621761" lon="0.472198">
        <ele>1762.000000</ele>
        <time>2021-09-04T09:40:54Z</time>
      </trkpt>
      <trkpt lat="42.621768" lon="0.472193">
        <ele>1762.000000</ele>
        <time>2021-09-04T09:40:55Z</time>
      </trkpt>
      <trkpt lat="42.621775" lon="0.472183">
        <ele>1762.000000</ele>
        <time>2021-09-04T09:40:56Z</time>
      </trkpt>
      <trkpt lat="42.621777" lon="0.472178">
        <ele>1762.000000</ele>
        <time>2021-09-04T09:40:57Z</time>
      </trkpt>
      <trkpt lat="42.621785" lon="0.472168">
        <ele>1762.000000</ele>
        <time>2021-09-04T09:40:58Z</time>
      </trkpt>
      <trkpt lat="42.621790" lon="0.472159">
        <ele>1762.000000</ele>
        <time>2021-09-04T09:40:59Z</time>
      </trkpt>
      <trkpt lat="42.621790" lon="0.472152">
        <ele>1762.000000</ele>
        <time>2021-09-04T09:41:00Z</time>
      </trkpt>
      <trkpt lat="42.621790" lon="0.472147">
        <ele>1762.000000</ele>
        <time>2021-09-04T09:41:01Z</time>
      </trkpt>
      <trkpt lat="42.621792" lon="0.472138">
        <ele>1762.000000</ele>
        <time>2021-09-04T09:41:02Z</time>
      </trkpt>
      <trkpt lat="42.621795" lon="0.472138">
        <ele>1762.000000</ele>
        <time>2021-09-04T09:41:03Z</time>
      </trkpt>
      <trkpt lat="42.621797" lon="0.472133">
        <ele>1762.000000</ele>
        <time>2021-09-04T09:41:05Z</time>
      </trkpt>
      <trkpt lat="42.621800" lon="0.472133">
        <ele>1762.000000</ele>
        <time>2021-09-04T09:41:06Z</time>
      </trkpt>
      <trkpt lat="42.621807" lon="0.472130">
        <ele>1762.000000</ele>
        <time>2021-09-04T09:41:07Z</time>
      </trkpt>
      <trkpt lat="42.621815" lon="0.472127">
        <ele>1762.000000</ele>
        <time>2021-09-04T09:41:08Z</time>
      </trkpt>
      <trkpt lat="42.621822" lon="0.472122">
        <ele>1762.000000</ele>
        <time>2021-09-04T09:41:09Z</time>
      </trkpt>
      <trkpt lat="42.621825" lon="0.472116">
        <ele>1762.000000</ele>
        <time>2021-09-04T09:41:10Z</time>
      </trkpt>
      <trkpt lat="42.621833" lon="0.472108">
        <ele>1762.000000</ele>
        <time>2021-09-04T09:41:11Z</time>
      </trkpt>
      <trkpt lat="42.621840" lon="0.472097">
        <ele>1762.000000</ele>
        <time>2021-09-04T09:41:12Z</time>
      </trkpt>
      <trkpt lat="42.621845" lon="0.472090">
        <ele>1762.000000</ele>
        <time>2021-09-04T09:41:13Z</time>
      </trkpt>
      <trkpt lat="42.621850" lon="0.472083">
        <ele>1762.000000</ele>
        <time>2021-09-04T09:41:14Z</time>
      </trkpt>
      <trkpt lat="42.621857" lon="0.472073">
        <ele>1762.000000</ele>
        <time>2021-09-04T09:41:15Z</time>
      </trkpt>
      <trkpt lat="42.621867" lon="0.472066">
        <ele>1762.000000</ele>
        <time>2021-09-04T09:41:16Z</time>
      </trkpt>
      <trkpt lat="42.621868" lon="0.472063">
        <ele>1762.000000</ele>
        <time>2021-09-04T09:41:17Z</time>
      </trkpt>
      <trkpt lat="42.621870" lon="0.472060">
        <ele>1762.000000</ele>
        <time>2021-09-04T09:41:18Z</time>
      </trkpt>
      <trkpt lat="42.621873" lon="0.472058">
        <ele>1762.000000</ele>
        <time>2021-09-04T09:41:20Z</time>
      </trkpt>
      <trkpt lat="42.621877" lon="0.472060">
        <ele>1762.000000</ele>
        <time>2021-09-04T09:41:21Z</time>
      </trkpt>
      <trkpt lat="42.621877" lon="0.472056">
        <ele>1762.000000</ele>
        <time>2021-09-04T09:41:23Z</time>
      </trkpt>
      <trkpt lat="42.621887" lon="0.472045">
        <ele>1762.000000</ele>
        <time>2021-09-04T09:41:24Z</time>
      </trkpt>
      <trkpt lat="42.621898" lon="0.472034">
        <ele>1762.000000</ele>
        <time>2021-09-04T09:41:25Z</time>
      </trkpt>
      <trkpt lat="42.621902" lon="0.472026">
        <ele>1762.000000</ele>
        <time>2021-09-04T09:41:26Z</time>
      </trkpt>
      <trkpt lat="42.621898" lon="0.472012">
        <ele>1762.000000</ele>
        <time>2021-09-04T09:41:27Z</time>
      </trkpt>
      <trkpt lat="42.621895" lon="0.472005">
        <ele>1762.000000</ele>
        <time>2021-09-04T09:41:28Z</time>
      </trkpt>
      <trkpt lat="42.621893" lon="0.472003">
        <ele>1762.000000</ele>
        <time>2021-09-04T09:41:29Z</time>
      </trkpt>
      <trkpt lat="42.621895" lon="0.471998">
        <ele>1764.000000</ele>
        <time>2021-09-04T09:41:31Z</time>
      </trkpt>
      <trkpt lat="42.621900" lon="0.471990">
        <ele>1764.000000</ele>
        <time>2021-09-04T09:41:32Z</time>
      </trkpt>
      <trkpt lat="42.621905" lon="0.471982">
        <ele>1764.000000</ele>
        <time>2021-09-04T09:41:33Z</time>
      </trkpt>
      <trkpt lat="42.621912" lon="0.471968">
        <ele>1764.000000</ele>
        <time>2021-09-04T09:41:34Z</time>
      </trkpt>
      <trkpt lat="42.621918" lon="0.471960">
        <ele>1764.000000</ele>
        <time>2021-09-04T09:41:35Z</time>
      </trkpt>
      <trkpt lat="42.621925" lon="0.471948">
        <ele>1764.000000</ele>
        <time>2021-09-04T09:41:36Z</time>
      </trkpt>
      <trkpt lat="42.621930" lon="0.471935">
        <ele>1764.000000</ele>
        <time>2021-09-04T09:41:37Z</time>
      </trkpt>
      <trkpt lat="42.621938" lon="0.471925">
        <ele>1764.000000</ele>
        <time>2021-09-04T09:41:38Z</time>
      </trkpt>
      <trkpt lat="42.621946" lon="0.471915">
        <ele>1764.000000</ele>
        <time>2021-09-04T09:41:39Z</time>
      </trkpt>
      <trkpt lat="42.621952" lon="0.471907">
        <ele>1765.000000</ele>
        <time>2021-09-04T09:41:40Z</time>
      </trkpt>
      <trkpt lat="42.621955" lon="0.471900">
        <ele>1765.000000</ele>
        <time>2021-09-04T09:41:41Z</time>
      </trkpt>
      <trkpt lat="42.621955" lon="0.471890">
        <ele>1765.000000</ele>
        <time>2021-09-04T09:41:42Z</time>
      </trkpt>
      <trkpt lat="42.621959" lon="0.471888">
        <ele>1765.000000</ele>
        <time>2021-09-04T09:41:43Z</time>
      </trkpt>
      <trkpt lat="42.621968" lon="0.471885">
        <ele>1765.000000</ele>
        <time>2021-09-04T09:41:44Z</time>
      </trkpt>
      <trkpt lat="42.621977" lon="0.471880">
        <ele>1765.000000</ele>
        <time>2021-09-04T09:41:45Z</time>
      </trkpt>
      <trkpt lat="42.621983" lon="0.471870">
        <ele>1766.000000</ele>
        <time>2021-09-04T09:41:46Z</time>
      </trkpt>
      <trkpt lat="42.621985" lon="0.471864">
        <ele>1766.000000</ele>
        <time>2021-09-04T09:41:47Z</time>
      </trkpt>
      <trkpt lat="42.621988" lon="0.471853">
        <ele>1766.000000</ele>
        <time>2021-09-04T09:41:48Z</time>
      </trkpt>
      <trkpt lat="42.621992" lon="0.471843">
        <ele>1766.000000</ele>
        <time>2021-09-04T09:41:49Z</time>
      </trkpt>
      <trkpt lat="42.621995" lon="0.471837">
        <ele>1766.000000</ele>
        <time>2021-09-04T09:41:50Z</time>
      </trkpt>
      <trkpt lat="42.621997" lon="0.471827">
        <ele>1766.000000</ele>
        <time>2021-09-04T09:41:51Z</time>
      </trkpt>
      <trkpt lat="42.622000" lon="0.471813">
        <ele>1766.000000</ele>
        <time>2021-09-04T09:41:52Z</time>
      </trkpt>
      <trkpt lat="42.622005" lon="0.471803">
        <ele>1766.000000</ele>
        <time>2021-09-04T09:41:53Z</time>
      </trkpt>
      <trkpt lat="42.622005" lon="0.471800">
        <ele>1766.000000</ele>
        <time>2021-09-04T09:41:54Z</time>
      </trkpt>
      <trkpt lat="42.622006" lon="0.471800">
        <ele>1766.000000</ele>
        <time>2021-09-04T09:41:55Z</time>
      </trkpt>
      <trkpt lat="42.622008" lon="0.471802">
        <ele>1766.000000</ele>
        <time>2021-09-04T09:41:56Z</time>
      </trkpt>
      <trkpt lat="42.622022" lon="0.471803">
        <ele>1766.000000</ele>
        <time>2021-09-04T09:41:57Z</time>
      </trkpt>
      <trkpt lat="42.622023" lon="0.471805">
        <ele>1766.000000</ele>
        <time>2021-09-04T09:41:58Z</time>
      </trkpt>
      <trkpt lat="42.622027" lon="0.471799">
        <ele>1767.000000</ele>
        <time>2021-09-04T09:41:59Z</time>
      </trkpt>
      <trkpt lat="42.622033" lon="0.471791">
        <ele>1767.000000</ele>
        <time>2021-09-04T09:42:00Z</time>
      </trkpt>
      <trkpt lat="42.622038" lon="0.471785">
        <ele>1767.000000</ele>
        <time>2021-09-04T09:42:01Z</time>
      </trkpt>
      <trkpt lat="42.622040" lon="0.471780">
        <ele>1767.000000</ele>
        <time>2021-09-04T09:42:02Z</time>
      </trkpt>
      <trkpt lat="42.622045" lon="0.471773">
        <ele>1767.000000</ele>
        <time>2021-09-04T09:42:03Z</time>
      </trkpt>
      <trkpt lat="42.622050" lon="0.471767">
        <ele>1767.000000</ele>
        <time>2021-09-04T09:42:04Z</time>
      </trkpt>
      <trkpt lat="42.622057" lon="0.471757">
        <ele>1767.000000</ele>
        <time>2021-09-04T09:42:05Z</time>
      </trkpt>
      <trkpt lat="42.622065" lon="0.471745">
        <ele>1767.000000</ele>
        <time>2021-09-04T09:42:06Z</time>
      </trkpt>
      <trkpt lat="42.622073" lon="0.471732">
        <ele>1767.000000</ele>
        <time>2021-09-04T09:42:07Z</time>
      </trkpt>
      <trkpt lat="42.622075" lon="0.471725">
        <ele>1767.000000</ele>
        <time>2021-09-04T09:42:08Z</time>
      </trkpt>
      <trkpt lat="42.622082" lon="0.471700">
        <ele>1767.000000</ele>
        <time>2021-09-04T09:42:09Z</time>
      </trkpt>
      <trkpt lat="42.622090" lon="0.471682">
        <ele>1767.000000</ele>
        <time>2021-09-04T09:42:10Z</time>
      </trkpt>
      <trkpt lat="42.622100" lon="0.471673">
        <ele>1767.000000</ele>
        <time>2021-09-04T09:42:11Z</time>
      </trkpt>
      <trkpt lat="42.622107" lon="0.471665">
        <ele>1768.000000</ele>
        <time>2021-09-04T09:42:12Z</time>
      </trkpt>
      <trkpt lat="42.622117" lon="0.471662">
        <ele>1768.000000</ele>
        <time>2021-09-04T09:42:13Z</time>
      </trkpt>
      <trkpt lat="42.622128" lon="0.471648">
        <ele>1768.000000</ele>
        <time>2021-09-04T09:42:14Z</time>
      </trkpt>
      <trkpt lat="42.622137" lon="0.471640">
        <ele>1768.000000</ele>
        <time>2021-09-04T09:42:15Z</time>
      </trkpt>
      <trkpt lat="42.622147" lon="0.471635">
        <ele>1768.000000</ele>
        <time>2021-09-04T09:42:16Z</time>
      </trkpt>
      <trkpt lat="42.622150" lon="0.471633">
        <ele>1768.000000</ele>
        <time>2021-09-04T09:42:17Z</time>
      </trkpt>
      <trkpt lat="42.622160" lon="0.471624">
        <ele>1768.000000</ele>
        <time>2021-09-04T09:42:18Z</time>
      </trkpt>
      <trkpt lat="42.622162" lon="0.471620">
        <ele>1768.000000</ele>
        <time>2021-09-04T09:42:19Z</time>
      </trkpt>
      <trkpt lat="42.622170" lon="0.471612">
        <ele>1768.000000</ele>
        <time>2021-09-04T09:42:20Z</time>
      </trkpt>
      <trkpt lat="42.622178" lon="0.471605">
        <ele>1768.000000</ele>
        <time>2021-09-04T09:42:21Z</time>
      </trkpt>
      <trkpt lat="42.622188" lon="0.471600">
        <ele>1768.000000</ele>
        <time>2021-09-04T09:42:22Z</time>
      </trkpt>
      <trkpt lat="42.622195" lon="0.471597">
        <ele>1768.000000</ele>
        <time>2021-09-04T09:42:23Z</time>
      </trkpt>
      <trkpt lat="42.622198" lon="0.471596">
        <ele>1768.000000</ele>
        <time>2021-09-04T09:42:24Z</time>
      </trkpt>
      <trkpt lat="42.622200" lon="0.471605">
        <ele>1768.000000</ele>
        <time>2021-09-04T09:42:26Z</time>
      </trkpt>
      <trkpt lat="42.622207" lon="0.471607">
        <ele>1768.000000</ele>
        <time>2021-09-04T09:42:27Z</time>
      </trkpt>
      <trkpt lat="42.622215" lon="0.471608">
        <ele>1768.000000</ele>
        <time>2021-09-04T09:42:28Z</time>
      </trkpt>
      <trkpt lat="42.622222" lon="0.471606">
        <ele>1768.000000</ele>
        <time>2021-09-04T09:42:29Z</time>
      </trkpt>
      <trkpt lat="42.622228" lon="0.471604">
        <ele>1769.000000</ele>
        <time>2021-09-04T09:42:30Z</time>
      </trkpt>
      <trkpt lat="42.622235" lon="0.471600">
        <ele>1769.000000</ele>
        <time>2021-09-04T09:42:31Z</time>
      </trkpt>
      <trkpt lat="42.622238" lon="0.471597">
        <ele>1769.000000</ele>
        <time>2021-09-04T09:42:32Z</time>
      </trkpt>
      <trkpt lat="42.622243" lon="0.471596">
        <ele>1769.000000</ele>
        <time>2021-09-04T09:42:33Z</time>
      </trkpt>
      <trkpt lat="42.622252" lon="0.471593">
        <ele>1769.000000</ele>
        <time>2021-09-04T09:42:34Z</time>
      </trkpt>
      <trkpt lat="42.622260" lon="0.471592">
        <ele>1769.000000</ele>
        <time>2021-09-04T09:42:35Z</time>
      </trkpt>
      <trkpt lat="42.622267" lon="0.471589">
        <ele>1769.000000</ele>
        <time>2021-09-04T09:42:36Z</time>
      </trkpt>
      <trkpt lat="42.622265" lon="0.471589">
        <ele>1769.000000</ele>
        <time>2021-09-04T09:42:37Z</time>
      </trkpt>
      <trkpt lat="42.622263" lon="0.471590">
        <ele>1769.000000</ele>
        <time>2021-09-04T09:42:38Z</time>
      </trkpt>
      <trkpt lat="42.622265" lon="0.471590">
        <ele>1770.000000</ele>
        <time>2021-09-04T09:42:39Z</time>
      </trkpt>
      <trkpt lat="42.622268" lon="0.471591">
        <ele>1770.000000</ele>
        <time>2021-09-04T09:42:40Z</time>
      </trkpt>
      <trkpt lat="42.622267" lon="0.471592">
        <ele>1770.000000</ele>
        <time>2021-09-04T09:42:41Z</time>
      </trkpt>
      <trkpt lat="42.622265" lon="0.471593">
        <ele>1770.000000</ele>
        <time>2021-09-04T09:42:43Z</time>
      </trkpt>
      <trkpt lat="42.622270" lon="0.471592">
        <ele>1770.000000</ele>
        <time>2021-09-04T09:42:44Z</time>
      </trkpt>
      <trkpt lat="42.622275" lon="0.471591">
        <ele>1771.000000</ele>
        <time>2021-09-04T09:42:45Z</time>
      </trkpt>
      <trkpt lat="42.622283" lon="0.471575">
        <ele>1771.000000</ele>
        <time>2021-09-04T09:42:46Z</time>
      </trkpt>
      <trkpt lat="42.622290" lon="0.471558">
        <ele>1771.000000</ele>
        <time>2021-09-04T09:42:47Z</time>
      </trkpt>
      <trkpt lat="42.622298" lon="0.471545">
        <ele>1771.000000</ele>
        <time>2021-09-04T09:42:48Z</time>
      </trkpt>
      <trkpt lat="42.622305" lon="0.471530">
        <ele>1771.000000</ele>
        <time>2021-09-04T09:42:49Z</time>
      </trkpt>
      <trkpt lat="42.622310" lon="0.471517">
        <ele>1771.000000</ele>
        <time>2021-09-04T09:42:50Z</time>
      </trkpt>
      <trkpt lat="42.622318" lon="0.471508">
        <ele>1771.000000</ele>
        <time>2021-09-04T09:42:51Z</time>
      </trkpt>
      <trkpt lat="42.622335" lon="0.471498">
        <ele>1772.000000</ele>
        <time>2021-09-04T09:42:52Z</time>
      </trkpt>
      <trkpt lat="42.622348" lon="0.471493">
        <ele>1772.000000</ele>
        <time>2021-09-04T09:42:53Z</time>
      </trkpt>
      <trkpt lat="42.622357" lon="0.471487">
        <ele>1772.000000</ele>
        <time>2021-09-04T09:42:54Z</time>
      </trkpt>
      <trkpt lat="42.622363" lon="0.471473">
        <ele>1772.000000</ele>
        <time>2021-09-04T09:42:55Z</time>
      </trkpt>
      <trkpt lat="42.622367" lon="0.471469">
        <ele>1772.000000</ele>
        <time>2021-09-04T09:42:56Z</time>
      </trkpt>
      <trkpt lat="42.622372" lon="0.471463">
        <ele>1772.000000</ele>
        <time>2021-09-04T09:42:57Z</time>
      </trkpt>
      <trkpt lat="42.622373" lon="0.471461">
        <ele>1772.000000</ele>
        <time>2021-09-04T09:42:58Z</time>
      </trkpt>
      <trkpt lat="42.622372" lon="0.471463">
        <ele>1773.000000</ele>
        <time>2021-09-04T09:42:59Z</time>
      </trkpt>
      <trkpt lat="42.622365" lon="0.471472">
        <ele>1773.000000</ele>
        <time>2021-09-04T09:43:00Z</time>
      </trkpt>
      <trkpt lat="42.622362" lon="0.471477">
        <ele>1773.000000</ele>
        <time>2021-09-04T09:43:01Z</time>
      </trkpt>
      <trkpt lat="42.622360" lon="0.471479">
        <ele>1773.000000</ele>
        <time>2021-09-04T09:43:02Z</time>
      </trkpt>
      <trkpt lat="42.622363" lon="0.471475">
        <ele>1773.000000</ele>
        <time>2021-09-04T09:43:03Z</time>
      </trkpt>
      <trkpt lat="42.622372" lon="0.471465">
        <ele>1773.000000</ele>
        <time>2021-09-04T09:43:04Z</time>
      </trkpt>
      <trkpt lat="42.622380" lon="0.471460">
        <ele>1773.000000</ele>
        <time>2021-09-04T09:43:05Z</time>
      </trkpt>
      <trkpt lat="42.622385" lon="0.471460">
        <ele>1773.000000</ele>
        <time>2021-09-04T09:43:06Z</time>
      </trkpt>
      <trkpt lat="42.622390" lon="0.471458">
        <ele>1773.000000</ele>
        <time>2021-09-04T09:43:07Z</time>
      </trkpt>
      <trkpt lat="42.622393" lon="0.471453">
        <ele>1773.000000</ele>
        <time>2021-09-04T09:43:09Z</time>
      </trkpt>
      <trkpt lat="42.622403" lon="0.471442">
        <ele>1773.000000</ele>
        <time>2021-09-04T09:43:09Z</time>
      </trkpt>
      <trkpt lat="42.622413" lon="0.471433">
        <ele>1773.000000</ele>
        <time>2021-09-04T09:43:10Z</time>
      </trkpt>
      <trkpt lat="42.622420" lon="0.471432">
        <ele>1773.000000</ele>
        <time>2021-09-04T09:43:11Z</time>
      </trkpt>
      <trkpt lat="42.622425" lon="0.471429">
        <ele>1773.000000</ele>
        <time>2021-09-04T09:43:12Z</time>
      </trkpt>
      <trkpt lat="42.622432" lon="0.471425">
        <ele>1774.000000</ele>
        <time>2021-09-04T09:43:13Z</time>
      </trkpt>
      <trkpt lat="42.622437" lon="0.471424">
        <ele>1774.000000</ele>
        <time>2021-09-04T09:43:14Z</time>
      </trkpt>
      <trkpt lat="42.622442" lon="0.471426">
        <ele>1774.000000</ele>
        <time>2021-09-04T09:43:15Z</time>
      </trkpt>
      <trkpt lat="42.622448" lon="0.471429">
        <ele>1774.000000</ele>
        <time>2021-09-04T09:43:16Z</time>
      </trkpt>
      <trkpt lat="42.622458" lon="0.471430">
        <ele>1774.000000</ele>
        <time>2021-09-04T09:43:17Z</time>
      </trkpt>
      <trkpt lat="42.622470" lon="0.471431">
        <ele>1774.000000</ele>
        <time>2021-09-04T09:43:18Z</time>
      </trkpt>
      <trkpt lat="42.622478" lon="0.471432">
        <ele>1775.000000</ele>
        <time>2021-09-04T09:43:19Z</time>
      </trkpt>
      <trkpt lat="42.622482" lon="0.471431">
        <ele>1775.000000</ele>
        <time>2021-09-04T09:43:20Z</time>
      </trkpt>
      <trkpt lat="42.622482" lon="0.471429">
        <ele>1775.000000</ele>
        <time>2021-09-04T09:43:21Z</time>
      </trkpt>
      <trkpt lat="42.622480" lon="0.471428">
        <ele>1775.000000</ele>
        <time>2021-09-04T09:43:22Z</time>
      </trkpt>
      <trkpt lat="42.622480" lon="0.471428">
        <ele>1776.000000</ele>
        <time>2021-09-04T09:43:25Z</time>
      </trkpt>
      <trkpt lat="42.622482" lon="0.471429">
        <ele>1776.000000</ele>
        <time>2021-09-04T09:43:26Z</time>
      </trkpt>
      <trkpt lat="42.622483" lon="0.471431">
        <ele>1776.000000</ele>
        <time>2021-09-04T09:43:27Z</time>
      </trkpt>
      <trkpt lat="42.622480" lon="0.471432">
        <ele>1776.000000</ele>
        <time>2021-09-04T09:43:28Z</time>
      </trkpt>
      <trkpt lat="42.622482" lon="0.471432">
        <ele>1776.000000</ele>
        <time>2021-09-04T09:43:29Z</time>
      </trkpt>
      <trkpt lat="42.622482" lon="0.471433">
        <ele>1777.000000</ele>
        <time>2021-09-04T09:43:30Z</time>
      </trkpt>
      <trkpt lat="42.622485" lon="0.471427">
        <ele>1777.000000</ele>
        <time>2021-09-04T09:43:31Z</time>
      </trkpt>
      <trkpt lat="42.622487" lon="0.471425">
        <ele>1777.000000</ele>
        <time>2021-09-04T09:43:32Z</time>
      </trkpt>
      <trkpt lat="42.622493" lon="0.471423">
        <ele>1777.000000</ele>
        <time>2021-09-04T09:43:33Z</time>
      </trkpt>
      <trkpt lat="42.622498" lon="0.471418">
        <ele>1777.000000</ele>
        <time>2021-09-04T09:43:34Z</time>
      </trkpt>
      <trkpt lat="42.622503" lon="0.471412">
        <ele>1777.000000</ele>
        <time>2021-09-04T09:43:35Z</time>
      </trkpt>
      <trkpt lat="42.622515" lon="0.471401">
        <ele>1777.000000</ele>
        <time>2021-09-04T09:43:36Z</time>
      </trkpt>
      <trkpt lat="42.622523" lon="0.471395">
        <ele>1777.000000</ele>
        <time>2021-09-04T09:43:37Z</time>
      </trkpt>
      <trkpt lat="42.622540" lon="0.471381">
        <ele>1777.000000</ele>
        <time>2021-09-04T09:43:38Z</time>
      </trkpt>
      <trkpt lat="42.622553" lon="0.471371">
        <ele>1777.000000</ele>
        <time>2021-09-04T09:43:39Z</time>
      </trkpt>
      <trkpt lat="42.622562" lon="0.471363">
        <ele>1777.000000</ele>
        <time>2021-09-04T09:43:40Z</time>
      </trkpt>
      <trkpt lat="42.622573" lon="0.471356">
        <ele>1777.000000</ele>
        <time>2021-09-04T09:43:41Z</time>
      </trkpt>
      <trkpt lat="42.622580" lon="0.471355">
        <ele>1777.000000</ele>
        <time>2021-09-04T09:43:42Z</time>
      </trkpt>
      <trkpt lat="42.622587" lon="0.471352">
        <ele>1777.000000</ele>
        <time>2021-09-04T09:43:43Z</time>
      </trkpt>
      <trkpt lat="42.622593" lon="0.471349">
        <ele>1777.000000</ele>
        <time>2021-09-04T09:43:44Z</time>
      </trkpt>
      <trkpt lat="42.622602" lon="0.471345">
        <ele>1777.000000</ele>
        <time>2021-09-04T09:43:45Z</time>
      </trkpt>
      <trkpt lat="42.622607" lon="0.471340">
        <ele>1777.000000</ele>
        <time>2021-09-04T09:43:46Z</time>
      </trkpt>
      <trkpt lat="42.622603" lon="0.471333">
        <ele>1777.000000</ele>
        <time>2021-09-04T09:43:47Z</time>
      </trkpt>
      <trkpt lat="42.622602" lon="0.471325">
        <ele>1777.000000</ele>
        <time>2021-09-04T09:43:48Z</time>
      </trkpt>
      <trkpt lat="42.622602" lon="0.471312">
        <ele>1777.000000</ele>
        <time>2021-09-04T09:43:49Z</time>
      </trkpt>
      <trkpt lat="42.622603" lon="0.471298">
        <ele>1777.000000</ele>
        <time>2021-09-04T09:43:50Z</time>
      </trkpt>
      <trkpt lat="42.622611" lon="0.471278">
        <ele>1777.000000</ele>
        <time>2021-09-04T09:43:51Z</time>
      </trkpt>
      <trkpt lat="42.622618" lon="0.471267">
        <ele>1777.000000</ele>
        <time>2021-09-04T09:43:52Z</time>
      </trkpt>
      <trkpt lat="42.622621" lon="0.471258">
        <ele>1777.000000</ele>
        <time>2021-09-04T09:43:53Z</time>
      </trkpt>
      <trkpt lat="42.622623" lon="0.471248">
        <ele>1777.000000</ele>
        <time>2021-09-04T09:43:54Z</time>
      </trkpt>
      <trkpt lat="42.622625" lon="0.471240">
        <ele>1777.000000</ele>
        <time>2021-09-04T09:43:55Z</time>
      </trkpt>
      <trkpt lat="42.622624" lon="0.471235">
        <ele>1777.000000</ele>
        <time>2021-09-04T09:43:56Z</time>
      </trkpt>
      <trkpt lat="42.622623" lon="0.471228">
        <ele>1777.000000</ele>
        <time>2021-09-04T09:43:57Z</time>
      </trkpt>
      <trkpt lat="42.622623" lon="0.471218">
        <ele>1777.000000</ele>
        <time>2021-09-04T09:43:58Z</time>
      </trkpt>
      <trkpt lat="42.622623" lon="0.471208">
        <ele>1777.000000</ele>
        <time>2021-09-04T09:43:59Z</time>
      </trkpt>
      <trkpt lat="42.622625" lon="0.471197">
        <ele>1777.000000</ele>
        <time>2021-09-04T09:44:00Z</time>
      </trkpt>
      <trkpt lat="42.622628" lon="0.471185">
        <ele>1777.000000</ele>
        <time>2021-09-04T09:44:01Z</time>
      </trkpt>
      <trkpt lat="42.622631" lon="0.471167">
        <ele>1777.000000</ele>
        <time>2021-09-04T09:44:02Z</time>
      </trkpt>
      <trkpt lat="42.622633" lon="0.471158">
        <ele>1777.000000</ele>
        <time>2021-09-04T09:44:03Z</time>
      </trkpt>
      <trkpt lat="42.622636" lon="0.471143">
        <ele>1777.000000</ele>
        <time>2021-09-04T09:44:04Z</time>
      </trkpt>
      <trkpt lat="42.622639" lon="0.471130">
        <ele>1777.000000</ele>
        <time>2021-09-04T09:44:05Z</time>
      </trkpt>
      <trkpt lat="42.622640" lon="0.471122">
        <ele>1777.000000</ele>
        <time>2021-09-04T09:44:06Z</time>
      </trkpt>
      <trkpt lat="42.622642" lon="0.471112">
        <ele>1777.000000</ele>
        <time>2021-09-04T09:44:07Z</time>
      </trkpt>
      <trkpt lat="42.622644" lon="0.471103">
        <ele>1777.000000</ele>
        <time>2021-09-04T09:44:08Z</time>
      </trkpt>
      <trkpt lat="42.622646" lon="0.471092">
        <ele>1777.000000</ele>
        <time>2021-09-04T09:44:09Z</time>
      </trkpt>
      <trkpt lat="42.622648" lon="0.471077">
        <ele>1777.000000</ele>
        <time>2021-09-04T09:44:09Z</time>
      </trkpt>
      <trkpt lat="42.622651" lon="0.471065">
        <ele>1777.000000</ele>
        <time>2021-09-04T09:44:10Z</time>
      </trkpt>
      <trkpt lat="42.622657" lon="0.471048">
        <ele>1777.000000</ele>
        <time>2021-09-04T09:44:11Z</time>
      </trkpt>
      <trkpt lat="42.622662" lon="0.471030">
        <ele>1777.000000</ele>
        <time>2021-09-04T09:44:12Z</time>
      </trkpt>
      <trkpt lat="42.622669" lon="0.471013">
        <ele>1777.000000</ele>
        <time>2021-09-04T09:44:13Z</time>
      </trkpt>
      <trkpt lat="42.622674" lon="0.471003">
        <ele>1777.000000</ele>
        <time>2021-09-04T09:44:14Z</time>
      </trkpt>
      <trkpt lat="42.622677" lon="0.470997">
        <ele>1777.000000</ele>
        <time>2021-09-04T09:44:15Z</time>
      </trkpt>
      <trkpt lat="42.622681" lon="0.470992">
        <ele>1777.000000</ele>
        <time>2021-09-04T09:44:16Z</time>
      </trkpt>
      <trkpt lat="42.622683" lon="0.470987">
        <ele>1777.000000</ele>
        <time>2021-09-04T09:44:17Z</time>
      </trkpt>
      <trkpt lat="42.622684" lon="0.470985">
        <ele>1777.000000</ele>
        <time>2021-09-04T09:44:18Z</time>
      </trkpt>
      <trkpt lat="42.622686" lon="0.470985">
        <ele>1777.000000</ele>
        <time>2021-09-04T09:44:21Z</time>
      </trkpt>
      <trkpt lat="42.622687" lon="0.470982">
        <ele>1777.000000</ele>
        <time>2021-09-04T09:44:22Z</time>
      </trkpt>
      <trkpt lat="42.622690" lon="0.470977">
        <ele>1777.000000</ele>
        <time>2021-09-04T09:44:23Z</time>
      </trkpt>
      <trkpt lat="42.622695" lon="0.470965">
        <ele>1777.000000</ele>
        <time>2021-09-04T09:44:24Z</time>
      </trkpt>
      <trkpt lat="42.622715" lon="0.470953">
        <ele>1777.000000</ele>
        <time>2021-09-04T09:44:25Z</time>
      </trkpt>
      <trkpt lat="42.622720" lon="0.470943">
        <ele>1777.000000</ele>
        <time>2021-09-04T09:44:26Z</time>
      </trkpt>
      <trkpt lat="42.622728" lon="0.470932">
        <ele>1777.000000</ele>
        <time>2021-09-04T09:44:27Z</time>
      </trkpt>
      <trkpt lat="42.622735" lon="0.470923">
        <ele>1778.000000</ele>
        <time>2021-09-04T09:44:28Z</time>
      </trkpt>
      <trkpt lat="42.622748" lon="0.470910">
        <ele>1778.000000</ele>
        <time>2021-09-04T09:44:29Z</time>
      </trkpt>
      <trkpt lat="42.622758" lon="0.470900">
        <ele>1778.000000</ele>
        <time>2021-09-04T09:44:30Z</time>
      </trkpt>
      <trkpt lat="42.622767" lon="0.470890">
        <ele>1778.000000</ele>
        <time>2021-09-04T09:44:31Z</time>
      </trkpt>
      <trkpt lat="42.622770" lon="0.470884">
        <ele>1778.000000</ele>
        <time>2021-09-04T09:44:32Z</time>
      </trkpt>
      <trkpt lat="42.622768" lon="0.470870">
        <ele>1778.000000</ele>
        <time>2021-09-04T09:44:33Z</time>
      </trkpt>
      <trkpt lat="42.622770" lon="0.470858">
        <ele>1778.000000</ele>
        <time>2021-09-04T09:44:34Z</time>
      </trkpt>
      <trkpt lat="42.622773" lon="0.470852">
        <ele>1778.000000</ele>
        <time>2021-09-04T09:44:35Z</time>
      </trkpt>
      <trkpt lat="42.622778" lon="0.470838">
        <ele>1778.000000</ele>
        <time>2021-09-04T09:44:36Z</time>
      </trkpt>
      <trkpt lat="42.622781" lon="0.470822">
        <ele>1778.000000</ele>
        <time>2021-09-04T09:44:37Z</time>
      </trkpt>
      <trkpt lat="42.622782" lon="0.470810">
        <ele>1778.000000</ele>
        <time>2021-09-04T09:44:38Z</time>
      </trkpt>
      <trkpt lat="42.622777" lon="0.470803">
        <ele>1778.000000</ele>
        <time>2021-09-04T09:44:40Z</time>
      </trkpt>
      <trkpt lat="42.622777" lon="0.470793">
        <ele>1778.000000</ele>
        <time>2021-09-04T09:44:40Z</time>
      </trkpt>
      <trkpt lat="42.622782" lon="0.470787">
        <ele>1778.000000</ele>
        <time>2021-09-04T09:44:41Z</time>
      </trkpt>
      <trkpt lat="42.622784" lon="0.470780">
        <ele>1778.000000</ele>
        <time>2021-09-04T09:44:42Z</time>
      </trkpt>
      <trkpt lat="42.622782" lon="0.470773">
        <ele>1778.000000</ele>
        <time>2021-09-04T09:44:43Z</time>
      </trkpt>
      <trkpt lat="42.622784" lon="0.470762">
        <ele>1778.000000</ele>
        <time>2021-09-04T09:44:44Z</time>
      </trkpt>
      <trkpt lat="42.622785" lon="0.470748">
        <ele>1778.000000</ele>
        <time>2021-09-04T09:44:45Z</time>
      </trkpt>
      <trkpt lat="42.622786" lon="0.470738">
        <ele>1778.000000</ele>
        <time>2021-09-04T09:44:46Z</time>
      </trkpt>
      <trkpt lat="42.622787" lon="0.470728">
        <ele>1778.000000</ele>
        <time>2021-09-04T09:44:47Z</time>
      </trkpt>
      <trkpt lat="42.622788" lon="0.470723">
        <ele>1778.000000</ele>
        <time>2021-09-04T09:44:48Z</time>
      </trkpt>
      <trkpt lat="42.622788" lon="0.470720">
        <ele>1778.000000</ele>
        <time>2021-09-04T09:44:49Z</time>
      </trkpt>
      <trkpt lat="42.622788" lon="0.470712">
        <ele>1778.000000</ele>
        <time>2021-09-04T09:44:50Z</time>
      </trkpt>
      <trkpt lat="42.622787" lon="0.470702">
        <ele>1778.000000</ele>
        <time>2021-09-04T09:44:51Z</time>
      </trkpt>
      <trkpt lat="42.622784" lon="0.470693">
        <ele>1778.000000</ele>
        <time>2021-09-04T09:44:52Z</time>
      </trkpt>
      <trkpt lat="42.622783" lon="0.470680">
        <ele>1778.000000</ele>
        <time>2021-09-04T09:44:53Z</time>
      </trkpt>
      <trkpt lat="42.622784" lon="0.470668">
        <ele>1778.000000</ele>
        <time>2021-09-04T09:44:54Z</time>
      </trkpt>
      <trkpt lat="42.622783" lon="0.470660">
        <ele>1778.000000</ele>
        <time>2021-09-04T09:44:55Z</time>
      </trkpt>
      <trkpt lat="42.622780" lon="0.470650">
        <ele>1778.000000</ele>
        <time>2021-09-04T09:44:56Z</time>
      </trkpt>
      <trkpt lat="42.622780" lon="0.470630">
        <ele>1778.000000</ele>
        <time>2021-09-04T09:44:57Z</time>
      </trkpt>
      <trkpt lat="42.622782" lon="0.470622">
        <ele>1778.000000</ele>
        <time>2021-09-04T09:44:58Z</time>
      </trkpt>
      <trkpt lat="42.622784" lon="0.470615">
        <ele>1778.000000</ele>
        <time>2021-09-04T09:44:59Z</time>
      </trkpt>
      <trkpt lat="42.622787" lon="0.470598">
        <ele>1778.000000</ele>
        <time>2021-09-04T09:45:00Z</time>
      </trkpt>
      <trkpt lat="42.622790" lon="0.470588">
        <ele>1778.000000</ele>
        <time>2021-09-04T09:45:01Z</time>
      </trkpt>
      <trkpt lat="42.622795" lon="0.470577">
        <ele>1778.000000</ele>
        <time>2021-09-04T09:45:02Z</time>
      </trkpt>
      <trkpt lat="42.622800" lon="0.470562">
        <ele>1778.000000</ele>
        <time>2021-09-04T09:45:03Z</time>
      </trkpt>
      <trkpt lat="42.622805" lon="0.470550">
        <ele>1778.000000</ele>
        <time>2021-09-04T09:45:04Z</time>
      </trkpt>
      <trkpt lat="42.622811" lon="0.470532">
        <ele>1778.000000</ele>
        <time>2021-09-04T09:45:05Z</time>
      </trkpt>
      <trkpt lat="42.622816" lon="0.470518">
        <ele>1778.000000</ele>
        <time>2021-09-04T09:45:06Z</time>
      </trkpt>
      <trkpt lat="42.622818" lon="0.470513">
        <ele>1778.000000</ele>
        <time>2021-09-04T09:45:07Z</time>
      </trkpt>
      <trkpt lat="42.622819" lon="0.470515">
        <ele>1778.000000</ele>
        <time>2021-09-04T09:45:08Z</time>
      </trkpt>
      <trkpt lat="42.622821" lon="0.470512">
        <ele>1778.000000</ele>
        <time>2021-09-04T09:45:09Z</time>
      </trkpt>
      <trkpt lat="42.622835" lon="0.470498">
        <ele>1778.000000</ele>
        <time>2021-09-04T09:45:13Z</time>
      </trkpt>
      <trkpt lat="42.622837" lon="0.470495">
        <ele>1778.000000</ele>
        <time>2021-09-04T09:45:14Z</time>
      </trkpt>
      <trkpt lat="42.622838" lon="0.470493">
        <ele>1778.000000</ele>
        <time>2021-09-04T09:45:15Z</time>
      </trkpt>
      <trkpt lat="42.622838" lon="0.470492">
        <ele>1778.000000</ele>
        <time>2021-09-04T09:45:16Z</time>
      </trkpt>
      <trkpt lat="42.622837" lon="0.470482">
        <ele>1778.000000</ele>
        <time>2021-09-04T09:45:18Z</time>
      </trkpt>
      <trkpt lat="42.622837" lon="0.470475">
        <ele>1778.000000</ele>
        <time>2021-09-04T09:45:19Z</time>
      </trkpt>
      <trkpt lat="42.622837" lon="0.470468">
        <ele>1778.000000</ele>
        <time>2021-09-04T09:45:20Z</time>
      </trkpt>
      <trkpt lat="42.622838" lon="0.470463">
        <ele>1778.000000</ele>
        <time>2021-09-04T09:45:21Z</time>
      </trkpt>
      <trkpt lat="42.622845" lon="0.470457">
        <ele>1778.000000</ele>
        <time>2021-09-04T09:45:22Z</time>
      </trkpt>
      <trkpt lat="42.622845" lon="0.470445">
        <ele>1778.000000</ele>
        <time>2021-09-04T09:45:23Z</time>
      </trkpt>
      <trkpt lat="42.622846" lon="0.470432">
        <ele>1778.000000</ele>
        <time>2021-09-04T09:45:24Z</time>
      </trkpt>
      <trkpt lat="42.622845" lon="0.470422">
        <ele>1778.000000</ele>
        <time>2021-09-04T09:45:25Z</time>
      </trkpt>
      <trkpt lat="42.622846" lon="0.470410">
        <ele>1778.000000</ele>
        <time>2021-09-04T09:45:26Z</time>
      </trkpt>
      <trkpt lat="42.622847" lon="0.470397">
        <ele>1778.000000</ele>
        <time>2021-09-04T09:45:27Z</time>
      </trkpt>
      <trkpt lat="42.622847" lon="0.470387">
        <ele>1778.000000</ele>
        <time>2021-09-04T09:45:28Z</time>
      </trkpt>
      <trkpt lat="42.622848" lon="0.470378">
        <ele>1778.000000</ele>
        <time>2021-09-04T09:45:29Z</time>
      </trkpt>
      <trkpt lat="42.622849" lon="0.470373">
        <ele>1778.000000</ele>
        <time>2021-09-04T09:45:30Z</time>
      </trkpt>
      <trkpt lat="42.622850" lon="0.470363">
        <ele>1778.000000</ele>
        <time>2021-09-04T09:45:31Z</time>
      </trkpt>
      <trkpt lat="42.622851" lon="0.470355">
        <ele>1778.000000</ele>
        <time>2021-09-04T09:45:32Z</time>
      </trkpt>
      <trkpt lat="42.622852" lon="0.470345">
        <ele>1778.000000</ele>
        <time>2021-09-04T09:45:33Z</time>
      </trkpt>
      <trkpt lat="42.622852" lon="0.470340">
        <ele>1778.000000</ele>
        <time>2021-09-04T09:45:34Z</time>
      </trkpt>
      <trkpt lat="42.622850" lon="0.470328">
        <ele>1776.000000</ele>
        <time>2021-09-04T09:45:35Z</time>
      </trkpt>
      <trkpt lat="42.622851" lon="0.470320">
        <ele>1776.000000</ele>
        <time>2021-09-04T09:45:36Z</time>
      </trkpt>
      <trkpt lat="42.622848" lon="0.470312">
        <ele>1776.000000</ele>
        <time>2021-09-04T09:45:37Z</time>
      </trkpt>
      <trkpt lat="42.622845" lon="0.470300">
        <ele>1776.000000</ele>
        <time>2021-09-04T09:45:38Z</time>
      </trkpt>
      <trkpt lat="42.622841" lon="0.470292">
        <ele>1776.000000</ele>
        <time>2021-09-04T09:45:39Z</time>
      </trkpt>
      <trkpt lat="42.622839" lon="0.470288">
        <ele>1776.000000</ele>
        <time>2021-09-04T09:45:40Z</time>
      </trkpt>
      <trkpt lat="42.622838" lon="0.470285">
        <ele>1776.000000</ele>
        <time>2021-09-04T09:45:42Z</time>
      </trkpt>
      <trkpt lat="42.622836" lon="0.470275">
        <ele>1776.000000</ele>
        <time>2021-09-04T09:45:43Z</time>
      </trkpt>
      <trkpt lat="42.622836" lon="0.470267">
        <ele>1776.000000</ele>
        <time>2021-09-04T09:45:44Z</time>
      </trkpt>
      <trkpt lat="42.622848" lon="0.470258">
        <ele>1776.000000</ele>
        <time>2021-09-04T09:45:45Z</time>
      </trkpt>
      <trkpt lat="42.622852" lon="0.470252">
        <ele>1776.000000</ele>
        <time>2021-09-04T09:45:46Z</time>
      </trkpt>
      <trkpt lat="42.622853" lon="0.470243">
        <ele>1776.000000</ele>
        <time>2021-09-04T09:45:47Z</time>
      </trkpt>
      <trkpt lat="42.622857" lon="0.470235">
        <ele>1776.000000</ele>
        <time>2021-09-04T09:45:48Z</time>
      </trkpt>
      <trkpt lat="42.622863" lon="0.470223">
        <ele>1776.000000</ele>
        <time>2021-09-04T09:45:49Z</time>
      </trkpt>
      <trkpt lat="42.622868" lon="0.470213">
        <ele>1776.000000</ele>
        <time>2021-09-04T09:45:50Z</time>
      </trkpt>
      <trkpt lat="42.622872" lon="0.470203">
        <ele>1776.000000</ele>
        <time>2021-09-04T09:45:51Z</time>
      </trkpt>
      <trkpt lat="42.622871" lon="0.470185">
        <ele>1776.000000</ele>
        <time>2021-09-04T09:45:52Z</time>
      </trkpt>
      <trkpt lat="42.622870" lon="0.470177">
        <ele>1777.000000</ele>
        <time>2021-09-04T09:45:53Z</time>
      </trkpt>
      <trkpt lat="42.622871" lon="0.470167">
        <ele>1777.000000</ele>
        <time>2021-09-04T09:45:54Z</time>
      </trkpt>
      <trkpt lat="42.622871" lon="0.470162">
        <ele>1777.000000</ele>
        <time>2021-09-04T09:45:55Z</time>
      </trkpt>
      <trkpt lat="42.622870" lon="0.470162">
        <ele>1777.000000</ele>
        <time>2021-09-04T09:45:57Z</time>
      </trkpt>
      <trkpt lat="42.622870" lon="0.470155">
        <ele>1777.000000</ele>
        <time>2021-09-04T09:45:58Z</time>
      </trkpt>
      <trkpt lat="42.622870" lon="0.470143">
        <ele>1777.000000</ele>
        <time>2021-09-04T09:45:59Z</time>
      </trkpt>
      <trkpt lat="42.622872" lon="0.470138">
        <ele>1777.000000</ele>
        <time>2021-09-04T09:46:00Z</time>
      </trkpt>
      <trkpt lat="42.622874" lon="0.470128">
        <ele>1777.000000</ele>
        <time>2021-09-04T09:46:01Z</time>
      </trkpt>
      <trkpt lat="42.622876" lon="0.470117">
        <ele>1777.000000</ele>
        <time>2021-09-04T09:46:02Z</time>
      </trkpt>
      <trkpt lat="42.622878" lon="0.470107">
        <ele>1777.000000</ele>
        <time>2021-09-04T09:46:03Z</time>
      </trkpt>
      <trkpt lat="42.622879" lon="0.470102">
        <ele>1777.000000</ele>
        <time>2021-09-04T09:46:04Z</time>
      </trkpt>
      <trkpt lat="42.622879" lon="0.470095">
        <ele>1777.000000</ele>
        <time>2021-09-04T09:46:05Z</time>
      </trkpt>
      <trkpt lat="42.622877" lon="0.470083">
        <ele>1777.000000</ele>
        <time>2021-09-04T09:46:06Z</time>
      </trkpt>
      <trkpt lat="42.622877" lon="0.470077">
        <ele>1777.000000</ele>
        <time>2021-09-04T09:46:07Z</time>
      </trkpt>
      <trkpt lat="42.622883" lon="0.470063">
        <ele>1777.000000</ele>
        <time>2021-09-04T09:46:08Z</time>
      </trkpt>
      <trkpt lat="42.622886" lon="0.470057">
        <ele>1777.000000</ele>
        <time>2021-09-04T09:46:09Z</time>
      </trkpt>
      <trkpt lat="42.622893" lon="0.470047">
        <ele>1777.000000</ele>
        <time>2021-09-04T09:46:10Z</time>
      </trkpt>
      <trkpt lat="42.622898" lon="0.470040">
        <ele>1777.000000</ele>
        <time>2021-09-04T09:46:11Z</time>
      </trkpt>
      <trkpt lat="42.622902" lon="0.470030">
        <ele>1777.000000</ele>
        <time>2021-09-04T09:46:12Z</time>
      </trkpt>
      <trkpt lat="42.622905" lon="0.470022">
        <ele>1777.000000</ele>
        <time>2021-09-04T09:46:13Z</time>
      </trkpt>
      <trkpt lat="42.622906" lon="0.470015">
        <ele>1777.000000</ele>
        <time>2021-09-04T09:46:14Z</time>
      </trkpt>
      <trkpt lat="42.622909" lon="0.470007">
        <ele>1777.000000</ele>
        <time>2021-09-04T09:46:15Z</time>
      </trkpt>
      <trkpt lat="42.622914" lon="0.469998">
        <ele>1777.000000</ele>
        <time>2021-09-04T09:46:16Z</time>
      </trkpt>
      <trkpt lat="42.622925" lon="0.469993">
        <ele>1777.000000</ele>
        <time>2021-09-04T09:46:17Z</time>
      </trkpt>
      <trkpt lat="42.622933" lon="0.469990">
        <ele>1777.000000</ele>
        <time>2021-09-04T09:46:18Z</time>
      </trkpt>
      <trkpt lat="42.622942" lon="0.469978">
        <ele>1777.000000</ele>
        <time>2021-09-04T09:46:19Z</time>
      </trkpt>
      <trkpt lat="42.622947" lon="0.469967">
        <ele>1777.000000</ele>
        <time>2021-09-04T09:46:20Z</time>
      </trkpt>
      <trkpt lat="42.622953" lon="0.469955">
        <ele>1777.000000</ele>
        <time>2021-09-04T09:46:21Z</time>
      </trkpt>
      <trkpt lat="42.622960" lon="0.469942">
        <ele>1777.000000</ele>
        <time>2021-09-04T09:46:22Z</time>
      </trkpt>
      <trkpt lat="42.622962" lon="0.469920">
        <ele>1777.000000</ele>
        <time>2021-09-04T09:46:23Z</time>
      </trkpt>
      <trkpt lat="42.622965" lon="0.469902">
        <ele>1777.000000</ele>
        <time>2021-09-04T09:46:24Z</time>
      </trkpt>
      <trkpt lat="42.622972" lon="0.469885">
        <ele>1777.000000</ele>
        <time>2021-09-04T09:46:25Z</time>
      </trkpt>
      <trkpt lat="42.622981" lon="0.469865">
        <ele>1777.000000</ele>
        <time>2021-09-04T09:46:26Z</time>
      </trkpt>
      <trkpt lat="42.622986" lon="0.469850">
        <ele>1777.000000</ele>
        <time>2021-09-04T09:46:27Z</time>
      </trkpt>
      <trkpt lat="42.622996" lon="0.469827">
        <ele>1777.000000</ele>
        <time>2021-09-04T09:46:28Z</time>
      </trkpt>
      <trkpt lat="42.623005" lon="0.469817">
        <ele>1777.000000</ele>
        <time>2021-09-04T09:46:29Z</time>
      </trkpt>
      <trkpt lat="42.623022" lon="0.469807">
        <ele>1777.000000</ele>
        <time>2021-09-04T09:46:30Z</time>
      </trkpt>
      <trkpt lat="42.623042" lon="0.469795">
        <ele>1778.000000</ele>
        <time>2021-09-04T09:46:31Z</time>
      </trkpt>
      <trkpt lat="42.623053" lon="0.469788">
        <ele>1778.000000</ele>
        <time>2021-09-04T09:46:32Z</time>
      </trkpt>
      <trkpt lat="42.623063" lon="0.469775">
        <ele>1778.000000</ele>
        <time>2021-09-04T09:46:33Z</time>
      </trkpt>
      <trkpt lat="42.623072" lon="0.469761">
        <ele>1778.000000</ele>
        <time>2021-09-04T09:46:34Z</time>
      </trkpt>
      <trkpt lat="42.623077" lon="0.469752">
        <ele>1778.000000</ele>
        <time>2021-09-04T09:46:35Z</time>
      </trkpt>
      <trkpt lat="42.623080" lon="0.469742">
        <ele>1778.000000</ele>
        <time>2021-09-04T09:46:36Z</time>
      </trkpt>
      <trkpt lat="42.623081" lon="0.469733">
        <ele>1778.000000</ele>
        <time>2021-09-04T09:46:37Z</time>
      </trkpt>
      <trkpt lat="42.623085" lon="0.469723">
        <ele>1778.000000</ele>
        <time>2021-09-04T09:46:38Z</time>
      </trkpt>
      <trkpt lat="42.623090" lon="0.469713">
        <ele>1778.000000</ele>
        <time>2021-09-04T09:46:39Z</time>
      </trkpt>
      <trkpt lat="42.623096" lon="0.469700">
        <ele>1778.000000</ele>
        <time>2021-09-04T09:46:40Z</time>
      </trkpt>
      <trkpt lat="42.623105" lon="0.469687">
        <ele>1778.000000</ele>
        <time>2021-09-04T09:46:41Z</time>
      </trkpt>
      <trkpt lat="42.623113" lon="0.469678">
        <ele>1778.000000</ele>
        <time>2021-09-04T09:46:42Z</time>
      </trkpt>
      <trkpt lat="42.623118" lon="0.469670">
        <ele>1778.000000</ele>
        <time>2021-09-04T09:46:43Z</time>
      </trkpt>
      <trkpt lat="42.623123" lon="0.469664">
        <ele>1778.000000</ele>
        <time>2021-09-04T09:46:44Z</time>
      </trkpt>
      <trkpt lat="42.623127" lon="0.469657">
        <ele>1778.000000</ele>
        <time>2021-09-04T09:46:45Z</time>
      </trkpt>
      <trkpt lat="42.623128" lon="0.469650">
        <ele>1778.000000</ele>
        <time>2021-09-04T09:46:46Z</time>
      </trkpt>
      <trkpt lat="42.623125" lon="0.469648">
        <ele>1778.000000</ele>
        <time>2021-09-04T09:46:47Z</time>
      </trkpt>
      <trkpt lat="42.623120" lon="0.469648">
        <ele>1778.000000</ele>
        <time>2021-09-04T09:46:48Z</time>
      </trkpt>
      <trkpt lat="42.623118" lon="0.469647">
        <ele>1778.000000</ele>
        <time>2021-09-04T09:46:49Z</time>
      </trkpt>
      <trkpt lat="42.623122" lon="0.469640">
        <ele>1778.000000</ele>
        <time>2021-09-04T09:46:50Z</time>
      </trkpt>
      <trkpt lat="42.623123" lon="0.469640">
        <ele>1779.000000</ele>
        <time>2021-09-04T09:46:52Z</time>
      </trkpt>
      <trkpt lat="42.623122" lon="0.469642">
        <ele>1779.000000</ele>
        <time>2021-09-04T09:46:53Z</time>
      </trkpt>
      <trkpt lat="42.623126" lon="0.469637">
        <ele>1779.000000</ele>
        <time>2021-09-04T09:46:55Z</time>
      </trkpt>
      <trkpt lat="42.623129" lon="0.469633">
        <ele>1779.000000</ele>
        <time>2021-09-04T09:46:56Z</time>
      </trkpt>
      <trkpt lat="42.623130" lon="0.469635">
        <ele>1779.000000</ele>
        <time>2021-09-04T09:46:57Z</time>
      </trkpt>
      <trkpt lat="42.623127" lon="0.469643">
        <ele>1779.000000</ele>
        <time>2021-09-04T09:46:58Z</time>
      </trkpt>
      <trkpt lat="42.623157" lon="0.469653">
        <ele>1780.000000</ele>
        <time>2021-09-04T09:46:59Z</time>
      </trkpt>
      <trkpt lat="42.623153" lon="0.469643">
        <ele>1780.000000</ele>
        <time>2021-09-04T09:47:01Z</time>
      </trkpt>
      <trkpt lat="42.623152" lon="0.469638">
        <ele>1780.000000</ele>
        <time>2021-09-04T09:47:02Z</time>
      </trkpt>
      <trkpt lat="42.623152" lon="0.469633">
        <ele>1780.000000</ele>
        <time>2021-09-04T09:47:03Z</time>
      </trkpt>
      <trkpt lat="42.623148" lon="0.469623">
        <ele>1780.000000</ele>
        <time>2021-09-04T09:47:04Z</time>
      </trkpt>
      <trkpt lat="42.623143" lon="0.469615">
        <ele>1780.000000</ele>
        <time>2021-09-04T09:47:05Z</time>
      </trkpt>
      <trkpt lat="42.623142" lon="0.469603">
        <ele>1780.000000</ele>
        <time>2021-09-04T09:47:06Z</time>
      </trkpt>
      <trkpt lat="42.623143" lon="0.469593">
        <ele>1780.000000</ele>
        <time>2021-09-04T09:47:07Z</time>
      </trkpt>
      <trkpt lat="42.623146" lon="0.469587">
        <ele>1780.000000</ele>
        <time>2021-09-04T09:47:08Z</time>
      </trkpt>
      <trkpt lat="42.623153" lon="0.469578">
        <ele>1780.000000</ele>
        <time>2021-09-04T09:47:09Z</time>
      </trkpt>
      <trkpt lat="42.623157" lon="0.469568">
        <ele>1779.000000</ele>
        <time>2021-09-04T09:47:10Z</time>
      </trkpt>
      <trkpt lat="42.623158" lon="0.469562">
        <ele>1779.000000</ele>
        <time>2021-09-04T09:47:11Z</time>
      </trkpt>
      <trkpt lat="42.623158" lon="0.469553">
        <ele>1779.000000</ele>
        <time>2021-09-04T09:47:12Z</time>
      </trkpt>
      <trkpt lat="42.623158" lon="0.469557">
        <ele>1778.000000</ele>
        <time>2021-09-04T09:47:14Z</time>
      </trkpt>
      <trkpt lat="42.623157" lon="0.469562">
        <ele>1778.000000</ele>
        <time>2021-09-04T09:47:15Z</time>
      </trkpt>
      <trkpt lat="42.623156" lon="0.469565">
        <ele>1777.000000</ele>
        <time>2021-09-04T09:47:16Z</time>
      </trkpt>
      <trkpt lat="42.623156" lon="0.469560">
        <ele>1777.000000</ele>
        <time>2021-09-04T09:47:17Z</time>
      </trkpt>
      <trkpt lat="42.623157" lon="0.469547">
        <ele>1777.000000</ele>
        <time>2021-09-04T09:47:18Z</time>
      </trkpt>
      <trkpt lat="42.623159" lon="0.469538">
        <ele>1776.000000</ele>
        <time>2021-09-04T09:47:19Z</time>
      </trkpt>
      <trkpt lat="42.623160" lon="0.469533">
        <ele>1776.000000</ele>
        <time>2021-09-04T09:47:20Z</time>
      </trkpt>
      <trkpt lat="42.623162" lon="0.469528">
        <ele>1776.000000</ele>
        <time>2021-09-04T09:47:21Z</time>
      </trkpt>
      <trkpt lat="42.623164" lon="0.469523">
        <ele>1776.000000</ele>
        <time>2021-09-04T09:47:22Z</time>
      </trkpt>
      <trkpt lat="42.623164" lon="0.469525">
        <ele>1776.000000</ele>
        <time>2021-09-04T09:47:23Z</time>
      </trkpt>
      <trkpt lat="42.623172" lon="0.469520">
        <ele>1776.000000</ele>
        <time>2021-09-04T09:47:24Z</time>
      </trkpt>
      <trkpt lat="42.623175" lon="0.469512">
        <ele>1776.000000</ele>
        <time>2021-09-04T09:47:25Z</time>
      </trkpt>
      <trkpt lat="42.623178" lon="0.469505">
        <ele>1776.000000</ele>
        <time>2021-09-04T09:47:26Z</time>
      </trkpt>
      <trkpt lat="42.623178" lon="0.469495">
        <ele>1776.000000</ele>
        <time>2021-09-04T09:47:27Z</time>
      </trkpt>
      <trkpt lat="42.623173" lon="0.469475">
        <ele>1776.000000</ele>
        <time>2021-09-04T09:47:28Z</time>
      </trkpt>
      <trkpt lat="42.623170" lon="0.469458">
        <ele>1776.000000</ele>
        <time>2021-09-04T09:47:29Z</time>
      </trkpt>
      <trkpt lat="42.623165" lon="0.469448">
        <ele>1776.000000</ele>
        <time>2021-09-04T09:47:30Z</time>
      </trkpt>
      <trkpt lat="42.623160" lon="0.469435">
        <ele>1776.000000</ele>
        <time>2021-09-04T09:47:31Z</time>
      </trkpt>
      <trkpt lat="42.623155" lon="0.469423">
        <ele>1776.000000</ele>
        <time>2021-09-04T09:47:32Z</time>
      </trkpt>
      <trkpt lat="42.623148" lon="0.469407">
        <ele>1776.000000</ele>
        <time>2021-09-04T09:47:33Z</time>
      </trkpt>
      <trkpt lat="42.623150" lon="0.469395">
        <ele>1776.000000</ele>
        <time>2021-09-04T09:47:34Z</time>
      </trkpt>
      <trkpt lat="42.623153" lon="0.469385">
        <ele>1776.000000</ele>
        <time>2021-09-04T09:47:35Z</time>
      </trkpt>
      <trkpt lat="42.623157" lon="0.469378">
        <ele>1776.000000</ele>
        <time>2021-09-04T09:47:36Z</time>
      </trkpt>
      <trkpt lat="42.623157" lon="0.469368">
        <ele>1776.000000</ele>
        <time>2021-09-04T09:47:37Z</time>
      </trkpt>
      <trkpt lat="42.623157" lon="0.469360">
        <ele>1776.000000</ele>
        <time>2021-09-04T09:47:38Z</time>
      </trkpt>
      <trkpt lat="42.623158" lon="0.469345">
        <ele>1776.000000</ele>
        <time>2021-09-04T09:47:39Z</time>
      </trkpt>
      <trkpt lat="42.623159" lon="0.469337">
        <ele>1777.000000</ele>
        <time>2021-09-04T09:47:40Z</time>
      </trkpt>
      <trkpt lat="42.623161" lon="0.469335">
        <ele>1777.000000</ele>
        <time>2021-09-04T09:47:41Z</time>
      </trkpt>
      <trkpt lat="42.623159" lon="0.469337">
        <ele>1777.000000</ele>
        <time>2021-09-04T09:47:42Z</time>
      </trkpt>
      <trkpt lat="42.623159" lon="0.469332">
        <ele>1777.000000</ele>
        <time>2021-09-04T09:47:43Z</time>
      </trkpt>
      <trkpt lat="42.623157" lon="0.469327">
        <ele>1777.000000</ele>
        <time>2021-09-04T09:47:45Z</time>
      </trkpt>
      <trkpt lat="42.623155" lon="0.469322">
        <ele>1777.000000</ele>
        <time>2021-09-04T09:47:46Z</time>
      </trkpt>
      <trkpt lat="42.623153" lon="0.469320">
        <ele>1777.000000</ele>
        <time>2021-09-04T09:47:47Z</time>
      </trkpt>
      <trkpt lat="42.623151" lon="0.469315">
        <ele>1777.000000</ele>
        <time>2021-09-04T09:47:48Z</time>
      </trkpt>
      <trkpt lat="42.623149" lon="0.469313">
        <ele>1777.000000</ele>
        <time>2021-09-04T09:47:49Z</time>
      </trkpt>
      <trkpt lat="42.623147" lon="0.469307">
        <ele>1777.000000</ele>
        <time>2021-09-04T09:47:50Z</time>
      </trkpt>
      <trkpt lat="42.623145" lon="0.469300">
        <ele>1777.000000</ele>
        <time>2021-09-04T09:47:51Z</time>
      </trkpt>
      <trkpt lat="42.623143" lon="0.469292">
        <ele>1777.000000</ele>
        <time>2021-09-04T09:47:52Z</time>
      </trkpt>
      <trkpt lat="42.623143" lon="0.469290">
        <ele>1777.000000</ele>
        <time>2021-09-04T09:47:53Z</time>
      </trkpt>
      <trkpt lat="42.623141" lon="0.469288">
        <ele>1777.000000</ele>
        <time>2021-09-04T09:47:55Z</time>
      </trkpt>
      <trkpt lat="42.623141" lon="0.469293">
        <ele>1777.000000</ele>
        <time>2021-09-04T09:47:56Z</time>
      </trkpt>
      <trkpt lat="42.623127" lon="0.469290">
        <ele>1777.000000</ele>
        <time>2021-09-04T09:47:57Z</time>
      </trkpt>
      <trkpt lat="42.623122" lon="0.469285">
        <ele>1777.000000</ele>
        <time>2021-09-04T09:47:58Z</time>
      </trkpt>
      <trkpt lat="42.623122" lon="0.469280">
        <ele>1777.000000</ele>
        <time>2021-09-04T09:47:59Z</time>
      </trkpt>
      <trkpt lat="42.623125" lon="0.469272">
        <ele>1777.000000</ele>
        <time>2021-09-04T09:48:00Z</time>
      </trkpt>
      <trkpt lat="42.623132" lon="0.469265">
        <ele>1777.000000</ele>
        <time>2021-09-04T09:48:01Z</time>
      </trkpt>
      <trkpt lat="42.623132" lon="0.469260">
        <ele>1777.000000</ele>
        <time>2021-09-04T09:48:02Z</time>
      </trkpt>
      <trkpt lat="42.623130" lon="0.469258">
        <ele>1777.000000</ele>
        <time>2021-09-04T09:48:03Z</time>
      </trkpt>
      <trkpt lat="42.623130" lon="0.469255">
        <ele>1777.000000</ele>
        <time>2021-09-04T09:48:04Z</time>
      </trkpt>
      <trkpt lat="42.623132" lon="0.469250">
        <ele>1777.000000</ele>
        <time>2021-09-04T09:48:05Z</time>
      </trkpt>
      <trkpt lat="42.623134" lon="0.469247">
        <ele>1777.000000</ele>
        <time>2021-09-04T09:48:06Z</time>
      </trkpt>
      <trkpt lat="42.623142" lon="0.469240">
        <ele>1778.000000</ele>
        <time>2021-09-04T09:48:07Z</time>
      </trkpt>
      <trkpt lat="42.623143" lon="0.469233">
        <ele>1778.000000</ele>
        <time>2021-09-04T09:48:08Z</time>
      </trkpt>
      <trkpt lat="42.623147" lon="0.469228">
        <ele>1779.000000</ele>
        <time>2021-09-04T09:48:09Z</time>
      </trkpt>
      <trkpt lat="42.623152" lon="0.469220">
        <ele>1779.000000</ele>
        <time>2021-09-04T09:48:10Z</time>
      </trkpt>
      <trkpt lat="42.623153" lon="0.469218">
        <ele>1779.000000</ele>
        <time>2021-09-04T09:48:11Z</time>
      </trkpt>
      <trkpt lat="42.623155" lon="0.469217">
        <ele>1780.000000</ele>
        <time>2021-09-04T09:48:12Z</time>
      </trkpt>
      <trkpt lat="42.623153" lon="0.469215">
        <ele>1780.000000</ele>
        <time>2021-09-04T09:48:13Z</time>
      </trkpt>
      <trkpt lat="42.623148" lon="0.469218">
        <ele>1780.000000</ele>
        <time>2021-09-04T09:48:14Z</time>
      </trkpt>
      <trkpt lat="42.623145" lon="0.469215">
        <ele>1781.000000</ele>
        <time>2021-09-04T09:48:15Z</time>
      </trkpt>
      <trkpt lat="42.623142" lon="0.469210">
        <ele>1781.000000</ele>
        <time>2021-09-04T09:48:16Z</time>
      </trkpt>
      <trkpt lat="42.623140" lon="0.469202">
        <ele>1781.000000</ele>
        <time>2021-09-04T09:48:17Z</time>
      </trkpt>
      <trkpt lat="42.623137" lon="0.469192">
        <ele>1781.000000</ele>
        <time>2021-09-04T09:48:18Z</time>
      </trkpt>
      <trkpt lat="42.623134" lon="0.469187">
        <ele>1781.000000</ele>
        <time>2021-09-04T09:48:19Z</time>
      </trkpt>
      <trkpt lat="42.623130" lon="0.469180">
        <ele>1781.000000</ele>
        <time>2021-09-04T09:48:20Z</time>
      </trkpt>
      <trkpt lat="42.623127" lon="0.469172">
        <ele>1782.000000</ele>
        <time>2021-09-04T09:48:21Z</time>
      </trkpt>
      <trkpt lat="42.623125" lon="0.469167">
        <ele>1782.000000</ele>
        <time>2021-09-04T09:48:22Z</time>
      </trkpt>
      <trkpt lat="42.623124" lon="0.469165">
        <ele>1782.000000</ele>
        <time>2021-09-04T09:48:23Z</time>
      </trkpt>
      <trkpt lat="42.623122" lon="0.469165">
        <ele>1782.000000</ele>
        <time>2021-09-04T09:48:24Z</time>
      </trkpt>
      <trkpt lat="42.623113" lon="0.469167">
        <ele>1782.000000</ele>
        <time>2021-09-04T09:48:24Z</time>
      </trkpt>
      <trkpt lat="42.623108" lon="0.469162">
        <ele>1782.000000</ele>
        <time>2021-09-04T09:48:25Z</time>
      </trkpt>
      <trkpt lat="42.623105" lon="0.469160">
        <ele>1782.000000</ele>
        <time>2021-09-04T09:48:26Z</time>
      </trkpt>
      <trkpt lat="42.623107" lon="0.469155">
        <ele>1784.000000</ele>
        <time>2021-09-04T09:48:29Z</time>
      </trkpt>
      <trkpt lat="42.623110" lon="0.469152">
        <ele>1785.000000</ele>
        <time>2021-09-04T09:48:31Z</time>
      </trkpt>
      <trkpt lat="42.623111" lon="0.469150">
        <ele>1785.000000</ele>
        <time>2021-09-04T09:48:32Z</time>
      </trkpt>
      <trkpt lat="42.623107" lon="0.469158">
        <ele>1786.000000</ele>
        <time>2021-09-04T09:48:33Z</time>
      </trkpt>
      <trkpt lat="42.623125" lon="0.469177">
        <ele>1786.000000</ele>
        <time>2021-09-04T09:48:34Z</time>
      </trkpt>
      <trkpt lat="42.623127" lon="0.469171">
        <ele>1786.000000</ele>
        <time>2021-09-04T09:48:35Z</time>
      </trkpt>
      <trkpt lat="42.623125" lon="0.469172">
        <ele>1787.000000</ele>
        <time>2021-09-04T09:48:36Z</time>
      </trkpt>
      <trkpt lat="42.623123" lon="0.469168">
        <ele>1787.000000</ele>
        <time>2021-09-04T09:48:37Z</time>
      </trkpt>
      <trkpt lat="42.623120" lon="0.469166">
        <ele>1787.000000</ele>
        <time>2021-09-04T09:48:38Z</time>
      </trkpt>
      <trkpt lat="42.623063" lon="0.469143">
        <ele>1787.000000</ele>
        <time>2021-09-04T09:48:39Z</time>
      </trkpt>
      <trkpt lat="42.623062" lon="0.469141">
        <ele>1787.000000</ele>
        <time>2021-09-04T09:48:40Z</time>
      </trkpt>
      <trkpt lat="42.623060" lon="0.469137">
        <ele>1787.000000</ele>
        <time>2021-09-04T09:48:41Z</time>
      </trkpt>
      <trkpt lat="42.623060" lon="0.469132">
        <ele>1787.000000</ele>
        <time>2021-09-04T09:48:42Z</time>
      </trkpt>
      <trkpt lat="42.623063" lon="0.469130">
        <ele>1787.000000</ele>
        <time>2021-09-04T09:48:43Z</time>
      </trkpt>
      <trkpt lat="42.623065" lon="0.469128">
        <ele>1788.000000</ele>
        <time>2021-09-04T09:48:44Z</time>
      </trkpt>
      <trkpt lat="42.623068" lon="0.469125">
        <ele>1788.000000</ele>
        <time>2021-09-04T09:48:45Z</time>
      </trkpt>
      <trkpt lat="42.623075" lon="0.469118">
        <ele>1788.000000</ele>
        <time>2021-09-04T09:48:46Z</time>
      </trkpt>
      <trkpt lat="42.623078" lon="0.469118">
        <ele>1789.000000</ele>
        <time>2021-09-04T09:48:47Z</time>
      </trkpt>
      <trkpt lat="42.623073" lon="0.469118">
        <ele>1789.000000</ele>
        <time>2021-09-04T09:48:49Z</time>
      </trkpt>
      <trkpt lat="42.623071" lon="0.469123">
        <ele>1789.000000</ele>
        <time>2021-09-04T09:48:50Z</time>
      </trkpt>
      <trkpt lat="42.623071" lon="0.469120">
        <ele>1789.000000</ele>
        <time>2021-09-04T09:48:51Z</time>
      </trkpt>
      <trkpt lat="42.623065" lon="0.469122">
        <ele>1789.000000</ele>
        <time>2021-09-04T09:48:52Z</time>
      </trkpt>
      <trkpt lat="42.623062" lon="0.469125">
        <ele>1789.000000</ele>
        <time>2021-09-04T09:48:53Z</time>
      </trkpt>
      <trkpt lat="42.623055" lon="0.469127">
        <ele>1789.000000</ele>
        <time>2021-09-04T09:48:54Z</time>
      </trkpt>
      <trkpt lat="42.623053" lon="0.469124">
        <ele>1789.000000</ele>
        <time>2021-09-04T09:48:55Z</time>
      </trkpt>
      <trkpt lat="42.623050" lon="0.469117">
        <ele>1789.000000</ele>
        <time>2021-09-04T09:48:56Z</time>
      </trkpt>
      <trkpt lat="42.623047" lon="0.469113">
        <ele>1790.000000</ele>
        <time>2021-09-04T09:48:57Z</time>
      </trkpt>
      <trkpt lat="42.623045" lon="0.469107">
        <ele>1790.000000</ele>
        <time>2021-09-04T09:48:58Z</time>
      </trkpt>
      <trkpt lat="42.623043" lon="0.469100">
        <ele>1790.000000</ele>
        <time>2021-09-04T09:48:59Z</time>
      </trkpt>
      <trkpt lat="42.623040" lon="0.469097">
        <ele>1791.000000</ele>
        <time>2021-09-04T09:49:00Z</time>
      </trkpt>
      <trkpt lat="42.623040" lon="0.469093">
        <ele>1791.000000</ele>
        <time>2021-09-04T09:49:01Z</time>
      </trkpt>
      <trkpt lat="42.623038" lon="0.469085">
        <ele>1792.000000</ele>
        <time>2021-09-04T09:49:02Z</time>
      </trkpt>
      <trkpt lat="42.623040" lon="0.469080">
        <ele>1792.000000</ele>
        <time>2021-09-04T09:49:03Z</time>
      </trkpt>
      <trkpt lat="42.623040" lon="0.469077">
        <ele>1793.000000</ele>
        <time>2021-09-04T09:49:04Z</time>
      </trkpt>
      <trkpt lat="42.623043" lon="0.469073">
        <ele>1794.000000</ele>
        <time>2021-09-04T09:49:07Z</time>
      </trkpt>
      <trkpt lat="42.623044" lon="0.469073">
        <ele>1795.000000</ele>
        <time>2021-09-04T09:49:08Z</time>
      </trkpt>
      <trkpt lat="42.623044" lon="0.469073">
        <ele>1795.000000</ele>
        <time>2021-09-04T09:49:10Z</time>
      </trkpt>
      <trkpt lat="42.623040" lon="0.469077">
        <ele>1796.000000</ele>
        <time>2021-09-04T09:49:11Z</time>
      </trkpt>
      <trkpt lat="42.623035" lon="0.469083">
        <ele>1796.000000</ele>
        <time>2021-09-04T09:49:12Z</time>
      </trkpt>
      <trkpt lat="42.623027" lon="0.469084">
        <ele>1796.000000</ele>
        <time>2021-09-04T09:49:13Z</time>
      </trkpt>
      <trkpt lat="42.623020" lon="0.469084">
        <ele>1797.000000</ele>
        <time>2021-09-04T09:49:14Z</time>
      </trkpt>
      <trkpt lat="42.623018" lon="0.469083">
        <ele>1797.000000</ele>
        <time>2021-09-04T09:49:15Z</time>
      </trkpt>
      <trkpt lat="42.623020" lon="0.469078">
        <ele>1797.000000</ele>
        <time>2021-09-04T09:49:16Z</time>
      </trkpt>
      <trkpt lat="42.623020" lon="0.469073">
        <ele>1798.000000</ele>
        <time>2021-09-04T09:49:17Z</time>
      </trkpt>
      <trkpt lat="42.623022" lon="0.469067">
        <ele>1798.000000</ele>
        <time>2021-09-04T09:49:18Z</time>
      </trkpt>
      <trkpt lat="42.623020" lon="0.469062">
        <ele>1799.000000</ele>
        <time>2021-09-04T09:49:19Z</time>
      </trkpt>
      <trkpt lat="42.623023" lon="0.469053">
        <ele>1799.000000</ele>
        <time>2021-09-04T09:49:20Z</time>
      </trkpt>
      <trkpt lat="42.623025" lon="0.469045">
        <ele>1799.000000</ele>
        <time>2021-09-04T09:49:21Z</time>
      </trkpt>
      <trkpt lat="42.623028" lon="0.469037">
        <ele>1800.000000</ele>
        <time>2021-09-04T09:49:22Z</time>
      </trkpt>
      <trkpt lat="42.623028" lon="0.469025">
        <ele>1800.000000</ele>
        <time>2021-09-04T09:49:23Z</time>
      </trkpt>
      <trkpt lat="42.623028" lon="0.469018">
        <ele>1800.000000</ele>
        <time>2021-09-04T09:49:24Z</time>
      </trkpt>
      <trkpt lat="42.623032" lon="0.469012">
        <ele>1801.000000</ele>
        <time>2021-09-04T09:49:25Z</time>
      </trkpt>
      <trkpt lat="42.623035" lon="0.469005">
        <ele>1801.000000</ele>
        <time>2021-09-04T09:49:26Z</time>
      </trkpt>
      <trkpt lat="42.623037" lon="0.469003">
        <ele>1801.000000</ele>
        <time>2021-09-04T09:49:27Z</time>
      </trkpt>
      <trkpt lat="42.623037" lon="0.469000">
        <ele>1802.000000</ele>
        <time>2021-09-04T09:49:28Z</time>
      </trkpt>
      <trkpt lat="42.623038" lon="0.468997">
        <ele>1802.000000</ele>
        <time>2021-09-04T09:49:29Z</time>
      </trkpt>
      <trkpt lat="42.623037" lon="0.468992">
        <ele>1802.000000</ele>
        <time>2021-09-04T09:49:30Z</time>
      </trkpt>
      <trkpt lat="42.623032" lon="0.468987">
        <ele>1803.000000</ele>
        <time>2021-09-04T09:49:31Z</time>
      </trkpt>
      <trkpt lat="42.623030" lon="0.468982">
        <ele>1803.000000</ele>
        <time>2021-09-04T09:49:32Z</time>
      </trkpt>
      <trkpt lat="42.623025" lon="0.468980">
        <ele>1804.000000</ele>
        <time>2021-09-04T09:49:33Z</time>
      </trkpt>
      <trkpt lat="42.623025" lon="0.468978">
        <ele>1804.000000</ele>
        <time>2021-09-04T09:49:34Z</time>
      </trkpt>
      <trkpt lat="42.623023" lon="0.468972">
        <ele>1804.000000</ele>
        <time>2021-09-04T09:49:35Z</time>
      </trkpt>
      <trkpt lat="42.623023" lon="0.468960">
        <ele>1805.000000</ele>
        <time>2021-09-04T09:49:36Z</time>
      </trkpt>
      <trkpt lat="42.623027" lon="0.468955">
        <ele>1805.000000</ele>
        <time>2021-09-04T09:49:37Z</time>
      </trkpt>
      <trkpt lat="42.623028" lon="0.468953">
        <ele>1805.000000</ele>
        <time>2021-09-04T09:49:38Z</time>
      </trkpt>
      <trkpt lat="42.623033" lon="0.468945">
        <ele>1805.000000</ele>
        <time>2021-09-04T09:49:39Z</time>
      </trkpt>
      <trkpt lat="42.623038" lon="0.468933">
        <ele>1806.000000</ele>
        <time>2021-09-04T09:49:40Z</time>
      </trkpt>
      <trkpt lat="42.623043" lon="0.468928">
        <ele>1806.000000</ele>
        <time>2021-09-04T09:49:41Z</time>
      </trkpt>
      <trkpt lat="42.623045" lon="0.468925">
        <ele>1806.000000</ele>
        <time>2021-09-04T09:49:42Z</time>
      </trkpt>
      <trkpt lat="42.623047" lon="0.468925">
        <ele>1806.000000</ele>
        <time>2021-09-04T09:49:45Z</time>
      </trkpt>
      <trkpt lat="42.623050" lon="0.468922">
        <ele>1806.000000</ele>
        <time>2021-09-04T09:49:46Z</time>
      </trkpt>
      <trkpt lat="42.623053" lon="0.468918">
        <ele>1807.000000</ele>
        <time>2021-09-04T09:49:47Z</time>
      </trkpt>
      <trkpt lat="42.623055" lon="0.468917">
        <ele>1807.000000</ele>
        <time>2021-09-04T09:49:48Z</time>
      </trkpt>
      <trkpt lat="42.623056" lon="0.468915">
        <ele>1807.000000</ele>
        <time>2021-09-04T09:49:50Z</time>
      </trkpt>
      <trkpt lat="42.623056" lon="0.468913">
        <ele>1807.000000</ele>
        <time>2021-09-04T09:49:50Z</time>
      </trkpt>
      <trkpt lat="42.623050" lon="0.468922">
        <ele>1807.000000</ele>
        <time>2021-09-04T09:49:51Z</time>
      </trkpt>
      <trkpt lat="42.623038" lon="0.468948">
        <ele>1807.000000</ele>
        <time>2021-09-04T09:49:52Z</time>
      </trkpt>
      <trkpt lat="42.623037" lon="0.468952">
        <ele>1807.000000</ele>
        <time>2021-09-04T09:49:53Z</time>
      </trkpt>
      <trkpt lat="42.623039" lon="0.468947">
        <ele>1808.000000</ele>
        <time>2021-09-04T09:49:54Z</time>
      </trkpt>
      <trkpt lat="42.623038" lon="0.468937">
        <ele>1808.000000</ele>
        <time>2021-09-04T09:49:55Z</time>
      </trkpt>
      <trkpt lat="42.623042" lon="0.468930">
        <ele>1808.000000</ele>
        <time>2021-09-04T09:49:56Z</time>
      </trkpt>
      <trkpt lat="42.623043" lon="0.468928">
        <ele>1808.000000</ele>
        <time>2021-09-04T09:49:57Z</time>
      </trkpt>
      <trkpt lat="42.623045" lon="0.468927">
        <ele>1808.000000</ele>
        <time>2021-09-04T09:49:58Z</time>
      </trkpt>
      <trkpt lat="42.623048" lon="0.468925">
        <ele>1808.000000</ele>
        <time>2021-09-04T09:50:00Z</time>
      </trkpt>
      <trkpt lat="42.623050" lon="0.468922">
        <ele>1808.000000</ele>
        <time>2021-09-04T09:50:01Z</time>
      </trkpt>
      <trkpt lat="42.623052" lon="0.468918">
        <ele>1808.000000</ele>
        <time>2021-09-04T09:50:02Z</time>
      </trkpt>
      <trkpt lat="42.623053" lon="0.468917">
        <ele>1808.000000</ele>
        <time>2021-09-04T09:50:03Z</time>
      </trkpt>
      <trkpt lat="42.623057" lon="0.468907">
        <ele>1808.000000</ele>
        <time>2021-09-04T09:50:08Z</time>
      </trkpt>
      <trkpt lat="42.623057" lon="0.468898">
        <ele>1808.000000</ele>
        <time>2021-09-04T09:50:09Z</time>
      </trkpt>
      <trkpt lat="42.623073" lon="0.468822">
        <ele>1808.000000</ele>
        <time>2021-09-04T09:50:10Z</time>
      </trkpt>
      <trkpt lat="42.623071" lon="0.468822">
        <ele>1808.000000</ele>
        <time>2021-09-04T09:50:11Z</time>
      </trkpt>
      <trkpt lat="42.623070" lon="0.468823">
        <ele>1808.000000</ele>
        <time>2021-09-04T09:50:12Z</time>
      </trkpt>
      <trkpt lat="42.623069" lon="0.468827">
        <ele>1808.000000</ele>
        <time>2021-09-04T09:50:13Z</time>
      </trkpt>
      <trkpt lat="42.623068" lon="0.468828">
        <ele>1808.000000</ele>
        <time>2021-09-04T09:50:14Z</time>
      </trkpt>
      <trkpt lat="42.623066" lon="0.468830">
        <ele>1808.000000</ele>
        <time>2021-09-04T09:50:15Z</time>
      </trkpt>
      <trkpt lat="42.623052" lon="0.468825">
        <ele>1808.000000</ele>
        <time>2021-09-04T09:50:16Z</time>
      </trkpt>
      <trkpt lat="42.623048" lon="0.468820">
        <ele>1808.000000</ele>
        <time>2021-09-04T09:50:17Z</time>
      </trkpt>
      <trkpt lat="42.623048" lon="0.468817">
        <ele>1808.000000</ele>
        <time>2021-09-04T09:50:18Z</time>
      </trkpt>
      <trkpt lat="42.623047" lon="0.468805">
        <ele>1808.000000</ele>
        <time>2021-09-04T09:50:19Z</time>
      </trkpt>
      <trkpt lat="42.623047" lon="0.468798">
        <ele>1808.000000</ele>
        <time>2021-09-04T09:50:20Z</time>
      </trkpt>
      <trkpt lat="42.623047" lon="0.468793">
        <ele>1808.000000</ele>
        <time>2021-09-04T09:50:21Z</time>
      </trkpt>
      <trkpt lat="42.623050" lon="0.468790">
        <ele>1808.000000</ele>
        <time>2021-09-04T09:50:22Z</time>
      </trkpt>
      <trkpt lat="42.623057" lon="0.468788">
        <ele>1808.000000</ele>
        <time>2021-09-04T09:50:23Z</time>
      </trkpt>
      <trkpt lat="42.623062" lon="0.468787">
        <ele>1808.000000</ele>
        <time>2021-09-04T09:50:24Z</time>
      </trkpt>
      <trkpt lat="42.623067" lon="0.468787">
        <ele>1808.000000</ele>
        <time>2021-09-04T09:50:25Z</time>
      </trkpt>
      <trkpt lat="42.623070" lon="0.468782">
        <ele>1808.000000</ele>
        <time>2021-09-04T09:50:28Z</time>
      </trkpt>
      <trkpt lat="42.623070" lon="0.468780">
        <ele>1808.000000</ele>
        <time>2021-09-04T09:50:29Z</time>
      </trkpt>
      <trkpt lat="42.623073" lon="0.468770">
        <ele>1808.000000</ele>
        <time>2021-09-04T09:50:30Z</time>
      </trkpt>
      <trkpt lat="42.623075" lon="0.468765">
        <ele>1808.000000</ele>
        <time>2021-09-04T09:50:31Z</time>
      </trkpt>
      <trkpt lat="42.623080" lon="0.468762">
        <ele>1808.000000</ele>
        <time>2021-09-04T09:50:32Z</time>
      </trkpt>
      <trkpt lat="42.623085" lon="0.468758">
        <ele>1808.000000</ele>
        <time>2021-09-04T09:50:33Z</time>
      </trkpt>
      <trkpt lat="42.623087" lon="0.468754">
        <ele>1808.000000</ele>
        <time>2021-09-04T09:50:36Z</time>
      </trkpt>
      <trkpt lat="42.623085" lon="0.468753">
        <ele>1808.000000</ele>
        <time>2021-09-04T09:50:37Z</time>
      </trkpt>
      <trkpt lat="42.623087" lon="0.468738">
        <ele>1808.000000</ele>
        <time>2021-09-04T09:50:39Z</time>
      </trkpt>
      <trkpt lat="42.623087" lon="0.468730">
        <ele>1808.000000</ele>
        <time>2021-09-04T09:50:40Z</time>
      </trkpt>
      <trkpt lat="42.623088" lon="0.468720">
        <ele>1808.000000</ele>
        <time>2021-09-04T09:50:41Z</time>
      </trkpt>
      <trkpt lat="42.623090" lon="0.468713">
        <ele>1808.000000</ele>
        <time>2021-09-04T09:50:42Z</time>
      </trkpt>
      <trkpt lat="42.623089" lon="0.468708">
        <ele>1808.000000</ele>
        <time>2021-09-04T09:50:43Z</time>
      </trkpt>
      <trkpt lat="42.623088" lon="0.468703">
        <ele>1808.000000</ele>
        <time>2021-09-04T09:50:44Z</time>
      </trkpt>
      <trkpt lat="42.623086" lon="0.468690">
        <ele>1808.000000</ele>
        <time>2021-09-04T09:50:45Z</time>
      </trkpt>
      <trkpt lat="42.623085" lon="0.468683">
        <ele>1808.000000</ele>
        <time>2021-09-04T09:50:46Z</time>
      </trkpt>
      <trkpt lat="42.623085" lon="0.468677">
        <ele>1808.000000</ele>
        <time>2021-09-04T09:50:47Z</time>
      </trkpt>
      <trkpt lat="42.623085" lon="0.468665">
        <ele>1808.000000</ele>
        <time>2021-09-04T09:50:48Z</time>
      </trkpt>
      <trkpt lat="42.623086" lon="0.468658">
        <ele>1808.000000</ele>
        <time>2021-09-04T09:50:49Z</time>
      </trkpt>
      <trkpt lat="42.623085" lon="0.468645">
        <ele>1808.000000</ele>
        <time>2021-09-04T09:50:50Z</time>
      </trkpt>
      <trkpt lat="42.623085" lon="0.468637">
        <ele>1808.000000</ele>
        <time>2021-09-04T09:50:51Z</time>
      </trkpt>
      <trkpt lat="42.623083" lon="0.468627">
        <ele>1808.000000</ele>
        <time>2021-09-04T09:50:52Z</time>
      </trkpt>
      <trkpt lat="42.623083" lon="0.468607">
        <ele>1808.000000</ele>
        <time>2021-09-04T09:50:53Z</time>
      </trkpt>
      <trkpt lat="42.623083" lon="0.468598">
        <ele>1808.000000</ele>
        <time>2021-09-04T09:50:54Z</time>
      </trkpt>
      <trkpt lat="42.623084" lon="0.468587">
        <ele>1808.000000</ele>
        <time>2021-09-04T09:50:55Z</time>
      </trkpt>
      <trkpt lat="42.623085" lon="0.468573">
        <ele>1808.000000</ele>
        <time>2021-09-04T09:50:56Z</time>
      </trkpt>
      <trkpt lat="42.623086" lon="0.468565">
        <ele>1808.000000</ele>
        <time>2021-09-04T09:50:57Z</time>
      </trkpt>
      <trkpt lat="42.623087" lon="0.468558">
        <ele>1808.000000</ele>
        <time>2021-09-04T09:50:58Z</time>
      </trkpt>
      <trkpt lat="42.623086" lon="0.468555">
        <ele>1808.000000</ele>
        <time>2021-09-04T09:50:59Z</time>
      </trkpt>
      <trkpt lat="42.623087" lon="0.468558">
        <ele>1808.000000</ele>
        <time>2021-09-04T09:51:00Z</time>
      </trkpt>
      <trkpt lat="42.623087" lon="0.468557">
        <ele>1808.000000</ele>
        <time>2021-09-04T09:51:01Z</time>
      </trkpt>
      <trkpt lat="42.623088" lon="0.468558">
        <ele>1808.000000</ele>
        <time>2021-09-04T09:51:03Z</time>
      </trkpt>
      <trkpt lat="42.623092" lon="0.468558">
        <ele>1808.000000</ele>
        <time>2021-09-04T09:51:04Z</time>
      </trkpt>
      <trkpt lat="42.623093" lon="0.468555">
        <ele>1811.000000</ele>
        <time>2021-09-04T09:51:05Z</time>
      </trkpt>
      <trkpt lat="42.623092" lon="0.468555">
        <ele>1811.000000</ele>
        <time>2021-09-04T09:51:06Z</time>
      </trkpt>
      <trkpt lat="42.623095" lon="0.468549">
        <ele>1812.000000</ele>
        <time>2021-09-04T09:51:08Z</time>
      </trkpt>
      <trkpt lat="42.623098" lon="0.468545">
        <ele>1812.000000</ele>
        <time>2021-09-04T09:51:09Z</time>
      </trkpt>
      <trkpt lat="42.623098" lon="0.468538">
        <ele>1813.000000</ele>
        <time>2021-09-04T09:51:10Z</time>
      </trkpt>
      <trkpt lat="42.623098" lon="0.468530">
        <ele>1813.000000</ele>
        <time>2021-09-04T09:51:11Z</time>
      </trkpt>
      <trkpt lat="42.623097" lon="0.468523">
        <ele>1813.000000</ele>
        <time>2021-09-04T09:51:12Z</time>
      </trkpt>
      <trkpt lat="42.623095" lon="0.468518">
        <ele>1814.000000</ele>
        <time>2021-09-04T09:51:13Z</time>
      </trkpt>
      <trkpt lat="42.623090" lon="0.468517">
        <ele>1814.000000</ele>
        <time>2021-09-04T09:51:14Z</time>
      </trkpt>
      <trkpt lat="42.623090" lon="0.468512">
        <ele>1814.000000</ele>
        <time>2021-09-04T09:51:15Z</time>
      </trkpt>
      <trkpt lat="42.623085" lon="0.468507">
        <ele>1814.000000</ele>
        <time>2021-09-04T09:51:16Z</time>
      </trkpt>
      <trkpt lat="42.623087" lon="0.468503">
        <ele>1814.000000</ele>
        <time>2021-09-04T09:51:17Z</time>
      </trkpt>
      <trkpt lat="42.623084" lon="0.468507">
        <ele>1814.000000</ele>
        <time>2021-09-04T09:51:18Z</time>
      </trkpt>
      <trkpt lat="42.623082" lon="0.468508">
        <ele>1814.000000</ele>
        <time>2021-09-04T09:51:19Z</time>
      </trkpt>
      <trkpt lat="42.623077" lon="0.468510">
        <ele>1814.000000</ele>
        <time>2021-09-04T09:51:20Z</time>
      </trkpt>
      <trkpt lat="42.623080" lon="0.468515">
        <ele>1814.000000</ele>
        <time>2021-09-04T09:51:22Z</time>
      </trkpt>
      <trkpt lat="42.623075" lon="0.468516">
        <ele>1814.000000</ele>
        <time>2021-09-04T09:51:23Z</time>
      </trkpt>
      <trkpt lat="42.623073" lon="0.468518">
        <ele>1815.000000</ele>
        <time>2021-09-04T09:51:24Z</time>
      </trkpt>
      <trkpt lat="42.623075" lon="0.468513">
        <ele>1815.000000</ele>
        <time>2021-09-04T09:51:28Z</time>
      </trkpt>
      <trkpt lat="42.623082" lon="0.468510">
        <ele>1815.000000</ele>
        <time>2021-09-04T09:51:29Z</time>
      </trkpt>
      <trkpt lat="42.623087" lon="0.468503">
        <ele>1815.000000</ele>
        <time>2021-09-04T09:51:30Z</time>
      </trkpt>
      <trkpt lat="42.623083" lon="0.468506">
        <ele>1815.000000</ele>
        <time>2021-09-04T09:51:31Z</time>
      </trkpt>
      <trkpt lat="42.623080" lon="0.468511">
        <ele>1815.000000</ele>
        <time>2021-09-04T09:51:32Z</time>
      </trkpt>
      <trkpt lat="42.623077" lon="0.468516">
        <ele>1815.000000</ele>
        <time>2021-09-04T09:51:33Z</time>
      </trkpt>
      <trkpt lat="42.623082" lon="0.468511">
        <ele>1815.000000</ele>
        <time>2021-09-04T09:51:34Z</time>
      </trkpt>
      <trkpt lat="42.623085" lon="0.468509">
        <ele>1814.000000</ele>
        <time>2021-09-04T09:51:35Z</time>
      </trkpt>
      <trkpt lat="42.623087" lon="0.468509">
        <ele>1814.000000</ele>
        <time>2021-09-04T09:51:36Z</time>
      </trkpt>
      <trkpt lat="42.623082" lon="0.468513">
        <ele>1814.000000</ele>
        <time>2021-09-04T09:51:38Z</time>
      </trkpt>
      <trkpt lat="42.623080" lon="0.468515">
        <ele>1815.000000</ele>
        <time>2021-09-04T09:51:39Z</time>
      </trkpt>
      <trkpt lat="42.623078" lon="0.468514">
        <ele>1815.000000</ele>
        <time>2021-09-04T09:51:40Z</time>
      </trkpt>
      <trkpt lat="42.623073" lon="0.468500">
        <ele>1816.000000</ele>
        <time>2021-09-04T09:51:41Z</time>
      </trkpt>
      <trkpt lat="42.623070" lon="0.468497">
        <ele>1816.000000</ele>
        <time>2021-09-04T09:51:42Z</time>
      </trkpt>
      <trkpt lat="42.623067" lon="0.468495">
        <ele>1817.000000</ele>
        <time>2021-09-04T09:51:43Z</time>
      </trkpt>
      <trkpt lat="42.623063" lon="0.468495">
        <ele>1817.000000</ele>
        <time>2021-09-04T09:51:44Z</time>
      </trkpt>
      <trkpt lat="42.623060" lon="0.468500">
        <ele>1817.000000</ele>
        <time>2021-09-04T09:51:45Z</time>
      </trkpt>
      <trkpt lat="42.623057" lon="0.468497">
        <ele>1818.000000</ele>
        <time>2021-09-04T09:51:47Z</time>
      </trkpt>
      <trkpt lat="42.623053" lon="0.468492">
        <ele>1818.000000</ele>
        <time>2021-09-04T09:51:48Z</time>
      </trkpt>
      <trkpt lat="42.623058" lon="0.468490">
        <ele>1818.000000</ele>
        <time>2021-09-04T09:51:49Z</time>
      </trkpt>
      <trkpt lat="42.623067" lon="0.468486">
        <ele>1818.000000</ele>
        <time>2021-09-04T09:51:50Z</time>
      </trkpt>
      <trkpt lat="42.623075" lon="0.468486">
        <ele>1818.000000</ele>
        <time>2021-09-04T09:51:51Z</time>
      </trkpt>
      <trkpt lat="42.623082" lon="0.468483">
        <ele>1818.000000</ele>
        <time>2021-09-04T09:51:52Z</time>
      </trkpt>
      <trkpt lat="42.623088" lon="0.468486">
        <ele>1818.000000</ele>
        <time>2021-09-04T09:51:53Z</time>
      </trkpt>
      <trkpt lat="42.623092" lon="0.468491">
        <ele>1818.000000</ele>
        <time>2021-09-04T09:51:54Z</time>
      </trkpt>
      <trkpt lat="42.623095" lon="0.468513">
        <ele>1818.000000</ele>
        <time>2021-09-04T09:51:55Z</time>
      </trkpt>
      <trkpt lat="42.623098" lon="0.468518">
        <ele>1818.000000</ele>
        <time>2021-09-04T09:51:56Z</time>
      </trkpt>
      <trkpt lat="42.623102" lon="0.468522">
        <ele>1818.000000</ele>
        <time>2021-09-04T09:51:57Z</time>
      </trkpt>
      <trkpt lat="42.623105" lon="0.468523">
        <ele>1818.000000</ele>
        <time>2021-09-04T09:51:58Z</time>
      </trkpt>
      <trkpt lat="42.623103" lon="0.468522">
        <ele>1818.000000</ele>
        <time>2021-09-04T09:51:59Z</time>
      </trkpt>
      <trkpt lat="42.623100" lon="0.468518">
        <ele>1818.000000</ele>
        <time>2021-09-04T09:52:00Z</time>
      </trkpt>
      <trkpt lat="42.623098" lon="0.468515">
        <ele>1818.000000</ele>
        <time>2021-09-04T09:52:01Z</time>
      </trkpt>
      <trkpt lat="42.623097" lon="0.468512">
        <ele>1818.000000</ele>
        <time>2021-09-04T09:52:02Z</time>
      </trkpt>
      <trkpt lat="42.623096" lon="0.468510">
        <ele>1818.000000</ele>
        <time>2021-09-04T09:52:03Z</time>
      </trkpt>
      <trkpt lat="42.623095" lon="0.468508">
        <ele>1818.000000</ele>
        <time>2021-09-04T09:52:04Z</time>
      </trkpt>
      <trkpt lat="42.623093" lon="0.468505">
        <ele>1818.000000</ele>
        <time>2021-09-04T09:52:05Z</time>
      </trkpt>
      <trkpt lat="42.623099" lon="0.468515">
        <ele>1818.000000</ele>
        <time>2021-09-04T09:52:06Z</time>
      </trkpt>
      <trkpt lat="42.623093" lon="0.468507">
        <ele>1818.000000</ele>
        <time>2021-09-04T09:52:07Z</time>
      </trkpt>
      <trkpt lat="42.623091" lon="0.468505">
        <ele>1818.000000</ele>
        <time>2021-09-04T09:52:08Z</time>
      </trkpt>
      <trkpt lat="42.623095" lon="0.468495">
        <ele>1816.000000</ele>
        <time>2021-09-04T09:52:54Z</time>
      </trkpt>
      <trkpt lat="42.623107" lon="0.468475">
        <ele>1816.000000</ele>
        <time>2021-09-04T09:53:57Z</time>
      </trkpt>
      <trkpt lat="42.623107" lon="0.468472">
        <ele>1816.000000</ele>
        <time>2021-09-04T09:53:58Z</time>
      </trkpt>
      <trkpt lat="42.623107" lon="0.468468">
        <ele>1816.000000</ele>
        <time>2021-09-04T09:53:59Z</time>
      </trkpt>
      <trkpt lat="42.623105" lon="0.468465">
        <ele>1816.000000</ele>
        <time>2021-09-04T09:54:00Z</time>
      </trkpt>
      <trkpt lat="42.623105" lon="0.468460">
        <ele>1816.000000</ele>
        <time>2021-09-04T09:54:02Z</time>
      </trkpt>
      <trkpt lat="42.623104" lon="0.468457">
        <ele>1816.000000</ele>
        <time>2021-09-04T09:54:04Z</time>
      </trkpt>
      <trkpt lat="42.623103" lon="0.468453">
        <ele>1816.000000</ele>
        <time>2021-09-04T09:54:05Z</time>
      </trkpt>
      <trkpt lat="42.623102" lon="0.468448">
        <ele>1816.000000</ele>
        <time>2021-09-04T09:54:08Z</time>
      </trkpt>
      <trkpt lat="42.623101" lon="0.468445">
        <ele>1816.000000</ele>
        <time>2021-09-04T09:54:09Z</time>
      </trkpt>
      <trkpt lat="42.623099" lon="0.468440">
        <ele>1816.000000</ele>
        <time>2021-09-04T09:54:13Z</time>
      </trkpt>
      <trkpt lat="42.623072" lon="0.468340">
        <ele>1816.000000</ele>
        <time>2021-09-04T09:54:49Z</time>
      </trkpt>
      <trkpt lat="42.623067" lon="0.468337">
        <ele>1816.000000</ele>
        <time>2021-09-04T09:54:50Z</time>
      </trkpt>
      <trkpt lat="42.623064" lon="0.468333">
        <ele>1816.000000</ele>
        <time>2021-09-04T09:54:51Z</time>
      </trkpt>
      <trkpt lat="42.623063" lon="0.468328">
        <ele>1816.000000</ele>
        <time>2021-09-04T09:54:52Z</time>
      </trkpt>
      <trkpt lat="42.623063" lon="0.468322">
        <ele>1816.000000</ele>
        <time>2021-09-04T09:54:53Z</time>
      </trkpt>
      <trkpt lat="42.623064" lon="0.468315">
        <ele>1816.000000</ele>
        <time>2021-09-04T09:54:54Z</time>
      </trkpt>
      <trkpt lat="42.623070" lon="0.468315">
        <ele>1816.000000</ele>
        <time>2021-09-04T09:54:55Z</time>
      </trkpt>
      <trkpt lat="42.623070" lon="0.468308">
        <ele>1816.000000</ele>
        <time>2021-09-04T09:54:57Z</time>
      </trkpt>
      <trkpt lat="42.623070" lon="0.468302">
        <ele>1816.000000</ele>
        <time>2021-09-04T09:54:58Z</time>
      </trkpt>
      <trkpt lat="42.623070" lon="0.468298">
        <ele>1816.000000</ele>
        <time>2021-09-04T09:54:59Z</time>
      </trkpt>
      <trkpt lat="42.623072" lon="0.468288">
        <ele>1816.000000</ele>
        <time>2021-09-04T09:55:00Z</time>
      </trkpt>
      <trkpt lat="42.623067" lon="0.468283">
        <ele>1816.000000</ele>
        <time>2021-09-04T09:55:01Z</time>
      </trkpt>
      <trkpt lat="42.623062" lon="0.468275">
        <ele>1816.000000</ele>
        <time>2021-09-04T09:55:02Z</time>
      </trkpt>
      <trkpt lat="42.623065" lon="0.468270">
        <ele>1816.000000</ele>
        <time>2021-09-04T09:55:04Z</time>
      </trkpt>
      <trkpt lat="42.623068" lon="0.468263">
        <ele>1816.000000</ele>
        <time>2021-09-04T09:55:06Z</time>
      </trkpt>
      <trkpt lat="42.623070" lon="0.468258">
        <ele>1816.000000</ele>
        <time>2021-09-04T09:55:07Z</time>
      </trkpt>
      <trkpt lat="42.623067" lon="0.468263">
        <ele>1816.000000</ele>
        <time>2021-09-04T09:55:09Z</time>
      </trkpt>
      <trkpt lat="42.623066" lon="0.468267">
        <ele>1816.000000</ele>
        <time>2021-09-04T09:55:11Z</time>
      </trkpt>
      <trkpt lat="42.623067" lon="0.468263">
        <ele>1816.000000</ele>
        <time>2021-09-04T09:55:12Z</time>
      </trkpt>
      <trkpt lat="42.623093" lon="0.468187">
        <ele>1816.000000</ele>
        <time>2021-09-04T09:55:25Z</time>
      </trkpt>
      <trkpt lat="42.623097" lon="0.468178">
        <ele>1816.000000</ele>
        <time>2021-09-04T09:55:26Z</time>
      </trkpt>
      <trkpt lat="42.623103" lon="0.468175">
        <ele>1816.000000</ele>
        <time>2021-09-04T09:55:27Z</time>
      </trkpt>
      <trkpt lat="42.623108" lon="0.468172">
        <ele>1816.000000</ele>
        <time>2021-09-04T09:55:28Z</time>
      </trkpt>
      <trkpt lat="42.623113" lon="0.468167">
        <ele>1816.000000</ele>
        <time>2021-09-04T09:55:29Z</time>
      </trkpt>
      <trkpt lat="42.623118" lon="0.468158">
        <ele>1816.000000</ele>
        <time>2021-09-04T09:55:30Z</time>
      </trkpt>
      <trkpt lat="42.623121" lon="0.468152">
        <ele>1816.000000</ele>
        <time>2021-09-04T09:55:31Z</time>
      </trkpt>
      <trkpt lat="42.623127" lon="0.468138">
        <ele>1816.000000</ele>
        <time>2021-09-04T09:55:32Z</time>
      </trkpt>
      <trkpt lat="42.623132" lon="0.468130">
        <ele>1816.000000</ele>
        <time>2021-09-04T09:55:33Z</time>
      </trkpt>
      <trkpt lat="42.623138" lon="0.468123">
        <ele>1816.000000</ele>
        <time>2021-09-04T09:55:34Z</time>
      </trkpt>
      <trkpt lat="42.623144" lon="0.468103">
        <ele>1816.000000</ele>
        <time>2021-09-04T09:55:35Z</time>
      </trkpt>
      <trkpt lat="42.623147" lon="0.468087">
        <ele>1816.000000</ele>
        <time>2021-09-04T09:55:36Z</time>
      </trkpt>
      <trkpt lat="42.623143" lon="0.468077">
        <ele>1816.000000</ele>
        <time>2021-09-04T09:55:37Z</time>
      </trkpt>
      <trkpt lat="42.623143" lon="0.468073">
        <ele>1816.000000</ele>
        <time>2021-09-04T09:55:38Z</time>
      </trkpt>
      <trkpt lat="42.623143" lon="0.468070">
        <ele>1816.000000</ele>
        <time>2021-09-04T09:55:39Z</time>
      </trkpt>
      <trkpt lat="42.623147" lon="0.468060">
        <ele>1816.000000</ele>
        <time>2021-09-04T09:55:40Z</time>
      </trkpt>
      <trkpt lat="42.623152" lon="0.468057">
        <ele>1816.000000</ele>
        <time>2021-09-04T09:55:41Z</time>
      </trkpt>
      <trkpt lat="42.623160" lon="0.468043">
        <ele>1816.000000</ele>
        <time>2021-09-04T09:55:42Z</time>
      </trkpt>
      <trkpt lat="42.623168" lon="0.468030">
        <ele>1816.000000</ele>
        <time>2021-09-04T09:55:43Z</time>
      </trkpt>
      <trkpt lat="42.623172" lon="0.468017">
        <ele>1816.000000</ele>
        <time>2021-09-04T09:55:44Z</time>
      </trkpt>
      <trkpt lat="42.623172" lon="0.468003">
        <ele>1816.000000</ele>
        <time>2021-09-04T09:55:45Z</time>
      </trkpt>
      <trkpt lat="42.623172" lon="0.467988">
        <ele>1816.000000</ele>
        <time>2021-09-04T09:55:46Z</time>
      </trkpt>
      <trkpt lat="42.623172" lon="0.467978">
        <ele>1816.000000</ele>
        <time>2021-09-04T09:55:47Z</time>
      </trkpt>
      <trkpt lat="42.623175" lon="0.467967">
        <ele>1816.000000</ele>
        <time>2021-09-04T09:55:49Z</time>
      </trkpt>
      <trkpt lat="42.623181" lon="0.467955">
        <ele>1816.000000</ele>
        <time>2021-09-04T09:55:49Z</time>
      </trkpt>
      <trkpt lat="42.623188" lon="0.467947">
        <ele>1816.000000</ele>
        <time>2021-09-04T09:55:50Z</time>
      </trkpt>
      <trkpt lat="42.623193" lon="0.467943">
        <ele>1816.000000</ele>
        <time>2021-09-04T09:55:51Z</time>
      </trkpt>
      <trkpt lat="42.623199" lon="0.467937">
        <ele>1816.000000</ele>
        <time>2021-09-04T09:55:52Z</time>
      </trkpt>
      <trkpt lat="42.623206" lon="0.467927">
        <ele>1816.000000</ele>
        <time>2021-09-04T09:55:53Z</time>
      </trkpt>
      <trkpt lat="42.623213" lon="0.467910">
        <ele>1817.000000</ele>
        <time>2021-09-04T09:55:54Z</time>
      </trkpt>
      <trkpt lat="42.623214" lon="0.467900">
        <ele>1817.000000</ele>
        <time>2021-09-04T09:55:55Z</time>
      </trkpt>
      <trkpt lat="42.623215" lon="0.467892">
        <ele>1817.000000</ele>
        <time>2021-09-04T09:55:56Z</time>
      </trkpt>
      <trkpt lat="42.623217" lon="0.467878">
        <ele>1817.000000</ele>
        <time>2021-09-04T09:55:57Z</time>
      </trkpt>
      <trkpt lat="42.623219" lon="0.467858">
        <ele>1817.000000</ele>
        <time>2021-09-04T09:55:58Z</time>
      </trkpt>
      <trkpt lat="42.623219" lon="0.467840">
        <ele>1817.000000</ele>
        <time>2021-09-04T09:55:59Z</time>
      </trkpt>
      <trkpt lat="42.623218" lon="0.467822">
        <ele>1817.000000</ele>
        <time>2021-09-04T09:56:00Z</time>
      </trkpt>
      <trkpt lat="42.623218" lon="0.467808">
        <ele>1818.000000</ele>
        <time>2021-09-04T09:56:01Z</time>
      </trkpt>
      <trkpt lat="42.623220" lon="0.467800">
        <ele>1818.000000</ele>
        <time>2021-09-04T09:56:02Z</time>
      </trkpt>
      <trkpt lat="42.623232" lon="0.467793">
        <ele>1818.000000</ele>
        <time>2021-09-04T09:56:03Z</time>
      </trkpt>
      <trkpt lat="42.623235" lon="0.467783">
        <ele>1818.000000</ele>
        <time>2021-09-04T09:56:04Z</time>
      </trkpt>
      <trkpt lat="42.623235" lon="0.467778">
        <ele>1818.000000</ele>
        <time>2021-09-04T09:56:05Z</time>
      </trkpt>
      <trkpt lat="42.623233" lon="0.467772">
        <ele>1818.000000</ele>
        <time>2021-09-04T09:56:06Z</time>
      </trkpt>
      <trkpt lat="42.623233" lon="0.467768">
        <ele>1818.000000</ele>
        <time>2021-09-04T09:56:07Z</time>
      </trkpt>
      <trkpt lat="42.623233" lon="0.467763">
        <ele>1818.000000</ele>
        <time>2021-09-04T09:56:08Z</time>
      </trkpt>
      <trkpt lat="42.623234" lon="0.467758">
        <ele>1818.000000</ele>
        <time>2021-09-04T09:56:09Z</time>
      </trkpt>
      <trkpt lat="42.623238" lon="0.467755">
        <ele>1818.000000</ele>
        <time>2021-09-04T09:56:11Z</time>
      </trkpt>
      <trkpt lat="42.623242" lon="0.467753">
        <ele>1818.000000</ele>
        <time>2021-09-04T09:56:12Z</time>
      </trkpt>
      <trkpt lat="42.623247" lon="0.467750">
        <ele>1819.000000</ele>
        <time>2021-09-04T09:56:13Z</time>
      </trkpt>
      <trkpt lat="42.623247" lon="0.467747">
        <ele>1819.000000</ele>
        <time>2021-09-04T09:56:14Z</time>
      </trkpt>
      <trkpt lat="42.623249" lon="0.467742">
        <ele>1819.000000</ele>
        <time>2021-09-04T09:56:15Z</time>
      </trkpt>
      <trkpt lat="42.623256" lon="0.467735">
        <ele>1819.000000</ele>
        <time>2021-09-04T09:56:16Z</time>
      </trkpt>
      <trkpt lat="42.623260" lon="0.467728">
        <ele>1819.000000</ele>
        <time>2021-09-04T09:56:17Z</time>
      </trkpt>
      <trkpt lat="42.623264" lon="0.467718">
        <ele>1819.000000</ele>
        <time>2021-09-04T09:56:18Z</time>
      </trkpt>
      <trkpt lat="42.623267" lon="0.467710">
        <ele>1819.000000</ele>
        <time>2021-09-04T09:56:19Z</time>
      </trkpt>
      <trkpt lat="42.623265" lon="0.467707">
        <ele>1819.000000</ele>
        <time>2021-09-04T09:56:20Z</time>
      </trkpt>
      <trkpt lat="42.623267" lon="0.467703">
        <ele>1819.000000</ele>
        <time>2021-09-04T09:56:21Z</time>
      </trkpt>
      <trkpt lat="42.623269" lon="0.467702">
        <ele>1819.000000</ele>
        <time>2021-09-04T09:56:22Z</time>
      </trkpt>
      <trkpt lat="42.623274" lon="0.467698">
        <ele>1819.000000</ele>
        <time>2021-09-04T09:56:23Z</time>
      </trkpt>
      <trkpt lat="42.623280" lon="0.467695">
        <ele>1819.000000</ele>
        <time>2021-09-04T09:56:25Z</time>
      </trkpt>
      <trkpt lat="42.623283" lon="0.467692">
        <ele>1819.000000</ele>
        <time>2021-09-04T09:56:26Z</time>
      </trkpt>
      <trkpt lat="42.623287" lon="0.467687">
        <ele>1819.000000</ele>
        <time>2021-09-04T09:56:27Z</time>
      </trkpt>
      <trkpt lat="42.623290" lon="0.467678">
        <ele>1819.000000</ele>
        <time>2021-09-04T09:56:28Z</time>
      </trkpt>
      <trkpt lat="42.623295" lon="0.467672">
        <ele>1819.000000</ele>
        <time>2021-09-04T09:56:29Z</time>
      </trkpt>
      <trkpt lat="42.623298" lon="0.467671">
        <ele>1819.000000</ele>
        <time>2021-09-04T09:56:30Z</time>
      </trkpt>
      <trkpt lat="42.623302" lon="0.467668">
        <ele>1819.000000</ele>
        <time>2021-09-04T09:56:31Z</time>
      </trkpt>
      <trkpt lat="42.623305" lon="0.467658">
        <ele>1819.000000</ele>
        <time>2021-09-04T09:56:32Z</time>
      </trkpt>
      <trkpt lat="42.623308" lon="0.467652">
        <ele>1819.000000</ele>
        <time>2021-09-04T09:56:33Z</time>
      </trkpt>
      <trkpt lat="42.623310" lon="0.467647">
        <ele>1819.000000</ele>
        <time>2021-09-04T09:56:34Z</time>
      </trkpt>
      <trkpt lat="42.623313" lon="0.467645">
        <ele>1819.000000</ele>
        <time>2021-09-04T09:56:35Z</time>
      </trkpt>
      <trkpt lat="42.623322" lon="0.467640">
        <ele>1819.000000</ele>
        <time>2021-09-04T09:56:36Z</time>
      </trkpt>
      <trkpt lat="42.623328" lon="0.467637">
        <ele>1819.000000</ele>
        <time>2021-09-04T09:56:38Z</time>
      </trkpt>
      <trkpt lat="42.623335" lon="0.467630">
        <ele>1819.000000</ele>
        <time>2021-09-04T09:56:38Z</time>
      </trkpt>
      <trkpt lat="42.623343" lon="0.467624">
        <ele>1819.000000</ele>
        <time>2021-09-04T09:56:39Z</time>
      </trkpt>
      <trkpt lat="42.623353" lon="0.467614">
        <ele>1819.000000</ele>
        <time>2021-09-04T09:56:40Z</time>
      </trkpt>
      <trkpt lat="42.623362" lon="0.467606">
        <ele>1819.000000</ele>
        <time>2021-09-04T09:56:41Z</time>
      </trkpt>
      <trkpt lat="42.623368" lon="0.467597">
        <ele>1819.000000</ele>
        <time>2021-09-04T09:56:42Z</time>
      </trkpt>
      <trkpt lat="42.623373" lon="0.467587">
        <ele>1819.000000</ele>
        <time>2021-09-04T09:56:43Z</time>
      </trkpt>
      <trkpt lat="42.623378" lon="0.467577">
        <ele>1819.000000</ele>
        <time>2021-09-04T09:56:44Z</time>
      </trkpt>
      <trkpt lat="42.623383" lon="0.467563">
        <ele>1819.000000</ele>
        <time>2021-09-04T09:56:45Z</time>
      </trkpt>
      <trkpt lat="42.623388" lon="0.467558">
        <ele>1819.000000</ele>
        <time>2021-09-04T09:56:46Z</time>
      </trkpt>
      <trkpt lat="42.623392" lon="0.467553">
        <ele>1819.000000</ele>
        <time>2021-09-04T09:56:47Z</time>
      </trkpt>
      <trkpt lat="42.623392" lon="0.467542">
        <ele>1819.000000</ele>
        <time>2021-09-04T09:56:48Z</time>
      </trkpt>
      <trkpt lat="42.623391" lon="0.467530">
        <ele>1819.000000</ele>
        <time>2021-09-04T09:56:49Z</time>
      </trkpt>
      <trkpt lat="42.623387" lon="0.467522">
        <ele>1819.000000</ele>
        <time>2021-09-04T09:56:50Z</time>
      </trkpt>
      <trkpt lat="42.623382" lon="0.467510">
        <ele>1819.000000</ele>
        <time>2021-09-04T09:56:51Z</time>
      </trkpt>
      <trkpt lat="42.623382" lon="0.467495">
        <ele>1819.000000</ele>
        <time>2021-09-04T09:56:52Z</time>
      </trkpt>
      <trkpt lat="42.623382" lon="0.467482">
        <ele>1819.000000</ele>
        <time>2021-09-04T09:56:53Z</time>
      </trkpt>
      <trkpt lat="42.623383" lon="0.467475">
        <ele>1819.000000</ele>
        <time>2021-09-04T09:56:54Z</time>
      </trkpt>
      <trkpt lat="42.623384" lon="0.467472">
        <ele>1819.000000</ele>
        <time>2021-09-04T09:56:54Z</time>
      </trkpt>
      <trkpt lat="42.623385" lon="0.467460">
        <ele>1819.000000</ele>
        <time>2021-09-04T09:56:55Z</time>
      </trkpt>
      <trkpt lat="42.623386" lon="0.467452">
        <ele>1819.000000</ele>
        <time>2021-09-04T09:56:56Z</time>
      </trkpt>
      <trkpt lat="42.623390" lon="0.467445">
        <ele>1819.000000</ele>
        <time>2021-09-04T09:56:57Z</time>
      </trkpt>
      <trkpt lat="42.623403" lon="0.467435">
        <ele>1819.000000</ele>
        <time>2021-09-04T09:56:58Z</time>
      </trkpt>
      <trkpt lat="42.623405" lon="0.467425">
        <ele>1819.000000</ele>
        <time>2021-09-04T09:56:59Z</time>
      </trkpt>
      <trkpt lat="42.623405" lon="0.467420">
        <ele>1819.000000</ele>
        <time>2021-09-04T09:57:00Z</time>
      </trkpt>
      <trkpt lat="42.623405" lon="0.467405">
        <ele>1819.000000</ele>
        <time>2021-09-04T09:57:01Z</time>
      </trkpt>
      <trkpt lat="42.623403" lon="0.467395">
        <ele>1819.000000</ele>
        <time>2021-09-04T09:57:02Z</time>
      </trkpt>
      <trkpt lat="42.623405" lon="0.467388">
        <ele>1819.000000</ele>
        <time>2021-09-04T09:57:03Z</time>
      </trkpt>
      <trkpt lat="42.623410" lon="0.467378">
        <ele>1819.000000</ele>
        <time>2021-09-04T09:57:04Z</time>
      </trkpt>
      <trkpt lat="42.623416" lon="0.467372">
        <ele>1819.000000</ele>
        <time>2021-09-04T09:57:05Z</time>
      </trkpt>
      <trkpt lat="42.623422" lon="0.467368">
        <ele>1819.000000</ele>
        <time>2021-09-04T09:57:06Z</time>
      </trkpt>
      <trkpt lat="42.623428" lon="0.467363">
        <ele>1819.000000</ele>
        <time>2021-09-04T09:57:07Z</time>
      </trkpt>
      <trkpt lat="42.623430" lon="0.467352">
        <ele>1819.000000</ele>
        <time>2021-09-04T09:57:08Z</time>
      </trkpt>
      <trkpt lat="42.623437" lon="0.467340">
        <ele>1819.000000</ele>
        <time>2021-09-04T09:57:09Z</time>
      </trkpt>
      <trkpt lat="42.623440" lon="0.467328">
        <ele>1819.000000</ele>
        <time>2021-09-04T09:57:10Z</time>
      </trkpt>
      <trkpt lat="42.623445" lon="0.467323">
        <ele>1819.000000</ele>
        <time>2021-09-04T09:57:11Z</time>
      </trkpt>
      <trkpt lat="42.623451" lon="0.467320">
        <ele>1819.000000</ele>
        <time>2021-09-04T09:57:12Z</time>
      </trkpt>
      <trkpt lat="42.623462" lon="0.467315">
        <ele>1819.000000</ele>
        <time>2021-09-04T09:57:13Z</time>
      </trkpt>
      <trkpt lat="42.623467" lon="0.467310">
        <ele>1819.000000</ele>
        <time>2021-09-04T09:57:14Z</time>
      </trkpt>
      <trkpt lat="42.623472" lon="0.467310">
        <ele>1819.000000</ele>
        <time>2021-09-04T09:57:16Z</time>
      </trkpt>
      <trkpt lat="42.623475" lon="0.467303">
        <ele>1819.000000</ele>
        <time>2021-09-04T09:57:17Z</time>
      </trkpt>
      <trkpt lat="42.623478" lon="0.467297">
        <ele>1819.000000</ele>
        <time>2021-09-04T09:57:18Z</time>
      </trkpt>
      <trkpt lat="42.623478" lon="0.467283">
        <ele>1819.000000</ele>
        <time>2021-09-04T09:57:20Z</time>
      </trkpt>
      <trkpt lat="42.623480" lon="0.467277">
        <ele>1819.000000</ele>
        <time>2021-09-04T09:57:20Z</time>
      </trkpt>
      <trkpt lat="42.623478" lon="0.467275">
        <ele>1819.000000</ele>
        <time>2021-09-04T09:57:21Z</time>
      </trkpt>
      <trkpt lat="42.623480" lon="0.467273">
        <ele>1819.000000</ele>
        <time>2021-09-04T09:57:23Z</time>
      </trkpt>
      <trkpt lat="42.623480" lon="0.467270">
        <ele>1819.000000</ele>
        <time>2021-09-04T09:57:24Z</time>
      </trkpt>
      <trkpt lat="42.623479" lon="0.467267">
        <ele>1819.000000</ele>
        <time>2021-09-04T09:57:25Z</time>
      </trkpt>
      <trkpt lat="42.623480" lon="0.467262">
        <ele>1819.000000</ele>
        <time>2021-09-04T09:57:26Z</time>
      </trkpt>
      <trkpt lat="42.623481" lon="0.467258">
        <ele>1819.000000</ele>
        <time>2021-09-04T09:57:27Z</time>
      </trkpt>
      <trkpt lat="42.623485" lon="0.467257">
        <ele>1819.000000</ele>
        <time>2021-09-04T09:57:28Z</time>
      </trkpt>
      <trkpt lat="42.623502" lon="0.467255">
        <ele>1819.000000</ele>
        <time>2021-09-04T09:57:29Z</time>
      </trkpt>
      <trkpt lat="42.623513" lon="0.467247">
        <ele>1819.000000</ele>
        <time>2021-09-04T09:57:30Z</time>
      </trkpt>
      <trkpt lat="42.623522" lon="0.467240">
        <ele>1819.000000</ele>
        <time>2021-09-04T09:57:31Z</time>
      </trkpt>
      <trkpt lat="42.623528" lon="0.467238">
        <ele>1819.000000</ele>
        <time>2021-09-04T09:57:32Z</time>
      </trkpt>
      <trkpt lat="42.623535" lon="0.467237">
        <ele>1819.000000</ele>
        <time>2021-09-04T09:57:33Z</time>
      </trkpt>
      <trkpt lat="42.623542" lon="0.467227">
        <ele>1820.000000</ele>
        <time>2021-09-04T09:57:34Z</time>
      </trkpt>
      <trkpt lat="42.623552" lon="0.467216">
        <ele>1820.000000</ele>
        <time>2021-09-04T09:57:35Z</time>
      </trkpt>
      <trkpt lat="42.623562" lon="0.467210">
        <ele>1820.000000</ele>
        <time>2021-09-04T09:57:36Z</time>
      </trkpt>
      <trkpt lat="42.623567" lon="0.467207">
        <ele>1820.000000</ele>
        <time>2021-09-04T09:57:37Z</time>
      </trkpt>
      <trkpt lat="42.623572" lon="0.467202">
        <ele>1820.000000</ele>
        <time>2021-09-04T09:57:38Z</time>
      </trkpt>
      <trkpt lat="42.623577" lon="0.467192">
        <ele>1820.000000</ele>
        <time>2021-09-04T09:57:39Z</time>
      </trkpt>
      <trkpt lat="42.623585" lon="0.467181">
        <ele>1820.000000</ele>
        <time>2021-09-04T09:57:40Z</time>
      </trkpt>
      <trkpt lat="42.623593" lon="0.467174">
        <ele>1820.000000</ele>
        <time>2021-09-04T09:57:41Z</time>
      </trkpt>
      <trkpt lat="42.623603" lon="0.467165">
        <ele>1820.000000</ele>
        <time>2021-09-04T09:57:42Z</time>
      </trkpt>
      <trkpt lat="42.623610" lon="0.467158">
        <ele>1820.000000</ele>
        <time>2021-09-04T09:57:43Z</time>
      </trkpt>
      <trkpt lat="42.623617" lon="0.467149">
        <ele>1820.000000</ele>
        <time>2021-09-04T09:57:44Z</time>
      </trkpt>
      <trkpt lat="42.623625" lon="0.467137">
        <ele>1820.000000</ele>
        <time>2021-09-04T09:57:45Z</time>
      </trkpt>
      <trkpt lat="42.623633" lon="0.467131">
        <ele>1820.000000</ele>
        <time>2021-09-04T09:57:46Z</time>
      </trkpt>
      <trkpt lat="42.623642" lon="0.467129">
        <ele>1820.000000</ele>
        <time>2021-09-04T09:57:47Z</time>
      </trkpt>
      <trkpt lat="42.623647" lon="0.467125">
        <ele>1820.000000</ele>
        <time>2021-09-04T09:57:48Z</time>
      </trkpt>
      <trkpt lat="42.623647" lon="0.467117">
        <ele>1820.000000</ele>
        <time>2021-09-04T09:57:49Z</time>
      </trkpt>
      <trkpt lat="42.623650" lon="0.467099">
        <ele>1820.000000</ele>
        <time>2021-09-04T09:57:50Z</time>
      </trkpt>
      <trkpt lat="42.623655" lon="0.467093">
        <ele>1820.000000</ele>
        <time>2021-09-04T09:57:51Z</time>
      </trkpt>
      <trkpt lat="42.623658" lon="0.467087">
        <ele>1820.000000</ele>
        <time>2021-09-04T09:57:52Z</time>
      </trkpt>
      <trkpt lat="42.623662" lon="0.467075">
        <ele>1820.000000</ele>
        <time>2021-09-04T09:57:53Z</time>
      </trkpt>
      <trkpt lat="42.623667" lon="0.467063">
        <ele>1820.000000</ele>
        <time>2021-09-04T09:57:54Z</time>
      </trkpt>
      <trkpt lat="42.623673" lon="0.467050">
        <ele>1820.000000</ele>
        <time>2021-09-04T09:57:55Z</time>
      </trkpt>
      <trkpt lat="42.623678" lon="0.467040">
        <ele>1820.000000</ele>
        <time>2021-09-04T09:57:56Z</time>
      </trkpt>
      <trkpt lat="42.623681" lon="0.467030">
        <ele>1820.000000</ele>
        <time>2021-09-04T09:57:57Z</time>
      </trkpt>
      <trkpt lat="42.623687" lon="0.467017">
        <ele>1820.000000</ele>
        <time>2021-09-04T09:57:58Z</time>
      </trkpt>
      <trkpt lat="42.623688" lon="0.467012">
        <ele>1819.000000</ele>
        <time>2021-09-04T09:58:00Z</time>
      </trkpt>
      <trkpt lat="42.623693" lon="0.467002">
        <ele>1819.000000</ele>
        <time>2021-09-04T09:58:01Z</time>
      </trkpt>
      <trkpt lat="42.623695" lon="0.466998">
        <ele>1819.000000</ele>
        <time>2021-09-04T09:58:02Z</time>
      </trkpt>
      <trkpt lat="42.623700" lon="0.466990">
        <ele>1819.000000</ele>
        <time>2021-09-04T09:58:03Z</time>
      </trkpt>
      <trkpt lat="42.623707" lon="0.466982">
        <ele>1819.000000</ele>
        <time>2021-09-04T09:58:04Z</time>
      </trkpt>
      <trkpt lat="42.623707" lon="0.466972">
        <ele>1819.000000</ele>
        <time>2021-09-04T09:58:05Z</time>
      </trkpt>
      <trkpt lat="42.623708" lon="0.466962">
        <ele>1819.000000</ele>
        <time>2021-09-04T09:58:06Z</time>
      </trkpt>
      <trkpt lat="42.623712" lon="0.466948">
        <ele>1819.000000</ele>
        <time>2021-09-04T09:58:07Z</time>
      </trkpt>
      <trkpt lat="42.623719" lon="0.466928">
        <ele>1819.000000</ele>
        <time>2021-09-04T09:58:08Z</time>
      </trkpt>
      <trkpt lat="42.623723" lon="0.466918">
        <ele>1819.000000</ele>
        <time>2021-09-04T09:58:09Z</time>
      </trkpt>
      <trkpt lat="42.623726" lon="0.466913">
        <ele>1818.000000</ele>
        <time>2021-09-04T09:58:10Z</time>
      </trkpt>
      <trkpt lat="42.623730" lon="0.466905">
        <ele>1818.000000</ele>
        <time>2021-09-04T09:58:11Z</time>
      </trkpt>
      <trkpt lat="42.623735" lon="0.466890">
        <ele>1818.000000</ele>
        <time>2021-09-04T09:58:12Z</time>
      </trkpt>
      <trkpt lat="42.623742" lon="0.466872">
        <ele>1818.000000</ele>
        <time>2021-09-04T09:58:13Z</time>
      </trkpt>
      <trkpt lat="42.623750" lon="0.466860">
        <ele>1818.000000</ele>
        <time>2021-09-04T09:58:14Z</time>
      </trkpt>
      <trkpt lat="42.623768" lon="0.466858">
        <ele>1818.000000</ele>
        <time>2021-09-04T09:58:15Z</time>
      </trkpt>
      <trkpt lat="42.623782" lon="0.466847">
        <ele>1818.000000</ele>
        <time>2021-09-04T09:58:16Z</time>
      </trkpt>
      <trkpt lat="42.623785" lon="0.466842">
        <ele>1818.000000</ele>
        <time>2021-09-04T09:58:17Z</time>
      </trkpt>
      <trkpt lat="42.623782" lon="0.466840">
        <ele>1817.000000</ele>
        <time>2021-09-04T09:58:18Z</time>
      </trkpt>
      <trkpt lat="42.623787" lon="0.466838">
        <ele>1817.000000</ele>
        <time>2021-09-04T09:58:19Z</time>
      </trkpt>
      <trkpt lat="42.623792" lon="0.466833">
        <ele>1817.000000</ele>
        <time>2021-09-04T09:58:20Z</time>
      </trkpt>
      <trkpt lat="42.623802" lon="0.466827">
        <ele>1817.000000</ele>
        <time>2021-09-04T09:58:21Z</time>
      </trkpt>
      <trkpt lat="42.623813" lon="0.466821">
        <ele>1817.000000</ele>
        <time>2021-09-04T09:58:22Z</time>
      </trkpt>
      <trkpt lat="42.623822" lon="0.466820">
        <ele>1817.000000</ele>
        <time>2021-09-04T09:58:23Z</time>
      </trkpt>
      <trkpt lat="42.623828" lon="0.466818">
        <ele>1817.000000</ele>
        <time>2021-09-04T09:58:24Z</time>
      </trkpt>
      <trkpt lat="42.623835" lon="0.466817">
        <ele>1817.000000</ele>
        <time>2021-09-04T09:58:25Z</time>
      </trkpt>
      <trkpt lat="42.623845" lon="0.466815">
        <ele>1817.000000</ele>
        <time>2021-09-04T09:58:26Z</time>
      </trkpt>
      <trkpt lat="42.623855" lon="0.466820">
        <ele>1817.000000</ele>
        <time>2021-09-04T09:58:27Z</time>
      </trkpt>
      <trkpt lat="42.623863" lon="0.466813">
        <ele>1817.000000</ele>
        <time>2021-09-04T09:58:28Z</time>
      </trkpt>
      <trkpt lat="42.623870" lon="0.466805">
        <ele>1817.000000</ele>
        <time>2021-09-04T09:58:29Z</time>
      </trkpt>
      <trkpt lat="42.623878" lon="0.466798">
        <ele>1817.000000</ele>
        <time>2021-09-04T09:58:30Z</time>
      </trkpt>
      <trkpt lat="42.623883" lon="0.466792">
        <ele>1817.000000</ele>
        <time>2021-09-04T09:58:31Z</time>
      </trkpt>
      <trkpt lat="42.623892" lon="0.466785">
        <ele>1817.000000</ele>
        <time>2021-09-04T09:58:32Z</time>
      </trkpt>
      <trkpt lat="42.623898" lon="0.466779">
        <ele>1817.000000</ele>
        <time>2021-09-04T09:58:33Z</time>
      </trkpt>
      <trkpt lat="42.623907" lon="0.466773">
        <ele>1817.000000</ele>
        <time>2021-09-04T09:58:34Z</time>
      </trkpt>
      <trkpt lat="42.623918" lon="0.466765">
        <ele>1817.000000</ele>
        <time>2021-09-04T09:58:35Z</time>
      </trkpt>
      <trkpt lat="42.623930" lon="0.466758">
        <ele>1817.000000</ele>
        <time>2021-09-04T09:58:36Z</time>
      </trkpt>
      <trkpt lat="42.623937" lon="0.466755">
        <ele>1817.000000</ele>
        <time>2021-09-04T09:58:37Z</time>
      </trkpt>
      <trkpt lat="42.623945" lon="0.466750">
        <ele>1817.000000</ele>
        <time>2021-09-04T09:58:38Z</time>
      </trkpt>
      <trkpt lat="42.623955" lon="0.466743">
        <ele>1817.000000</ele>
        <time>2021-09-04T09:58:39Z</time>
      </trkpt>
      <trkpt lat="42.623960" lon="0.466740">
        <ele>1817.000000</ele>
        <time>2021-09-04T09:58:40Z</time>
      </trkpt>
      <trkpt lat="42.623962" lon="0.466739">
        <ele>1817.000000</ele>
        <time>2021-09-04T09:58:41Z</time>
      </trkpt>
      <trkpt lat="42.623965" lon="0.466737">
        <ele>1817.000000</ele>
        <time>2021-09-04T09:58:42Z</time>
      </trkpt>
      <trkpt lat="42.623970" lon="0.466735">
        <ele>1817.000000</ele>
        <time>2021-09-04T09:58:43Z</time>
      </trkpt>
      <trkpt lat="42.623973" lon="0.466733">
        <ele>1817.000000</ele>
        <time>2021-09-04T09:58:44Z</time>
      </trkpt>
      <trkpt lat="42.623977" lon="0.466736">
        <ele>1817.000000</ele>
        <time>2021-09-04T09:58:45Z</time>
      </trkpt>
      <trkpt lat="42.623983" lon="0.466739">
        <ele>1817.000000</ele>
        <time>2021-09-04T09:58:46Z</time>
      </trkpt>
      <trkpt lat="42.623990" lon="0.466738">
        <ele>1817.000000</ele>
        <time>2021-09-04T09:58:47Z</time>
      </trkpt>
      <trkpt lat="42.623997" lon="0.466732">
        <ele>1817.000000</ele>
        <time>2021-09-04T09:58:48Z</time>
      </trkpt>
      <trkpt lat="42.624002" lon="0.466722">
        <ele>1817.000000</ele>
        <time>2021-09-04T09:58:49Z</time>
      </trkpt>
      <trkpt lat="42.624007" lon="0.466713">
        <ele>1817.000000</ele>
        <time>2021-09-04T09:58:50Z</time>
      </trkpt>
      <trkpt lat="42.624013" lon="0.466705">
        <ele>1817.000000</ele>
        <time>2021-09-04T09:58:51Z</time>
      </trkpt>
      <trkpt lat="42.624022" lon="0.466695">
        <ele>1817.000000</ele>
        <time>2021-09-04T09:58:52Z</time>
      </trkpt>
      <trkpt lat="42.624025" lon="0.466685">
        <ele>1817.000000</ele>
        <time>2021-09-04T09:58:53Z</time>
      </trkpt>
      <trkpt lat="42.624030" lon="0.466672">
        <ele>1817.000000</ele>
        <time>2021-09-04T09:58:54Z</time>
      </trkpt>
      <trkpt lat="42.624037" lon="0.466663">
        <ele>1817.000000</ele>
        <time>2021-09-04T09:58:55Z</time>
      </trkpt>
      <trkpt lat="42.624045" lon="0.466662">
        <ele>1815.000000</ele>
        <time>2021-09-04T09:58:56Z</time>
      </trkpt>
      <trkpt lat="42.624052" lon="0.466663">
        <ele>1815.000000</ele>
        <time>2021-09-04T09:58:57Z</time>
      </trkpt>
      <trkpt lat="42.624058" lon="0.466650">
        <ele>1815.000000</ele>
        <time>2021-09-04T09:58:58Z</time>
      </trkpt>
      <trkpt lat="42.624065" lon="0.466642">
        <ele>1815.000000</ele>
        <time>2021-09-04T09:58:59Z</time>
      </trkpt>
      <trkpt lat="42.624073" lon="0.466635">
        <ele>1815.000000</ele>
        <time>2021-09-04T09:59:00Z</time>
      </trkpt>
      <trkpt lat="42.624077" lon="0.466632">
        <ele>1815.000000</ele>
        <time>2021-09-04T09:59:01Z</time>
      </trkpt>
      <trkpt lat="42.624087" lon="0.466627">
        <ele>1815.000000</ele>
        <time>2021-09-04T09:59:02Z</time>
      </trkpt>
      <trkpt lat="42.624098" lon="0.466621">
        <ele>1815.000000</ele>
        <time>2021-09-04T09:59:03Z</time>
      </trkpt>
      <trkpt lat="42.624108" lon="0.466628">
        <ele>1815.000000</ele>
        <time>2021-09-04T09:59:04Z</time>
      </trkpt>
      <trkpt lat="42.624118" lon="0.466623">
        <ele>1815.000000</ele>
        <time>2021-09-04T09:59:05Z</time>
      </trkpt>
      <trkpt lat="42.624123" lon="0.466620">
        <ele>1815.000000</ele>
        <time>2021-09-04T09:59:06Z</time>
      </trkpt>
      <trkpt lat="42.624130" lon="0.466619">
        <ele>1815.000000</ele>
        <time>2021-09-04T09:59:07Z</time>
      </trkpt>
      <trkpt lat="42.624140" lon="0.466618">
        <ele>1815.000000</ele>
        <time>2021-09-04T09:59:08Z</time>
      </trkpt>
      <trkpt lat="42.624148" lon="0.466620">
        <ele>1815.000000</ele>
        <time>2021-09-04T09:59:09Z</time>
      </trkpt>
      <trkpt lat="42.624157" lon="0.466622">
        <ele>1815.000000</ele>
        <time>2021-09-04T09:59:10Z</time>
      </trkpt>
      <trkpt lat="42.624162" lon="0.466624">
        <ele>1815.000000</ele>
        <time>2021-09-04T09:59:11Z</time>
      </trkpt>
      <trkpt lat="42.624167" lon="0.466624">
        <ele>1815.000000</ele>
        <time>2021-09-04T09:59:12Z</time>
      </trkpt>
      <trkpt lat="42.624173" lon="0.466620">
        <ele>1815.000000</ele>
        <time>2021-09-04T09:59:13Z</time>
      </trkpt>
      <trkpt lat="42.624178" lon="0.466616">
        <ele>1815.000000</ele>
        <time>2021-09-04T09:59:14Z</time>
      </trkpt>
      <trkpt lat="42.624185" lon="0.466611">
        <ele>1815.000000</ele>
        <time>2021-09-04T09:59:15Z</time>
      </trkpt>
      <trkpt lat="42.624193" lon="0.466605">
        <ele>1815.000000</ele>
        <time>2021-09-04T09:59:16Z</time>
      </trkpt>
      <trkpt lat="42.624198" lon="0.466600">
        <ele>1815.000000</ele>
        <time>2021-09-04T09:59:17Z</time>
      </trkpt>
      <trkpt lat="42.624203" lon="0.466596">
        <ele>1815.000000</ele>
        <time>2021-09-04T09:59:18Z</time>
      </trkpt>
      <trkpt lat="42.624213" lon="0.466590">
        <ele>1815.000000</ele>
        <time>2021-09-04T09:59:19Z</time>
      </trkpt>
      <trkpt lat="42.624223" lon="0.466584">
        <ele>1815.000000</ele>
        <time>2021-09-04T09:59:20Z</time>
      </trkpt>
      <trkpt lat="42.624235" lon="0.466579">
        <ele>1814.000000</ele>
        <time>2021-09-04T09:59:21Z</time>
      </trkpt>
      <trkpt lat="42.624245" lon="0.466574">
        <ele>1814.000000</ele>
        <time>2021-09-04T09:59:22Z</time>
      </trkpt>
      <trkpt lat="42.624252" lon="0.466571">
        <ele>1814.000000</ele>
        <time>2021-09-04T09:59:23Z</time>
      </trkpt>
      <trkpt lat="42.624265" lon="0.466567">
        <ele>1814.000000</ele>
        <time>2021-09-04T09:59:24Z</time>
      </trkpt>
      <trkpt lat="42.624278" lon="0.466564">
        <ele>1814.000000</ele>
        <time>2021-09-04T09:59:25Z</time>
      </trkpt>
      <trkpt lat="42.624287" lon="0.466561">
        <ele>1814.000000</ele>
        <time>2021-09-04T09:59:26Z</time>
      </trkpt>
      <trkpt lat="42.624292" lon="0.466560">
        <ele>1814.000000</ele>
        <time>2021-09-04T09:59:27Z</time>
      </trkpt>
      <trkpt lat="42.624300" lon="0.466558">
        <ele>1814.000000</ele>
        <time>2021-09-04T09:59:28Z</time>
      </trkpt>
      <trkpt lat="42.624302" lon="0.466557">
        <ele>1814.000000</ele>
        <time>2021-09-04T09:59:29Z</time>
      </trkpt>
      <trkpt lat="42.624303" lon="0.466558">
        <ele>1814.000000</ele>
        <time>2021-09-04T09:59:31Z</time>
      </trkpt>
      <trkpt lat="42.624312" lon="0.466556">
        <ele>1814.000000</ele>
        <time>2021-09-04T09:59:32Z</time>
      </trkpt>
      <trkpt lat="42.624322" lon="0.466554">
        <ele>1814.000000</ele>
        <time>2021-09-04T09:59:33Z</time>
      </trkpt>
      <trkpt lat="42.624325" lon="0.466554">
        <ele>1814.000000</ele>
        <time>2021-09-04T09:59:34Z</time>
      </trkpt>
      <trkpt lat="42.624330" lon="0.466554">
        <ele>1814.000000</ele>
        <time>2021-09-04T09:59:36Z</time>
      </trkpt>
      <trkpt lat="42.624335" lon="0.466552">
        <ele>1814.000000</ele>
        <time>2021-09-04T09:59:36Z</time>
      </trkpt>
      <trkpt lat="42.624348" lon="0.466548">
        <ele>1814.000000</ele>
        <time>2021-09-04T09:59:37Z</time>
      </trkpt>
      <trkpt lat="42.624360" lon="0.466545">
        <ele>1814.000000</ele>
        <time>2021-09-04T09:59:38Z</time>
      </trkpt>
      <trkpt lat="42.624370" lon="0.466543">
        <ele>1814.000000</ele>
        <time>2021-09-04T09:59:39Z</time>
      </trkpt>
      <trkpt lat="42.624380" lon="0.466541">
        <ele>1814.000000</ele>
        <time>2021-09-04T09:59:40Z</time>
      </trkpt>
      <trkpt lat="42.624387" lon="0.466541">
        <ele>1814.000000</ele>
        <time>2021-09-04T09:59:41Z</time>
      </trkpt>
      <trkpt lat="42.624397" lon="0.466539">
        <ele>1814.000000</ele>
        <time>2021-09-04T09:59:42Z</time>
      </trkpt>
      <trkpt lat="42.624405" lon="0.466539">
        <ele>1814.000000</ele>
        <time>2021-09-04T09:59:43Z</time>
      </trkpt>
      <trkpt lat="42.624413" lon="0.466538">
        <ele>1814.000000</ele>
        <time>2021-09-04T09:59:44Z</time>
      </trkpt>
      <trkpt lat="42.624418" lon="0.466537">
        <ele>1815.000000</ele>
        <time>2021-09-04T09:59:45Z</time>
      </trkpt>
      <trkpt lat="42.624428" lon="0.466535">
        <ele>1815.000000</ele>
        <time>2021-09-04T09:59:46Z</time>
      </trkpt>
      <trkpt lat="42.624433" lon="0.466535">
        <ele>1815.000000</ele>
        <time>2021-09-04T09:59:47Z</time>
      </trkpt>
      <trkpt lat="42.624440" lon="0.466534">
        <ele>1815.000000</ele>
        <time>2021-09-04T09:59:48Z</time>
      </trkpt>
      <trkpt lat="42.624450" lon="0.466532">
        <ele>1815.000000</ele>
        <time>2021-09-04T09:59:49Z</time>
      </trkpt>
      <trkpt lat="42.624458" lon="0.466531">
        <ele>1815.000000</ele>
        <time>2021-09-04T09:59:50Z</time>
      </trkpt>
      <trkpt lat="42.624460" lon="0.466531">
        <ele>1815.000000</ele>
        <time>2021-09-04T09:59:51Z</time>
      </trkpt>
      <trkpt lat="42.624462" lon="0.466532">
        <ele>1815.000000</ele>
        <time>2021-09-04T09:59:52Z</time>
      </trkpt>
      <trkpt lat="42.624467" lon="0.466531">
        <ele>1815.000000</ele>
        <time>2021-09-04T09:59:53Z</time>
      </trkpt>
      <trkpt lat="42.624473" lon="0.466530">
        <ele>1815.000000</ele>
        <time>2021-09-04T09:59:54Z</time>
      </trkpt>
      <trkpt lat="42.624480" lon="0.466529">
        <ele>1815.000000</ele>
        <time>2021-09-04T09:59:55Z</time>
      </trkpt>
      <trkpt lat="42.624483" lon="0.466528">
        <ele>1815.000000</ele>
        <time>2021-09-04T09:59:56Z</time>
      </trkpt>
      <trkpt lat="42.624487" lon="0.466528">
        <ele>1815.000000</ele>
        <time>2021-09-04T09:59:57Z</time>
      </trkpt>
      <trkpt lat="42.624490" lon="0.466526">
        <ele>1815.000000</ele>
        <time>2021-09-04T09:59:58Z</time>
      </trkpt>
      <trkpt lat="42.624498" lon="0.466525">
        <ele>1815.000000</ele>
        <time>2021-09-04T09:59:59Z</time>
      </trkpt>
      <trkpt lat="42.624500" lon="0.466524">
        <ele>1815.000000</ele>
        <time>2021-09-04T10:00:00Z</time>
      </trkpt>
      <trkpt lat="42.624505" lon="0.466522">
        <ele>1815.000000</ele>
        <time>2021-09-04T10:00:01Z</time>
      </trkpt>
      <trkpt lat="42.624512" lon="0.466520">
        <ele>1815.000000</ele>
        <time>2021-09-04T10:00:02Z</time>
      </trkpt>
      <trkpt lat="42.624520" lon="0.466518">
        <ele>1815.000000</ele>
        <time>2021-09-04T10:00:03Z</time>
      </trkpt>
      <trkpt lat="42.624525" lon="0.466507">
        <ele>1815.000000</ele>
        <time>2021-09-04T10:00:04Z</time>
      </trkpt>
      <trkpt lat="42.624533" lon="0.466508">
        <ele>1815.000000</ele>
        <time>2021-09-04T10:00:05Z</time>
      </trkpt>
      <trkpt lat="42.624542" lon="0.466508">
        <ele>1815.000000</ele>
        <time>2021-09-04T10:00:06Z</time>
      </trkpt>
      <trkpt lat="42.624553" lon="0.466510">
        <ele>1815.000000</ele>
        <time>2021-09-04T10:00:07Z</time>
      </trkpt>
      <trkpt lat="42.624562" lon="0.466514">
        <ele>1815.000000</ele>
        <time>2021-09-04T10:00:08Z</time>
      </trkpt>
      <trkpt lat="42.624570" lon="0.466520">
        <ele>1816.000000</ele>
        <time>2021-09-04T10:00:09Z</time>
      </trkpt>
      <trkpt lat="42.624580" lon="0.466520">
        <ele>1816.000000</ele>
        <time>2021-09-04T10:00:10Z</time>
      </trkpt>
      <trkpt lat="42.624588" lon="0.466520">
        <ele>1816.000000</ele>
        <time>2021-09-04T10:00:11Z</time>
      </trkpt>
      <trkpt lat="42.624597" lon="0.466521">
        <ele>1816.000000</ele>
        <time>2021-09-04T10:00:12Z</time>
      </trkpt>
      <trkpt lat="42.624602" lon="0.466522">
        <ele>1816.000000</ele>
        <time>2021-09-04T10:00:13Z</time>
      </trkpt>
      <trkpt lat="42.624610" lon="0.466523">
        <ele>1816.000000</ele>
        <time>2021-09-04T10:00:14Z</time>
      </trkpt>
      <trkpt lat="42.624617" lon="0.466524">
        <ele>1816.000000</ele>
        <time>2021-09-04T10:00:15Z</time>
      </trkpt>
      <trkpt lat="42.624623" lon="0.466524">
        <ele>1816.000000</ele>
        <time>2021-09-04T10:00:16Z</time>
      </trkpt>
      <trkpt lat="42.624632" lon="0.466522">
        <ele>1816.000000</ele>
        <time>2021-09-04T10:00:17Z</time>
      </trkpt>
      <trkpt lat="42.624635" lon="0.466520">
        <ele>1816.000000</ele>
        <time>2021-09-04T10:00:18Z</time>
      </trkpt>
      <trkpt lat="42.624640" lon="0.466519">
        <ele>1815.000000</ele>
        <time>2021-09-04T10:00:19Z</time>
      </trkpt>
      <trkpt lat="42.624643" lon="0.466518">
        <ele>1815.000000</ele>
        <time>2021-09-04T10:00:21Z</time>
      </trkpt>
      <trkpt lat="42.624647" lon="0.466518">
        <ele>1815.000000</ele>
        <time>2021-09-04T10:00:22Z</time>
      </trkpt>
      <trkpt lat="42.624650" lon="0.466517">
        <ele>1815.000000</ele>
        <time>2021-09-04T10:00:23Z</time>
      </trkpt>
      <trkpt lat="42.624657" lon="0.466517">
        <ele>1815.000000</ele>
        <time>2021-09-04T10:00:24Z</time>
      </trkpt>
      <trkpt lat="42.624662" lon="0.466522">
        <ele>1815.000000</ele>
        <time>2021-09-04T10:00:25Z</time>
      </trkpt>
      <trkpt lat="42.624670" lon="0.466528">
        <ele>1814.000000</ele>
        <time>2021-09-04T10:00:26Z</time>
      </trkpt>
      <trkpt lat="42.624675" lon="0.466533">
        <ele>1814.000000</ele>
        <time>2021-09-04T10:00:27Z</time>
      </trkpt>
      <trkpt lat="42.624683" lon="0.466531">
        <ele>1814.000000</ele>
        <time>2021-09-04T10:00:28Z</time>
      </trkpt>
      <trkpt lat="42.624685" lon="0.466531">
        <ele>1814.000000</ele>
        <time>2021-09-04T10:00:29Z</time>
      </trkpt>
      <trkpt lat="42.624688" lon="0.466527">
        <ele>1814.000000</ele>
        <time>2021-09-04T10:00:30Z</time>
      </trkpt>
      <trkpt lat="42.624697" lon="0.466525">
        <ele>1814.000000</ele>
        <time>2021-09-04T10:00:31Z</time>
      </trkpt>
      <trkpt lat="42.624703" lon="0.466520">
        <ele>1814.000000</ele>
        <time>2021-09-04T10:00:32Z</time>
      </trkpt>
      <trkpt lat="42.624705" lon="0.466516">
        <ele>1814.000000</ele>
        <time>2021-09-04T10:00:33Z</time>
      </trkpt>
      <trkpt lat="42.624712" lon="0.466511">
        <ele>1814.000000</ele>
        <time>2021-09-04T10:00:34Z</time>
      </trkpt>
      <trkpt lat="42.624718" lon="0.466505">
        <ele>1814.000000</ele>
        <time>2021-09-04T10:00:35Z</time>
      </trkpt>
      <trkpt lat="42.624723" lon="0.466502">
        <ele>1814.000000</ele>
        <time>2021-09-04T10:00:36Z</time>
      </trkpt>
      <trkpt lat="42.624732" lon="0.466500">
        <ele>1814.000000</ele>
        <time>2021-09-04T10:00:37Z</time>
      </trkpt>
      <trkpt lat="42.624740" lon="0.466501">
        <ele>1814.000000</ele>
        <time>2021-09-04T10:00:38Z</time>
      </trkpt>
      <trkpt lat="42.624745" lon="0.466501">
        <ele>1814.000000</ele>
        <time>2021-09-04T10:00:39Z</time>
      </trkpt>
      <trkpt lat="42.624752" lon="0.466501">
        <ele>1814.000000</ele>
        <time>2021-09-04T10:00:40Z</time>
      </trkpt>
      <trkpt lat="42.624758" lon="0.466503">
        <ele>1814.000000</ele>
        <time>2021-09-04T10:00:41Z</time>
      </trkpt>
      <trkpt lat="42.624763" lon="0.466505">
        <ele>1814.000000</ele>
        <time>2021-09-04T10:00:42Z</time>
      </trkpt>
      <trkpt lat="42.624773" lon="0.466505">
        <ele>1814.000000</ele>
        <time>2021-09-04T10:00:43Z</time>
      </trkpt>
      <trkpt lat="42.624780" lon="0.466505">
        <ele>1814.000000</ele>
        <time>2021-09-04T10:00:44Z</time>
      </trkpt>
      <trkpt lat="42.624787" lon="0.466504">
        <ele>1814.000000</ele>
        <time>2021-09-04T10:00:45Z</time>
      </trkpt>
      <trkpt lat="42.624790" lon="0.466503">
        <ele>1814.000000</ele>
        <time>2021-09-04T10:00:46Z</time>
      </trkpt>
      <trkpt lat="42.624797" lon="0.466502">
        <ele>1814.000000</ele>
        <time>2021-09-04T10:00:47Z</time>
      </trkpt>
      <trkpt lat="42.624798" lon="0.466503">
        <ele>1814.000000</ele>
        <time>2021-09-04T10:00:48Z</time>
      </trkpt>
      <trkpt lat="42.624800" lon="0.466505">
        <ele>1814.000000</ele>
        <time>2021-09-04T10:00:49Z</time>
      </trkpt>
      <trkpt lat="42.624805" lon="0.466518">
        <ele>1815.000000</ele>
        <time>2021-09-04T10:00:50Z</time>
      </trkpt>
      <trkpt lat="42.624808" lon="0.466522">
        <ele>1815.000000</ele>
        <time>2021-09-04T10:00:51Z</time>
      </trkpt>
      <trkpt lat="42.624812" lon="0.466524">
        <ele>1815.000000</ele>
        <time>2021-09-04T10:00:52Z</time>
      </trkpt>
      <trkpt lat="42.624823" lon="0.466526">
        <ele>1815.000000</ele>
        <time>2021-09-04T10:00:53Z</time>
      </trkpt>
      <trkpt lat="42.624830" lon="0.466524">
        <ele>1816.000000</ele>
        <time>2021-09-04T10:00:54Z</time>
      </trkpt>
      <trkpt lat="42.624833" lon="0.466522">
        <ele>1816.000000</ele>
        <time>2021-09-04T10:00:55Z</time>
      </trkpt>
      <trkpt lat="42.624838" lon="0.466518">
        <ele>1816.000000</ele>
        <time>2021-09-04T10:00:56Z</time>
      </trkpt>
      <trkpt lat="42.624845" lon="0.466515">
        <ele>1817.000000</ele>
        <time>2021-09-04T10:00:57Z</time>
      </trkpt>
      <trkpt lat="42.624853" lon="0.466510">
        <ele>1817.000000</ele>
        <time>2021-09-04T10:00:58Z</time>
      </trkpt>
      <trkpt lat="42.624858" lon="0.466505">
        <ele>1817.000000</ele>
        <time>2021-09-04T10:00:59Z</time>
      </trkpt>
      <trkpt lat="42.624860" lon="0.466507">
        <ele>1817.000000</ele>
        <time>2021-09-04T10:01:00Z</time>
      </trkpt>
      <trkpt lat="42.624863" lon="0.466503">
        <ele>1817.000000</ele>
        <time>2021-09-04T10:01:01Z</time>
      </trkpt>
      <trkpt lat="42.624867" lon="0.466497">
        <ele>1817.000000</ele>
        <time>2021-09-04T10:01:02Z</time>
      </trkpt>
      <trkpt lat="42.624872" lon="0.466492">
        <ele>1817.000000</ele>
        <time>2021-09-04T10:01:03Z</time>
      </trkpt>
      <trkpt lat="42.624877" lon="0.466487">
        <ele>1817.000000</ele>
        <time>2021-09-04T10:01:04Z</time>
      </trkpt>
      <trkpt lat="42.624880" lon="0.466483">
        <ele>1818.000000</ele>
        <time>2021-09-04T10:01:05Z</time>
      </trkpt>
      <trkpt lat="42.624887" lon="0.466478">
        <ele>1818.000000</ele>
        <time>2021-09-04T10:01:06Z</time>
      </trkpt>
      <trkpt lat="42.624893" lon="0.466472">
        <ele>1818.000000</ele>
        <time>2021-09-04T10:01:07Z</time>
      </trkpt>
      <trkpt lat="42.624897" lon="0.466467">
        <ele>1818.000000</ele>
        <time>2021-09-04T10:01:08Z</time>
      </trkpt>
      <trkpt lat="42.624902" lon="0.466461">
        <ele>1818.000000</ele>
        <time>2021-09-04T10:01:09Z</time>
      </trkpt>
      <trkpt lat="42.624907" lon="0.466454">
        <ele>1818.000000</ele>
        <time>2021-09-04T10:01:09Z</time>
      </trkpt>
      <trkpt lat="42.624908" lon="0.466447">
        <ele>1818.000000</ele>
        <time>2021-09-04T10:01:10Z</time>
      </trkpt>
      <trkpt lat="42.624913" lon="0.466435">
        <ele>1818.000000</ele>
        <time>2021-09-04T10:01:11Z</time>
      </trkpt>
      <trkpt lat="42.624915" lon="0.466430">
        <ele>1818.000000</ele>
        <time>2021-09-04T10:01:12Z</time>
      </trkpt>
      <trkpt lat="42.624922" lon="0.466420">
        <ele>1818.000000</ele>
        <time>2021-09-04T10:01:13Z</time>
      </trkpt>
      <trkpt lat="42.624923" lon="0.466418">
        <ele>1818.000000</ele>
        <time>2021-09-04T10:01:14Z</time>
      </trkpt>
      <trkpt lat="42.624923" lon="0.466420">
        <ele>1819.000000</ele>
        <time>2021-09-04T10:01:15Z</time>
      </trkpt>
      <trkpt lat="42.624928" lon="0.466416">
        <ele>1819.000000</ele>
        <time>2021-09-04T10:01:16Z</time>
      </trkpt>
      <trkpt lat="42.624935" lon="0.466411">
        <ele>1819.000000</ele>
        <time>2021-09-04T10:01:17Z</time>
      </trkpt>
      <trkpt lat="42.624940" lon="0.466408">
        <ele>1819.000000</ele>
        <time>2021-09-04T10:01:18Z</time>
      </trkpt>
      <trkpt lat="42.624945" lon="0.466403">
        <ele>1819.000000</ele>
        <time>2021-09-04T10:01:19Z</time>
      </trkpt>
      <trkpt lat="42.624952" lon="0.466399">
        <ele>1819.000000</ele>
        <time>2021-09-04T10:01:20Z</time>
      </trkpt>
      <trkpt lat="42.624953" lon="0.466401">
        <ele>1819.000000</ele>
        <time>2021-09-04T10:01:21Z</time>
      </trkpt>
      <trkpt lat="42.624953" lon="0.466420">
        <ele>1819.000000</ele>
        <time>2021-09-04T10:01:22Z</time>
      </trkpt>
      <trkpt lat="42.624952" lon="0.466423">
        <ele>1819.000000</ele>
        <time>2021-09-04T10:01:23Z</time>
      </trkpt>
      <trkpt lat="42.624955" lon="0.466425">
        <ele>1819.000000</ele>
        <time>2021-09-04T10:01:24Z</time>
      </trkpt>
      <trkpt lat="42.624958" lon="0.466425">
        <ele>1819.000000</ele>
        <time>2021-09-04T10:01:25Z</time>
      </trkpt>
      <trkpt lat="42.624962" lon="0.466425">
        <ele>1819.000000</ele>
        <time>2021-09-04T10:01:26Z</time>
      </trkpt>
      <trkpt lat="42.624967" lon="0.466429">
        <ele>1819.000000</ele>
        <time>2021-09-04T10:01:27Z</time>
      </trkpt>
      <trkpt lat="42.624972" lon="0.466432">
        <ele>1819.000000</ele>
        <time>2021-09-04T10:01:28Z</time>
      </trkpt>
      <trkpt lat="42.624978" lon="0.466432">
        <ele>1819.000000</ele>
        <time>2021-09-04T10:01:29Z</time>
      </trkpt>
      <trkpt lat="42.624992" lon="0.466426">
        <ele>1819.000000</ele>
        <time>2021-09-04T10:01:30Z</time>
      </trkpt>
      <trkpt lat="42.625007" lon="0.466415">
        <ele>1819.000000</ele>
        <time>2021-09-04T10:01:31Z</time>
      </trkpt>
      <trkpt lat="42.625012" lon="0.466392">
        <ele>1819.000000</ele>
        <time>2021-09-04T10:01:32Z</time>
      </trkpt>
      <trkpt lat="42.625015" lon="0.466380">
        <ele>1819.000000</ele>
        <time>2021-09-04T10:01:33Z</time>
      </trkpt>
      <trkpt lat="42.625023" lon="0.466373">
        <ele>1819.000000</ele>
        <time>2021-09-04T10:01:34Z</time>
      </trkpt>
      <trkpt lat="42.625032" lon="0.466367">
        <ele>1819.000000</ele>
        <time>2021-09-04T10:01:35Z</time>
      </trkpt>
      <trkpt lat="42.625037" lon="0.466366">
        <ele>1819.000000</ele>
        <time>2021-09-04T10:01:36Z</time>
      </trkpt>
      <trkpt lat="42.625043" lon="0.466364">
        <ele>1819.000000</ele>
        <time>2021-09-04T10:01:37Z</time>
      </trkpt>
      <trkpt lat="42.625052" lon="0.466357">
        <ele>1819.000000</ele>
        <time>2021-09-04T10:01:38Z</time>
      </trkpt>
      <trkpt lat="42.625058" lon="0.466351">
        <ele>1819.000000</ele>
        <time>2021-09-04T10:01:39Z</time>
      </trkpt>
      <trkpt lat="42.625065" lon="0.466346">
        <ele>1819.000000</ele>
        <time>2021-09-04T10:01:40Z</time>
      </trkpt>
      <trkpt lat="42.625070" lon="0.466341">
        <ele>1819.000000</ele>
        <time>2021-09-04T10:01:41Z</time>
      </trkpt>
      <trkpt lat="42.625075" lon="0.466336">
        <ele>1819.000000</ele>
        <time>2021-09-04T10:01:42Z</time>
      </trkpt>
      <trkpt lat="42.625083" lon="0.466328">
        <ele>1820.000000</ele>
        <time>2021-09-04T10:01:43Z</time>
      </trkpt>
      <trkpt lat="42.625092" lon="0.466320">
        <ele>1820.000000</ele>
        <time>2021-09-04T10:01:44Z</time>
      </trkpt>
      <trkpt lat="42.625100" lon="0.466311">
        <ele>1820.000000</ele>
        <time>2021-09-04T10:01:45Z</time>
      </trkpt>
      <trkpt lat="42.625110" lon="0.466302">
        <ele>1820.000000</ele>
        <time>2021-09-04T10:01:46Z</time>
      </trkpt>
      <trkpt lat="42.625120" lon="0.466294">
        <ele>1820.000000</ele>
        <time>2021-09-04T10:01:48Z</time>
      </trkpt>
      <trkpt lat="42.625132" lon="0.466285">
        <ele>1820.000000</ele>
        <time>2021-09-04T10:01:48Z</time>
      </trkpt>
      <trkpt lat="42.625143" lon="0.466275">
        <ele>1820.000000</ele>
        <time>2021-09-04T10:01:49Z</time>
      </trkpt>
      <trkpt lat="42.625152" lon="0.466267">
        <ele>1820.000000</ele>
        <time>2021-09-04T10:01:50Z</time>
      </trkpt>
      <trkpt lat="42.625157" lon="0.466261">
        <ele>1820.000000</ele>
        <time>2021-09-04T10:01:51Z</time>
      </trkpt>
      <trkpt lat="42.625162" lon="0.466254">
        <ele>1820.000000</ele>
        <time>2021-09-04T10:01:52Z</time>
      </trkpt>
      <trkpt lat="42.625168" lon="0.466235">
        <ele>1820.000000</ele>
        <time>2021-09-04T10:01:53Z</time>
      </trkpt>
      <trkpt lat="42.625175" lon="0.466225">
        <ele>1820.000000</ele>
        <time>2021-09-04T10:01:54Z</time>
      </trkpt>
      <trkpt lat="42.625182" lon="0.466215">
        <ele>1820.000000</ele>
        <time>2021-09-04T10:01:55Z</time>
      </trkpt>
      <trkpt lat="42.625185" lon="0.466207">
        <ele>1820.000000</ele>
        <time>2021-09-04T10:01:56Z</time>
      </trkpt>
      <trkpt lat="42.625190" lon="0.466196">
        <ele>1820.000000</ele>
        <time>2021-09-04T10:01:57Z</time>
      </trkpt>
      <trkpt lat="42.625197" lon="0.466185">
        <ele>1821.000000</ele>
        <time>2021-09-04T10:01:58Z</time>
      </trkpt>
      <trkpt lat="42.625203" lon="0.466180">
        <ele>1821.000000</ele>
        <time>2021-09-04T10:01:59Z</time>
      </trkpt>
      <trkpt lat="42.625210" lon="0.466180">
        <ele>1821.000000</ele>
        <time>2021-09-04T10:02:00Z</time>
      </trkpt>
      <trkpt lat="42.625217" lon="0.466193">
        <ele>1821.000000</ele>
        <time>2021-09-04T10:02:01Z</time>
      </trkpt>
      <trkpt lat="42.625227" lon="0.466197">
        <ele>1821.000000</ele>
        <time>2021-09-04T10:02:02Z</time>
      </trkpt>
      <trkpt lat="42.625232" lon="0.466205">
        <ele>1821.000000</ele>
        <time>2021-09-04T10:02:03Z</time>
      </trkpt>
      <trkpt lat="42.625235" lon="0.466208">
        <ele>1821.000000</ele>
        <time>2021-09-04T10:02:04Z</time>
      </trkpt>
      <trkpt lat="42.625233" lon="0.466205">
        <ele>1821.000000</ele>
        <time>2021-09-04T10:02:05Z</time>
      </trkpt>
      <trkpt lat="42.625230" lon="0.466203">
        <ele>1821.000000</ele>
        <time>2021-09-04T10:02:06Z</time>
      </trkpt>
      <trkpt lat="42.625232" lon="0.466203">
        <ele>1821.000000</ele>
        <time>2021-09-04T10:02:08Z</time>
      </trkpt>
      <trkpt lat="42.625230" lon="0.466198">
        <ele>1821.000000</ele>
        <time>2021-09-04T10:02:09Z</time>
      </trkpt>
      <trkpt lat="42.625228" lon="0.466195">
        <ele>1821.000000</ele>
        <time>2021-09-04T10:02:10Z</time>
      </trkpt>
      <trkpt lat="42.625227" lon="0.466196">
        <ele>1821.000000</ele>
        <time>2021-09-04T10:02:11Z</time>
      </trkpt>
      <trkpt lat="42.625227" lon="0.466198">
        <ele>1821.000000</ele>
        <time>2021-09-04T10:02:13Z</time>
      </trkpt>
      <trkpt lat="42.625228" lon="0.466199">
        <ele>1821.000000</ele>
        <time>2021-09-04T10:02:15Z</time>
      </trkpt>
      <trkpt lat="42.625342" lon="0.466047">
        <ele>1823.000000</ele>
        <time>2021-09-04T10:06:08Z</time>
      </trkpt>
      <trkpt lat="42.625352" lon="0.466042">
        <ele>1823.000000</ele>
        <time>2021-09-04T10:06:09Z</time>
      </trkpt>
      <trkpt lat="42.625360" lon="0.466038">
        <ele>1823.000000</ele>
        <time>2021-09-04T10:06:10Z</time>
      </trkpt>
      <trkpt lat="42.625365" lon="0.466032">
        <ele>1823.000000</ele>
        <time>2021-09-04T10:06:11Z</time>
      </trkpt>
      <trkpt lat="42.625372" lon="0.466023">
        <ele>1823.000000</ele>
        <time>2021-09-04T10:06:12Z</time>
      </trkpt>
      <trkpt lat="42.625375" lon="0.466015">
        <ele>1823.000000</ele>
        <time>2021-09-04T10:06:13Z</time>
      </trkpt>
      <trkpt lat="42.625383" lon="0.466005">
        <ele>1823.000000</ele>
        <time>2021-09-04T10:06:14Z</time>
      </trkpt>
      <trkpt lat="42.625387" lon="0.466003">
        <ele>1823.000000</ele>
        <time>2021-09-04T10:06:15Z</time>
      </trkpt>
      <trkpt lat="42.625395" lon="0.465996">
        <ele>1823.000000</ele>
        <time>2021-09-04T10:06:16Z</time>
      </trkpt>
      <trkpt lat="42.625405" lon="0.465989">
        <ele>1823.000000</ele>
        <time>2021-09-04T10:06:17Z</time>
      </trkpt>
      <trkpt lat="42.625417" lon="0.465980">
        <ele>1823.000000</ele>
        <time>2021-09-04T10:06:18Z</time>
      </trkpt>
      <trkpt lat="42.625425" lon="0.465976">
        <ele>1823.000000</ele>
        <time>2021-09-04T10:06:19Z</time>
      </trkpt>
      <trkpt lat="42.625437" lon="0.465973">
        <ele>1823.000000</ele>
        <time>2021-09-04T10:06:20Z</time>
      </trkpt>
      <trkpt lat="42.625448" lon="0.465988">
        <ele>1823.000000</ele>
        <time>2021-09-04T10:06:21Z</time>
      </trkpt>
      <trkpt lat="42.625455" lon="0.465987">
        <ele>1823.000000</ele>
        <time>2021-09-04T10:06:22Z</time>
      </trkpt>
      <trkpt lat="42.625467" lon="0.465986">
        <ele>1823.000000</ele>
        <time>2021-09-04T10:06:23Z</time>
      </trkpt>
      <trkpt lat="42.625472" lon="0.465987">
        <ele>1823.000000</ele>
        <time>2021-09-04T10:06:24Z</time>
      </trkpt>
      <trkpt lat="42.625483" lon="0.465986">
        <ele>1823.000000</ele>
        <time>2021-09-04T10:06:25Z</time>
      </trkpt>
      <trkpt lat="42.625490" lon="0.465981">
        <ele>1823.000000</ele>
        <time>2021-09-04T10:06:26Z</time>
      </trkpt>
      <trkpt lat="42.625498" lon="0.465975">
        <ele>1823.000000</ele>
        <time>2021-09-04T10:06:27Z</time>
      </trkpt>
      <trkpt lat="42.625503" lon="0.465963">
        <ele>1823.000000</ele>
        <time>2021-09-04T10:06:28Z</time>
      </trkpt>
      <trkpt lat="42.625515" lon="0.465957">
        <ele>1823.000000</ele>
        <time>2021-09-04T10:06:29Z</time>
      </trkpt>
      <trkpt lat="42.625527" lon="0.465957">
        <ele>1823.000000</ele>
        <time>2021-09-04T10:06:30Z</time>
      </trkpt>
      <trkpt lat="42.625540" lon="0.465957">
        <ele>1823.000000</ele>
        <time>2021-09-04T10:06:31Z</time>
      </trkpt>
      <trkpt lat="42.625547" lon="0.465958">
        <ele>1823.000000</ele>
        <time>2021-09-04T10:06:32Z</time>
      </trkpt>
      <trkpt lat="42.625557" lon="0.465958">
        <ele>1823.000000</ele>
        <time>2021-09-04T10:06:33Z</time>
      </trkpt>
      <trkpt lat="42.625560" lon="0.465958">
        <ele>1823.000000</ele>
        <time>2021-09-04T10:06:34Z</time>
      </trkpt>
      <trkpt lat="42.625560" lon="0.465956">
        <ele>1823.000000</ele>
        <time>2021-09-04T10:06:35Z</time>
      </trkpt>
      <trkpt lat="42.625558" lon="0.465955">
        <ele>1823.000000</ele>
        <time>2021-09-04T10:06:36Z</time>
      </trkpt>
      <trkpt lat="42.625558" lon="0.465938">
        <ele>1823.000000</ele>
        <time>2021-09-04T10:06:37Z</time>
      </trkpt>
      <trkpt lat="42.625563" lon="0.465932">
        <ele>1823.000000</ele>
        <time>2021-09-04T10:06:38Z</time>
      </trkpt>
      <trkpt lat="42.625570" lon="0.465925">
        <ele>1823.000000</ele>
        <time>2021-09-04T10:06:39Z</time>
      </trkpt>
      <trkpt lat="42.625577" lon="0.465910">
        <ele>1823.000000</ele>
        <time>2021-09-04T10:06:40Z</time>
      </trkpt>
      <trkpt lat="42.625585" lon="0.465903">
        <ele>1823.000000</ele>
        <time>2021-09-04T10:06:41Z</time>
      </trkpt>
      <trkpt lat="42.625592" lon="0.465900">
        <ele>1823.000000</ele>
        <time>2021-09-04T10:06:42Z</time>
      </trkpt>
      <trkpt lat="42.625602" lon="0.465892">
        <ele>1823.000000</ele>
        <time>2021-09-04T10:06:43Z</time>
      </trkpt>
      <trkpt lat="42.625613" lon="0.465890">
        <ele>1823.000000</ele>
        <time>2021-09-04T10:06:44Z</time>
      </trkpt>
      <trkpt lat="42.625625" lon="0.465890">
        <ele>1825.000000</ele>
        <time>2021-09-04T10:06:45Z</time>
      </trkpt>
      <trkpt lat="42.625630" lon="0.465893">
        <ele>1825.000000</ele>
        <time>2021-09-04T10:06:46Z</time>
      </trkpt>
      <trkpt lat="42.625643" lon="0.465892">
        <ele>1825.000000</ele>
        <time>2021-09-04T10:06:47Z</time>
      </trkpt>
      <trkpt lat="42.625657" lon="0.465892">
        <ele>1825.000000</ele>
        <time>2021-09-04T10:06:48Z</time>
      </trkpt>
      <trkpt lat="42.625670" lon="0.465890">
        <ele>1825.000000</ele>
        <time>2021-09-04T10:06:49Z</time>
      </trkpt>
      <trkpt lat="42.625683" lon="0.465894">
        <ele>1825.000000</ele>
        <time>2021-09-04T10:06:50Z</time>
      </trkpt>
      <trkpt lat="42.625693" lon="0.465899">
        <ele>1825.000000</ele>
        <time>2021-09-04T10:06:51Z</time>
      </trkpt>
      <trkpt lat="42.625705" lon="0.465907">
        <ele>1825.000000</ele>
        <time>2021-09-04T10:06:52Z</time>
      </trkpt>
      <trkpt lat="42.625712" lon="0.465913">
        <ele>1825.000000</ele>
        <time>2021-09-04T10:06:53Z</time>
      </trkpt>
      <trkpt lat="42.625722" lon="0.465913">
        <ele>1825.000000</ele>
        <time>2021-09-04T10:06:54Z</time>
      </trkpt>
      <trkpt lat="42.625735" lon="0.465915">
        <ele>1825.000000</ele>
        <time>2021-09-04T10:06:55Z</time>
      </trkpt>
      <trkpt lat="42.625738" lon="0.465918">
        <ele>1825.000000</ele>
        <time>2021-09-04T10:06:56Z</time>
      </trkpt>
      <trkpt lat="42.625747" lon="0.465923">
        <ele>1826.000000</ele>
        <time>2021-09-04T10:06:57Z</time>
      </trkpt>
      <trkpt lat="42.625750" lon="0.465924">
        <ele>1826.000000</ele>
        <time>2021-09-04T10:06:58Z</time>
      </trkpt>
      <trkpt lat="42.625757" lon="0.465928">
        <ele>1826.000000</ele>
        <time>2021-09-04T10:06:59Z</time>
      </trkpt>
      <trkpt lat="42.625758" lon="0.465926">
        <ele>1826.000000</ele>
        <time>2021-09-04T10:07:00Z</time>
      </trkpt>
      <trkpt lat="42.625763" lon="0.465923">
        <ele>1826.000000</ele>
        <time>2021-09-04T10:07:02Z</time>
      </trkpt>
      <trkpt lat="42.625768" lon="0.465903">
        <ele>1826.000000</ele>
        <time>2021-09-04T10:07:02Z</time>
      </trkpt>
      <trkpt lat="42.625770" lon="0.465897">
        <ele>1827.000000</ele>
        <time>2021-09-04T10:07:03Z</time>
      </trkpt>
      <trkpt lat="42.625775" lon="0.465890">
        <ele>1827.000000</ele>
        <time>2021-09-04T10:07:04Z</time>
      </trkpt>
      <trkpt lat="42.625780" lon="0.465887">
        <ele>1827.000000</ele>
        <time>2021-09-04T10:07:05Z</time>
      </trkpt>
      <trkpt lat="42.625788" lon="0.465885">
        <ele>1827.000000</ele>
        <time>2021-09-04T10:07:06Z</time>
      </trkpt>
      <trkpt lat="42.625793" lon="0.465890">
        <ele>1827.000000</ele>
        <time>2021-09-04T10:07:07Z</time>
      </trkpt>
      <trkpt lat="42.625798" lon="0.465898">
        <ele>1827.000000</ele>
        <time>2021-09-04T10:07:08Z</time>
      </trkpt>
      <trkpt lat="42.625800" lon="0.465901">
        <ele>1827.000000</ele>
        <time>2021-09-04T10:07:09Z</time>
      </trkpt>
      <trkpt lat="42.625797" lon="0.465898">
        <ele>1827.000000</ele>
        <time>2021-09-04T10:07:10Z</time>
      </trkpt>
      <trkpt lat="42.625795" lon="0.465898">
        <ele>1827.000000</ele>
        <time>2021-09-04T10:07:11Z</time>
      </trkpt>
      <trkpt lat="42.625792" lon="0.465896">
        <ele>1828.000000</ele>
        <time>2021-09-04T10:07:12Z</time>
      </trkpt>
      <trkpt lat="42.625792" lon="0.465899">
        <ele>1828.000000</ele>
        <time>2021-09-04T10:07:13Z</time>
      </trkpt>
      <trkpt lat="42.625797" lon="0.465904">
        <ele>1828.000000</ele>
        <time>2021-09-04T10:07:14Z</time>
      </trkpt>
      <trkpt lat="42.625798" lon="0.465907">
        <ele>1828.000000</ele>
        <time>2021-09-04T10:07:15Z</time>
      </trkpt>
      <trkpt lat="42.625797" lon="0.465906">
        <ele>1828.000000</ele>
        <time>2021-09-04T10:07:17Z</time>
      </trkpt>
      <trkpt lat="42.625817" lon="0.465875">
        <ele>1828.000000</ele>
        <time>2021-09-04T10:07:24Z</time>
      </trkpt>
      <trkpt lat="42.625821" lon="0.465867">
        <ele>1828.000000</ele>
        <time>2021-09-04T10:07:25Z</time>
      </trkpt>
      <trkpt lat="42.625832" lon="0.465862">
        <ele>1828.000000</ele>
        <time>2021-09-04T10:07:26Z</time>
      </trkpt>
      <trkpt lat="42.625842" lon="0.465857">
        <ele>1828.000000</ele>
        <time>2021-09-04T10:07:27Z</time>
      </trkpt>
      <trkpt lat="42.625852" lon="0.465850">
        <ele>1828.000000</ele>
        <time>2021-09-04T10:07:28Z</time>
      </trkpt>
      <trkpt lat="42.625863" lon="0.465848">
        <ele>1828.000000</ele>
        <time>2021-09-04T10:07:29Z</time>
      </trkpt>
      <trkpt lat="42.625872" lon="0.465843">
        <ele>1828.000000</ele>
        <time>2021-09-04T10:07:30Z</time>
      </trkpt>
      <trkpt lat="42.625878" lon="0.465837">
        <ele>1828.000000</ele>
        <time>2021-09-04T10:07:31Z</time>
      </trkpt>
      <trkpt lat="42.625885" lon="0.465830">
        <ele>1829.000000</ele>
        <time>2021-09-04T10:07:32Z</time>
      </trkpt>
      <trkpt lat="42.625893" lon="0.465822">
        <ele>1829.000000</ele>
        <time>2021-09-04T10:07:33Z</time>
      </trkpt>
      <trkpt lat="42.625893" lon="0.465819">
        <ele>1829.000000</ele>
        <time>2021-09-04T10:07:34Z</time>
      </trkpt>
      <trkpt lat="42.625892" lon="0.465808">
        <ele>1829.000000</ele>
        <time>2021-09-04T10:07:35Z</time>
      </trkpt>
      <trkpt lat="42.625892" lon="0.465800">
        <ele>1829.000000</ele>
        <time>2021-09-04T10:07:36Z</time>
      </trkpt>
      <trkpt lat="42.625899" lon="0.465798">
        <ele>1829.000000</ele>
        <time>2021-09-04T10:07:37Z</time>
      </trkpt>
      <trkpt lat="42.625912" lon="0.465795">
        <ele>1830.000000</ele>
        <time>2021-09-04T10:07:38Z</time>
      </trkpt>
      <trkpt lat="42.625917" lon="0.465792">
        <ele>1830.000000</ele>
        <time>2021-09-04T10:07:39Z</time>
      </trkpt>
      <trkpt lat="42.625925" lon="0.465795">
        <ele>1830.000000</ele>
        <time>2021-09-04T10:07:40Z</time>
      </trkpt>
      <trkpt lat="42.625925" lon="0.465792">
        <ele>1830.000000</ele>
        <time>2021-09-04T10:07:41Z</time>
      </trkpt>
      <trkpt lat="42.625928" lon="0.465783">
        <ele>1830.000000</ele>
        <time>2021-09-04T10:07:42Z</time>
      </trkpt>
      <trkpt lat="42.625932" lon="0.465778">
        <ele>1830.000000</ele>
        <time>2021-09-04T10:07:43Z</time>
      </trkpt>
      <trkpt lat="42.625935" lon="0.465772">
        <ele>1831.000000</ele>
        <time>2021-09-04T10:07:44Z</time>
      </trkpt>
      <trkpt lat="42.625943" lon="0.465762">
        <ele>1831.000000</ele>
        <time>2021-09-04T10:07:46Z</time>
      </trkpt>
      <trkpt lat="42.625949" lon="0.465748">
        <ele>1831.000000</ele>
        <time>2021-09-04T10:07:46Z</time>
      </trkpt>
      <trkpt lat="42.625950" lon="0.465743">
        <ele>1831.000000</ele>
        <time>2021-09-04T10:07:47Z</time>
      </trkpt>
      <trkpt lat="42.625952" lon="0.465737">
        <ele>1831.000000</ele>
        <time>2021-09-04T10:07:48Z</time>
      </trkpt>
      <trkpt lat="42.625950" lon="0.465738">
        <ele>1831.000000</ele>
        <time>2021-09-04T10:07:49Z</time>
      </trkpt>
      <trkpt lat="42.625949" lon="0.465735">
        <ele>1831.000000</ele>
        <time>2021-09-04T10:07:50Z</time>
      </trkpt>
      <trkpt lat="42.625948" lon="0.465730">
        <ele>1831.000000</ele>
        <time>2021-09-04T10:07:52Z</time>
      </trkpt>
      <trkpt lat="42.625945" lon="0.465727">
        <ele>1831.000000</ele>
        <time>2021-09-04T10:07:53Z</time>
      </trkpt>
      <trkpt lat="42.625932" lon="0.465713">
        <ele>1831.000000</ele>
        <time>2021-09-04T10:07:54Z</time>
      </trkpt>
      <trkpt lat="42.625932" lon="0.465703">
        <ele>1831.000000</ele>
        <time>2021-09-04T10:07:55Z</time>
      </trkpt>
      <trkpt lat="42.625930" lon="0.465685">
        <ele>1831.000000</ele>
        <time>2021-09-04T10:07:56Z</time>
      </trkpt>
      <trkpt lat="42.625926" lon="0.465670">
        <ele>1831.000000</ele>
        <time>2021-09-04T10:07:57Z</time>
      </trkpt>
      <trkpt lat="42.625922" lon="0.465658">
        <ele>1831.000000</ele>
        <time>2021-09-04T10:07:58Z</time>
      </trkpt>
      <trkpt lat="42.625919" lon="0.465652">
        <ele>1831.000000</ele>
        <time>2021-09-04T10:07:59Z</time>
      </trkpt>
      <trkpt lat="42.625912" lon="0.465648">
        <ele>1831.000000</ele>
        <time>2021-09-04T10:08:00Z</time>
      </trkpt>
      <trkpt lat="42.625908" lon="0.465647">
        <ele>1831.000000</ele>
        <time>2021-09-04T10:08:01Z</time>
      </trkpt>
      <trkpt lat="42.625903" lon="0.465638">
        <ele>1831.000000</ele>
        <time>2021-09-04T10:08:02Z</time>
      </trkpt>
      <trkpt lat="42.625901" lon="0.465628">
        <ele>1831.000000</ele>
        <time>2021-09-04T10:08:03Z</time>
      </trkpt>
      <trkpt lat="42.625900" lon="0.465625">
        <ele>1831.000000</ele>
        <time>2021-09-04T10:08:04Z</time>
      </trkpt>
      <trkpt lat="42.625899" lon="0.465627">
        <ele>1831.000000</ele>
        <time>2021-09-04T10:08:05Z</time>
      </trkpt>
      <trkpt lat="42.625890" lon="0.465628">
        <ele>1832.000000</ele>
        <time>2021-09-04T10:08:06Z</time>
      </trkpt>
      <trkpt lat="42.625885" lon="0.465637">
        <ele>1832.000000</ele>
        <time>2021-09-04T10:08:07Z</time>
      </trkpt>
      <trkpt lat="42.625878" lon="0.465635">
        <ele>1832.000000</ele>
        <time>2021-09-04T10:08:08Z</time>
      </trkpt>
      <trkpt lat="42.625870" lon="0.465635">
        <ele>1832.000000</ele>
        <time>2021-09-04T10:08:09Z</time>
      </trkpt>
      <trkpt lat="42.625870" lon="0.465633">
        <ele>1832.000000</ele>
        <time>2021-09-04T10:08:10Z</time>
      </trkpt>
      <trkpt lat="42.625870" lon="0.465623">
        <ele>1832.000000</ele>
        <time>2021-09-04T10:08:11Z</time>
      </trkpt>
      <trkpt lat="42.625868" lon="0.465620">
        <ele>1832.000000</ele>
        <time>2021-09-04T10:08:12Z</time>
      </trkpt>
      <trkpt lat="42.625867" lon="0.465615">
        <ele>1833.000000</ele>
        <time>2021-09-04T10:08:13Z</time>
      </trkpt>
      <trkpt lat="42.625864" lon="0.465615">
        <ele>1833.000000</ele>
        <time>2021-09-04T10:08:14Z</time>
      </trkpt>
      <trkpt lat="42.625857" lon="0.465618">
        <ele>1833.000000</ele>
        <time>2021-09-04T10:08:15Z</time>
      </trkpt>
      <trkpt lat="42.625852" lon="0.465620">
        <ele>1833.000000</ele>
        <time>2021-09-04T10:08:16Z</time>
      </trkpt>
      <trkpt lat="42.625848" lon="0.465623">
        <ele>1833.000000</ele>
        <time>2021-09-04T10:08:17Z</time>
      </trkpt>
      <trkpt lat="42.625847" lon="0.465622">
        <ele>1833.000000</ele>
        <time>2021-09-04T10:08:18Z</time>
      </trkpt>
      <trkpt lat="42.625843" lon="0.465617">
        <ele>1833.000000</ele>
        <time>2021-09-04T10:08:19Z</time>
      </trkpt>
      <trkpt lat="42.625840" lon="0.465614">
        <ele>1833.000000</ele>
        <time>2021-09-04T10:08:20Z</time>
      </trkpt>
      <trkpt lat="42.625837" lon="0.465615">
        <ele>1833.000000</ele>
        <time>2021-09-04T10:08:21Z</time>
      </trkpt>
      <trkpt lat="42.625832" lon="0.465615">
        <ele>1833.000000</ele>
        <time>2021-09-04T10:08:22Z</time>
      </trkpt>
      <trkpt lat="42.625823" lon="0.465621">
        <ele>1833.000000</ele>
        <time>2021-09-04T10:08:23Z</time>
      </trkpt>
      <trkpt lat="42.625817" lon="0.465625">
        <ele>1834.000000</ele>
        <time>2021-09-04T10:08:24Z</time>
      </trkpt>
      <trkpt lat="42.625810" lon="0.465632">
        <ele>1834.000000</ele>
        <time>2021-09-04T10:08:25Z</time>
      </trkpt>
      <trkpt lat="42.625805" lon="0.465632">
        <ele>1834.000000</ele>
        <time>2021-09-04T10:08:26Z</time>
      </trkpt>
      <trkpt lat="42.625802" lon="0.465635">
        <ele>1834.000000</ele>
        <time>2021-09-04T10:08:27Z</time>
      </trkpt>
      <trkpt lat="42.625798" lon="0.465640">
        <ele>1834.000000</ele>
        <time>2021-09-04T10:08:28Z</time>
      </trkpt>
      <trkpt lat="42.625792" lon="0.465643">
        <ele>1834.000000</ele>
        <time>2021-09-04T10:08:29Z</time>
      </trkpt>
      <trkpt lat="42.625785" lon="0.465644">
        <ele>1835.000000</ele>
        <time>2021-09-04T10:08:30Z</time>
      </trkpt>
      <trkpt lat="42.625780" lon="0.465645">
        <ele>1835.000000</ele>
        <time>2021-09-04T10:08:31Z</time>
      </trkpt>
      <trkpt lat="42.625770" lon="0.465644">
        <ele>1835.000000</ele>
        <time>2021-09-04T10:08:32Z</time>
      </trkpt>
      <trkpt lat="42.625767" lon="0.465643">
        <ele>1835.000000</ele>
        <time>2021-09-04T10:08:34Z</time>
      </trkpt>
      <trkpt lat="42.625763" lon="0.465644">
        <ele>1835.000000</ele>
        <time>2021-09-04T10:08:34Z</time>
      </trkpt>
      <trkpt lat="42.625758" lon="0.465645">
        <ele>1836.000000</ele>
        <time>2021-09-04T10:08:35Z</time>
      </trkpt>
      <trkpt lat="42.625755" lon="0.465647">
        <ele>1836.000000</ele>
        <time>2021-09-04T10:08:36Z</time>
      </trkpt>
      <trkpt lat="42.625748" lon="0.465650">
        <ele>1836.000000</ele>
        <time>2021-09-04T10:08:37Z</time>
      </trkpt>
      <trkpt lat="42.625743" lon="0.465651">
        <ele>1836.000000</ele>
        <time>2021-09-04T10:08:38Z</time>
      </trkpt>
      <trkpt lat="42.625735" lon="0.465653">
        <ele>1836.000000</ele>
        <time>2021-09-04T10:08:39Z</time>
      </trkpt>
      <trkpt lat="42.625730" lon="0.465654">
        <ele>1836.000000</ele>
        <time>2021-09-04T10:08:40Z</time>
      </trkpt>
      <trkpt lat="42.625723" lon="0.465655">
        <ele>1836.000000</ele>
        <time>2021-09-04T10:08:41Z</time>
      </trkpt>
      <trkpt lat="42.625718" lon="0.465655">
        <ele>1836.000000</ele>
        <time>2021-09-04T10:08:42Z</time>
      </trkpt>
      <trkpt lat="42.625710" lon="0.465656">
        <ele>1836.000000</ele>
        <time>2021-09-04T10:08:43Z</time>
      </trkpt>
      <trkpt lat="42.625703" lon="0.465657">
        <ele>1837.000000</ele>
        <time>2021-09-04T10:08:44Z</time>
      </trkpt>
      <trkpt lat="42.625698" lon="0.465658">
        <ele>1837.000000</ele>
        <time>2021-09-04T10:08:45Z</time>
      </trkpt>
      <trkpt lat="42.625693" lon="0.465659">
        <ele>1837.000000</ele>
        <time>2021-09-04T10:08:46Z</time>
      </trkpt>
      <trkpt lat="42.625693" lon="0.465650">
        <ele>1837.000000</ele>
        <time>2021-09-04T10:08:47Z</time>
      </trkpt>
      <trkpt lat="42.625687" lon="0.465652">
        <ele>1837.000000</ele>
        <time>2021-09-04T10:08:48Z</time>
      </trkpt>
      <trkpt lat="42.625682" lon="0.465650">
        <ele>1837.000000</ele>
        <time>2021-09-04T10:08:49Z</time>
      </trkpt>
      <trkpt lat="42.625678" lon="0.465649">
        <ele>1838.000000</ele>
        <time>2021-09-04T10:08:50Z</time>
      </trkpt>
      <trkpt lat="42.625677" lon="0.465650">
        <ele>1838.000000</ele>
        <time>2021-09-04T10:08:51Z</time>
      </trkpt>
      <trkpt lat="42.625675" lon="0.465652">
        <ele>1838.000000</ele>
        <time>2021-09-04T10:08:52Z</time>
      </trkpt>
      <trkpt lat="42.625668" lon="0.465662">
        <ele>1838.000000</ele>
        <time>2021-09-04T10:08:53Z</time>
      </trkpt>
      <trkpt lat="42.625660" lon="0.465663">
        <ele>1838.000000</ele>
        <time>2021-09-04T10:08:54Z</time>
      </trkpt>
      <trkpt lat="42.625655" lon="0.465667">
        <ele>1838.000000</ele>
        <time>2021-09-04T10:08:55Z</time>
      </trkpt>
      <trkpt lat="42.625647" lon="0.465670">
        <ele>1838.000000</ele>
        <time>2021-09-04T10:08:56Z</time>
      </trkpt>
      <trkpt lat="42.625637" lon="0.465675">
        <ele>1838.000000</ele>
        <time>2021-09-04T10:08:57Z</time>
      </trkpt>
      <trkpt lat="42.625630" lon="0.465680">
        <ele>1838.000000</ele>
        <time>2021-09-04T10:08:58Z</time>
      </trkpt>
      <trkpt lat="42.625622" lon="0.465687">
        <ele>1838.000000</ele>
        <time>2021-09-04T10:08:59Z</time>
      </trkpt>
      <trkpt lat="42.625612" lon="0.465692">
        <ele>1838.000000</ele>
        <time>2021-09-04T10:09:00Z</time>
      </trkpt>
      <trkpt lat="42.625605" lon="0.465693">
        <ele>1838.000000</ele>
        <time>2021-09-04T10:09:01Z</time>
      </trkpt>
      <trkpt lat="42.625600" lon="0.465690">
        <ele>1838.000000</ele>
        <time>2021-09-04T10:09:02Z</time>
      </trkpt>
      <trkpt lat="42.625595" lon="0.465673">
        <ele>1838.000000</ele>
        <time>2021-09-04T10:09:03Z</time>
      </trkpt>
      <trkpt lat="42.625592" lon="0.465667">
        <ele>1838.000000</ele>
        <time>2021-09-04T10:09:04Z</time>
      </trkpt>
      <trkpt lat="42.625588" lon="0.465660">
        <ele>1838.000000</ele>
        <time>2021-09-04T10:09:06Z</time>
      </trkpt>
      <trkpt lat="42.625587" lon="0.465657">
        <ele>1838.000000</ele>
        <time>2021-09-04T10:09:07Z</time>
      </trkpt>
      <trkpt lat="42.625582" lon="0.465653">
        <ele>1838.000000</ele>
        <time>2021-09-04T10:09:08Z</time>
      </trkpt>
      <trkpt lat="42.625578" lon="0.465649">
        <ele>1838.000000</ele>
        <time>2021-09-04T10:09:09Z</time>
      </trkpt>
      <trkpt lat="42.625582" lon="0.465643">
        <ele>1838.000000</ele>
        <time>2021-09-04T10:09:14Z</time>
      </trkpt>
      <trkpt lat="42.625578" lon="0.465647">
        <ele>1838.000000</ele>
        <time>2021-09-04T10:09:15Z</time>
      </trkpt>
      <trkpt lat="42.625603" lon="0.465425">
        <ele>1841.000000</ele>
        <time>2021-09-04T10:10:10Z</time>
      </trkpt>
      <trkpt lat="42.625608" lon="0.465420">
        <ele>1842.000000</ele>
        <time>2021-09-04T10:10:11Z</time>
      </trkpt>
      <trkpt lat="42.625612" lon="0.465412">
        <ele>1842.000000</ele>
        <time>2021-09-04T10:10:12Z</time>
      </trkpt>
      <trkpt lat="42.625613" lon="0.465408">
        <ele>1842.000000</ele>
        <time>2021-09-04T10:10:13Z</time>
      </trkpt>
      <trkpt lat="42.625608" lon="0.465405">
        <ele>1842.000000</ele>
        <time>2021-09-04T10:10:15Z</time>
      </trkpt>
      <trkpt lat="42.625608" lon="0.465398">
        <ele>1842.000000</ele>
        <time>2021-09-04T10:10:16Z</time>
      </trkpt>
      <trkpt lat="42.625610" lon="0.465395">
        <ele>1842.000000</ele>
        <time>2021-09-04T10:10:17Z</time>
      </trkpt>
      <trkpt lat="42.625616" lon="0.465390">
        <ele>1842.000000</ele>
        <time>2021-09-04T10:10:18Z</time>
      </trkpt>
      <trkpt lat="42.625622" lon="0.465387">
        <ele>1842.000000</ele>
        <time>2021-09-04T10:10:19Z</time>
      </trkpt>
      <trkpt lat="42.625630" lon="0.465380">
        <ele>1843.000000</ele>
        <time>2021-09-04T10:10:20Z</time>
      </trkpt>
      <trkpt lat="42.625637" lon="0.465370">
        <ele>1843.000000</ele>
        <time>2021-09-04T10:10:21Z</time>
      </trkpt>
      <trkpt lat="42.625648" lon="0.465367">
        <ele>1843.000000</ele>
        <time>2021-09-04T10:10:22Z</time>
      </trkpt>
      <trkpt lat="42.625657" lon="0.465366">
        <ele>1843.000000</ele>
        <time>2021-09-04T10:10:23Z</time>
      </trkpt>
      <trkpt lat="42.625663" lon="0.465365">
        <ele>1843.000000</ele>
        <time>2021-09-04T10:10:24Z</time>
      </trkpt>
      <trkpt lat="42.625677" lon="0.465363">
        <ele>1843.000000</ele>
        <time>2021-09-04T10:10:25Z</time>
      </trkpt>
      <trkpt lat="42.625685" lon="0.465362">
        <ele>1844.000000</ele>
        <time>2021-09-04T10:10:26Z</time>
      </trkpt>
      <trkpt lat="42.625692" lon="0.465360">
        <ele>1844.000000</ele>
        <time>2021-09-04T10:10:27Z</time>
      </trkpt>
      <trkpt lat="42.625697" lon="0.465357">
        <ele>1844.000000</ele>
        <time>2021-09-04T10:10:28Z</time>
      </trkpt>
      <trkpt lat="42.625702" lon="0.465354">
        <ele>1844.000000</ele>
        <time>2021-09-04T10:10:29Z</time>
      </trkpt>
      <trkpt lat="42.625712" lon="0.465351">
        <ele>1844.000000</ele>
        <time>2021-09-04T10:10:30Z</time>
      </trkpt>
      <trkpt lat="42.625718" lon="0.465349">
        <ele>1844.000000</ele>
        <time>2021-09-04T10:10:31Z</time>
      </trkpt>
      <trkpt lat="42.625725" lon="0.465348">
        <ele>1845.000000</ele>
        <time>2021-09-04T10:10:32Z</time>
      </trkpt>
      <trkpt lat="42.625733" lon="0.465346">
        <ele>1845.000000</ele>
        <time>2021-09-04T10:10:33Z</time>
      </trkpt>
      <trkpt lat="42.625742" lon="0.465343">
        <ele>1845.000000</ele>
        <time>2021-09-04T10:10:34Z</time>
      </trkpt>
      <trkpt lat="42.625747" lon="0.465341">
        <ele>1845.000000</ele>
        <time>2021-09-04T10:10:35Z</time>
      </trkpt>
      <trkpt lat="42.625753" lon="0.465339">
        <ele>1845.000000</ele>
        <time>2021-09-04T10:10:36Z</time>
      </trkpt>
      <trkpt lat="42.625755" lon="0.465337">
        <ele>1845.000000</ele>
        <time>2021-09-04T10:10:37Z</time>
      </trkpt>
      <trkpt lat="42.625757" lon="0.465335">
        <ele>1845.000000</ele>
        <time>2021-09-04T10:10:38Z</time>
      </trkpt>
      <trkpt lat="42.625760" lon="0.465317">
        <ele>1845.000000</ele>
        <time>2021-09-04T10:10:39Z</time>
      </trkpt>
      <trkpt lat="42.625768" lon="0.465308">
        <ele>1845.000000</ele>
        <time>2021-09-04T10:10:40Z</time>
      </trkpt>
      <trkpt lat="42.625773" lon="0.465300">
        <ele>1845.000000</ele>
        <time>2021-09-04T10:10:42Z</time>
      </trkpt>
      <trkpt lat="42.625777" lon="0.465290">
        <ele>1845.000000</ele>
        <time>2021-09-04T10:10:42Z</time>
      </trkpt>
      <trkpt lat="42.625778" lon="0.465277">
        <ele>1845.000000</ele>
        <time>2021-09-04T10:10:43Z</time>
      </trkpt>
      <trkpt lat="42.625780" lon="0.465265">
        <ele>1846.000000</ele>
        <time>2021-09-04T10:10:44Z</time>
      </trkpt>
      <trkpt lat="42.625781" lon="0.465258">
        <ele>1846.000000</ele>
        <time>2021-09-04T10:10:45Z</time>
      </trkpt>
      <trkpt lat="42.625783" lon="0.465252">
        <ele>1846.000000</ele>
        <time>2021-09-04T10:10:46Z</time>
      </trkpt>
      <trkpt lat="42.625785" lon="0.465248">
        <ele>1846.000000</ele>
        <time>2021-09-04T10:10:47Z</time>
      </trkpt>
      <trkpt lat="42.625788" lon="0.465238">
        <ele>1846.000000</ele>
        <time>2021-09-04T10:10:48Z</time>
      </trkpt>
      <trkpt lat="42.625798" lon="0.465232">
        <ele>1846.000000</ele>
        <time>2021-09-04T10:10:49Z</time>
      </trkpt>
      <trkpt lat="42.625798" lon="0.465222">
        <ele>1846.000000</ele>
        <time>2021-09-04T10:10:50Z</time>
      </trkpt>
      <trkpt lat="42.625800" lon="0.465210">
        <ele>1846.000000</ele>
        <time>2021-09-04T10:10:51Z</time>
      </trkpt>
      <trkpt lat="42.625803" lon="0.465195">
        <ele>1846.000000</ele>
        <time>2021-09-04T10:10:52Z</time>
      </trkpt>
      <trkpt lat="42.625807" lon="0.465190">
        <ele>1846.000000</ele>
        <time>2021-09-04T10:10:53Z</time>
      </trkpt>
      <trkpt lat="42.625805" lon="0.465195">
        <ele>1847.000000</ele>
        <time>2021-09-04T10:10:54Z</time>
      </trkpt>
      <trkpt lat="42.625807" lon="0.465197">
        <ele>1847.000000</ele>
        <time>2021-09-04T10:10:56Z</time>
      </trkpt>
      <trkpt lat="42.625808" lon="0.465198">
        <ele>1847.000000</ele>
        <time>2021-09-04T10:10:57Z</time>
      </trkpt>
      <trkpt lat="42.625809" lon="0.465197">
        <ele>1848.000000</ele>
        <time>2021-09-04T10:11:00Z</time>
      </trkpt>
      <trkpt lat="42.625812" lon="0.465198">
        <ele>1848.000000</ele>
        <time>2021-09-04T10:11:01Z</time>
      </trkpt>
      <trkpt lat="42.625823" lon="0.465198">
        <ele>1848.000000</ele>
        <time>2021-09-04T10:11:02Z</time>
      </trkpt>
      <trkpt lat="42.625827" lon="0.465203">
        <ele>1848.000000</ele>
        <time>2021-09-04T10:11:03Z</time>
      </trkpt>
      <trkpt lat="42.625828" lon="0.465203">
        <ele>1848.000000</ele>
        <time>2021-09-04T10:11:04Z</time>
      </trkpt>
      <trkpt lat="42.625818" lon="0.465198">
        <ele>1848.000000</ele>
        <time>2021-09-04T10:11:06Z</time>
      </trkpt>
      <trkpt lat="42.625882" lon="0.465117">
        <ele>1849.000000</ele>
        <time>2021-09-04T10:11:29Z</time>
      </trkpt>
      <trkpt lat="42.625897" lon="0.465111">
        <ele>1849.000000</ele>
        <time>2021-09-04T10:11:30Z</time>
      </trkpt>
      <trkpt lat="42.625903" lon="0.465105">
        <ele>1849.000000</ele>
        <time>2021-09-04T10:11:31Z</time>
      </trkpt>
      <trkpt lat="42.625905" lon="0.465101">
        <ele>1849.000000</ele>
        <time>2021-09-04T10:11:32Z</time>
      </trkpt>
      <trkpt lat="42.625912" lon="0.465088">
        <ele>1849.000000</ele>
        <time>2021-09-04T10:11:33Z</time>
      </trkpt>
      <trkpt lat="42.625915" lon="0.465077">
        <ele>1849.000000</ele>
        <time>2021-09-04T10:11:34Z</time>
      </trkpt>
      <trkpt lat="42.625917" lon="0.465071">
        <ele>1849.000000</ele>
        <time>2021-09-04T10:11:35Z</time>
      </trkpt>
      <trkpt lat="42.625918" lon="0.465064">
        <ele>1849.000000</ele>
        <time>2021-09-04T10:11:36Z</time>
      </trkpt>
      <trkpt lat="42.625925" lon="0.465049">
        <ele>1849.000000</ele>
        <time>2021-09-04T10:11:37Z</time>
      </trkpt>
      <trkpt lat="42.625933" lon="0.465037">
        <ele>1849.000000</ele>
        <time>2021-09-04T10:11:38Z</time>
      </trkpt>
      <trkpt lat="42.625942" lon="0.465033">
        <ele>1849.000000</ele>
        <time>2021-09-04T10:11:39Z</time>
      </trkpt>
      <trkpt lat="42.625943" lon="0.465031">
        <ele>1849.000000</ele>
        <time>2021-09-04T10:11:40Z</time>
      </trkpt>
      <trkpt lat="42.625955" lon="0.465019">
        <ele>1849.000000</ele>
        <time>2021-09-04T10:11:41Z</time>
      </trkpt>
      <trkpt lat="42.625963" lon="0.465011">
        <ele>1849.000000</ele>
        <time>2021-09-04T10:11:42Z</time>
      </trkpt>
      <trkpt lat="42.625968" lon="0.465007">
        <ele>1849.000000</ele>
        <time>2021-09-04T10:11:43Z</time>
      </trkpt>
      <trkpt lat="42.625975" lon="0.465003">
        <ele>1849.000000</ele>
        <time>2021-09-04T10:11:44Z</time>
      </trkpt>
      <trkpt lat="42.625980" lon="0.465001">
        <ele>1849.000000</ele>
        <time>2021-09-04T10:11:45Z</time>
      </trkpt>
      <trkpt lat="42.625983" lon="0.464999">
        <ele>1849.000000</ele>
        <time>2021-09-04T10:11:46Z</time>
      </trkpt>
      <trkpt lat="42.625987" lon="0.464996">
        <ele>1849.000000</ele>
        <time>2021-09-04T10:11:47Z</time>
      </trkpt>
      <trkpt lat="42.625985" lon="0.464985">
        <ele>1849.000000</ele>
        <time>2021-09-04T10:11:48Z</time>
      </trkpt>
      <trkpt lat="42.625985" lon="0.464975">
        <ele>1849.000000</ele>
        <time>2021-09-04T10:11:49Z</time>
      </trkpt>
      <trkpt lat="42.625992" lon="0.464967">
        <ele>1849.000000</ele>
        <time>2021-09-04T10:11:50Z</time>
      </trkpt>
      <trkpt lat="42.625994" lon="0.464960">
        <ele>1849.000000</ele>
        <time>2021-09-04T10:11:51Z</time>
      </trkpt>
      <trkpt lat="42.625997" lon="0.464965">
        <ele>1849.000000</ele>
        <time>2021-09-04T10:11:54Z</time>
      </trkpt>
      <trkpt lat="42.625995" lon="0.464962">
        <ele>1849.000000</ele>
        <time>2021-09-04T10:11:56Z</time>
      </trkpt>
      <trkpt lat="42.625987" lon="0.464948">
        <ele>1849.000000</ele>
        <time>2021-09-04T10:11:57Z</time>
      </trkpt>
      <trkpt lat="42.625983" lon="0.464938">
        <ele>1849.000000</ele>
        <time>2021-09-04T10:11:58Z</time>
      </trkpt>
      <trkpt lat="42.625977" lon="0.464920">
        <ele>1849.000000</ele>
        <time>2021-09-04T10:11:59Z</time>
      </trkpt>
      <trkpt lat="42.625975" lon="0.464913">
        <ele>1851.000000</ele>
        <time>2021-09-04T10:12:00Z</time>
      </trkpt>
      <trkpt lat="42.625975" lon="0.464907">
        <ele>1851.000000</ele>
        <time>2021-09-04T10:12:01Z</time>
      </trkpt>
      <trkpt lat="42.625978" lon="0.464893">
        <ele>1851.000000</ele>
        <time>2021-09-04T10:12:02Z</time>
      </trkpt>
      <trkpt lat="42.625980" lon="0.464877">
        <ele>1851.000000</ele>
        <time>2021-09-04T10:12:03Z</time>
      </trkpt>
      <trkpt lat="42.625982" lon="0.464868">
        <ele>1851.000000</ele>
        <time>2021-09-04T10:12:04Z</time>
      </trkpt>
      <trkpt lat="42.625985" lon="0.464857">
        <ele>1852.000000</ele>
        <time>2021-09-04T10:12:05Z</time>
      </trkpt>
      <trkpt lat="42.625982" lon="0.464855">
        <ele>1852.000000</ele>
        <time>2021-09-04T10:12:06Z</time>
      </trkpt>
      <trkpt lat="42.625984" lon="0.464855">
        <ele>1852.000000</ele>
        <time>2021-09-04T10:12:08Z</time>
      </trkpt>
      <trkpt lat="42.625990" lon="0.464860">
        <ele>1852.000000</ele>
        <time>2021-09-04T10:12:09Z</time>
      </trkpt>
      <trkpt lat="42.625993" lon="0.464872">
        <ele>1852.000000</ele>
        <time>2021-09-04T10:12:10Z</time>
      </trkpt>
      <trkpt lat="42.625999" lon="0.464878">
        <ele>1852.000000</ele>
        <time>2021-09-04T10:12:11Z</time>
      </trkpt>
      <trkpt lat="42.626006" lon="0.464888">
        <ele>1853.000000</ele>
        <time>2021-09-04T10:12:13Z</time>
      </trkpt>
      <trkpt lat="42.626009" lon="0.464893">
        <ele>1853.000000</ele>
        <time>2021-09-04T10:12:14Z</time>
      </trkpt>
      <trkpt lat="42.626014" lon="0.464897">
        <ele>1853.000000</ele>
        <time>2021-09-04T10:12:15Z</time>
      </trkpt>
      <trkpt lat="42.626018" lon="0.464887">
        <ele>1853.000000</ele>
        <time>2021-09-04T10:12:16Z</time>
      </trkpt>
      <trkpt lat="42.626018" lon="0.464885">
        <ele>1853.000000</ele>
        <time>2021-09-04T10:12:17Z</time>
      </trkpt>
      <trkpt lat="42.626018" lon="0.464883">
        <ele>1853.000000</ele>
        <time>2021-09-04T10:12:18Z</time>
      </trkpt>
      <trkpt lat="42.626017" lon="0.464879">
        <ele>1853.000000</ele>
        <time>2021-09-04T10:12:19Z</time>
      </trkpt>
      <trkpt lat="42.626023" lon="0.464875">
        <ele>1853.000000</ele>
        <time>2021-09-04T10:12:20Z</time>
      </trkpt>
      <trkpt lat="42.626027" lon="0.464869">
        <ele>1854.000000</ele>
        <time>2021-09-04T10:12:21Z</time>
      </trkpt>
      <trkpt lat="42.626035" lon="0.464865">
        <ele>1854.000000</ele>
        <time>2021-09-04T10:12:22Z</time>
      </trkpt>
      <trkpt lat="42.626043" lon="0.464863">
        <ele>1854.000000</ele>
        <time>2021-09-04T10:12:23Z</time>
      </trkpt>
      <trkpt lat="42.626052" lon="0.464862">
        <ele>1854.000000</ele>
        <time>2021-09-04T10:12:24Z</time>
      </trkpt>
      <trkpt lat="42.626057" lon="0.464862">
        <ele>1854.000000</ele>
        <time>2021-09-04T10:12:25Z</time>
      </trkpt>
      <trkpt lat="42.626063" lon="0.464859">
        <ele>1854.000000</ele>
        <time>2021-09-04T10:12:26Z</time>
      </trkpt>
      <trkpt lat="42.626065" lon="0.464856">
        <ele>1854.000000</ele>
        <time>2021-09-04T10:12:27Z</time>
      </trkpt>
      <trkpt lat="42.626065" lon="0.464847">
        <ele>1854.000000</ele>
        <time>2021-09-04T10:12:28Z</time>
      </trkpt>
      <trkpt lat="42.626067" lon="0.464838">
        <ele>1854.000000</ele>
        <time>2021-09-04T10:12:29Z</time>
      </trkpt>
      <trkpt lat="42.626073" lon="0.464830">
        <ele>1854.000000</ele>
        <time>2021-09-04T10:12:30Z</time>
      </trkpt>
      <trkpt lat="42.626085" lon="0.464828">
        <ele>1854.000000</ele>
        <time>2021-09-04T10:12:31Z</time>
      </trkpt>
      <trkpt lat="42.626097" lon="0.464822">
        <ele>1854.000000</ele>
        <time>2021-09-04T10:12:32Z</time>
      </trkpt>
      <trkpt lat="42.626105" lon="0.464817">
        <ele>1854.000000</ele>
        <time>2021-09-04T10:12:33Z</time>
      </trkpt>
      <trkpt lat="42.626107" lon="0.464813">
        <ele>1854.000000</ele>
        <time>2021-09-04T10:12:34Z</time>
      </trkpt>
      <trkpt lat="42.626110" lon="0.464805">
        <ele>1854.000000</ele>
        <time>2021-09-04T10:12:35Z</time>
      </trkpt>
      <trkpt lat="42.626113" lon="0.464798">
        <ele>1854.000000</ele>
        <time>2021-09-04T10:12:36Z</time>
      </trkpt>
      <trkpt lat="42.626122" lon="0.464791">
        <ele>1854.000000</ele>
        <time>2021-09-04T10:12:37Z</time>
      </trkpt>
      <trkpt lat="42.626130" lon="0.464789">
        <ele>1854.000000</ele>
        <time>2021-09-04T10:12:38Z</time>
      </trkpt>
      <trkpt lat="42.626135" lon="0.464782">
        <ele>1854.000000</ele>
        <time>2021-09-04T10:12:39Z</time>
      </trkpt>
      <trkpt lat="42.626140" lon="0.464777">
        <ele>1854.000000</ele>
        <time>2021-09-04T10:12:40Z</time>
      </trkpt>
      <trkpt lat="42.626140" lon="0.464774">
        <ele>1854.000000</ele>
        <time>2021-09-04T10:12:41Z</time>
      </trkpt>
      <trkpt lat="42.626147" lon="0.464766">
        <ele>1854.000000</ele>
        <time>2021-09-04T10:12:42Z</time>
      </trkpt>
      <trkpt lat="42.626153" lon="0.464760">
        <ele>1854.000000</ele>
        <time>2021-09-04T10:12:43Z</time>
      </trkpt>
      <trkpt lat="42.626162" lon="0.464757">
        <ele>1854.000000</ele>
        <time>2021-09-04T10:12:44Z</time>
      </trkpt>
      <trkpt lat="42.626167" lon="0.464759">
        <ele>1854.000000</ele>
        <time>2021-09-04T10:12:45Z</time>
      </trkpt>
      <trkpt lat="42.626173" lon="0.464759">
        <ele>1854.000000</ele>
        <time>2021-09-04T10:12:46Z</time>
      </trkpt>
      <trkpt lat="42.626178" lon="0.464759">
        <ele>1854.000000</ele>
        <time>2021-09-04T10:12:47Z</time>
      </trkpt>
      <trkpt lat="42.626187" lon="0.464757">
        <ele>1854.000000</ele>
        <time>2021-09-04T10:12:48Z</time>
      </trkpt>
      <trkpt lat="42.626195" lon="0.464756">
        <ele>1854.000000</ele>
        <time>2021-09-04T10:12:49Z</time>
      </trkpt>
      <trkpt lat="42.626205" lon="0.464755">
        <ele>1854.000000</ele>
        <time>2021-09-04T10:12:50Z</time>
      </trkpt>
      <trkpt lat="42.626210" lon="0.464755">
        <ele>1854.000000</ele>
        <time>2021-09-04T10:12:51Z</time>
      </trkpt>
      <trkpt lat="42.626215" lon="0.464755">
        <ele>1854.000000</ele>
        <time>2021-09-04T10:12:52Z</time>
      </trkpt>
      <trkpt lat="42.626222" lon="0.464754">
        <ele>1854.000000</ele>
        <time>2021-09-04T10:12:53Z</time>
      </trkpt>
      <trkpt lat="42.626228" lon="0.464752">
        <ele>1854.000000</ele>
        <time>2021-09-04T10:12:54Z</time>
      </trkpt>
      <trkpt lat="42.626238" lon="0.464748">
        <ele>1854.000000</ele>
        <time>2021-09-04T10:12:55Z</time>
      </trkpt>
      <trkpt lat="42.626242" lon="0.464745">
        <ele>1854.000000</ele>
        <time>2021-09-04T10:12:56Z</time>
      </trkpt>
      <trkpt lat="42.626250" lon="0.464739">
        <ele>1854.000000</ele>
        <time>2021-09-04T10:12:58Z</time>
      </trkpt>
      <trkpt lat="42.626260" lon="0.464732">
        <ele>1854.000000</ele>
        <time>2021-09-04T10:12:58Z</time>
      </trkpt>
      <trkpt lat="42.626268" lon="0.464726">
        <ele>1854.000000</ele>
        <time>2021-09-04T10:12:59Z</time>
      </trkpt>
      <trkpt lat="42.626275" lon="0.464721">
        <ele>1855.000000</ele>
        <time>2021-09-04T10:13:00Z</time>
      </trkpt>
      <trkpt lat="42.626280" lon="0.464719">
        <ele>1855.000000</ele>
        <time>2021-09-04T10:13:01Z</time>
      </trkpt>
      <trkpt lat="42.626287" lon="0.464715">
        <ele>1855.000000</ele>
        <time>2021-09-04T10:13:02Z</time>
      </trkpt>
      <trkpt lat="42.626293" lon="0.464713">
        <ele>1855.000000</ele>
        <time>2021-09-04T10:13:03Z</time>
      </trkpt>
      <trkpt lat="42.626302" lon="0.464711">
        <ele>1855.000000</ele>
        <time>2021-09-04T10:13:04Z</time>
      </trkpt>
      <trkpt lat="42.626307" lon="0.464725">
        <ele>1855.000000</ele>
        <time>2021-09-04T10:13:05Z</time>
      </trkpt>
      <trkpt lat="42.626313" lon="0.464727">
        <ele>1855.000000</ele>
        <time>2021-09-04T10:13:06Z</time>
      </trkpt>
      <trkpt lat="42.626318" lon="0.464728">
        <ele>1855.000000</ele>
        <time>2021-09-04T10:13:07Z</time>
      </trkpt>
      <trkpt lat="42.626327" lon="0.464728">
        <ele>1855.000000</ele>
        <time>2021-09-04T10:13:09Z</time>
      </trkpt>
      <trkpt lat="42.626335" lon="0.464730">
        <ele>1855.000000</ele>
        <time>2021-09-04T10:13:11Z</time>
      </trkpt>
      <trkpt lat="42.626340" lon="0.464730">
        <ele>1855.000000</ele>
        <time>2021-09-04T10:13:12Z</time>
      </trkpt>
      <trkpt lat="42.626343" lon="0.464731">
        <ele>1855.000000</ele>
        <time>2021-09-04T10:13:13Z</time>
      </trkpt>
      <trkpt lat="42.626347" lon="0.464727">
        <ele>1855.000000</ele>
        <time>2021-09-04T10:13:14Z</time>
      </trkpt>
      <trkpt lat="42.626347" lon="0.464722">
        <ele>1855.000000</ele>
        <time>2021-09-04T10:13:15Z</time>
      </trkpt>
      <trkpt lat="42.626348" lon="0.464698">
        <ele>1855.000000</ele>
        <time>2021-09-04T10:13:16Z</time>
      </trkpt>
      <trkpt lat="42.626353" lon="0.464685">
        <ele>1855.000000</ele>
        <time>2021-09-04T10:13:17Z</time>
      </trkpt>
      <trkpt lat="42.626358" lon="0.464680">
        <ele>1855.000000</ele>
        <time>2021-09-04T10:13:18Z</time>
      </trkpt>
      <trkpt lat="42.626363" lon="0.464677">
        <ele>1855.000000</ele>
        <time>2021-09-04T10:13:19Z</time>
      </trkpt>
      <trkpt lat="42.626364" lon="0.464680">
        <ele>1856.000000</ele>
        <time>2021-09-04T10:13:20Z</time>
      </trkpt>
      <trkpt lat="42.626373" lon="0.464672">
        <ele>1856.000000</ele>
        <time>2021-09-04T10:13:21Z</time>
      </trkpt>
      <trkpt lat="42.626381" lon="0.464663">
        <ele>1856.000000</ele>
        <time>2021-09-04T10:13:22Z</time>
      </trkpt>
      <trkpt lat="42.626382" lon="0.464662">
        <ele>1856.000000</ele>
        <time>2021-09-04T10:13:23Z</time>
      </trkpt>
      <trkpt lat="42.626385" lon="0.464655">
        <ele>1856.000000</ele>
        <time>2021-09-04T10:13:24Z</time>
      </trkpt>
      <trkpt lat="42.626393" lon="0.464655">
        <ele>1856.000000</ele>
        <time>2021-09-04T10:13:25Z</time>
      </trkpt>
      <trkpt lat="42.626400" lon="0.464653">
        <ele>1856.000000</ele>
        <time>2021-09-04T10:13:26Z</time>
      </trkpt>
      <trkpt lat="42.626403" lon="0.464652">
        <ele>1856.000000</ele>
        <time>2021-09-04T10:13:27Z</time>
      </trkpt>
      <trkpt lat="42.626400" lon="0.464648">
        <ele>1857.000000</ele>
        <time>2021-09-04T10:13:28Z</time>
      </trkpt>
      <trkpt lat="42.626400" lon="0.464638">
        <ele>1857.000000</ele>
        <time>2021-09-04T10:13:29Z</time>
      </trkpt>
      <trkpt lat="42.626402" lon="0.464635">
        <ele>1857.000000</ele>
        <time>2021-09-04T10:13:30Z</time>
      </trkpt>
      <trkpt lat="42.626408" lon="0.464633">
        <ele>1857.000000</ele>
        <time>2021-09-04T10:13:31Z</time>
      </trkpt>
      <trkpt lat="42.626413" lon="0.464628">
        <ele>1857.000000</ele>
        <time>2021-09-04T10:13:32Z</time>
      </trkpt>
      <trkpt lat="42.626410" lon="0.464618">
        <ele>1857.000000</ele>
        <time>2021-09-04T10:13:33Z</time>
      </trkpt>
      <trkpt lat="42.626408" lon="0.464600">
        <ele>1857.000000</ele>
        <time>2021-09-04T10:13:34Z</time>
      </trkpt>
      <trkpt lat="42.626408" lon="0.464588">
        <ele>1857.000000</ele>
        <time>2021-09-04T10:13:35Z</time>
      </trkpt>
      <trkpt lat="42.626408" lon="0.464580">
        <ele>1857.000000</ele>
        <time>2021-09-04T10:13:36Z</time>
      </trkpt>
      <trkpt lat="42.626408" lon="0.464568">
        <ele>1857.000000</ele>
        <time>2021-09-04T10:13:37Z</time>
      </trkpt>
      <trkpt lat="42.626409" lon="0.464563">
        <ele>1857.000000</ele>
        <time>2021-09-04T10:13:38Z</time>
      </trkpt>
      <trkpt lat="42.626412" lon="0.464550">
        <ele>1857.000000</ele>
        <time>2021-09-04T10:13:39Z</time>
      </trkpt>
      <trkpt lat="42.626418" lon="0.464545">
        <ele>1858.000000</ele>
        <time>2021-09-04T10:13:41Z</time>
      </trkpt>
      <trkpt lat="42.626423" lon="0.464540">
        <ele>1858.000000</ele>
        <time>2021-09-04T10:13:41Z</time>
      </trkpt>
      <trkpt lat="42.626423" lon="0.464545">
        <ele>1858.000000</ele>
        <time>2021-09-04T10:13:42Z</time>
      </trkpt>
      <trkpt lat="42.626420" lon="0.464545">
        <ele>1858.000000</ele>
        <time>2021-09-04T10:13:43Z</time>
      </trkpt>
      <trkpt lat="42.626417" lon="0.464527">
        <ele>1858.000000</ele>
        <time>2021-09-04T10:13:44Z</time>
      </trkpt>
      <trkpt lat="42.626415" lon="0.464512">
        <ele>1858.000000</ele>
        <time>2021-09-04T10:13:45Z</time>
      </trkpt>
      <trkpt lat="42.626416" lon="0.464507">
        <ele>1858.000000</ele>
        <time>2021-09-04T10:13:46Z</time>
      </trkpt>
      <trkpt lat="42.626418" lon="0.464502">
        <ele>1858.000000</ele>
        <time>2021-09-04T10:13:47Z</time>
      </trkpt>
      <trkpt lat="42.626420" lon="0.464503">
        <ele>1858.000000</ele>
        <time>2021-09-04T10:13:48Z</time>
      </trkpt>
      <trkpt lat="42.626433" lon="0.464503">
        <ele>1858.000000</ele>
        <time>2021-09-04T10:13:49Z</time>
      </trkpt>
      <trkpt lat="42.626435" lon="0.464498">
        <ele>1858.000000</ele>
        <time>2021-09-04T10:13:49Z</time>
      </trkpt>
      <trkpt lat="42.626438" lon="0.464488">
        <ele>1859.000000</ele>
        <time>2021-09-04T10:13:50Z</time>
      </trkpt>
      <trkpt lat="42.626444" lon="0.464482">
        <ele>1859.000000</ele>
        <time>2021-09-04T10:13:51Z</time>
      </trkpt>
      <trkpt lat="42.626447" lon="0.464480">
        <ele>1859.000000</ele>
        <time>2021-09-04T10:13:52Z</time>
      </trkpt>
      <trkpt lat="42.626457" lon="0.464480">
        <ele>1859.000000</ele>
        <time>2021-09-04T10:13:53Z</time>
      </trkpt>
      <trkpt lat="42.626450" lon="0.464470">
        <ele>1859.000000</ele>
        <time>2021-09-04T10:13:54Z</time>
      </trkpt>
      <trkpt lat="42.626445" lon="0.464461">
        <ele>1859.000000</ele>
        <time>2021-09-04T10:13:55Z</time>
      </trkpt>
      <trkpt lat="42.626438" lon="0.464450">
        <ele>1859.000000</ele>
        <time>2021-09-04T10:13:56Z</time>
      </trkpt>
      <trkpt lat="42.626435" lon="0.464445">
        <ele>1859.000000</ele>
        <time>2021-09-04T10:13:57Z</time>
      </trkpt>
      <trkpt lat="42.626437" lon="0.464446">
        <ele>1859.000000</ele>
        <time>2021-09-04T10:13:58Z</time>
      </trkpt>
      <trkpt lat="42.626437" lon="0.464445">
        <ele>1859.000000</ele>
        <time>2021-09-04T10:13:59Z</time>
      </trkpt>
      <trkpt lat="42.626433" lon="0.464436">
        <ele>1859.000000</ele>
        <time>2021-09-04T10:14:00Z</time>
      </trkpt>
      <trkpt lat="42.626427" lon="0.464424">
        <ele>1859.000000</ele>
        <time>2021-09-04T10:14:01Z</time>
      </trkpt>
      <trkpt lat="42.626422" lon="0.464418">
        <ele>1859.000000</ele>
        <time>2021-09-04T10:14:02Z</time>
      </trkpt>
      <trkpt lat="42.626427" lon="0.464418">
        <ele>1859.000000</ele>
        <time>2021-09-04T10:14:04Z</time>
      </trkpt>
      <trkpt lat="42.626439" lon="0.464422">
        <ele>1859.000000</ele>
        <time>2021-09-04T10:14:05Z</time>
      </trkpt>
      <trkpt lat="42.626442" lon="0.464422">
        <ele>1859.000000</ele>
        <time>2021-09-04T10:14:06Z</time>
      </trkpt>
      <trkpt lat="42.626446" lon="0.464422">
        <ele>1859.000000</ele>
        <time>2021-09-04T10:14:07Z</time>
      </trkpt>
      <trkpt lat="42.626449" lon="0.464408">
        <ele>1859.000000</ele>
        <time>2021-09-04T10:14:08Z</time>
      </trkpt>
      <trkpt lat="42.626460" lon="0.464392">
        <ele>1860.000000</ele>
        <time>2021-09-04T10:14:09Z</time>
      </trkpt>
      <trkpt lat="42.626464" lon="0.464372">
        <ele>1860.000000</ele>
        <time>2021-09-04T10:14:10Z</time>
      </trkpt>
      <trkpt lat="42.626463" lon="0.464362">
        <ele>1860.000000</ele>
        <time>2021-09-04T10:14:11Z</time>
      </trkpt>
      <trkpt lat="42.626468" lon="0.464350">
        <ele>1860.000000</ele>
        <time>2021-09-04T10:14:12Z</time>
      </trkpt>
      <trkpt lat="42.626475" lon="0.464337">
        <ele>1860.000000</ele>
        <time>2021-09-04T10:14:13Z</time>
      </trkpt>
      <trkpt lat="42.626480" lon="0.464328">
        <ele>1860.000000</ele>
        <time>2021-09-04T10:14:14Z</time>
      </trkpt>
      <trkpt lat="42.626485" lon="0.464322">
        <ele>1860.000000</ele>
        <time>2021-09-04T10:14:15Z</time>
      </trkpt>
      <trkpt lat="42.626487" lon="0.464317">
        <ele>1860.000000</ele>
        <time>2021-09-04T10:14:16Z</time>
      </trkpt>
      <trkpt lat="42.626491" lon="0.464312">
        <ele>1860.000000</ele>
        <time>2021-09-04T10:14:17Z</time>
      </trkpt>
      <trkpt lat="42.626498" lon="0.464300">
        <ele>1860.000000</ele>
        <time>2021-09-04T10:14:18Z</time>
      </trkpt>
      <trkpt lat="42.626505" lon="0.464287">
        <ele>1860.000000</ele>
        <time>2021-09-04T10:14:19Z</time>
      </trkpt>
      <trkpt lat="42.626508" lon="0.464280">
        <ele>1860.000000</ele>
        <time>2021-09-04T10:14:20Z</time>
      </trkpt>
      <trkpt lat="42.626512" lon="0.464272">
        <ele>1860.000000</ele>
        <time>2021-09-04T10:14:21Z</time>
      </trkpt>
      <trkpt lat="42.626514" lon="0.464268">
        <ele>1860.000000</ele>
        <time>2021-09-04T10:14:22Z</time>
      </trkpt>
      <trkpt lat="42.626517" lon="0.464277">
        <ele>1860.000000</ele>
        <time>2021-09-04T10:14:23Z</time>
      </trkpt>
      <trkpt lat="42.626522" lon="0.464287">
        <ele>1860.000000</ele>
        <time>2021-09-04T10:14:24Z</time>
      </trkpt>
      <trkpt lat="42.626535" lon="0.464298">
        <ele>1860.000000</ele>
        <time>2021-09-04T10:14:25Z</time>
      </trkpt>
      <trkpt lat="42.626540" lon="0.464297">
        <ele>1860.000000</ele>
        <time>2021-09-04T10:14:26Z</time>
      </trkpt>
      <trkpt lat="42.626550" lon="0.464297">
        <ele>1860.000000</ele>
        <time>2021-09-04T10:14:27Z</time>
      </trkpt>
      <trkpt lat="42.626555" lon="0.464297">
        <ele>1860.000000</ele>
        <time>2021-09-04T10:14:28Z</time>
      </trkpt>
      <trkpt lat="42.626558" lon="0.464297">
        <ele>1860.000000</ele>
        <time>2021-09-04T10:14:29Z</time>
      </trkpt>
      <trkpt lat="42.626563" lon="0.464300">
        <ele>1860.000000</ele>
        <time>2021-09-04T10:14:30Z</time>
      </trkpt>
      <trkpt lat="42.626567" lon="0.464294">
        <ele>1860.000000</ele>
        <time>2021-09-04T10:14:31Z</time>
      </trkpt>
      <trkpt lat="42.626572" lon="0.464291">
        <ele>1860.000000</ele>
        <time>2021-09-04T10:14:32Z</time>
      </trkpt>
      <trkpt lat="42.626577" lon="0.464280">
        <ele>1860.000000</ele>
        <time>2021-09-04T10:14:33Z</time>
      </trkpt>
      <trkpt lat="42.626580" lon="0.464275">
        <ele>1860.000000</ele>
        <time>2021-09-04T10:14:34Z</time>
      </trkpt>
      <trkpt lat="42.626590" lon="0.464260">
        <ele>1860.000000</ele>
        <time>2021-09-04T10:14:35Z</time>
      </trkpt>
      <trkpt lat="42.626597" lon="0.464253">
        <ele>1860.000000</ele>
        <time>2021-09-04T10:14:36Z</time>
      </trkpt>
      <trkpt lat="42.626603" lon="0.464249">
        <ele>1860.000000</ele>
        <time>2021-09-04T10:14:37Z</time>
      </trkpt>
      <trkpt lat="42.626608" lon="0.464247">
        <ele>1861.000000</ele>
        <time>2021-09-04T10:14:38Z</time>
      </trkpt>
      <trkpt lat="42.626613" lon="0.464240">
        <ele>1861.000000</ele>
        <time>2021-09-04T10:14:39Z</time>
      </trkpt>
      <trkpt lat="42.626617" lon="0.464233">
        <ele>1861.000000</ele>
        <time>2021-09-04T10:14:40Z</time>
      </trkpt>
      <trkpt lat="42.626615" lon="0.464218">
        <ele>1861.000000</ele>
        <time>2021-09-04T10:14:41Z</time>
      </trkpt>
      <trkpt lat="42.626618" lon="0.464213">
        <ele>1861.000000</ele>
        <time>2021-09-04T10:14:42Z</time>
      </trkpt>
      <trkpt lat="42.626620" lon="0.464210">
        <ele>1861.000000</ele>
        <time>2021-09-04T10:14:43Z</time>
      </trkpt>
      <trkpt lat="42.626628" lon="0.464210">
        <ele>1861.000000</ele>
        <time>2021-09-04T10:14:44Z</time>
      </trkpt>
      <trkpt lat="42.626633" lon="0.464210">
        <ele>1861.000000</ele>
        <time>2021-09-04T10:14:45Z</time>
      </trkpt>
      <trkpt lat="42.626642" lon="0.464208">
        <ele>1861.000000</ele>
        <time>2021-09-04T10:14:46Z</time>
      </trkpt>
      <trkpt lat="42.626652" lon="0.464208">
        <ele>1862.000000</ele>
        <time>2021-09-04T10:14:47Z</time>
      </trkpt>
      <trkpt lat="42.626658" lon="0.464203">
        <ele>1862.000000</ele>
        <time>2021-09-04T10:14:48Z</time>
      </trkpt>
      <trkpt lat="42.626665" lon="0.464197">
        <ele>1862.000000</ele>
        <time>2021-09-04T10:14:49Z</time>
      </trkpt>
      <trkpt lat="42.626668" lon="0.464198">
        <ele>1862.000000</ele>
        <time>2021-09-04T10:14:50Z</time>
      </trkpt>
      <trkpt lat="42.626672" lon="0.464196">
        <ele>1862.000000</ele>
        <time>2021-09-04T10:14:51Z</time>
      </trkpt>
      <trkpt lat="42.626675" lon="0.464195">
        <ele>1862.000000</ele>
        <time>2021-09-04T10:14:52Z</time>
      </trkpt>
      <trkpt lat="42.626682" lon="0.464191">
        <ele>1862.000000</ele>
        <time>2021-09-04T10:14:53Z</time>
      </trkpt>
      <trkpt lat="42.626690" lon="0.464187">
        <ele>1862.000000</ele>
        <time>2021-09-04T10:14:54Z</time>
      </trkpt>
      <trkpt lat="42.626702" lon="0.464187">
        <ele>1862.000000</ele>
        <time>2021-09-04T10:14:55Z</time>
      </trkpt>
      <trkpt lat="42.626712" lon="0.464188">
        <ele>1862.000000</ele>
        <time>2021-09-04T10:14:56Z</time>
      </trkpt>
      <trkpt lat="42.626718" lon="0.464187">
        <ele>1863.000000</ele>
        <time>2021-09-04T10:14:57Z</time>
      </trkpt>
      <trkpt lat="42.626722" lon="0.464177">
        <ele>1863.000000</ele>
        <time>2021-09-04T10:14:58Z</time>
      </trkpt>
      <trkpt lat="42.626727" lon="0.464168">
        <ele>1863.000000</ele>
        <time>2021-09-04T10:14:59Z</time>
      </trkpt>
      <trkpt lat="42.626732" lon="0.464160">
        <ele>1863.000000</ele>
        <time>2021-09-04T10:15:00Z</time>
      </trkpt>
      <trkpt lat="42.626732" lon="0.464143">
        <ele>1863.000000</ele>
        <time>2021-09-04T10:15:01Z</time>
      </trkpt>
      <trkpt lat="42.626730" lon="0.464130">
        <ele>1863.000000</ele>
        <time>2021-09-04T10:15:02Z</time>
      </trkpt>
      <trkpt lat="42.626727" lon="0.464115">
        <ele>1863.000000</ele>
        <time>2021-09-04T10:15:03Z</time>
      </trkpt>
      <trkpt lat="42.626720" lon="0.464100">
        <ele>1863.000000</ele>
        <time>2021-09-04T10:15:04Z</time>
      </trkpt>
      <trkpt lat="42.626718" lon="0.464083">
        <ele>1864.000000</ele>
        <time>2021-09-04T10:15:05Z</time>
      </trkpt>
      <trkpt lat="42.626720" lon="0.464065">
        <ele>1864.000000</ele>
        <time>2021-09-04T10:15:06Z</time>
      </trkpt>
      <trkpt lat="42.626722" lon="0.464050">
        <ele>1864.000000</ele>
        <time>2021-09-04T10:15:07Z</time>
      </trkpt>
      <trkpt lat="42.626724" lon="0.464040">
        <ele>1864.000000</ele>
        <time>2021-09-04T10:15:08Z</time>
      </trkpt>
      <trkpt lat="42.626723" lon="0.464038">
        <ele>1864.000000</ele>
        <time>2021-09-04T10:15:09Z</time>
      </trkpt>
      <trkpt lat="42.626721" lon="0.464043">
        <ele>1864.000000</ele>
        <time>2021-09-04T10:15:10Z</time>
      </trkpt>
      <trkpt lat="42.626720" lon="0.464045">
        <ele>1864.000000</ele>
        <time>2021-09-04T10:15:11Z</time>
      </trkpt>
      <trkpt lat="42.626718" lon="0.464032">
        <ele>1864.000000</ele>
        <time>2021-09-04T10:15:12Z</time>
      </trkpt>
      <trkpt lat="42.626717" lon="0.464023">
        <ele>1864.000000</ele>
        <time>2021-09-04T10:15:13Z</time>
      </trkpt>
      <trkpt lat="42.626718" lon="0.463998">
        <ele>1865.000000</ele>
        <time>2021-09-04T10:15:14Z</time>
      </trkpt>
      <trkpt lat="42.626720" lon="0.463973">
        <ele>1865.000000</ele>
        <time>2021-09-04T10:15:15Z</time>
      </trkpt>
      <trkpt lat="42.626715" lon="0.463953">
        <ele>1865.000000</ele>
        <time>2021-09-04T10:15:16Z</time>
      </trkpt>
      <trkpt lat="42.626714" lon="0.463943">
        <ele>1865.000000</ele>
        <time>2021-09-04T10:15:17Z</time>
      </trkpt>
      <trkpt lat="42.626716" lon="0.463930">
        <ele>1865.000000</ele>
        <time>2021-09-04T10:15:18Z</time>
      </trkpt>
      <trkpt lat="42.626719" lon="0.463925">
        <ele>1865.000000</ele>
        <time>2021-09-04T10:15:19Z</time>
      </trkpt>
      <trkpt lat="42.626730" lon="0.463918">
        <ele>1865.000000</ele>
        <time>2021-09-04T10:15:20Z</time>
      </trkpt>
      <trkpt lat="42.626735" lon="0.463907">
        <ele>1865.000000</ele>
        <time>2021-09-04T10:15:21Z</time>
      </trkpt>
      <trkpt lat="42.626742" lon="0.463900">
        <ele>1865.000000</ele>
        <time>2021-09-04T10:15:22Z</time>
      </trkpt>
      <trkpt lat="42.626746" lon="0.463892">
        <ele>1865.000000</ele>
        <time>2021-09-04T10:15:23Z</time>
      </trkpt>
      <trkpt lat="42.626751" lon="0.463888">
        <ele>1865.000000</ele>
        <time>2021-09-04T10:15:24Z</time>
      </trkpt>
      <trkpt lat="42.626750" lon="0.463893">
        <ele>1865.000000</ele>
        <time>2021-09-04T10:15:25Z</time>
      </trkpt>
      <trkpt lat="42.626754" lon="0.463893">
        <ele>1865.000000</ele>
        <time>2021-09-04T10:15:26Z</time>
      </trkpt>
      <trkpt lat="42.626764" lon="0.463887">
        <ele>1865.000000</ele>
        <time>2021-09-04T10:15:28Z</time>
      </trkpt>
      <trkpt lat="42.626773" lon="0.463883">
        <ele>1865.000000</ele>
        <time>2021-09-04T10:15:29Z</time>
      </trkpt>
      <trkpt lat="42.626782" lon="0.463870">
        <ele>1865.000000</ele>
        <time>2021-09-04T10:15:30Z</time>
      </trkpt>
      <trkpt lat="42.626783" lon="0.463857">
        <ele>1865.000000</ele>
        <time>2021-09-04T10:15:31Z</time>
      </trkpt>
      <trkpt lat="42.626780" lon="0.463832">
        <ele>1865.000000</ele>
        <time>2021-09-04T10:15:32Z</time>
      </trkpt>
      <trkpt lat="42.626775" lon="0.463812">
        <ele>1865.000000</ele>
        <time>2021-09-04T10:15:33Z</time>
      </trkpt>
      <trkpt lat="42.626778" lon="0.463807">
        <ele>1865.000000</ele>
        <time>2021-09-04T10:15:34Z</time>
      </trkpt>
      <trkpt lat="42.626784" lon="0.463802">
        <ele>1865.000000</ele>
        <time>2021-09-04T10:15:35Z</time>
      </trkpt>
      <trkpt lat="42.626792" lon="0.463797">
        <ele>1865.000000</ele>
        <time>2021-09-04T10:15:36Z</time>
      </trkpt>
      <trkpt lat="42.626807" lon="0.463795">
        <ele>1865.000000</ele>
        <time>2021-09-04T10:15:37Z</time>
      </trkpt>
      <trkpt lat="42.626817" lon="0.463792">
        <ele>1865.000000</ele>
        <time>2021-09-04T10:15:38Z</time>
      </trkpt>
      <trkpt lat="42.626823" lon="0.463785">
        <ele>1865.000000</ele>
        <time>2021-09-04T10:15:39Z</time>
      </trkpt>
      <trkpt lat="42.626829" lon="0.463777">
        <ele>1865.000000</ele>
        <time>2021-09-04T10:15:40Z</time>
      </trkpt>
      <trkpt lat="42.626832" lon="0.463775">
        <ele>1865.000000</ele>
        <time>2021-09-04T10:15:41Z</time>
      </trkpt>
      <trkpt lat="42.626840" lon="0.463773">
        <ele>1865.000000</ele>
        <time>2021-09-04T10:15:42Z</time>
      </trkpt>
      <trkpt lat="42.626840" lon="0.463771">
        <ele>1865.000000</ele>
        <time>2021-09-04T10:15:43Z</time>
      </trkpt>
      <trkpt lat="42.626845" lon="0.463772">
        <ele>1865.000000</ele>
        <time>2021-09-04T10:15:45Z</time>
      </trkpt>
      <trkpt lat="42.626847" lon="0.463774">
        <ele>1865.000000</ele>
        <time>2021-09-04T10:15:46Z</time>
      </trkpt>
      <trkpt lat="42.626852" lon="0.463783">
        <ele>1865.000000</ele>
        <time>2021-09-04T10:15:47Z</time>
      </trkpt>
      <trkpt lat="42.626858" lon="0.463787">
        <ele>1865.000000</ele>
        <time>2021-09-04T10:15:48Z</time>
      </trkpt>
      <trkpt lat="42.626865" lon="0.463788">
        <ele>1865.000000</ele>
        <time>2021-09-04T10:15:49Z</time>
      </trkpt>
      <trkpt lat="42.626870" lon="0.463790">
        <ele>1865.000000</ele>
        <time>2021-09-04T10:15:50Z</time>
      </trkpt>
      <trkpt lat="42.626873" lon="0.463778">
        <ele>1865.000000</ele>
        <time>2021-09-04T10:15:53Z</time>
      </trkpt>
      <trkpt lat="42.626877" lon="0.463775">
        <ele>1865.000000</ele>
        <time>2021-09-04T10:15:54Z</time>
      </trkpt>
      <trkpt lat="42.626880" lon="0.463763">
        <ele>1865.000000</ele>
        <time>2021-09-04T10:15:55Z</time>
      </trkpt>
      <trkpt lat="42.626887" lon="0.463753">
        <ele>1865.000000</ele>
        <time>2021-09-04T10:15:56Z</time>
      </trkpt>
      <trkpt lat="42.626894" lon="0.463752">
        <ele>1865.000000</ele>
        <time>2021-09-04T10:15:57Z</time>
      </trkpt>
      <trkpt lat="42.626897" lon="0.463748">
        <ele>1865.000000</ele>
        <time>2021-09-04T10:15:58Z</time>
      </trkpt>
      <trkpt lat="42.626896" lon="0.463750">
        <ele>1865.000000</ele>
        <time>2021-09-04T10:15:59Z</time>
      </trkpt>
      <trkpt lat="42.626907" lon="0.463752">
        <ele>1865.000000</ele>
        <time>2021-09-04T10:16:00Z</time>
      </trkpt>
      <trkpt lat="42.626915" lon="0.463750">
        <ele>1865.000000</ele>
        <time>2021-09-04T10:16:01Z</time>
      </trkpt>
      <trkpt lat="42.626922" lon="0.463750">
        <ele>1865.000000</ele>
        <time>2021-09-04T10:16:02Z</time>
      </trkpt>
      <trkpt lat="42.626927" lon="0.463753">
        <ele>1865.000000</ele>
        <time>2021-09-04T10:16:03Z</time>
      </trkpt>
      <trkpt lat="42.626933" lon="0.463760">
        <ele>1865.000000</ele>
        <time>2021-09-04T10:16:04Z</time>
      </trkpt>
      <trkpt lat="42.626940" lon="0.463760">
        <ele>1865.000000</ele>
        <time>2021-09-04T10:16:05Z</time>
      </trkpt>
      <trkpt lat="42.626952" lon="0.463762">
        <ele>1865.000000</ele>
        <time>2021-09-04T10:16:06Z</time>
      </trkpt>
      <trkpt lat="42.626963" lon="0.463756">
        <ele>1865.000000</ele>
        <time>2021-09-04T10:16:07Z</time>
      </trkpt>
      <trkpt lat="42.626978" lon="0.463754">
        <ele>1865.000000</ele>
        <time>2021-09-04T10:16:08Z</time>
      </trkpt>
      <trkpt lat="42.626988" lon="0.463752">
        <ele>1865.000000</ele>
        <time>2021-09-04T10:16:09Z</time>
      </trkpt>
      <trkpt lat="42.626995" lon="0.463750">
        <ele>1865.000000</ele>
        <time>2021-09-04T10:16:10Z</time>
      </trkpt>
      <trkpt lat="42.627000" lon="0.463751">
        <ele>1865.000000</ele>
        <time>2021-09-04T10:16:11Z</time>
      </trkpt>
      <trkpt lat="42.627002" lon="0.463752">
        <ele>1865.000000</ele>
        <time>2021-09-04T10:16:12Z</time>
      </trkpt>
      <trkpt lat="42.627010" lon="0.463753">
        <ele>1865.000000</ele>
        <time>2021-09-04T10:16:13Z</time>
      </trkpt>
      <trkpt lat="42.627018" lon="0.463757">
        <ele>1865.000000</ele>
        <time>2021-09-04T10:16:14Z</time>
      </trkpt>
      <trkpt lat="42.627025" lon="0.463772">
        <ele>1865.000000</ele>
        <time>2021-09-04T10:16:16Z</time>
      </trkpt>
      <trkpt lat="42.627033" lon="0.463768">
        <ele>1865.000000</ele>
        <time>2021-09-04T10:16:17Z</time>
      </trkpt>
      <trkpt lat="42.627038" lon="0.463766">
        <ele>1865.000000</ele>
        <time>2021-09-04T10:16:18Z</time>
      </trkpt>
      <trkpt lat="42.627050" lon="0.463762">
        <ele>1865.000000</ele>
        <time>2021-09-04T10:16:19Z</time>
      </trkpt>
      <trkpt lat="42.627062" lon="0.463758">
        <ele>1865.000000</ele>
        <time>2021-09-04T10:16:20Z</time>
      </trkpt>
      <trkpt lat="42.627068" lon="0.463755">
        <ele>1865.000000</ele>
        <time>2021-09-04T10:16:21Z</time>
      </trkpt>
      <trkpt lat="42.627072" lon="0.463754">
        <ele>1865.000000</ele>
        <time>2021-09-04T10:16:22Z</time>
      </trkpt>
      <trkpt lat="42.627075" lon="0.463751">
        <ele>1865.000000</ele>
        <time>2021-09-04T10:16:23Z</time>
      </trkpt>
      <trkpt lat="42.627075" lon="0.463750">
        <ele>1865.000000</ele>
        <time>2021-09-04T10:16:24Z</time>
      </trkpt>
      <trkpt lat="42.627078" lon="0.463735">
        <ele>1865.000000</ele>
        <time>2021-09-04T10:16:25Z</time>
      </trkpt>
      <trkpt lat="42.627080" lon="0.463725">
        <ele>1865.000000</ele>
        <time>2021-09-04T10:16:26Z</time>
      </trkpt>
      <trkpt lat="42.627083" lon="0.463713">
        <ele>1865.000000</ele>
        <time>2021-09-04T10:16:27Z</time>
      </trkpt>
      <trkpt lat="42.627089" lon="0.463708">
        <ele>1865.000000</ele>
        <time>2021-09-04T10:16:28Z</time>
      </trkpt>
      <trkpt lat="42.627102" lon="0.463708">
        <ele>1865.000000</ele>
        <time>2021-09-04T10:16:29Z</time>
      </trkpt>
      <trkpt lat="42.627110" lon="0.463710">
        <ele>1865.000000</ele>
        <time>2021-09-04T10:16:30Z</time>
      </trkpt>
      <trkpt lat="42.627117" lon="0.463703">
        <ele>1865.000000</ele>
        <time>2021-09-04T10:16:31Z</time>
      </trkpt>
      <trkpt lat="42.627123" lon="0.463697">
        <ele>1865.000000</ele>
        <time>2021-09-04T10:16:32Z</time>
      </trkpt>
      <trkpt lat="42.627132" lon="0.463688">
        <ele>1865.000000</ele>
        <time>2021-09-04T10:16:33Z</time>
      </trkpt>
      <trkpt lat="42.627143" lon="0.463684">
        <ele>1865.000000</ele>
        <time>2021-09-04T10:16:34Z</time>
      </trkpt>
      <trkpt lat="42.627152" lon="0.463683">
        <ele>1865.000000</ele>
        <time>2021-09-04T10:16:35Z</time>
      </trkpt>
      <trkpt lat="42.627158" lon="0.463680">
        <ele>1865.000000</ele>
        <time>2021-09-04T10:16:36Z</time>
      </trkpt>
      <trkpt lat="42.627170" lon="0.463674">
        <ele>1865.000000</ele>
        <time>2021-09-04T10:16:37Z</time>
      </trkpt>
      <trkpt lat="42.627178" lon="0.463671">
        <ele>1865.000000</ele>
        <time>2021-09-04T10:16:38Z</time>
      </trkpt>
      <trkpt lat="42.627192" lon="0.463667">
        <ele>1865.000000</ele>
        <time>2021-09-04T10:16:39Z</time>
      </trkpt>
      <trkpt lat="42.627202" lon="0.463665">
        <ele>1865.000000</ele>
        <time>2021-09-04T10:16:40Z</time>
      </trkpt>
      <trkpt lat="42.627205" lon="0.463666">
        <ele>1865.000000</ele>
        <time>2021-09-04T10:16:41Z</time>
      </trkpt>
      <trkpt lat="42.627202" lon="0.463665">
        <ele>1865.000000</ele>
        <time>2021-09-04T10:16:42Z</time>
      </trkpt>
      <trkpt lat="42.627200" lon="0.463648">
        <ele>1865.000000</ele>
        <time>2021-09-04T10:16:43Z</time>
      </trkpt>
      <trkpt lat="42.627202" lon="0.463637">
        <ele>1865.000000</ele>
        <time>2021-09-04T10:16:44Z</time>
      </trkpt>
      <trkpt lat="42.627205" lon="0.463622">
        <ele>1868.000000</ele>
        <time>2021-09-04T10:16:45Z</time>
      </trkpt>
      <trkpt lat="42.627209" lon="0.463613">
        <ele>1868.000000</ele>
        <time>2021-09-04T10:16:46Z</time>
      </trkpt>
      <trkpt lat="42.627213" lon="0.463605">
        <ele>1868.000000</ele>
        <time>2021-09-04T10:16:47Z</time>
      </trkpt>
      <trkpt lat="42.627218" lon="0.463603">
        <ele>1868.000000</ele>
        <time>2021-09-04T10:16:48Z</time>
      </trkpt>
      <trkpt lat="42.627223" lon="0.463600">
        <ele>1868.000000</ele>
        <time>2021-09-04T10:16:49Z</time>
      </trkpt>
      <trkpt lat="42.627228" lon="0.463598">
        <ele>1868.000000</ele>
        <time>2021-09-04T10:16:50Z</time>
      </trkpt>
      <trkpt lat="42.627235" lon="0.463592">
        <ele>1868.000000</ele>
        <time>2021-09-04T10:16:51Z</time>
      </trkpt>
      <trkpt lat="42.627242" lon="0.463585">
        <ele>1868.000000</ele>
        <time>2021-09-04T10:16:52Z</time>
      </trkpt>
      <trkpt lat="42.627252" lon="0.463579">
        <ele>1868.000000</ele>
        <time>2021-09-04T10:16:53Z</time>
      </trkpt>
      <trkpt lat="42.627262" lon="0.463573">
        <ele>1868.000000</ele>
        <time>2021-09-04T10:16:54Z</time>
      </trkpt>
      <trkpt lat="42.627267" lon="0.463568">
        <ele>1868.000000</ele>
        <time>2021-09-04T10:16:55Z</time>
      </trkpt>
      <trkpt lat="42.627272" lon="0.463565">
        <ele>1868.000000</ele>
        <time>2021-09-04T10:16:57Z</time>
      </trkpt>
      <trkpt lat="42.627273" lon="0.463562">
        <ele>1868.000000</ele>
        <time>2021-09-04T10:16:58Z</time>
      </trkpt>
      <trkpt lat="42.627275" lon="0.463560">
        <ele>1868.000000</ele>
        <time>2021-09-04T10:16:59Z</time>
      </trkpt>
      <trkpt lat="42.627273" lon="0.463552">
        <ele>1868.000000</ele>
        <time>2021-09-04T10:17:00Z</time>
      </trkpt>
      <trkpt lat="42.627275" lon="0.463547">
        <ele>1868.000000</ele>
        <time>2021-09-04T10:17:01Z</time>
      </trkpt>
      <trkpt lat="42.627277" lon="0.463545">
        <ele>1868.000000</ele>
        <time>2021-09-04T10:17:02Z</time>
      </trkpt>
      <trkpt lat="42.627277" lon="0.463538">
        <ele>1868.000000</ele>
        <time>2021-09-04T10:17:03Z</time>
      </trkpt>
      <trkpt lat="42.627278" lon="0.463535">
        <ele>1868.000000</ele>
        <time>2021-09-04T10:17:04Z</time>
      </trkpt>
      <trkpt lat="42.627281" lon="0.463532">
        <ele>1868.000000</ele>
        <time>2021-09-04T10:17:05Z</time>
      </trkpt>
      <trkpt lat="42.627285" lon="0.463520">
        <ele>1868.000000</ele>
        <time>2021-09-04T10:17:06Z</time>
      </trkpt>
      <trkpt lat="42.627287" lon="0.463512">
        <ele>1868.000000</ele>
        <time>2021-09-04T10:17:07Z</time>
      </trkpt>
      <trkpt lat="42.627289" lon="0.463505">
        <ele>1868.000000</ele>
        <time>2021-09-04T10:17:08Z</time>
      </trkpt>
      <trkpt lat="42.627292" lon="0.463495">
        <ele>1868.000000</ele>
        <time>2021-09-04T10:17:09Z</time>
      </trkpt>
      <trkpt lat="42.627293" lon="0.463488">
        <ele>1868.000000</ele>
        <time>2021-09-04T10:17:10Z</time>
      </trkpt>
      <trkpt lat="42.627295" lon="0.463477">
        <ele>1868.000000</ele>
        <time>2021-09-04T10:17:11Z</time>
      </trkpt>
      <trkpt lat="42.627294" lon="0.463467">
        <ele>1868.000000</ele>
        <time>2021-09-04T10:17:12Z</time>
      </trkpt>
      <trkpt lat="42.627294" lon="0.463457">
        <ele>1868.000000</ele>
        <time>2021-09-04T10:17:13Z</time>
      </trkpt>
      <trkpt lat="42.627294" lon="0.463450">
        <ele>1868.000000</ele>
        <time>2021-09-04T10:17:14Z</time>
      </trkpt>
      <trkpt lat="42.627294" lon="0.463445">
        <ele>1868.000000</ele>
        <time>2021-09-04T10:17:15Z</time>
      </trkpt>
      <trkpt lat="42.627295" lon="0.463435">
        <ele>1868.000000</ele>
        <time>2021-09-04T10:17:16Z</time>
      </trkpt>
      <trkpt lat="42.627295" lon="0.463428">
        <ele>1868.000000</ele>
        <time>2021-09-04T10:17:17Z</time>
      </trkpt>
      <trkpt lat="42.627297" lon="0.463422">
        <ele>1868.000000</ele>
        <time>2021-09-04T10:17:18Z</time>
      </trkpt>
      <trkpt lat="42.627297" lon="0.463420">
        <ele>1868.000000</ele>
        <time>2021-09-04T10:17:19Z</time>
      </trkpt>
      <trkpt lat="42.627300" lon="0.463413">
        <ele>1868.000000</ele>
        <time>2021-09-04T10:17:20Z</time>
      </trkpt>
      <trkpt lat="42.627313" lon="0.463412">
        <ele>1868.000000</ele>
        <time>2021-09-04T10:17:21Z</time>
      </trkpt>
      <trkpt lat="42.627320" lon="0.463407">
        <ele>1868.000000</ele>
        <time>2021-09-04T10:17:22Z</time>
      </trkpt>
      <trkpt lat="42.627322" lon="0.463403">
        <ele>1868.000000</ele>
        <time>2021-09-04T10:17:23Z</time>
      </trkpt>
      <trkpt lat="42.627325" lon="0.463398">
        <ele>1868.000000</ele>
        <time>2021-09-04T10:17:24Z</time>
      </trkpt>
      <trkpt lat="42.627332" lon="0.463395">
        <ele>1869.000000</ele>
        <time>2021-09-04T10:17:26Z</time>
      </trkpt>
      <trkpt lat="42.627335" lon="0.463393">
        <ele>1869.000000</ele>
        <time>2021-09-04T10:17:27Z</time>
      </trkpt>
      <trkpt lat="42.627335" lon="0.463385">
        <ele>1869.000000</ele>
        <time>2021-09-04T10:17:29Z</time>
      </trkpt>
      <trkpt lat="42.627332" lon="0.463380">
        <ele>1869.000000</ele>
        <time>2021-09-04T10:17:30Z</time>
      </trkpt>
      <trkpt lat="42.627330" lon="0.463372">
        <ele>1869.000000</ele>
        <time>2021-09-04T10:17:31Z</time>
      </trkpt>
      <trkpt lat="42.627333" lon="0.463363">
        <ele>1870.000000</ele>
        <time>2021-09-04T10:17:32Z</time>
      </trkpt>
      <trkpt lat="42.627334" lon="0.463352">
        <ele>1870.000000</ele>
        <time>2021-09-04T10:17:33Z</time>
      </trkpt>
      <trkpt lat="42.627335" lon="0.463340">
        <ele>1870.000000</ele>
        <time>2021-09-04T10:17:34Z</time>
      </trkpt>
      <trkpt lat="42.627338" lon="0.463330">
        <ele>1870.000000</ele>
        <time>2021-09-04T10:17:35Z</time>
      </trkpt>
      <trkpt lat="42.627339" lon="0.463325">
        <ele>1870.000000</ele>
        <time>2021-09-04T10:17:36Z</time>
      </trkpt>
      <trkpt lat="42.627342" lon="0.463320">
        <ele>1870.000000</ele>
        <time>2021-09-04T10:17:37Z</time>
      </trkpt>
      <trkpt lat="42.627344" lon="0.463320">
        <ele>1870.000000</ele>
        <time>2021-09-04T10:17:38Z</time>
      </trkpt>
      <trkpt lat="42.627353" lon="0.463318">
        <ele>1870.000000</ele>
        <time>2021-09-04T10:17:39Z</time>
      </trkpt>
      <trkpt lat="42.627358" lon="0.463317">
        <ele>1871.000000</ele>
        <time>2021-09-04T10:17:40Z</time>
      </trkpt>
      <trkpt lat="42.627365" lon="0.463310">
        <ele>1871.000000</ele>
        <time>2021-09-04T10:17:41Z</time>
      </trkpt>
      <trkpt lat="42.627370" lon="0.463301">
        <ele>1871.000000</ele>
        <time>2021-09-04T10:17:42Z</time>
      </trkpt>
      <trkpt lat="42.627372" lon="0.463296">
        <ele>1871.000000</ele>
        <time>2021-09-04T10:17:43Z</time>
      </trkpt>
      <trkpt lat="42.627378" lon="0.463288">
        <ele>1871.000000</ele>
        <time>2021-09-04T10:17:44Z</time>
      </trkpt>
      <trkpt lat="42.627385" lon="0.463282">
        <ele>1871.000000</ele>
        <time>2021-09-04T10:17:45Z</time>
      </trkpt>
      <trkpt lat="42.627392" lon="0.463274">
        <ele>1872.000000</ele>
        <time>2021-09-04T10:17:46Z</time>
      </trkpt>
      <trkpt lat="42.627398" lon="0.463267">
        <ele>1872.000000</ele>
        <time>2021-09-04T10:17:47Z</time>
      </trkpt>
      <trkpt lat="42.627405" lon="0.463260">
        <ele>1872.000000</ele>
        <time>2021-09-04T10:17:48Z</time>
      </trkpt>
      <trkpt lat="42.627412" lon="0.463254">
        <ele>1872.000000</ele>
        <time>2021-09-04T10:17:49Z</time>
      </trkpt>
      <trkpt lat="42.627420" lon="0.463249">
        <ele>1872.000000</ele>
        <time>2021-09-04T10:17:50Z</time>
      </trkpt>
      <trkpt lat="42.627430" lon="0.463245">
        <ele>1872.000000</ele>
        <time>2021-09-04T10:17:51Z</time>
      </trkpt>
      <trkpt lat="42.627440" lon="0.463242">
        <ele>1872.000000</ele>
        <time>2021-09-04T10:17:52Z</time>
      </trkpt>
      <trkpt lat="42.627440" lon="0.463243">
        <ele>1872.000000</ele>
        <time>2021-09-04T10:17:53Z</time>
      </trkpt>
      <trkpt lat="42.627442" lon="0.463239">
        <ele>1872.000000</ele>
        <time>2021-09-04T10:17:54Z</time>
      </trkpt>
      <trkpt lat="42.627445" lon="0.463220">
        <ele>1873.000000</ele>
        <time>2021-09-04T10:17:55Z</time>
      </trkpt>
      <trkpt lat="42.627448" lon="0.463208">
        <ele>1873.000000</ele>
        <time>2021-09-04T10:17:56Z</time>
      </trkpt>
      <trkpt lat="42.627456" lon="0.463195">
        <ele>1873.000000</ele>
        <time>2021-09-04T10:17:57Z</time>
      </trkpt>
      <trkpt lat="42.627467" lon="0.463180">
        <ele>1873.000000</ele>
        <time>2021-09-04T10:17:58Z</time>
      </trkpt>
      <trkpt lat="42.627477" lon="0.463167">
        <ele>1873.000000</ele>
        <time>2021-09-04T10:17:59Z</time>
      </trkpt>
      <trkpt lat="42.627482" lon="0.463159">
        <ele>1873.000000</ele>
        <time>2021-09-04T10:18:00Z</time>
      </trkpt>
      <trkpt lat="42.627487" lon="0.463151">
        <ele>1873.000000</ele>
        <time>2021-09-04T10:18:01Z</time>
      </trkpt>
      <trkpt lat="42.627488" lon="0.463150">
        <ele>1873.000000</ele>
        <time>2021-09-04T10:18:02Z</time>
      </trkpt>
      <trkpt lat="42.627493" lon="0.463144">
        <ele>1873.000000</ele>
        <time>2021-09-04T10:18:03Z</time>
      </trkpt>
      <trkpt lat="42.627500" lon="0.463137">
        <ele>1873.000000</ele>
        <time>2021-09-04T10:18:04Z</time>
      </trkpt>
      <trkpt lat="42.627508" lon="0.463130">
        <ele>1873.000000</ele>
        <time>2021-09-04T10:18:04Z</time>
      </trkpt>
      <trkpt lat="42.627512" lon="0.463127">
        <ele>1874.000000</ele>
        <time>2021-09-04T10:18:05Z</time>
      </trkpt>
      <trkpt lat="42.627515" lon="0.463123">
        <ele>1874.000000</ele>
        <time>2021-09-04T10:18:06Z</time>
      </trkpt>
      <trkpt lat="42.627518" lon="0.463112">
        <ele>1874.000000</ele>
        <time>2021-09-04T10:18:07Z</time>
      </trkpt>
      <trkpt lat="42.627520" lon="0.463105">
        <ele>1874.000000</ele>
        <time>2021-09-04T10:18:08Z</time>
      </trkpt>
      <trkpt lat="42.627520" lon="0.463095">
        <ele>1874.000000</ele>
        <time>2021-09-04T10:18:09Z</time>
      </trkpt>
      <trkpt lat="42.627527" lon="0.463088">
        <ele>1874.000000</ele>
        <time>2021-09-04T10:18:10Z</time>
      </trkpt>
      <trkpt lat="42.627535" lon="0.463080">
        <ele>1874.000000</ele>
        <time>2021-09-04T10:18:11Z</time>
      </trkpt>
      <trkpt lat="42.627541" lon="0.463072">
        <ele>1874.000000</ele>
        <time>2021-09-04T10:18:12Z</time>
      </trkpt>
      <trkpt lat="42.627547" lon="0.463062">
        <ele>1874.000000</ele>
        <time>2021-09-04T10:18:13Z</time>
      </trkpt>
      <trkpt lat="42.627548" lon="0.463056">
        <ele>1874.000000</ele>
        <time>2021-09-04T10:18:14Z</time>
      </trkpt>
      <trkpt lat="42.627547" lon="0.463057">
        <ele>1875.000000</ele>
        <time>2021-09-04T10:18:15Z</time>
      </trkpt>
      <trkpt lat="42.627550" lon="0.463042">
        <ele>1875.000000</ele>
        <time>2021-09-04T10:18:16Z</time>
      </trkpt>
      <trkpt lat="42.627558" lon="0.463038">
        <ele>1875.000000</ele>
        <time>2021-09-04T10:18:17Z</time>
      </trkpt>
      <trkpt lat="42.627565" lon="0.463037">
        <ele>1875.000000</ele>
        <time>2021-09-04T10:18:18Z</time>
      </trkpt>
      <trkpt lat="42.627572" lon="0.463035">
        <ele>1875.000000</ele>
        <time>2021-09-04T10:18:19Z</time>
      </trkpt>
      <trkpt lat="42.627578" lon="0.463030">
        <ele>1875.000000</ele>
        <time>2021-09-04T10:18:20Z</time>
      </trkpt>
      <trkpt lat="42.627588" lon="0.463025">
        <ele>1875.000000</ele>
        <time>2021-09-04T10:18:21Z</time>
      </trkpt>
      <trkpt lat="42.627597" lon="0.463021">
        <ele>1875.000000</ele>
        <time>2021-09-04T10:18:22Z</time>
      </trkpt>
      <trkpt lat="42.627602" lon="0.463020">
        <ele>1875.000000</ele>
        <time>2021-09-04T10:18:23Z</time>
      </trkpt>
      <trkpt lat="42.627603" lon="0.463021">
        <ele>1875.000000</ele>
        <time>2021-09-04T10:18:24Z</time>
      </trkpt>
      <trkpt lat="42.627602" lon="0.463021">
        <ele>1875.000000</ele>
        <time>2021-09-04T10:18:25Z</time>
      </trkpt>
      <trkpt lat="42.627600" lon="0.463022">
        <ele>1875.000000</ele>
        <time>2021-09-04T10:18:27Z</time>
      </trkpt>
      <trkpt lat="42.627602" lon="0.463023">
        <ele>1875.000000</ele>
        <time>2021-09-04T10:18:29Z</time>
      </trkpt>
      <trkpt lat="42.627603" lon="0.463023">
        <ele>1875.000000</ele>
        <time>2021-09-04T10:18:30Z</time>
      </trkpt>
      <trkpt lat="42.627602" lon="0.463024">
        <ele>1875.000000</ele>
        <time>2021-09-04T10:18:31Z</time>
      </trkpt>
      <trkpt lat="42.627607" lon="0.463022">
        <ele>1875.000000</ele>
        <time>2021-09-04T10:18:32Z</time>
      </trkpt>
      <trkpt lat="42.627612" lon="0.463017">
        <ele>1875.000000</ele>
        <time>2021-09-04T10:18:34Z</time>
      </trkpt>
      <trkpt lat="42.627615" lon="0.463008">
        <ele>1875.000000</ele>
        <time>2021-09-04T10:18:35Z</time>
      </trkpt>
      <trkpt lat="42.627618" lon="0.463003">
        <ele>1875.000000</ele>
        <time>2021-09-04T10:18:36Z</time>
      </trkpt>
      <trkpt lat="42.627628" lon="0.463000">
        <ele>1875.000000</ele>
        <time>2021-09-04T10:18:37Z</time>
      </trkpt>
      <trkpt lat="42.627637" lon="0.462993">
        <ele>1875.000000</ele>
        <time>2021-09-04T10:18:38Z</time>
      </trkpt>
      <trkpt lat="42.627645" lon="0.462987">
        <ele>1875.000000</ele>
        <time>2021-09-04T10:18:39Z</time>
      </trkpt>
      <trkpt lat="42.627655" lon="0.462983">
        <ele>1875.000000</ele>
        <time>2021-09-04T10:18:40Z</time>
      </trkpt>
      <trkpt lat="42.627658" lon="0.462975">
        <ele>1875.000000</ele>
        <time>2021-09-04T10:18:41Z</time>
      </trkpt>
      <trkpt lat="42.627667" lon="0.462972">
        <ele>1876.000000</ele>
        <time>2021-09-04T10:18:42Z</time>
      </trkpt>
      <trkpt lat="42.627677" lon="0.462969">
        <ele>1876.000000</ele>
        <time>2021-09-04T10:18:43Z</time>
      </trkpt>
      <trkpt lat="42.627682" lon="0.462968">
        <ele>1876.000000</ele>
        <time>2021-09-04T10:18:44Z</time>
      </trkpt>
      <trkpt lat="42.627690" lon="0.462964">
        <ele>1876.000000</ele>
        <time>2021-09-04T10:18:45Z</time>
      </trkpt>
      <trkpt lat="42.627693" lon="0.462962">
        <ele>1876.000000</ele>
        <time>2021-09-04T10:18:46Z</time>
      </trkpt>
      <trkpt lat="42.627698" lon="0.462958">
        <ele>1876.000000</ele>
        <time>2021-09-04T10:18:47Z</time>
      </trkpt>
      <trkpt lat="42.627702" lon="0.462953">
        <ele>1876.000000</ele>
        <time>2021-09-04T10:18:48Z</time>
      </trkpt>
      <trkpt lat="42.627707" lon="0.462947">
        <ele>1877.000000</ele>
        <time>2021-09-04T10:18:49Z</time>
      </trkpt>
      <trkpt lat="42.627710" lon="0.462942">
        <ele>1877.000000</ele>
        <time>2021-09-04T10:18:50Z</time>
      </trkpt>
      <trkpt lat="42.627708" lon="0.462925">
        <ele>1877.000000</ele>
        <time>2021-09-04T10:18:51Z</time>
      </trkpt>
      <trkpt lat="42.627707" lon="0.462918">
        <ele>1877.000000</ele>
        <time>2021-09-04T10:18:52Z</time>
      </trkpt>
      <trkpt lat="42.627712" lon="0.462908">
        <ele>1877.000000</ele>
        <time>2021-09-04T10:18:53Z</time>
      </trkpt>
      <trkpt lat="42.627714" lon="0.462908">
        <ele>1877.000000</ele>
        <time>2021-09-04T10:18:54Z</time>
      </trkpt>
      <trkpt lat="42.627717" lon="0.462905">
        <ele>1877.000000</ele>
        <time>2021-09-04T10:18:56Z</time>
      </trkpt>
      <trkpt lat="42.627725" lon="0.462907">
        <ele>1877.000000</ele>
        <time>2021-09-04T10:18:56Z</time>
      </trkpt>
      <trkpt lat="42.627723" lon="0.462902">
        <ele>1877.000000</ele>
        <time>2021-09-04T10:18:57Z</time>
      </trkpt>
      <trkpt lat="42.627723" lon="0.462893">
        <ele>1877.000000</ele>
        <time>2021-09-04T10:18:58Z</time>
      </trkpt>
      <trkpt lat="42.627723" lon="0.462888">
        <ele>1877.000000</ele>
        <time>2021-09-04T10:18:59Z</time>
      </trkpt>
      <trkpt lat="42.627722" lon="0.462878">
        <ele>1878.000000</ele>
        <time>2021-09-04T10:19:00Z</time>
      </trkpt>
      <trkpt lat="42.627717" lon="0.462873">
        <ele>1878.000000</ele>
        <time>2021-09-04T10:19:01Z</time>
      </trkpt>
      <trkpt lat="42.627713" lon="0.462865">
        <ele>1878.000000</ele>
        <time>2021-09-04T10:19:02Z</time>
      </trkpt>
      <trkpt lat="42.627712" lon="0.462857">
        <ele>1878.000000</ele>
        <time>2021-09-04T10:19:03Z</time>
      </trkpt>
      <trkpt lat="42.627707" lon="0.462848">
        <ele>1878.000000</ele>
        <time>2021-09-04T10:19:04Z</time>
      </trkpt>
      <trkpt lat="42.627700" lon="0.462837">
        <ele>1878.000000</ele>
        <time>2021-09-04T10:19:05Z</time>
      </trkpt>
      <trkpt lat="42.627695" lon="0.462828">
        <ele>1878.000000</ele>
        <time>2021-09-04T10:19:06Z</time>
      </trkpt>
      <trkpt lat="42.627693" lon="0.462825">
        <ele>1878.000000</ele>
        <time>2021-09-04T10:19:07Z</time>
      </trkpt>
      <trkpt lat="42.627692" lon="0.462818">
        <ele>1878.000000</ele>
        <time>2021-09-04T10:19:08Z</time>
      </trkpt>
      <trkpt lat="42.627690" lon="0.462810">
        <ele>1879.000000</ele>
        <time>2021-09-04T10:19:09Z</time>
      </trkpt>
      <trkpt lat="42.627688" lon="0.462805">
        <ele>1879.000000</ele>
        <time>2021-09-04T10:19:10Z</time>
      </trkpt>
      <trkpt lat="42.627688" lon="0.462800">
        <ele>1879.000000</ele>
        <time>2021-09-04T10:19:11Z</time>
      </trkpt>
      <trkpt lat="42.627687" lon="0.462797">
        <ele>1879.000000</ele>
        <time>2021-09-04T10:19:12Z</time>
      </trkpt>
      <trkpt lat="42.627686" lon="0.462790">
        <ele>1879.000000</ele>
        <time>2021-09-04T10:19:13Z</time>
      </trkpt>
      <trkpt lat="42.627684" lon="0.462783">
        <ele>1879.000000</ele>
        <time>2021-09-04T10:19:14Z</time>
      </trkpt>
      <trkpt lat="42.627682" lon="0.462768">
        <ele>1879.000000</ele>
        <time>2021-09-04T10:19:15Z</time>
      </trkpt>
      <trkpt lat="42.627683" lon="0.462757">
        <ele>1879.000000</ele>
        <time>2021-09-04T10:19:16Z</time>
      </trkpt>
      <trkpt lat="42.627692" lon="0.462748">
        <ele>1880.000000</ele>
        <time>2021-09-04T10:19:17Z</time>
      </trkpt>
      <trkpt lat="42.627693" lon="0.462738">
        <ele>1880.000000</ele>
        <time>2021-09-04T10:19:18Z</time>
      </trkpt>
      <trkpt lat="42.627697" lon="0.462732">
        <ele>1880.000000</ele>
        <time>2021-09-04T10:19:19Z</time>
      </trkpt>
      <trkpt lat="42.627697" lon="0.462722">
        <ele>1880.000000</ele>
        <time>2021-09-04T10:19:20Z</time>
      </trkpt>
      <trkpt lat="42.627695" lon="0.462717">
        <ele>1880.000000</ele>
        <time>2021-09-04T10:19:21Z</time>
      </trkpt>
      <trkpt lat="42.627695" lon="0.462705">
        <ele>1881.000000</ele>
        <time>2021-09-04T10:19:22Z</time>
      </trkpt>
      <trkpt lat="42.627696" lon="0.462692">
        <ele>1881.000000</ele>
        <time>2021-09-04T10:19:23Z</time>
      </trkpt>
      <trkpt lat="42.627697" lon="0.462685">
        <ele>1881.000000</ele>
        <time>2021-09-04T10:19:24Z</time>
      </trkpt>
      <trkpt lat="42.627699" lon="0.462677">
        <ele>1881.000000</ele>
        <time>2021-09-04T10:19:25Z</time>
      </trkpt>
      <trkpt lat="42.627703" lon="0.462672">
        <ele>1881.000000</ele>
        <time>2021-09-04T10:19:26Z</time>
      </trkpt>
      <trkpt lat="42.627705" lon="0.462672">
        <ele>1881.000000</ele>
        <time>2021-09-04T10:19:27Z</time>
      </trkpt>
      <trkpt lat="42.627708" lon="0.462667">
        <ele>1881.000000</ele>
        <time>2021-09-04T10:19:28Z</time>
      </trkpt>
      <trkpt lat="42.627710" lon="0.462668">
        <ele>1881.000000</ele>
        <time>2021-09-04T10:19:29Z</time>
      </trkpt>
      <trkpt lat="42.627712" lon="0.462670">
        <ele>1881.000000</ele>
        <time>2021-09-04T10:19:30Z</time>
      </trkpt>
      <trkpt lat="42.627716" lon="0.462665">
        <ele>1881.000000</ele>
        <time>2021-09-04T10:19:31Z</time>
      </trkpt>
      <trkpt lat="42.627718" lon="0.462663">
        <ele>1881.000000</ele>
        <time>2021-09-04T10:19:32Z</time>
      </trkpt>
      <trkpt lat="42.627719" lon="0.462665">
        <ele>1881.000000</ele>
        <time>2021-09-04T10:19:33Z</time>
      </trkpt>
      <trkpt lat="42.627724" lon="0.462660">
        <ele>1881.000000</ele>
        <time>2021-09-04T10:19:34Z</time>
      </trkpt>
      <trkpt lat="42.627730" lon="0.462652">
        <ele>1882.000000</ele>
        <time>2021-09-04T10:19:35Z</time>
      </trkpt>
      <trkpt lat="42.627742" lon="0.462643">
        <ele>1882.000000</ele>
        <time>2021-09-04T10:19:36Z</time>
      </trkpt>
      <trkpt lat="42.627740" lon="0.462638">
        <ele>1882.000000</ele>
        <time>2021-09-04T10:19:38Z</time>
      </trkpt>
      <trkpt lat="42.627743" lon="0.462637">
        <ele>1882.000000</ele>
        <time>2021-09-04T10:19:39Z</time>
      </trkpt>
      <trkpt lat="42.627750" lon="0.462633">
        <ele>1882.000000</ele>
        <time>2021-09-04T10:19:40Z</time>
      </trkpt>
      <trkpt lat="42.627755" lon="0.462638">
        <ele>1882.000000</ele>
        <time>2021-09-04T10:19:41Z</time>
      </trkpt>
      <trkpt lat="42.627758" lon="0.462637">
        <ele>1883.000000</ele>
        <time>2021-09-04T10:19:42Z</time>
      </trkpt>
      <trkpt lat="42.627758" lon="0.462635">
        <ele>1883.000000</ele>
        <time>2021-09-04T10:19:43Z</time>
      </trkpt>
      <trkpt lat="42.627762" lon="0.462630">
        <ele>1883.000000</ele>
        <time>2021-09-04T10:19:44Z</time>
      </trkpt>
      <trkpt lat="42.627765" lon="0.462632">
        <ele>1883.000000</ele>
        <time>2021-09-04T10:19:45Z</time>
      </trkpt>
      <trkpt lat="42.627762" lon="0.462633">
        <ele>1884.000000</ele>
        <time>2021-09-04T10:19:46Z</time>
      </trkpt>
      <trkpt lat="42.627763" lon="0.462637">
        <ele>1884.000000</ele>
        <time>2021-09-04T10:19:47Z</time>
      </trkpt>
      <trkpt lat="42.627767" lon="0.462630">
        <ele>1884.000000</ele>
        <time>2021-09-04T10:19:48Z</time>
      </trkpt>
      <trkpt lat="42.627772" lon="0.462624">
        <ele>1884.000000</ele>
        <time>2021-09-04T10:19:49Z</time>
      </trkpt>
      <trkpt lat="42.627775" lon="0.462622">
        <ele>1884.000000</ele>
        <time>2021-09-04T10:19:50Z</time>
      </trkpt>
      <trkpt lat="42.627772" lon="0.462617">
        <ele>1884.000000</ele>
        <time>2021-09-04T10:19:52Z</time>
      </trkpt>
      <trkpt lat="42.627768" lon="0.462607">
        <ele>1884.000000</ele>
        <time>2021-09-04T10:19:53Z</time>
      </trkpt>
      <trkpt lat="42.627768" lon="0.462600">
        <ele>1884.000000</ele>
        <time>2021-09-04T10:19:54Z</time>
      </trkpt>
      <trkpt lat="42.627767" lon="0.462597">
        <ele>1884.000000</ele>
        <time>2021-09-04T10:19:55Z</time>
      </trkpt>
      <trkpt lat="42.627767" lon="0.462592">
        <ele>1884.000000</ele>
        <time>2021-09-04T10:19:56Z</time>
      </trkpt>
      <trkpt lat="42.627768" lon="0.462583">
        <ele>1883.000000</ele>
        <time>2021-09-04T10:19:57Z</time>
      </trkpt>
      <trkpt lat="42.627768" lon="0.462577">
        <ele>1883.000000</ele>
        <time>2021-09-04T10:19:58Z</time>
      </trkpt>
      <trkpt lat="42.627770" lon="0.462575">
        <ele>1883.000000</ele>
        <time>2021-09-04T10:19:59Z</time>
      </trkpt>
      <trkpt lat="42.627774" lon="0.462570">
        <ele>1882.000000</ele>
        <time>2021-09-04T10:20:00Z</time>
      </trkpt>
      <trkpt lat="42.627782" lon="0.462563">
        <ele>1882.000000</ele>
        <time>2021-09-04T10:20:01Z</time>
      </trkpt>
      <trkpt lat="42.627782" lon="0.462558">
        <ele>1882.000000</ele>
        <time>2021-09-04T10:20:02Z</time>
      </trkpt>
      <trkpt lat="42.627782" lon="0.462555">
        <ele>1881.000000</ele>
        <time>2021-09-04T10:20:03Z</time>
      </trkpt>
      <trkpt lat="42.627780" lon="0.462545">
        <ele>1881.000000</ele>
        <time>2021-09-04T10:20:04Z</time>
      </trkpt>
      <trkpt lat="42.627777" lon="0.462542">
        <ele>1881.000000</ele>
        <time>2021-09-04T10:20:05Z</time>
      </trkpt>
      <trkpt lat="42.627775" lon="0.462540">
        <ele>1880.000000</ele>
        <time>2021-09-04T10:20:06Z</time>
      </trkpt>
      <trkpt lat="42.627770" lon="0.462538">
        <ele>1880.000000</ele>
        <time>2021-09-04T10:20:07Z</time>
      </trkpt>
      <trkpt lat="42.627767" lon="0.462535">
        <ele>1880.000000</ele>
        <time>2021-09-04T10:20:08Z</time>
      </trkpt>
      <trkpt lat="42.627758" lon="0.462530">
        <ele>1880.000000</ele>
        <time>2021-09-04T10:20:09Z</time>
      </trkpt>
      <trkpt lat="42.627747" lon="0.462527">
        <ele>1880.000000</ele>
        <time>2021-09-04T10:20:10Z</time>
      </trkpt>
      <trkpt lat="42.627735" lon="0.462515">
        <ele>1880.000000</ele>
        <time>2021-09-04T10:20:11Z</time>
      </trkpt>
      <trkpt lat="42.627732" lon="0.462505">
        <ele>1880.000000</ele>
        <time>2021-09-04T10:20:12Z</time>
      </trkpt>
      <trkpt lat="42.627735" lon="0.462490">
        <ele>1880.000000</ele>
        <time>2021-09-04T10:20:13Z</time>
      </trkpt>
      <trkpt lat="42.627742" lon="0.462483">
        <ele>1880.000000</ele>
        <time>2021-09-04T10:20:14Z</time>
      </trkpt>
      <trkpt lat="42.627745" lon="0.462477">
        <ele>1880.000000</ele>
        <time>2021-09-04T10:20:15Z</time>
      </trkpt>
      <trkpt lat="42.627750" lon="0.462472">
        <ele>1880.000000</ele>
        <time>2021-09-04T10:20:16Z</time>
      </trkpt>
      <trkpt lat="42.627758" lon="0.462463">
        <ele>1880.000000</ele>
        <time>2021-09-04T10:20:17Z</time>
      </trkpt>
      <trkpt lat="42.627762" lon="0.462458">
        <ele>1880.000000</ele>
        <time>2021-09-04T10:20:18Z</time>
      </trkpt>
      <trkpt lat="42.627763" lon="0.462457">
        <ele>1880.000000</ele>
        <time>2021-09-04T10:20:19Z</time>
      </trkpt>
      <trkpt lat="42.627767" lon="0.462455">
        <ele>1880.000000</ele>
        <time>2021-09-04T10:20:20Z</time>
      </trkpt>
      <trkpt lat="42.627767" lon="0.462450">
        <ele>1880.000000</ele>
        <time>2021-09-04T10:20:21Z</time>
      </trkpt>
      <trkpt lat="42.627765" lon="0.462445">
        <ele>1880.000000</ele>
        <time>2021-09-04T10:20:22Z</time>
      </trkpt>
      <trkpt lat="42.627765" lon="0.462447">
        <ele>1880.000000</ele>
        <time>2021-09-04T10:20:23Z</time>
      </trkpt>
      <trkpt lat="42.627765" lon="0.462448">
        <ele>1881.000000</ele>
        <time>2021-09-04T10:20:24Z</time>
      </trkpt>
      <trkpt lat="42.627765" lon="0.462450">
        <ele>1881.000000</ele>
        <time>2021-09-04T10:20:28Z</time>
      </trkpt>
      <trkpt lat="42.627763" lon="0.462448">
        <ele>1881.000000</ele>
        <time>2021-09-04T10:20:29Z</time>
      </trkpt>
      <trkpt lat="42.627758" lon="0.462445">
        <ele>1881.000000</ele>
        <time>2021-09-04T10:20:30Z</time>
      </trkpt>
      <trkpt lat="42.627755" lon="0.462447">
        <ele>1881.000000</ele>
        <time>2021-09-04T10:20:31Z</time>
      </trkpt>
      <trkpt lat="42.627757" lon="0.462447">
        <ele>1881.000000</ele>
        <time>2021-09-04T10:20:32Z</time>
      </trkpt>
      <trkpt lat="42.627755" lon="0.462435">
        <ele>1881.000000</ele>
        <time>2021-09-04T10:20:33Z</time>
      </trkpt>
      <trkpt lat="42.627755" lon="0.462423">
        <ele>1881.000000</ele>
        <time>2021-09-04T10:20:34Z</time>
      </trkpt>
      <trkpt lat="42.627758" lon="0.462413">
        <ele>1881.000000</ele>
        <time>2021-09-04T10:20:35Z</time>
      </trkpt>
      <trkpt lat="42.627760" lon="0.462412">
        <ele>1881.000000</ele>
        <time>2021-09-04T10:20:36Z</time>
      </trkpt>
      <trkpt lat="42.627763" lon="0.462403">
        <ele>1881.000000</ele>
        <time>2021-09-04T10:20:37Z</time>
      </trkpt>
      <trkpt lat="42.627762" lon="0.462402">
        <ele>1881.000000</ele>
        <time>2021-09-04T10:20:38Z</time>
      </trkpt>
      <trkpt lat="42.627763" lon="0.462398">
        <ele>1882.000000</ele>
        <time>2021-09-04T10:20:39Z</time>
      </trkpt>
      <trkpt lat="42.627766" lon="0.462393">
        <ele>1882.000000</ele>
        <time>2021-09-04T10:20:41Z</time>
      </trkpt>
      <trkpt lat="42.627767" lon="0.462387">
        <ele>1883.000000</ele>
        <time>2021-09-04T10:20:42Z</time>
      </trkpt>
      <trkpt lat="42.627768" lon="0.462380">
        <ele>1883.000000</ele>
        <time>2021-09-04T10:20:43Z</time>
      </trkpt>
      <trkpt lat="42.627768" lon="0.462370">
        <ele>1884.000000</ele>
        <time>2021-09-04T10:20:44Z</time>
      </trkpt>
      <trkpt lat="42.627768" lon="0.462362">
        <ele>1884.000000</ele>
        <time>2021-09-04T10:20:45Z</time>
      </trkpt>
      <trkpt lat="42.627763" lon="0.462353">
        <ele>1885.000000</ele>
        <time>2021-09-04T10:20:46Z</time>
      </trkpt>
      <trkpt lat="42.627763" lon="0.462343">
        <ele>1885.000000</ele>
        <time>2021-09-04T10:20:47Z</time>
      </trkpt>
      <trkpt lat="42.627765" lon="0.462340">
        <ele>1886.000000</ele>
        <time>2021-09-04T10:20:48Z</time>
      </trkpt>
      <trkpt lat="42.627767" lon="0.462335">
        <ele>1886.000000</ele>
        <time>2021-09-04T10:20:49Z</time>
      </trkpt>
      <trkpt lat="42.627769" lon="0.462332">
        <ele>1887.000000</ele>
        <time>2021-09-04T10:20:50Z</time>
      </trkpt>
      <trkpt lat="42.627775" lon="0.462322">
        <ele>1887.000000</ele>
        <time>2021-09-04T10:20:51Z</time>
      </trkpt>
      <trkpt lat="42.627777" lon="0.462313">
        <ele>1888.000000</ele>
        <time>2021-09-04T10:20:52Z</time>
      </trkpt>
      <trkpt lat="42.627777" lon="0.462312">
        <ele>1888.000000</ele>
        <time>2021-09-04T10:20:53Z</time>
      </trkpt>
      <trkpt lat="42.627778" lon="0.462307">
        <ele>1889.000000</ele>
        <time>2021-09-04T10:20:54Z</time>
      </trkpt>
      <trkpt lat="42.627778" lon="0.462300">
        <ele>1889.000000</ele>
        <time>2021-09-04T10:20:55Z</time>
      </trkpt>
      <trkpt lat="42.627779" lon="0.462292">
        <ele>1890.000000</ele>
        <time>2021-09-04T10:20:56Z</time>
      </trkpt>
      <trkpt lat="42.627781" lon="0.462283">
        <ele>1890.000000</ele>
        <time>2021-09-04T10:20:57Z</time>
      </trkpt>
      <trkpt lat="42.627783" lon="0.462278">
        <ele>1891.000000</ele>
        <time>2021-09-04T10:20:58Z</time>
      </trkpt>
      <trkpt lat="42.627786" lon="0.462268">
        <ele>1891.000000</ele>
        <time>2021-09-04T10:20:59Z</time>
      </trkpt>
      <trkpt lat="42.627790" lon="0.462260">
        <ele>1891.000000</ele>
        <time>2021-09-04T10:21:00Z</time>
      </trkpt>
      <trkpt lat="42.627792" lon="0.462253">
        <ele>1892.000000</ele>
        <time>2021-09-04T10:21:01Z</time>
      </trkpt>
      <trkpt lat="42.627797" lon="0.462243">
        <ele>1892.000000</ele>
        <time>2021-09-04T10:21:02Z</time>
      </trkpt>
      <trkpt lat="42.627799" lon="0.462238">
        <ele>1893.000000</ele>
        <time>2021-09-04T10:21:03Z</time>
      </trkpt>
      <trkpt lat="42.627801" lon="0.462235">
        <ele>1893.000000</ele>
        <time>2021-09-04T10:21:04Z</time>
      </trkpt>
      <trkpt lat="42.627805" lon="0.462227">
        <ele>1893.000000</ele>
        <time>2021-09-04T10:21:05Z</time>
      </trkpt>
      <trkpt lat="42.627807" lon="0.462223">
        <ele>1894.000000</ele>
        <time>2021-09-04T10:21:06Z</time>
      </trkpt>
      <trkpt lat="42.627822" lon="0.462222">
        <ele>1894.000000</ele>
        <time>2021-09-04T10:21:07Z</time>
      </trkpt>
      <trkpt lat="42.627823" lon="0.462216">
        <ele>1894.000000</ele>
        <time>2021-09-04T10:21:08Z</time>
      </trkpt>
      <trkpt lat="42.627827" lon="0.462217">
        <ele>1894.000000</ele>
        <time>2021-09-04T10:21:09Z</time>
      </trkpt>
      <trkpt lat="42.627832" lon="0.462212">
        <ele>1895.000000</ele>
        <time>2021-09-04T10:21:10Z</time>
      </trkpt>
      <trkpt lat="42.627835" lon="0.462210">
        <ele>1895.000000</ele>
        <time>2021-09-04T10:21:12Z</time>
      </trkpt>
      <trkpt lat="42.627838" lon="0.462207">
        <ele>1895.000000</ele>
        <time>2021-09-04T10:21:12Z</time>
      </trkpt>
      <trkpt lat="42.627840" lon="0.462201">
        <ele>1895.000000</ele>
        <time>2021-09-04T10:21:13Z</time>
      </trkpt>
      <trkpt lat="42.627848" lon="0.462190">
        <ele>1895.000000</ele>
        <time>2021-09-04T10:21:14Z</time>
      </trkpt>
      <trkpt lat="42.627852" lon="0.462185">
        <ele>1895.000000</ele>
        <time>2021-09-04T10:21:15Z</time>
      </trkpt>
      <trkpt lat="42.627855" lon="0.462181">
        <ele>1896.000000</ele>
        <time>2021-09-04T10:21:16Z</time>
      </trkpt>
      <trkpt lat="42.627862" lon="0.462175">
        <ele>1896.000000</ele>
        <time>2021-09-04T10:21:17Z</time>
      </trkpt>
      <trkpt lat="42.627867" lon="0.462172">
        <ele>1896.000000</ele>
        <time>2021-09-04T10:21:18Z</time>
      </trkpt>
      <trkpt lat="42.627875" lon="0.462165">
        <ele>1896.000000</ele>
        <time>2021-09-04T10:21:19Z</time>
      </trkpt>
      <trkpt lat="42.627878" lon="0.462164">
        <ele>1896.000000</ele>
        <time>2021-09-04T10:21:20Z</time>
      </trkpt>
      <trkpt lat="42.627882" lon="0.462162">
        <ele>1897.000000</ele>
        <time>2021-09-04T10:21:21Z</time>
      </trkpt>
      <trkpt lat="42.627888" lon="0.462167">
        <ele>1897.000000</ele>
        <time>2021-09-04T10:21:22Z</time>
      </trkpt>
      <trkpt lat="42.627893" lon="0.462168">
        <ele>1897.000000</ele>
        <time>2021-09-04T10:21:23Z</time>
      </trkpt>
      <trkpt lat="42.627897" lon="0.462166">
        <ele>1897.000000</ele>
        <time>2021-09-04T10:21:24Z</time>
      </trkpt>
      <trkpt lat="42.627905" lon="0.462166">
        <ele>1897.000000</ele>
        <time>2021-09-04T10:21:25Z</time>
      </trkpt>
      <trkpt lat="42.627915" lon="0.462168">
        <ele>1897.000000</ele>
        <time>2021-09-04T10:21:26Z</time>
      </trkpt>
      <trkpt lat="42.627925" lon="0.462162">
        <ele>1897.000000</ele>
        <time>2021-09-04T10:21:27Z</time>
      </trkpt>
      <trkpt lat="42.627933" lon="0.462158">
        <ele>1898.000000</ele>
        <time>2021-09-04T10:21:28Z</time>
      </trkpt>
      <trkpt lat="42.627940" lon="0.462152">
        <ele>1898.000000</ele>
        <time>2021-09-04T10:21:29Z</time>
      </trkpt>
      <trkpt lat="42.627942" lon="0.462150">
        <ele>1898.000000</ele>
        <time>2021-09-04T10:21:30Z</time>
      </trkpt>
      <trkpt lat="42.627945" lon="0.462148">
        <ele>1898.000000</ele>
        <time>2021-09-04T10:21:31Z</time>
      </trkpt>
      <trkpt lat="42.627948" lon="0.462145">
        <ele>1898.000000</ele>
        <time>2021-09-04T10:21:32Z</time>
      </trkpt>
      <trkpt lat="42.627948" lon="0.462142">
        <ele>1898.000000</ele>
        <time>2021-09-04T10:21:33Z</time>
      </trkpt>
      <trkpt lat="42.627947" lon="0.462133">
        <ele>1898.000000</ele>
        <time>2021-09-04T10:21:34Z</time>
      </trkpt>
      <trkpt lat="42.627945" lon="0.462127">
        <ele>1898.000000</ele>
        <time>2021-09-04T10:21:35Z</time>
      </trkpt>
      <trkpt lat="42.627943" lon="0.462122">
        <ele>1898.000000</ele>
        <time>2021-09-04T10:21:36Z</time>
      </trkpt>
      <trkpt lat="42.627945" lon="0.462110">
        <ele>1897.000000</ele>
        <time>2021-09-04T10:21:37Z</time>
      </trkpt>
      <trkpt lat="42.627940" lon="0.462097">
        <ele>1897.000000</ele>
        <time>2021-09-04T10:21:38Z</time>
      </trkpt>
      <trkpt lat="42.627935" lon="0.462085">
        <ele>1897.000000</ele>
        <time>2021-09-04T10:21:39Z</time>
      </trkpt>
      <trkpt lat="42.627930" lon="0.462077">
        <ele>1897.000000</ele>
        <time>2021-09-04T10:21:40Z</time>
      </trkpt>
      <trkpt lat="42.627930" lon="0.462072">
        <ele>1897.000000</ele>
        <time>2021-09-04T10:21:41Z</time>
      </trkpt>
      <trkpt lat="42.627930" lon="0.462067">
        <ele>1897.000000</ele>
        <time>2021-09-04T10:21:42Z</time>
      </trkpt>
      <trkpt lat="42.627933" lon="0.462057">
        <ele>1897.000000</ele>
        <time>2021-09-04T10:21:43Z</time>
      </trkpt>
      <trkpt lat="42.627938" lon="0.462053">
        <ele>1897.000000</ele>
        <time>2021-09-04T10:21:44Z</time>
      </trkpt>
      <trkpt lat="42.627943" lon="0.462048">
        <ele>1897.000000</ele>
        <time>2021-09-04T10:21:45Z</time>
      </trkpt>
      <trkpt lat="42.627950" lon="0.462048">
        <ele>1897.000000</ele>
        <time>2021-09-04T10:21:46Z</time>
      </trkpt>
      <trkpt lat="42.627955" lon="0.462042">
        <ele>1897.000000</ele>
        <time>2021-09-04T10:21:47Z</time>
      </trkpt>
      <trkpt lat="42.627962" lon="0.462033">
        <ele>1898.000000</ele>
        <time>2021-09-04T10:21:48Z</time>
      </trkpt>
      <trkpt lat="42.627967" lon="0.462028">
        <ele>1898.000000</ele>
        <time>2021-09-04T10:21:50Z</time>
      </trkpt>
      <trkpt lat="42.627970" lon="0.462020">
        <ele>1898.000000</ele>
        <time>2021-09-04T10:21:51Z</time>
      </trkpt>
      <trkpt lat="42.627970" lon="0.462015">
        <ele>1898.000000</ele>
        <time>2021-09-04T10:21:52Z</time>
      </trkpt>
      <trkpt lat="42.627972" lon="0.462003">
        <ele>1898.000000</ele>
        <time>2021-09-04T10:21:53Z</time>
      </trkpt>
      <trkpt lat="42.627975" lon="0.461998">
        <ele>1898.000000</ele>
        <time>2021-09-04T10:21:54Z</time>
      </trkpt>
      <trkpt lat="42.627978" lon="0.461993">
        <ele>1899.000000</ele>
        <time>2021-09-04T10:21:55Z</time>
      </trkpt>
      <trkpt lat="42.627980" lon="0.461990">
        <ele>1899.000000</ele>
        <time>2021-09-04T10:21:56Z</time>
      </trkpt>
      <trkpt lat="42.627980" lon="0.461988">
        <ele>1899.000000</ele>
        <time>2021-09-04T10:21:57Z</time>
      </trkpt>
      <trkpt lat="42.627980" lon="0.461983">
        <ele>1899.000000</ele>
        <time>2021-09-04T10:21:58Z</time>
      </trkpt>
      <trkpt lat="42.627983" lon="0.461980">
        <ele>1899.000000</ele>
        <time>2021-09-04T10:21:59Z</time>
      </trkpt>
      <trkpt lat="42.627978" lon="0.461982">
        <ele>1899.000000</ele>
        <time>2021-09-04T10:22:00Z</time>
      </trkpt>
      <trkpt lat="42.627977" lon="0.461978">
        <ele>1900.000000</ele>
        <time>2021-09-04T10:22:01Z</time>
      </trkpt>
      <trkpt lat="42.627974" lon="0.461975">
        <ele>1900.000000</ele>
        <time>2021-09-04T10:22:03Z</time>
      </trkpt>
      <trkpt lat="42.627974" lon="0.461968">
        <ele>1900.000000</ele>
        <time>2021-09-04T10:22:04Z</time>
      </trkpt>
      <trkpt lat="42.627974" lon="0.461963">
        <ele>1900.000000</ele>
        <time>2021-09-04T10:22:05Z</time>
      </trkpt>
      <trkpt lat="42.627973" lon="0.461960">
        <ele>1901.000000</ele>
        <time>2021-09-04T10:22:06Z</time>
      </trkpt>
      <trkpt lat="42.627974" lon="0.461957">
        <ele>1901.000000</ele>
        <time>2021-09-04T10:22:07Z</time>
      </trkpt>
      <trkpt lat="42.627975" lon="0.461955">
        <ele>1902.000000</ele>
        <time>2021-09-04T10:22:08Z</time>
      </trkpt>
      <trkpt lat="42.627976" lon="0.461957">
        <ele>1902.000000</ele>
        <time>2021-09-04T10:22:09Z</time>
      </trkpt>
      <trkpt lat="42.627976" lon="0.461955">
        <ele>1903.000000</ele>
        <time>2021-09-04T10:22:10Z</time>
      </trkpt>
      <trkpt lat="42.627976" lon="0.461960">
        <ele>1903.000000</ele>
        <time>2021-09-04T10:22:11Z</time>
      </trkpt>
      <trkpt lat="42.628038" lon="0.461913">
        <ele>1909.000000</ele>
        <time>2021-09-04T10:22:29Z</time>
      </trkpt>
      <trkpt lat="42.628045" lon="0.461910">
        <ele>1909.000000</ele>
        <time>2021-09-04T10:22:30Z</time>
      </trkpt>
      <trkpt lat="42.628048" lon="0.461908">
        <ele>1909.000000</ele>
        <time>2021-09-04T10:22:31Z</time>
      </trkpt>
      <trkpt lat="42.628047" lon="0.461904">
        <ele>1909.000000</ele>
        <time>2021-09-04T10:22:32Z</time>
      </trkpt>
      <trkpt lat="42.628045" lon="0.461895">
        <ele>1909.000000</ele>
        <time>2021-09-04T10:22:33Z</time>
      </trkpt>
      <trkpt lat="42.628043" lon="0.461893">
        <ele>1908.000000</ele>
        <time>2021-09-04T10:22:34Z</time>
      </trkpt>
      <trkpt lat="42.628042" lon="0.461892">
        <ele>1908.000000</ele>
        <time>2021-09-04T10:22:36Z</time>
      </trkpt>
      <trkpt lat="42.628042" lon="0.461880">
        <ele>1907.000000</ele>
        <time>2021-09-04T10:22:37Z</time>
      </trkpt>
      <trkpt lat="42.628040" lon="0.461873">
        <ele>1907.000000</ele>
        <time>2021-09-04T10:22:38Z</time>
      </trkpt>
      <trkpt lat="42.628041" lon="0.461872">
        <ele>1907.000000</ele>
        <time>2021-09-04T10:22:39Z</time>
      </trkpt>
      <trkpt lat="42.628040" lon="0.461870">
        <ele>1906.000000</ele>
        <time>2021-09-04T10:22:41Z</time>
      </trkpt>
      <trkpt lat="42.628039" lon="0.461867">
        <ele>1906.000000</ele>
        <time>2021-09-04T10:22:42Z</time>
      </trkpt>
      <trkpt lat="42.628039" lon="0.461863">
        <ele>1906.000000</ele>
        <time>2021-09-04T10:22:43Z</time>
      </trkpt>
      <trkpt lat="42.628039" lon="0.461860">
        <ele>1905.000000</ele>
        <time>2021-09-04T10:22:44Z</time>
      </trkpt>
      <trkpt lat="42.628038" lon="0.461857">
        <ele>1905.000000</ele>
        <time>2021-09-04T10:22:45Z</time>
      </trkpt>
      <trkpt lat="42.628037" lon="0.461852">
        <ele>1905.000000</ele>
        <time>2021-09-04T10:22:46Z</time>
      </trkpt>
      <trkpt lat="42.628035" lon="0.461853">
        <ele>1904.000000</ele>
        <time>2021-09-04T10:22:47Z</time>
      </trkpt>
      <trkpt lat="42.628032" lon="0.461848">
        <ele>1904.000000</ele>
        <time>2021-09-04T10:22:48Z</time>
      </trkpt>
      <trkpt lat="42.628027" lon="0.461845">
        <ele>1904.000000</ele>
        <time>2021-09-04T10:22:49Z</time>
      </trkpt>
      <trkpt lat="42.628023" lon="0.461837">
        <ele>1904.000000</ele>
        <time>2021-09-04T10:22:50Z</time>
      </trkpt>
      <trkpt lat="42.628026" lon="0.461833">
        <ele>1904.000000</ele>
        <time>2021-09-04T10:22:51Z</time>
      </trkpt>
      <trkpt lat="42.628032" lon="0.461828">
        <ele>1904.000000</ele>
        <time>2021-09-04T10:22:52Z</time>
      </trkpt>
      <trkpt lat="42.628042" lon="0.461825">
        <ele>1904.000000</ele>
        <time>2021-09-04T10:22:53Z</time>
      </trkpt>
      <trkpt lat="42.628050" lon="0.461820">
        <ele>1904.000000</ele>
        <time>2021-09-04T10:22:54Z</time>
      </trkpt>
      <trkpt lat="42.628057" lon="0.461815">
        <ele>1904.000000</ele>
        <time>2021-09-04T10:22:55Z</time>
      </trkpt>
      <trkpt lat="42.628062" lon="0.461812">
        <ele>1904.000000</ele>
        <time>2021-09-04T10:22:56Z</time>
      </trkpt>
      <trkpt lat="42.628058" lon="0.461805">
        <ele>1904.000000</ele>
        <time>2021-09-04T10:22:59Z</time>
      </trkpt>
      <trkpt lat="42.628055" lon="0.461797">
        <ele>1904.000000</ele>
        <time>2021-09-04T10:23:00Z</time>
      </trkpt>
      <trkpt lat="42.628052" lon="0.461792">
        <ele>1905.000000</ele>
        <time>2021-09-04T10:23:01Z</time>
      </trkpt>
      <trkpt lat="42.628048" lon="0.461785">
        <ele>1905.000000</ele>
        <time>2021-09-04T10:23:02Z</time>
      </trkpt>
      <trkpt lat="42.628045" lon="0.461778">
        <ele>1905.000000</ele>
        <time>2021-09-04T10:23:03Z</time>
      </trkpt>
      <trkpt lat="42.628042" lon="0.461772">
        <ele>1905.000000</ele>
        <time>2021-09-04T10:23:04Z</time>
      </trkpt>
      <trkpt lat="42.628037" lon="0.461765">
        <ele>1905.000000</ele>
        <time>2021-09-04T10:23:05Z</time>
      </trkpt>
      <trkpt lat="42.628033" lon="0.461758">
        <ele>1905.000000</ele>
        <time>2021-09-04T10:23:06Z</time>
      </trkpt>
      <trkpt lat="42.628032" lon="0.461755">
        <ele>1905.000000</ele>
        <time>2021-09-04T10:23:07Z</time>
      </trkpt>
      <trkpt lat="42.628030" lon="0.461748">
        <ele>1905.000000</ele>
        <time>2021-09-04T10:23:08Z</time>
      </trkpt>
      <trkpt lat="42.628030" lon="0.461745">
        <ele>1905.000000</ele>
        <time>2021-09-04T10:23:09Z</time>
      </trkpt>
      <trkpt lat="42.628027" lon="0.461740">
        <ele>1905.000000</ele>
        <time>2021-09-04T10:23:10Z</time>
      </trkpt>
      <trkpt lat="42.628023" lon="0.461733">
        <ele>1905.000000</ele>
        <time>2021-09-04T10:23:11Z</time>
      </trkpt>
      <trkpt lat="42.628025" lon="0.461737">
        <ele>1906.000000</ele>
        <time>2021-09-04T10:23:12Z</time>
      </trkpt>
      <trkpt lat="42.628026" lon="0.461740">
        <ele>1906.000000</ele>
        <time>2021-09-04T10:23:13Z</time>
      </trkpt>
      <trkpt lat="42.628026" lon="0.461742">
        <ele>1907.000000</ele>
        <time>2021-09-04T10:23:14Z</time>
      </trkpt>
      <trkpt lat="42.628025" lon="0.461740">
        <ele>1907.000000</ele>
        <time>2021-09-04T10:23:15Z</time>
      </trkpt>
      <trkpt lat="42.628017" lon="0.461738">
        <ele>1907.000000</ele>
        <time>2021-09-04T10:23:16Z</time>
      </trkpt>
      <trkpt lat="42.628010" lon="0.461732">
        <ele>1908.000000</ele>
        <time>2021-09-04T10:23:17Z</time>
      </trkpt>
      <trkpt lat="42.628005" lon="0.461726">
        <ele>1908.000000</ele>
        <time>2021-09-04T10:23:18Z</time>
      </trkpt>
      <trkpt lat="42.628000" lon="0.461721">
        <ele>1908.000000</ele>
        <time>2021-09-04T10:23:19Z</time>
      </trkpt>
      <trkpt lat="42.627995" lon="0.461716">
        <ele>1909.000000</ele>
        <time>2021-09-04T10:23:20Z</time>
      </trkpt>
      <trkpt lat="42.627987" lon="0.461709">
        <ele>1909.000000</ele>
        <time>2021-09-04T10:23:21Z</time>
      </trkpt>
      <trkpt lat="42.627983" lon="0.461704">
        <ele>1909.000000</ele>
        <time>2021-09-04T10:23:22Z</time>
      </trkpt>
      <trkpt lat="42.627983" lon="0.461695">
        <ele>1909.000000</ele>
        <time>2021-09-04T10:23:23Z</time>
      </trkpt>
      <trkpt lat="42.627987" lon="0.461692">
        <ele>1910.000000</ele>
        <time>2021-09-04T10:23:24Z</time>
      </trkpt>
      <trkpt lat="42.627985" lon="0.461688">
        <ele>1911.000000</ele>
        <time>2021-09-04T10:23:26Z</time>
      </trkpt>
      <trkpt lat="42.627982" lon="0.461682">
        <ele>1912.000000</ele>
        <time>2021-09-04T10:23:28Z</time>
      </trkpt>
      <trkpt lat="42.627981" lon="0.461678">
        <ele>1912.000000</ele>
        <time>2021-09-04T10:23:29Z</time>
      </trkpt>
      <trkpt lat="42.627985" lon="0.461672">
        <ele>1913.000000</ele>
        <time>2021-09-04T10:23:30Z</time>
      </trkpt>
      <trkpt lat="42.627993" lon="0.461672">
        <ele>1913.000000</ele>
        <time>2021-09-04T10:23:31Z</time>
      </trkpt>
      <trkpt lat="42.627997" lon="0.461672">
        <ele>1913.000000</ele>
        <time>2021-09-04T10:23:32Z</time>
      </trkpt>
      <trkpt lat="42.628002" lon="0.461668">
        <ele>1914.000000</ele>
        <time>2021-09-04T10:23:33Z</time>
      </trkpt>
      <trkpt lat="42.628005" lon="0.461663">
        <ele>1914.000000</ele>
        <time>2021-09-04T10:23:34Z</time>
      </trkpt>
      <trkpt lat="42.628008" lon="0.461655">
        <ele>1914.000000</ele>
        <time>2021-09-04T10:23:35Z</time>
      </trkpt>
      <trkpt lat="42.628008" lon="0.461653">
        <ele>1915.000000</ele>
        <time>2021-09-04T10:23:36Z</time>
      </trkpt>
      <trkpt lat="42.628013" lon="0.461645">
        <ele>1915.000000</ele>
        <time>2021-09-04T10:23:37Z</time>
      </trkpt>
      <trkpt lat="42.628013" lon="0.461638">
        <ele>1915.000000</ele>
        <time>2021-09-04T10:23:38Z</time>
      </trkpt>
      <trkpt lat="42.628012" lon="0.461637">
        <ele>1915.000000</ele>
        <time>2021-09-04T10:23:39Z</time>
      </trkpt>
      <trkpt lat="42.628008" lon="0.461630">
        <ele>1915.000000</ele>
        <time>2021-09-04T10:23:40Z</time>
      </trkpt>
      <trkpt lat="42.628002" lon="0.461623">
        <ele>1915.000000</ele>
        <time>2021-09-04T10:23:41Z</time>
      </trkpt>
      <trkpt lat="42.628000" lon="0.461622">
        <ele>1915.000000</ele>
        <time>2021-09-04T10:23:42Z</time>
      </trkpt>
      <trkpt lat="42.628000" lon="0.461615">
        <ele>1915.000000</ele>
        <time>2021-09-04T10:23:43Z</time>
      </trkpt>
      <trkpt lat="42.627995" lon="0.461610">
        <ele>1915.000000</ele>
        <time>2021-09-04T10:23:44Z</time>
      </trkpt>
      <trkpt lat="42.627987" lon="0.461608">
        <ele>1915.000000</ele>
        <time>2021-09-04T10:23:45Z</time>
      </trkpt>
      <trkpt lat="42.627983" lon="0.461608">
        <ele>1915.000000</ele>
        <time>2021-09-04T10:23:46Z</time>
      </trkpt>
      <trkpt lat="42.627980" lon="0.461608">
        <ele>1915.000000</ele>
        <time>2021-09-04T10:23:47Z</time>
      </trkpt>
      <trkpt lat="42.627987" lon="0.461608">
        <ele>1916.000000</ele>
        <time>2021-09-04T10:23:50Z</time>
      </trkpt>
      <trkpt lat="42.627848" lon="0.461582">
        <ele>1922.000000</ele>
        <time>2021-09-04T10:24:31Z</time>
      </trkpt>
      <trkpt lat="42.627848" lon="0.461585">
        <ele>1922.000000</ele>
        <time>2021-09-04T10:24:32Z</time>
      </trkpt>
      <trkpt lat="42.627847" lon="0.461593">
        <ele>1923.000000</ele>
        <time>2021-09-04T10:24:33Z</time>
      </trkpt>
      <trkpt lat="42.627842" lon="0.461605">
        <ele>1923.000000</ele>
        <time>2021-09-04T10:24:35Z</time>
      </trkpt>
      <trkpt lat="42.627835" lon="0.461613">
        <ele>1923.000000</ele>
        <time>2021-09-04T10:24:35Z</time>
      </trkpt>
      <trkpt lat="42.627825" lon="0.461623">
        <ele>1923.000000</ele>
        <time>2021-09-04T10:24:36Z</time>
      </trkpt>
      <trkpt lat="42.627812" lon="0.461627">
        <ele>1924.000000</ele>
        <time>2021-09-04T10:24:37Z</time>
      </trkpt>
      <trkpt lat="42.627802" lon="0.461625">
        <ele>1924.000000</ele>
        <time>2021-09-04T10:24:38Z</time>
      </trkpt>
      <trkpt lat="42.627797" lon="0.461623">
        <ele>1924.000000</ele>
        <time>2021-09-04T10:24:39Z</time>
      </trkpt>
      <trkpt lat="42.627792" lon="0.461627">
        <ele>1924.000000</ele>
        <time>2021-09-04T10:24:40Z</time>
      </trkpt>
      <trkpt lat="42.627780" lon="0.461630">
        <ele>1924.000000</ele>
        <time>2021-09-04T10:24:41Z</time>
      </trkpt>
      <trkpt lat="42.627768" lon="0.461630">
        <ele>1924.000000</ele>
        <time>2021-09-04T10:24:42Z</time>
      </trkpt>
      <trkpt lat="42.627755" lon="0.461623">
        <ele>1924.000000</ele>
        <time>2021-09-04T10:24:43Z</time>
      </trkpt>
      <trkpt lat="42.627745" lon="0.461613">
        <ele>1924.000000</ele>
        <time>2021-09-04T10:24:44Z</time>
      </trkpt>
      <trkpt lat="42.627737" lon="0.461608">
        <ele>1924.000000</ele>
        <time>2021-09-04T10:24:45Z</time>
      </trkpt>
      <trkpt lat="42.627732" lon="0.461600">
        <ele>1924.000000</ele>
        <time>2021-09-04T10:24:46Z</time>
      </trkpt>
      <trkpt lat="42.627727" lon="0.461585">
        <ele>1924.000000</ele>
        <time>2021-09-04T10:24:47Z</time>
      </trkpt>
      <trkpt lat="42.627720" lon="0.461573">
        <ele>1924.000000</ele>
        <time>2021-09-04T10:24:48Z</time>
      </trkpt>
      <trkpt lat="42.627713" lon="0.461562">
        <ele>1923.000000</ele>
        <time>2021-09-04T10:24:49Z</time>
      </trkpt>
      <trkpt lat="42.627708" lon="0.461557">
        <ele>1923.000000</ele>
        <time>2021-09-04T10:24:50Z</time>
      </trkpt>
      <trkpt lat="42.627710" lon="0.461555">
        <ele>1923.000000</ele>
        <time>2021-09-04T10:24:51Z</time>
      </trkpt>
      <trkpt lat="42.627708" lon="0.461557">
        <ele>1923.000000</ele>
        <time>2021-09-04T10:24:52Z</time>
      </trkpt>
      <trkpt lat="42.627702" lon="0.461552">
        <ele>1923.000000</ele>
        <time>2021-09-04T10:24:53Z</time>
      </trkpt>
      <trkpt lat="42.627698" lon="0.461550">
        <ele>1923.000000</ele>
        <time>2021-09-04T10:24:54Z</time>
      </trkpt>
      <trkpt lat="42.627693" lon="0.461549">
        <ele>1923.000000</ele>
        <time>2021-09-04T10:24:55Z</time>
      </trkpt>
      <trkpt lat="42.627688" lon="0.461547">
        <ele>1923.000000</ele>
        <time>2021-09-04T10:24:56Z</time>
      </trkpt>
      <trkpt lat="42.627683" lon="0.461538">
        <ele>1923.000000</ele>
        <time>2021-09-04T10:24:57Z</time>
      </trkpt>
      <trkpt lat="42.627675" lon="0.461527">
        <ele>1923.000000</ele>
        <time>2021-09-04T10:24:58Z</time>
      </trkpt>
      <trkpt lat="42.627667" lon="0.461521">
        <ele>1924.000000</ele>
        <time>2021-09-04T10:24:59Z</time>
      </trkpt>
      <trkpt lat="42.627663" lon="0.461519">
        <ele>1924.000000</ele>
        <time>2021-09-04T10:25:00Z</time>
      </trkpt>
      <trkpt lat="42.627660" lon="0.461518">
        <ele>1925.000000</ele>
        <time>2021-09-04T10:25:01Z</time>
      </trkpt>
      <trkpt lat="42.627655" lon="0.461517">
        <ele>1925.000000</ele>
        <time>2021-09-04T10:25:02Z</time>
      </trkpt>
      <trkpt lat="42.627648" lon="0.461535">
        <ele>1926.000000</ele>
        <time>2021-09-04T10:25:03Z</time>
      </trkpt>
      <trkpt lat="42.627643" lon="0.461543">
        <ele>1926.000000</ele>
        <time>2021-09-04T10:25:04Z</time>
      </trkpt>
      <trkpt lat="42.627633" lon="0.461550">
        <ele>1928.000000</ele>
        <time>2021-09-04T10:25:05Z</time>
      </trkpt>
      <trkpt lat="42.627623" lon="0.461555">
        <ele>1928.000000</ele>
        <time>2021-09-04T10:25:06Z</time>
      </trkpt>
      <trkpt lat="42.627615" lon="0.461558">
        <ele>1928.000000</ele>
        <time>2021-09-04T10:25:07Z</time>
      </trkpt>
      <trkpt lat="42.627605" lon="0.461560">
        <ele>1928.000000</ele>
        <time>2021-09-04T10:25:08Z</time>
      </trkpt>
      <trkpt lat="42.627597" lon="0.461558">
        <ele>1928.000000</ele>
        <time>2021-09-04T10:25:09Z</time>
      </trkpt>
      <trkpt lat="42.627592" lon="0.461556">
        <ele>1928.000000</ele>
        <time>2021-09-04T10:25:10Z</time>
      </trkpt>
      <trkpt lat="42.627587" lon="0.461553">
        <ele>1928.000000</ele>
        <time>2021-09-04T10:25:11Z</time>
      </trkpt>
      <trkpt lat="42.627582" lon="0.461552">
        <ele>1928.000000</ele>
        <time>2021-09-04T10:25:12Z</time>
      </trkpt>
      <trkpt lat="42.627577" lon="0.461547">
        <ele>1928.000000</ele>
        <time>2021-09-04T10:25:13Z</time>
      </trkpt>
      <trkpt lat="42.627572" lon="0.461542">
        <ele>1928.000000</ele>
        <time>2021-09-04T10:25:14Z</time>
      </trkpt>
      <trkpt lat="42.627570" lon="0.461537">
        <ele>1928.000000</ele>
        <time>2021-09-04T10:25:15Z</time>
      </trkpt>
      <trkpt lat="42.627567" lon="0.461535">
        <ele>1928.000000</ele>
        <time>2021-09-04T10:25:16Z</time>
      </trkpt>
      <trkpt lat="42.627563" lon="0.461528">
        <ele>1928.000000</ele>
        <time>2021-09-04T10:25:17Z</time>
      </trkpt>
      <trkpt lat="42.627558" lon="0.461515">
        <ele>1928.000000</ele>
        <time>2021-09-04T10:25:18Z</time>
      </trkpt>
      <trkpt lat="42.627558" lon="0.461505">
        <ele>1928.000000</ele>
        <time>2021-09-04T10:25:19Z</time>
      </trkpt>
      <trkpt lat="42.627562" lon="0.461495">
        <ele>1928.000000</ele>
        <time>2021-09-04T10:25:20Z</time>
      </trkpt>
      <trkpt lat="42.627565" lon="0.461482">
        <ele>1928.000000</ele>
        <time>2021-09-04T10:25:21Z</time>
      </trkpt>
      <trkpt lat="42.627570" lon="0.461472">
        <ele>1928.000000</ele>
        <time>2021-09-04T10:25:22Z</time>
      </trkpt>
      <trkpt lat="42.627577" lon="0.461467">
        <ele>1928.000000</ele>
        <time>2021-09-04T10:25:23Z</time>
      </trkpt>
      <trkpt lat="42.627585" lon="0.461460">
        <ele>1929.000000</ele>
        <time>2021-09-04T10:25:24Z</time>
      </trkpt>
      <trkpt lat="42.627590" lon="0.461450">
        <ele>1929.000000</ele>
        <time>2021-09-04T10:25:25Z</time>
      </trkpt>
      <trkpt lat="42.627590" lon="0.461442">
        <ele>1930.000000</ele>
        <time>2021-09-04T10:25:26Z</time>
      </trkpt>
      <trkpt lat="42.627595" lon="0.461440">
        <ele>1930.000000</ele>
        <time>2021-09-04T10:25:27Z</time>
      </trkpt>
      <trkpt lat="42.627598" lon="0.461437">
        <ele>1931.000000</ele>
        <time>2021-09-04T10:25:28Z</time>
      </trkpt>
      <trkpt lat="42.627605" lon="0.461425">
        <ele>1931.000000</ele>
        <time>2021-09-04T10:25:29Z</time>
      </trkpt>
      <trkpt lat="42.627612" lon="0.461416">
        <ele>1932.000000</ele>
        <time>2021-09-04T10:25:30Z</time>
      </trkpt>
      <trkpt lat="42.627622" lon="0.461404">
        <ele>1932.000000</ele>
        <time>2021-09-04T10:25:31Z</time>
      </trkpt>
      <trkpt lat="42.627628" lon="0.461398">
        <ele>1934.000000</ele>
        <time>2021-09-04T10:25:32Z</time>
      </trkpt>
      <trkpt lat="42.627630" lon="0.461394">
        <ele>1934.000000</ele>
        <time>2021-09-04T10:25:33Z</time>
      </trkpt>
      <trkpt lat="42.627630" lon="0.461391">
        <ele>1935.000000</ele>
        <time>2021-09-04T10:25:34Z</time>
      </trkpt>
      <trkpt lat="42.627628" lon="0.461390">
        <ele>1935.000000</ele>
        <time>2021-09-04T10:25:35Z</time>
      </trkpt>
      <trkpt lat="42.627630" lon="0.461378">
        <ele>1936.000000</ele>
        <time>2021-09-04T10:25:36Z</time>
      </trkpt>
      <trkpt lat="42.627632" lon="0.461380">
        <ele>1936.000000</ele>
        <time>2021-09-04T10:25:37Z</time>
      </trkpt>
      <trkpt lat="42.627632" lon="0.461375">
        <ele>1937.000000</ele>
        <time>2021-09-04T10:25:38Z</time>
      </trkpt>
      <trkpt lat="42.627635" lon="0.461373">
        <ele>1937.000000</ele>
        <time>2021-09-04T10:25:39Z</time>
      </trkpt>
      <trkpt lat="42.627635" lon="0.461372">
        <ele>1938.000000</ele>
        <time>2021-09-04T10:25:40Z</time>
      </trkpt>
      <trkpt lat="42.627635" lon="0.461363">
        <ele>1939.000000</ele>
        <time>2021-09-04T10:25:42Z</time>
      </trkpt>
      <trkpt lat="42.627637" lon="0.461352">
        <ele>1939.000000</ele>
        <time>2021-09-04T10:25:43Z</time>
      </trkpt>
      <trkpt lat="42.627640" lon="0.461353">
        <ele>1940.000000</ele>
        <time>2021-09-04T10:25:44Z</time>
      </trkpt>
      <trkpt lat="42.627645" lon="0.461358">
        <ele>1940.000000</ele>
        <time>2021-09-04T10:25:45Z</time>
      </trkpt>
      <trkpt lat="42.627648" lon="0.461362">
        <ele>1940.000000</ele>
        <time>2021-09-04T10:25:46Z</time>
      </trkpt>
      <trkpt lat="42.627653" lon="0.461356">
        <ele>1941.000000</ele>
        <time>2021-09-04T10:25:47Z</time>
      </trkpt>
      <trkpt lat="42.627648" lon="0.461355">
        <ele>1941.000000</ele>
        <time>2021-09-04T10:25:48Z</time>
      </trkpt>
      <trkpt lat="42.627647" lon="0.461342">
        <ele>1942.000000</ele>
        <time>2021-09-04T10:25:49Z</time>
      </trkpt>
      <trkpt lat="42.627648" lon="0.461337">
        <ele>1942.000000</ele>
        <time>2021-09-04T10:25:50Z</time>
      </trkpt>
      <trkpt lat="42.627651" lon="0.461337">
        <ele>1943.000000</ele>
        <time>2021-09-04T10:25:52Z</time>
      </trkpt>
      <trkpt lat="42.627647" lon="0.461348">
        <ele>1943.000000</ele>
        <time>2021-09-04T10:25:53Z</time>
      </trkpt>
      <trkpt lat="42.627645" lon="0.461292">
        <ele>1945.000000</ele>
        <time>2021-09-04T10:26:07Z</time>
      </trkpt>
      <trkpt lat="42.627638" lon="0.461293">
        <ele>1945.000000</ele>
        <time>2021-09-04T10:26:08Z</time>
      </trkpt>
      <trkpt lat="42.627633" lon="0.461285">
        <ele>1945.000000</ele>
        <time>2021-09-04T10:26:09Z</time>
      </trkpt>
      <trkpt lat="42.627627" lon="0.461276">
        <ele>1945.000000</ele>
        <time>2021-09-04T10:26:10Z</time>
      </trkpt>
      <trkpt lat="42.627622" lon="0.461267">
        <ele>1946.000000</ele>
        <time>2021-09-04T10:26:11Z</time>
      </trkpt>
      <trkpt lat="42.627618" lon="0.461258">
        <ele>1946.000000</ele>
        <time>2021-09-04T10:26:12Z</time>
      </trkpt>
      <trkpt lat="42.627613" lon="0.461255">
        <ele>1946.000000</ele>
        <time>2021-09-04T10:26:13Z</time>
      </trkpt>
      <trkpt lat="42.627610" lon="0.461251">
        <ele>1946.000000</ele>
        <time>2021-09-04T10:26:14Z</time>
      </trkpt>
      <trkpt lat="42.627605" lon="0.461248">
        <ele>1947.000000</ele>
        <time>2021-09-04T10:26:15Z</time>
      </trkpt>
      <trkpt lat="42.627605" lon="0.461243">
        <ele>1947.000000</ele>
        <time>2021-09-04T10:26:16Z</time>
      </trkpt>
      <trkpt lat="42.627607" lon="0.461242">
        <ele>1947.000000</ele>
        <time>2021-09-04T10:26:17Z</time>
      </trkpt>
      <trkpt lat="42.627605" lon="0.461248">
        <ele>1947.000000</ele>
        <time>2021-09-04T10:26:18Z</time>
      </trkpt>
      <trkpt lat="42.627607" lon="0.461247">
        <ele>1948.000000</ele>
        <time>2021-09-04T10:26:20Z</time>
      </trkpt>
      <trkpt lat="42.627608" lon="0.461240">
        <ele>1948.000000</ele>
        <time>2021-09-04T10:26:21Z</time>
      </trkpt>
      <trkpt lat="42.627609" lon="0.461235">
        <ele>1948.000000</ele>
        <time>2021-09-04T10:26:22Z</time>
      </trkpt>
      <trkpt lat="42.627613" lon="0.461233">
        <ele>1948.000000</ele>
        <time>2021-09-04T10:26:24Z</time>
      </trkpt>
      <trkpt lat="42.627615" lon="0.461237">
        <ele>1948.000000</ele>
        <time>2021-09-04T10:26:24Z</time>
      </trkpt>
      <trkpt lat="42.627622" lon="0.461235">
        <ele>1949.000000</ele>
        <time>2021-09-04T10:26:25Z</time>
      </trkpt>
      <trkpt lat="42.627623" lon="0.461233">
        <ele>1949.000000</ele>
        <time>2021-09-04T10:26:26Z</time>
      </trkpt>
      <trkpt lat="42.627626" lon="0.461233">
        <ele>1949.000000</ele>
        <time>2021-09-04T10:26:27Z</time>
      </trkpt>
      <trkpt lat="42.627630" lon="0.461230">
        <ele>1949.000000</ele>
        <time>2021-09-04T10:26:28Z</time>
      </trkpt>
      <trkpt lat="42.627629" lon="0.461218">
        <ele>1949.000000</ele>
        <time>2021-09-04T10:26:29Z</time>
      </trkpt>
      <trkpt lat="42.627628" lon="0.461207">
        <ele>1950.000000</ele>
        <time>2021-09-04T10:26:30Z</time>
      </trkpt>
      <trkpt lat="42.627627" lon="0.461198">
        <ele>1950.000000</ele>
        <time>2021-09-04T10:26:31Z</time>
      </trkpt>
      <trkpt lat="42.627625" lon="0.461190">
        <ele>1950.000000</ele>
        <time>2021-09-04T10:26:32Z</time>
      </trkpt>
      <trkpt lat="42.627622" lon="0.461182">
        <ele>1950.000000</ele>
        <time>2021-09-04T10:26:32Z</time>
      </trkpt>
      <trkpt lat="42.627620" lon="0.461180">
        <ele>1950.000000</ele>
        <time>2021-09-04T10:26:33Z</time>
      </trkpt>
      <trkpt lat="42.627620" lon="0.461177">
        <ele>1951.000000</ele>
        <time>2021-09-04T10:26:35Z</time>
      </trkpt>
      <trkpt lat="42.627622" lon="0.461175">
        <ele>1951.000000</ele>
        <time>2021-09-04T10:26:37Z</time>
      </trkpt>
      <trkpt lat="42.627623" lon="0.461163">
        <ele>1951.000000</ele>
        <time>2021-09-04T10:26:38Z</time>
      </trkpt>
      <trkpt lat="42.627627" lon="0.461150">
        <ele>1952.000000</ele>
        <time>2021-09-04T10:26:39Z</time>
      </trkpt>
      <trkpt lat="42.627632" lon="0.461140">
        <ele>1952.000000</ele>
        <time>2021-09-04T10:26:40Z</time>
      </trkpt>
      <trkpt lat="42.627635" lon="0.461130">
        <ele>1952.000000</ele>
        <time>2021-09-04T10:26:41Z</time>
      </trkpt>
      <trkpt lat="42.627640" lon="0.461117">
        <ele>1952.000000</ele>
        <time>2021-09-04T10:26:42Z</time>
      </trkpt>
      <trkpt lat="42.627640" lon="0.461105">
        <ele>1952.000000</ele>
        <time>2021-09-04T10:26:43Z</time>
      </trkpt>
      <trkpt lat="42.627640" lon="0.461097">
        <ele>1952.000000</ele>
        <time>2021-09-04T10:26:44Z</time>
      </trkpt>
      <trkpt lat="42.627638" lon="0.461092">
        <ele>1952.000000</ele>
        <time>2021-09-04T10:26:45Z</time>
      </trkpt>
      <trkpt lat="42.627630" lon="0.461092">
        <ele>1952.000000</ele>
        <time>2021-09-04T10:26:46Z</time>
      </trkpt>
      <trkpt lat="42.627625" lon="0.461092">
        <ele>1952.000000</ele>
        <time>2021-09-04T10:26:47Z</time>
      </trkpt>
      <trkpt lat="42.627618" lon="0.461093">
        <ele>1952.000000</ele>
        <time>2021-09-04T10:26:48Z</time>
      </trkpt>
      <trkpt lat="42.627613" lon="0.461093">
        <ele>1952.000000</ele>
        <time>2021-09-04T10:26:49Z</time>
      </trkpt>
      <trkpt lat="42.627610" lon="0.461098">
        <ele>1952.000000</ele>
        <time>2021-09-04T10:26:50Z</time>
      </trkpt>
      <trkpt lat="42.627605" lon="0.461107">
        <ele>1952.000000</ele>
        <time>2021-09-04T10:26:51Z</time>
      </trkpt>
      <trkpt lat="42.627602" lon="0.461105">
        <ele>1952.000000</ele>
        <time>2021-09-04T10:26:52Z</time>
      </trkpt>
      <trkpt lat="42.627600" lon="0.461099">
        <ele>1953.000000</ele>
        <time>2021-09-04T10:26:53Z</time>
      </trkpt>
      <trkpt lat="42.627597" lon="0.461091">
        <ele>1953.000000</ele>
        <time>2021-09-04T10:26:54Z</time>
      </trkpt>
      <trkpt lat="42.627593" lon="0.461087">
        <ele>1953.000000</ele>
        <time>2021-09-04T10:26:55Z</time>
      </trkpt>
      <trkpt lat="42.627587" lon="0.461082">
        <ele>1953.000000</ele>
        <time>2021-09-04T10:26:56Z</time>
      </trkpt>
      <trkpt lat="42.627583" lon="0.461082">
        <ele>1953.000000</ele>
        <time>2021-09-04T10:26:57Z</time>
      </trkpt>
      <trkpt lat="42.627582" lon="0.461084">
        <ele>1954.000000</ele>
        <time>2021-09-04T10:26:58Z</time>
      </trkpt>
      <trkpt lat="42.627588" lon="0.461089">
        <ele>1954.000000</ele>
        <time>2021-09-04T10:26:59Z</time>
      </trkpt>
      <trkpt lat="42.627592" lon="0.461091">
        <ele>1954.000000</ele>
        <time>2021-09-04T10:27:00Z</time>
      </trkpt>
      <trkpt lat="42.627587" lon="0.461087">
        <ele>1954.000000</ele>
        <time>2021-09-04T10:27:01Z</time>
      </trkpt>
      <trkpt lat="42.627582" lon="0.461085">
        <ele>1954.000000</ele>
        <time>2021-09-04T10:27:02Z</time>
      </trkpt>
      <trkpt lat="42.627572" lon="0.461087">
        <ele>1954.000000</ele>
        <time>2021-09-04T10:27:03Z</time>
      </trkpt>
      <trkpt lat="42.627565" lon="0.461091">
        <ele>1954.000000</ele>
        <time>2021-09-04T10:27:04Z</time>
      </trkpt>
      <trkpt lat="42.627560" lon="0.461093">
        <ele>1954.000000</ele>
        <time>2021-09-04T10:27:05Z</time>
      </trkpt>
      <trkpt lat="42.627555" lon="0.461095">
        <ele>1954.000000</ele>
        <time>2021-09-04T10:27:07Z</time>
      </trkpt>
      <trkpt lat="42.627550" lon="0.461096">
        <ele>1954.000000</ele>
        <time>2021-09-04T10:27:07Z</time>
      </trkpt>
      <trkpt lat="42.627547" lon="0.461098">
        <ele>1954.000000</ele>
        <time>2021-09-04T10:27:08Z</time>
      </trkpt>
      <trkpt lat="42.627543" lon="0.461099">
        <ele>1955.000000</ele>
        <time>2021-09-04T10:27:09Z</time>
      </trkpt>
      <trkpt lat="42.627540" lon="0.461100">
        <ele>1955.000000</ele>
        <time>2021-09-04T10:27:10Z</time>
      </trkpt>
      <trkpt lat="42.627538" lon="0.461101">
        <ele>1955.000000</ele>
        <time>2021-09-04T10:27:12Z</time>
      </trkpt>
      <trkpt lat="42.627537" lon="0.461101">
        <ele>1955.000000</ele>
        <time>2021-09-04T10:27:13Z</time>
      </trkpt>
      <trkpt lat="42.627532" lon="0.461102">
        <ele>1955.000000</ele>
        <time>2021-09-04T10:27:14Z</time>
      </trkpt>
      <trkpt lat="42.627525" lon="0.461102">
        <ele>1955.000000</ele>
        <time>2021-09-04T10:27:15Z</time>
      </trkpt>
      <trkpt lat="42.627520" lon="0.461102">
        <ele>1955.000000</ele>
        <time>2021-09-04T10:27:16Z</time>
      </trkpt>
      <trkpt lat="42.627512" lon="0.461098">
        <ele>1955.000000</ele>
        <time>2021-09-04T10:27:17Z</time>
      </trkpt>
      <trkpt lat="42.627507" lon="0.461099">
        <ele>1955.000000</ele>
        <time>2021-09-04T10:27:18Z</time>
      </trkpt>
      <trkpt lat="42.627502" lon="0.461099">
        <ele>1955.000000</ele>
        <time>2021-09-04T10:27:19Z</time>
      </trkpt>
      <trkpt lat="42.627497" lon="0.461100">
        <ele>1955.000000</ele>
        <time>2021-09-04T10:27:20Z</time>
      </trkpt>
      <trkpt lat="42.627492" lon="0.461100">
        <ele>1955.000000</ele>
        <time>2021-09-04T10:27:21Z</time>
      </trkpt>
      <trkpt lat="42.627487" lon="0.461100">
        <ele>1955.000000</ele>
        <time>2021-09-04T10:27:22Z</time>
      </trkpt>
      <trkpt lat="42.627477" lon="0.461101">
        <ele>1955.000000</ele>
        <time>2021-09-04T10:27:23Z</time>
      </trkpt>
      <trkpt lat="42.627472" lon="0.461101">
        <ele>1955.000000</ele>
        <time>2021-09-04T10:27:24Z</time>
      </trkpt>
      <trkpt lat="42.627463" lon="0.461102">
        <ele>1955.000000</ele>
        <time>2021-09-04T10:27:25Z</time>
      </trkpt>
      <trkpt lat="42.627452" lon="0.461100">
        <ele>1955.000000</ele>
        <time>2021-09-04T10:27:26Z</time>
      </trkpt>
      <trkpt lat="42.627445" lon="0.461095">
        <ele>1955.000000</ele>
        <time>2021-09-04T10:27:27Z</time>
      </trkpt>
      <trkpt lat="42.627440" lon="0.461078">
        <ele>1955.000000</ele>
        <time>2021-09-04T10:27:28Z</time>
      </trkpt>
      <trkpt lat="42.627437" lon="0.461077">
        <ele>1955.000000</ele>
        <time>2021-09-04T10:27:29Z</time>
      </trkpt>
      <trkpt lat="42.627432" lon="0.461078">
        <ele>1954.000000</ele>
        <time>2021-09-04T10:27:30Z</time>
      </trkpt>
      <trkpt lat="42.627425" lon="0.461083">
        <ele>1954.000000</ele>
        <time>2021-09-04T10:27:31Z</time>
      </trkpt>
      <trkpt lat="42.627417" lon="0.461087">
        <ele>1954.000000</ele>
        <time>2021-09-04T10:27:32Z</time>
      </trkpt>
      <trkpt lat="42.627412" lon="0.461090">
        <ele>1953.000000</ele>
        <time>2021-09-04T10:27:33Z</time>
      </trkpt>
      <trkpt lat="42.627400" lon="0.461090">
        <ele>1953.000000</ele>
        <time>2021-09-04T10:27:34Z</time>
      </trkpt>
      <trkpt lat="42.627390" lon="0.461093">
        <ele>1953.000000</ele>
        <time>2021-09-04T10:27:35Z</time>
      </trkpt>
      <trkpt lat="42.627385" lon="0.461093">
        <ele>1953.000000</ele>
        <time>2021-09-04T10:27:36Z</time>
      </trkpt>
      <trkpt lat="42.627378" lon="0.461095">
        <ele>1953.000000</ele>
        <time>2021-09-04T10:27:37Z</time>
      </trkpt>
      <trkpt lat="42.627372" lon="0.461093">
        <ele>1952.000000</ele>
        <time>2021-09-04T10:27:38Z</time>
      </trkpt>
      <trkpt lat="42.627363" lon="0.461097">
        <ele>1952.000000</ele>
        <time>2021-09-04T10:27:39Z</time>
      </trkpt>
      <trkpt lat="42.627358" lon="0.461100">
        <ele>1952.000000</ele>
        <time>2021-09-04T10:27:40Z</time>
      </trkpt>
      <trkpt lat="42.627353" lon="0.461104">
        <ele>1952.000000</ele>
        <time>2021-09-04T10:27:41Z</time>
      </trkpt>
      <trkpt lat="42.627347" lon="0.461104">
        <ele>1952.000000</ele>
        <time>2021-09-04T10:27:42Z</time>
      </trkpt>
      <trkpt lat="42.627338" lon="0.461102">
        <ele>1952.000000</ele>
        <time>2021-09-04T10:27:43Z</time>
      </trkpt>
      <trkpt lat="42.627330" lon="0.461097">
        <ele>1952.000000</ele>
        <time>2021-09-04T10:27:44Z</time>
      </trkpt>
      <trkpt lat="42.627323" lon="0.461091">
        <ele>1952.000000</ele>
        <time>2021-09-04T10:27:45Z</time>
      </trkpt>
      <trkpt lat="42.627320" lon="0.461075">
        <ele>1952.000000</ele>
        <time>2021-09-04T10:27:46Z</time>
      </trkpt>
      <trkpt lat="42.627313" lon="0.461068">
        <ele>1952.000000</ele>
        <time>2021-09-04T10:27:47Z</time>
      </trkpt>
      <trkpt lat="42.627307" lon="0.461068">
        <ele>1952.000000</ele>
        <time>2021-09-04T10:27:48Z</time>
      </trkpt>
      <trkpt lat="42.627303" lon="0.461068">
        <ele>1952.000000</ele>
        <time>2021-09-04T10:27:49Z</time>
      </trkpt>
      <trkpt lat="42.627302" lon="0.461066">
        <ele>1953.000000</ele>
        <time>2021-09-04T10:27:50Z</time>
      </trkpt>
      <trkpt lat="42.627300" lon="0.461061">
        <ele>1953.000000</ele>
        <time>2021-09-04T10:27:51Z</time>
      </trkpt>
      <trkpt lat="42.627300" lon="0.461057">
        <ele>1954.000000</ele>
        <time>2021-09-04T10:27:52Z</time>
      </trkpt>
      <trkpt lat="42.627297" lon="0.461049">
        <ele>1954.000000</ele>
        <time>2021-09-04T10:27:53Z</time>
      </trkpt>
      <trkpt lat="42.627292" lon="0.461046">
        <ele>1954.000000</ele>
        <time>2021-09-04T10:27:54Z</time>
      </trkpt>
      <trkpt lat="42.627285" lon="0.461052">
        <ele>1955.000000</ele>
        <time>2021-09-04T10:27:55Z</time>
      </trkpt>
      <trkpt lat="42.627278" lon="0.461050">
        <ele>1955.000000</ele>
        <time>2021-09-04T10:27:56Z</time>
      </trkpt>
      <trkpt lat="42.627273" lon="0.461048">
        <ele>1956.000000</ele>
        <time>2021-09-04T10:27:57Z</time>
      </trkpt>
      <trkpt lat="42.627267" lon="0.461042">
        <ele>1956.000000</ele>
        <time>2021-09-04T10:27:58Z</time>
      </trkpt>
      <trkpt lat="42.627258" lon="0.461031">
        <ele>1956.000000</ele>
        <time>2021-09-04T10:27:59Z</time>
      </trkpt>
      <trkpt lat="42.627255" lon="0.461018">
        <ele>1957.000000</ele>
        <time>2021-09-04T10:28:00Z</time>
      </trkpt>
      <trkpt lat="42.627252" lon="0.461012">
        <ele>1957.000000</ele>
        <time>2021-09-04T10:28:01Z</time>
      </trkpt>
      <trkpt lat="42.627250" lon="0.461003">
        <ele>1957.000000</ele>
        <time>2021-09-04T10:28:02Z</time>
      </trkpt>
      <trkpt lat="42.627253" lon="0.460995">
        <ele>1957.000000</ele>
        <time>2021-09-04T10:28:03Z</time>
      </trkpt>
      <trkpt lat="42.627257" lon="0.460988">
        <ele>1958.000000</ele>
        <time>2021-09-04T10:28:04Z</time>
      </trkpt>
      <trkpt lat="42.627262" lon="0.460985">
        <ele>1958.000000</ele>
        <time>2021-09-04T10:28:05Z</time>
      </trkpt>
      <trkpt lat="42.627270" lon="0.460980">
        <ele>1958.000000</ele>
        <time>2021-09-04T10:28:06Z</time>
      </trkpt>
      <trkpt lat="42.627277" lon="0.460973">
        <ele>1959.000000</ele>
        <time>2021-09-04T10:28:07Z</time>
      </trkpt>
      <trkpt lat="42.627280" lon="0.460967">
        <ele>1959.000000</ele>
        <time>2021-09-04T10:28:08Z</time>
      </trkpt>
      <trkpt lat="42.627285" lon="0.460970">
        <ele>1959.000000</ele>
        <time>2021-09-04T10:28:09Z</time>
      </trkpt>
      <trkpt lat="42.627292" lon="0.460967">
        <ele>1959.000000</ele>
        <time>2021-09-04T10:28:10Z</time>
      </trkpt>
      <trkpt lat="42.627295" lon="0.460965">
        <ele>1959.000000</ele>
        <time>2021-09-04T10:28:11Z</time>
      </trkpt>
      <trkpt lat="42.627297" lon="0.460954">
        <ele>1960.000000</ele>
        <time>2021-09-04T10:28:12Z</time>
      </trkpt>
      <trkpt lat="42.627297" lon="0.460950">
        <ele>1960.000000</ele>
        <time>2021-09-04T10:28:13Z</time>
      </trkpt>
      <trkpt lat="42.627293" lon="0.460945">
        <ele>1960.000000</ele>
        <time>2021-09-04T10:28:14Z</time>
      </trkpt>
      <trkpt lat="42.627293" lon="0.460942">
        <ele>1960.000000</ele>
        <time>2021-09-04T10:28:15Z</time>
      </trkpt>
      <trkpt lat="42.627295" lon="0.460938">
        <ele>1960.000000</ele>
        <time>2021-09-04T10:28:16Z</time>
      </trkpt>
      <trkpt lat="42.627295" lon="0.460933">
        <ele>1961.000000</ele>
        <time>2021-09-04T10:28:17Z</time>
      </trkpt>
      <trkpt lat="42.627292" lon="0.460940">
        <ele>1961.000000</ele>
        <time>2021-09-04T10:28:18Z</time>
      </trkpt>
      <trkpt lat="42.627290" lon="0.460938">
        <ele>1961.000000</ele>
        <time>2021-09-04T10:28:19Z</time>
      </trkpt>
      <trkpt lat="42.627275" lon="0.460942">
        <ele>1961.000000</ele>
        <time>2021-09-04T10:28:20Z</time>
      </trkpt>
      <trkpt lat="42.627277" lon="0.460945">
        <ele>1961.000000</ele>
        <time>2021-09-04T10:28:21Z</time>
      </trkpt>
      <trkpt lat="42.627273" lon="0.460945">
        <ele>1961.000000</ele>
        <time>2021-09-04T10:28:22Z</time>
      </trkpt>
      <trkpt lat="42.627270" lon="0.460952">
        <ele>1961.000000</ele>
        <time>2021-09-04T10:28:23Z</time>
      </trkpt>
      <trkpt lat="42.627267" lon="0.460957">
        <ele>1961.000000</ele>
        <time>2021-09-04T10:28:24Z</time>
      </trkpt>
      <trkpt lat="42.627263" lon="0.460962">
        <ele>1961.000000</ele>
        <time>2021-09-04T10:28:25Z</time>
      </trkpt>
      <trkpt lat="42.627262" lon="0.460965">
        <ele>1961.000000</ele>
        <time>2021-09-04T10:28:26Z</time>
      </trkpt>
      <trkpt lat="42.627257" lon="0.460965">
        <ele>1961.000000</ele>
        <time>2021-09-04T10:28:27Z</time>
      </trkpt>
      <trkpt lat="42.627253" lon="0.460966">
        <ele>1962.000000</ele>
        <time>2021-09-04T10:28:28Z</time>
      </trkpt>
      <trkpt lat="42.627248" lon="0.460968">
        <ele>1962.000000</ele>
        <time>2021-09-04T10:28:29Z</time>
      </trkpt>
      <trkpt lat="42.627243" lon="0.460973">
        <ele>1962.000000</ele>
        <time>2021-09-04T10:28:30Z</time>
      </trkpt>
      <trkpt lat="42.627237" lon="0.460975">
        <ele>1963.000000</ele>
        <time>2021-09-04T10:28:31Z</time>
      </trkpt>
      <trkpt lat="42.627233" lon="0.460973">
        <ele>1963.000000</ele>
        <time>2021-09-04T10:28:33Z</time>
      </trkpt>
      <trkpt lat="42.627237" lon="0.460970">
        <ele>1964.000000</ele>
        <time>2021-09-04T10:28:35Z</time>
      </trkpt>
      <trkpt lat="42.627237" lon="0.460968">
        <ele>1964.000000</ele>
        <time>2021-09-04T10:28:35Z</time>
      </trkpt>
      <trkpt lat="42.627235" lon="0.460955">
        <ele>1965.000000</ele>
        <time>2021-09-04T10:28:37Z</time>
      </trkpt>
      <trkpt lat="42.627230" lon="0.460953">
        <ele>1966.000000</ele>
        <time>2021-09-04T10:28:39Z</time>
      </trkpt>
      <trkpt lat="42.627228" lon="0.460950">
        <ele>1966.000000</ele>
        <time>2021-09-04T10:28:40Z</time>
      </trkpt>
      <trkpt lat="42.627227" lon="0.460948">
        <ele>1966.000000</ele>
        <time>2021-09-04T10:28:41Z</time>
      </trkpt>
      <trkpt lat="42.627223" lon="0.460950">
        <ele>1967.000000</ele>
        <time>2021-09-04T10:28:44Z</time>
      </trkpt>
      <trkpt lat="42.627218" lon="0.460948">
        <ele>1967.000000</ele>
        <time>2021-09-04T10:28:45Z</time>
      </trkpt>
      <trkpt lat="42.627215" lon="0.460953">
        <ele>1967.000000</ele>
        <time>2021-09-04T10:28:46Z</time>
      </trkpt>
      <trkpt lat="42.627212" lon="0.460962">
        <ele>1967.000000</ele>
        <time>2021-09-04T10:28:47Z</time>
      </trkpt>
      <trkpt lat="42.627207" lon="0.460965">
        <ele>1967.000000</ele>
        <time>2021-09-04T10:28:48Z</time>
      </trkpt>
      <trkpt lat="42.627202" lon="0.460961">
        <ele>1967.000000</ele>
        <time>2021-09-04T10:28:49Z</time>
      </trkpt>
      <trkpt lat="42.627198" lon="0.460958">
        <ele>1967.000000</ele>
        <time>2021-09-04T10:28:50Z</time>
      </trkpt>
      <trkpt lat="42.627195" lon="0.460960">
        <ele>1967.000000</ele>
        <time>2021-09-04T10:28:51Z</time>
      </trkpt>
      <trkpt lat="42.627190" lon="0.460959">
        <ele>1967.000000</ele>
        <time>2021-09-04T10:28:52Z</time>
      </trkpt>
      <trkpt lat="42.627185" lon="0.460957">
        <ele>1967.000000</ele>
        <time>2021-09-04T10:28:53Z</time>
      </trkpt>
      <trkpt lat="42.627178" lon="0.460952">
        <ele>1967.000000</ele>
        <time>2021-09-04T10:28:54Z</time>
      </trkpt>
      <trkpt lat="42.627177" lon="0.460945">
        <ele>1967.000000</ele>
        <time>2021-09-04T10:28:55Z</time>
      </trkpt>
      <trkpt lat="42.627177" lon="0.460937">
        <ele>1967.000000</ele>
        <time>2021-09-04T10:28:56Z</time>
      </trkpt>
      <trkpt lat="42.627175" lon="0.460927">
        <ele>1967.000000</ele>
        <time>2021-09-04T10:28:57Z</time>
      </trkpt>
      <trkpt lat="42.627177" lon="0.460918">
        <ele>1968.000000</ele>
        <time>2021-09-04T10:28:58Z</time>
      </trkpt>
      <trkpt lat="42.627180" lon="0.460913">
        <ele>1968.000000</ele>
        <time>2021-09-04T10:28:59Z</time>
      </trkpt>
      <trkpt lat="42.627188" lon="0.460905">
        <ele>1968.000000</ele>
        <time>2021-09-04T10:29:00Z</time>
      </trkpt>
      <trkpt lat="42.627192" lon="0.460903">
        <ele>1968.000000</ele>
        <time>2021-09-04T10:29:01Z</time>
      </trkpt>
      <trkpt lat="42.627197" lon="0.460905">
        <ele>1968.000000</ele>
        <time>2021-09-04T10:29:02Z</time>
      </trkpt>
      <trkpt lat="42.627208" lon="0.460898">
        <ele>1968.000000</ele>
        <time>2021-09-04T10:29:03Z</time>
      </trkpt>
      <trkpt lat="42.627215" lon="0.460898">
        <ele>1968.000000</ele>
        <time>2021-09-04T10:29:04Z</time>
      </trkpt>
      <trkpt lat="42.627217" lon="0.460891">
        <ele>1968.000000</ele>
        <time>2021-09-04T10:29:05Z</time>
      </trkpt>
      <trkpt lat="42.627227" lon="0.460888">
        <ele>1968.000000</ele>
        <time>2021-09-04T10:29:06Z</time>
      </trkpt>
      <trkpt lat="42.627230" lon="0.460885">
        <ele>1968.000000</ele>
        <time>2021-09-04T10:29:07Z</time>
      </trkpt>
      <trkpt lat="42.627240" lon="0.460876">
        <ele>1968.000000</ele>
        <time>2021-09-04T10:29:08Z</time>
      </trkpt>
      <trkpt lat="42.627240" lon="0.460872">
        <ele>1968.000000</ele>
        <time>2021-09-04T10:29:09Z</time>
      </trkpt>
      <trkpt lat="42.627242" lon="0.460867">
        <ele>1968.000000</ele>
        <time>2021-09-04T10:29:10Z</time>
      </trkpt>
      <trkpt lat="42.627245" lon="0.460859">
        <ele>1968.000000</ele>
        <time>2021-09-04T10:29:11Z</time>
      </trkpt>
      <trkpt lat="42.627240" lon="0.460848">
        <ele>1968.000000</ele>
        <time>2021-09-04T10:29:13Z</time>
      </trkpt>
      <trkpt lat="42.627230" lon="0.460840">
        <ele>1968.000000</ele>
        <time>2021-09-04T10:29:14Z</time>
      </trkpt>
      <trkpt lat="42.627227" lon="0.460838">
        <ele>1968.000000</ele>
        <time>2021-09-04T10:29:15Z</time>
      </trkpt>
      <trkpt lat="42.627223" lon="0.460835">
        <ele>1968.000000</ele>
        <time>2021-09-04T10:29:16Z</time>
      </trkpt>
      <trkpt lat="42.627218" lon="0.460828">
        <ele>1969.000000</ele>
        <time>2021-09-04T10:29:17Z</time>
      </trkpt>
      <trkpt lat="42.627212" lon="0.460832">
        <ele>1969.000000</ele>
        <time>2021-09-04T10:29:19Z</time>
      </trkpt>
      <trkpt lat="42.627210" lon="0.460830">
        <ele>1969.000000</ele>
        <time>2021-09-04T10:29:20Z</time>
      </trkpt>
      <trkpt lat="42.627205" lon="0.460830">
        <ele>1969.000000</ele>
        <time>2021-09-04T10:29:21Z</time>
      </trkpt>
      <trkpt lat="42.627197" lon="0.460833">
        <ele>1969.000000</ele>
        <time>2021-09-04T10:29:23Z</time>
      </trkpt>
      <trkpt lat="42.627183" lon="0.460845">
        <ele>1969.000000</ele>
        <time>2021-09-04T10:29:23Z</time>
      </trkpt>
      <trkpt lat="42.627180" lon="0.460845">
        <ele>1969.000000</ele>
        <time>2021-09-04T10:29:24Z</time>
      </trkpt>
      <trkpt lat="42.627180" lon="0.460852">
        <ele>1969.000000</ele>
        <time>2021-09-04T10:29:25Z</time>
      </trkpt>
      <trkpt lat="42.627178" lon="0.460858">
        <ele>1969.000000</ele>
        <time>2021-09-04T10:29:26Z</time>
      </trkpt>
      <trkpt lat="42.627173" lon="0.460868">
        <ele>1969.000000</ele>
        <time>2021-09-04T10:29:27Z</time>
      </trkpt>
      <trkpt lat="42.627168" lon="0.460872">
        <ele>1969.000000</ele>
        <time>2021-09-04T10:29:28Z</time>
      </trkpt>
      <trkpt lat="42.627167" lon="0.460874">
        <ele>1969.000000</ele>
        <time>2021-09-04T10:29:29Z</time>
      </trkpt>
      <trkpt lat="42.627163" lon="0.460880">
        <ele>1969.000000</ele>
        <time>2021-09-04T10:29:30Z</time>
      </trkpt>
      <trkpt lat="42.627157" lon="0.460891">
        <ele>1969.000000</ele>
        <time>2021-09-04T10:29:31Z</time>
      </trkpt>
      <trkpt lat="42.627150" lon="0.460895">
        <ele>1969.000000</ele>
        <time>2021-09-04T10:29:32Z</time>
      </trkpt>
      <trkpt lat="42.627145" lon="0.460893">
        <ele>1970.000000</ele>
        <time>2021-09-04T10:29:33Z</time>
      </trkpt>
      <trkpt lat="42.627140" lon="0.460889">
        <ele>1970.000000</ele>
        <time>2021-09-04T10:29:34Z</time>
      </trkpt>
      <trkpt lat="42.627135" lon="0.460878">
        <ele>1970.000000</ele>
        <time>2021-09-04T10:29:35Z</time>
      </trkpt>
      <trkpt lat="42.627133" lon="0.460881">
        <ele>1970.000000</ele>
        <time>2021-09-04T10:29:36Z</time>
      </trkpt>
      <trkpt lat="42.627135" lon="0.460881">
        <ele>1970.000000</ele>
        <time>2021-09-04T10:29:37Z</time>
      </trkpt>
      <trkpt lat="42.627137" lon="0.460881">
        <ele>1970.000000</ele>
        <time>2021-09-04T10:29:38Z</time>
      </trkpt>
      <trkpt lat="42.627133" lon="0.460879">
        <ele>1971.000000</ele>
        <time>2021-09-04T10:29:39Z</time>
      </trkpt>
      <trkpt lat="42.627130" lon="0.460873">
        <ele>1971.000000</ele>
        <time>2021-09-04T10:29:40Z</time>
      </trkpt>
      <trkpt lat="42.627130" lon="0.460871">
        <ele>1971.000000</ele>
        <time>2021-09-04T10:29:42Z</time>
      </trkpt>
      <trkpt lat="42.627127" lon="0.460868">
        <ele>1971.000000</ele>
        <time>2021-09-04T10:29:44Z</time>
      </trkpt>
      <trkpt lat="42.627123" lon="0.460866">
        <ele>1972.000000</ele>
        <time>2021-09-04T10:29:45Z</time>
      </trkpt>
      <trkpt lat="42.627120" lon="0.460867">
        <ele>1972.000000</ele>
        <time>2021-09-04T10:29:46Z</time>
      </trkpt>
      <trkpt lat="42.627117" lon="0.460866">
        <ele>1972.000000</ele>
        <time>2021-09-04T10:29:47Z</time>
      </trkpt>
      <trkpt lat="42.627113" lon="0.460870">
        <ele>1972.000000</ele>
        <time>2021-09-04T10:29:48Z</time>
      </trkpt>
      <trkpt lat="42.627105" lon="0.460870">
        <ele>1972.000000</ele>
        <time>2021-09-04T10:29:49Z</time>
      </trkpt>
      <trkpt lat="42.627095" lon="0.460868">
        <ele>1973.000000</ele>
        <time>2021-09-04T10:29:50Z</time>
      </trkpt>
      <trkpt lat="42.627088" lon="0.460865">
        <ele>1973.000000</ele>
        <time>2021-09-04T10:29:51Z</time>
      </trkpt>
      <trkpt lat="42.627085" lon="0.460861">
        <ele>1973.000000</ele>
        <time>2021-09-04T10:29:52Z</time>
      </trkpt>
      <trkpt lat="42.627083" lon="0.460850">
        <ele>1973.000000</ele>
        <time>2021-09-04T10:29:53Z</time>
      </trkpt>
      <trkpt lat="42.627083" lon="0.460843">
        <ele>1973.000000</ele>
        <time>2021-09-04T10:29:54Z</time>
      </trkpt>
      <trkpt lat="42.627090" lon="0.460838">
        <ele>1973.000000</ele>
        <time>2021-09-04T10:29:55Z</time>
      </trkpt>
      <trkpt lat="42.627097" lon="0.460830">
        <ele>1974.000000</ele>
        <time>2021-09-04T10:29:56Z</time>
      </trkpt>
      <trkpt lat="42.627102" lon="0.460827">
        <ele>1974.000000</ele>
        <time>2021-09-04T10:29:57Z</time>
      </trkpt>
      <trkpt lat="42.627110" lon="0.460820">
        <ele>1974.000000</ele>
        <time>2021-09-04T10:29:58Z</time>
      </trkpt>
      <trkpt lat="42.627115" lon="0.460815">
        <ele>1974.000000</ele>
        <time>2021-09-04T10:29:59Z</time>
      </trkpt>
      <trkpt lat="42.627120" lon="0.460808">
        <ele>1974.000000</ele>
        <time>2021-09-04T10:30:00Z</time>
      </trkpt>
      <trkpt lat="42.627120" lon="0.460800">
        <ele>1974.000000</ele>
        <time>2021-09-04T10:30:01Z</time>
      </trkpt>
      <trkpt lat="42.627123" lon="0.460788">
        <ele>1974.000000</ele>
        <time>2021-09-04T10:30:02Z</time>
      </trkpt>
      <trkpt lat="42.627126" lon="0.460780">
        <ele>1974.000000</ele>
        <time>2021-09-04T10:30:03Z</time>
      </trkpt>
      <trkpt lat="42.627126" lon="0.460767">
        <ele>1974.000000</ele>
        <time>2021-09-04T10:30:04Z</time>
      </trkpt>
      <trkpt lat="42.627127" lon="0.460752">
        <ele>1974.000000</ele>
        <time>2021-09-04T10:30:05Z</time>
      </trkpt>
      <trkpt lat="42.627128" lon="0.460747">
        <ele>1974.000000</ele>
        <time>2021-09-04T10:30:07Z</time>
      </trkpt>
      <trkpt lat="42.627129" lon="0.460748">
        <ele>1974.000000</ele>
        <time>2021-09-04T10:30:07Z</time>
      </trkpt>
      <trkpt lat="42.627129" lon="0.460748">
        <ele>1974.000000</ele>
        <time>2021-09-04T10:30:08Z</time>
      </trkpt>
      <trkpt lat="42.627132" lon="0.460740">
        <ele>1974.000000</ele>
        <time>2021-09-04T10:30:09Z</time>
      </trkpt>
      <trkpt lat="42.627134" lon="0.460733">
        <ele>1974.000000</ele>
        <time>2021-09-04T10:30:10Z</time>
      </trkpt>
      <trkpt lat="42.627137" lon="0.460725">
        <ele>1974.000000</ele>
        <time>2021-09-04T10:30:11Z</time>
      </trkpt>
      <trkpt lat="42.627137" lon="0.460720">
        <ele>1974.000000</ele>
        <time>2021-09-04T10:30:12Z</time>
      </trkpt>
      <trkpt lat="42.627132" lon="0.460715">
        <ele>1975.000000</ele>
        <time>2021-09-04T10:30:14Z</time>
      </trkpt>
      <trkpt lat="42.627130" lon="0.460710">
        <ele>1975.000000</ele>
        <time>2021-09-04T10:30:15Z</time>
      </trkpt>
      <trkpt lat="42.627130" lon="0.460707">
        <ele>1975.000000</ele>
        <time>2021-09-04T10:30:16Z</time>
      </trkpt>
      <trkpt lat="42.627131" lon="0.460697">
        <ele>1975.000000</ele>
        <time>2021-09-04T10:30:17Z</time>
      </trkpt>
      <trkpt lat="42.627137" lon="0.460692">
        <ele>1975.000000</ele>
        <time>2021-09-04T10:30:18Z</time>
      </trkpt>
      <trkpt lat="42.627139" lon="0.460695">
        <ele>1975.000000</ele>
        <time>2021-09-04T10:30:19Z</time>
      </trkpt>
      <trkpt lat="42.627140" lon="0.460697">
        <ele>1975.000000</ele>
        <time>2021-09-04T10:30:20Z</time>
      </trkpt>
      <trkpt lat="42.627143" lon="0.460693">
        <ele>1975.000000</ele>
        <time>2021-09-04T10:30:21Z</time>
      </trkpt>
      <trkpt lat="42.627151" lon="0.460682">
        <ele>1975.000000</ele>
        <time>2021-09-04T10:30:22Z</time>
      </trkpt>
      <trkpt lat="42.627153" lon="0.460675">
        <ele>1975.000000</ele>
        <time>2021-09-04T10:30:23Z</time>
      </trkpt>
      <trkpt lat="42.627148" lon="0.460672">
        <ele>1976.000000</ele>
        <time>2021-09-04T10:30:24Z</time>
      </trkpt>
      <trkpt lat="42.627152" lon="0.460665">
        <ele>1976.000000</ele>
        <time>2021-09-04T10:30:25Z</time>
      </trkpt>
      <trkpt lat="42.627153" lon="0.460662">
        <ele>1976.000000</ele>
        <time>2021-09-04T10:30:26Z</time>
      </trkpt>
      <trkpt lat="42.627154" lon="0.460658">
        <ele>1976.000000</ele>
        <time>2021-09-04T10:30:27Z</time>
      </trkpt>
      <trkpt lat="42.627154" lon="0.460655">
        <ele>1976.000000</ele>
        <time>2021-09-04T10:30:28Z</time>
      </trkpt>
      <trkpt lat="42.627156" lon="0.460648">
        <ele>1976.000000</ele>
        <time>2021-09-04T10:30:29Z</time>
      </trkpt>
      <trkpt lat="42.627159" lon="0.460642">
        <ele>1976.000000</ele>
        <time>2021-09-04T10:30:30Z</time>
      </trkpt>
      <trkpt lat="42.627160" lon="0.460638">
        <ele>1976.000000</ele>
        <time>2021-09-04T10:30:31Z</time>
      </trkpt>
      <trkpt lat="42.627161" lon="0.460635">
        <ele>1976.000000</ele>
        <time>2021-09-04T10:30:32Z</time>
      </trkpt>
      <trkpt lat="42.627164" lon="0.460632">
        <ele>1976.000000</ele>
        <time>2021-09-04T10:30:33Z</time>
      </trkpt>
      <trkpt lat="42.627173" lon="0.460632">
        <ele>1976.000000</ele>
        <time>2021-09-04T10:30:34Z</time>
      </trkpt>
      <trkpt lat="42.627175" lon="0.460630">
        <ele>1976.000000</ele>
        <time>2021-09-04T10:30:35Z</time>
      </trkpt>
      <trkpt lat="42.627180" lon="0.460626">
        <ele>1976.000000</ele>
        <time>2021-09-04T10:30:36Z</time>
      </trkpt>
      <trkpt lat="42.627183" lon="0.460623">
        <ele>1977.000000</ele>
        <time>2021-09-04T10:30:37Z</time>
      </trkpt>
      <trkpt lat="42.627188" lon="0.460619">
        <ele>1977.000000</ele>
        <time>2021-09-04T10:30:38Z</time>
      </trkpt>
      <trkpt lat="42.627193" lon="0.460610">
        <ele>1977.000000</ele>
        <time>2021-09-04T10:30:39Z</time>
      </trkpt>
      <trkpt lat="42.627197" lon="0.460607">
        <ele>1977.000000</ele>
        <time>2021-09-04T10:30:40Z</time>
      </trkpt>
      <trkpt lat="42.627195" lon="0.460607">
        <ele>1977.000000</ele>
        <time>2021-09-04T10:30:42Z</time>
      </trkpt>
      <trkpt lat="42.627190" lon="0.460603">
        <ele>1977.000000</ele>
        <time>2021-09-04T10:30:43Z</time>
      </trkpt>
      <trkpt lat="42.627190" lon="0.460605">
        <ele>1977.000000</ele>
        <time>2021-09-04T10:30:44Z</time>
      </trkpt>
      <trkpt lat="42.627185" lon="0.460603">
        <ele>1978.000000</ele>
        <time>2021-09-04T10:30:45Z</time>
      </trkpt>
      <trkpt lat="42.627187" lon="0.460601">
        <ele>1978.000000</ele>
        <time>2021-09-04T10:30:46Z</time>
      </trkpt>
      <trkpt lat="42.627190" lon="0.460595">
        <ele>1978.000000</ele>
        <time>2021-09-04T10:30:47Z</time>
      </trkpt>
      <trkpt lat="42.627192" lon="0.460590">
        <ele>1978.000000</ele>
        <time>2021-09-04T10:30:47Z</time>
      </trkpt>
      <trkpt lat="42.627193" lon="0.460580">
        <ele>1978.000000</ele>
        <time>2021-09-04T10:30:48Z</time>
      </trkpt>
      <trkpt lat="42.627193" lon="0.460577">
        <ele>1978.000000</ele>
        <time>2021-09-04T10:30:50Z</time>
      </trkpt>
      <trkpt lat="42.627193" lon="0.460573">
        <ele>1978.000000</ele>
        <time>2021-09-04T10:30:50Z</time>
      </trkpt>
      <trkpt lat="42.627194" lon="0.460572">
        <ele>1978.000000</ele>
        <time>2021-09-04T10:30:51Z</time>
      </trkpt>
      <trkpt lat="42.627193" lon="0.460577">
        <ele>1978.000000</ele>
        <time>2021-09-04T10:30:54Z</time>
      </trkpt>
      <trkpt lat="42.627137" lon="0.460610">
        <ele>1978.000000</ele>
        <time>2021-09-04T10:31:27Z</time>
      </trkpt>
      <trkpt lat="42.627133" lon="0.460608">
        <ele>1978.000000</ele>
        <time>2021-09-04T10:31:28Z</time>
      </trkpt>
      <trkpt lat="42.627127" lon="0.460607">
        <ele>1978.000000</ele>
        <time>2021-09-04T10:31:29Z</time>
      </trkpt>
      <trkpt lat="42.627120" lon="0.460600">
        <ele>1978.000000</ele>
        <time>2021-09-04T10:31:30Z</time>
      </trkpt>
      <trkpt lat="42.627115" lon="0.460593">
        <ele>1978.000000</ele>
        <time>2021-09-04T10:31:31Z</time>
      </trkpt>
      <trkpt lat="42.627112" lon="0.460590">
        <ele>1980.000000</ele>
        <time>2021-09-04T10:31:32Z</time>
      </trkpt>
      <trkpt lat="42.627108" lon="0.460585">
        <ele>1980.000000</ele>
        <time>2021-09-04T10:31:33Z</time>
      </trkpt>
      <trkpt lat="42.627105" lon="0.460582">
        <ele>1980.000000</ele>
        <time>2021-09-04T10:31:34Z</time>
      </trkpt>
      <trkpt lat="42.627100" lon="0.460580">
        <ele>1980.000000</ele>
        <time>2021-09-04T10:31:35Z</time>
      </trkpt>
      <trkpt lat="42.627095" lon="0.460578">
        <ele>1980.000000</ele>
        <time>2021-09-04T10:31:36Z</time>
      </trkpt>
      <trkpt lat="42.627088" lon="0.460579">
        <ele>1980.000000</ele>
        <time>2021-09-04T10:31:37Z</time>
      </trkpt>
      <trkpt lat="42.627083" lon="0.460576">
        <ele>1980.000000</ele>
        <time>2021-09-04T10:31:38Z</time>
      </trkpt>
      <trkpt lat="42.627080" lon="0.460575">
        <ele>1980.000000</ele>
        <time>2021-09-04T10:31:39Z</time>
      </trkpt>
      <trkpt lat="42.627078" lon="0.460572">
        <ele>1981.000000</ele>
        <time>2021-09-04T10:31:40Z</time>
      </trkpt>
      <trkpt lat="42.627073" lon="0.460568">
        <ele>1981.000000</ele>
        <time>2021-09-04T10:31:41Z</time>
      </trkpt>
      <trkpt lat="42.627067" lon="0.460565">
        <ele>1981.000000</ele>
        <time>2021-09-04T10:31:42Z</time>
      </trkpt>
      <trkpt lat="42.627058" lon="0.460565">
        <ele>1981.000000</ele>
        <time>2021-09-04T10:31:43Z</time>
      </trkpt>
      <trkpt lat="42.627053" lon="0.460567">
        <ele>1981.000000</ele>
        <time>2021-09-04T10:31:44Z</time>
      </trkpt>
      <trkpt lat="42.627050" lon="0.460568">
        <ele>1981.000000</ele>
        <time>2021-09-04T10:31:45Z</time>
      </trkpt>
      <trkpt lat="42.627048" lon="0.460567">
        <ele>1981.000000</ele>
        <time>2021-09-04T10:31:46Z</time>
      </trkpt>
      <trkpt lat="42.627042" lon="0.460566">
        <ele>1981.000000</ele>
        <time>2021-09-04T10:31:47Z</time>
      </trkpt>
      <trkpt lat="42.627037" lon="0.460567">
        <ele>1981.000000</ele>
        <time>2021-09-04T10:31:48Z</time>
      </trkpt>
      <trkpt lat="42.627035" lon="0.460568">
        <ele>1981.000000</ele>
        <time>2021-09-04T10:31:49Z</time>
      </trkpt>
      <trkpt lat="42.627032" lon="0.460578">
        <ele>1981.000000</ele>
        <time>2021-09-04T10:31:50Z</time>
      </trkpt>
      <trkpt lat="42.627023" lon="0.460583">
        <ele>1982.000000</ele>
        <time>2021-09-04T10:31:51Z</time>
      </trkpt>
      <trkpt lat="42.627013" lon="0.460590">
        <ele>1982.000000</ele>
        <time>2021-09-04T10:31:52Z</time>
      </trkpt>
      <trkpt lat="42.627010" lon="0.460594">
        <ele>1982.000000</ele>
        <time>2021-09-04T10:31:53Z</time>
      </trkpt>
      <trkpt lat="42.627007" lon="0.460597">
        <ele>1982.000000</ele>
        <time>2021-09-04T10:31:54Z</time>
      </trkpt>
      <trkpt lat="42.627000" lon="0.460601">
        <ele>1982.000000</ele>
        <time>2021-09-04T10:31:55Z</time>
      </trkpt>
      <trkpt lat="42.626992" lon="0.460602">
        <ele>1982.000000</ele>
        <time>2021-09-04T10:31:56Z</time>
      </trkpt>
      <trkpt lat="42.626985" lon="0.460602">
        <ele>1982.000000</ele>
        <time>2021-09-04T10:31:57Z</time>
      </trkpt>
      <trkpt lat="42.626980" lon="0.460606">
        <ele>1982.000000</ele>
        <time>2021-09-04T10:31:58Z</time>
      </trkpt>
      <trkpt lat="42.626977" lon="0.460610">
        <ele>1983.000000</ele>
        <time>2021-09-04T10:31:59Z</time>
      </trkpt>
      <trkpt lat="42.626970" lon="0.460616">
        <ele>1983.000000</ele>
        <time>2021-09-04T10:32:00Z</time>
      </trkpt>
      <trkpt lat="42.626968" lon="0.460618">
        <ele>1983.000000</ele>
        <time>2021-09-04T10:32:02Z</time>
      </trkpt>
      <trkpt lat="42.626968" lon="0.460613">
        <ele>1983.000000</ele>
        <time>2021-09-04T10:32:03Z</time>
      </trkpt>
      <trkpt lat="42.626963" lon="0.460595">
        <ele>1984.000000</ele>
        <time>2021-09-04T10:32:04Z</time>
      </trkpt>
      <trkpt lat="42.626968" lon="0.460588">
        <ele>1984.000000</ele>
        <time>2021-09-04T10:32:05Z</time>
      </trkpt>
      <trkpt lat="42.626972" lon="0.460583">
        <ele>1984.000000</ele>
        <time>2021-09-04T10:32:06Z</time>
      </trkpt>
      <trkpt lat="42.626973" lon="0.460573">
        <ele>1984.000000</ele>
        <time>2021-09-04T10:32:07Z</time>
      </trkpt>
      <trkpt lat="42.626975" lon="0.460568">
        <ele>1985.000000</ele>
        <time>2021-09-04T10:32:08Z</time>
      </trkpt>
      <trkpt lat="42.626977" lon="0.460565">
        <ele>1985.000000</ele>
        <time>2021-09-04T10:32:09Z</time>
      </trkpt>
      <trkpt lat="42.626978" lon="0.460560">
        <ele>1985.000000</ele>
        <time>2021-09-04T10:32:10Z</time>
      </trkpt>
      <trkpt lat="42.626984" lon="0.460552">
        <ele>1985.000000</ele>
        <time>2021-09-04T10:32:11Z</time>
      </trkpt>
      <trkpt lat="42.626997" lon="0.460547">
        <ele>1985.000000</ele>
        <time>2021-09-04T10:32:12Z</time>
      </trkpt>
      <trkpt lat="42.627005" lon="0.460543">
        <ele>1986.000000</ele>
        <time>2021-09-04T10:32:13Z</time>
      </trkpt>
      <trkpt lat="42.627010" lon="0.460540">
        <ele>1986.000000</ele>
        <time>2021-09-04T10:32:14Z</time>
      </trkpt>
      <trkpt lat="42.627018" lon="0.460540">
        <ele>1986.000000</ele>
        <time>2021-09-04T10:32:15Z</time>
      </trkpt>
      <trkpt lat="42.627022" lon="0.460542">
        <ele>1986.000000</ele>
        <time>2021-09-04T10:32:16Z</time>
      </trkpt>
      <trkpt lat="42.627027" lon="0.460536">
        <ele>1986.000000</ele>
        <time>2021-09-04T10:32:17Z</time>
      </trkpt>
      <trkpt lat="42.627032" lon="0.460530">
        <ele>1987.000000</ele>
        <time>2021-09-04T10:32:18Z</time>
      </trkpt>
      <trkpt lat="42.627037" lon="0.460523">
        <ele>1987.000000</ele>
        <time>2021-09-04T10:32:19Z</time>
      </trkpt>
      <trkpt lat="42.627038" lon="0.460517">
        <ele>1987.000000</ele>
        <time>2021-09-04T10:32:21Z</time>
      </trkpt>
      <trkpt lat="42.627038" lon="0.460508">
        <ele>1987.000000</ele>
        <time>2021-09-04T10:32:21Z</time>
      </trkpt>
      <trkpt lat="42.627035" lon="0.460502">
        <ele>1987.000000</ele>
        <time>2021-09-04T10:32:22Z</time>
      </trkpt>
      <trkpt lat="42.627030" lon="0.460495">
        <ele>1987.000000</ele>
        <time>2021-09-04T10:32:23Z</time>
      </trkpt>
      <trkpt lat="42.627027" lon="0.460492">
        <ele>1987.000000</ele>
        <time>2021-09-04T10:32:24Z</time>
      </trkpt>
      <trkpt lat="42.627023" lon="0.460488">
        <ele>1987.000000</ele>
        <time>2021-09-04T10:32:25Z</time>
      </trkpt>
      <trkpt lat="42.627021" lon="0.460490">
        <ele>1988.000000</ele>
        <time>2021-09-04T10:32:27Z</time>
      </trkpt>
      <trkpt lat="42.627018" lon="0.460490">
        <ele>1988.000000</ele>
        <time>2021-09-04T10:32:28Z</time>
      </trkpt>
      <trkpt lat="42.627010" lon="0.460490">
        <ele>1988.000000</ele>
        <time>2021-09-04T10:32:29Z</time>
      </trkpt>
      <trkpt lat="42.627007" lon="0.460488">
        <ele>1988.000000</ele>
        <time>2021-09-04T10:32:30Z</time>
      </trkpt>
      <trkpt lat="42.627002" lon="0.460490">
        <ele>1988.000000</ele>
        <time>2021-09-04T10:32:31Z</time>
      </trkpt>
      <trkpt lat="42.626993" lon="0.460498">
        <ele>1988.000000</ele>
        <time>2021-09-04T10:32:33Z</time>
      </trkpt>
      <trkpt lat="42.626990" lon="0.460505">
        <ele>1988.000000</ele>
        <time>2021-09-04T10:32:33Z</time>
      </trkpt>
      <trkpt lat="42.626988" lon="0.460507">
        <ele>1988.000000</ele>
        <time>2021-09-04T10:32:34Z</time>
      </trkpt>
      <trkpt lat="42.626980" lon="0.460508">
        <ele>1988.000000</ele>
        <time>2021-09-04T10:32:35Z</time>
      </trkpt>
      <trkpt lat="42.626975" lon="0.460511">
        <ele>1988.000000</ele>
        <time>2021-09-04T10:32:36Z</time>
      </trkpt>
      <trkpt lat="42.626973" lon="0.460515">
        <ele>1988.000000</ele>
        <time>2021-09-04T10:32:37Z</time>
      </trkpt>
      <trkpt lat="42.626970" lon="0.460512">
        <ele>1988.000000</ele>
        <time>2021-09-04T10:32:38Z</time>
      </trkpt>
      <trkpt lat="42.626963" lon="0.460513">
        <ele>1988.000000</ele>
        <time>2021-09-04T10:32:39Z</time>
      </trkpt>
      <trkpt lat="42.626955" lon="0.460512">
        <ele>1989.000000</ele>
        <time>2021-09-04T10:32:40Z</time>
      </trkpt>
      <trkpt lat="42.626953" lon="0.460511">
        <ele>1989.000000</ele>
        <time>2021-09-04T10:32:41Z</time>
      </trkpt>
      <trkpt lat="42.626948" lon="0.460509">
        <ele>1989.000000</ele>
        <time>2021-09-04T10:32:42Z</time>
      </trkpt>
      <trkpt lat="42.626940" lon="0.460509">
        <ele>1989.000000</ele>
        <time>2021-09-04T10:32:43Z</time>
      </trkpt>
      <trkpt lat="42.626932" lon="0.460512">
        <ele>1989.000000</ele>
        <time>2021-09-04T10:32:44Z</time>
      </trkpt>
      <trkpt lat="42.626925" lon="0.460516">
        <ele>1990.000000</ele>
        <time>2021-09-04T10:32:45Z</time>
      </trkpt>
      <trkpt lat="42.626917" lon="0.460528">
        <ele>1990.000000</ele>
        <time>2021-09-04T10:32:46Z</time>
      </trkpt>
      <trkpt lat="42.626902" lon="0.460532">
        <ele>1990.000000</ele>
        <time>2021-09-04T10:32:47Z</time>
      </trkpt>
      <trkpt lat="42.626888" lon="0.460529">
        <ele>1990.000000</ele>
        <time>2021-09-04T10:32:48Z</time>
      </trkpt>
      <trkpt lat="42.626878" lon="0.460525">
        <ele>1990.000000</ele>
        <time>2021-09-04T10:32:49Z</time>
      </trkpt>
      <trkpt lat="42.626873" lon="0.460520">
        <ele>1990.000000</ele>
        <time>2021-09-04T10:32:50Z</time>
      </trkpt>
      <trkpt lat="42.626872" lon="0.460512">
        <ele>1990.000000</ele>
        <time>2021-09-04T10:32:51Z</time>
      </trkpt>
      <trkpt lat="42.626875" lon="0.460502">
        <ele>1990.000000</ele>
        <time>2021-09-04T10:32:52Z</time>
      </trkpt>
      <trkpt lat="42.626878" lon="0.460495">
        <ele>1990.000000</ele>
        <time>2021-09-04T10:32:53Z</time>
      </trkpt>
      <trkpt lat="42.626882" lon="0.460497">
        <ele>1991.000000</ele>
        <time>2021-09-04T10:32:54Z</time>
      </trkpt>
      <trkpt lat="42.626884" lon="0.460502">
        <ele>1991.000000</ele>
        <time>2021-09-04T10:32:55Z</time>
      </trkpt>
      <trkpt lat="42.626882" lon="0.460500">
        <ele>1991.000000</ele>
        <time>2021-09-04T10:32:56Z</time>
      </trkpt>
      <trkpt lat="42.626880" lon="0.460495">
        <ele>1991.000000</ele>
        <time>2021-09-04T10:32:57Z</time>
      </trkpt>
      <trkpt lat="42.626876" lon="0.460483">
        <ele>1991.000000</ele>
        <time>2021-09-04T10:32:58Z</time>
      </trkpt>
      <trkpt lat="42.626873" lon="0.460472">
        <ele>1991.000000</ele>
        <time>2021-09-04T10:32:59Z</time>
      </trkpt>
      <trkpt lat="42.626875" lon="0.460455">
        <ele>1992.000000</ele>
        <time>2021-09-04T10:33:00Z</time>
      </trkpt>
      <trkpt lat="42.626875" lon="0.460450">
        <ele>1992.000000</ele>
        <time>2021-09-04T10:33:01Z</time>
      </trkpt>
      <trkpt lat="42.626883" lon="0.460443">
        <ele>1992.000000</ele>
        <time>2021-09-04T10:33:02Z</time>
      </trkpt>
      <trkpt lat="42.626887" lon="0.460438">
        <ele>1992.000000</ele>
        <time>2021-09-04T10:33:03Z</time>
      </trkpt>
      <trkpt lat="42.626887" lon="0.460433">
        <ele>1992.000000</ele>
        <time>2021-09-04T10:33:04Z</time>
      </trkpt>
      <trkpt lat="42.626894" lon="0.460425">
        <ele>1992.000000</ele>
        <time>2021-09-04T10:33:05Z</time>
      </trkpt>
      <trkpt lat="42.626897" lon="0.460420">
        <ele>1993.000000</ele>
        <time>2021-09-04T10:33:06Z</time>
      </trkpt>
      <trkpt lat="42.626898" lon="0.460417">
        <ele>1993.000000</ele>
        <time>2021-09-04T10:33:07Z</time>
      </trkpt>
      <trkpt lat="42.626903" lon="0.460415">
        <ele>1993.000000</ele>
        <time>2021-09-04T10:33:08Z</time>
      </trkpt>
      <trkpt lat="42.626907" lon="0.460413">
        <ele>1993.000000</ele>
        <time>2021-09-04T10:33:09Z</time>
      </trkpt>
      <trkpt lat="42.626908" lon="0.460411">
        <ele>1993.000000</ele>
        <time>2021-09-04T10:33:10Z</time>
      </trkpt>
      <trkpt lat="42.626918" lon="0.460397">
        <ele>1993.000000</ele>
        <time>2021-09-04T10:33:11Z</time>
      </trkpt>
      <trkpt lat="42.626925" lon="0.460392">
        <ele>1993.000000</ele>
        <time>2021-09-04T10:33:12Z</time>
      </trkpt>
      <trkpt lat="42.626925" lon="0.460391">
        <ele>1993.000000</ele>
        <time>2021-09-04T10:33:13Z</time>
      </trkpt>
      <trkpt lat="42.626925" lon="0.460383">
        <ele>1993.000000</ele>
        <time>2021-09-04T10:33:14Z</time>
      </trkpt>
      <trkpt lat="42.626928" lon="0.460378">
        <ele>1993.000000</ele>
        <time>2021-09-04T10:33:15Z</time>
      </trkpt>
      <trkpt lat="42.626937" lon="0.460365">
        <ele>1993.000000</ele>
        <time>2021-09-04T10:33:16Z</time>
      </trkpt>
      <trkpt lat="42.626943" lon="0.460362">
        <ele>1993.000000</ele>
        <time>2021-09-04T10:33:17Z</time>
      </trkpt>
      <trkpt lat="42.626947" lon="0.460362">
        <ele>1993.000000</ele>
        <time>2021-09-04T10:33:18Z</time>
      </trkpt>
      <trkpt lat="42.626962" lon="0.460360">
        <ele>1993.000000</ele>
        <time>2021-09-04T10:33:19Z</time>
      </trkpt>
      <trkpt lat="42.626972" lon="0.460357">
        <ele>1993.000000</ele>
        <time>2021-09-04T10:33:20Z</time>
      </trkpt>
      <trkpt lat="42.626982" lon="0.460350">
        <ele>1994.000000</ele>
        <time>2021-09-04T10:33:21Z</time>
      </trkpt>
      <trkpt lat="42.626987" lon="0.460346">
        <ele>1994.000000</ele>
        <time>2021-09-04T10:33:22Z</time>
      </trkpt>
      <trkpt lat="42.626988" lon="0.460340">
        <ele>1994.000000</ele>
        <time>2021-09-04T10:33:23Z</time>
      </trkpt>
      <trkpt lat="42.626988" lon="0.460333">
        <ele>1994.000000</ele>
        <time>2021-09-04T10:33:24Z</time>
      </trkpt>
      <trkpt lat="42.626991" lon="0.460330">
        <ele>1994.000000</ele>
        <time>2021-09-04T10:33:25Z</time>
      </trkpt>
      <trkpt lat="42.626996" lon="0.460318">
        <ele>1994.000000</ele>
        <time>2021-09-04T10:33:26Z</time>
      </trkpt>
      <trkpt lat="42.627000" lon="0.460312">
        <ele>1994.000000</ele>
        <time>2021-09-04T10:33:27Z</time>
      </trkpt>
      <trkpt lat="42.627000" lon="0.460303">
        <ele>1994.000000</ele>
        <time>2021-09-04T10:33:28Z</time>
      </trkpt>
      <trkpt lat="42.626999" lon="0.460300">
        <ele>1995.000000</ele>
        <time>2021-09-04T10:33:29Z</time>
      </trkpt>
      <trkpt lat="42.626993" lon="0.460302">
        <ele>1995.000000</ele>
        <time>2021-09-04T10:33:30Z</time>
      </trkpt>
      <trkpt lat="42.626992" lon="0.460308">
        <ele>1995.000000</ele>
        <time>2021-09-04T10:33:31Z</time>
      </trkpt>
      <trkpt lat="42.626992" lon="0.460317">
        <ele>1995.000000</ele>
        <time>2021-09-04T10:33:32Z</time>
      </trkpt>
      <trkpt lat="42.626988" lon="0.460320">
        <ele>1995.000000</ele>
        <time>2021-09-04T10:33:33Z</time>
      </trkpt>
      <trkpt lat="42.626980" lon="0.460322">
        <ele>1995.000000</ele>
        <time>2021-09-04T10:33:34Z</time>
      </trkpt>
      <trkpt lat="42.626975" lon="0.460323">
        <ele>1995.000000</ele>
        <time>2021-09-04T10:33:35Z</time>
      </trkpt>
      <trkpt lat="42.626970" lon="0.460325">
        <ele>1996.000000</ele>
        <time>2021-09-04T10:33:36Z</time>
      </trkpt>
      <trkpt lat="42.626965" lon="0.460320">
        <ele>1996.000000</ele>
        <time>2021-09-04T10:33:37Z</time>
      </trkpt>
      <trkpt lat="42.626962" lon="0.460317">
        <ele>1996.000000</ele>
        <time>2021-09-04T10:33:38Z</time>
      </trkpt>
      <trkpt lat="42.626955" lon="0.460320">
        <ele>1996.000000</ele>
        <time>2021-09-04T10:33:39Z</time>
      </trkpt>
      <trkpt lat="42.626952" lon="0.460323">
        <ele>1997.000000</ele>
        <time>2021-09-04T10:33:40Z</time>
      </trkpt>
      <trkpt lat="42.626948" lon="0.460325">
        <ele>1997.000000</ele>
        <time>2021-09-04T10:33:41Z</time>
      </trkpt>
      <trkpt lat="42.626942" lon="0.460329">
        <ele>1997.000000</ele>
        <time>2021-09-04T10:33:42Z</time>
      </trkpt>
      <trkpt lat="42.626932" lon="0.460331">
        <ele>1997.000000</ele>
        <time>2021-09-04T10:33:43Z</time>
      </trkpt>
      <trkpt lat="42.626925" lon="0.460331">
        <ele>1997.000000</ele>
        <time>2021-09-04T10:33:44Z</time>
      </trkpt>
      <trkpt lat="42.626920" lon="0.460331">
        <ele>1997.000000</ele>
        <time>2021-09-04T10:33:45Z</time>
      </trkpt>
      <trkpt lat="42.626918" lon="0.460331">
        <ele>1997.000000</ele>
        <time>2021-09-04T10:33:46Z</time>
      </trkpt>
      <trkpt lat="42.626912" lon="0.460333">
        <ele>1997.000000</ele>
        <time>2021-09-04T10:33:47Z</time>
      </trkpt>
      <trkpt lat="42.626903" lon="0.460330">
        <ele>1998.000000</ele>
        <time>2021-09-04T10:33:48Z</time>
      </trkpt>
      <trkpt lat="42.626898" lon="0.460327">
        <ele>1998.000000</ele>
        <time>2021-09-04T10:33:49Z</time>
      </trkpt>
      <trkpt lat="42.626895" lon="0.460325">
        <ele>1998.000000</ele>
        <time>2021-09-04T10:33:50Z</time>
      </trkpt>
      <trkpt lat="42.626890" lon="0.460324">
        <ele>1998.000000</ele>
        <time>2021-09-04T10:33:51Z</time>
      </trkpt>
      <trkpt lat="42.626887" lon="0.460325">
        <ele>1999.000000</ele>
        <time>2021-09-04T10:33:52Z</time>
      </trkpt>
      <trkpt lat="42.626880" lon="0.460330">
        <ele>1999.000000</ele>
        <time>2021-09-04T10:33:53Z</time>
      </trkpt>
      <trkpt lat="42.626873" lon="0.460325">
        <ele>1999.000000</ele>
        <time>2021-09-04T10:33:54Z</time>
      </trkpt>
      <trkpt lat="42.626870" lon="0.460318">
        <ele>1999.000000</ele>
        <time>2021-09-04T10:33:55Z</time>
      </trkpt>
      <trkpt lat="42.626868" lon="0.460308">
        <ele>1999.000000</ele>
        <time>2021-09-04T10:33:56Z</time>
      </trkpt>
      <trkpt lat="42.626863" lon="0.460298">
        <ele>1999.000000</ele>
        <time>2021-09-04T10:33:57Z</time>
      </trkpt>
      <trkpt lat="42.626862" lon="0.460292">
        <ele>2000.000000</ele>
        <time>2021-09-04T10:33:58Z</time>
      </trkpt>
      <trkpt lat="42.626863" lon="0.460282">
        <ele>2000.000000</ele>
        <time>2021-09-04T10:33:59Z</time>
      </trkpt>
      <trkpt lat="42.626870" lon="0.460277">
        <ele>2000.000000</ele>
        <time>2021-09-04T10:34:00Z</time>
      </trkpt>
      <trkpt lat="42.626872" lon="0.460267">
        <ele>2000.000000</ele>
        <time>2021-09-04T10:34:01Z</time>
      </trkpt>
      <trkpt lat="42.626868" lon="0.460253">
        <ele>2000.000000</ele>
        <time>2021-09-04T10:34:02Z</time>
      </trkpt>
      <trkpt lat="42.626869" lon="0.460248">
        <ele>2001.000000</ele>
        <time>2021-09-04T10:34:03Z</time>
      </trkpt>
      <trkpt lat="42.626872" lon="0.460245">
        <ele>2001.000000</ele>
        <time>2021-09-04T10:34:04Z</time>
      </trkpt>
      <trkpt lat="42.626875" lon="0.460240">
        <ele>2001.000000</ele>
        <time>2021-09-04T10:34:05Z</time>
      </trkpt>
      <trkpt lat="42.626882" lon="0.460237">
        <ele>2001.000000</ele>
        <time>2021-09-04T10:34:07Z</time>
      </trkpt>
      <trkpt lat="42.626880" lon="0.460240">
        <ele>2001.000000</ele>
        <time>2021-09-04T10:34:08Z</time>
      </trkpt>
      <trkpt lat="42.626878" lon="0.460240">
        <ele>2001.000000</ele>
        <time>2021-09-04T10:34:09Z</time>
      </trkpt>
      <trkpt lat="42.626875" lon="0.460243">
        <ele>2001.000000</ele>
        <time>2021-09-04T10:34:10Z</time>
      </trkpt>
      <trkpt lat="42.626872" lon="0.460242">
        <ele>2001.000000</ele>
        <time>2021-09-04T10:34:11Z</time>
      </trkpt>
      <trkpt lat="42.626865" lon="0.460240">
        <ele>2001.000000</ele>
        <time>2021-09-04T10:34:12Z</time>
      </trkpt>
      <trkpt lat="42.626865" lon="0.460242">
        <ele>2002.000000</ele>
        <time>2021-09-04T10:34:13Z</time>
      </trkpt>
      <trkpt lat="42.626860" lon="0.460244">
        <ele>2002.000000</ele>
        <time>2021-09-04T10:34:14Z</time>
      </trkpt>
      <trkpt lat="42.626857" lon="0.460244">
        <ele>2002.000000</ele>
        <time>2021-09-04T10:34:15Z</time>
      </trkpt>
      <trkpt lat="42.626858" lon="0.460243">
        <ele>2002.000000</ele>
        <time>2021-09-04T10:34:16Z</time>
      </trkpt>
      <trkpt lat="42.626855" lon="0.460238">
        <ele>2002.000000</ele>
        <time>2021-09-04T10:34:17Z</time>
      </trkpt>
      <trkpt lat="42.626855" lon="0.460230">
        <ele>2002.000000</ele>
        <time>2021-09-04T10:34:18Z</time>
      </trkpt>
      <trkpt lat="42.626855" lon="0.460218">
        <ele>2003.000000</ele>
        <time>2021-09-04T10:34:19Z</time>
      </trkpt>
      <trkpt lat="42.626860" lon="0.460207">
        <ele>2003.000000</ele>
        <time>2021-09-04T10:34:20Z</time>
      </trkpt>
      <trkpt lat="42.626862" lon="0.460205">
        <ele>2003.000000</ele>
        <time>2021-09-04T10:34:21Z</time>
      </trkpt>
      <trkpt lat="42.626867" lon="0.460202">
        <ele>2004.000000</ele>
        <time>2021-09-04T10:34:22Z</time>
      </trkpt>
      <trkpt lat="42.626870" lon="0.460198">
        <ele>2004.000000</ele>
        <time>2021-09-04T10:34:23Z</time>
      </trkpt>
      <trkpt lat="42.626873" lon="0.460193">
        <ele>2004.000000</ele>
        <time>2021-09-04T10:34:24Z</time>
      </trkpt>
      <trkpt lat="42.626874" lon="0.460182">
        <ele>2004.000000</ele>
        <time>2021-09-04T10:34:25Z</time>
      </trkpt>
      <trkpt lat="42.626876" lon="0.460170">
        <ele>2005.000000</ele>
        <time>2021-09-04T10:34:26Z</time>
      </trkpt>
      <trkpt lat="42.626879" lon="0.460155">
        <ele>2005.000000</ele>
        <time>2021-09-04T10:34:27Z</time>
      </trkpt>
      <trkpt lat="42.626881" lon="0.460150">
        <ele>2005.000000</ele>
        <time>2021-09-04T10:34:28Z</time>
      </trkpt>
      <trkpt lat="42.626887" lon="0.460145">
        <ele>2005.000000</ele>
        <time>2021-09-04T10:34:29Z</time>
      </trkpt>
      <trkpt lat="42.626891" lon="0.460140">
        <ele>2006.000000</ele>
        <time>2021-09-04T10:34:30Z</time>
      </trkpt>
      <trkpt lat="42.626894" lon="0.460135">
        <ele>2006.000000</ele>
        <time>2021-09-04T10:34:31Z</time>
      </trkpt>
      <trkpt lat="42.626894" lon="0.460137">
        <ele>2006.000000</ele>
        <time>2021-09-04T10:34:32Z</time>
      </trkpt>
      <trkpt lat="42.626897" lon="0.460130">
        <ele>2006.000000</ele>
        <time>2021-09-04T10:34:33Z</time>
      </trkpt>
      <trkpt lat="42.626903" lon="0.460110">
        <ele>2006.000000</ele>
        <time>2021-09-04T10:34:34Z</time>
      </trkpt>
      <trkpt lat="42.626900" lon="0.460098">
        <ele>2007.000000</ele>
        <time>2021-09-04T10:34:35Z</time>
      </trkpt>
      <trkpt lat="42.626901" lon="0.460088">
        <ele>2007.000000</ele>
        <time>2021-09-04T10:34:36Z</time>
      </trkpt>
      <trkpt lat="42.626902" lon="0.460083">
        <ele>2007.000000</ele>
        <time>2021-09-04T10:34:37Z</time>
      </trkpt>
      <trkpt lat="42.626897" lon="0.460095">
        <ele>2007.000000</ele>
        <time>2021-09-04T10:34:38Z</time>
      </trkpt>
      <trkpt lat="42.626894" lon="0.460098">
        <ele>2007.000000</ele>
        <time>2021-09-04T10:34:39Z</time>
      </trkpt>
      <trkpt lat="42.626888" lon="0.460100">
        <ele>2007.000000</ele>
        <time>2021-09-04T10:34:40Z</time>
      </trkpt>
      <trkpt lat="42.626885" lon="0.460102">
        <ele>2007.000000</ele>
        <time>2021-09-04T10:34:42Z</time>
      </trkpt>
      <trkpt lat="42.626880" lon="0.460103">
        <ele>2007.000000</ele>
        <time>2021-09-04T10:34:43Z</time>
      </trkpt>
      <trkpt lat="42.626882" lon="0.460100">
        <ele>2007.000000</ele>
        <time>2021-09-04T10:34:44Z</time>
      </trkpt>
      <trkpt lat="42.626890" lon="0.460099">
        <ele>2007.000000</ele>
        <time>2021-09-04T10:34:45Z</time>
      </trkpt>
      <trkpt lat="42.626920" lon="0.460072">
        <ele>2009.000000</ele>
        <time>2021-09-04T10:34:58Z</time>
      </trkpt>
      <trkpt lat="42.626920" lon="0.460062">
        <ele>2009.000000</ele>
        <time>2021-09-04T10:34:59Z</time>
      </trkpt>
      <trkpt lat="42.626920" lon="0.460058">
        <ele>2009.000000</ele>
        <time>2021-09-04T10:35:00Z</time>
      </trkpt>
      <trkpt lat="42.626920" lon="0.460053">
        <ele>2009.000000</ele>
        <time>2021-09-04T10:35:01Z</time>
      </trkpt>
      <trkpt lat="42.626913" lon="0.460047">
        <ele>2009.000000</ele>
        <time>2021-09-04T10:35:02Z</time>
      </trkpt>
      <trkpt lat="42.626910" lon="0.460045">
        <ele>2009.000000</ele>
        <time>2021-09-04T10:35:02Z</time>
      </trkpt>
      <trkpt lat="42.626910" lon="0.460033">
        <ele>2010.000000</ele>
        <time>2021-09-04T10:35:04Z</time>
      </trkpt>
      <trkpt lat="42.626907" lon="0.460028">
        <ele>2010.000000</ele>
        <time>2021-09-04T10:35:05Z</time>
      </trkpt>
      <trkpt lat="42.626905" lon="0.460038">
        <ele>2010.000000</ele>
        <time>2021-09-04T10:35:08Z</time>
      </trkpt>
      <trkpt lat="42.626903" lon="0.460040">
        <ele>2010.000000</ele>
        <time>2021-09-04T10:35:09Z</time>
      </trkpt>
      <trkpt lat="42.626900" lon="0.460042">
        <ele>2011.000000</ele>
        <time>2021-09-04T10:35:10Z</time>
      </trkpt>
      <trkpt lat="42.626899" lon="0.460050">
        <ele>2011.000000</ele>
        <time>2021-09-04T10:35:11Z</time>
      </trkpt>
      <trkpt lat="42.626898" lon="0.460053">
        <ele>2011.000000</ele>
        <time>2021-09-04T10:35:12Z</time>
      </trkpt>
      <trkpt lat="42.626895" lon="0.460057">
        <ele>2011.000000</ele>
        <time>2021-09-04T10:35:13Z</time>
      </trkpt>
      <trkpt lat="42.626894" lon="0.460058">
        <ele>2011.000000</ele>
        <time>2021-09-04T10:35:14Z</time>
      </trkpt>
      <trkpt lat="42.626887" lon="0.460060">
        <ele>2012.000000</ele>
        <time>2021-09-04T10:35:15Z</time>
      </trkpt>
      <trkpt lat="42.626883" lon="0.460065">
        <ele>2012.000000</ele>
        <time>2021-09-04T10:35:16Z</time>
      </trkpt>
      <trkpt lat="42.626878" lon="0.460071">
        <ele>2012.000000</ele>
        <time>2021-09-04T10:35:17Z</time>
      </trkpt>
      <trkpt lat="42.626870" lon="0.460079">
        <ele>2012.000000</ele>
        <time>2021-09-04T10:35:18Z</time>
      </trkpt>
      <trkpt lat="42.626863" lon="0.460081">
        <ele>2012.000000</ele>
        <time>2021-09-04T10:35:19Z</time>
      </trkpt>
      <trkpt lat="42.626855" lon="0.460085">
        <ele>2013.000000</ele>
        <time>2021-09-04T10:35:20Z</time>
      </trkpt>
      <trkpt lat="42.626848" lon="0.460089">
        <ele>2013.000000</ele>
        <time>2021-09-04T10:35:21Z</time>
      </trkpt>
      <trkpt lat="42.626842" lon="0.460096">
        <ele>2013.000000</ele>
        <time>2021-09-04T10:35:22Z</time>
      </trkpt>
      <trkpt lat="42.626838" lon="0.460102">
        <ele>2013.000000</ele>
        <time>2021-09-04T10:35:23Z</time>
      </trkpt>
      <trkpt lat="42.626828" lon="0.460112">
        <ele>2013.000000</ele>
        <time>2021-09-04T10:35:24Z</time>
      </trkpt>
      <trkpt lat="42.626822" lon="0.460117">
        <ele>2013.000000</ele>
        <time>2021-09-04T10:35:25Z</time>
      </trkpt>
      <trkpt lat="42.626817" lon="0.460121">
        <ele>2013.000000</ele>
        <time>2021-09-04T10:35:26Z</time>
      </trkpt>
      <trkpt lat="42.626807" lon="0.460126">
        <ele>2013.000000</ele>
        <time>2021-09-04T10:35:27Z</time>
      </trkpt>
      <trkpt lat="42.626798" lon="0.460130">
        <ele>2013.000000</ele>
        <time>2021-09-04T10:35:28Z</time>
      </trkpt>
      <trkpt lat="42.626795" lon="0.460130">
        <ele>2013.000000</ele>
        <time>2021-09-04T10:35:29Z</time>
      </trkpt>
      <trkpt lat="42.626795" lon="0.460129">
        <ele>2013.000000</ele>
        <time>2021-09-04T10:35:30Z</time>
      </trkpt>
      <trkpt lat="42.626792" lon="0.460128">
        <ele>2014.000000</ele>
        <time>2021-09-04T10:35:31Z</time>
      </trkpt>
      <trkpt lat="42.626788" lon="0.460113">
        <ele>2014.000000</ele>
        <time>2021-09-04T10:35:32Z</time>
      </trkpt>
      <trkpt lat="42.626785" lon="0.460113">
        <ele>2014.000000</ele>
        <time>2021-09-04T10:35:33Z</time>
      </trkpt>
      <trkpt lat="42.626780" lon="0.460113">
        <ele>2014.000000</ele>
        <time>2021-09-04T10:35:34Z</time>
      </trkpt>
      <trkpt lat="42.626773" lon="0.460117">
        <ele>2014.000000</ele>
        <time>2021-09-04T10:35:35Z</time>
      </trkpt>
      <trkpt lat="42.626770" lon="0.460115">
        <ele>2014.000000</ele>
        <time>2021-09-04T10:35:36Z</time>
      </trkpt>
      <trkpt lat="42.626770" lon="0.460118">
        <ele>2015.000000</ele>
        <time>2021-09-04T10:35:37Z</time>
      </trkpt>
      <trkpt lat="42.626768" lon="0.460122">
        <ele>2015.000000</ele>
        <time>2021-09-04T10:35:38Z</time>
      </trkpt>
      <trkpt lat="42.626767" lon="0.460125">
        <ele>2015.000000</ele>
        <time>2021-09-04T10:35:39Z</time>
      </trkpt>
      <trkpt lat="42.626763" lon="0.460127">
        <ele>2015.000000</ele>
        <time>2021-09-04T10:35:40Z</time>
      </trkpt>
      <trkpt lat="42.626762" lon="0.460123">
        <ele>2015.000000</ele>
        <time>2021-09-04T10:35:41Z</time>
      </trkpt>
      <trkpt lat="42.626758" lon="0.460114">
        <ele>2015.000000</ele>
        <time>2021-09-04T10:35:42Z</time>
      </trkpt>
      <trkpt lat="42.626753" lon="0.460109">
        <ele>2016.000000</ele>
        <time>2021-09-04T10:35:43Z</time>
      </trkpt>
      <trkpt lat="42.626753" lon="0.460111">
        <ele>2016.000000</ele>
        <time>2021-09-04T10:35:44Z</time>
      </trkpt>
      <trkpt lat="42.626752" lon="0.460113">
        <ele>2016.000000</ele>
        <time>2021-09-04T10:35:45Z</time>
      </trkpt>
      <trkpt lat="42.626745" lon="0.460115">
        <ele>2016.000000</ele>
        <time>2021-09-04T10:35:46Z</time>
      </trkpt>
      <trkpt lat="42.626742" lon="0.460132">
        <ele>2016.000000</ele>
        <time>2021-09-04T10:35:47Z</time>
      </trkpt>
      <trkpt lat="42.626743" lon="0.460133">
        <ele>2016.000000</ele>
        <time>2021-09-04T10:35:48Z</time>
      </trkpt>
      <trkpt lat="42.626740" lon="0.460137">
        <ele>2016.000000</ele>
        <time>2021-09-04T10:35:49Z</time>
      </trkpt>
      <trkpt lat="42.626730" lon="0.460145">
        <ele>2016.000000</ele>
        <time>2021-09-04T10:35:50Z</time>
      </trkpt>
      <trkpt lat="42.626722" lon="0.460150">
        <ele>2016.000000</ele>
        <time>2021-09-04T10:35:51Z</time>
      </trkpt>
      <trkpt lat="42.626713" lon="0.460152">
        <ele>2016.000000</ele>
        <time>2021-09-04T10:35:52Z</time>
      </trkpt>
      <trkpt lat="42.626708" lon="0.460152">
        <ele>2016.000000</ele>
        <time>2021-09-04T10:35:53Z</time>
      </trkpt>
      <trkpt lat="42.626702" lon="0.460148">
        <ele>2017.000000</ele>
        <time>2021-09-04T10:35:54Z</time>
      </trkpt>
      <trkpt lat="42.626700" lon="0.460137">
        <ele>2017.000000</ele>
        <time>2021-09-04T10:35:55Z</time>
      </trkpt>
      <trkpt lat="42.626702" lon="0.460122">
        <ele>2017.000000</ele>
        <time>2021-09-04T10:35:56Z</time>
      </trkpt>
      <trkpt lat="42.626700" lon="0.460112">
        <ele>2018.000000</ele>
        <time>2021-09-04T10:35:57Z</time>
      </trkpt>
      <trkpt lat="42.626698" lon="0.460102">
        <ele>2018.000000</ele>
        <time>2021-09-04T10:35:58Z</time>
      </trkpt>
      <trkpt lat="42.626695" lon="0.460095">
        <ele>2018.000000</ele>
        <time>2021-09-04T10:35:59Z</time>
      </trkpt>
      <trkpt lat="42.626693" lon="0.460090">
        <ele>2018.000000</ele>
        <time>2021-09-04T10:36:00Z</time>
      </trkpt>
      <trkpt lat="42.626691" lon="0.460087">
        <ele>2018.000000</ele>
        <time>2021-09-04T10:36:01Z</time>
      </trkpt>
      <trkpt lat="42.626690" lon="0.460088">
        <ele>2019.000000</ele>
        <time>2021-09-04T10:36:02Z</time>
      </trkpt>
      <trkpt lat="42.626683" lon="0.460088">
        <ele>2019.000000</ele>
        <time>2021-09-04T10:36:03Z</time>
      </trkpt>
      <trkpt lat="42.626680" lon="0.460087">
        <ele>2019.000000</ele>
        <time>2021-09-04T10:36:04Z</time>
      </trkpt>
      <trkpt lat="42.626678" lon="0.460089">
        <ele>2019.000000</ele>
        <time>2021-09-04T10:36:05Z</time>
      </trkpt>
      <trkpt lat="42.626673" lon="0.460092">
        <ele>2020.000000</ele>
        <time>2021-09-04T10:36:07Z</time>
      </trkpt>
      <trkpt lat="42.626668" lon="0.460097">
        <ele>2020.000000</ele>
        <time>2021-09-04T10:36:08Z</time>
      </trkpt>
      <trkpt lat="42.626665" lon="0.460105">
        <ele>2020.000000</ele>
        <time>2021-09-04T10:36:09Z</time>
      </trkpt>
      <trkpt lat="42.626660" lon="0.460112">
        <ele>2020.000000</ele>
        <time>2021-09-04T10:36:10Z</time>
      </trkpt>
      <trkpt lat="42.626657" lon="0.460115">
        <ele>2020.000000</ele>
        <time>2021-09-04T10:36:11Z</time>
      </trkpt>
      <trkpt lat="42.626653" lon="0.460118">
        <ele>2020.000000</ele>
        <time>2021-09-04T10:36:12Z</time>
      </trkpt>
      <trkpt lat="42.626652" lon="0.460123">
        <ele>2020.000000</ele>
        <time>2021-09-04T10:36:13Z</time>
      </trkpt>
      <trkpt lat="42.626653" lon="0.460133">
        <ele>2020.000000</ele>
        <time>2021-09-04T10:36:14Z</time>
      </trkpt>
      <trkpt lat="42.626655" lon="0.460138">
        <ele>2020.000000</ele>
        <time>2021-09-04T10:36:15Z</time>
      </trkpt>
      <trkpt lat="42.626654" lon="0.460132">
        <ele>2020.000000</ele>
        <time>2021-09-04T10:36:16Z</time>
      </trkpt>
      <trkpt lat="42.626648" lon="0.460123">
        <ele>2020.000000</ele>
        <time>2021-09-04T10:36:17Z</time>
      </trkpt>
      <trkpt lat="42.626644" lon="0.460117">
        <ele>2021.000000</ele>
        <time>2021-09-04T10:36:18Z</time>
      </trkpt>
      <trkpt lat="42.626642" lon="0.460113">
        <ele>2021.000000</ele>
        <time>2021-09-04T10:36:19Z</time>
      </trkpt>
      <trkpt lat="42.626646" lon="0.460122">
        <ele>2021.000000</ele>
        <time>2021-09-04T10:36:20Z</time>
      </trkpt>
      <trkpt lat="42.626638" lon="0.460125">
        <ele>2021.000000</ele>
        <time>2021-09-04T10:36:21Z</time>
      </trkpt>
      <trkpt lat="42.626630" lon="0.460123">
        <ele>2021.000000</ele>
        <time>2021-09-04T10:36:22Z</time>
      </trkpt>
      <trkpt lat="42.626625" lon="0.460123">
        <ele>2021.000000</ele>
        <time>2021-09-04T10:36:23Z</time>
      </trkpt>
      <trkpt lat="42.626618" lon="0.460120">
        <ele>2021.000000</ele>
        <time>2021-09-04T10:36:24Z</time>
      </trkpt>
      <trkpt lat="42.626615" lon="0.460116">
        <ele>2021.000000</ele>
        <time>2021-09-04T10:36:25Z</time>
      </trkpt>
      <trkpt lat="42.626617" lon="0.460116">
        <ele>2021.000000</ele>
        <time>2021-09-04T10:36:26Z</time>
      </trkpt>
      <trkpt lat="42.626613" lon="0.460107">
        <ele>2021.000000</ele>
        <time>2021-09-04T10:36:27Z</time>
      </trkpt>
      <trkpt lat="42.626610" lon="0.460107">
        <ele>2021.000000</ele>
        <time>2021-09-04T10:36:28Z</time>
      </trkpt>
      <trkpt lat="42.626605" lon="0.460105">
        <ele>2022.000000</ele>
        <time>2021-09-04T10:36:29Z</time>
      </trkpt>
      <trkpt lat="42.626602" lon="0.460110">
        <ele>2022.000000</ele>
        <time>2021-09-04T10:36:30Z</time>
      </trkpt>
      <trkpt lat="42.626598" lon="0.460110">
        <ele>2022.000000</ele>
        <time>2021-09-04T10:36:31Z</time>
      </trkpt>
      <trkpt lat="42.626598" lon="0.460103">
        <ele>2022.000000</ele>
        <time>2021-09-04T10:36:32Z</time>
      </trkpt>
      <trkpt lat="42.626592" lon="0.460092">
        <ele>2022.000000</ele>
        <time>2021-09-04T10:36:33Z</time>
      </trkpt>
      <trkpt lat="42.626587" lon="0.460085">
        <ele>2023.000000</ele>
        <time>2021-09-04T10:36:34Z</time>
      </trkpt>
      <trkpt lat="42.626583" lon="0.460080">
        <ele>2023.000000</ele>
        <time>2021-09-04T10:36:35Z</time>
      </trkpt>
      <trkpt lat="42.626590" lon="0.460078">
        <ele>2023.000000</ele>
        <time>2021-09-04T10:36:36Z</time>
      </trkpt>
      <trkpt lat="42.626593" lon="0.460072">
        <ele>2023.000000</ele>
        <time>2021-09-04T10:36:37Z</time>
      </trkpt>
      <trkpt lat="42.626597" lon="0.460067">
        <ele>2023.000000</ele>
        <time>2021-09-04T10:36:38Z</time>
      </trkpt>
      <trkpt lat="42.626598" lon="0.460055">
        <ele>2023.000000</ele>
        <time>2021-09-04T10:36:39Z</time>
      </trkpt>
      <trkpt lat="42.626593" lon="0.460047">
        <ele>2023.000000</ele>
        <time>2021-09-04T10:36:40Z</time>
      </trkpt>
      <trkpt lat="42.626598" lon="0.460045">
        <ele>2024.000000</ele>
        <time>2021-09-04T10:36:41Z</time>
      </trkpt>
      <trkpt lat="42.626597" lon="0.460037">
        <ele>2024.000000</ele>
        <time>2021-09-04T10:36:42Z</time>
      </trkpt>
      <trkpt lat="42.626588" lon="0.460033">
        <ele>2024.000000</ele>
        <time>2021-09-04T10:36:43Z</time>
      </trkpt>
      <trkpt lat="42.626595" lon="0.460037">
        <ele>2025.000000</ele>
        <time>2021-09-04T10:36:45Z</time>
      </trkpt>
      <trkpt lat="42.626593" lon="0.460033">
        <ele>2025.000000</ele>
        <time>2021-09-04T10:36:46Z</time>
      </trkpt>
      <trkpt lat="42.626598" lon="0.460027">
        <ele>2025.000000</ele>
        <time>2021-09-04T10:36:47Z</time>
      </trkpt>
      <trkpt lat="42.626597" lon="0.460017">
        <ele>2025.000000</ele>
        <time>2021-09-04T10:36:48Z</time>
      </trkpt>
      <trkpt lat="42.626595" lon="0.460010">
        <ele>2025.000000</ele>
        <time>2021-09-04T10:36:49Z</time>
      </trkpt>
      <trkpt lat="42.626597" lon="0.460007">
        <ele>2025.000000</ele>
        <time>2021-09-04T10:36:50Z</time>
      </trkpt>
      <trkpt lat="42.626598" lon="0.460000">
        <ele>2025.000000</ele>
        <time>2021-09-04T10:36:51Z</time>
      </trkpt>
      <trkpt lat="42.626600" lon="0.459997">
        <ele>2025.000000</ele>
        <time>2021-09-04T10:36:52Z</time>
      </trkpt>
      <trkpt lat="42.626605" lon="0.459998">
        <ele>2025.000000</ele>
        <time>2021-09-04T10:36:53Z</time>
      </trkpt>
      <trkpt lat="42.626607" lon="0.459985">
        <ele>2026.000000</ele>
        <time>2021-09-04T10:36:54Z</time>
      </trkpt>
      <trkpt lat="42.626605" lon="0.459975">
        <ele>2026.000000</ele>
        <time>2021-09-04T10:36:55Z</time>
      </trkpt>
      <trkpt lat="42.626607" lon="0.459967">
        <ele>2026.000000</ele>
        <time>2021-09-04T10:36:56Z</time>
      </trkpt>
      <trkpt lat="42.626608" lon="0.459955">
        <ele>2026.000000</ele>
        <time>2021-09-04T10:36:57Z</time>
      </trkpt>
      <trkpt lat="42.626611" lon="0.459945">
        <ele>2026.000000</ele>
        <time>2021-09-04T10:36:58Z</time>
      </trkpt>
      <trkpt lat="42.626613" lon="0.459937">
        <ele>2026.000000</ele>
        <time>2021-09-04T10:36:59Z</time>
      </trkpt>
      <trkpt lat="42.626614" lon="0.459932">
        <ele>2027.000000</ele>
        <time>2021-09-04T10:37:00Z</time>
      </trkpt>
      <trkpt lat="42.626616" lon="0.459925">
        <ele>2027.000000</ele>
        <time>2021-09-04T10:37:01Z</time>
      </trkpt>
      <trkpt lat="42.626625" lon="0.459923">
        <ele>2027.000000</ele>
        <time>2021-09-04T10:37:02Z</time>
      </trkpt>
      <trkpt lat="42.626633" lon="0.459918">
        <ele>2027.000000</ele>
        <time>2021-09-04T10:37:03Z</time>
      </trkpt>
      <trkpt lat="42.626638" lon="0.459922">
        <ele>2027.000000</ele>
        <time>2021-09-04T10:37:04Z</time>
      </trkpt>
      <trkpt lat="42.626637" lon="0.459920">
        <ele>2027.000000</ele>
        <time>2021-09-04T10:37:05Z</time>
      </trkpt>
      <trkpt lat="42.626635" lon="0.459918">
        <ele>2027.000000</ele>
        <time>2021-09-04T10:37:06Z</time>
      </trkpt>
      <trkpt lat="42.626633" lon="0.459921">
        <ele>2027.000000</ele>
        <time>2021-09-04T10:37:07Z</time>
      </trkpt>
      <trkpt lat="42.626637" lon="0.459918">
        <ele>2027.000000</ele>
        <time>2021-09-04T10:37:10Z</time>
      </trkpt>
      <trkpt lat="42.626638" lon="0.459914">
        <ele>2027.000000</ele>
        <time>2021-09-04T10:37:11Z</time>
      </trkpt>
      <trkpt lat="42.626640" lon="0.459902">
        <ele>2027.000000</ele>
        <time>2021-09-04T10:37:12Z</time>
      </trkpt>
      <trkpt lat="42.626643" lon="0.459892">
        <ele>2027.000000</ele>
        <time>2021-09-04T10:37:13Z</time>
      </trkpt>
      <trkpt lat="42.626652" lon="0.459875">
        <ele>2027.000000</ele>
        <time>2021-09-04T10:37:14Z</time>
      </trkpt>
      <trkpt lat="42.626658" lon="0.459858">
        <ele>2028.000000</ele>
        <time>2021-09-04T10:37:15Z</time>
      </trkpt>
      <trkpt lat="42.626670" lon="0.459842">
        <ele>2028.000000</ele>
        <time>2021-09-04T10:37:16Z</time>
      </trkpt>
      <trkpt lat="42.626673" lon="0.459832">
        <ele>2028.000000</ele>
        <time>2021-09-04T10:37:17Z</time>
      </trkpt>
      <trkpt lat="42.626671" lon="0.459830">
        <ele>2028.000000</ele>
        <time>2021-09-04T10:37:18Z</time>
      </trkpt>
      <trkpt lat="42.626669" lon="0.459830">
        <ele>2028.000000</ele>
        <time>2021-09-04T10:37:19Z</time>
      </trkpt>
      <trkpt lat="42.626660" lon="0.459830">
        <ele>2028.000000</ele>
        <time>2021-09-04T10:37:20Z</time>
      </trkpt>
      <trkpt lat="42.626653" lon="0.459830">
        <ele>2028.000000</ele>
        <time>2021-09-04T10:37:21Z</time>
      </trkpt>
      <trkpt lat="42.626648" lon="0.459828">
        <ele>2028.000000</ele>
        <time>2021-09-04T10:37:22Z</time>
      </trkpt>
      <trkpt lat="42.626645" lon="0.459828">
        <ele>2028.000000</ele>
        <time>2021-09-04T10:37:23Z</time>
      </trkpt>
      <trkpt lat="42.626640" lon="0.459825">
        <ele>2028.000000</ele>
        <time>2021-09-04T10:37:24Z</time>
      </trkpt>
      <trkpt lat="42.626635" lon="0.459822">
        <ele>2029.000000</ele>
        <time>2021-09-04T10:37:25Z</time>
      </trkpt>
      <trkpt lat="42.626633" lon="0.459823">
        <ele>2029.000000</ele>
        <time>2021-09-04T10:37:26Z</time>
      </trkpt>
      <trkpt lat="42.626630" lon="0.459822">
        <ele>2029.000000</ele>
        <time>2021-09-04T10:37:27Z</time>
      </trkpt>
      <trkpt lat="42.626623" lon="0.459823">
        <ele>2029.000000</ele>
        <time>2021-09-04T10:37:28Z</time>
      </trkpt>
      <trkpt lat="42.626618" lon="0.459825">
        <ele>2029.000000</ele>
        <time>2021-09-04T10:37:29Z</time>
      </trkpt>
      <trkpt lat="42.626613" lon="0.459825">
        <ele>2029.000000</ele>
        <time>2021-09-04T10:37:30Z</time>
      </trkpt>
      <trkpt lat="42.626608" lon="0.459828">
        <ele>2030.000000</ele>
        <time>2021-09-04T10:37:32Z</time>
      </trkpt>
      <trkpt lat="42.626603" lon="0.459823">
        <ele>2030.000000</ele>
        <time>2021-09-04T10:37:32Z</time>
      </trkpt>
      <trkpt lat="42.626595" lon="0.459827">
        <ele>2030.000000</ele>
        <time>2021-09-04T10:37:33Z</time>
      </trkpt>
      <trkpt lat="42.626590" lon="0.459831">
        <ele>2030.000000</ele>
        <time>2021-09-04T10:37:34Z</time>
      </trkpt>
      <trkpt lat="42.626583" lon="0.459840">
        <ele>2030.000000</ele>
        <time>2021-09-04T10:37:35Z</time>
      </trkpt>
      <trkpt lat="42.626577" lon="0.459845">
        <ele>2030.000000</ele>
        <time>2021-09-04T10:37:36Z</time>
      </trkpt>
      <trkpt lat="42.626565" lon="0.459846">
        <ele>2030.000000</ele>
        <time>2021-09-04T10:37:37Z</time>
      </trkpt>
      <trkpt lat="42.626557" lon="0.459850">
        <ele>2031.000000</ele>
        <time>2021-09-04T10:37:38Z</time>
      </trkpt>
      <trkpt lat="42.626548" lon="0.459855">
        <ele>2031.000000</ele>
        <time>2021-09-04T10:37:39Z</time>
      </trkpt>
      <trkpt lat="42.626540" lon="0.459859">
        <ele>2031.000000</ele>
        <time>2021-09-04T10:37:40Z</time>
      </trkpt>
      <trkpt lat="42.626533" lon="0.459860">
        <ele>2031.000000</ele>
        <time>2021-09-04T10:37:41Z</time>
      </trkpt>
      <trkpt lat="42.626528" lon="0.459859">
        <ele>2031.000000</ele>
        <time>2021-09-04T10:37:42Z</time>
      </trkpt>
      <trkpt lat="42.626527" lon="0.459854">
        <ele>2032.000000</ele>
        <time>2021-09-04T10:37:43Z</time>
      </trkpt>
      <trkpt lat="42.626527" lon="0.459849">
        <ele>2032.000000</ele>
        <time>2021-09-04T10:37:44Z</time>
      </trkpt>
      <trkpt lat="42.626528" lon="0.459820">
        <ele>2032.000000</ele>
        <time>2021-09-04T10:37:45Z</time>
      </trkpt>
      <trkpt lat="42.626533" lon="0.459805">
        <ele>2032.000000</ele>
        <time>2021-09-04T10:37:46Z</time>
      </trkpt>
      <trkpt lat="42.626538" lon="0.459797">
        <ele>2032.000000</ele>
        <time>2021-09-04T10:37:47Z</time>
      </trkpt>
      <trkpt lat="42.626547" lon="0.459790">
        <ele>2033.000000</ele>
        <time>2021-09-04T10:37:48Z</time>
      </trkpt>
      <trkpt lat="42.626548" lon="0.459782">
        <ele>2033.000000</ele>
        <time>2021-09-04T10:37:49Z</time>
      </trkpt>
      <trkpt lat="42.626553" lon="0.459775">
        <ele>2033.000000</ele>
        <time>2021-09-04T10:37:50Z</time>
      </trkpt>
      <trkpt lat="42.626553" lon="0.459762">
        <ele>2033.000000</ele>
        <time>2021-09-04T10:37:51Z</time>
      </trkpt>
      <trkpt lat="42.626552" lon="0.459748">
        <ele>2033.000000</ele>
        <time>2021-09-04T10:37:52Z</time>
      </trkpt>
      <trkpt lat="42.626552" lon="0.459740">
        <ele>2033.000000</ele>
        <time>2021-09-04T10:37:54Z</time>
      </trkpt>
      <trkpt lat="42.626555" lon="0.459733">
        <ele>2033.000000</ele>
        <time>2021-09-04T10:37:55Z</time>
      </trkpt>
      <trkpt lat="42.626557" lon="0.459728">
        <ele>2033.000000</ele>
        <time>2021-09-04T10:37:56Z</time>
      </trkpt>
      <trkpt lat="42.626563" lon="0.459730">
        <ele>2033.000000</ele>
        <time>2021-09-04T10:37:57Z</time>
      </trkpt>
      <trkpt lat="42.626570" lon="0.459722">
        <ele>2033.000000</ele>
        <time>2021-09-04T10:37:58Z</time>
      </trkpt>
      <trkpt lat="42.626575" lon="0.459711">
        <ele>2033.000000</ele>
        <time>2021-09-04T10:37:59Z</time>
      </trkpt>
      <trkpt lat="42.626582" lon="0.459704">
        <ele>2033.000000</ele>
        <time>2021-09-04T10:38:00Z</time>
      </trkpt>
      <trkpt lat="42.626587" lon="0.459697">
        <ele>2033.000000</ele>
        <time>2021-09-04T10:38:01Z</time>
      </trkpt>
      <trkpt lat="42.626588" lon="0.459690">
        <ele>2034.000000</ele>
        <time>2021-09-04T10:38:02Z</time>
      </trkpt>
      <trkpt lat="42.626587" lon="0.459683">
        <ele>2034.000000</ele>
        <time>2021-09-04T10:38:03Z</time>
      </trkpt>
      <trkpt lat="42.626588" lon="0.459678">
        <ele>2034.000000</ele>
        <time>2021-09-04T10:38:05Z</time>
      </trkpt>
      <trkpt lat="42.626587" lon="0.459675">
        <ele>2034.000000</ele>
        <time>2021-09-04T10:38:06Z</time>
      </trkpt>
      <trkpt lat="42.626592" lon="0.459665">
        <ele>2034.000000</ele>
        <time>2021-09-04T10:38:07Z</time>
      </trkpt>
      <trkpt lat="42.626592" lon="0.459658">
        <ele>2034.000000</ele>
        <time>2021-09-04T10:38:09Z</time>
      </trkpt>
      <trkpt lat="42.626595" lon="0.459658">
        <ele>2034.000000</ele>
        <time>2021-09-04T10:38:10Z</time>
      </trkpt>
      <trkpt lat="42.626600" lon="0.459663">
        <ele>2035.000000</ele>
        <time>2021-09-04T10:38:11Z</time>
      </trkpt>
      <trkpt lat="42.626598" lon="0.459667">
        <ele>2035.000000</ele>
        <time>2021-09-04T10:38:12Z</time>
      </trkpt>
      <trkpt lat="42.626602" lon="0.459663">
        <ele>2035.000000</ele>
        <time>2021-09-04T10:38:13Z</time>
      </trkpt>
      <trkpt lat="42.626602" lon="0.459661">
        <ele>2035.000000</ele>
        <time>2021-09-04T10:38:14Z</time>
      </trkpt>
      <trkpt lat="42.626598" lon="0.459662">
        <ele>2035.000000</ele>
        <time>2021-09-04T10:38:15Z</time>
      </trkpt>
      <trkpt lat="42.626598" lon="0.459663">
        <ele>2035.000000</ele>
        <time>2021-09-04T10:38:16Z</time>
      </trkpt>
      <trkpt lat="42.626577" lon="0.459522">
        <ele>2039.000000</ele>
        <time>2021-09-04T10:38:46Z</time>
      </trkpt>
      <trkpt lat="42.626572" lon="0.459518">
        <ele>2039.000000</ele>
        <time>2021-09-04T10:38:47Z</time>
      </trkpt>
      <trkpt lat="42.626573" lon="0.459512">
        <ele>2039.000000</ele>
        <time>2021-09-04T10:38:48Z</time>
      </trkpt>
      <trkpt lat="42.626572" lon="0.459505">
        <ele>2039.000000</ele>
        <time>2021-09-04T10:38:49Z</time>
      </trkpt>
      <trkpt lat="42.626577" lon="0.459502">
        <ele>2040.000000</ele>
        <time>2021-09-04T10:38:50Z</time>
      </trkpt>
      <trkpt lat="42.626578" lon="0.459497">
        <ele>2040.000000</ele>
        <time>2021-09-04T10:38:51Z</time>
      </trkpt>
      <trkpt lat="42.626580" lon="0.459495">
        <ele>2040.000000</ele>
        <time>2021-09-04T10:38:52Z</time>
      </trkpt>
      <trkpt lat="42.626578" lon="0.459490">
        <ele>2040.000000</ele>
        <time>2021-09-04T10:38:54Z</time>
      </trkpt>
      <trkpt lat="42.626577" lon="0.459488">
        <ele>2040.000000</ele>
        <time>2021-09-04T10:38:56Z</time>
      </trkpt>
      <trkpt lat="42.626574" lon="0.459487">
        <ele>2041.000000</ele>
        <time>2021-09-04T10:38:57Z</time>
      </trkpt>
      <trkpt lat="42.626571" lon="0.459478">
        <ele>2041.000000</ele>
        <time>2021-09-04T10:38:58Z</time>
      </trkpt>
      <trkpt lat="42.626572" lon="0.459468">
        <ele>2041.000000</ele>
        <time>2021-09-04T10:38:59Z</time>
      </trkpt>
      <trkpt lat="42.626572" lon="0.459465">
        <ele>2041.000000</ele>
        <time>2021-09-04T10:39:00Z</time>
      </trkpt>
      <trkpt lat="42.626573" lon="0.459462">
        <ele>2041.000000</ele>
        <time>2021-09-04T10:39:01Z</time>
      </trkpt>
      <trkpt lat="42.626575" lon="0.459463">
        <ele>2041.000000</ele>
        <time>2021-09-04T10:39:02Z</time>
      </trkpt>
      <trkpt lat="42.626576" lon="0.459465">
        <ele>2041.000000</ele>
        <time>2021-09-04T10:39:04Z</time>
      </trkpt>
      <trkpt lat="42.626581" lon="0.459455">
        <ele>2042.000000</ele>
        <time>2021-09-04T10:39:05Z</time>
      </trkpt>
      <trkpt lat="42.626584" lon="0.459455">
        <ele>2042.000000</ele>
        <time>2021-09-04T10:39:06Z</time>
      </trkpt>
      <trkpt lat="42.626603" lon="0.459452">
        <ele>2042.000000</ele>
        <time>2021-09-04T10:39:07Z</time>
      </trkpt>
      <trkpt lat="42.626610" lon="0.459455">
        <ele>2042.000000</ele>
        <time>2021-09-04T10:39:08Z</time>
      </trkpt>
      <trkpt lat="42.626617" lon="0.459452">
        <ele>2042.000000</ele>
        <time>2021-09-04T10:39:09Z</time>
      </trkpt>
      <trkpt lat="42.626620" lon="0.459450">
        <ele>2042.000000</ele>
        <time>2021-09-04T10:39:10Z</time>
      </trkpt>
      <trkpt lat="42.626622" lon="0.459449">
        <ele>2042.000000</ele>
        <time>2021-09-04T10:39:11Z</time>
      </trkpt>
      <trkpt lat="42.626623" lon="0.459446">
        <ele>2042.000000</ele>
        <time>2021-09-04T10:39:12Z</time>
      </trkpt>
      <trkpt lat="42.626628" lon="0.459445">
        <ele>2043.000000</ele>
        <time>2021-09-04T10:39:13Z</time>
      </trkpt>
      <trkpt lat="42.626637" lon="0.459444">
        <ele>2043.000000</ele>
        <time>2021-09-04T10:39:14Z</time>
      </trkpt>
      <trkpt lat="42.626643" lon="0.459445">
        <ele>2043.000000</ele>
        <time>2021-09-04T10:39:16Z</time>
      </trkpt>
      <trkpt lat="42.626653" lon="0.459443">
        <ele>2043.000000</ele>
        <time>2021-09-04T10:39:17Z</time>
      </trkpt>
      <trkpt lat="42.626657" lon="0.459441">
        <ele>2043.000000</ele>
        <time>2021-09-04T10:39:17Z</time>
      </trkpt>
      <trkpt lat="42.626658" lon="0.459439">
        <ele>2043.000000</ele>
        <time>2021-09-04T10:39:18Z</time>
      </trkpt>
      <trkpt lat="42.626662" lon="0.459435">
        <ele>2043.000000</ele>
        <time>2021-09-04T10:39:19Z</time>
      </trkpt>
      <trkpt lat="42.626668" lon="0.459428">
        <ele>2043.000000</ele>
        <time>2021-09-04T10:39:20Z</time>
      </trkpt>
      <trkpt lat="42.626670" lon="0.459415">
        <ele>2043.000000</ele>
        <time>2021-09-04T10:39:21Z</time>
      </trkpt>
      <trkpt lat="42.626667" lon="0.459413">
        <ele>2044.000000</ele>
        <time>2021-09-04T10:39:23Z</time>
      </trkpt>
      <trkpt lat="42.626662" lon="0.459408">
        <ele>2044.000000</ele>
        <time>2021-09-04T10:39:24Z</time>
      </trkpt>
      <trkpt lat="42.626660" lon="0.459403">
        <ele>2044.000000</ele>
        <time>2021-09-04T10:39:25Z</time>
      </trkpt>
      <trkpt lat="42.626653" lon="0.459402">
        <ele>2044.000000</ele>
        <time>2021-09-04T10:39:26Z</time>
      </trkpt>
      <trkpt lat="42.626645" lon="0.459398">
        <ele>2044.000000</ele>
        <time>2021-09-04T10:39:27Z</time>
      </trkpt>
      <trkpt lat="42.626643" lon="0.459395">
        <ele>2044.000000</ele>
        <time>2021-09-04T10:39:28Z</time>
      </trkpt>
      <trkpt lat="42.626642" lon="0.459385">
        <ele>2045.000000</ele>
        <time>2021-09-04T10:39:29Z</time>
      </trkpt>
      <trkpt lat="42.626641" lon="0.459378">
        <ele>2045.000000</ele>
        <time>2021-09-04T10:39:30Z</time>
      </trkpt>
      <trkpt lat="42.626645" lon="0.459373">
        <ele>2045.000000</ele>
        <time>2021-09-04T10:39:31Z</time>
      </trkpt>
      <trkpt lat="42.626652" lon="0.459368">
        <ele>2045.000000</ele>
        <time>2021-09-04T10:39:32Z</time>
      </trkpt>
      <trkpt lat="42.626657" lon="0.459367">
        <ele>2045.000000</ele>
        <time>2021-09-04T10:39:33Z</time>
      </trkpt>
      <trkpt lat="42.626660" lon="0.459368">
        <ele>2045.000000</ele>
        <time>2021-09-04T10:39:34Z</time>
      </trkpt>
      <trkpt lat="42.626663" lon="0.459368">
        <ele>2046.000000</ele>
        <time>2021-09-04T10:39:35Z</time>
      </trkpt>
      <trkpt lat="42.626667" lon="0.459365">
        <ele>2046.000000</ele>
        <time>2021-09-04T10:39:36Z</time>
      </trkpt>
      <trkpt lat="42.626667" lon="0.459366">
        <ele>2047.000000</ele>
        <time>2021-09-04T10:39:38Z</time>
      </trkpt>
      <trkpt lat="42.626663" lon="0.459365">
        <ele>2047.000000</ele>
        <time>2021-09-04T10:39:39Z</time>
      </trkpt>
      <trkpt lat="42.626663" lon="0.459363">
        <ele>2047.000000</ele>
        <time>2021-09-04T10:39:40Z</time>
      </trkpt>
      <trkpt lat="42.626667" lon="0.459364">
        <ele>2047.000000</ele>
        <time>2021-09-04T10:39:41Z</time>
      </trkpt>
      <trkpt lat="42.626670" lon="0.459356">
        <ele>2047.000000</ele>
        <time>2021-09-04T10:39:42Z</time>
      </trkpt>
      <trkpt lat="42.626672" lon="0.459343">
        <ele>2047.000000</ele>
        <time>2021-09-04T10:39:43Z</time>
      </trkpt>
      <trkpt lat="42.626677" lon="0.459335">
        <ele>2047.000000</ele>
        <time>2021-09-04T10:39:44Z</time>
      </trkpt>
      <trkpt lat="42.626677" lon="0.459330">
        <ele>2047.000000</ele>
        <time>2021-09-04T10:39:45Z</time>
      </trkpt>
      <trkpt lat="42.626677" lon="0.459325">
        <ele>2048.000000</ele>
        <time>2021-09-04T10:39:47Z</time>
      </trkpt>
      <trkpt lat="42.626677" lon="0.459317">
        <ele>2048.000000</ele>
        <time>2021-09-04T10:39:47Z</time>
      </trkpt>
      <trkpt lat="42.626677" lon="0.459308">
        <ele>2048.000000</ele>
        <time>2021-09-04T10:39:48Z</time>
      </trkpt>
      <trkpt lat="42.626672" lon="0.459298">
        <ele>2048.000000</ele>
        <time>2021-09-04T10:39:49Z</time>
      </trkpt>
      <trkpt lat="42.626672" lon="0.459293">
        <ele>2048.000000</ele>
        <time>2021-09-04T10:39:50Z</time>
      </trkpt>
      <trkpt lat="42.626676" lon="0.459287">
        <ele>2048.000000</ele>
        <time>2021-09-04T10:39:51Z</time>
      </trkpt>
      <trkpt lat="42.626677" lon="0.459275">
        <ele>2048.000000</ele>
        <time>2021-09-04T10:39:52Z</time>
      </trkpt>
      <trkpt lat="42.626679" lon="0.459272">
        <ele>2048.000000</ele>
        <time>2021-09-04T10:39:53Z</time>
      </trkpt>
      <trkpt lat="42.626681" lon="0.459268">
        <ele>2049.000000</ele>
        <time>2021-09-04T10:39:54Z</time>
      </trkpt>
      <trkpt lat="42.626683" lon="0.459263">
        <ele>2049.000000</ele>
        <time>2021-09-04T10:39:55Z</time>
      </trkpt>
      <trkpt lat="42.626688" lon="0.459252">
        <ele>2049.000000</ele>
        <time>2021-09-04T10:39:56Z</time>
      </trkpt>
      <trkpt lat="42.626690" lon="0.459238">
        <ele>2049.000000</ele>
        <time>2021-09-04T10:39:57Z</time>
      </trkpt>
      <trkpt lat="42.626694" lon="0.459223">
        <ele>2049.000000</ele>
        <time>2021-09-04T10:39:58Z</time>
      </trkpt>
      <trkpt lat="42.626697" lon="0.459210">
        <ele>2049.000000</ele>
        <time>2021-09-04T10:39:59Z</time>
      </trkpt>
      <trkpt lat="42.626700" lon="0.459200">
        <ele>2049.000000</ele>
        <time>2021-09-04T10:40:00Z</time>
      </trkpt>
      <trkpt lat="42.626703" lon="0.459193">
        <ele>2049.000000</ele>
        <time>2021-09-04T10:40:01Z</time>
      </trkpt>
      <trkpt lat="42.626705" lon="0.459192">
        <ele>2049.000000</ele>
        <time>2021-09-04T10:40:02Z</time>
      </trkpt>
      <trkpt lat="42.626717" lon="0.459185">
        <ele>2049.000000</ele>
        <time>2021-09-04T10:40:03Z</time>
      </trkpt>
      <trkpt lat="42.626725" lon="0.459182">
        <ele>2049.000000</ele>
        <time>2021-09-04T10:40:04Z</time>
      </trkpt>
      <trkpt lat="42.626728" lon="0.459177">
        <ele>2049.000000</ele>
        <time>2021-09-04T10:40:05Z</time>
      </trkpt>
      <trkpt lat="42.626737" lon="0.459172">
        <ele>2049.000000</ele>
        <time>2021-09-04T10:40:06Z</time>
      </trkpt>
      <trkpt lat="42.626740" lon="0.459165">
        <ele>2050.000000</ele>
        <time>2021-09-04T10:40:07Z</time>
      </trkpt>
      <trkpt lat="42.626742" lon="0.459160">
        <ele>2050.000000</ele>
        <time>2021-09-04T10:40:08Z</time>
      </trkpt>
      <trkpt lat="42.626747" lon="0.459155">
        <ele>2050.000000</ele>
        <time>2021-09-04T10:40:09Z</time>
      </trkpt>
      <trkpt lat="42.626753" lon="0.459153">
        <ele>2050.000000</ele>
        <time>2021-09-04T10:40:10Z</time>
      </trkpt>
      <trkpt lat="42.626763" lon="0.459145">
        <ele>2050.000000</ele>
        <time>2021-09-04T10:40:11Z</time>
      </trkpt>
      <trkpt lat="42.626767" lon="0.459140">
        <ele>2050.000000</ele>
        <time>2021-09-04T10:40:12Z</time>
      </trkpt>
      <trkpt lat="42.626773" lon="0.459126">
        <ele>2050.000000</ele>
        <time>2021-09-04T10:40:13Z</time>
      </trkpt>
      <trkpt lat="42.626780" lon="0.459111">
        <ele>2051.000000</ele>
        <time>2021-09-04T10:40:14Z</time>
      </trkpt>
      <trkpt lat="42.626787" lon="0.459099">
        <ele>2051.000000</ele>
        <time>2021-09-04T10:40:15Z</time>
      </trkpt>
      <trkpt lat="42.626790" lon="0.459085">
        <ele>2051.000000</ele>
        <time>2021-09-04T10:40:16Z</time>
      </trkpt>
      <trkpt lat="42.626797" lon="0.459072">
        <ele>2051.000000</ele>
        <time>2021-09-04T10:40:17Z</time>
      </trkpt>
      <trkpt lat="42.626804" lon="0.459060">
        <ele>2051.000000</ele>
        <time>2021-09-04T10:40:18Z</time>
      </trkpt>
      <trkpt lat="42.626809" lon="0.459047">
        <ele>2051.000000</ele>
        <time>2021-09-04T10:40:19Z</time>
      </trkpt>
      <trkpt lat="42.626814" lon="0.459035">
        <ele>2051.000000</ele>
        <time>2021-09-04T10:40:20Z</time>
      </trkpt>
      <trkpt lat="42.626819" lon="0.459025">
        <ele>2051.000000</ele>
        <time>2021-09-04T10:40:21Z</time>
      </trkpt>
      <trkpt lat="42.626825" lon="0.459018">
        <ele>2051.000000</ele>
        <time>2021-09-04T10:40:22Z</time>
      </trkpt>
      <trkpt lat="42.626832" lon="0.459008">
        <ele>2052.000000</ele>
        <time>2021-09-04T10:40:23Z</time>
      </trkpt>
      <trkpt lat="42.626838" lon="0.459000">
        <ele>2052.000000</ele>
        <time>2021-09-04T10:40:24Z</time>
      </trkpt>
      <trkpt lat="42.626845" lon="0.458988">
        <ele>2052.000000</ele>
        <time>2021-09-04T10:40:25Z</time>
      </trkpt>
      <trkpt lat="42.626850" lon="0.458977">
        <ele>2052.000000</ele>
        <time>2021-09-04T10:40:26Z</time>
      </trkpt>
      <trkpt lat="42.626854" lon="0.458967">
        <ele>2052.000000</ele>
        <time>2021-09-04T10:40:27Z</time>
      </trkpt>
      <trkpt lat="42.626852" lon="0.458957">
        <ele>2052.000000</ele>
        <time>2021-09-04T10:40:28Z</time>
      </trkpt>
      <trkpt lat="42.626860" lon="0.458953">
        <ele>2052.000000</ele>
        <time>2021-09-04T10:40:29Z</time>
      </trkpt>
      <trkpt lat="42.626867" lon="0.458948">
        <ele>2053.000000</ele>
        <time>2021-09-04T10:40:31Z</time>
      </trkpt>
      <trkpt lat="42.626873" lon="0.458942">
        <ele>2053.000000</ele>
        <time>2021-09-04T10:40:31Z</time>
      </trkpt>
      <trkpt lat="42.626875" lon="0.458932">
        <ele>2053.000000</ele>
        <time>2021-09-04T10:40:32Z</time>
      </trkpt>
      <trkpt lat="42.626876" lon="0.458925">
        <ele>2053.000000</ele>
        <time>2021-09-04T10:40:33Z</time>
      </trkpt>
      <trkpt lat="42.626879" lon="0.458917">
        <ele>2053.000000</ele>
        <time>2021-09-04T10:40:34Z</time>
      </trkpt>
      <trkpt lat="42.626884" lon="0.458903">
        <ele>2053.000000</ele>
        <time>2021-09-04T10:40:35Z</time>
      </trkpt>
      <trkpt lat="42.626884" lon="0.458905">
        <ele>2053.000000</ele>
        <time>2021-09-04T10:40:36Z</time>
      </trkpt>
      <trkpt lat="42.626888" lon="0.458900">
        <ele>2054.000000</ele>
        <time>2021-09-04T10:40:37Z</time>
      </trkpt>
      <trkpt lat="42.626890" lon="0.458895">
        <ele>2054.000000</ele>
        <time>2021-09-04T10:40:38Z</time>
      </trkpt>
      <trkpt lat="42.626893" lon="0.458892">
        <ele>2054.000000</ele>
        <time>2021-09-04T10:40:39Z</time>
      </trkpt>
      <trkpt lat="42.626897" lon="0.458882">
        <ele>2054.000000</ele>
        <time>2021-09-04T10:40:40Z</time>
      </trkpt>
      <trkpt lat="42.626898" lon="0.458873">
        <ele>2054.000000</ele>
        <time>2021-09-04T10:40:41Z</time>
      </trkpt>
      <trkpt lat="42.626902" lon="0.458860">
        <ele>2054.000000</ele>
        <time>2021-09-04T10:40:42Z</time>
      </trkpt>
      <trkpt lat="42.626902" lon="0.458852">
        <ele>2054.000000</ele>
        <time>2021-09-04T10:40:43Z</time>
      </trkpt>
      <trkpt lat="42.626905" lon="0.458837">
        <ele>2054.000000</ele>
        <time>2021-09-04T10:40:44Z</time>
      </trkpt>
      <trkpt lat="42.626908" lon="0.458817">
        <ele>2054.000000</ele>
        <time>2021-09-04T10:40:45Z</time>
      </trkpt>
      <trkpt lat="42.626910" lon="0.458795">
        <ele>2054.000000</ele>
        <time>2021-09-04T10:40:46Z</time>
      </trkpt>
      <trkpt lat="42.626912" lon="0.458777">
        <ele>2054.000000</ele>
        <time>2021-09-04T10:40:47Z</time>
      </trkpt>
      <trkpt lat="42.626916" lon="0.458762">
        <ele>2054.000000</ele>
        <time>2021-09-04T10:40:48Z</time>
      </trkpt>
      <trkpt lat="42.626922" lon="0.458747">
        <ele>2054.000000</ele>
        <time>2021-09-04T10:40:49Z</time>
      </trkpt>
      <trkpt lat="42.626930" lon="0.458735">
        <ele>2054.000000</ele>
        <time>2021-09-04T10:40:50Z</time>
      </trkpt>
      <trkpt lat="42.626939" lon="0.458717">
        <ele>2054.000000</ele>
        <time>2021-09-04T10:40:51Z</time>
      </trkpt>
      <trkpt lat="42.626947" lon="0.458698">
        <ele>2054.000000</ele>
        <time>2021-09-04T10:40:52Z</time>
      </trkpt>
      <trkpt lat="42.626953" lon="0.458685">
        <ele>2054.000000</ele>
        <time>2021-09-04T10:40:53Z</time>
      </trkpt>
      <trkpt lat="42.626958" lon="0.458673">
        <ele>2054.000000</ele>
        <time>2021-09-04T10:40:54Z</time>
      </trkpt>
      <trkpt lat="42.626963" lon="0.458658">
        <ele>2054.000000</ele>
        <time>2021-09-04T10:40:55Z</time>
      </trkpt>
      <trkpt lat="42.626966" lon="0.458647">
        <ele>2054.000000</ele>
        <time>2021-09-04T10:40:56Z</time>
      </trkpt>
      <trkpt lat="42.626969" lon="0.458635">
        <ele>2054.000000</ele>
        <time>2021-09-04T10:40:57Z</time>
      </trkpt>
      <trkpt lat="42.626973" lon="0.458625">
        <ele>2054.000000</ele>
        <time>2021-09-04T10:40:58Z</time>
      </trkpt>
      <trkpt lat="42.626976" lon="0.458617">
        <ele>2054.000000</ele>
        <time>2021-09-04T10:40:59Z</time>
      </trkpt>
      <trkpt lat="42.626980" lon="0.458607">
        <ele>2054.000000</ele>
        <time>2021-09-04T10:41:00Z</time>
      </trkpt>
      <trkpt lat="42.626984" lon="0.458595">
        <ele>2054.000000</ele>
        <time>2021-09-04T10:41:01Z</time>
      </trkpt>
      <trkpt lat="42.626989" lon="0.458583">
        <ele>2054.000000</ele>
        <time>2021-09-04T10:41:02Z</time>
      </trkpt>
      <trkpt lat="42.626994" lon="0.458572">
        <ele>2055.000000</ele>
        <time>2021-09-04T10:41:03Z</time>
      </trkpt>
      <trkpt lat="42.626997" lon="0.458560">
        <ele>2055.000000</ele>
        <time>2021-09-04T10:41:04Z</time>
      </trkpt>
      <trkpt lat="42.626998" lon="0.458543">
        <ele>2055.000000</ele>
        <time>2021-09-04T10:41:05Z</time>
      </trkpt>
      <trkpt lat="42.627000" lon="0.458532">
        <ele>2055.000000</ele>
        <time>2021-09-04T10:41:06Z</time>
      </trkpt>
      <trkpt lat="42.627003" lon="0.458523">
        <ele>2055.000000</ele>
        <time>2021-09-04T10:41:07Z</time>
      </trkpt>
      <trkpt lat="42.627005" lon="0.458515">
        <ele>2055.000000</ele>
        <time>2021-09-04T10:41:08Z</time>
      </trkpt>
      <trkpt lat="42.627007" lon="0.458508">
        <ele>2055.000000</ele>
        <time>2021-09-04T10:41:09Z</time>
      </trkpt>
      <trkpt lat="42.627010" lon="0.458502">
        <ele>2055.000000</ele>
        <time>2021-09-04T10:41:11Z</time>
      </trkpt>
      <trkpt lat="42.627013" lon="0.458495">
        <ele>2055.000000</ele>
        <time>2021-09-04T10:41:12Z</time>
      </trkpt>
      <trkpt lat="42.627016" lon="0.458488">
        <ele>2055.000000</ele>
        <time>2021-09-04T10:41:13Z</time>
      </trkpt>
      <trkpt lat="42.627018" lon="0.458480">
        <ele>2055.000000</ele>
        <time>2021-09-04T10:41:14Z</time>
      </trkpt>
      <trkpt lat="42.627017" lon="0.458472">
        <ele>2055.000000</ele>
        <time>2021-09-04T10:41:15Z</time>
      </trkpt>
      <trkpt lat="42.627017" lon="0.458465">
        <ele>2055.000000</ele>
        <time>2021-09-04T10:41:16Z</time>
      </trkpt>
      <trkpt lat="42.627015" lon="0.458458">
        <ele>2055.000000</ele>
        <time>2021-09-04T10:41:17Z</time>
      </trkpt>
      <trkpt lat="42.627012" lon="0.458460">
        <ele>2056.000000</ele>
        <time>2021-09-04T10:41:19Z</time>
      </trkpt>
      <trkpt lat="42.627010" lon="0.458467">
        <ele>2056.000000</ele>
        <time>2021-09-04T10:41:21Z</time>
      </trkpt>
      <trkpt lat="42.627010" lon="0.458463">
        <ele>2056.000000</ele>
        <time>2021-09-04T10:41:23Z</time>
      </trkpt>
      <trkpt lat="42.627007" lon="0.458460">
        <ele>2056.000000</ele>
        <time>2021-09-04T10:41:25Z</time>
      </trkpt>
      <trkpt lat="42.626998" lon="0.458458">
        <ele>2056.000000</ele>
        <time>2021-09-04T10:41:26Z</time>
      </trkpt>
      <trkpt lat="42.626997" lon="0.458461">
        <ele>2056.000000</ele>
        <time>2021-09-04T10:41:28Z</time>
      </trkpt>
      <trkpt lat="42.626998" lon="0.458461">
        <ele>2056.000000</ele>
        <time>2021-09-04T10:41:29Z</time>
      </trkpt>
      <trkpt lat="42.627003" lon="0.458463">
        <ele>2057.000000</ele>
        <time>2021-09-04T10:41:30Z</time>
      </trkpt>
      <trkpt lat="42.627012" lon="0.458368">
        <ele>2058.000000</ele>
        <time>2021-09-04T10:41:40Z</time>
      </trkpt>
      <trkpt lat="42.627012" lon="0.458363">
        <ele>2058.000000</ele>
        <time>2021-09-04T10:41:41Z</time>
      </trkpt>
      <trkpt lat="42.627014" lon="0.458357">
        <ele>2058.000000</ele>
        <time>2021-09-04T10:41:42Z</time>
      </trkpt>
      <trkpt lat="42.627018" lon="0.458357">
        <ele>2058.000000</ele>
        <time>2021-09-04T10:41:43Z</time>
      </trkpt>
      <trkpt lat="42.627027" lon="0.458357">
        <ele>2058.000000</ele>
        <time>2021-09-04T10:41:44Z</time>
      </trkpt>
      <trkpt lat="42.627033" lon="0.458350">
        <ele>2058.000000</ele>
        <time>2021-09-04T10:41:45Z</time>
      </trkpt>
      <trkpt lat="42.627040" lon="0.458347">
        <ele>2058.000000</ele>
        <time>2021-09-04T10:41:46Z</time>
      </trkpt>
      <trkpt lat="42.627048" lon="0.458340">
        <ele>2058.000000</ele>
        <time>2021-09-04T10:41:47Z</time>
      </trkpt>
      <trkpt lat="42.627053" lon="0.458335">
        <ele>2059.000000</ele>
        <time>2021-09-04T10:41:48Z</time>
      </trkpt>
      <trkpt lat="42.627055" lon="0.458333">
        <ele>2059.000000</ele>
        <time>2021-09-04T10:41:49Z</time>
      </trkpt>
      <trkpt lat="42.627057" lon="0.458327">
        <ele>2059.000000</ele>
        <time>2021-09-04T10:41:50Z</time>
      </trkpt>
      <trkpt lat="42.627055" lon="0.458322">
        <ele>2059.000000</ele>
        <time>2021-09-04T10:41:51Z</time>
      </trkpt>
      <trkpt lat="42.627055" lon="0.458318">
        <ele>2059.000000</ele>
        <time>2021-09-04T10:41:52Z</time>
      </trkpt>
      <trkpt lat="42.627058" lon="0.458310">
        <ele>2059.000000</ele>
        <time>2021-09-04T10:41:53Z</time>
      </trkpt>
      <trkpt lat="42.627060" lon="0.458307">
        <ele>2059.000000</ele>
        <time>2021-09-04T10:41:54Z</time>
      </trkpt>
      <trkpt lat="42.627060" lon="0.458302">
        <ele>2059.000000</ele>
        <time>2021-09-04T10:41:55Z</time>
      </trkpt>
      <trkpt lat="42.627059" lon="0.458293">
        <ele>2059.000000</ele>
        <time>2021-09-04T10:41:56Z</time>
      </trkpt>
      <trkpt lat="42.627058" lon="0.458288">
        <ele>2059.000000</ele>
        <time>2021-09-04T10:41:57Z</time>
      </trkpt>
      <trkpt lat="42.627055" lon="0.458283">
        <ele>2059.000000</ele>
        <time>2021-09-04T10:41:58Z</time>
      </trkpt>
      <trkpt lat="42.627052" lon="0.458280">
        <ele>2059.000000</ele>
        <time>2021-09-04T10:41:59Z</time>
      </trkpt>
      <trkpt lat="42.627050" lon="0.458272">
        <ele>2059.000000</ele>
        <time>2021-09-04T10:42:01Z</time>
      </trkpt>
      <trkpt lat="42.627050" lon="0.458258">
        <ele>2059.000000</ele>
        <time>2021-09-04T10:42:02Z</time>
      </trkpt>
      <trkpt lat="42.627049" lon="0.458245">
        <ele>2060.000000</ele>
        <time>2021-09-04T10:42:03Z</time>
      </trkpt>
      <trkpt lat="42.627045" lon="0.458235">
        <ele>2060.000000</ele>
        <time>2021-09-04T10:42:07Z</time>
      </trkpt>
      <trkpt lat="42.627046" lon="0.458230">
        <ele>2060.000000</ele>
        <time>2021-09-04T10:42:08Z</time>
      </trkpt>
      <trkpt lat="42.627048" lon="0.458225">
        <ele>2060.000000</ele>
        <time>2021-09-04T10:42:09Z</time>
      </trkpt>
      <trkpt lat="42.627057" lon="0.458213">
        <ele>2061.000000</ele>
        <time>2021-09-04T10:42:10Z</time>
      </trkpt>
      <trkpt lat="42.627067" lon="0.458203">
        <ele>2061.000000</ele>
        <time>2021-09-04T10:42:11Z</time>
      </trkpt>
      <trkpt lat="42.627067" lon="0.458193">
        <ele>2062.000000</ele>
        <time>2021-09-04T10:42:15Z</time>
      </trkpt>
      <trkpt lat="42.627067" lon="0.458187">
        <ele>2062.000000</ele>
        <time>2021-09-04T10:42:16Z</time>
      </trkpt>
      <trkpt lat="42.627067" lon="0.458178">
        <ele>2062.000000</ele>
        <time>2021-09-04T10:42:17Z</time>
      </trkpt>
      <trkpt lat="42.627068" lon="0.458167">
        <ele>2062.000000</ele>
        <time>2021-09-04T10:42:18Z</time>
      </trkpt>
      <trkpt lat="42.627071" lon="0.458157">
        <ele>2062.000000</ele>
        <time>2021-09-04T10:42:19Z</time>
      </trkpt>
      <trkpt lat="42.627073" lon="0.458152">
        <ele>2063.000000</ele>
        <time>2021-09-04T10:42:20Z</time>
      </trkpt>
      <trkpt lat="42.627077" lon="0.458142">
        <ele>2063.000000</ele>
        <time>2021-09-04T10:42:21Z</time>
      </trkpt>
      <trkpt lat="42.627083" lon="0.458133">
        <ele>2063.000000</ele>
        <time>2021-09-04T10:42:22Z</time>
      </trkpt>
      <trkpt lat="42.627088" lon="0.458127">
        <ele>2063.000000</ele>
        <time>2021-09-04T10:42:23Z</time>
      </trkpt>
      <trkpt lat="42.627093" lon="0.458122">
        <ele>2064.000000</ele>
        <time>2021-09-04T10:42:24Z</time>
      </trkpt>
      <trkpt lat="42.627100" lon="0.458113">
        <ele>2064.000000</ele>
        <time>2021-09-04T10:42:25Z</time>
      </trkpt>
      <trkpt lat="42.627103" lon="0.458108">
        <ele>2064.000000</ele>
        <time>2021-09-04T10:42:26Z</time>
      </trkpt>
      <trkpt lat="42.627102" lon="0.458102">
        <ele>2064.000000</ele>
        <time>2021-09-04T10:42:27Z</time>
      </trkpt>
      <trkpt lat="42.627097" lon="0.458100">
        <ele>2065.000000</ele>
        <time>2021-09-04T10:42:28Z</time>
      </trkpt>
      <trkpt lat="42.627092" lon="0.458095">
        <ele>2065.000000</ele>
        <time>2021-09-04T10:42:29Z</time>
      </trkpt>
      <trkpt lat="42.627085" lon="0.458082">
        <ele>2065.000000</ele>
        <time>2021-09-04T10:42:30Z</time>
      </trkpt>
      <trkpt lat="42.627087" lon="0.458067">
        <ele>2065.000000</ele>
        <time>2021-09-04T10:42:31Z</time>
      </trkpt>
      <trkpt lat="42.627090" lon="0.458060">
        <ele>2065.000000</ele>
        <time>2021-09-04T10:42:32Z</time>
      </trkpt>
      <trkpt lat="42.627100" lon="0.458055">
        <ele>2065.000000</ele>
        <time>2021-09-04T10:42:33Z</time>
      </trkpt>
      <trkpt lat="42.627105" lon="0.458052">
        <ele>2065.000000</ele>
        <time>2021-09-04T10:42:34Z</time>
      </trkpt>
      <trkpt lat="42.627108" lon="0.458043">
        <ele>2065.000000</ele>
        <time>2021-09-04T10:42:35Z</time>
      </trkpt>
      <trkpt lat="42.627112" lon="0.458035">
        <ele>2066.000000</ele>
        <time>2021-09-04T10:42:36Z</time>
      </trkpt>
      <trkpt lat="42.627112" lon="0.458032">
        <ele>2066.000000</ele>
        <time>2021-09-04T10:42:37Z</time>
      </trkpt>
      <trkpt lat="42.627115" lon="0.458028">
        <ele>2066.000000</ele>
        <time>2021-09-04T10:42:39Z</time>
      </trkpt>
      <trkpt lat="42.627125" lon="0.458028">
        <ele>2066.000000</ele>
        <time>2021-09-04T10:42:40Z</time>
      </trkpt>
      <trkpt lat="42.627128" lon="0.458032">
        <ele>2066.000000</ele>
        <time>2021-09-04T10:42:41Z</time>
      </trkpt>
      <trkpt lat="42.627130" lon="0.458033">
        <ele>2067.000000</ele>
        <time>2021-09-04T10:42:42Z</time>
      </trkpt>
      <trkpt lat="42.627135" lon="0.458031">
        <ele>2067.000000</ele>
        <time>2021-09-04T10:42:43Z</time>
      </trkpt>
      <trkpt lat="42.627140" lon="0.458027">
        <ele>2067.000000</ele>
        <time>2021-09-04T10:42:44Z</time>
      </trkpt>
      <trkpt lat="42.627145" lon="0.458027">
        <ele>2067.000000</ele>
        <time>2021-09-04T10:42:45Z</time>
      </trkpt>
      <trkpt lat="42.627153" lon="0.458028">
        <ele>2067.000000</ele>
        <time>2021-09-04T10:42:46Z</time>
      </trkpt>
      <trkpt lat="42.627158" lon="0.458035">
        <ele>2068.000000</ele>
        <time>2021-09-04T10:42:47Z</time>
      </trkpt>
      <trkpt lat="42.627168" lon="0.458035">
        <ele>2068.000000</ele>
        <time>2021-09-04T10:42:48Z</time>
      </trkpt>
      <trkpt lat="42.627175" lon="0.458030">
        <ele>2068.000000</ele>
        <time>2021-09-04T10:42:49Z</time>
      </trkpt>
      <trkpt lat="42.627178" lon="0.458026">
        <ele>2068.000000</ele>
        <time>2021-09-04T10:42:50Z</time>
      </trkpt>
      <trkpt lat="42.627182" lon="0.458013">
        <ele>2068.000000</ele>
        <time>2021-09-04T10:42:51Z</time>
      </trkpt>
      <trkpt lat="42.627183" lon="0.458008">
        <ele>2069.000000</ele>
        <time>2021-09-04T10:42:52Z</time>
      </trkpt>
      <trkpt lat="42.627183" lon="0.458002">
        <ele>2069.000000</ele>
        <time>2021-09-04T10:42:53Z</time>
      </trkpt>
      <trkpt lat="42.627182" lon="0.457997">
        <ele>2069.000000</ele>
        <time>2021-09-04T10:42:54Z</time>
      </trkpt>
      <trkpt lat="42.627182" lon="0.457990">
        <ele>2069.000000</ele>
        <time>2021-09-04T10:42:55Z</time>
      </trkpt>
      <trkpt lat="42.627182" lon="0.457983">
        <ele>2069.000000</ele>
        <time>2021-09-04T10:42:56Z</time>
      </trkpt>
      <trkpt lat="42.627185" lon="0.457972">
        <ele>2069.000000</ele>
        <time>2021-09-04T10:42:57Z</time>
      </trkpt>
      <trkpt lat="42.627188" lon="0.457953">
        <ele>2069.000000</ele>
        <time>2021-09-04T10:42:58Z</time>
      </trkpt>
      <trkpt lat="42.627193" lon="0.457943">
        <ele>2070.000000</ele>
        <time>2021-09-04T10:42:59Z</time>
      </trkpt>
      <trkpt lat="42.627198" lon="0.457932">
        <ele>2070.000000</ele>
        <time>2021-09-04T10:43:00Z</time>
      </trkpt>
      <trkpt lat="42.627199" lon="0.457930">
        <ele>2070.000000</ele>
        <time>2021-09-04T10:43:01Z</time>
      </trkpt>
      <trkpt lat="42.627202" lon="0.457922">
        <ele>2070.000000</ele>
        <time>2021-09-04T10:43:02Z</time>
      </trkpt>
      <trkpt lat="42.627205" lon="0.457913">
        <ele>2070.000000</ele>
        <time>2021-09-04T10:43:03Z</time>
      </trkpt>
      <trkpt lat="42.627207" lon="0.457908">
        <ele>2070.000000</ele>
        <time>2021-09-04T10:43:04Z</time>
      </trkpt>
      <trkpt lat="42.627209" lon="0.457905">
        <ele>2070.000000</ele>
        <time>2021-09-04T10:43:05Z</time>
      </trkpt>
      <trkpt lat="42.627212" lon="0.457903">
        <ele>2071.000000</ele>
        <time>2021-09-04T10:43:06Z</time>
      </trkpt>
      <trkpt lat="42.627223" lon="0.457903">
        <ele>2071.000000</ele>
        <time>2021-09-04T10:43:07Z</time>
      </trkpt>
      <trkpt lat="42.627230" lon="0.457902">
        <ele>2071.000000</ele>
        <time>2021-09-04T10:43:08Z</time>
      </trkpt>
      <trkpt lat="42.627238" lon="0.457898">
        <ele>2071.000000</ele>
        <time>2021-09-04T10:43:09Z</time>
      </trkpt>
      <trkpt lat="42.627243" lon="0.457893">
        <ele>2071.000000</ele>
        <time>2021-09-04T10:43:11Z</time>
      </trkpt>
      <trkpt lat="42.627245" lon="0.457888">
        <ele>2071.000000</ele>
        <time>2021-09-04T10:43:12Z</time>
      </trkpt>
      <trkpt lat="42.627248" lon="0.457884">
        <ele>2071.000000</ele>
        <time>2021-09-04T10:43:13Z</time>
      </trkpt>
      <trkpt lat="42.627252" lon="0.457883">
        <ele>2072.000000</ele>
        <time>2021-09-04T10:43:15Z</time>
      </trkpt>
      <trkpt lat="42.627253" lon="0.457882">
        <ele>2072.000000</ele>
        <time>2021-09-04T10:43:16Z</time>
      </trkpt>
      <trkpt lat="42.627252" lon="0.457882">
        <ele>2072.000000</ele>
        <time>2021-09-04T10:43:17Z</time>
      </trkpt>
      <trkpt lat="42.627255" lon="0.457880">
        <ele>2073.000000</ele>
        <time>2021-09-04T10:43:19Z</time>
      </trkpt>
      <trkpt lat="42.627258" lon="0.457877">
        <ele>2073.000000</ele>
        <time>2021-09-04T10:43:20Z</time>
      </trkpt>
      <trkpt lat="42.627258" lon="0.457875">
        <ele>2073.000000</ele>
        <time>2021-09-04T10:43:22Z</time>
      </trkpt>
      <trkpt lat="42.627257" lon="0.457873">
        <ele>2073.000000</ele>
        <time>2021-09-04T10:43:24Z</time>
      </trkpt>
      <trkpt lat="42.627257" lon="0.457867">
        <ele>2073.000000</ele>
        <time>2021-09-04T10:43:25Z</time>
      </trkpt>
      <trkpt lat="42.627253" lon="0.457855">
        <ele>2073.000000</ele>
        <time>2021-09-04T10:43:26Z</time>
      </trkpt>
      <trkpt lat="42.627248" lon="0.457855">
        <ele>2073.000000</ele>
        <time>2021-09-04T10:43:28Z</time>
      </trkpt>
      <trkpt lat="42.627245" lon="0.457850">
        <ele>2073.000000</ele>
        <time>2021-09-04T10:43:29Z</time>
      </trkpt>
      <trkpt lat="42.627242" lon="0.457843">
        <ele>2073.000000</ele>
        <time>2021-09-04T10:43:30Z</time>
      </trkpt>
      <trkpt lat="42.627235" lon="0.457833">
        <ele>2073.000000</ele>
        <time>2021-09-04T10:43:31Z</time>
      </trkpt>
      <trkpt lat="42.627231" lon="0.457827">
        <ele>2074.000000</ele>
        <time>2021-09-04T10:43:32Z</time>
      </trkpt>
      <trkpt lat="42.627229" lon="0.457817">
        <ele>2074.000000</ele>
        <time>2021-09-04T10:43:32Z</time>
      </trkpt>
      <trkpt lat="42.627229" lon="0.457810">
        <ele>2074.000000</ele>
        <time>2021-09-04T10:43:33Z</time>
      </trkpt>
      <trkpt lat="42.627233" lon="0.457800">
        <ele>2074.000000</ele>
        <time>2021-09-04T10:43:34Z</time>
      </trkpt>
      <trkpt lat="42.627235" lon="0.457795">
        <ele>2074.000000</ele>
        <time>2021-09-04T10:43:35Z</time>
      </trkpt>
      <trkpt lat="42.627237" lon="0.457788">
        <ele>2074.000000</ele>
        <time>2021-09-04T10:43:36Z</time>
      </trkpt>
      <trkpt lat="42.627237" lon="0.457782">
        <ele>2074.000000</ele>
        <time>2021-09-04T10:43:37Z</time>
      </trkpt>
      <trkpt lat="42.627235" lon="0.457775">
        <ele>2075.000000</ele>
        <time>2021-09-04T10:43:38Z</time>
      </trkpt>
      <trkpt lat="42.627236" lon="0.457768">
        <ele>2075.000000</ele>
        <time>2021-09-04T10:43:39Z</time>
      </trkpt>
      <trkpt lat="42.627240" lon="0.457765">
        <ele>2075.000000</ele>
        <time>2021-09-04T10:43:40Z</time>
      </trkpt>
      <trkpt lat="42.627241" lon="0.457760">
        <ele>2075.000000</ele>
        <time>2021-09-04T10:43:42Z</time>
      </trkpt>
      <trkpt lat="42.627238" lon="0.457757">
        <ele>2075.000000</ele>
        <time>2021-09-04T10:43:43Z</time>
      </trkpt>
      <trkpt lat="42.627230" lon="0.457753">
        <ele>2075.000000</ele>
        <time>2021-09-04T10:43:44Z</time>
      </trkpt>
      <trkpt lat="42.627227" lon="0.457753">
        <ele>2075.000000</ele>
        <time>2021-09-04T10:43:45Z</time>
      </trkpt>
      <trkpt lat="42.627227" lon="0.457743">
        <ele>2076.000000</ele>
        <time>2021-09-04T10:43:46Z</time>
      </trkpt>
      <trkpt lat="42.627226" lon="0.457740">
        <ele>2076.000000</ele>
        <time>2021-09-04T10:43:47Z</time>
      </trkpt>
      <trkpt lat="42.627222" lon="0.457735">
        <ele>2076.000000</ele>
        <time>2021-09-04T10:43:48Z</time>
      </trkpt>
      <trkpt lat="42.627215" lon="0.457730">
        <ele>2076.000000</ele>
        <time>2021-09-04T10:43:50Z</time>
      </trkpt>
      <trkpt lat="42.627213" lon="0.457725">
        <ele>2076.000000</ele>
        <time>2021-09-04T10:43:51Z</time>
      </trkpt>
      <trkpt lat="42.627212" lon="0.457717">
        <ele>2076.000000</ele>
        <time>2021-09-04T10:43:52Z</time>
      </trkpt>
      <trkpt lat="42.627211" lon="0.457712">
        <ele>2076.000000</ele>
        <time>2021-09-04T10:43:53Z</time>
      </trkpt>
      <trkpt lat="42.627210" lon="0.457705">
        <ele>2077.000000</ele>
        <time>2021-09-04T10:43:54Z</time>
      </trkpt>
      <trkpt lat="42.627205" lon="0.457698">
        <ele>2077.000000</ele>
        <time>2021-09-04T10:43:55Z</time>
      </trkpt>
      <trkpt lat="42.627200" lon="0.457692">
        <ele>2077.000000</ele>
        <time>2021-09-04T10:43:56Z</time>
      </trkpt>
      <trkpt lat="42.627195" lon="0.457682">
        <ele>2077.000000</ele>
        <time>2021-09-04T10:43:57Z</time>
      </trkpt>
      <trkpt lat="42.627194" lon="0.457673">
        <ele>2077.000000</ele>
        <time>2021-09-04T10:43:58Z</time>
      </trkpt>
      <trkpt lat="42.627193" lon="0.457662">
        <ele>2077.000000</ele>
        <time>2021-09-04T10:43:59Z</time>
      </trkpt>
      <trkpt lat="42.627200" lon="0.457652">
        <ele>2078.000000</ele>
        <time>2021-09-04T10:44:00Z</time>
      </trkpt>
      <trkpt lat="42.627202" lon="0.457643">
        <ele>2078.000000</ele>
        <time>2021-09-04T10:44:01Z</time>
      </trkpt>
      <trkpt lat="42.627200" lon="0.457645">
        <ele>2078.000000</ele>
        <time>2021-09-04T10:44:03Z</time>
      </trkpt>
      <trkpt lat="42.627198" lon="0.457640">
        <ele>2078.000000</ele>
        <time>2021-09-04T10:44:04Z</time>
      </trkpt>
      <trkpt lat="42.627197" lon="0.457630">
        <ele>2078.000000</ele>
        <time>2021-09-04T10:44:05Z</time>
      </trkpt>
      <trkpt lat="42.627195" lon="0.457623">
        <ele>2078.000000</ele>
        <time>2021-09-04T10:44:06Z</time>
      </trkpt>
      <trkpt lat="42.627188" lon="0.457617">
        <ele>2078.000000</ele>
        <time>2021-09-04T10:44:07Z</time>
      </trkpt>
      <trkpt lat="42.627180" lon="0.457612">
        <ele>2078.000000</ele>
        <time>2021-09-04T10:44:08Z</time>
      </trkpt>
      <trkpt lat="42.627175" lon="0.457607">
        <ele>2079.000000</ele>
        <time>2021-09-04T10:44:09Z</time>
      </trkpt>
      <trkpt lat="42.627168" lon="0.457603">
        <ele>2079.000000</ele>
        <time>2021-09-04T10:44:10Z</time>
      </trkpt>
      <trkpt lat="42.627165" lon="0.457598">
        <ele>2079.000000</ele>
        <time>2021-09-04T10:44:11Z</time>
      </trkpt>
      <trkpt lat="42.627165" lon="0.457592">
        <ele>2079.000000</ele>
        <time>2021-09-04T10:44:12Z</time>
      </trkpt>
      <trkpt lat="42.627160" lon="0.457587">
        <ele>2080.000000</ele>
        <time>2021-09-04T10:44:13Z</time>
      </trkpt>
      <trkpt lat="42.627156" lon="0.457578">
        <ele>2080.000000</ele>
        <time>2021-09-04T10:44:14Z</time>
      </trkpt>
      <trkpt lat="42.627155" lon="0.457567">
        <ele>2080.000000</ele>
        <time>2021-09-04T10:44:15Z</time>
      </trkpt>
      <trkpt lat="42.627157" lon="0.457558">
        <ele>2081.000000</ele>
        <time>2021-09-04T10:44:16Z</time>
      </trkpt>
      <trkpt lat="42.627158" lon="0.457553">
        <ele>2081.000000</ele>
        <time>2021-09-04T10:44:17Z</time>
      </trkpt>
      <trkpt lat="42.627160" lon="0.457548">
        <ele>2081.000000</ele>
        <time>2021-09-04T10:44:18Z</time>
      </trkpt>
      <trkpt lat="42.627164" lon="0.457542">
        <ele>2082.000000</ele>
        <time>2021-09-04T10:44:20Z</time>
      </trkpt>
      <trkpt lat="42.627168" lon="0.457538">
        <ele>2082.000000</ele>
        <time>2021-09-04T10:44:21Z</time>
      </trkpt>
      <trkpt lat="42.627175" lon="0.457533">
        <ele>2082.000000</ele>
        <time>2021-09-04T10:44:22Z</time>
      </trkpt>
      <trkpt lat="42.627182" lon="0.457527">
        <ele>2083.000000</ele>
        <time>2021-09-04T10:44:23Z</time>
      </trkpt>
      <trkpt lat="42.627187" lon="0.457525">
        <ele>2083.000000</ele>
        <time>2021-09-04T10:44:24Z</time>
      </trkpt>
      <trkpt lat="42.627193" lon="0.457522">
        <ele>2083.000000</ele>
        <time>2021-09-04T10:44:25Z</time>
      </trkpt>
      <trkpt lat="42.627198" lon="0.457518">
        <ele>2083.000000</ele>
        <time>2021-09-04T10:44:26Z</time>
      </trkpt>
      <trkpt lat="42.627200" lon="0.457511">
        <ele>2084.000000</ele>
        <time>2021-09-04T10:44:27Z</time>
      </trkpt>
      <trkpt lat="42.627202" lon="0.457502">
        <ele>2084.000000</ele>
        <time>2021-09-04T10:44:28Z</time>
      </trkpt>
      <trkpt lat="42.627207" lon="0.457492">
        <ele>2084.000000</ele>
        <time>2021-09-04T10:44:29Z</time>
      </trkpt>
      <trkpt lat="42.627212" lon="0.457493">
        <ele>2084.000000</ele>
        <time>2021-09-04T10:44:30Z</time>
      </trkpt>
      <trkpt lat="42.627220" lon="0.457492">
        <ele>2084.000000</ele>
        <time>2021-09-04T10:44:31Z</time>
      </trkpt>
      <trkpt lat="42.627230" lon="0.457490">
        <ele>2084.000000</ele>
        <time>2021-09-04T10:44:32Z</time>
      </trkpt>
      <trkpt lat="42.627242" lon="0.457488">
        <ele>2085.000000</ele>
        <time>2021-09-04T10:44:33Z</time>
      </trkpt>
      <trkpt lat="42.627252" lon="0.457492">
        <ele>2085.000000</ele>
        <time>2021-09-04T10:44:34Z</time>
      </trkpt>
      <trkpt lat="42.627257" lon="0.457493">
        <ele>2085.000000</ele>
        <time>2021-09-04T10:44:35Z</time>
      </trkpt>
      <trkpt lat="42.627265" lon="0.457497">
        <ele>2085.000000</ele>
        <time>2021-09-04T10:44:36Z</time>
      </trkpt>
      <trkpt lat="42.627272" lon="0.457503">
        <ele>2086.000000</ele>
        <time>2021-09-04T10:44:37Z</time>
      </trkpt>
      <trkpt lat="42.627282" lon="0.457507">
        <ele>2086.000000</ele>
        <time>2021-09-04T10:44:38Z</time>
      </trkpt>
      <trkpt lat="42.627290" lon="0.457507">
        <ele>2086.000000</ele>
        <time>2021-09-04T10:44:39Z</time>
      </trkpt>
      <trkpt lat="42.627295" lon="0.457504">
        <ele>2086.000000</ele>
        <time>2021-09-04T10:44:40Z</time>
      </trkpt>
      <trkpt lat="42.627298" lon="0.457498">
        <ele>2086.000000</ele>
        <time>2021-09-04T10:44:41Z</time>
      </trkpt>
      <trkpt lat="42.627300" lon="0.457500">
        <ele>2087.000000</ele>
        <time>2021-09-04T10:44:42Z</time>
      </trkpt>
      <trkpt lat="42.627298" lon="0.457503">
        <ele>2087.000000</ele>
        <time>2021-09-04T10:44:45Z</time>
      </trkpt>
      <trkpt lat="42.627300" lon="0.457498">
        <ele>2087.000000</ele>
        <time>2021-09-04T10:44:47Z</time>
      </trkpt>
      <trkpt lat="42.627302" lon="0.457493">
        <ele>2087.000000</ele>
        <time>2021-09-04T10:44:48Z</time>
      </trkpt>
      <trkpt lat="42.627303" lon="0.457489">
        <ele>2088.000000</ele>
        <time>2021-09-04T10:44:49Z</time>
      </trkpt>
      <trkpt lat="42.627302" lon="0.457488">
        <ele>2088.000000</ele>
        <time>2021-09-04T10:44:50Z</time>
      </trkpt>
      <trkpt lat="42.627300" lon="0.457480">
        <ele>2088.000000</ele>
        <time>2021-09-04T10:44:51Z</time>
      </trkpt>
      <trkpt lat="42.627297" lon="0.457477">
        <ele>2088.000000</ele>
        <time>2021-09-04T10:44:52Z</time>
      </trkpt>
      <trkpt lat="42.627293" lon="0.457475">
        <ele>2088.000000</ele>
        <time>2021-09-04T10:44:53Z</time>
      </trkpt>
      <trkpt lat="42.627288" lon="0.457470">
        <ele>2088.000000</ele>
        <time>2021-09-04T10:44:54Z</time>
      </trkpt>
      <trkpt lat="42.627282" lon="0.457462">
        <ele>2089.000000</ele>
        <time>2021-09-04T10:44:55Z</time>
      </trkpt>
      <trkpt lat="42.627277" lon="0.457453">
        <ele>2089.000000</ele>
        <time>2021-09-04T10:44:56Z</time>
      </trkpt>
      <trkpt lat="42.627273" lon="0.457447">
        <ele>2089.000000</ele>
        <time>2021-09-04T10:44:57Z</time>
      </trkpt>
      <trkpt lat="42.627273" lon="0.457435">
        <ele>2089.000000</ele>
        <time>2021-09-04T10:44:58Z</time>
      </trkpt>
      <trkpt lat="42.627274" lon="0.457432">
        <ele>2090.000000</ele>
        <time>2021-09-04T10:44:59Z</time>
      </trkpt>
      <trkpt lat="42.627278" lon="0.457422">
        <ele>2090.000000</ele>
        <time>2021-09-04T10:45:00Z</time>
      </trkpt>
      <trkpt lat="42.627283" lon="0.457423">
        <ele>2090.000000</ele>
        <time>2021-09-04T10:45:01Z</time>
      </trkpt>
      <trkpt lat="42.627285" lon="0.457428">
        <ele>2090.000000</ele>
        <time>2021-09-04T10:45:02Z</time>
      </trkpt>
      <trkpt lat="42.627290" lon="0.457432">
        <ele>2090.000000</ele>
        <time>2021-09-04T10:45:03Z</time>
      </trkpt>
      <trkpt lat="42.627300" lon="0.457435">
        <ele>2090.000000</ele>
        <time>2021-09-04T10:45:04Z</time>
      </trkpt>
      <trkpt lat="42.627310" lon="0.457437">
        <ele>2090.000000</ele>
        <time>2021-09-04T10:45:05Z</time>
      </trkpt>
      <trkpt lat="42.627318" lon="0.457438">
        <ele>2090.000000</ele>
        <time>2021-09-04T10:45:06Z</time>
      </trkpt>
      <trkpt lat="42.627325" lon="0.457435">
        <ele>2090.000000</ele>
        <time>2021-09-04T10:45:07Z</time>
      </trkpt>
      <trkpt lat="42.627337" lon="0.457431">
        <ele>2091.000000</ele>
        <time>2021-09-04T10:45:08Z</time>
      </trkpt>
      <trkpt lat="42.627343" lon="0.457435">
        <ele>2091.000000</ele>
        <time>2021-09-04T10:45:09Z</time>
      </trkpt>
      <trkpt lat="42.627355" lon="0.457438">
        <ele>2091.000000</ele>
        <time>2021-09-04T10:45:10Z</time>
      </trkpt>
      <trkpt lat="42.627360" lon="0.457444">
        <ele>2091.000000</ele>
        <time>2021-09-04T10:45:11Z</time>
      </trkpt>
      <trkpt lat="42.627373" lon="0.457452">
        <ele>2091.000000</ele>
        <time>2021-09-04T10:45:12Z</time>
      </trkpt>
      <trkpt lat="42.627380" lon="0.457457">
        <ele>2091.000000</ele>
        <time>2021-09-04T10:45:13Z</time>
      </trkpt>
      <trkpt lat="42.627385" lon="0.457463">
        <ele>2092.000000</ele>
        <time>2021-09-04T10:45:14Z</time>
      </trkpt>
      <trkpt lat="42.627390" lon="0.457466">
        <ele>2092.000000</ele>
        <time>2021-09-04T10:45:15Z</time>
      </trkpt>
      <trkpt lat="42.627398" lon="0.457471">
        <ele>2092.000000</ele>
        <time>2021-09-04T10:45:16Z</time>
      </trkpt>
      <trkpt lat="42.627407" lon="0.457475">
        <ele>2092.000000</ele>
        <time>2021-09-04T10:45:17Z</time>
      </trkpt>
      <trkpt lat="42.627408" lon="0.457477">
        <ele>2092.000000</ele>
        <time>2021-09-04T10:45:18Z</time>
      </trkpt>
      <trkpt lat="42.627410" lon="0.457478">
        <ele>2093.000000</ele>
        <time>2021-09-04T10:45:19Z</time>
      </trkpt>
      <trkpt lat="42.627412" lon="0.457478">
        <ele>2093.000000</ele>
        <time>2021-09-04T10:45:20Z</time>
      </trkpt>
      <trkpt lat="42.627418" lon="0.457481">
        <ele>2093.000000</ele>
        <time>2021-09-04T10:45:21Z</time>
      </trkpt>
      <trkpt lat="42.627423" lon="0.457486">
        <ele>2093.000000</ele>
        <time>2021-09-04T10:45:22Z</time>
      </trkpt>
      <trkpt lat="42.627430" lon="0.457503">
        <ele>2093.000000</ele>
        <time>2021-09-04T10:45:23Z</time>
      </trkpt>
      <trkpt lat="42.627437" lon="0.457512">
        <ele>2093.000000</ele>
        <time>2021-09-04T10:45:24Z</time>
      </trkpt>
      <trkpt lat="42.627445" lon="0.457515">
        <ele>2094.000000</ele>
        <time>2021-09-04T10:45:25Z</time>
      </trkpt>
      <trkpt lat="42.627442" lon="0.457522">
        <ele>2094.000000</ele>
        <time>2021-09-04T10:45:26Z</time>
      </trkpt>
      <trkpt lat="42.627447" lon="0.457523">
        <ele>2094.000000</ele>
        <time>2021-09-04T10:45:27Z</time>
      </trkpt>
      <trkpt lat="42.627447" lon="0.457526">
        <ele>2094.000000</ele>
        <time>2021-09-04T10:45:28Z</time>
      </trkpt>
      <trkpt lat="42.627450" lon="0.457530">
        <ele>2094.000000</ele>
        <time>2021-09-04T10:45:29Z</time>
      </trkpt>
      <trkpt lat="42.627452" lon="0.457539">
        <ele>2094.000000</ele>
        <time>2021-09-04T10:45:30Z</time>
      </trkpt>
      <trkpt lat="42.627457" lon="0.457549">
        <ele>2095.000000</ele>
        <time>2021-09-04T10:45:31Z</time>
      </trkpt>
      <trkpt lat="42.627462" lon="0.457562">
        <ele>2095.000000</ele>
        <time>2021-09-04T10:45:32Z</time>
      </trkpt>
      <trkpt lat="42.627465" lon="0.457570">
        <ele>2095.000000</ele>
        <time>2021-09-04T10:45:33Z</time>
      </trkpt>
      <trkpt lat="42.627472" lon="0.457578">
        <ele>2095.000000</ele>
        <time>2021-09-04T10:45:34Z</time>
      </trkpt>
      <trkpt lat="42.627478" lon="0.457578">
        <ele>2096.000000</ele>
        <time>2021-09-04T10:45:35Z</time>
      </trkpt>
      <trkpt lat="42.627480" lon="0.457588">
        <ele>2096.000000</ele>
        <time>2021-09-04T10:45:36Z</time>
      </trkpt>
      <trkpt lat="42.627483" lon="0.457600">
        <ele>2096.000000</ele>
        <time>2021-09-04T10:45:37Z</time>
      </trkpt>
      <trkpt lat="42.627488" lon="0.457610">
        <ele>2096.000000</ele>
        <time>2021-09-04T10:45:38Z</time>
      </trkpt>
      <trkpt lat="42.627495" lon="0.457623">
        <ele>2096.000000</ele>
        <time>2021-09-04T10:45:39Z</time>
      </trkpt>
      <trkpt lat="42.627503" lon="0.457634">
        <ele>2096.000000</ele>
        <time>2021-09-04T10:45:40Z</time>
      </trkpt>
      <trkpt lat="42.627507" lon="0.457637">
        <ele>2097.000000</ele>
        <time>2021-09-04T10:45:41Z</time>
      </trkpt>
      <trkpt lat="42.627510" lon="0.457637">
        <ele>2097.000000</ele>
        <time>2021-09-04T10:45:42Z</time>
      </trkpt>
      <trkpt lat="42.627517" lon="0.457617">
        <ele>2097.000000</ele>
        <time>2021-09-04T10:45:43Z</time>
      </trkpt>
      <trkpt lat="42.627528" lon="0.457603">
        <ele>2097.000000</ele>
        <time>2021-09-04T10:45:44Z</time>
      </trkpt>
      <trkpt lat="42.627540" lon="0.457587">
        <ele>2097.000000</ele>
        <time>2021-09-04T10:45:46Z</time>
      </trkpt>
      <trkpt lat="42.627547" lon="0.457568">
        <ele>2097.000000</ele>
        <time>2021-09-04T10:45:46Z</time>
      </trkpt>
      <trkpt lat="42.627557" lon="0.457555">
        <ele>2097.000000</ele>
        <time>2021-09-04T10:45:47Z</time>
      </trkpt>
      <trkpt lat="42.627563" lon="0.457538">
        <ele>2097.000000</ele>
        <time>2021-09-04T10:45:48Z</time>
      </trkpt>
      <trkpt lat="42.627567" lon="0.457525">
        <ele>2097.000000</ele>
        <time>2021-09-04T10:45:49Z</time>
      </trkpt>
      <trkpt lat="42.627567" lon="0.457512">
        <ele>2097.000000</ele>
        <time>2021-09-04T10:45:50Z</time>
      </trkpt>
      <trkpt lat="42.627565" lon="0.457497">
        <ele>2097.000000</ele>
        <time>2021-09-04T10:45:51Z</time>
      </trkpt>
      <trkpt lat="42.627562" lon="0.457495">
        <ele>2097.000000</ele>
        <time>2021-09-04T10:45:52Z</time>
      </trkpt>
      <trkpt lat="42.627562" lon="0.457487">
        <ele>2097.000000</ele>
        <time>2021-09-04T10:45:53Z</time>
      </trkpt>
      <trkpt lat="42.627560" lon="0.457475">
        <ele>2097.000000</ele>
        <time>2021-09-04T10:45:54Z</time>
      </trkpt>
      <trkpt lat="42.627557" lon="0.457463">
        <ele>2097.000000</ele>
        <time>2021-09-04T10:45:55Z</time>
      </trkpt>
      <trkpt lat="42.627556" lon="0.457460">
        <ele>2097.000000</ele>
        <time>2021-09-04T10:45:56Z</time>
      </trkpt>
      <trkpt lat="42.627550" lon="0.457453">
        <ele>2097.000000</ele>
        <time>2021-09-04T10:45:57Z</time>
      </trkpt>
      <trkpt lat="42.627542" lon="0.457443">
        <ele>2097.000000</ele>
        <time>2021-09-04T10:45:58Z</time>
      </trkpt>
      <trkpt lat="42.627536" lon="0.457433">
        <ele>2097.000000</ele>
        <time>2021-09-04T10:45:59Z</time>
      </trkpt>
      <trkpt lat="42.627531" lon="0.457425">
        <ele>2097.000000</ele>
        <time>2021-09-04T10:46:00Z</time>
      </trkpt>
      <trkpt lat="42.627526" lon="0.457415">
        <ele>2097.000000</ele>
        <time>2021-09-04T10:46:01Z</time>
      </trkpt>
      <trkpt lat="42.627521" lon="0.457398">
        <ele>2097.000000</ele>
        <time>2021-09-04T10:46:02Z</time>
      </trkpt>
      <trkpt lat="42.627519" lon="0.457385">
        <ele>2097.000000</ele>
        <time>2021-09-04T10:46:03Z</time>
      </trkpt>
      <trkpt lat="42.627532" lon="0.457368">
        <ele>2097.000000</ele>
        <time>2021-09-04T10:46:04Z</time>
      </trkpt>
      <trkpt lat="42.627528" lon="0.457358">
        <ele>2097.000000</ele>
        <time>2021-09-04T10:46:05Z</time>
      </trkpt>
      <trkpt lat="42.627528" lon="0.457347">
        <ele>2097.000000</ele>
        <time>2021-09-04T10:46:06Z</time>
      </trkpt>
      <trkpt lat="42.627530" lon="0.457327">
        <ele>2097.000000</ele>
        <time>2021-09-04T10:46:07Z</time>
      </trkpt>
      <trkpt lat="42.627531" lon="0.457308">
        <ele>2097.000000</ele>
        <time>2021-09-04T10:46:08Z</time>
      </trkpt>
      <trkpt lat="42.627533" lon="0.457298">
        <ele>2097.000000</ele>
        <time>2021-09-04T10:46:09Z</time>
      </trkpt>
      <trkpt lat="42.627533" lon="0.457287">
        <ele>2097.000000</ele>
        <time>2021-09-04T10:46:10Z</time>
      </trkpt>
      <trkpt lat="42.627537" lon="0.457273">
        <ele>2097.000000</ele>
        <time>2021-09-04T10:46:11Z</time>
      </trkpt>
      <trkpt lat="42.627540" lon="0.457258">
        <ele>2097.000000</ele>
        <time>2021-09-04T10:46:12Z</time>
      </trkpt>
      <trkpt lat="42.627541" lon="0.457245">
        <ele>2097.000000</ele>
        <time>2021-09-04T10:46:13Z</time>
      </trkpt>
      <trkpt lat="42.627542" lon="0.457230">
        <ele>2097.000000</ele>
        <time>2021-09-04T10:46:14Z</time>
      </trkpt>
      <trkpt lat="42.627543" lon="0.457218">
        <ele>2097.000000</ele>
        <time>2021-09-04T10:46:15Z</time>
      </trkpt>
      <trkpt lat="42.627544" lon="0.457205">
        <ele>2097.000000</ele>
        <time>2021-09-04T10:46:16Z</time>
      </trkpt>
      <trkpt lat="42.627545" lon="0.457197">
        <ele>2097.000000</ele>
        <time>2021-09-04T10:46:17Z</time>
      </trkpt>
      <trkpt lat="42.627545" lon="0.457193">
        <ele>2097.000000</ele>
        <time>2021-09-04T10:46:18Z</time>
      </trkpt>
      <trkpt lat="42.627546" lon="0.457192">
        <ele>2097.000000</ele>
        <time>2021-09-04T10:46:19Z</time>
      </trkpt>
      <trkpt lat="42.627547" lon="0.457187">
        <ele>2097.000000</ele>
        <time>2021-09-04T10:46:20Z</time>
      </trkpt>
      <trkpt lat="42.627549" lon="0.457173">
        <ele>2097.000000</ele>
        <time>2021-09-04T10:46:21Z</time>
      </trkpt>
      <trkpt lat="42.627551" lon="0.457158">
        <ele>2097.000000</ele>
        <time>2021-09-04T10:46:22Z</time>
      </trkpt>
      <trkpt lat="42.627552" lon="0.457147">
        <ele>2097.000000</ele>
        <time>2021-09-04T10:46:23Z</time>
      </trkpt>
      <trkpt lat="42.627552" lon="0.457140">
        <ele>2097.000000</ele>
        <time>2021-09-04T10:46:24Z</time>
      </trkpt>
      <trkpt lat="42.627551" lon="0.457137">
        <ele>2097.000000</ele>
        <time>2021-09-04T10:46:25Z</time>
      </trkpt>
      <trkpt lat="42.627551" lon="0.457135">
        <ele>2095.000000</ele>
        <time>2021-09-04T10:46:26Z</time>
      </trkpt>
      <trkpt lat="42.627551" lon="0.457137">
        <ele>2095.000000</ele>
        <time>2021-09-04T10:46:27Z</time>
      </trkpt>
      <trkpt lat="42.627552" lon="0.457145">
        <ele>2095.000000</ele>
        <time>2021-09-04T10:46:31Z</time>
      </trkpt>
      <trkpt lat="42.627522" lon="0.457115">
        <ele>2093.000000</ele>
        <time>2021-09-04T10:50:11Z</time>
      </trkpt>
      <trkpt lat="42.627522" lon="0.457113">
        <ele>2093.000000</ele>
        <time>2021-09-04T10:50:12Z</time>
      </trkpt>
      <trkpt lat="42.627522" lon="0.457114">
        <ele>2093.000000</ele>
        <time>2021-09-04T10:50:13Z</time>
      </trkpt>
      <trkpt lat="42.627520" lon="0.457120">
        <ele>2093.000000</ele>
        <time>2021-09-04T10:50:14Z</time>
      </trkpt>
      <trkpt lat="42.627522" lon="0.457117">
        <ele>2093.000000</ele>
        <time>2021-09-04T10:50:15Z</time>
      </trkpt>
      <trkpt lat="42.627525" lon="0.457120">
        <ele>2093.000000</ele>
        <time>2021-09-04T10:50:18Z</time>
      </trkpt>
      <trkpt lat="42.627523" lon="0.457120">
        <ele>2093.000000</ele>
        <time>2021-09-04T10:50:19Z</time>
      </trkpt>
      <trkpt lat="42.627513" lon="0.457073">
        <ele>2093.000000</ele>
        <time>2021-09-04T10:51:26Z</time>
      </trkpt>
      <trkpt lat="42.627512" lon="0.457057">
        <ele>2093.000000</ele>
        <time>2021-09-04T10:51:27Z</time>
      </trkpt>
      <trkpt lat="42.627511" lon="0.457050">
        <ele>2093.000000</ele>
        <time>2021-09-04T10:51:28Z</time>
      </trkpt>
      <trkpt lat="42.627510" lon="0.457042">
        <ele>2093.000000</ele>
        <time>2021-09-04T10:51:29Z</time>
      </trkpt>
      <trkpt lat="42.627508" lon="0.457028">
        <ele>2093.000000</ele>
        <time>2021-09-04T10:51:30Z</time>
      </trkpt>
      <trkpt lat="42.627505" lon="0.457017">
        <ele>2093.000000</ele>
        <time>2021-09-04T10:51:31Z</time>
      </trkpt>
      <trkpt lat="42.627504" lon="0.457013">
        <ele>2093.000000</ele>
        <time>2021-09-04T10:51:32Z</time>
      </trkpt>
      <trkpt lat="42.627502" lon="0.457015">
        <ele>2093.000000</ele>
        <time>2021-09-04T10:51:33Z</time>
      </trkpt>
      <trkpt lat="42.627501" lon="0.457020">
        <ele>2093.000000</ele>
        <time>2021-09-04T10:51:34Z</time>
      </trkpt>
      <trkpt lat="42.627487" lon="0.457025">
        <ele>2093.000000</ele>
        <time>2021-09-04T10:51:35Z</time>
      </trkpt>
      <trkpt lat="42.627480" lon="0.457033">
        <ele>2093.000000</ele>
        <time>2021-09-04T10:51:36Z</time>
      </trkpt>
      <trkpt lat="42.627472" lon="0.457043">
        <ele>2093.000000</ele>
        <time>2021-09-04T10:51:37Z</time>
      </trkpt>
      <trkpt lat="42.627463" lon="0.457055">
        <ele>2093.000000</ele>
        <time>2021-09-04T10:51:38Z</time>
      </trkpt>
      <trkpt lat="42.627453" lon="0.457055">
        <ele>2093.000000</ele>
        <time>2021-09-04T10:51:39Z</time>
      </trkpt>
      <trkpt lat="42.627445" lon="0.457055">
        <ele>2093.000000</ele>
        <time>2021-09-04T10:51:40Z</time>
      </trkpt>
      <trkpt lat="42.627438" lon="0.457047">
        <ele>2093.000000</ele>
        <time>2021-09-04T10:51:41Z</time>
      </trkpt>
      <trkpt lat="42.627432" lon="0.457035">
        <ele>2093.000000</ele>
        <time>2021-09-04T10:51:42Z</time>
      </trkpt>
      <trkpt lat="42.627427" lon="0.457022">
        <ele>2093.000000</ele>
        <time>2021-09-04T10:51:43Z</time>
      </trkpt>
      <trkpt lat="42.627422" lon="0.457015">
        <ele>2093.000000</ele>
        <time>2021-09-04T10:51:44Z</time>
      </trkpt>
      <trkpt lat="42.627422" lon="0.457010">
        <ele>2093.000000</ele>
        <time>2021-09-04T10:51:45Z</time>
      </trkpt>
      <trkpt lat="42.627422" lon="0.457003">
        <ele>2093.000000</ele>
        <time>2021-09-04T10:51:46Z</time>
      </trkpt>
      <trkpt lat="42.627423" lon="0.457000">
        <ele>2093.000000</ele>
        <time>2021-09-04T10:51:47Z</time>
      </trkpt>
      <trkpt lat="42.627422" lon="0.456997">
        <ele>2093.000000</ele>
        <time>2021-09-04T10:51:50Z</time>
      </trkpt>
      <trkpt lat="42.627422" lon="0.456998">
        <ele>2093.000000</ele>
        <time>2021-09-04T10:51:54Z</time>
      </trkpt>
      <trkpt lat="42.627420" lon="0.457045">
        <ele>2093.000000</ele>
        <time>2021-09-04T10:52:54Z</time>
      </trkpt>
      <trkpt lat="42.627425" lon="0.457058">
        <ele>2093.000000</ele>
        <time>2021-09-04T10:52:55Z</time>
      </trkpt>
      <trkpt lat="42.627430" lon="0.457068">
        <ele>2093.000000</ele>
        <time>2021-09-04T10:52:56Z</time>
      </trkpt>
      <trkpt lat="42.627442" lon="0.457072">
        <ele>2093.000000</ele>
        <time>2021-09-04T10:52:57Z</time>
      </trkpt>
      <trkpt lat="42.627453" lon="0.457071">
        <ele>2093.000000</ele>
        <time>2021-09-04T10:52:58Z</time>
      </trkpt>
      <trkpt lat="42.627462" lon="0.457063">
        <ele>2093.000000</ele>
        <time>2021-09-04T10:52:59Z</time>
      </trkpt>
      <trkpt lat="42.627470" lon="0.457053">
        <ele>2093.000000</ele>
        <time>2021-09-04T10:53:00Z</time>
      </trkpt>
      <trkpt lat="42.627477" lon="0.457043">
        <ele>2093.000000</ele>
        <time>2021-09-04T10:53:01Z</time>
      </trkpt>
      <trkpt lat="42.627483" lon="0.457037">
        <ele>2093.000000</ele>
        <time>2021-09-04T10:53:02Z</time>
      </trkpt>
      <trkpt lat="42.627493" lon="0.457032">
        <ele>2093.000000</ele>
        <time>2021-09-04T10:53:03Z</time>
      </trkpt>
      <trkpt lat="42.627498" lon="0.457026">
        <ele>2093.000000</ele>
        <time>2021-09-04T10:53:04Z</time>
      </trkpt>
      <trkpt lat="42.627502" lon="0.457023">
        <ele>2093.000000</ele>
        <time>2021-09-04T10:53:05Z</time>
      </trkpt>
      <trkpt lat="42.627508" lon="0.457026">
        <ele>2093.000000</ele>
        <time>2021-09-04T10:53:06Z</time>
      </trkpt>
      <trkpt lat="42.627513" lon="0.457030">
        <ele>2093.000000</ele>
        <time>2021-09-04T10:53:08Z</time>
      </trkpt>
      <trkpt lat="42.627518" lon="0.457035">
        <ele>2093.000000</ele>
        <time>2021-09-04T10:53:08Z</time>
      </trkpt>
      <trkpt lat="42.627523" lon="0.457032">
        <ele>2093.000000</ele>
        <time>2021-09-04T10:53:09Z</time>
      </trkpt>
      <trkpt lat="42.627525" lon="0.457032">
        <ele>2093.000000</ele>
        <time>2021-09-04T10:53:10Z</time>
      </trkpt>
      <trkpt lat="42.627525" lon="0.457034">
        <ele>2093.000000</ele>
        <time>2021-09-04T10:53:11Z</time>
      </trkpt>
      <trkpt lat="42.627527" lon="0.457033">
        <ele>2093.000000</ele>
        <time>2021-09-04T10:53:12Z</time>
      </trkpt>
      <trkpt lat="42.627528" lon="0.457031">
        <ele>2093.000000</ele>
        <time>2021-09-04T10:53:13Z</time>
      </trkpt>
      <trkpt lat="42.627530" lon="0.457029">
        <ele>2093.000000</ele>
        <time>2021-09-04T10:53:14Z</time>
      </trkpt>
      <trkpt lat="42.627528" lon="0.457030">
        <ele>2093.000000</ele>
        <time>2021-09-04T10:53:15Z</time>
      </trkpt>
      <trkpt lat="42.627523" lon="0.457034">
        <ele>2093.000000</ele>
        <time>2021-09-04T10:53:16Z</time>
      </trkpt>
      <trkpt lat="42.627520" lon="0.457048">
        <ele>2093.000000</ele>
        <time>2021-09-04T10:53:17Z</time>
      </trkpt>
      <trkpt lat="42.627520" lon="0.457053">
        <ele>2093.000000</ele>
        <time>2021-09-04T10:53:18Z</time>
      </trkpt>
      <trkpt lat="42.627526" lon="0.457060">
        <ele>2093.000000</ele>
        <time>2021-09-04T10:53:19Z</time>
      </trkpt>
      <trkpt lat="42.627529" lon="0.457065">
        <ele>2093.000000</ele>
        <time>2021-09-04T10:53:20Z</time>
      </trkpt>
      <trkpt lat="42.627533" lon="0.457072">
        <ele>2093.000000</ele>
        <time>2021-09-04T10:53:21Z</time>
      </trkpt>
      <trkpt lat="42.627534" lon="0.457083">
        <ele>2093.000000</ele>
        <time>2021-09-04T10:53:22Z</time>
      </trkpt>
      <trkpt lat="42.627532" lon="0.457088">
        <ele>2093.000000</ele>
        <time>2021-09-04T10:53:23Z</time>
      </trkpt>
      <trkpt lat="42.627523" lon="0.457097">
        <ele>2093.000000</ele>
        <time>2021-09-04T10:53:24Z</time>
      </trkpt>
      <trkpt lat="42.627525" lon="0.457107">
        <ele>2093.000000</ele>
        <time>2021-09-04T10:53:25Z</time>
      </trkpt>
      <trkpt lat="42.627528" lon="0.457115">
        <ele>2093.000000</ele>
        <time>2021-09-04T10:53:26Z</time>
      </trkpt>
      <trkpt lat="42.627531" lon="0.457125">
        <ele>2093.000000</ele>
        <time>2021-09-04T10:53:27Z</time>
      </trkpt>
      <trkpt lat="42.627530" lon="0.457137">
        <ele>2093.000000</ele>
        <time>2021-09-04T10:53:28Z</time>
      </trkpt>
      <trkpt lat="42.627527" lon="0.457147">
        <ele>2093.000000</ele>
        <time>2021-09-04T10:53:29Z</time>
      </trkpt>
      <trkpt lat="42.627520" lon="0.457152">
        <ele>2093.000000</ele>
        <time>2021-09-04T10:53:30Z</time>
      </trkpt>
      <trkpt lat="42.627517" lon="0.457147">
        <ele>2093.000000</ele>
        <time>2021-09-04T10:53:34Z</time>
      </trkpt>
      <trkpt lat="42.627517" lon="0.457142">
        <ele>2093.000000</ele>
        <time>2021-09-04T10:53:35Z</time>
      </trkpt>
      <trkpt lat="42.627519" lon="0.457138">
        <ele>2093.000000</ele>
        <time>2021-09-04T10:53:36Z</time>
      </trkpt>
      <trkpt lat="42.627521" lon="0.457135">
        <ele>2093.000000</ele>
        <time>2021-09-04T10:53:37Z</time>
      </trkpt>
      <trkpt lat="42.627523" lon="0.457130">
        <ele>2093.000000</ele>
        <time>2021-09-04T10:53:38Z</time>
      </trkpt>
      <trkpt lat="42.627525" lon="0.457123">
        <ele>2093.000000</ele>
        <time>2021-09-04T10:53:39Z</time>
      </trkpt>
      <trkpt lat="42.627524" lon="0.457127">
        <ele>2093.000000</ele>
        <time>2021-09-04T10:53:40Z</time>
      </trkpt>
      <trkpt lat="42.627524" lon="0.457125">
        <ele>2093.000000</ele>
        <time>2021-09-04T10:53:41Z</time>
      </trkpt>
      <trkpt lat="42.627524" lon="0.457123">
        <ele>2093.000000</ele>
        <time>2021-09-04T10:53:42Z</time>
      </trkpt>
      <trkpt lat="42.627525" lon="0.457118">
        <ele>2093.000000</ele>
        <time>2021-09-04T10:53:45Z</time>
      </trkpt>
      <trkpt lat="42.627529" lon="0.457120">
        <ele>2093.000000</ele>
        <time>2021-09-04T10:53:47Z</time>
      </trkpt>
      <trkpt lat="42.627530" lon="0.457125">
        <ele>2093.000000</ele>
        <time>2021-09-04T10:53:48Z</time>
      </trkpt>
      <trkpt lat="42.627531" lon="0.457135">
        <ele>2093.000000</ele>
        <time>2021-09-04T10:53:49Z</time>
      </trkpt>
      <trkpt lat="42.627527" lon="0.457143">
        <ele>2093.000000</ele>
        <time>2021-09-04T10:53:50Z</time>
      </trkpt>
      <trkpt lat="42.627523" lon="0.457153">
        <ele>2093.000000</ele>
        <time>2021-09-04T10:53:51Z</time>
      </trkpt>
      <trkpt lat="42.627521" lon="0.457158">
        <ele>2093.000000</ele>
        <time>2021-09-04T10:53:52Z</time>
      </trkpt>
      <trkpt lat="42.627517" lon="0.457160">
        <ele>2093.000000</ele>
        <time>2021-09-04T10:53:54Z</time>
      </trkpt>
      <trkpt lat="42.627513" lon="0.457163">
        <ele>2093.000000</ele>
        <time>2021-09-04T10:53:55Z</time>
      </trkpt>
      <trkpt lat="42.627512" lon="0.457165">
        <ele>2093.000000</ele>
        <time>2021-09-04T10:53:56Z</time>
      </trkpt>
      <trkpt lat="42.627510" lon="0.457166">
        <ele>2093.000000</ele>
        <time>2021-09-04T10:53:57Z</time>
      </trkpt>
      <trkpt lat="42.627508" lon="0.457168">
        <ele>2093.000000</ele>
        <time>2021-09-04T10:53:58Z</time>
      </trkpt>
      <trkpt lat="42.627507" lon="0.457171">
        <ele>2093.000000</ele>
        <time>2021-09-04T10:53:59Z</time>
      </trkpt>
      <trkpt lat="42.627513" lon="0.457163">
        <ele>2093.000000</ele>
        <time>2021-09-04T10:54:00Z</time>
      </trkpt>
      <trkpt lat="42.627507" lon="0.457187">
        <ele>2093.000000</ele>
        <time>2021-09-04T10:54:51Z</time>
      </trkpt>
      <trkpt lat="42.627503" lon="0.457198">
        <ele>2093.000000</ele>
        <time>2021-09-04T10:54:52Z</time>
      </trkpt>
      <trkpt lat="42.627500" lon="0.457208">
        <ele>2093.000000</ele>
        <time>2021-09-04T10:54:53Z</time>
      </trkpt>
      <trkpt lat="42.627497" lon="0.457218">
        <ele>2093.000000</ele>
        <time>2021-09-04T10:54:54Z</time>
      </trkpt>
      <trkpt lat="42.627492" lon="0.457227">
        <ele>2093.000000</ele>
        <time>2021-09-04T10:54:55Z</time>
      </trkpt>
      <trkpt lat="42.627489" lon="0.457235">
        <ele>2093.000000</ele>
        <time>2021-09-04T10:54:56Z</time>
      </trkpt>
      <trkpt lat="42.627487" lon="0.457243">
        <ele>2093.000000</ele>
        <time>2021-09-04T10:54:59Z</time>
      </trkpt>
      <trkpt lat="42.627488" lon="0.457240">
        <ele>2093.000000</ele>
        <time>2021-09-04T10:55:02Z</time>
      </trkpt>
      <trkpt lat="42.627491" lon="0.457238">
        <ele>2093.000000</ele>
        <time>2021-09-04T10:55:04Z</time>
      </trkpt>
      <trkpt lat="42.627492" lon="0.457240">
        <ele>2093.000000</ele>
        <time>2021-09-04T10:55:06Z</time>
      </trkpt>
      <trkpt lat="42.627492" lon="0.457240">
        <ele>2093.000000</ele>
        <time>2021-09-04T10:55:07Z</time>
      </trkpt>
      <trkpt lat="42.627532" lon="0.457188">
        <ele>2093.000000</ele>
        <time>2021-09-04T10:56:41Z</time>
      </trkpt>
      <trkpt lat="42.627535" lon="0.457183">
        <ele>2093.000000</ele>
        <time>2021-09-04T10:56:42Z</time>
      </trkpt>
      <trkpt lat="42.627535" lon="0.457175">
        <ele>2093.000000</ele>
        <time>2021-09-04T10:56:43Z</time>
      </trkpt>
      <trkpt lat="42.627533" lon="0.457168">
        <ele>2093.000000</ele>
        <time>2021-09-04T10:56:44Z</time>
      </trkpt>
      <trkpt lat="42.627532" lon="0.457165">
        <ele>2093.000000</ele>
        <time>2021-09-04T10:56:46Z</time>
      </trkpt>
      <trkpt lat="42.627528" lon="0.457167">
        <ele>2093.000000</ele>
        <time>2021-09-04T10:56:47Z</time>
      </trkpt>
      <trkpt lat="42.627527" lon="0.457165">
        <ele>2093.000000</ele>
        <time>2021-09-04T10:56:48Z</time>
      </trkpt>
      <trkpt lat="42.627525" lon="0.457160">
        <ele>2093.000000</ele>
        <time>2021-09-04T10:56:49Z</time>
      </trkpt>
      <trkpt lat="42.627523" lon="0.457148">
        <ele>2093.000000</ele>
        <time>2021-09-04T10:56:50Z</time>
      </trkpt>
      <trkpt lat="42.627524" lon="0.457145">
        <ele>2093.000000</ele>
        <time>2021-09-04T10:56:51Z</time>
      </trkpt>
      <trkpt lat="42.627524" lon="0.457147">
        <ele>2093.000000</ele>
        <time>2021-09-04T10:56:52Z</time>
      </trkpt>
      <trkpt lat="42.627524" lon="0.457150">
        <ele>2093.000000</ele>
        <time>2021-09-04T10:56:53Z</time>
      </trkpt>
      <trkpt lat="42.627522" lon="0.457145">
        <ele>2093.000000</ele>
        <time>2021-09-04T10:56:54Z</time>
      </trkpt>
      <trkpt lat="42.627521" lon="0.457142">
        <ele>2093.000000</ele>
        <time>2021-09-04T10:56:55Z</time>
      </trkpt>
      <trkpt lat="42.627520" lon="0.457140">
        <ele>2093.000000</ele>
        <time>2021-09-04T10:56:56Z</time>
      </trkpt>
      <trkpt lat="42.627521" lon="0.457145">
        <ele>2093.000000</ele>
        <time>2021-09-04T10:56:58Z</time>
      </trkpt>
      <trkpt lat="42.627547" lon="0.457110">
        <ele>2093.000000</ele>
        <time>2021-09-04T10:59:28Z</time>
      </trkpt>
      <trkpt lat="42.627553" lon="0.457090">
        <ele>2093.000000</ele>
        <time>2021-09-04T10:59:29Z</time>
      </trkpt>
      <trkpt lat="42.627559" lon="0.457077">
        <ele>2093.000000</ele>
        <time>2021-09-04T10:59:30Z</time>
      </trkpt>
      <trkpt lat="42.627567" lon="0.457063">
        <ele>2093.000000</ele>
        <time>2021-09-04T10:59:31Z</time>
      </trkpt>
      <trkpt lat="42.627575" lon="0.457048">
        <ele>2093.000000</ele>
        <time>2021-09-04T10:59:32Z</time>
      </trkpt>
      <trkpt lat="42.627584" lon="0.457038">
        <ele>2093.000000</ele>
        <time>2021-09-04T10:59:33Z</time>
      </trkpt>
      <trkpt lat="42.627593" lon="0.457027">
        <ele>2093.000000</ele>
        <time>2021-09-04T10:59:34Z</time>
      </trkpt>
      <trkpt lat="42.627601" lon="0.457015">
        <ele>2093.000000</ele>
        <time>2021-09-04T10:59:35Z</time>
      </trkpt>
      <trkpt lat="42.627607" lon="0.457005">
        <ele>2093.000000</ele>
        <time>2021-09-04T10:59:36Z</time>
      </trkpt>
      <trkpt lat="42.627613" lon="0.456998">
        <ele>2093.000000</ele>
        <time>2021-09-04T10:59:37Z</time>
      </trkpt>
      <trkpt lat="42.627619" lon="0.456988">
        <ele>2093.000000</ele>
        <time>2021-09-04T10:59:38Z</time>
      </trkpt>
      <trkpt lat="42.627627" lon="0.456975">
        <ele>2093.000000</ele>
        <time>2021-09-04T10:59:39Z</time>
      </trkpt>
      <trkpt lat="42.627636" lon="0.456958">
        <ele>2093.000000</ele>
        <time>2021-09-04T10:59:40Z</time>
      </trkpt>
      <trkpt lat="42.627643" lon="0.456947">
        <ele>2093.000000</ele>
        <time>2021-09-04T10:59:41Z</time>
      </trkpt>
      <trkpt lat="42.627651" lon="0.456933">
        <ele>2093.000000</ele>
        <time>2021-09-04T10:59:42Z</time>
      </trkpt>
      <trkpt lat="42.627656" lon="0.456925">
        <ele>2093.000000</ele>
        <time>2021-09-04T10:59:43Z</time>
      </trkpt>
      <trkpt lat="42.627661" lon="0.456915">
        <ele>2093.000000</ele>
        <time>2021-09-04T10:59:44Z</time>
      </trkpt>
      <trkpt lat="42.627665" lon="0.456908">
        <ele>2093.000000</ele>
        <time>2021-09-04T10:59:45Z</time>
      </trkpt>
      <trkpt lat="42.627668" lon="0.456912">
        <ele>2093.000000</ele>
        <time>2021-09-04T10:59:46Z</time>
      </trkpt>
      <trkpt lat="42.627673" lon="0.456919">
        <ele>2093.000000</ele>
        <time>2021-09-04T10:59:47Z</time>
      </trkpt>
      <trkpt lat="42.627678" lon="0.456922">
        <ele>2093.000000</ele>
        <time>2021-09-04T10:59:48Z</time>
      </trkpt>
      <trkpt lat="42.627677" lon="0.456923">
        <ele>2093.000000</ele>
        <time>2021-09-04T10:59:49Z</time>
      </trkpt>
      <trkpt lat="42.627673" lon="0.456923">
        <ele>2093.000000</ele>
        <time>2021-09-04T10:59:50Z</time>
      </trkpt>
      <trkpt lat="42.627677" lon="0.456922">
        <ele>2093.000000</ele>
        <time>2021-09-04T10:59:51Z</time>
      </trkpt>
      <trkpt lat="42.627678" lon="0.456920">
        <ele>2093.000000</ele>
        <time>2021-09-04T10:59:52Z</time>
      </trkpt>
      <trkpt lat="42.627680" lon="0.456914">
        <ele>2093.000000</ele>
        <time>2021-09-04T10:59:53Z</time>
      </trkpt>
      <trkpt lat="42.627683" lon="0.456908">
        <ele>2093.000000</ele>
        <time>2021-09-04T10:59:54Z</time>
      </trkpt>
      <trkpt lat="42.627688" lon="0.456903">
        <ele>2093.000000</ele>
        <time>2021-09-04T10:59:55Z</time>
      </trkpt>
      <trkpt lat="42.627693" lon="0.456901">
        <ele>2093.000000</ele>
        <time>2021-09-04T10:59:56Z</time>
      </trkpt>
      <trkpt lat="42.627702" lon="0.456898">
        <ele>2093.000000</ele>
        <time>2021-09-04T10:59:57Z</time>
      </trkpt>
      <trkpt lat="42.627708" lon="0.456900">
        <ele>2093.000000</ele>
        <time>2021-09-04T10:59:58Z</time>
      </trkpt>
      <trkpt lat="42.627712" lon="0.456902">
        <ele>2093.000000</ele>
        <time>2021-09-04T10:59:59Z</time>
      </trkpt>
      <trkpt lat="42.627717" lon="0.456900">
        <ele>2093.000000</ele>
        <time>2021-09-04T11:00:01Z</time>
      </trkpt>
      <trkpt lat="42.627718" lon="0.456893">
        <ele>2093.000000</ele>
        <time>2021-09-04T11:00:02Z</time>
      </trkpt>
      <trkpt lat="42.627725" lon="0.456889">
        <ele>2093.000000</ele>
        <time>2021-09-04T11:00:03Z</time>
      </trkpt>
      <trkpt lat="42.627735" lon="0.456889">
        <ele>2093.000000</ele>
        <time>2021-09-04T11:00:04Z</time>
      </trkpt>
      <trkpt lat="42.627745" lon="0.456888">
        <ele>2093.000000</ele>
        <time>2021-09-04T11:00:05Z</time>
      </trkpt>
      <trkpt lat="42.627753" lon="0.456887">
        <ele>2093.000000</ele>
        <time>2021-09-04T11:00:06Z</time>
      </trkpt>
      <trkpt lat="42.627762" lon="0.456883">
        <ele>2093.000000</ele>
        <time>2021-09-04T11:00:07Z</time>
      </trkpt>
      <trkpt lat="42.627768" lon="0.456884">
        <ele>2093.000000</ele>
        <time>2021-09-04T11:00:08Z</time>
      </trkpt>
      <trkpt lat="42.627772" lon="0.456883">
        <ele>2093.000000</ele>
        <time>2021-09-04T11:00:09Z</time>
      </trkpt>
      <trkpt lat="42.627778" lon="0.456880">
        <ele>2093.000000</ele>
        <time>2021-09-04T11:00:10Z</time>
      </trkpt>
      <trkpt lat="42.627787" lon="0.456878">
        <ele>2093.000000</ele>
        <time>2021-09-04T11:00:11Z</time>
      </trkpt>
      <trkpt lat="42.627793" lon="0.456877">
        <ele>2093.000000</ele>
        <time>2021-09-04T11:00:12Z</time>
      </trkpt>
      <trkpt lat="42.627798" lon="0.456875">
        <ele>2093.000000</ele>
        <time>2021-09-04T11:00:13Z</time>
      </trkpt>
      <trkpt lat="42.627807" lon="0.456873">
        <ele>2093.000000</ele>
        <time>2021-09-04T11:00:14Z</time>
      </trkpt>
      <trkpt lat="42.627817" lon="0.456873">
        <ele>2093.000000</ele>
        <time>2021-09-04T11:00:15Z</time>
      </trkpt>
      <trkpt lat="42.627825" lon="0.456878">
        <ele>2093.000000</ele>
        <time>2021-09-04T11:00:16Z</time>
      </trkpt>
      <trkpt lat="42.627838" lon="0.456888">
        <ele>2093.000000</ele>
        <time>2021-09-04T11:00:17Z</time>
      </trkpt>
      <trkpt lat="42.627845" lon="0.456900">
        <ele>2093.000000</ele>
        <time>2021-09-04T11:00:18Z</time>
      </trkpt>
      <trkpt lat="42.627850" lon="0.456912">
        <ele>2093.000000</ele>
        <time>2021-09-04T11:00:19Z</time>
      </trkpt>
      <trkpt lat="42.627852" lon="0.456922">
        <ele>2093.000000</ele>
        <time>2021-09-04T11:00:20Z</time>
      </trkpt>
      <trkpt lat="42.627855" lon="0.456933">
        <ele>2093.000000</ele>
        <time>2021-09-04T11:00:21Z</time>
      </trkpt>
      <trkpt lat="42.627862" lon="0.456945">
        <ele>2093.000000</ele>
        <time>2021-09-04T11:00:22Z</time>
      </trkpt>
      <trkpt lat="42.627867" lon="0.456953">
        <ele>2093.000000</ele>
        <time>2021-09-04T11:00:23Z</time>
      </trkpt>
      <trkpt lat="42.627873" lon="0.456967">
        <ele>2093.000000</ele>
        <time>2021-09-04T11:00:24Z</time>
      </trkpt>
      <trkpt lat="42.627878" lon="0.456972">
        <ele>2093.000000</ele>
        <time>2021-09-04T11:00:25Z</time>
      </trkpt>
      <trkpt lat="42.627883" lon="0.456973">
        <ele>2093.000000</ele>
        <time>2021-09-04T11:00:26Z</time>
      </trkpt>
      <trkpt lat="42.627888" lon="0.456973">
        <ele>2093.000000</ele>
        <time>2021-09-04T11:00:27Z</time>
      </trkpt>
      <trkpt lat="42.627895" lon="0.456975">
        <ele>2093.000000</ele>
        <time>2021-09-04T11:00:27Z</time>
      </trkpt>
      <trkpt lat="42.627903" lon="0.456973">
        <ele>2093.000000</ele>
        <time>2021-09-04T11:00:29Z</time>
      </trkpt>
      <trkpt lat="42.627910" lon="0.456978">
        <ele>2093.000000</ele>
        <time>2021-09-04T11:00:29Z</time>
      </trkpt>
      <trkpt lat="42.627915" lon="0.456982">
        <ele>2093.000000</ele>
        <time>2021-09-04T11:00:30Z</time>
      </trkpt>
      <trkpt lat="42.627920" lon="0.456984">
        <ele>2093.000000</ele>
        <time>2021-09-04T11:00:31Z</time>
      </trkpt>
      <trkpt lat="42.627928" lon="0.456993">
        <ele>2093.000000</ele>
        <time>2021-09-04T11:00:32Z</time>
      </trkpt>
      <trkpt lat="42.627932" lon="0.457000">
        <ele>2093.000000</ele>
        <time>2021-09-04T11:00:33Z</time>
      </trkpt>
      <trkpt lat="42.627933" lon="0.457004">
        <ele>2093.000000</ele>
        <time>2021-09-04T11:00:34Z</time>
      </trkpt>
      <trkpt lat="42.627932" lon="0.457005">
        <ele>2093.000000</ele>
        <time>2021-09-04T11:00:35Z</time>
      </trkpt>
      <trkpt lat="42.627932" lon="0.457008">
        <ele>2093.000000</ele>
        <time>2021-09-04T11:00:36Z</time>
      </trkpt>
      <trkpt lat="42.627932" lon="0.457020">
        <ele>2093.000000</ele>
        <time>2021-09-04T11:00:37Z</time>
      </trkpt>
      <trkpt lat="42.627932" lon="0.457028">
        <ele>2093.000000</ele>
        <time>2021-09-04T11:00:38Z</time>
      </trkpt>
      <trkpt lat="42.627930" lon="0.457035">
        <ele>2093.000000</ele>
        <time>2021-09-04T11:00:39Z</time>
      </trkpt>
      <trkpt lat="42.627922" lon="0.457042">
        <ele>2093.000000</ele>
        <time>2021-09-04T11:00:40Z</time>
      </trkpt>
      <trkpt lat="42.627917" lon="0.457045">
        <ele>2093.000000</ele>
        <time>2021-09-04T11:00:41Z</time>
      </trkpt>
      <trkpt lat="42.627913" lon="0.457050">
        <ele>2093.000000</ele>
        <time>2021-09-04T11:00:42Z</time>
      </trkpt>
      <trkpt lat="42.627913" lon="0.457053">
        <ele>2093.000000</ele>
        <time>2021-09-04T11:00:43Z</time>
      </trkpt>
      <trkpt lat="42.627913" lon="0.457067">
        <ele>2093.000000</ele>
        <time>2021-09-04T11:00:44Z</time>
      </trkpt>
      <trkpt lat="42.627915" lon="0.457073">
        <ele>2093.000000</ele>
        <time>2021-09-04T11:00:45Z</time>
      </trkpt>
      <trkpt lat="42.627913" lon="0.457082">
        <ele>2093.000000</ele>
        <time>2021-09-04T11:00:48Z</time>
      </trkpt>
      <trkpt lat="42.627910" lon="0.457088">
        <ele>2093.000000</ele>
        <time>2021-09-04T11:00:49Z</time>
      </trkpt>
      <trkpt lat="42.627908" lon="0.457092">
        <ele>2093.000000</ele>
        <time>2021-09-04T11:00:50Z</time>
      </trkpt>
      <trkpt lat="42.627905" lon="0.457100">
        <ele>2093.000000</ele>
        <time>2021-09-04T11:00:51Z</time>
      </trkpt>
      <trkpt lat="42.627904" lon="0.457107">
        <ele>2093.000000</ele>
        <time>2021-09-04T11:00:52Z</time>
      </trkpt>
      <trkpt lat="42.627901" lon="0.457117">
        <ele>2093.000000</ele>
        <time>2021-09-04T11:00:53Z</time>
      </trkpt>
      <trkpt lat="42.627899" lon="0.457122">
        <ele>2093.000000</ele>
        <time>2021-09-04T11:00:54Z</time>
      </trkpt>
      <trkpt lat="42.627897" lon="0.457125">
        <ele>2093.000000</ele>
        <time>2021-09-04T11:00:55Z</time>
      </trkpt>
      <trkpt lat="42.627895" lon="0.457125">
        <ele>2093.000000</ele>
        <time>2021-09-04T11:00:56Z</time>
      </trkpt>
      <trkpt lat="42.627895" lon="0.457123">
        <ele>2093.000000</ele>
        <time>2021-09-04T11:00:58Z</time>
      </trkpt>
      <trkpt lat="42.627893" lon="0.457125">
        <ele>2093.000000</ele>
        <time>2021-09-04T11:00:59Z</time>
      </trkpt>
      <trkpt lat="42.627893" lon="0.457127">
        <ele>2093.000000</ele>
        <time>2021-09-04T11:01:00Z</time>
      </trkpt>
      <trkpt lat="42.627892" lon="0.457130">
        <ele>2093.000000</ele>
        <time>2021-09-04T11:01:01Z</time>
      </trkpt>
      <trkpt lat="42.627892" lon="0.457132">
        <ele>2093.000000</ele>
        <time>2021-09-04T11:01:03Z</time>
      </trkpt>
      <trkpt lat="42.627894" lon="0.457128">
        <ele>2093.000000</ele>
        <time>2021-09-04T11:01:04Z</time>
      </trkpt>
      <trkpt lat="42.627897" lon="0.457120">
        <ele>2093.000000</ele>
        <time>2021-09-04T11:01:05Z</time>
      </trkpt>
      <trkpt lat="42.627897" lon="0.457118">
        <ele>2093.000000</ele>
        <time>2021-09-04T11:01:06Z</time>
      </trkpt>
      <trkpt lat="42.627894" lon="0.457127">
        <ele>2093.000000</ele>
        <time>2021-09-04T11:01:09Z</time>
      </trkpt>
      <trkpt lat="42.627865" lon="0.457048">
        <ele>2093.000000</ele>
        <time>2021-09-04T11:25:15Z</time>
      </trkpt>
      <trkpt lat="42.627868" lon="0.457057">
        <ele>2093.000000</ele>
        <time>2021-09-04T11:25:16Z</time>
      </trkpt>
      <trkpt lat="42.627867" lon="0.457065">
        <ele>2093.000000</ele>
        <time>2021-09-04T11:25:17Z</time>
      </trkpt>
      <trkpt lat="42.627865" lon="0.457067">
        <ele>2093.000000</ele>
        <time>2021-09-04T11:25:18Z</time>
      </trkpt>
      <trkpt lat="42.627860" lon="0.457073">
        <ele>2093.000000</ele>
        <time>2021-09-04T11:25:19Z</time>
      </trkpt>
      <trkpt lat="42.627861" lon="0.457057">
        <ele>2093.000000</ele>
        <time>2021-09-04T11:25:21Z</time>
      </trkpt>
      <trkpt lat="42.627860" lon="0.457052">
        <ele>2093.000000</ele>
        <time>2021-09-04T11:25:28Z</time>
      </trkpt>
      <trkpt lat="42.627865" lon="0.457055">
        <ele>2093.000000</ele>
        <time>2021-09-04T11:25:30Z</time>
      </trkpt>
      <trkpt lat="42.627867" lon="0.457062">
        <ele>2093.000000</ele>
        <time>2021-09-04T11:25:31Z</time>
      </trkpt>
      <trkpt lat="42.627830" lon="0.457018">
        <ele>2093.000000</ele>
        <time>2021-09-04T11:25:53Z</time>
      </trkpt>
      <trkpt lat="42.627830" lon="0.457017">
        <ele>2093.000000</ele>
        <time>2021-09-04T11:25:54Z</time>
      </trkpt>
      <trkpt lat="42.627830" lon="0.457014">
        <ele>2093.000000</ele>
        <time>2021-09-04T11:25:55Z</time>
      </trkpt>
      <trkpt lat="42.627832" lon="0.457005">
        <ele>2093.000000</ele>
        <time>2021-09-04T11:25:56Z</time>
      </trkpt>
      <trkpt lat="42.627835" lon="0.457005">
        <ele>2093.000000</ele>
        <time>2021-09-04T11:25:57Z</time>
      </trkpt>
      <trkpt lat="42.627838" lon="0.457002">
        <ele>2093.000000</ele>
        <time>2021-09-04T11:25:59Z</time>
      </trkpt>
      <trkpt lat="42.627837" lon="0.456997">
        <ele>2093.000000</ele>
        <time>2021-09-04T11:25:59Z</time>
      </trkpt>
      <trkpt lat="42.627839" lon="0.456997">
        <ele>2093.000000</ele>
        <time>2021-09-04T11:26:00Z</time>
      </trkpt>
      <trkpt lat="42.627840" lon="0.456995">
        <ele>2093.000000</ele>
        <time>2021-09-04T11:26:01Z</time>
      </trkpt>
      <trkpt lat="42.627837" lon="0.457002">
        <ele>2093.000000</ele>
        <time>2021-09-04T11:26:03Z</time>
      </trkpt>
      <trkpt lat="42.627871" lon="0.457038">
        <ele>2093.000000</ele>
        <time>2021-09-04T11:26:06Z</time>
      </trkpt>
      <trkpt lat="42.627876" lon="0.457042">
        <ele>2093.000000</ele>
        <time>2021-09-04T11:26:07Z</time>
      </trkpt>
      <trkpt lat="42.627882" lon="0.457042">
        <ele>2093.000000</ele>
        <time>2021-09-04T11:26:08Z</time>
      </trkpt>
      <trkpt lat="42.627887" lon="0.457047">
        <ele>2093.000000</ele>
        <time>2021-09-04T11:26:09Z</time>
      </trkpt>
      <trkpt lat="42.627887" lon="0.457047">
        <ele>2093.000000</ele>
        <time>2021-09-04T11:26:14Z</time>
      </trkpt>
      <trkpt lat="42.627898" lon="0.457078">
        <ele>2093.000000</ele>
        <time>2021-09-04T11:28:00Z</time>
      </trkpt>
      <trkpt lat="42.627898" lon="0.457070">
        <ele>2093.000000</ele>
        <time>2021-09-04T11:28:01Z</time>
      </trkpt>
      <trkpt lat="42.627899" lon="0.457065">
        <ele>2093.000000</ele>
        <time>2021-09-04T11:28:02Z</time>
      </trkpt>
      <trkpt lat="42.627902" lon="0.457062">
        <ele>2093.000000</ele>
        <time>2021-09-04T11:28:03Z</time>
      </trkpt>
      <trkpt lat="42.627905" lon="0.457058">
        <ele>2093.000000</ele>
        <time>2021-09-04T11:28:04Z</time>
      </trkpt>
      <trkpt lat="42.627905" lon="0.457052">
        <ele>2093.000000</ele>
        <time>2021-09-04T11:28:05Z</time>
      </trkpt>
      <trkpt lat="42.627906" lon="0.457045">
        <ele>2093.000000</ele>
        <time>2021-09-04T11:28:06Z</time>
      </trkpt>
      <trkpt lat="42.627909" lon="0.457035">
        <ele>2093.000000</ele>
        <time>2021-09-04T11:28:07Z</time>
      </trkpt>
      <trkpt lat="42.627914" lon="0.457025">
        <ele>2093.000000</ele>
        <time>2021-09-04T11:28:08Z</time>
      </trkpt>
      <trkpt lat="42.627918" lon="0.457022">
        <ele>2093.000000</ele>
        <time>2021-09-04T11:28:09Z</time>
      </trkpt>
      <trkpt lat="42.627925" lon="0.457013">
        <ele>2093.000000</ele>
        <time>2021-09-04T11:28:10Z</time>
      </trkpt>
      <trkpt lat="42.627940" lon="0.457005">
        <ele>2093.000000</ele>
        <time>2021-09-04T11:28:11Z</time>
      </trkpt>
      <trkpt lat="42.627953" lon="0.457000">
        <ele>2093.000000</ele>
        <time>2021-09-04T11:28:12Z</time>
      </trkpt>
      <trkpt lat="42.627962" lon="0.456998">
        <ele>2093.000000</ele>
        <time>2021-09-04T11:28:13Z</time>
      </trkpt>
      <trkpt lat="42.627970" lon="0.456997">
        <ele>2093.000000</ele>
        <time>2021-09-04T11:28:14Z</time>
      </trkpt>
      <trkpt lat="42.627980" lon="0.456997">
        <ele>2093.000000</ele>
        <time>2021-09-04T11:28:15Z</time>
      </trkpt>
      <trkpt lat="42.627988" lon="0.456991">
        <ele>2104.000000</ele>
        <time>2021-09-04T11:28:16Z</time>
      </trkpt>
      <trkpt lat="42.627998" lon="0.456988">
        <ele>2104.000000</ele>
        <time>2021-09-04T11:28:17Z</time>
      </trkpt>
      <trkpt lat="42.628007" lon="0.456985">
        <ele>2104.000000</ele>
        <time>2021-09-04T11:28:18Z</time>
      </trkpt>
      <trkpt lat="42.628013" lon="0.456984">
        <ele>2104.000000</ele>
        <time>2021-09-04T11:28:19Z</time>
      </trkpt>
      <trkpt lat="42.628023" lon="0.456984">
        <ele>2104.000000</ele>
        <time>2021-09-04T11:28:20Z</time>
      </trkpt>
      <trkpt lat="42.628030" lon="0.456984">
        <ele>2104.000000</ele>
        <time>2021-09-04T11:28:21Z</time>
      </trkpt>
      <trkpt lat="42.628028" lon="0.456983">
        <ele>2104.000000</ele>
        <time>2021-09-04T11:28:23Z</time>
      </trkpt>
      <trkpt lat="42.628032" lon="0.456975">
        <ele>2104.000000</ele>
        <time>2021-09-04T11:28:25Z</time>
      </trkpt>
      <trkpt lat="42.628030" lon="0.456973">
        <ele>2104.000000</ele>
        <time>2021-09-04T11:28:26Z</time>
      </trkpt>
      <trkpt lat="42.628028" lon="0.456974">
        <ele>2105.000000</ele>
        <time>2021-09-04T11:28:27Z</time>
      </trkpt>
      <trkpt lat="42.628030" lon="0.456975">
        <ele>2105.000000</ele>
        <time>2021-09-04T11:28:28Z</time>
      </trkpt>
      <trkpt lat="42.628030" lon="0.456976">
        <ele>2105.000000</ele>
        <time>2021-09-04T11:28:29Z</time>
      </trkpt>
      <trkpt lat="42.628028" lon="0.456979">
        <ele>2105.000000</ele>
        <time>2021-09-04T11:28:30Z</time>
      </trkpt>
      <trkpt lat="42.628027" lon="0.456981">
        <ele>2105.000000</ele>
        <time>2021-09-04T11:28:31Z</time>
      </trkpt>
      <trkpt lat="42.628025" lon="0.456982">
        <ele>2105.000000</ele>
        <time>2021-09-04T11:28:32Z</time>
      </trkpt>
      <trkpt lat="42.628022" lon="0.456985">
        <ele>2105.000000</ele>
        <time>2021-09-04T11:28:33Z</time>
      </trkpt>
      <trkpt lat="42.628017" lon="0.456987">
        <ele>2105.000000</ele>
        <time>2021-09-04T11:28:34Z</time>
      </trkpt>
      <trkpt lat="42.628013" lon="0.456985">
        <ele>2105.000000</ele>
        <time>2021-09-04T11:28:35Z</time>
      </trkpt>
      <trkpt lat="42.628008" lon="0.456981">
        <ele>2105.000000</ele>
        <time>2021-09-04T11:28:36Z</time>
      </trkpt>
      <trkpt lat="42.628007" lon="0.456977">
        <ele>2105.000000</ele>
        <time>2021-09-04T11:28:37Z</time>
      </trkpt>
      <trkpt lat="42.628003" lon="0.456975">
        <ele>2105.000000</ele>
        <time>2021-09-04T11:28:39Z</time>
      </trkpt>
      <trkpt lat="42.628013" lon="0.456977">
        <ele>2105.000000</ele>
        <time>2021-09-04T11:28:40Z</time>
      </trkpt>
      <trkpt lat="42.628027" lon="0.456978">
        <ele>2105.000000</ele>
        <time>2021-09-04T11:28:44Z</time>
      </trkpt>
      <trkpt lat="42.628040" lon="0.456976">
        <ele>2105.000000</ele>
        <time>2021-09-04T11:28:45Z</time>
      </trkpt>
      <trkpt lat="42.628052" lon="0.456972">
        <ele>2105.000000</ele>
        <time>2021-09-04T11:28:46Z</time>
      </trkpt>
      <trkpt lat="42.628062" lon="0.456962">
        <ele>2105.000000</ele>
        <time>2021-09-04T11:28:47Z</time>
      </trkpt>
      <trkpt lat="42.628070" lon="0.456962">
        <ele>2105.000000</ele>
        <time>2021-09-04T11:28:48Z</time>
      </trkpt>
      <trkpt lat="42.628082" lon="0.456960">
        <ele>2105.000000</ele>
        <time>2021-09-04T11:28:49Z</time>
      </trkpt>
      <trkpt lat="42.628093" lon="0.456960">
        <ele>2105.000000</ele>
        <time>2021-09-04T11:28:50Z</time>
      </trkpt>
      <trkpt lat="42.628107" lon="0.456958">
        <ele>2105.000000</ele>
        <time>2021-09-04T11:28:51Z</time>
      </trkpt>
      <trkpt lat="42.628122" lon="0.456955">
        <ele>2105.000000</ele>
        <time>2021-09-04T11:28:52Z</time>
      </trkpt>
      <trkpt lat="42.628137" lon="0.456954">
        <ele>2105.000000</ele>
        <time>2021-09-04T11:28:53Z</time>
      </trkpt>
      <trkpt lat="42.628153" lon="0.456954">
        <ele>2105.000000</ele>
        <time>2021-09-04T11:28:54Z</time>
      </trkpt>
      <trkpt lat="42.628165" lon="0.456953">
        <ele>2105.000000</ele>
        <time>2021-09-04T11:28:55Z</time>
      </trkpt>
      <trkpt lat="42.628175" lon="0.456951">
        <ele>2105.000000</ele>
        <time>2021-09-04T11:28:56Z</time>
      </trkpt>
      <trkpt lat="42.628187" lon="0.456950">
        <ele>2105.000000</ele>
        <time>2021-09-04T11:28:57Z</time>
      </trkpt>
      <trkpt lat="42.628198" lon="0.456949">
        <ele>2105.000000</ele>
        <time>2021-09-04T11:28:58Z</time>
      </trkpt>
      <trkpt lat="42.628212" lon="0.456947">
        <ele>2105.000000</ele>
        <time>2021-09-04T11:28:59Z</time>
      </trkpt>
      <trkpt lat="42.628223" lon="0.456945">
        <ele>2105.000000</ele>
        <time>2021-09-04T11:29:00Z</time>
      </trkpt>
      <trkpt lat="42.628235" lon="0.456944">
        <ele>2105.000000</ele>
        <time>2021-09-04T11:29:01Z</time>
      </trkpt>
      <trkpt lat="42.628245" lon="0.456943">
        <ele>2105.000000</ele>
        <time>2021-09-04T11:29:02Z</time>
      </trkpt>
      <trkpt lat="42.628253" lon="0.456942">
        <ele>2105.000000</ele>
        <time>2021-09-04T11:29:03Z</time>
      </trkpt>
      <trkpt lat="42.628262" lon="0.456942">
        <ele>2105.000000</ele>
        <time>2021-09-04T11:29:04Z</time>
      </trkpt>
      <trkpt lat="42.628272" lon="0.456941">
        <ele>2105.000000</ele>
        <time>2021-09-04T11:29:05Z</time>
      </trkpt>
      <trkpt lat="42.628277" lon="0.456941">
        <ele>2105.000000</ele>
        <time>2021-09-04T11:29:06Z</time>
      </trkpt>
      <trkpt lat="42.628285" lon="0.456940">
        <ele>2105.000000</ele>
        <time>2021-09-04T11:29:07Z</time>
      </trkpt>
      <trkpt lat="42.628293" lon="0.456938">
        <ele>2105.000000</ele>
        <time>2021-09-04T11:29:08Z</time>
      </trkpt>
      <trkpt lat="42.628295" lon="0.456930">
        <ele>2107.000000</ele>
        <time>2021-09-04T11:29:10Z</time>
      </trkpt>
      <trkpt lat="42.628300" lon="0.456927">
        <ele>2107.000000</ele>
        <time>2021-09-04T11:29:11Z</time>
      </trkpt>
      <trkpt lat="42.628308" lon="0.456926">
        <ele>2107.000000</ele>
        <time>2021-09-04T11:29:12Z</time>
      </trkpt>
      <trkpt lat="42.628315" lon="0.456925">
        <ele>2107.000000</ele>
        <time>2021-09-04T11:29:13Z</time>
      </trkpt>
      <trkpt lat="42.628322" lon="0.456922">
        <ele>2107.000000</ele>
        <time>2021-09-04T11:29:14Z</time>
      </trkpt>
      <trkpt lat="42.628325" lon="0.456919">
        <ele>2108.000000</ele>
        <time>2021-09-04T11:29:15Z</time>
      </trkpt>
      <trkpt lat="42.628332" lon="0.456916">
        <ele>2108.000000</ele>
        <time>2021-09-04T11:29:16Z</time>
      </trkpt>
      <trkpt lat="42.628335" lon="0.456915">
        <ele>2108.000000</ele>
        <time>2021-09-04T11:29:17Z</time>
      </trkpt>
      <trkpt lat="42.628340" lon="0.456915">
        <ele>2108.000000</ele>
        <time>2021-09-04T11:29:18Z</time>
      </trkpt>
      <trkpt lat="42.628343" lon="0.456916">
        <ele>2109.000000</ele>
        <time>2021-09-04T11:29:19Z</time>
      </trkpt>
      <trkpt lat="42.628347" lon="0.456916">
        <ele>2109.000000</ele>
        <time>2021-09-04T11:29:20Z</time>
      </trkpt>
      <trkpt lat="42.628350" lon="0.456915">
        <ele>2109.000000</ele>
        <time>2021-09-04T11:29:21Z</time>
      </trkpt>
      <trkpt lat="42.628352" lon="0.456914">
        <ele>2109.000000</ele>
        <time>2021-09-04T11:29:22Z</time>
      </trkpt>
      <trkpt lat="42.628353" lon="0.456913">
        <ele>2109.000000</ele>
        <time>2021-09-04T11:29:23Z</time>
      </trkpt>
      <trkpt lat="42.628357" lon="0.456913">
        <ele>2109.000000</ele>
        <time>2021-09-04T11:29:24Z</time>
      </trkpt>
      <trkpt lat="42.628358" lon="0.456913">
        <ele>2109.000000</ele>
        <time>2021-09-04T11:29:25Z</time>
      </trkpt>
      <trkpt lat="42.628363" lon="0.456912">
        <ele>2109.000000</ele>
        <time>2021-09-04T11:29:26Z</time>
      </trkpt>
      <trkpt lat="42.628367" lon="0.456913">
        <ele>2109.000000</ele>
        <time>2021-09-04T11:29:27Z</time>
      </trkpt>
      <trkpt lat="42.628375" lon="0.456912">
        <ele>2109.000000</ele>
        <time>2021-09-04T11:29:28Z</time>
      </trkpt>
      <trkpt lat="42.628382" lon="0.456911">
        <ele>2109.000000</ele>
        <time>2021-09-04T11:29:29Z</time>
      </trkpt>
      <trkpt lat="42.628388" lon="0.456909">
        <ele>2109.000000</ele>
        <time>2021-09-04T11:29:30Z</time>
      </trkpt>
      <trkpt lat="42.628393" lon="0.456907">
        <ele>2109.000000</ele>
        <time>2021-09-04T11:29:31Z</time>
      </trkpt>
      <trkpt lat="42.628393" lon="0.456897">
        <ele>2110.000000</ele>
        <time>2021-09-04T11:29:32Z</time>
      </trkpt>
      <trkpt lat="42.628392" lon="0.456885">
        <ele>2110.000000</ele>
        <time>2021-09-04T11:29:33Z</time>
      </trkpt>
      <trkpt lat="42.628388" lon="0.456877">
        <ele>2110.000000</ele>
        <time>2021-09-04T11:29:34Z</time>
      </trkpt>
      <trkpt lat="42.628385" lon="0.456868">
        <ele>2110.000000</ele>
        <time>2021-09-04T11:29:35Z</time>
      </trkpt>
      <trkpt lat="42.628380" lon="0.456858">
        <ele>2110.000000</ele>
        <time>2021-09-04T11:29:36Z</time>
      </trkpt>
      <trkpt lat="42.628375" lon="0.456845">
        <ele>2110.000000</ele>
        <time>2021-09-04T11:29:37Z</time>
      </trkpt>
      <trkpt lat="42.628372" lon="0.456837">
        <ele>2111.000000</ele>
        <time>2021-09-04T11:29:38Z</time>
      </trkpt>
      <trkpt lat="42.628372" lon="0.456828">
        <ele>2111.000000</ele>
        <time>2021-09-04T11:29:39Z</time>
      </trkpt>
      <trkpt lat="42.628377" lon="0.456817">
        <ele>2111.000000</ele>
        <time>2021-09-04T11:29:40Z</time>
      </trkpt>
      <trkpt lat="42.628382" lon="0.456810">
        <ele>2111.000000</ele>
        <time>2021-09-04T11:29:41Z</time>
      </trkpt>
      <trkpt lat="42.628390" lon="0.456808">
        <ele>2111.000000</ele>
        <time>2021-09-04T11:29:42Z</time>
      </trkpt>
      <trkpt lat="42.628393" lon="0.456803">
        <ele>2111.000000</ele>
        <time>2021-09-04T11:29:43Z</time>
      </trkpt>
      <trkpt lat="42.628398" lon="0.456797">
        <ele>2112.000000</ele>
        <time>2021-09-04T11:29:44Z</time>
      </trkpt>
      <trkpt lat="42.628405" lon="0.456793">
        <ele>2112.000000</ele>
        <time>2021-09-04T11:29:45Z</time>
      </trkpt>
      <trkpt lat="42.628413" lon="0.456793">
        <ele>2112.000000</ele>
        <time>2021-09-04T11:29:46Z</time>
      </trkpt>
      <trkpt lat="42.628417" lon="0.456788">
        <ele>2112.000000</ele>
        <time>2021-09-04T11:29:47Z</time>
      </trkpt>
      <trkpt lat="42.628422" lon="0.456788">
        <ele>2112.000000</ele>
        <time>2021-09-04T11:29:48Z</time>
      </trkpt>
      <trkpt lat="42.628428" lon="0.456788">
        <ele>2113.000000</ele>
        <time>2021-09-04T11:29:49Z</time>
      </trkpt>
      <trkpt lat="42.628435" lon="0.456785">
        <ele>2113.000000</ele>
        <time>2021-09-04T11:29:50Z</time>
      </trkpt>
      <trkpt lat="42.628438" lon="0.456781">
        <ele>2113.000000</ele>
        <time>2021-09-04T11:29:51Z</time>
      </trkpt>
      <trkpt lat="42.628442" lon="0.456777">
        <ele>2113.000000</ele>
        <time>2021-09-04T11:29:52Z</time>
      </trkpt>
      <trkpt lat="42.628448" lon="0.456774">
        <ele>2114.000000</ele>
        <time>2021-09-04T11:29:53Z</time>
      </trkpt>
      <trkpt lat="42.628455" lon="0.456774">
        <ele>2114.000000</ele>
        <time>2021-09-04T11:29:54Z</time>
      </trkpt>
      <trkpt lat="42.628460" lon="0.456783">
        <ele>2114.000000</ele>
        <time>2021-09-04T11:29:55Z</time>
      </trkpt>
      <trkpt lat="42.628467" lon="0.456788">
        <ele>2114.000000</ele>
        <time>2021-09-04T11:29:56Z</time>
      </trkpt>
      <trkpt lat="42.628470" lon="0.456790">
        <ele>2115.000000</ele>
        <time>2021-09-04T11:29:56Z</time>
      </trkpt>
      <trkpt lat="42.628473" lon="0.456790">
        <ele>2115.000000</ele>
        <time>2021-09-04T11:29:57Z</time>
      </trkpt>
      <trkpt lat="42.628475" lon="0.456786">
        <ele>2115.000000</ele>
        <time>2021-09-04T11:29:58Z</time>
      </trkpt>
      <trkpt lat="42.628482" lon="0.456784">
        <ele>2115.000000</ele>
        <time>2021-09-04T11:29:59Z</time>
      </trkpt>
      <trkpt lat="42.628488" lon="0.456783">
        <ele>2115.000000</ele>
        <time>2021-09-04T11:30:00Z</time>
      </trkpt>
      <trkpt lat="42.628495" lon="0.456782">
        <ele>2116.000000</ele>
        <time>2021-09-04T11:30:01Z</time>
      </trkpt>
      <trkpt lat="42.628508" lon="0.456782">
        <ele>2116.000000</ele>
        <time>2021-09-04T11:30:02Z</time>
      </trkpt>
      <trkpt lat="42.628520" lon="0.456785">
        <ele>2116.000000</ele>
        <time>2021-09-04T11:30:03Z</time>
      </trkpt>
      <trkpt lat="42.628530" lon="0.456789">
        <ele>2116.000000</ele>
        <time>2021-09-04T11:30:04Z</time>
      </trkpt>
      <trkpt lat="42.628538" lon="0.456793">
        <ele>2116.000000</ele>
        <time>2021-09-04T11:30:05Z</time>
      </trkpt>
      <trkpt lat="42.628543" lon="0.456797">
        <ele>2116.000000</ele>
        <time>2021-09-04T11:30:06Z</time>
      </trkpt>
      <trkpt lat="42.628548" lon="0.456799">
        <ele>2116.000000</ele>
        <time>2021-09-04T11:30:08Z</time>
      </trkpt>
      <trkpt lat="42.628553" lon="0.456800">
        <ele>2116.000000</ele>
        <time>2021-09-04T11:30:08Z</time>
      </trkpt>
      <trkpt lat="42.628560" lon="0.456801">
        <ele>2116.000000</ele>
        <time>2021-09-04T11:30:09Z</time>
      </trkpt>
      <trkpt lat="42.628565" lon="0.456801">
        <ele>2116.000000</ele>
        <time>2021-09-04T11:30:10Z</time>
      </trkpt>
      <trkpt lat="42.628570" lon="0.456801">
        <ele>2117.000000</ele>
        <time>2021-09-04T11:30:11Z</time>
      </trkpt>
      <trkpt lat="42.628572" lon="0.456800">
        <ele>2117.000000</ele>
        <time>2021-09-04T11:30:12Z</time>
      </trkpt>
      <trkpt lat="42.628573" lon="0.456798">
        <ele>2117.000000</ele>
        <time>2021-09-04T11:30:13Z</time>
      </trkpt>
      <trkpt lat="42.628575" lon="0.456797">
        <ele>2117.000000</ele>
        <time>2021-09-04T11:30:18Z</time>
      </trkpt>
      <trkpt lat="42.628575" lon="0.456794">
        <ele>2117.000000</ele>
        <time>2021-09-04T11:30:19Z</time>
      </trkpt>
      <trkpt lat="42.628575" lon="0.456792">
        <ele>2117.000000</ele>
        <time>2021-09-04T11:30:20Z</time>
      </trkpt>
      <trkpt lat="42.628575" lon="0.456789">
        <ele>2118.000000</ele>
        <time>2021-09-04T11:30:22Z</time>
      </trkpt>
      <trkpt lat="42.628573" lon="0.456767">
        <ele>2118.000000</ele>
        <time>2021-09-04T11:30:23Z</time>
      </trkpt>
      <trkpt lat="42.628572" lon="0.456757">
        <ele>2118.000000</ele>
        <time>2021-09-04T11:30:24Z</time>
      </trkpt>
      <trkpt lat="42.628568" lon="0.456752">
        <ele>2118.000000</ele>
        <time>2021-09-04T11:30:25Z</time>
      </trkpt>
      <trkpt lat="42.628565" lon="0.456748">
        <ele>2118.000000</ele>
        <time>2021-09-04T11:30:26Z</time>
      </trkpt>
      <trkpt lat="42.628562" lon="0.456742">
        <ele>2118.000000</ele>
        <time>2021-09-04T11:30:27Z</time>
      </trkpt>
      <trkpt lat="42.628558" lon="0.456735">
        <ele>2118.000000</ele>
        <time>2021-09-04T11:30:28Z</time>
      </trkpt>
      <trkpt lat="42.628556" lon="0.456727">
        <ele>2118.000000</ele>
        <time>2021-09-04T11:30:29Z</time>
      </trkpt>
      <trkpt lat="42.628557" lon="0.456717">
        <ele>2118.000000</ele>
        <time>2021-09-04T11:30:30Z</time>
      </trkpt>
      <trkpt lat="42.628556" lon="0.456707">
        <ele>2118.000000</ele>
        <time>2021-09-04T11:30:31Z</time>
      </trkpt>
      <trkpt lat="42.628556" lon="0.456703">
        <ele>2118.000000</ele>
        <time>2021-09-04T11:30:32Z</time>
      </trkpt>
      <trkpt lat="42.628555" lon="0.456698">
        <ele>2118.000000</ele>
        <time>2021-09-04T11:30:33Z</time>
      </trkpt>
      <trkpt lat="42.628553" lon="0.456692">
        <ele>2119.000000</ele>
        <time>2021-09-04T11:30:34Z</time>
      </trkpt>
      <trkpt lat="42.628553" lon="0.456685">
        <ele>2119.000000</ele>
        <time>2021-09-04T11:30:35Z</time>
      </trkpt>
      <trkpt lat="42.628553" lon="0.456680">
        <ele>2119.000000</ele>
        <time>2021-09-04T11:30:36Z</time>
      </trkpt>
      <trkpt lat="42.628553" lon="0.456678">
        <ele>2119.000000</ele>
        <time>2021-09-04T11:30:39Z</time>
      </trkpt>
      <trkpt lat="42.628553" lon="0.456675">
        <ele>2119.000000</ele>
        <time>2021-09-04T11:30:40Z</time>
      </trkpt>
      <trkpt lat="42.628552" lon="0.456675">
        <ele>2120.000000</ele>
        <time>2021-09-04T11:30:41Z</time>
      </trkpt>
      <trkpt lat="42.628547" lon="0.456672">
        <ele>2120.000000</ele>
        <time>2021-09-04T11:30:42Z</time>
      </trkpt>
      <trkpt lat="42.628545" lon="0.456670">
        <ele>2120.000000</ele>
        <time>2021-09-04T11:30:43Z</time>
      </trkpt>
      <trkpt lat="42.628543" lon="0.456668">
        <ele>2120.000000</ele>
        <time>2021-09-04T11:30:44Z</time>
      </trkpt>
      <trkpt lat="42.628542" lon="0.456663">
        <ele>2120.000000</ele>
        <time>2021-09-04T11:30:45Z</time>
      </trkpt>
      <trkpt lat="42.628540" lon="0.456655">
        <ele>2120.000000</ele>
        <time>2021-09-04T11:30:46Z</time>
      </trkpt>
      <trkpt lat="42.628538" lon="0.456645">
        <ele>2120.000000</ele>
        <time>2021-09-04T11:30:47Z</time>
      </trkpt>
      <trkpt lat="42.628537" lon="0.456638">
        <ele>2120.000000</ele>
        <time>2021-09-04T11:30:48Z</time>
      </trkpt>
      <trkpt lat="42.628536" lon="0.456633">
        <ele>2120.000000</ele>
        <time>2021-09-04T11:30:49Z</time>
      </trkpt>
      <trkpt lat="42.628536" lon="0.456628">
        <ele>2120.000000</ele>
        <time>2021-09-04T11:30:50Z</time>
      </trkpt>
      <trkpt lat="42.628536" lon="0.456623">
        <ele>2120.000000</ele>
        <time>2021-09-04T11:30:51Z</time>
      </trkpt>
      <trkpt lat="42.628536" lon="0.456618">
        <ele>2121.000000</ele>
        <time>2021-09-04T11:30:52Z</time>
      </trkpt>
      <trkpt lat="42.628536" lon="0.456605">
        <ele>2121.000000</ele>
        <time>2021-09-04T11:30:53Z</time>
      </trkpt>
      <trkpt lat="42.628536" lon="0.456587">
        <ele>2121.000000</ele>
        <time>2021-09-04T11:30:54Z</time>
      </trkpt>
      <trkpt lat="42.628535" lon="0.456575">
        <ele>2121.000000</ele>
        <time>2021-09-04T11:30:55Z</time>
      </trkpt>
      <trkpt lat="42.628536" lon="0.456568">
        <ele>2121.000000</ele>
        <time>2021-09-04T11:30:56Z</time>
      </trkpt>
      <trkpt lat="42.628537" lon="0.456558">
        <ele>2121.000000</ele>
        <time>2021-09-04T11:30:57Z</time>
      </trkpt>
      <trkpt lat="42.628537" lon="0.456545">
        <ele>2121.000000</ele>
        <time>2021-09-04T11:30:58Z</time>
      </trkpt>
      <trkpt lat="42.628538" lon="0.456540">
        <ele>2121.000000</ele>
        <time>2021-09-04T11:30:59Z</time>
      </trkpt>
      <trkpt lat="42.628537" lon="0.456535">
        <ele>2121.000000</ele>
        <time>2021-09-04T11:31:00Z</time>
      </trkpt>
      <trkpt lat="42.628537" lon="0.456530">
        <ele>2121.000000</ele>
        <time>2021-09-04T11:31:01Z</time>
      </trkpt>
      <trkpt lat="42.628535" lon="0.456523">
        <ele>2121.000000</ele>
        <time>2021-09-04T11:31:02Z</time>
      </trkpt>
      <trkpt lat="42.628523" lon="0.456517">
        <ele>2122.000000</ele>
        <time>2021-09-04T11:31:03Z</time>
      </trkpt>
      <trkpt lat="42.628523" lon="0.456508">
        <ele>2122.000000</ele>
        <time>2021-09-04T11:31:04Z</time>
      </trkpt>
      <trkpt lat="42.628524" lon="0.456503">
        <ele>2122.000000</ele>
        <time>2021-09-04T11:31:05Z</time>
      </trkpt>
      <trkpt lat="42.628527" lon="0.456493">
        <ele>2122.000000</ele>
        <time>2021-09-04T11:31:06Z</time>
      </trkpt>
      <trkpt lat="42.628530" lon="0.456488">
        <ele>2123.000000</ele>
        <time>2021-09-04T11:31:07Z</time>
      </trkpt>
      <trkpt lat="42.628535" lon="0.456483">
        <ele>2123.000000</ele>
        <time>2021-09-04T11:31:08Z</time>
      </trkpt>
      <trkpt lat="42.628542" lon="0.456485">
        <ele>2123.000000</ele>
        <time>2021-09-04T11:31:09Z</time>
      </trkpt>
      <trkpt lat="42.628548" lon="0.456487">
        <ele>2123.000000</ele>
        <time>2021-09-04T11:31:10Z</time>
      </trkpt>
      <trkpt lat="42.628552" lon="0.456490">
        <ele>2123.000000</ele>
        <time>2021-09-04T11:31:11Z</time>
      </trkpt>
      <trkpt lat="42.628558" lon="0.456485">
        <ele>2124.000000</ele>
        <time>2021-09-04T11:31:12Z</time>
      </trkpt>
      <trkpt lat="42.628563" lon="0.456492">
        <ele>2124.000000</ele>
        <time>2021-09-04T11:31:13Z</time>
      </trkpt>
      <trkpt lat="42.628567" lon="0.456497">
        <ele>2124.000000</ele>
        <time>2021-09-04T11:31:14Z</time>
      </trkpt>
      <trkpt lat="42.628568" lon="0.456500">
        <ele>2124.000000</ele>
        <time>2021-09-04T11:31:15Z</time>
      </trkpt>
      <trkpt lat="42.628573" lon="0.456507">
        <ele>2125.000000</ele>
        <time>2021-09-04T11:31:16Z</time>
      </trkpt>
      <trkpt lat="42.628580" lon="0.456515">
        <ele>2125.000000</ele>
        <time>2021-09-04T11:31:17Z</time>
      </trkpt>
      <trkpt lat="42.628587" lon="0.456523">
        <ele>2125.000000</ele>
        <time>2021-09-04T11:31:18Z</time>
      </trkpt>
      <trkpt lat="42.628595" lon="0.456530">
        <ele>2125.000000</ele>
        <time>2021-09-04T11:31:19Z</time>
      </trkpt>
      <trkpt lat="42.628598" lon="0.456531">
        <ele>2125.000000</ele>
        <time>2021-09-04T11:31:20Z</time>
      </trkpt>
      <trkpt lat="42.628602" lon="0.456532">
        <ele>2125.000000</ele>
        <time>2021-09-04T11:31:22Z</time>
      </trkpt>
      <trkpt lat="42.628605" lon="0.456532">
        <ele>2125.000000</ele>
        <time>2021-09-04T11:31:23Z</time>
      </trkpt>
      <trkpt lat="42.628608" lon="0.456531">
        <ele>2125.000000</ele>
        <time>2021-09-04T11:31:24Z</time>
      </trkpt>
      <trkpt lat="42.628613" lon="0.456529">
        <ele>2125.000000</ele>
        <time>2021-09-04T11:31:25Z</time>
      </trkpt>
      <trkpt lat="42.628618" lon="0.456527">
        <ele>2125.000000</ele>
        <time>2021-09-04T11:31:26Z</time>
      </trkpt>
      <trkpt lat="42.628622" lon="0.456526">
        <ele>2125.000000</ele>
        <time>2021-09-04T11:31:27Z</time>
      </trkpt>
      <trkpt lat="42.628625" lon="0.456525">
        <ele>2126.000000</ele>
        <time>2021-09-04T11:31:28Z</time>
      </trkpt>
      <trkpt lat="42.628627" lon="0.456524">
        <ele>2126.000000</ele>
        <time>2021-09-04T11:31:29Z</time>
      </trkpt>
      <trkpt lat="42.628632" lon="0.456523">
        <ele>2126.000000</ele>
        <time>2021-09-04T11:31:30Z</time>
      </trkpt>
      <trkpt lat="42.628637" lon="0.456522">
        <ele>2126.000000</ele>
        <time>2021-09-04T11:31:31Z</time>
      </trkpt>
      <trkpt lat="42.628638" lon="0.456521">
        <ele>2126.000000</ele>
        <time>2021-09-04T11:31:32Z</time>
      </trkpt>
      <trkpt lat="42.628637" lon="0.456513">
        <ele>2126.000000</ele>
        <time>2021-09-04T11:31:33Z</time>
      </trkpt>
      <trkpt lat="42.628637" lon="0.456507">
        <ele>2127.000000</ele>
        <time>2021-09-04T11:31:34Z</time>
      </trkpt>
      <trkpt lat="42.628635" lon="0.456498">
        <ele>2127.000000</ele>
        <time>2021-09-04T11:31:35Z</time>
      </trkpt>
      <trkpt lat="42.628633" lon="0.456492">
        <ele>2127.000000</ele>
        <time>2021-09-04T11:31:36Z</time>
      </trkpt>
      <trkpt lat="42.628635" lon="0.456487">
        <ele>2127.000000</ele>
        <time>2021-09-04T11:31:37Z</time>
      </trkpt>
      <trkpt lat="42.628634" lon="0.456482">
        <ele>2127.000000</ele>
        <time>2021-09-04T11:31:38Z</time>
      </trkpt>
      <trkpt lat="42.628633" lon="0.456483">
        <ele>2127.000000</ele>
        <time>2021-09-04T11:31:39Z</time>
      </trkpt>
      <trkpt lat="42.628725" lon="0.456523">
        <ele>2130.000000</ele>
        <time>2021-09-04T11:32:09Z</time>
      </trkpt>
      <trkpt lat="42.628728" lon="0.456525">
        <ele>2130.000000</ele>
        <time>2021-09-04T11:32:10Z</time>
      </trkpt>
      <trkpt lat="42.628732" lon="0.456528">
        <ele>2130.000000</ele>
        <time>2021-09-04T11:32:11Z</time>
      </trkpt>
      <trkpt lat="42.628735" lon="0.456529">
        <ele>2130.000000</ele>
        <time>2021-09-04T11:32:12Z</time>
      </trkpt>
      <trkpt lat="42.628740" lon="0.456526">
        <ele>2131.000000</ele>
        <time>2021-09-04T11:32:13Z</time>
      </trkpt>
      <trkpt lat="42.628743" lon="0.456522">
        <ele>2131.000000</ele>
        <time>2021-09-04T11:32:14Z</time>
      </trkpt>
      <trkpt lat="42.628747" lon="0.456520">
        <ele>2131.000000</ele>
        <time>2021-09-04T11:32:15Z</time>
      </trkpt>
      <trkpt lat="42.628753" lon="0.456518">
        <ele>2131.000000</ele>
        <time>2021-09-04T11:32:16Z</time>
      </trkpt>
      <trkpt lat="42.628758" lon="0.456520">
        <ele>2131.000000</ele>
        <time>2021-09-04T11:32:17Z</time>
      </trkpt>
      <trkpt lat="42.628768" lon="0.456522">
        <ele>2131.000000</ele>
        <time>2021-09-04T11:32:18Z</time>
      </trkpt>
      <trkpt lat="42.628777" lon="0.456524">
        <ele>2131.000000</ele>
        <time>2021-09-04T11:32:19Z</time>
      </trkpt>
      <trkpt lat="42.628785" lon="0.456524">
        <ele>2132.000000</ele>
        <time>2021-09-04T11:32:20Z</time>
      </trkpt>
      <trkpt lat="42.628787" lon="0.456521">
        <ele>2132.000000</ele>
        <time>2021-09-04T11:32:21Z</time>
      </trkpt>
      <trkpt lat="42.628787" lon="0.456519">
        <ele>2132.000000</ele>
        <time>2021-09-04T11:32:22Z</time>
      </trkpt>
      <trkpt lat="42.628790" lon="0.456515">
        <ele>2132.000000</ele>
        <time>2021-09-04T11:32:23Z</time>
      </trkpt>
      <trkpt lat="42.628793" lon="0.456510">
        <ele>2132.000000</ele>
        <time>2021-09-04T11:32:24Z</time>
      </trkpt>
      <trkpt lat="42.628797" lon="0.456500">
        <ele>2132.000000</ele>
        <time>2021-09-04T11:32:25Z</time>
      </trkpt>
      <trkpt lat="42.628798" lon="0.456498">
        <ele>2132.000000</ele>
        <time>2021-09-04T11:32:26Z</time>
      </trkpt>
      <trkpt lat="42.628802" lon="0.456500">
        <ele>2133.000000</ele>
        <time>2021-09-04T11:32:27Z</time>
      </trkpt>
      <trkpt lat="42.628808" lon="0.456500">
        <ele>2133.000000</ele>
        <time>2021-09-04T11:32:28Z</time>
      </trkpt>
      <trkpt lat="42.628818" lon="0.456503">
        <ele>2133.000000</ele>
        <time>2021-09-04T11:32:29Z</time>
      </trkpt>
      <trkpt lat="42.628827" lon="0.456503">
        <ele>2133.000000</ele>
        <time>2021-09-04T11:32:30Z</time>
      </trkpt>
      <trkpt lat="42.628833" lon="0.456498">
        <ele>2133.000000</ele>
        <time>2021-09-04T11:32:31Z</time>
      </trkpt>
      <trkpt lat="42.628833" lon="0.456496">
        <ele>2133.000000</ele>
        <time>2021-09-04T11:32:32Z</time>
      </trkpt>
      <trkpt lat="42.628835" lon="0.456493">
        <ele>2133.000000</ele>
        <time>2021-09-04T11:32:33Z</time>
      </trkpt>
      <trkpt lat="42.628835" lon="0.456491">
        <ele>2134.000000</ele>
        <time>2021-09-04T11:32:34Z</time>
      </trkpt>
      <trkpt lat="42.628838" lon="0.456486">
        <ele>2134.000000</ele>
        <time>2021-09-04T11:32:35Z</time>
      </trkpt>
      <trkpt lat="42.628838" lon="0.456487">
        <ele>2134.000000</ele>
        <time>2021-09-04T11:32:36Z</time>
      </trkpt>
      <trkpt lat="42.628837" lon="0.456490">
        <ele>2134.000000</ele>
        <time>2021-09-04T11:32:37Z</time>
      </trkpt>
      <trkpt lat="42.628832" lon="0.456496">
        <ele>2134.000000</ele>
        <time>2021-09-04T11:32:38Z</time>
      </trkpt>
      <trkpt lat="42.628830" lon="0.456499">
        <ele>2134.000000</ele>
        <time>2021-09-04T11:32:39Z</time>
      </trkpt>
      <trkpt lat="42.628830" lon="0.456499">
        <ele>2134.000000</ele>
        <time>2021-09-04T11:32:40Z</time>
      </trkpt>
      <trkpt lat="42.628827" lon="0.456502">
        <ele>2135.000000</ele>
        <time>2021-09-04T11:32:41Z</time>
      </trkpt>
      <trkpt lat="42.628832" lon="0.456496">
        <ele>2135.000000</ele>
        <time>2021-09-04T11:32:43Z</time>
      </trkpt>
      <trkpt lat="42.628913" lon="0.456367">
        <ele>2137.000000</ele>
        <time>2021-09-04T11:33:42Z</time>
      </trkpt>
      <trkpt lat="42.628922" lon="0.456361">
        <ele>2137.000000</ele>
        <time>2021-09-04T11:33:43Z</time>
      </trkpt>
      <trkpt lat="42.628932" lon="0.456356">
        <ele>2137.000000</ele>
        <time>2021-09-04T11:33:44Z</time>
      </trkpt>
      <trkpt lat="42.628937" lon="0.456352">
        <ele>2137.000000</ele>
        <time>2021-09-04T11:33:45Z</time>
      </trkpt>
      <trkpt lat="42.628942" lon="0.456348">
        <ele>2137.000000</ele>
        <time>2021-09-04T11:33:46Z</time>
      </trkpt>
      <trkpt lat="42.628952" lon="0.456339">
        <ele>2137.000000</ele>
        <time>2021-09-04T11:33:47Z</time>
      </trkpt>
      <trkpt lat="42.628958" lon="0.456333">
        <ele>2137.000000</ele>
        <time>2021-09-04T11:33:48Z</time>
      </trkpt>
      <trkpt lat="42.628962" lon="0.456327">
        <ele>2137.000000</ele>
        <time>2021-09-04T11:33:49Z</time>
      </trkpt>
      <trkpt lat="42.628965" lon="0.456310">
        <ele>2137.000000</ele>
        <time>2021-09-04T11:33:50Z</time>
      </trkpt>
      <trkpt lat="42.628970" lon="0.456302">
        <ele>2137.000000</ele>
        <time>2021-09-04T11:33:51Z</time>
      </trkpt>
      <trkpt lat="42.628975" lon="0.456295">
        <ele>2137.000000</ele>
        <time>2021-09-04T11:33:52Z</time>
      </trkpt>
      <trkpt lat="42.628979" lon="0.456288">
        <ele>2137.000000</ele>
        <time>2021-09-04T11:33:53Z</time>
      </trkpt>
      <trkpt lat="42.628981" lon="0.456288">
        <ele>2137.000000</ele>
        <time>2021-09-04T11:33:54Z</time>
      </trkpt>
      <trkpt lat="42.628986" lon="0.456283">
        <ele>2137.000000</ele>
        <time>2021-09-04T11:33:55Z</time>
      </trkpt>
      <trkpt lat="42.628986" lon="0.456282">
        <ele>2137.000000</ele>
        <time>2021-09-04T11:33:56Z</time>
      </trkpt>
      <trkpt lat="42.628982" lon="0.456280">
        <ele>2139.000000</ele>
        <time>2021-09-04T11:33:57Z</time>
      </trkpt>
      <trkpt lat="42.628975" lon="0.456275">
        <ele>2139.000000</ele>
        <time>2021-09-04T11:33:58Z</time>
      </trkpt>
      <trkpt lat="42.628973" lon="0.456268">
        <ele>2139.000000</ele>
        <time>2021-09-04T11:33:59Z</time>
      </trkpt>
      <trkpt lat="42.628976" lon="0.456260">
        <ele>2139.000000</ele>
        <time>2021-09-04T11:34:00Z</time>
      </trkpt>
      <trkpt lat="42.628980" lon="0.456257">
        <ele>2139.000000</ele>
        <time>2021-09-04T11:34:01Z</time>
      </trkpt>
      <trkpt lat="42.628990" lon="0.456255">
        <ele>2140.000000</ele>
        <time>2021-09-04T11:34:02Z</time>
      </trkpt>
      <trkpt lat="42.628995" lon="0.456253">
        <ele>2140.000000</ele>
        <time>2021-09-04T11:34:03Z</time>
      </trkpt>
      <trkpt lat="42.628998" lon="0.456247">
        <ele>2140.000000</ele>
        <time>2021-09-04T11:34:04Z</time>
      </trkpt>
      <trkpt lat="42.629008" lon="0.456239">
        <ele>2140.000000</ele>
        <time>2021-09-04T11:34:05Z</time>
      </trkpt>
      <trkpt lat="42.629015" lon="0.456233">
        <ele>2140.000000</ele>
        <time>2021-09-04T11:34:06Z</time>
      </trkpt>
      <trkpt lat="42.629023" lon="0.456227">
        <ele>2141.000000</ele>
        <time>2021-09-04T11:34:07Z</time>
      </trkpt>
      <trkpt lat="42.629030" lon="0.456218">
        <ele>2141.000000</ele>
        <time>2021-09-04T11:34:08Z</time>
      </trkpt>
      <trkpt lat="42.629038" lon="0.456207">
        <ele>2141.000000</ele>
        <time>2021-09-04T11:34:09Z</time>
      </trkpt>
      <trkpt lat="42.629038" lon="0.456192">
        <ele>2141.000000</ele>
        <time>2021-09-04T11:34:10Z</time>
      </trkpt>
      <trkpt lat="42.629042" lon="0.456178">
        <ele>2141.000000</ele>
        <time>2021-09-04T11:34:11Z</time>
      </trkpt>
      <trkpt lat="42.629045" lon="0.456170">
        <ele>2142.000000</ele>
        <time>2021-09-04T11:34:11Z</time>
      </trkpt>
      <trkpt lat="42.629050" lon="0.456165">
        <ele>2142.000000</ele>
        <time>2021-09-04T11:34:12Z</time>
      </trkpt>
      <trkpt lat="42.629057" lon="0.456155">
        <ele>2142.000000</ele>
        <time>2021-09-04T11:34:13Z</time>
      </trkpt>
      <trkpt lat="42.629063" lon="0.456147">
        <ele>2142.000000</ele>
        <time>2021-09-04T11:34:14Z</time>
      </trkpt>
      <trkpt lat="42.629068" lon="0.456138">
        <ele>2142.000000</ele>
        <time>2021-09-04T11:34:15Z</time>
      </trkpt>
      <trkpt lat="42.629073" lon="0.456130">
        <ele>2142.000000</ele>
        <time>2021-09-04T11:34:16Z</time>
      </trkpt>
      <trkpt lat="42.629079" lon="0.456120">
        <ele>2142.000000</ele>
        <time>2021-09-04T11:34:17Z</time>
      </trkpt>
      <trkpt lat="42.629083" lon="0.456113">
        <ele>2143.000000</ele>
        <time>2021-09-04T11:34:18Z</time>
      </trkpt>
      <trkpt lat="42.629087" lon="0.456110">
        <ele>2143.000000</ele>
        <time>2021-09-04T11:34:19Z</time>
      </trkpt>
      <trkpt lat="42.629100" lon="0.456108">
        <ele>2143.000000</ele>
        <time>2021-09-04T11:34:20Z</time>
      </trkpt>
      <trkpt lat="42.629103" lon="0.456100">
        <ele>2143.000000</ele>
        <time>2021-09-04T11:34:21Z</time>
      </trkpt>
      <trkpt lat="42.629105" lon="0.456092">
        <ele>2143.000000</ele>
        <time>2021-09-04T11:34:22Z</time>
      </trkpt>
      <trkpt lat="42.629104" lon="0.456085">
        <ele>2144.000000</ele>
        <time>2021-09-04T11:34:23Z</time>
      </trkpt>
      <trkpt lat="42.629102" lon="0.456082">
        <ele>2144.000000</ele>
        <time>2021-09-04T11:34:24Z</time>
      </trkpt>
      <trkpt lat="42.629100" lon="0.456078">
        <ele>2144.000000</ele>
        <time>2021-09-04T11:34:25Z</time>
      </trkpt>
      <trkpt lat="42.629098" lon="0.456073">
        <ele>2144.000000</ele>
        <time>2021-09-04T11:34:26Z</time>
      </trkpt>
      <trkpt lat="42.629100" lon="0.456065">
        <ele>2144.000000</ele>
        <time>2021-09-04T11:34:27Z</time>
      </trkpt>
      <trkpt lat="42.629103" lon="0.456052">
        <ele>2144.000000</ele>
        <time>2021-09-04T11:34:28Z</time>
      </trkpt>
      <trkpt lat="42.629104" lon="0.456038">
        <ele>2144.000000</ele>
        <time>2021-09-04T11:34:29Z</time>
      </trkpt>
      <trkpt lat="42.629105" lon="0.456030">
        <ele>2144.000000</ele>
        <time>2021-09-04T11:34:30Z</time>
      </trkpt>
      <trkpt lat="42.629106" lon="0.456020">
        <ele>2144.000000</ele>
        <time>2021-09-04T11:34:31Z</time>
      </trkpt>
      <trkpt lat="42.629109" lon="0.456008">
        <ele>2144.000000</ele>
        <time>2021-09-04T11:34:32Z</time>
      </trkpt>
      <trkpt lat="42.629113" lon="0.456000">
        <ele>2144.000000</ele>
        <time>2021-09-04T11:34:33Z</time>
      </trkpt>
      <trkpt lat="42.629122" lon="0.455992">
        <ele>2144.000000</ele>
        <time>2021-09-04T11:34:34Z</time>
      </trkpt>
      <trkpt lat="42.629128" lon="0.455983">
        <ele>2144.000000</ele>
        <time>2021-09-04T11:34:35Z</time>
      </trkpt>
      <trkpt lat="42.629130" lon="0.455972">
        <ele>2144.000000</ele>
        <time>2021-09-04T11:34:36Z</time>
      </trkpt>
      <trkpt lat="42.629129" lon="0.455962">
        <ele>2145.000000</ele>
        <time>2021-09-04T11:34:37Z</time>
      </trkpt>
      <trkpt lat="42.629128" lon="0.455950">
        <ele>2145.000000</ele>
        <time>2021-09-04T11:34:38Z</time>
      </trkpt>
      <trkpt lat="42.629128" lon="0.455940">
        <ele>2145.000000</ele>
        <time>2021-09-04T11:34:39Z</time>
      </trkpt>
      <trkpt lat="42.629128" lon="0.455930">
        <ele>2145.000000</ele>
        <time>2021-09-04T11:34:40Z</time>
      </trkpt>
      <trkpt lat="42.629127" lon="0.455917">
        <ele>2146.000000</ele>
        <time>2021-09-04T11:34:41Z</time>
      </trkpt>
      <trkpt lat="42.629126" lon="0.455903">
        <ele>2146.000000</ele>
        <time>2021-09-04T11:34:42Z</time>
      </trkpt>
      <trkpt lat="42.629124" lon="0.455890">
        <ele>2146.000000</ele>
        <time>2021-09-04T11:34:43Z</time>
      </trkpt>
      <trkpt lat="42.629125" lon="0.455885">
        <ele>2146.000000</ele>
        <time>2021-09-04T11:34:44Z</time>
      </trkpt>
      <trkpt lat="42.629127" lon="0.455877">
        <ele>2147.000000</ele>
        <time>2021-09-04T11:34:45Z</time>
      </trkpt>
      <trkpt lat="42.629138" lon="0.455868">
        <ele>2147.000000</ele>
        <time>2021-09-04T11:34:46Z</time>
      </trkpt>
      <trkpt lat="42.629145" lon="0.455860">
        <ele>2147.000000</ele>
        <time>2021-09-04T11:34:47Z</time>
      </trkpt>
      <trkpt lat="42.629148" lon="0.455855">
        <ele>2147.000000</ele>
        <time>2021-09-04T11:34:48Z</time>
      </trkpt>
      <trkpt lat="42.629151" lon="0.455853">
        <ele>2147.000000</ele>
        <time>2021-09-04T11:34:49Z</time>
      </trkpt>
      <trkpt lat="42.629156" lon="0.455848">
        <ele>2148.000000</ele>
        <time>2021-09-04T11:34:50Z</time>
      </trkpt>
      <trkpt lat="42.629163" lon="0.455838">
        <ele>2148.000000</ele>
        <time>2021-09-04T11:34:51Z</time>
      </trkpt>
      <trkpt lat="42.629167" lon="0.455832">
        <ele>2148.000000</ele>
        <time>2021-09-04T11:34:52Z</time>
      </trkpt>
      <trkpt lat="42.629172" lon="0.455825">
        <ele>2148.000000</ele>
        <time>2021-09-04T11:34:53Z</time>
      </trkpt>
      <trkpt lat="42.629179" lon="0.455812">
        <ele>2148.000000</ele>
        <time>2021-09-04T11:34:54Z</time>
      </trkpt>
      <trkpt lat="42.629182" lon="0.455803">
        <ele>2148.000000</ele>
        <time>2021-09-04T11:34:55Z</time>
      </trkpt>
      <trkpt lat="42.629185" lon="0.455798">
        <ele>2148.000000</ele>
        <time>2021-09-04T11:34:56Z</time>
      </trkpt>
      <trkpt lat="42.629185" lon="0.455792">
        <ele>2148.000000</ele>
        <time>2021-09-04T11:34:57Z</time>
      </trkpt>
      <trkpt lat="42.629188" lon="0.455785">
        <ele>2149.000000</ele>
        <time>2021-09-04T11:34:58Z</time>
      </trkpt>
      <trkpt lat="42.629192" lon="0.455777">
        <ele>2149.000000</ele>
        <time>2021-09-04T11:34:59Z</time>
      </trkpt>
      <trkpt lat="42.629197" lon="0.455773">
        <ele>2149.000000</ele>
        <time>2021-09-04T11:35:00Z</time>
      </trkpt>
      <trkpt lat="42.629203" lon="0.455768">
        <ele>2149.000000</ele>
        <time>2021-09-04T11:35:01Z</time>
      </trkpt>
      <trkpt lat="42.629208" lon="0.455765">
        <ele>2149.000000</ele>
        <time>2021-09-04T11:35:02Z</time>
      </trkpt>
      <trkpt lat="42.629213" lon="0.455761">
        <ele>2149.000000</ele>
        <time>2021-09-04T11:35:03Z</time>
      </trkpt>
      <trkpt lat="42.629217" lon="0.455758">
        <ele>2149.000000</ele>
        <time>2021-09-04T11:35:04Z</time>
      </trkpt>
      <trkpt lat="42.629220" lon="0.455743">
        <ele>2150.000000</ele>
        <time>2021-09-04T11:35:05Z</time>
      </trkpt>
      <trkpt lat="42.629223" lon="0.455733">
        <ele>2150.000000</ele>
        <time>2021-09-04T11:35:06Z</time>
      </trkpt>
      <trkpt lat="42.629225" lon="0.455723">
        <ele>2150.000000</ele>
        <time>2021-09-04T11:35:07Z</time>
      </trkpt>
      <trkpt lat="42.629228" lon="0.455718">
        <ele>2150.000000</ele>
        <time>2021-09-04T11:35:08Z</time>
      </trkpt>
      <trkpt lat="42.629232" lon="0.455712">
        <ele>2150.000000</ele>
        <time>2021-09-04T11:35:09Z</time>
      </trkpt>
      <trkpt lat="42.629235" lon="0.455707">
        <ele>2150.000000</ele>
        <time>2021-09-04T11:35:10Z</time>
      </trkpt>
      <trkpt lat="42.629238" lon="0.455703">
        <ele>2150.000000</ele>
        <time>2021-09-04T11:35:11Z</time>
      </trkpt>
      <trkpt lat="42.629240" lon="0.455698">
        <ele>2150.000000</ele>
        <time>2021-09-04T11:35:12Z</time>
      </trkpt>
      <trkpt lat="42.629242" lon="0.455690">
        <ele>2150.000000</ele>
        <time>2021-09-04T11:35:13Z</time>
      </trkpt>
      <trkpt lat="42.629242" lon="0.455678">
        <ele>2150.000000</ele>
        <time>2021-09-04T11:35:14Z</time>
      </trkpt>
      <trkpt lat="42.629243" lon="0.455667">
        <ele>2150.000000</ele>
        <time>2021-09-04T11:35:15Z</time>
      </trkpt>
      <trkpt lat="42.629246" lon="0.455657">
        <ele>2150.000000</ele>
        <time>2021-09-04T11:35:16Z</time>
      </trkpt>
      <trkpt lat="42.629248" lon="0.455643">
        <ele>2150.000000</ele>
        <time>2021-09-04T11:35:17Z</time>
      </trkpt>
      <trkpt lat="42.629251" lon="0.455633">
        <ele>2151.000000</ele>
        <time>2021-09-04T11:35:18Z</time>
      </trkpt>
      <trkpt lat="42.629254" lon="0.455620">
        <ele>2151.000000</ele>
        <time>2021-09-04T11:35:19Z</time>
      </trkpt>
      <trkpt lat="42.629256" lon="0.455612">
        <ele>2151.000000</ele>
        <time>2021-09-04T11:35:20Z</time>
      </trkpt>
      <trkpt lat="42.629258" lon="0.455610">
        <ele>2151.000000</ele>
        <time>2021-09-04T11:35:21Z</time>
      </trkpt>
      <trkpt lat="42.629260" lon="0.455612">
        <ele>2151.000000</ele>
        <time>2021-09-04T11:35:22Z</time>
      </trkpt>
      <trkpt lat="42.629261" lon="0.455613">
        <ele>2151.000000</ele>
        <time>2021-09-04T11:35:23Z</time>
      </trkpt>
      <trkpt lat="42.629263" lon="0.455613">
        <ele>2151.000000</ele>
        <time>2021-09-04T11:35:25Z</time>
      </trkpt>
      <trkpt lat="42.629264" lon="0.455613">
        <ele>2151.000000</ele>
        <time>2021-09-04T11:35:26Z</time>
      </trkpt>
      <trkpt lat="42.629265" lon="0.455608">
        <ele>2151.000000</ele>
        <time>2021-09-04T11:35:27Z</time>
      </trkpt>
      <trkpt lat="42.629266" lon="0.455605">
        <ele>2152.000000</ele>
        <time>2021-09-04T11:35:28Z</time>
      </trkpt>
      <trkpt lat="42.629264" lon="0.455608">
        <ele>2152.000000</ele>
        <time>2021-09-04T11:35:31Z</time>
      </trkpt>
      <trkpt lat="42.629266" lon="0.455603">
        <ele>2152.000000</ele>
        <time>2021-09-04T11:35:32Z</time>
      </trkpt>
      <trkpt lat="42.629269" lon="0.455593">
        <ele>2152.000000</ele>
        <time>2021-09-04T11:35:33Z</time>
      </trkpt>
      <trkpt lat="42.629272" lon="0.455585">
        <ele>2152.000000</ele>
        <time>2021-09-04T11:35:34Z</time>
      </trkpt>
      <trkpt lat="42.629275" lon="0.455578">
        <ele>2152.000000</ele>
        <time>2021-09-04T11:35:35Z</time>
      </trkpt>
      <trkpt lat="42.629293" lon="0.455570">
        <ele>2152.000000</ele>
        <time>2021-09-04T11:35:36Z</time>
      </trkpt>
      <trkpt lat="42.629307" lon="0.455557">
        <ele>2152.000000</ele>
        <time>2021-09-04T11:35:37Z</time>
      </trkpt>
      <trkpt lat="42.629317" lon="0.455545">
        <ele>2153.000000</ele>
        <time>2021-09-04T11:35:38Z</time>
      </trkpt>
      <trkpt lat="42.629322" lon="0.455536">
        <ele>2153.000000</ele>
        <time>2021-09-04T11:35:39Z</time>
      </trkpt>
      <trkpt lat="42.629328" lon="0.455517">
        <ele>2153.000000</ele>
        <time>2021-09-04T11:35:40Z</time>
      </trkpt>
      <trkpt lat="42.629338" lon="0.455505">
        <ele>2153.000000</ele>
        <time>2021-09-04T11:35:41Z</time>
      </trkpt>
      <trkpt lat="42.629345" lon="0.455493">
        <ele>2153.000000</ele>
        <time>2021-09-04T11:35:42Z</time>
      </trkpt>
      <trkpt lat="42.629349" lon="0.455487">
        <ele>2153.000000</ele>
        <time>2021-09-04T11:35:43Z</time>
      </trkpt>
      <trkpt lat="42.629349" lon="0.455482">
        <ele>2153.000000</ele>
        <time>2021-09-04T11:35:45Z</time>
      </trkpt>
      <trkpt lat="42.629345" lon="0.455485">
        <ele>2154.000000</ele>
        <time>2021-09-04T11:35:47Z</time>
      </trkpt>
      <trkpt lat="42.629343" lon="0.455490">
        <ele>2154.000000</ele>
        <time>2021-09-04T11:35:48Z</time>
      </trkpt>
      <trkpt lat="42.629343" lon="0.455488">
        <ele>2154.000000</ele>
        <time>2021-09-04T11:35:49Z</time>
      </trkpt>
      <trkpt lat="42.629344" lon="0.455487">
        <ele>2154.000000</ele>
        <time>2021-09-04T11:35:50Z</time>
      </trkpt>
      <trkpt lat="42.629345" lon="0.455490">
        <ele>2155.000000</ele>
        <time>2021-09-04T11:35:52Z</time>
      </trkpt>
      <trkpt lat="42.629350" lon="0.455495">
        <ele>2155.000000</ele>
        <time>2021-09-04T11:35:53Z</time>
      </trkpt>
      <trkpt lat="42.629355" lon="0.455500">
        <ele>2155.000000</ele>
        <time>2021-09-04T11:35:54Z</time>
      </trkpt>
      <trkpt lat="42.629346" lon="0.455490">
        <ele>2155.000000</ele>
        <time>2021-09-04T11:35:56Z</time>
      </trkpt>
      <trkpt lat="42.629382" lon="0.455437">
        <ele>2155.000000</ele>
        <time>2021-09-04T11:38:48Z</time>
      </trkpt>
      <trkpt lat="42.629385" lon="0.455428">
        <ele>2155.000000</ele>
        <time>2021-09-04T11:38:49Z</time>
      </trkpt>
      <trkpt lat="42.629391" lon="0.455422">
        <ele>2155.000000</ele>
        <time>2021-09-04T11:38:50Z</time>
      </trkpt>
      <trkpt lat="42.629395" lon="0.455415">
        <ele>2155.000000</ele>
        <time>2021-09-04T11:38:51Z</time>
      </trkpt>
      <trkpt lat="42.629397" lon="0.455410">
        <ele>2155.000000</ele>
        <time>2021-09-04T11:38:52Z</time>
      </trkpt>
      <trkpt lat="42.629396" lon="0.455412">
        <ele>2155.000000</ele>
        <time>2021-09-04T11:38:53Z</time>
      </trkpt>
      <trkpt lat="42.629397" lon="0.455410">
        <ele>2155.000000</ele>
        <time>2021-09-04T11:38:54Z</time>
      </trkpt>
      <trkpt lat="42.629400" lon="0.455403">
        <ele>2155.000000</ele>
        <time>2021-09-04T11:38:55Z</time>
      </trkpt>
      <trkpt lat="42.629401" lon="0.455402">
        <ele>2155.000000</ele>
        <time>2021-09-04T11:38:56Z</time>
      </trkpt>
      <trkpt lat="42.629404" lon="0.455395">
        <ele>2155.000000</ele>
        <time>2021-09-04T11:38:57Z</time>
      </trkpt>
      <trkpt lat="42.629403" lon="0.455387">
        <ele>2155.000000</ele>
        <time>2021-09-04T11:38:58Z</time>
      </trkpt>
      <trkpt lat="42.629403" lon="0.455378">
        <ele>2155.000000</ele>
        <time>2021-09-04T11:38:59Z</time>
      </trkpt>
      <trkpt lat="42.629403" lon="0.455373">
        <ele>2155.000000</ele>
        <time>2021-09-04T11:39:00Z</time>
      </trkpt>
      <trkpt lat="42.629403" lon="0.455367">
        <ele>2155.000000</ele>
        <time>2021-09-04T11:39:01Z</time>
      </trkpt>
      <trkpt lat="42.629406" lon="0.455355">
        <ele>2155.000000</ele>
        <time>2021-09-04T11:39:02Z</time>
      </trkpt>
      <trkpt lat="42.629412" lon="0.455342">
        <ele>2155.000000</ele>
        <time>2021-09-04T11:39:03Z</time>
      </trkpt>
      <trkpt lat="42.629422" lon="0.455333">
        <ele>2155.000000</ele>
        <time>2021-09-04T11:39:04Z</time>
      </trkpt>
      <trkpt lat="42.629428" lon="0.455328">
        <ele>2155.000000</ele>
        <time>2021-09-04T11:39:05Z</time>
      </trkpt>
      <trkpt lat="42.629437" lon="0.455325">
        <ele>2155.000000</ele>
        <time>2021-09-04T11:39:06Z</time>
      </trkpt>
      <trkpt lat="42.629443" lon="0.455318">
        <ele>2155.000000</ele>
        <time>2021-09-04T11:39:07Z</time>
      </trkpt>
      <trkpt lat="42.629448" lon="0.455315">
        <ele>2155.000000</ele>
        <time>2021-09-04T11:39:08Z</time>
      </trkpt>
      <trkpt lat="42.629453" lon="0.455315">
        <ele>2155.000000</ele>
        <time>2021-09-04T11:39:09Z</time>
      </trkpt>
      <trkpt lat="42.629455" lon="0.455313">
        <ele>2155.000000</ele>
        <time>2021-09-04T11:39:11Z</time>
      </trkpt>
      <trkpt lat="42.629457" lon="0.455315">
        <ele>2155.000000</ele>
        <time>2021-09-04T11:39:12Z</time>
      </trkpt>
      <trkpt lat="42.629460" lon="0.455312">
        <ele>2155.000000</ele>
        <time>2021-09-04T11:39:13Z</time>
      </trkpt>
      <trkpt lat="42.629462" lon="0.455308">
        <ele>2155.000000</ele>
        <time>2021-09-04T11:39:14Z</time>
      </trkpt>
      <trkpt lat="42.629467" lon="0.455298">
        <ele>2155.000000</ele>
        <time>2021-09-04T11:39:15Z</time>
      </trkpt>
      <trkpt lat="42.629473" lon="0.455288">
        <ele>2155.000000</ele>
        <time>2021-09-04T11:39:16Z</time>
      </trkpt>
      <trkpt lat="42.629482" lon="0.455279">
        <ele>2155.000000</ele>
        <time>2021-09-04T11:39:17Z</time>
      </trkpt>
      <trkpt lat="42.629492" lon="0.455269">
        <ele>2155.000000</ele>
        <time>2021-09-04T11:39:18Z</time>
      </trkpt>
      <trkpt lat="42.629498" lon="0.455260">
        <ele>2155.000000</ele>
        <time>2021-09-04T11:39:19Z</time>
      </trkpt>
      <trkpt lat="42.629503" lon="0.455252">
        <ele>2155.000000</ele>
        <time>2021-09-04T11:39:20Z</time>
      </trkpt>
      <trkpt lat="42.629510" lon="0.455242">
        <ele>2155.000000</ele>
        <time>2021-09-04T11:39:21Z</time>
      </trkpt>
      <trkpt lat="42.629517" lon="0.455232">
        <ele>2155.000000</ele>
        <time>2021-09-04T11:39:22Z</time>
      </trkpt>
      <trkpt lat="42.629523" lon="0.455222">
        <ele>2155.000000</ele>
        <time>2021-09-04T11:39:23Z</time>
      </trkpt>
      <trkpt lat="42.629532" lon="0.455211">
        <ele>2155.000000</ele>
        <time>2021-09-04T11:39:24Z</time>
      </trkpt>
      <trkpt lat="42.629538" lon="0.455203">
        <ele>2155.000000</ele>
        <time>2021-09-04T11:39:25Z</time>
      </trkpt>
      <trkpt lat="42.629543" lon="0.455196">
        <ele>2155.000000</ele>
        <time>2021-09-04T11:39:26Z</time>
      </trkpt>
      <trkpt lat="42.629552" lon="0.455185">
        <ele>2155.000000</ele>
        <time>2021-09-04T11:39:27Z</time>
      </trkpt>
      <trkpt lat="42.629558" lon="0.455177">
        <ele>2155.000000</ele>
        <time>2021-09-04T11:39:28Z</time>
      </trkpt>
      <trkpt lat="42.629568" lon="0.455165">
        <ele>2155.000000</ele>
        <time>2021-09-04T11:39:29Z</time>
      </trkpt>
      <trkpt lat="42.629572" lon="0.455160">
        <ele>2155.000000</ele>
        <time>2021-09-04T11:39:30Z</time>
      </trkpt>
      <trkpt lat="42.629578" lon="0.455150">
        <ele>2155.000000</ele>
        <time>2021-09-04T11:39:31Z</time>
      </trkpt>
      <trkpt lat="42.629582" lon="0.455144">
        <ele>2155.000000</ele>
        <time>2021-09-04T11:39:32Z</time>
      </trkpt>
      <trkpt lat="42.629588" lon="0.455134">
        <ele>2155.000000</ele>
        <time>2021-09-04T11:39:33Z</time>
      </trkpt>
      <trkpt lat="42.629593" lon="0.455126">
        <ele>2155.000000</ele>
        <time>2021-09-04T11:39:34Z</time>
      </trkpt>
      <trkpt lat="42.629600" lon="0.455117">
        <ele>2155.000000</ele>
        <time>2021-09-04T11:39:35Z</time>
      </trkpt>
      <trkpt lat="42.629605" lon="0.455110">
        <ele>2155.000000</ele>
        <time>2021-09-04T11:39:36Z</time>
      </trkpt>
      <trkpt lat="42.629608" lon="0.455105">
        <ele>2155.000000</ele>
        <time>2021-09-04T11:39:37Z</time>
      </trkpt>
      <trkpt lat="42.629613" lon="0.455098">
        <ele>2155.000000</ele>
        <time>2021-09-04T11:39:38Z</time>
      </trkpt>
      <trkpt lat="42.629618" lon="0.455090">
        <ele>2155.000000</ele>
        <time>2021-09-04T11:39:39Z</time>
      </trkpt>
      <trkpt lat="42.629625" lon="0.455081">
        <ele>2155.000000</ele>
        <time>2021-09-04T11:39:40Z</time>
      </trkpt>
      <trkpt lat="42.629633" lon="0.455071">
        <ele>2155.000000</ele>
        <time>2021-09-04T11:39:41Z</time>
      </trkpt>
      <trkpt lat="42.629638" lon="0.455065">
        <ele>2155.000000</ele>
        <time>2021-09-04T11:39:42Z</time>
      </trkpt>
      <trkpt lat="42.629642" lon="0.455063">
        <ele>2155.000000</ele>
        <time>2021-09-04T11:39:43Z</time>
      </trkpt>
      <trkpt lat="42.629647" lon="0.455058">
        <ele>2155.000000</ele>
        <time>2021-09-04T11:39:44Z</time>
      </trkpt>
      <trkpt lat="42.629657" lon="0.455048">
        <ele>2155.000000</ele>
        <time>2021-09-04T11:39:45Z</time>
      </trkpt>
      <trkpt lat="42.629665" lon="0.455040">
        <ele>2155.000000</ele>
        <time>2021-09-04T11:39:46Z</time>
      </trkpt>
      <trkpt lat="42.629673" lon="0.455068">
        <ele>2155.000000</ele>
        <time>2021-09-04T11:39:47Z</time>
      </trkpt>
      <trkpt lat="42.629683" lon="0.455068">
        <ele>2160.000000</ele>
        <time>2021-09-04T11:39:48Z</time>
      </trkpt>
      <trkpt lat="42.629690" lon="0.455063">
        <ele>2160.000000</ele>
        <time>2021-09-04T11:39:49Z</time>
      </trkpt>
      <trkpt lat="42.629693" lon="0.455057">
        <ele>2160.000000</ele>
        <time>2021-09-04T11:39:50Z</time>
      </trkpt>
      <trkpt lat="42.629700" lon="0.455049">
        <ele>2160.000000</ele>
        <time>2021-09-04T11:39:51Z</time>
      </trkpt>
      <trkpt lat="42.629707" lon="0.455043">
        <ele>2160.000000</ele>
        <time>2021-09-04T11:39:52Z</time>
      </trkpt>
      <trkpt lat="42.629713" lon="0.455039">
        <ele>2160.000000</ele>
        <time>2021-09-04T11:39:53Z</time>
      </trkpt>
      <trkpt lat="42.629715" lon="0.455036">
        <ele>2161.000000</ele>
        <time>2021-09-04T11:39:54Z</time>
      </trkpt>
      <trkpt lat="42.629722" lon="0.455027">
        <ele>2161.000000</ele>
        <time>2021-09-04T11:39:55Z</time>
      </trkpt>
      <trkpt lat="42.629725" lon="0.455022">
        <ele>2161.000000</ele>
        <time>2021-09-04T11:39:56Z</time>
      </trkpt>
      <trkpt lat="42.629730" lon="0.455014">
        <ele>2161.000000</ele>
        <time>2021-09-04T11:39:57Z</time>
      </trkpt>
      <trkpt lat="42.629738" lon="0.455003">
        <ele>2161.000000</ele>
        <time>2021-09-04T11:39:58Z</time>
      </trkpt>
      <trkpt lat="42.629745" lon="0.454995">
        <ele>2161.000000</ele>
        <time>2021-09-04T11:39:59Z</time>
      </trkpt>
      <trkpt lat="42.629755" lon="0.454984">
        <ele>2161.000000</ele>
        <time>2021-09-04T11:40:00Z</time>
      </trkpt>
      <trkpt lat="42.629768" lon="0.454974">
        <ele>2161.000000</ele>
        <time>2021-09-04T11:40:01Z</time>
      </trkpt>
      <trkpt lat="42.629778" lon="0.454970">
        <ele>2161.000000</ele>
        <time>2021-09-04T11:40:02Z</time>
      </trkpt>
      <trkpt lat="42.629785" lon="0.454968">
        <ele>2162.000000</ele>
        <time>2021-09-04T11:40:03Z</time>
      </trkpt>
      <trkpt lat="42.629793" lon="0.454964">
        <ele>2162.000000</ele>
        <time>2021-09-04T11:40:04Z</time>
      </trkpt>
      <trkpt lat="42.629803" lon="0.454961">
        <ele>2162.000000</ele>
        <time>2021-09-04T11:40:05Z</time>
      </trkpt>
      <trkpt lat="42.629812" lon="0.454960">
        <ele>2162.000000</ele>
        <time>2021-09-04T11:40:06Z</time>
      </trkpt>
      <trkpt lat="42.629822" lon="0.454983">
        <ele>2162.000000</ele>
        <time>2021-09-04T11:40:07Z</time>
      </trkpt>
      <trkpt lat="42.629832" lon="0.454982">
        <ele>2163.000000</ele>
        <time>2021-09-04T11:40:08Z</time>
      </trkpt>
      <trkpt lat="42.629838" lon="0.454977">
        <ele>2163.000000</ele>
        <time>2021-09-04T11:40:09Z</time>
      </trkpt>
      <trkpt lat="42.629845" lon="0.454975">
        <ele>2163.000000</ele>
        <time>2021-09-04T11:40:10Z</time>
      </trkpt>
      <trkpt lat="42.629850" lon="0.454975">
        <ele>2163.000000</ele>
        <time>2021-09-04T11:40:11Z</time>
      </trkpt>
      <trkpt lat="42.629853" lon="0.454973">
        <ele>2163.000000</ele>
        <time>2021-09-04T11:40:12Z</time>
      </trkpt>
      <trkpt lat="42.629858" lon="0.454969">
        <ele>2163.000000</ele>
        <time>2021-09-04T11:40:13Z</time>
      </trkpt>
      <trkpt lat="42.629865" lon="0.454966">
        <ele>2163.000000</ele>
        <time>2021-09-04T11:40:14Z</time>
      </trkpt>
      <trkpt lat="42.629870" lon="0.454963">
        <ele>2163.000000</ele>
        <time>2021-09-04T11:40:15Z</time>
      </trkpt>
      <trkpt lat="42.629877" lon="0.454961">
        <ele>2163.000000</ele>
        <time>2021-09-04T11:40:16Z</time>
      </trkpt>
      <trkpt lat="42.629883" lon="0.454958">
        <ele>2163.000000</ele>
        <time>2021-09-04T11:40:17Z</time>
      </trkpt>
      <trkpt lat="42.629888" lon="0.454953">
        <ele>2164.000000</ele>
        <time>2021-09-04T11:40:18Z</time>
      </trkpt>
      <trkpt lat="42.629892" lon="0.454949">
        <ele>2164.000000</ele>
        <time>2021-09-04T11:40:19Z</time>
      </trkpt>
      <trkpt lat="42.629895" lon="0.454946">
        <ele>2164.000000</ele>
        <time>2021-09-04T11:40:20Z</time>
      </trkpt>
      <trkpt lat="42.629898" lon="0.454942">
        <ele>2164.000000</ele>
        <time>2021-09-04T11:40:21Z</time>
      </trkpt>
      <trkpt lat="42.629905" lon="0.454938">
        <ele>2164.000000</ele>
        <time>2021-09-04T11:40:22Z</time>
      </trkpt>
      <trkpt lat="42.629915" lon="0.454934">
        <ele>2164.000000</ele>
        <time>2021-09-04T11:40:23Z</time>
      </trkpt>
      <trkpt lat="42.629923" lon="0.454948">
        <ele>2164.000000</ele>
        <time>2021-09-04T11:40:24Z</time>
      </trkpt>
      <trkpt lat="42.629930" lon="0.454955">
        <ele>2164.000000</ele>
        <time>2021-09-04T11:40:25Z</time>
      </trkpt>
      <trkpt lat="42.629935" lon="0.454957">
        <ele>2164.000000</ele>
        <time>2021-09-04T11:40:26Z</time>
      </trkpt>
      <trkpt lat="42.629940" lon="0.454962">
        <ele>2164.000000</ele>
        <time>2021-09-04T11:40:27Z</time>
      </trkpt>
      <trkpt lat="42.629947" lon="0.454967">
        <ele>2164.000000</ele>
        <time>2021-09-04T11:40:28Z</time>
      </trkpt>
      <trkpt lat="42.629950" lon="0.454968">
        <ele>2164.000000</ele>
        <time>2021-09-04T11:40:29Z</time>
      </trkpt>
      <trkpt lat="42.629953" lon="0.454966">
        <ele>2165.000000</ele>
        <time>2021-09-04T11:40:30Z</time>
      </trkpt>
      <trkpt lat="42.629957" lon="0.454962">
        <ele>2165.000000</ele>
        <time>2021-09-04T11:40:31Z</time>
      </trkpt>
      <trkpt lat="42.629957" lon="0.454957">
        <ele>2165.000000</ele>
        <time>2021-09-04T11:40:32Z</time>
      </trkpt>
      <trkpt lat="42.629955" lon="0.454950">
        <ele>2165.000000</ele>
        <time>2021-09-04T11:40:33Z</time>
      </trkpt>
      <trkpt lat="42.629950" lon="0.454943">
        <ele>2165.000000</ele>
        <time>2021-09-04T11:40:34Z</time>
      </trkpt>
      <trkpt lat="42.629953" lon="0.454940">
        <ele>2165.000000</ele>
        <time>2021-09-04T11:40:35Z</time>
      </trkpt>
      <trkpt lat="42.629956" lon="0.454938">
        <ele>2165.000000</ele>
        <time>2021-09-04T11:40:36Z</time>
      </trkpt>
      <trkpt lat="42.629960" lon="0.454937">
        <ele>2165.000000</ele>
        <time>2021-09-04T11:40:37Z</time>
      </trkpt>
      <trkpt lat="42.629957" lon="0.454940">
        <ele>2165.000000</ele>
        <time>2021-09-04T11:40:38Z</time>
      </trkpt>
      <trkpt lat="42.629965" lon="0.454935">
        <ele>2165.000000</ele>
        <time>2021-09-04T11:40:40Z</time>
      </trkpt>
      <trkpt lat="42.629965" lon="0.454928">
        <ele>2165.000000</ele>
        <time>2021-09-04T11:40:41Z</time>
      </trkpt>
      <trkpt lat="42.629968" lon="0.454927">
        <ele>2165.000000</ele>
        <time>2021-09-04T11:40:43Z</time>
      </trkpt>
      <trkpt lat="42.629975" lon="0.454928">
        <ele>2165.000000</ele>
        <time>2021-09-04T11:40:44Z</time>
      </trkpt>
      <trkpt lat="42.629980" lon="0.454925">
        <ele>2165.000000</ele>
        <time>2021-09-04T11:40:45Z</time>
      </trkpt>
      <trkpt lat="42.629985" lon="0.454920">
        <ele>2165.000000</ele>
        <time>2021-09-04T11:40:46Z</time>
      </trkpt>
      <trkpt lat="42.629992" lon="0.454918">
        <ele>2165.000000</ele>
        <time>2021-09-04T11:40:47Z</time>
      </trkpt>
      <trkpt lat="42.629997" lon="0.454918">
        <ele>2165.000000</ele>
        <time>2021-09-04T11:40:48Z</time>
      </trkpt>
      <trkpt lat="42.629998" lon="0.454916">
        <ele>2166.000000</ele>
        <time>2021-09-04T11:40:49Z</time>
      </trkpt>
      <trkpt lat="42.630000" lon="0.454915">
        <ele>2166.000000</ele>
        <time>2021-09-04T11:40:50Z</time>
      </trkpt>
      <trkpt lat="42.630002" lon="0.454913">
        <ele>2166.000000</ele>
        <time>2021-09-04T11:40:51Z</time>
      </trkpt>
      <trkpt lat="42.630005" lon="0.454912">
        <ele>2166.000000</ele>
        <time>2021-09-04T11:40:53Z</time>
      </trkpt>
      <trkpt lat="42.630005" lon="0.454913">
        <ele>2166.000000</ele>
        <time>2021-09-04T11:40:54Z</time>
      </trkpt>
      <trkpt lat="42.630002" lon="0.454915">
        <ele>2166.000000</ele>
        <time>2021-09-04T11:40:55Z</time>
      </trkpt>
      <trkpt lat="42.630002" lon="0.454916">
        <ele>2166.000000</ele>
        <time>2021-09-04T11:40:56Z</time>
      </trkpt>
      <trkpt lat="42.630003" lon="0.454916">
        <ele>2166.000000</ele>
        <time>2021-09-04T11:40:57Z</time>
      </trkpt>
      <trkpt lat="42.630002" lon="0.454916">
        <ele>2166.000000</ele>
        <time>2021-09-04T11:40:58Z</time>
      </trkpt>
      <trkpt lat="42.630100" lon="0.454863">
        <ele>2171.000000</ele>
        <time>2021-09-04T11:41:30Z</time>
      </trkpt>
      <trkpt lat="42.630110" lon="0.454860">
        <ele>2171.000000</ele>
        <time>2021-09-04T11:41:31Z</time>
      </trkpt>
      <trkpt lat="42.630122" lon="0.454858">
        <ele>2171.000000</ele>
        <time>2021-09-04T11:41:32Z</time>
      </trkpt>
      <trkpt lat="42.630130" lon="0.454856">
        <ele>2171.000000</ele>
        <time>2021-09-04T11:41:33Z</time>
      </trkpt>
      <trkpt lat="42.630140" lon="0.454856">
        <ele>2171.000000</ele>
        <time>2021-09-04T11:41:34Z</time>
      </trkpt>
      <trkpt lat="42.630145" lon="0.454853">
        <ele>2171.000000</ele>
        <time>2021-09-04T11:41:35Z</time>
      </trkpt>
      <trkpt lat="42.630152" lon="0.454851">
        <ele>2171.000000</ele>
        <time>2021-09-04T11:41:36Z</time>
      </trkpt>
      <trkpt lat="42.630158" lon="0.454849">
        <ele>2171.000000</ele>
        <time>2021-09-04T11:41:37Z</time>
      </trkpt>
      <trkpt lat="42.630167" lon="0.454848">
        <ele>2171.000000</ele>
        <time>2021-09-04T11:41:38Z</time>
      </trkpt>
      <trkpt lat="42.630172" lon="0.454849">
        <ele>2171.000000</ele>
        <time>2021-09-04T11:41:39Z</time>
      </trkpt>
      <trkpt lat="42.630175" lon="0.454849">
        <ele>2171.000000</ele>
        <time>2021-09-04T11:41:40Z</time>
      </trkpt>
      <trkpt lat="42.630180" lon="0.454850">
        <ele>2171.000000</ele>
        <time>2021-09-04T11:41:41Z</time>
      </trkpt>
      <trkpt lat="42.630183" lon="0.454849">
        <ele>2171.000000</ele>
        <time>2021-09-04T11:41:42Z</time>
      </trkpt>
      <trkpt lat="42.630188" lon="0.454849">
        <ele>2171.000000</ele>
        <time>2021-09-04T11:41:43Z</time>
      </trkpt>
      <trkpt lat="42.630197" lon="0.454848">
        <ele>2171.000000</ele>
        <time>2021-09-04T11:41:44Z</time>
      </trkpt>
      <trkpt lat="42.630202" lon="0.454848">
        <ele>2172.000000</ele>
        <time>2021-09-04T11:41:45Z</time>
      </trkpt>
      <trkpt lat="42.630207" lon="0.454847">
        <ele>2172.000000</ele>
        <time>2021-09-04T11:41:46Z</time>
      </trkpt>
      <trkpt lat="42.630210" lon="0.454847">
        <ele>2172.000000</ele>
        <time>2021-09-04T11:41:47Z</time>
      </trkpt>
      <trkpt lat="42.630215" lon="0.454846">
        <ele>2172.000000</ele>
        <time>2021-09-04T11:41:48Z</time>
      </trkpt>
      <trkpt lat="42.630222" lon="0.454845">
        <ele>2172.000000</ele>
        <time>2021-09-04T11:41:49Z</time>
      </trkpt>
      <trkpt lat="42.630228" lon="0.454844">
        <ele>2172.000000</ele>
        <time>2021-09-04T11:41:50Z</time>
      </trkpt>
      <trkpt lat="42.630235" lon="0.454843">
        <ele>2172.000000</ele>
        <time>2021-09-04T11:41:51Z</time>
      </trkpt>
      <trkpt lat="42.630242" lon="0.454842">
        <ele>2173.000000</ele>
        <time>2021-09-04T11:41:52Z</time>
      </trkpt>
      <trkpt lat="42.630248" lon="0.454840">
        <ele>2173.000000</ele>
        <time>2021-09-04T11:41:53Z</time>
      </trkpt>
      <trkpt lat="42.630252" lon="0.454838">
        <ele>2173.000000</ele>
        <time>2021-09-04T11:41:54Z</time>
      </trkpt>
      <trkpt lat="42.630255" lon="0.454836">
        <ele>2173.000000</ele>
        <time>2021-09-04T11:41:55Z</time>
      </trkpt>
      <trkpt lat="42.630262" lon="0.454833">
        <ele>2173.000000</ele>
        <time>2021-09-04T11:41:56Z</time>
      </trkpt>
      <trkpt lat="42.630263" lon="0.454831">
        <ele>2174.000000</ele>
        <time>2021-09-04T11:41:57Z</time>
      </trkpt>
      <trkpt lat="42.630268" lon="0.454829">
        <ele>2174.000000</ele>
        <time>2021-09-04T11:41:58Z</time>
      </trkpt>
      <trkpt lat="42.630275" lon="0.454826">
        <ele>2174.000000</ele>
        <time>2021-09-04T11:41:59Z</time>
      </trkpt>
      <trkpt lat="42.630280" lon="0.454823">
        <ele>2174.000000</ele>
        <time>2021-09-04T11:42:00Z</time>
      </trkpt>
      <trkpt lat="42.630285" lon="0.454821">
        <ele>2174.000000</ele>
        <time>2021-09-04T11:42:01Z</time>
      </trkpt>
      <trkpt lat="42.630290" lon="0.454819">
        <ele>2175.000000</ele>
        <time>2021-09-04T11:42:02Z</time>
      </trkpt>
      <trkpt lat="42.630295" lon="0.454816">
        <ele>2175.000000</ele>
        <time>2021-09-04T11:42:03Z</time>
      </trkpt>
      <trkpt lat="42.630300" lon="0.454815">
        <ele>2175.000000</ele>
        <time>2021-09-04T11:42:04Z</time>
      </trkpt>
      <trkpt lat="42.630303" lon="0.454813">
        <ele>2175.000000</ele>
        <time>2021-09-04T11:42:05Z</time>
      </trkpt>
      <trkpt lat="42.630305" lon="0.454811">
        <ele>2175.000000</ele>
        <time>2021-09-04T11:42:06Z</time>
      </trkpt>
      <trkpt lat="42.630307" lon="0.454809">
        <ele>2176.000000</ele>
        <time>2021-09-04T11:42:09Z</time>
      </trkpt>
      <trkpt lat="42.630308" lon="0.454808">
        <ele>2176.000000</ele>
        <time>2021-09-04T11:42:10Z</time>
      </trkpt>
      <trkpt lat="42.630312" lon="0.454805">
        <ele>2176.000000</ele>
        <time>2021-09-04T11:42:11Z</time>
      </trkpt>
      <trkpt lat="42.630317" lon="0.454802">
        <ele>2176.000000</ele>
        <time>2021-09-04T11:42:12Z</time>
      </trkpt>
      <trkpt lat="42.630322" lon="0.454798">
        <ele>2176.000000</ele>
        <time>2021-09-04T11:42:13Z</time>
      </trkpt>
      <trkpt lat="42.630327" lon="0.454794">
        <ele>2177.000000</ele>
        <time>2021-09-04T11:42:14Z</time>
      </trkpt>
      <trkpt lat="42.630332" lon="0.454790">
        <ele>2177.000000</ele>
        <time>2021-09-04T11:42:15Z</time>
      </trkpt>
      <trkpt lat="42.630330" lon="0.454755">
        <ele>2177.000000</ele>
        <time>2021-09-04T11:42:16Z</time>
      </trkpt>
      <trkpt lat="42.630332" lon="0.454752">
        <ele>2177.000000</ele>
        <time>2021-09-04T11:42:17Z</time>
      </trkpt>
      <trkpt lat="42.630335" lon="0.454753">
        <ele>2177.000000</ele>
        <time>2021-09-04T11:42:18Z</time>
      </trkpt>
      <trkpt lat="42.630335" lon="0.454750">
        <ele>2177.000000</ele>
        <time>2021-09-04T11:42:19Z</time>
      </trkpt>
      <trkpt lat="42.630335" lon="0.454745">
        <ele>2177.000000</ele>
        <time>2021-09-04T11:42:20Z</time>
      </trkpt>
      <trkpt lat="42.630333" lon="0.454738">
        <ele>2178.000000</ele>
        <time>2021-09-04T11:42:21Z</time>
      </trkpt>
      <trkpt lat="42.630337" lon="0.454733">
        <ele>2178.000000</ele>
        <time>2021-09-04T11:42:22Z</time>
      </trkpt>
      <trkpt lat="42.630341" lon="0.454725">
        <ele>2178.000000</ele>
        <time>2021-09-04T11:42:23Z</time>
      </trkpt>
      <trkpt lat="42.630347" lon="0.454720">
        <ele>2178.000000</ele>
        <time>2021-09-04T11:42:24Z</time>
      </trkpt>
      <trkpt lat="42.630348" lon="0.454718">
        <ele>2178.000000</ele>
        <time>2021-09-04T11:42:25Z</time>
      </trkpt>
      <trkpt lat="42.630352" lon="0.454722">
        <ele>2178.000000</ele>
        <time>2021-09-04T11:42:26Z</time>
      </trkpt>
      <trkpt lat="42.630355" lon="0.454720">
        <ele>2178.000000</ele>
        <time>2021-09-04T11:42:27Z</time>
      </trkpt>
      <trkpt lat="42.630360" lon="0.454718">
        <ele>2178.000000</ele>
        <time>2021-09-04T11:42:28Z</time>
      </trkpt>
      <trkpt lat="42.630365" lon="0.454716">
        <ele>2178.000000</ele>
        <time>2021-09-04T11:42:29Z</time>
      </trkpt>
      <trkpt lat="42.630370" lon="0.454714">
        <ele>2178.000000</ele>
        <time>2021-09-04T11:42:30Z</time>
      </trkpt>
      <trkpt lat="42.630377" lon="0.454707">
        <ele>2179.000000</ele>
        <time>2021-09-04T11:42:31Z</time>
      </trkpt>
      <trkpt lat="42.630383" lon="0.454703">
        <ele>2179.000000</ele>
        <time>2021-09-04T11:42:32Z</time>
      </trkpt>
      <trkpt lat="42.630392" lon="0.454700">
        <ele>2179.000000</ele>
        <time>2021-09-04T11:42:33Z</time>
      </trkpt>
      <trkpt lat="42.630400" lon="0.454699">
        <ele>2179.000000</ele>
        <time>2021-09-04T11:42:34Z</time>
      </trkpt>
      <trkpt lat="42.630407" lon="0.454696">
        <ele>2179.000000</ele>
        <time>2021-09-04T11:42:35Z</time>
      </trkpt>
      <trkpt lat="42.630410" lon="0.454694">
        <ele>2180.000000</ele>
        <time>2021-09-04T11:42:36Z</time>
      </trkpt>
      <trkpt lat="42.630415" lon="0.454688">
        <ele>2180.000000</ele>
        <time>2021-09-04T11:42:37Z</time>
      </trkpt>
      <trkpt lat="42.630418" lon="0.454672">
        <ele>2180.000000</ele>
        <time>2021-09-04T11:42:38Z</time>
      </trkpt>
      <trkpt lat="42.630423" lon="0.454665">
        <ele>2180.000000</ele>
        <time>2021-09-04T11:42:38Z</time>
      </trkpt>
      <trkpt lat="42.630427" lon="0.454662">
        <ele>2180.000000</ele>
        <time>2021-09-04T11:42:39Z</time>
      </trkpt>
      <trkpt lat="42.630430" lon="0.454657">
        <ele>2180.000000</ele>
        <time>2021-09-04T11:42:40Z</time>
      </trkpt>
      <trkpt lat="42.630432" lon="0.454650">
        <ele>2181.000000</ele>
        <time>2021-09-04T11:42:41Z</time>
      </trkpt>
      <trkpt lat="42.630433" lon="0.454643">
        <ele>2181.000000</ele>
        <time>2021-09-04T11:42:42Z</time>
      </trkpt>
      <trkpt lat="42.630435" lon="0.454633">
        <ele>2181.000000</ele>
        <time>2021-09-04T11:42:43Z</time>
      </trkpt>
      <trkpt lat="42.630439" lon="0.454630">
        <ele>2181.000000</ele>
        <time>2021-09-04T11:42:44Z</time>
      </trkpt>
      <trkpt lat="42.630442" lon="0.454623">
        <ele>2181.000000</ele>
        <time>2021-09-04T11:42:45Z</time>
      </trkpt>
      <trkpt lat="42.630445" lon="0.454617">
        <ele>2181.000000</ele>
        <time>2021-09-04T11:42:46Z</time>
      </trkpt>
      <trkpt lat="42.630446" lon="0.454613">
        <ele>2181.000000</ele>
        <time>2021-09-04T11:42:47Z</time>
      </trkpt>
      <trkpt lat="42.630450" lon="0.454605">
        <ele>2181.000000</ele>
        <time>2021-09-04T11:42:48Z</time>
      </trkpt>
      <trkpt lat="42.630453" lon="0.454602">
        <ele>2182.000000</ele>
        <time>2021-09-04T11:42:49Z</time>
      </trkpt>
      <trkpt lat="42.630457" lon="0.454598">
        <ele>2182.000000</ele>
        <time>2021-09-04T11:42:50Z</time>
      </trkpt>
      <trkpt lat="42.630467" lon="0.454593">
        <ele>2182.000000</ele>
        <time>2021-09-04T11:42:51Z</time>
      </trkpt>
      <trkpt lat="42.630475" lon="0.454588">
        <ele>2182.000000</ele>
        <time>2021-09-04T11:42:52Z</time>
      </trkpt>
      <trkpt lat="42.630480" lon="0.454583">
        <ele>2182.000000</ele>
        <time>2021-09-04T11:42:53Z</time>
      </trkpt>
      <trkpt lat="42.630488" lon="0.454579">
        <ele>2182.000000</ele>
        <time>2021-09-04T11:42:54Z</time>
      </trkpt>
      <trkpt lat="42.630495" lon="0.454575">
        <ele>2182.000000</ele>
        <time>2021-09-04T11:42:55Z</time>
      </trkpt>
      <trkpt lat="42.630500" lon="0.454572">
        <ele>2183.000000</ele>
        <time>2021-09-04T11:42:56Z</time>
      </trkpt>
      <trkpt lat="42.630503" lon="0.454570">
        <ele>2183.000000</ele>
        <time>2021-09-04T11:42:57Z</time>
      </trkpt>
      <trkpt lat="42.630505" lon="0.454567">
        <ele>2183.000000</ele>
        <time>2021-09-04T11:42:58Z</time>
      </trkpt>
      <trkpt lat="42.630507" lon="0.454558">
        <ele>2183.000000</ele>
        <time>2021-09-04T11:42:59Z</time>
      </trkpt>
      <trkpt lat="42.630508" lon="0.454550">
        <ele>2183.000000</ele>
        <time>2021-09-04T11:43:00Z</time>
      </trkpt>
      <trkpt lat="42.630510" lon="0.454538">
        <ele>2183.000000</ele>
        <time>2021-09-04T11:43:01Z</time>
      </trkpt>
      <trkpt lat="42.630513" lon="0.454533">
        <ele>2183.000000</ele>
        <time>2021-09-04T11:43:02Z</time>
      </trkpt>
      <trkpt lat="42.630515" lon="0.454528">
        <ele>2183.000000</ele>
        <time>2021-09-04T11:43:03Z</time>
      </trkpt>
      <trkpt lat="42.630519" lon="0.454523">
        <ele>2183.000000</ele>
        <time>2021-09-04T11:43:04Z</time>
      </trkpt>
      <trkpt lat="42.630522" lon="0.454517">
        <ele>2183.000000</ele>
        <time>2021-09-04T11:43:05Z</time>
      </trkpt>
      <trkpt lat="42.630525" lon="0.454510">
        <ele>2183.000000</ele>
        <time>2021-09-04T11:43:06Z</time>
      </trkpt>
      <trkpt lat="42.630528" lon="0.454503">
        <ele>2183.000000</ele>
        <time>2021-09-04T11:43:07Z</time>
      </trkpt>
      <trkpt lat="42.630531" lon="0.454495">
        <ele>2183.000000</ele>
        <time>2021-09-04T11:43:08Z</time>
      </trkpt>
      <trkpt lat="42.630535" lon="0.454485">
        <ele>2183.000000</ele>
        <time>2021-09-04T11:43:09Z</time>
      </trkpt>
      <trkpt lat="42.630539" lon="0.454480">
        <ele>2183.000000</ele>
        <time>2021-09-04T11:43:10Z</time>
      </trkpt>
      <trkpt lat="42.630543" lon="0.454472">
        <ele>2184.000000</ele>
        <time>2021-09-04T11:43:11Z</time>
      </trkpt>
      <trkpt lat="42.630548" lon="0.454463">
        <ele>2184.000000</ele>
        <time>2021-09-04T11:43:12Z</time>
      </trkpt>
      <trkpt lat="42.630554" lon="0.454455">
        <ele>2184.000000</ele>
        <time>2021-09-04T11:43:13Z</time>
      </trkpt>
      <trkpt lat="42.630560" lon="0.454450">
        <ele>2184.000000</ele>
        <time>2021-09-04T11:43:14Z</time>
      </trkpt>
      <trkpt lat="42.630575" lon="0.454443">
        <ele>2184.000000</ele>
        <time>2021-09-04T11:43:15Z</time>
      </trkpt>
      <trkpt lat="42.630588" lon="0.454438">
        <ele>2185.000000</ele>
        <time>2021-09-04T11:43:16Z</time>
      </trkpt>
      <trkpt lat="42.630595" lon="0.454433">
        <ele>2185.000000</ele>
        <time>2021-09-04T11:43:17Z</time>
      </trkpt>
      <trkpt lat="42.630600" lon="0.454430">
        <ele>2185.000000</ele>
        <time>2021-09-04T11:43:18Z</time>
      </trkpt>
      <trkpt lat="42.630605" lon="0.454427">
        <ele>2185.000000</ele>
        <time>2021-09-04T11:43:19Z</time>
      </trkpt>
      <trkpt lat="42.630607" lon="0.454421">
        <ele>2185.000000</ele>
        <time>2021-09-04T11:43:20Z</time>
      </trkpt>
      <trkpt lat="42.630608" lon="0.454414">
        <ele>2185.000000</ele>
        <time>2021-09-04T11:43:21Z</time>
      </trkpt>
      <trkpt lat="42.630613" lon="0.454402">
        <ele>2186.000000</ele>
        <time>2021-09-04T11:43:22Z</time>
      </trkpt>
      <trkpt lat="42.630618" lon="0.454395">
        <ele>2186.000000</ele>
        <time>2021-09-04T11:43:23Z</time>
      </trkpt>
      <trkpt lat="42.630623" lon="0.454390">
        <ele>2186.000000</ele>
        <time>2021-09-04T11:43:24Z</time>
      </trkpt>
      <trkpt lat="42.630630" lon="0.454389">
        <ele>2186.000000</ele>
        <time>2021-09-04T11:43:25Z</time>
      </trkpt>
      <trkpt lat="42.630635" lon="0.454386">
        <ele>2186.000000</ele>
        <time>2021-09-04T11:43:26Z</time>
      </trkpt>
      <trkpt lat="42.630642" lon="0.454382">
        <ele>2186.000000</ele>
        <time>2021-09-04T11:43:27Z</time>
      </trkpt>
      <trkpt lat="42.630647" lon="0.454382">
        <ele>2186.000000</ele>
        <time>2021-09-04T11:43:28Z</time>
      </trkpt>
      <trkpt lat="42.630653" lon="0.454380">
        <ele>2187.000000</ele>
        <time>2021-09-04T11:43:29Z</time>
      </trkpt>
      <trkpt lat="42.630665" lon="0.454382">
        <ele>2187.000000</ele>
        <time>2021-09-04T11:43:30Z</time>
      </trkpt>
      <trkpt lat="42.630672" lon="0.454388">
        <ele>2187.000000</ele>
        <time>2021-09-04T11:43:31Z</time>
      </trkpt>
      <trkpt lat="42.630678" lon="0.454390">
        <ele>2187.000000</ele>
        <time>2021-09-04T11:43:32Z</time>
      </trkpt>
      <trkpt lat="42.630685" lon="0.454388">
        <ele>2187.000000</ele>
        <time>2021-09-04T11:43:33Z</time>
      </trkpt>
      <trkpt lat="42.630688" lon="0.454387">
        <ele>2187.000000</ele>
        <time>2021-09-04T11:43:34Z</time>
      </trkpt>
      <trkpt lat="42.630695" lon="0.454391">
        <ele>2188.000000</ele>
        <time>2021-09-04T11:43:35Z</time>
      </trkpt>
      <trkpt lat="42.630702" lon="0.454392">
        <ele>2188.000000</ele>
        <time>2021-09-04T11:43:36Z</time>
      </trkpt>
      <trkpt lat="42.630707" lon="0.454393">
        <ele>2188.000000</ele>
        <time>2021-09-04T11:43:37Z</time>
      </trkpt>
      <trkpt lat="42.630712" lon="0.454393">
        <ele>2188.000000</ele>
        <time>2021-09-04T11:43:38Z</time>
      </trkpt>
      <trkpt lat="42.630720" lon="0.454393">
        <ele>2188.000000</ele>
        <time>2021-09-04T11:43:39Z</time>
      </trkpt>
      <trkpt lat="42.630723" lon="0.454393">
        <ele>2188.000000</ele>
        <time>2021-09-04T11:43:40Z</time>
      </trkpt>
      <trkpt lat="42.630728" lon="0.454394">
        <ele>2188.000000</ele>
        <time>2021-09-04T11:43:41Z</time>
      </trkpt>
      <trkpt lat="42.630737" lon="0.454397">
        <ele>2188.000000</ele>
        <time>2021-09-04T11:43:42Z</time>
      </trkpt>
      <trkpt lat="42.630745" lon="0.454403">
        <ele>2188.000000</ele>
        <time>2021-09-04T11:43:43Z</time>
      </trkpt>
      <trkpt lat="42.630750" lon="0.454408">
        <ele>2188.000000</ele>
        <time>2021-09-04T11:43:44Z</time>
      </trkpt>
      <trkpt lat="42.630753" lon="0.454413">
        <ele>2188.000000</ele>
        <time>2021-09-04T11:43:45Z</time>
      </trkpt>
      <trkpt lat="42.630757" lon="0.454435">
        <ele>2188.000000</ele>
        <time>2021-09-04T11:43:46Z</time>
      </trkpt>
      <trkpt lat="42.630757" lon="0.454438">
        <ele>2188.000000</ele>
        <time>2021-09-04T11:43:47Z</time>
      </trkpt>
      <trkpt lat="42.630760" lon="0.454445">
        <ele>2188.000000</ele>
        <time>2021-09-04T11:43:48Z</time>
      </trkpt>
      <trkpt lat="42.630762" lon="0.454446">
        <ele>2188.000000</ele>
        <time>2021-09-04T11:43:50Z</time>
      </trkpt>
      <trkpt lat="42.630763" lon="0.454447">
        <ele>2188.000000</ele>
        <time>2021-09-04T11:43:51Z</time>
      </trkpt>
      <trkpt lat="42.630767" lon="0.454450">
        <ele>2188.000000</ele>
        <time>2021-09-04T11:43:54Z</time>
      </trkpt>
      <trkpt lat="42.630768" lon="0.454452">
        <ele>2188.000000</ele>
        <time>2021-09-04T11:43:55Z</time>
      </trkpt>
      <trkpt lat="42.630770" lon="0.454454">
        <ele>2188.000000</ele>
        <time>2021-09-04T11:43:56Z</time>
      </trkpt>
      <trkpt lat="42.630775" lon="0.454458">
        <ele>2188.000000</ele>
        <time>2021-09-04T11:43:57Z</time>
      </trkpt>
      <trkpt lat="42.630782" lon="0.454459">
        <ele>2188.000000</ele>
        <time>2021-09-04T11:43:58Z</time>
      </trkpt>
      <trkpt lat="42.630788" lon="0.454457">
        <ele>2189.000000</ele>
        <time>2021-09-04T11:43:59Z</time>
      </trkpt>
      <trkpt lat="42.630790" lon="0.454460">
        <ele>2189.000000</ele>
        <time>2021-09-04T11:44:00Z</time>
      </trkpt>
      <trkpt lat="42.630793" lon="0.454460">
        <ele>2189.000000</ele>
        <time>2021-09-04T11:44:01Z</time>
      </trkpt>
      <trkpt lat="42.630795" lon="0.454464">
        <ele>2189.000000</ele>
        <time>2021-09-04T11:44:04Z</time>
      </trkpt>
      <trkpt lat="42.630800" lon="0.454467">
        <ele>2189.000000</ele>
        <time>2021-09-04T11:44:05Z</time>
      </trkpt>
      <trkpt lat="42.630805" lon="0.454467">
        <ele>2189.000000</ele>
        <time>2021-09-04T11:44:08Z</time>
      </trkpt>
      <trkpt lat="42.630803" lon="0.454465">
        <ele>2189.000000</ele>
        <time>2021-09-04T11:44:09Z</time>
      </trkpt>
      <trkpt lat="42.630807" lon="0.454460">
        <ele>2189.000000</ele>
        <time>2021-09-04T11:44:10Z</time>
      </trkpt>
      <trkpt lat="42.630805" lon="0.454459">
        <ele>2189.000000</ele>
        <time>2021-09-04T11:44:11Z</time>
      </trkpt>
      <trkpt lat="42.630803" lon="0.454435">
        <ele>2189.000000</ele>
        <time>2021-09-04T11:44:12Z</time>
      </trkpt>
      <trkpt lat="42.630803" lon="0.454430">
        <ele>2189.000000</ele>
        <time>2021-09-04T11:44:13Z</time>
      </trkpt>
      <trkpt lat="42.630803" lon="0.454423">
        <ele>2189.000000</ele>
        <time>2021-09-04T11:44:15Z</time>
      </trkpt>
      <trkpt lat="42.630802" lon="0.454418">
        <ele>2190.000000</ele>
        <time>2021-09-04T11:44:16Z</time>
      </trkpt>
      <trkpt lat="42.630802" lon="0.454410">
        <ele>2190.000000</ele>
        <time>2021-09-04T11:44:17Z</time>
      </trkpt>
      <trkpt lat="42.630802" lon="0.454407">
        <ele>2190.000000</ele>
        <time>2021-09-04T11:44:18Z</time>
      </trkpt>
      <trkpt lat="42.630802" lon="0.454400">
        <ele>2190.000000</ele>
        <time>2021-09-04T11:44:19Z</time>
      </trkpt>
      <trkpt lat="42.630803" lon="0.454392">
        <ele>2190.000000</ele>
        <time>2021-09-04T11:44:20Z</time>
      </trkpt>
      <trkpt lat="42.630802" lon="0.454383">
        <ele>2191.000000</ele>
        <time>2021-09-04T11:44:22Z</time>
      </trkpt>
      <trkpt lat="42.630805" lon="0.454382">
        <ele>2191.000000</ele>
        <time>2021-09-04T11:44:24Z</time>
      </trkpt>
      <trkpt lat="42.630810" lon="0.454383">
        <ele>2191.000000</ele>
        <time>2021-09-04T11:44:25Z</time>
      </trkpt>
      <trkpt lat="42.630817" lon="0.454383">
        <ele>2191.000000</ele>
        <time>2021-09-04T11:44:26Z</time>
      </trkpt>
      <trkpt lat="42.630820" lon="0.454388">
        <ele>2192.000000</ele>
        <time>2021-09-04T11:44:27Z</time>
      </trkpt>
      <trkpt lat="42.630823" lon="0.454392">
        <ele>2192.000000</ele>
        <time>2021-09-04T11:44:28Z</time>
      </trkpt>
      <trkpt lat="42.630828" lon="0.454398">
        <ele>2192.000000</ele>
        <time>2021-09-04T11:44:29Z</time>
      </trkpt>
      <trkpt lat="42.630830" lon="0.454402">
        <ele>2192.000000</ele>
        <time>2021-09-04T11:44:30Z</time>
      </trkpt>
      <trkpt lat="42.630833" lon="0.454405">
        <ele>2192.000000</ele>
        <time>2021-09-04T11:44:31Z</time>
      </trkpt>
      <trkpt lat="42.630840" lon="0.454410">
        <ele>2193.000000</ele>
        <time>2021-09-04T11:44:32Z</time>
      </trkpt>
      <trkpt lat="42.630845" lon="0.454410">
        <ele>2193.000000</ele>
        <time>2021-09-04T11:44:33Z</time>
      </trkpt>
      <trkpt lat="42.630852" lon="0.454411">
        <ele>2193.000000</ele>
        <time>2021-09-04T11:44:34Z</time>
      </trkpt>
      <trkpt lat="42.630855" lon="0.454414">
        <ele>2193.000000</ele>
        <time>2021-09-04T11:44:35Z</time>
      </trkpt>
      <trkpt lat="42.630863" lon="0.454418">
        <ele>2193.000000</ele>
        <time>2021-09-04T11:44:36Z</time>
      </trkpt>
      <trkpt lat="42.630865" lon="0.454421">
        <ele>2193.000000</ele>
        <time>2021-09-04T11:44:37Z</time>
      </trkpt>
      <trkpt lat="42.630870" lon="0.454426">
        <ele>2193.000000</ele>
        <time>2021-09-04T11:44:38Z</time>
      </trkpt>
      <trkpt lat="42.630873" lon="0.454429">
        <ele>2193.000000</ele>
        <time>2021-09-04T11:44:39Z</time>
      </trkpt>
      <trkpt lat="42.630878" lon="0.454432">
        <ele>2193.000000</ele>
        <time>2021-09-04T11:44:42Z</time>
      </trkpt>
      <trkpt lat="42.630885" lon="0.454428">
        <ele>2194.000000</ele>
        <time>2021-09-04T11:44:43Z</time>
      </trkpt>
      <trkpt lat="42.630885" lon="0.454422">
        <ele>2194.000000</ele>
        <time>2021-09-04T11:44:46Z</time>
      </trkpt>
      <trkpt lat="42.630885" lon="0.454417">
        <ele>2194.000000</ele>
        <time>2021-09-04T11:44:47Z</time>
      </trkpt>
      <trkpt lat="42.630887" lon="0.454410">
        <ele>2194.000000</ele>
        <time>2021-09-04T11:44:48Z</time>
      </trkpt>
      <trkpt lat="42.630893" lon="0.454407">
        <ele>2194.000000</ele>
        <time>2021-09-04T11:44:49Z</time>
      </trkpt>
      <trkpt lat="42.630900" lon="0.454405">
        <ele>2195.000000</ele>
        <time>2021-09-04T11:44:51Z</time>
      </trkpt>
      <trkpt lat="42.630903" lon="0.454403">
        <ele>2195.000000</ele>
        <time>2021-09-04T11:44:52Z</time>
      </trkpt>
      <trkpt lat="42.630903" lon="0.454400">
        <ele>2195.000000</ele>
        <time>2021-09-04T11:44:53Z</time>
      </trkpt>
      <trkpt lat="42.630902" lon="0.454392">
        <ele>2195.000000</ele>
        <time>2021-09-04T11:44:54Z</time>
      </trkpt>
      <trkpt lat="42.630900" lon="0.454387">
        <ele>2195.000000</ele>
        <time>2021-09-04T11:44:55Z</time>
      </trkpt>
      <trkpt lat="42.630897" lon="0.454378">
        <ele>2196.000000</ele>
        <time>2021-09-04T11:44:57Z</time>
      </trkpt>
      <trkpt lat="42.630899" lon="0.454378">
        <ele>2196.000000</ele>
        <time>2021-09-04T11:44:58Z</time>
      </trkpt>
      <trkpt lat="42.630903" lon="0.454370">
        <ele>2196.000000</ele>
        <time>2021-09-04T11:44:59Z</time>
      </trkpt>
      <trkpt lat="42.630905" lon="0.454363">
        <ele>2197.000000</ele>
        <time>2021-09-04T11:45:00Z</time>
      </trkpt>
      <trkpt lat="42.630906" lon="0.454360">
        <ele>2197.000000</ele>
        <time>2021-09-04T11:45:02Z</time>
      </trkpt>
      <trkpt lat="42.630907" lon="0.454355">
        <ele>2197.000000</ele>
        <time>2021-09-04T11:45:03Z</time>
      </trkpt>
      <trkpt lat="42.630913" lon="0.454352">
        <ele>2198.000000</ele>
        <time>2021-09-04T11:45:05Z</time>
      </trkpt>
      <trkpt lat="42.630917" lon="0.454350">
        <ele>2198.000000</ele>
        <time>2021-09-04T11:45:06Z</time>
      </trkpt>
      <trkpt lat="42.630922" lon="0.454352">
        <ele>2199.000000</ele>
        <time>2021-09-04T11:45:09Z</time>
      </trkpt>
      <trkpt lat="42.630920" lon="0.454349">
        <ele>2199.000000</ele>
        <time>2021-09-04T11:45:10Z</time>
      </trkpt>
      <trkpt lat="42.630923" lon="0.454345">
        <ele>2199.000000</ele>
        <time>2021-09-04T11:45:12Z</time>
      </trkpt>
      <trkpt lat="42.630928" lon="0.454343">
        <ele>2199.000000</ele>
        <time>2021-09-04T11:45:13Z</time>
      </trkpt>
      <trkpt lat="42.630932" lon="0.454340">
        <ele>2199.000000</ele>
        <time>2021-09-04T11:45:14Z</time>
      </trkpt>
      <trkpt lat="42.630933" lon="0.454337">
        <ele>2199.000000</ele>
        <time>2021-09-04T11:45:16Z</time>
      </trkpt>
      <trkpt lat="42.630937" lon="0.454335">
        <ele>2199.000000</ele>
        <time>2021-09-04T11:45:17Z</time>
      </trkpt>
      <trkpt lat="42.630942" lon="0.454342">
        <ele>2199.000000</ele>
        <time>2021-09-04T11:45:18Z</time>
      </trkpt>
      <trkpt lat="42.630948" lon="0.454355">
        <ele>2199.000000</ele>
        <time>2021-09-04T11:45:19Z</time>
      </trkpt>
      <trkpt lat="42.630955" lon="0.454362">
        <ele>2199.000000</ele>
        <time>2021-09-04T11:45:20Z</time>
      </trkpt>
      <trkpt lat="42.630958" lon="0.454360">
        <ele>2199.000000</ele>
        <time>2021-09-04T11:45:21Z</time>
      </trkpt>
      <trkpt lat="42.630962" lon="0.454355">
        <ele>2200.000000</ele>
        <time>2021-09-04T11:45:22Z</time>
      </trkpt>
      <trkpt lat="42.630962" lon="0.454353">
        <ele>2200.000000</ele>
        <time>2021-09-04T11:45:23Z</time>
      </trkpt>
      <trkpt lat="42.630962" lon="0.454340">
        <ele>2200.000000</ele>
        <time>2021-09-04T11:45:24Z</time>
      </trkpt>
      <trkpt lat="42.630963" lon="0.454332">
        <ele>2200.000000</ele>
        <time>2021-09-04T11:45:25Z</time>
      </trkpt>
      <trkpt lat="42.630963" lon="0.454327">
        <ele>2200.000000</ele>
        <time>2021-09-04T11:45:26Z</time>
      </trkpt>
      <trkpt lat="42.630967" lon="0.454323">
        <ele>2200.000000</ele>
        <time>2021-09-04T11:45:27Z</time>
      </trkpt>
      <trkpt lat="42.630971" lon="0.454318">
        <ele>2201.000000</ele>
        <time>2021-09-04T11:45:28Z</time>
      </trkpt>
      <trkpt lat="42.630974" lon="0.454308">
        <ele>2201.000000</ele>
        <time>2021-09-04T11:45:30Z</time>
      </trkpt>
      <trkpt lat="42.630979" lon="0.454302">
        <ele>2201.000000</ele>
        <time>2021-09-04T11:45:31Z</time>
      </trkpt>
      <trkpt lat="42.630987" lon="0.454298">
        <ele>2201.000000</ele>
        <time>2021-09-04T11:45:32Z</time>
      </trkpt>
      <trkpt lat="42.630993" lon="0.454295">
        <ele>2201.000000</ele>
        <time>2021-09-04T11:45:33Z</time>
      </trkpt>
      <trkpt lat="42.630995" lon="0.454290">
        <ele>2202.000000</ele>
        <time>2021-09-04T11:45:34Z</time>
      </trkpt>
      <trkpt lat="42.630997" lon="0.454286">
        <ele>2202.000000</ele>
        <time>2021-09-04T11:45:35Z</time>
      </trkpt>
      <trkpt lat="42.631000" lon="0.454284">
        <ele>2202.000000</ele>
        <time>2021-09-04T11:45:36Z</time>
      </trkpt>
      <trkpt lat="42.631002" lon="0.454281">
        <ele>2202.000000</ele>
        <time>2021-09-04T11:45:37Z</time>
      </trkpt>
      <trkpt lat="42.631005" lon="0.454280">
        <ele>2203.000000</ele>
        <time>2021-09-04T11:45:38Z</time>
      </trkpt>
      <trkpt lat="42.631008" lon="0.454281">
        <ele>2203.000000</ele>
        <time>2021-09-04T11:45:39Z</time>
      </trkpt>
      <trkpt lat="42.631010" lon="0.454288">
        <ele>2203.000000</ele>
        <time>2021-09-04T11:45:40Z</time>
      </trkpt>
      <trkpt lat="42.631012" lon="0.454292">
        <ele>2203.000000</ele>
        <time>2021-09-04T11:45:41Z</time>
      </trkpt>
      <trkpt lat="42.631013" lon="0.454295">
        <ele>2203.000000</ele>
        <time>2021-09-04T11:45:43Z</time>
      </trkpt>
      <trkpt lat="42.631012" lon="0.454292">
        <ele>2204.000000</ele>
        <time>2021-09-04T11:45:46Z</time>
      </trkpt>
      <trkpt lat="42.631062" lon="0.454300">
        <ele>2204.000000</ele>
        <time>2021-09-04T11:46:53Z</time>
      </trkpt>
      <trkpt lat="42.631068" lon="0.454295">
        <ele>2204.000000</ele>
        <time>2021-09-04T11:46:53Z</time>
      </trkpt>
      <trkpt lat="42.631073" lon="0.454287">
        <ele>2204.000000</ele>
        <time>2021-09-04T11:46:54Z</time>
      </trkpt>
      <trkpt lat="42.631078" lon="0.454282">
        <ele>2204.000000</ele>
        <time>2021-09-04T11:46:55Z</time>
      </trkpt>
      <trkpt lat="42.631080" lon="0.454277">
        <ele>2204.000000</ele>
        <time>2021-09-04T11:46:56Z</time>
      </trkpt>
      <trkpt lat="42.631085" lon="0.454269">
        <ele>2204.000000</ele>
        <time>2021-09-04T11:46:57Z</time>
      </trkpt>
      <trkpt lat="42.631088" lon="0.454265">
        <ele>2204.000000</ele>
        <time>2021-09-04T11:46:58Z</time>
      </trkpt>
      <trkpt lat="42.631087" lon="0.454258">
        <ele>2204.000000</ele>
        <time>2021-09-04T11:47:01Z</time>
      </trkpt>
      <trkpt lat="42.631088" lon="0.454249">
        <ele>2204.000000</ele>
        <time>2021-09-04T11:47:02Z</time>
      </trkpt>
      <trkpt lat="42.631092" lon="0.454243">
        <ele>2204.000000</ele>
        <time>2021-09-04T11:47:03Z</time>
      </trkpt>
      <trkpt lat="42.631096" lon="0.454235">
        <ele>2204.000000</ele>
        <time>2021-09-04T11:47:04Z</time>
      </trkpt>
      <trkpt lat="42.631102" lon="0.454227">
        <ele>2204.000000</ele>
        <time>2021-09-04T11:47:05Z</time>
      </trkpt>
      <trkpt lat="42.631108" lon="0.454222">
        <ele>2204.000000</ele>
        <time>2021-09-04T11:47:06Z</time>
      </trkpt>
      <trkpt lat="42.631117" lon="0.454211">
        <ele>2204.000000</ele>
        <time>2021-09-04T11:47:07Z</time>
      </trkpt>
      <trkpt lat="42.631122" lon="0.454203">
        <ele>2204.000000</ele>
        <time>2021-09-04T11:47:08Z</time>
      </trkpt>
      <trkpt lat="42.631127" lon="0.454200">
        <ele>2204.000000</ele>
        <time>2021-09-04T11:47:09Z</time>
      </trkpt>
      <trkpt lat="42.631132" lon="0.454195">
        <ele>2204.000000</ele>
        <time>2021-09-04T11:47:10Z</time>
      </trkpt>
      <trkpt lat="42.631135" lon="0.454189">
        <ele>2204.000000</ele>
        <time>2021-09-04T11:47:11Z</time>
      </trkpt>
      <trkpt lat="42.631137" lon="0.454185">
        <ele>2204.000000</ele>
        <time>2021-09-04T11:47:12Z</time>
      </trkpt>
      <trkpt lat="42.631140" lon="0.454175">
        <ele>2204.000000</ele>
        <time>2021-09-04T11:47:13Z</time>
      </trkpt>
      <trkpt lat="42.631144" lon="0.454173">
        <ele>2204.000000</ele>
        <time>2021-09-04T11:47:14Z</time>
      </trkpt>
      <trkpt lat="42.631150" lon="0.454170">
        <ele>2207.000000</ele>
        <time>2021-09-04T11:47:15Z</time>
      </trkpt>
      <trkpt lat="42.631158" lon="0.454168">
        <ele>2207.000000</ele>
        <time>2021-09-04T11:47:16Z</time>
      </trkpt>
      <trkpt lat="42.631163" lon="0.454165">
        <ele>2207.000000</ele>
        <time>2021-09-04T11:47:17Z</time>
      </trkpt>
      <trkpt lat="42.631172" lon="0.454158">
        <ele>2207.000000</ele>
        <time>2021-09-04T11:47:18Z</time>
      </trkpt>
      <trkpt lat="42.631178" lon="0.454151">
        <ele>2208.000000</ele>
        <time>2021-09-04T11:47:19Z</time>
      </trkpt>
      <trkpt lat="42.631185" lon="0.454146">
        <ele>2208.000000</ele>
        <time>2021-09-04T11:47:20Z</time>
      </trkpt>
      <trkpt lat="42.631192" lon="0.454136">
        <ele>2208.000000</ele>
        <time>2021-09-04T11:47:21Z</time>
      </trkpt>
      <trkpt lat="42.631197" lon="0.454128">
        <ele>2208.000000</ele>
        <time>2021-09-04T11:47:22Z</time>
      </trkpt>
      <trkpt lat="42.631203" lon="0.454118">
        <ele>2209.000000</ele>
        <time>2021-09-04T11:47:23Z</time>
      </trkpt>
      <trkpt lat="42.631215" lon="0.454106">
        <ele>2209.000000</ele>
        <time>2021-09-04T11:47:24Z</time>
      </trkpt>
      <trkpt lat="42.631225" lon="0.454097">
        <ele>2209.000000</ele>
        <time>2021-09-04T11:47:25Z</time>
      </trkpt>
      <trkpt lat="42.631235" lon="0.454095">
        <ele>2209.000000</ele>
        <time>2021-09-04T11:47:26Z</time>
      </trkpt>
      <trkpt lat="42.631245" lon="0.454088">
        <ele>2209.000000</ele>
        <time>2021-09-04T11:47:27Z</time>
      </trkpt>
      <trkpt lat="42.631252" lon="0.454081">
        <ele>2209.000000</ele>
        <time>2021-09-04T11:47:28Z</time>
      </trkpt>
      <trkpt lat="42.631257" lon="0.454073">
        <ele>2210.000000</ele>
        <time>2021-09-04T11:47:29Z</time>
      </trkpt>
      <trkpt lat="42.631260" lon="0.454066">
        <ele>2210.000000</ele>
        <time>2021-09-04T11:47:30Z</time>
      </trkpt>
      <trkpt lat="42.631258" lon="0.454050">
        <ele>2210.000000</ele>
        <time>2021-09-04T11:47:31Z</time>
      </trkpt>
      <trkpt lat="42.631258" lon="0.454042">
        <ele>2210.000000</ele>
        <time>2021-09-04T11:47:32Z</time>
      </trkpt>
      <trkpt lat="42.631257" lon="0.454027">
        <ele>2210.000000</ele>
        <time>2021-09-04T11:47:33Z</time>
      </trkpt>
      <trkpt lat="42.631262" lon="0.454017">
        <ele>2210.000000</ele>
        <time>2021-09-04T11:47:34Z</time>
      </trkpt>
      <trkpt lat="42.631267" lon="0.454008">
        <ele>2210.000000</ele>
        <time>2021-09-04T11:47:35Z</time>
      </trkpt>
      <trkpt lat="42.631273" lon="0.453998">
        <ele>2210.000000</ele>
        <time>2021-09-04T11:47:36Z</time>
      </trkpt>
      <trkpt lat="42.631276" lon="0.453985">
        <ele>2211.000000</ele>
        <time>2021-09-04T11:47:37Z</time>
      </trkpt>
      <trkpt lat="42.631278" lon="0.453975">
        <ele>2211.000000</ele>
        <time>2021-09-04T11:47:38Z</time>
      </trkpt>
      <trkpt lat="42.631282" lon="0.453968">
        <ele>2211.000000</ele>
        <time>2021-09-04T11:47:39Z</time>
      </trkpt>
      <trkpt lat="42.631288" lon="0.453963">
        <ele>2211.000000</ele>
        <time>2021-09-04T11:47:40Z</time>
      </trkpt>
      <trkpt lat="42.631305" lon="0.453958">
        <ele>2211.000000</ele>
        <time>2021-09-04T11:47:41Z</time>
      </trkpt>
      <trkpt lat="42.631312" lon="0.453953">
        <ele>2211.000000</ele>
        <time>2021-09-04T11:47:42Z</time>
      </trkpt>
      <trkpt lat="42.631320" lon="0.453947">
        <ele>2212.000000</ele>
        <time>2021-09-04T11:47:43Z</time>
      </trkpt>
      <trkpt lat="42.631328" lon="0.453942">
        <ele>2212.000000</ele>
        <time>2021-09-04T11:47:44Z</time>
      </trkpt>
      <trkpt lat="42.631333" lon="0.453933">
        <ele>2212.000000</ele>
        <time>2021-09-04T11:47:45Z</time>
      </trkpt>
      <trkpt lat="42.631340" lon="0.453923">
        <ele>2212.000000</ele>
        <time>2021-09-04T11:47:46Z</time>
      </trkpt>
      <trkpt lat="42.631347" lon="0.453915">
        <ele>2212.000000</ele>
        <time>2021-09-04T11:47:47Z</time>
      </trkpt>
      <trkpt lat="42.631352" lon="0.453910">
        <ele>2212.000000</ele>
        <time>2021-09-04T11:47:48Z</time>
      </trkpt>
      <trkpt lat="42.631355" lon="0.453904">
        <ele>2212.000000</ele>
        <time>2021-09-04T11:47:49Z</time>
      </trkpt>
      <trkpt lat="42.631357" lon="0.453900">
        <ele>2212.000000</ele>
        <time>2021-09-04T11:47:50Z</time>
      </trkpt>
      <trkpt lat="42.631358" lon="0.453897">
        <ele>2212.000000</ele>
        <time>2021-09-04T11:47:51Z</time>
      </trkpt>
      <trkpt lat="42.631360" lon="0.453894">
        <ele>2212.000000</ele>
        <time>2021-09-04T11:47:52Z</time>
      </trkpt>
      <trkpt lat="42.631367" lon="0.453886">
        <ele>2212.000000</ele>
        <time>2021-09-04T11:47:53Z</time>
      </trkpt>
      <trkpt lat="42.631372" lon="0.453882">
        <ele>2212.000000</ele>
        <time>2021-09-04T11:47:54Z</time>
      </trkpt>
      <trkpt lat="42.631380" lon="0.453876">
        <ele>2212.000000</ele>
        <time>2021-09-04T11:47:55Z</time>
      </trkpt>
      <trkpt lat="42.631392" lon="0.453871">
        <ele>2212.000000</ele>
        <time>2021-09-04T11:47:56Z</time>
      </trkpt>
      <trkpt lat="42.631400" lon="0.453871">
        <ele>2212.000000</ele>
        <time>2021-09-04T11:47:57Z</time>
      </trkpt>
      <trkpt lat="42.631408" lon="0.453869">
        <ele>2212.000000</ele>
        <time>2021-09-04T11:47:58Z</time>
      </trkpt>
      <trkpt lat="42.631417" lon="0.453866">
        <ele>2213.000000</ele>
        <time>2021-09-04T11:47:59Z</time>
      </trkpt>
      <trkpt lat="42.631423" lon="0.453864">
        <ele>2213.000000</ele>
        <time>2021-09-04T11:48:00Z</time>
      </trkpt>
      <trkpt lat="42.631425" lon="0.453864">
        <ele>2213.000000</ele>
        <time>2021-09-04T11:48:01Z</time>
      </trkpt>
      <trkpt lat="42.631433" lon="0.453860">
        <ele>2213.000000</ele>
        <time>2021-09-04T11:48:02Z</time>
      </trkpt>
      <trkpt lat="42.631442" lon="0.453857">
        <ele>2213.000000</ele>
        <time>2021-09-04T11:48:03Z</time>
      </trkpt>
      <trkpt lat="42.631448" lon="0.453855">
        <ele>2213.000000</ele>
        <time>2021-09-04T11:48:04Z</time>
      </trkpt>
      <trkpt lat="42.631453" lon="0.453867">
        <ele>2213.000000</ele>
        <time>2021-09-04T11:48:05Z</time>
      </trkpt>
      <trkpt lat="42.631458" lon="0.453873">
        <ele>2213.000000</ele>
        <time>2021-09-04T11:48:06Z</time>
      </trkpt>
      <trkpt lat="42.631460" lon="0.453877">
        <ele>2214.000000</ele>
        <time>2021-09-04T11:48:07Z</time>
      </trkpt>
      <trkpt lat="42.631458" lon="0.453878">
        <ele>2214.000000</ele>
        <time>2021-09-04T11:48:08Z</time>
      </trkpt>
      <trkpt lat="42.631463" lon="0.453882">
        <ele>2214.000000</ele>
        <time>2021-09-04T11:48:09Z</time>
      </trkpt>
      <trkpt lat="42.631467" lon="0.453885">
        <ele>2214.000000</ele>
        <time>2021-09-04T11:48:10Z</time>
      </trkpt>
      <trkpt lat="42.631472" lon="0.453888">
        <ele>2214.000000</ele>
        <time>2021-09-04T11:48:11Z</time>
      </trkpt>
      <trkpt lat="42.631478" lon="0.453892">
        <ele>2215.000000</ele>
        <time>2021-09-04T11:48:12Z</time>
      </trkpt>
      <trkpt lat="42.631482" lon="0.453891">
        <ele>2215.000000</ele>
        <time>2021-09-04T11:48:13Z</time>
      </trkpt>
      <trkpt lat="42.631485" lon="0.453885">
        <ele>2215.000000</ele>
        <time>2021-09-04T11:48:14Z</time>
      </trkpt>
      <trkpt lat="42.631490" lon="0.453878">
        <ele>2215.000000</ele>
        <time>2021-09-04T11:48:15Z</time>
      </trkpt>
      <trkpt lat="42.631497" lon="0.453878">
        <ele>2215.000000</ele>
        <time>2021-09-04T11:48:16Z</time>
      </trkpt>
      <trkpt lat="42.631505" lon="0.453882">
        <ele>2215.000000</ele>
        <time>2021-09-04T11:48:17Z</time>
      </trkpt>
      <trkpt lat="42.631513" lon="0.453885">
        <ele>2215.000000</ele>
        <time>2021-09-04T11:48:18Z</time>
      </trkpt>
      <trkpt lat="42.631522" lon="0.453883">
        <ele>2215.000000</ele>
        <time>2021-09-04T11:48:19Z</time>
      </trkpt>
      <trkpt lat="42.631528" lon="0.453882">
        <ele>2216.000000</ele>
        <time>2021-09-04T11:48:20Z</time>
      </trkpt>
      <trkpt lat="42.631535" lon="0.453880">
        <ele>2216.000000</ele>
        <time>2021-09-04T11:48:21Z</time>
      </trkpt>
      <trkpt lat="42.631540" lon="0.453877">
        <ele>2216.000000</ele>
        <time>2021-09-04T11:48:22Z</time>
      </trkpt>
      <trkpt lat="42.631547" lon="0.453875">
        <ele>2216.000000</ele>
        <time>2021-09-04T11:48:23Z</time>
      </trkpt>
      <trkpt lat="42.631553" lon="0.453874">
        <ele>2216.000000</ele>
        <time>2021-09-04T11:48:24Z</time>
      </trkpt>
      <trkpt lat="42.631558" lon="0.453874">
        <ele>2216.000000</ele>
        <time>2021-09-04T11:48:25Z</time>
      </trkpt>
      <trkpt lat="42.631560" lon="0.453883">
        <ele>2216.000000</ele>
        <time>2021-09-04T11:48:26Z</time>
      </trkpt>
      <trkpt lat="42.631565" lon="0.453887">
        <ele>2216.000000</ele>
        <time>2021-09-04T11:48:27Z</time>
      </trkpt>
      <trkpt lat="42.631573" lon="0.453893">
        <ele>2216.000000</ele>
        <time>2021-09-04T11:48:28Z</time>
      </trkpt>
      <trkpt lat="42.631580" lon="0.453898">
        <ele>2217.000000</ele>
        <time>2021-09-04T11:48:29Z</time>
      </trkpt>
      <trkpt lat="42.631587" lon="0.453902">
        <ele>2217.000000</ele>
        <time>2021-09-04T11:48:30Z</time>
      </trkpt>
      <trkpt lat="42.631592" lon="0.453900">
        <ele>2217.000000</ele>
        <time>2021-09-04T11:48:32Z</time>
      </trkpt>
      <trkpt lat="42.631593" lon="0.453893">
        <ele>2217.000000</ele>
        <time>2021-09-04T11:48:33Z</time>
      </trkpt>
      <trkpt lat="42.631595" lon="0.453890">
        <ele>2217.000000</ele>
        <time>2021-09-04T11:48:34Z</time>
      </trkpt>
      <trkpt lat="42.631602" lon="0.453888">
        <ele>2217.000000</ele>
        <time>2021-09-04T11:48:35Z</time>
      </trkpt>
      <trkpt lat="42.631603" lon="0.453885">
        <ele>2217.000000</ele>
        <time>2021-09-04T11:48:36Z</time>
      </trkpt>
      <trkpt lat="42.631607" lon="0.453879">
        <ele>2217.000000</ele>
        <time>2021-09-04T11:48:37Z</time>
      </trkpt>
      <trkpt lat="42.631608" lon="0.453878">
        <ele>2217.000000</ele>
        <time>2021-09-04T11:48:38Z</time>
      </trkpt>
      <trkpt lat="42.631610" lon="0.453875">
        <ele>2217.000000</ele>
        <time>2021-09-04T11:48:39Z</time>
      </trkpt>
      <trkpt lat="42.631608" lon="0.453872">
        <ele>2217.000000</ele>
        <time>2021-09-04T11:48:40Z</time>
      </trkpt>
      <trkpt lat="42.631607" lon="0.453863">
        <ele>2217.000000</ele>
        <time>2021-09-04T11:48:41Z</time>
      </trkpt>
      <trkpt lat="42.631605" lon="0.453858">
        <ele>2217.000000</ele>
        <time>2021-09-04T11:48:42Z</time>
      </trkpt>
      <trkpt lat="42.631605" lon="0.453848">
        <ele>2217.000000</ele>
        <time>2021-09-04T11:48:43Z</time>
      </trkpt>
      <trkpt lat="42.631608" lon="0.453838">
        <ele>2217.000000</ele>
        <time>2021-09-04T11:48:44Z</time>
      </trkpt>
      <trkpt lat="42.631612" lon="0.453833">
        <ele>2217.000000</ele>
        <time>2021-09-04T11:48:45Z</time>
      </trkpt>
      <trkpt lat="42.631620" lon="0.453832">
        <ele>2217.000000</ele>
        <time>2021-09-04T11:48:46Z</time>
      </trkpt>
      <trkpt lat="42.631627" lon="0.453830">
        <ele>2217.000000</ele>
        <time>2021-09-04T11:48:47Z</time>
      </trkpt>
      <trkpt lat="42.631633" lon="0.453830">
        <ele>2217.000000</ele>
        <time>2021-09-04T11:48:48Z</time>
      </trkpt>
      <trkpt lat="42.631640" lon="0.453830">
        <ele>2217.000000</ele>
        <time>2021-09-04T11:48:49Z</time>
      </trkpt>
      <trkpt lat="42.631647" lon="0.453830">
        <ele>2217.000000</ele>
        <time>2021-09-04T11:48:50Z</time>
      </trkpt>
      <trkpt lat="42.631648" lon="0.453829">
        <ele>2217.000000</ele>
        <time>2021-09-04T11:48:51Z</time>
      </trkpt>
      <trkpt lat="42.631645" lon="0.453829">
        <ele>2218.000000</ele>
        <time>2021-09-04T11:48:57Z</time>
      </trkpt>
      <trkpt lat="42.631642" lon="0.453831">
        <ele>2219.000000</ele>
        <time>2021-09-04T11:48:58Z</time>
      </trkpt>
      <trkpt lat="42.631640" lon="0.453830">
        <ele>2219.000000</ele>
        <time>2021-09-04T11:48:59Z</time>
      </trkpt>
      <trkpt lat="42.631638" lon="0.453825">
        <ele>2219.000000</ele>
        <time>2021-09-04T11:49:00Z</time>
      </trkpt>
      <trkpt lat="42.631638" lon="0.453817">
        <ele>2219.000000</ele>
        <time>2021-09-04T11:49:01Z</time>
      </trkpt>
      <trkpt lat="42.631638" lon="0.453808">
        <ele>2219.000000</ele>
        <time>2021-09-04T11:49:02Z</time>
      </trkpt>
      <trkpt lat="42.631637" lon="0.453802">
        <ele>2219.000000</ele>
        <time>2021-09-04T11:49:03Z</time>
      </trkpt>
      <trkpt lat="42.631638" lon="0.453800">
        <ele>2219.000000</ele>
        <time>2021-09-04T11:49:04Z</time>
      </trkpt>
      <trkpt lat="42.631640" lon="0.453790">
        <ele>2219.000000</ele>
        <time>2021-09-04T11:49:05Z</time>
      </trkpt>
      <trkpt lat="42.631643" lon="0.453787">
        <ele>2219.000000</ele>
        <time>2021-09-04T11:49:06Z</time>
      </trkpt>
      <trkpt lat="42.631648" lon="0.453782">
        <ele>2219.000000</ele>
        <time>2021-09-04T11:49:07Z</time>
      </trkpt>
      <trkpt lat="42.631650" lon="0.453775">
        <ele>2220.000000</ele>
        <time>2021-09-04T11:49:08Z</time>
      </trkpt>
      <trkpt lat="42.631652" lon="0.453772">
        <ele>2220.000000</ele>
        <time>2021-09-04T11:49:09Z</time>
      </trkpt>
      <trkpt lat="42.631657" lon="0.453763">
        <ele>2220.000000</ele>
        <time>2021-09-04T11:49:10Z</time>
      </trkpt>
      <trkpt lat="42.631662" lon="0.453760">
        <ele>2220.000000</ele>
        <time>2021-09-04T11:49:11Z</time>
      </trkpt>
      <trkpt lat="42.631668" lon="0.453760">
        <ele>2220.000000</ele>
        <time>2021-09-04T11:49:12Z</time>
      </trkpt>
      <trkpt lat="42.631670" lon="0.453763">
        <ele>2220.000000</ele>
        <time>2021-09-04T11:49:13Z</time>
      </trkpt>
      <trkpt lat="42.631672" lon="0.453770">
        <ele>2220.000000</ele>
        <time>2021-09-04T11:49:14Z</time>
      </trkpt>
      <trkpt lat="42.631677" lon="0.453778">
        <ele>2220.000000</ele>
        <time>2021-09-04T11:49:15Z</time>
      </trkpt>
      <trkpt lat="42.631685" lon="0.453785">
        <ele>2220.000000</ele>
        <time>2021-09-04T11:49:16Z</time>
      </trkpt>
      <trkpt lat="42.631692" lon="0.453792">
        <ele>2221.000000</ele>
        <time>2021-09-04T11:49:17Z</time>
      </trkpt>
      <trkpt lat="42.631697" lon="0.453795">
        <ele>2221.000000</ele>
        <time>2021-09-04T11:49:18Z</time>
      </trkpt>
      <trkpt lat="42.631705" lon="0.453797">
        <ele>2221.000000</ele>
        <time>2021-09-04T11:49:19Z</time>
      </trkpt>
      <trkpt lat="42.631710" lon="0.453798">
        <ele>2221.000000</ele>
        <time>2021-09-04T11:49:20Z</time>
      </trkpt>
      <trkpt lat="42.631715" lon="0.453797">
        <ele>2221.000000</ele>
        <time>2021-09-04T11:49:21Z</time>
      </trkpt>
      <trkpt lat="42.631718" lon="0.453793">
        <ele>2221.000000</ele>
        <time>2021-09-04T11:49:22Z</time>
      </trkpt>
      <trkpt lat="42.631725" lon="0.453788">
        <ele>2222.000000</ele>
        <time>2021-09-04T11:49:23Z</time>
      </trkpt>
      <trkpt lat="42.631732" lon="0.453787">
        <ele>2222.000000</ele>
        <time>2021-09-04T11:49:24Z</time>
      </trkpt>
      <trkpt lat="42.631740" lon="0.453780">
        <ele>2222.000000</ele>
        <time>2021-09-04T11:49:25Z</time>
      </trkpt>
      <trkpt lat="42.631745" lon="0.453772">
        <ele>2222.000000</ele>
        <time>2021-09-04T11:49:26Z</time>
      </trkpt>
      <trkpt lat="42.631753" lon="0.453772">
        <ele>2222.000000</ele>
        <time>2021-09-04T11:49:27Z</time>
      </trkpt>
      <trkpt lat="42.631762" lon="0.453769">
        <ele>2222.000000</ele>
        <time>2021-09-04T11:49:28Z</time>
      </trkpt>
      <trkpt lat="42.631772" lon="0.453770">
        <ele>2222.000000</ele>
        <time>2021-09-04T11:49:29Z</time>
      </trkpt>
      <trkpt lat="42.631778" lon="0.453772">
        <ele>2222.000000</ele>
        <time>2021-09-04T11:49:30Z</time>
      </trkpt>
      <trkpt lat="42.631787" lon="0.453772">
        <ele>2222.000000</ele>
        <time>2021-09-04T11:49:31Z</time>
      </trkpt>
      <trkpt lat="42.631792" lon="0.453768">
        <ele>2223.000000</ele>
        <time>2021-09-04T11:49:32Z</time>
      </trkpt>
      <trkpt lat="42.631800" lon="0.453763">
        <ele>2223.000000</ele>
        <time>2021-09-04T11:49:33Z</time>
      </trkpt>
      <trkpt lat="42.631807" lon="0.453750">
        <ele>2223.000000</ele>
        <time>2021-09-04T11:49:34Z</time>
      </trkpt>
      <trkpt lat="42.631813" lon="0.453747">
        <ele>2223.000000</ele>
        <time>2021-09-04T11:49:35Z</time>
      </trkpt>
      <trkpt lat="42.631822" lon="0.453743">
        <ele>2223.000000</ele>
        <time>2021-09-04T11:49:36Z</time>
      </trkpt>
      <trkpt lat="42.631832" lon="0.453741">
        <ele>2223.000000</ele>
        <time>2021-09-04T11:49:37Z</time>
      </trkpt>
      <trkpt lat="42.631840" lon="0.453735">
        <ele>2223.000000</ele>
        <time>2021-09-04T11:49:38Z</time>
      </trkpt>
      <trkpt lat="42.631847" lon="0.453728">
        <ele>2223.000000</ele>
        <time>2021-09-04T11:49:39Z</time>
      </trkpt>
      <trkpt lat="42.631855" lon="0.453721">
        <ele>2223.000000</ele>
        <time>2021-09-04T11:49:40Z</time>
      </trkpt>
      <trkpt lat="42.631862" lon="0.453715">
        <ele>2223.000000</ele>
        <time>2021-09-04T11:49:41Z</time>
      </trkpt>
      <trkpt lat="42.631865" lon="0.453710">
        <ele>2223.000000</ele>
        <time>2021-09-04T11:49:42Z</time>
      </trkpt>
      <trkpt lat="42.631868" lon="0.453702">
        <ele>2224.000000</ele>
        <time>2021-09-04T11:49:43Z</time>
      </trkpt>
      <trkpt lat="42.631873" lon="0.453697">
        <ele>2224.000000</ele>
        <time>2021-09-04T11:49:44Z</time>
      </trkpt>
      <trkpt lat="42.631878" lon="0.453695">
        <ele>2224.000000</ele>
        <time>2021-09-04T11:49:45Z</time>
      </trkpt>
      <trkpt lat="42.631884" lon="0.453683">
        <ele>2224.000000</ele>
        <time>2021-09-04T11:49:46Z</time>
      </trkpt>
      <trkpt lat="42.631891" lon="0.453672">
        <ele>2224.000000</ele>
        <time>2021-09-04T11:49:47Z</time>
      </trkpt>
      <trkpt lat="42.631897" lon="0.453662">
        <ele>2224.000000</ele>
        <time>2021-09-04T11:49:48Z</time>
      </trkpt>
      <trkpt lat="42.631902" lon="0.453648">
        <ele>2224.000000</ele>
        <time>2021-09-04T11:49:49Z</time>
      </trkpt>
      <trkpt lat="42.631908" lon="0.453647">
        <ele>2224.000000</ele>
        <time>2021-09-04T11:49:50Z</time>
      </trkpt>
      <trkpt lat="42.631917" lon="0.453640">
        <ele>2224.000000</ele>
        <time>2021-09-04T11:49:51Z</time>
      </trkpt>
      <trkpt lat="42.631925" lon="0.453632">
        <ele>2224.000000</ele>
        <time>2021-09-04T11:49:52Z</time>
      </trkpt>
      <trkpt lat="42.631937" lon="0.453625">
        <ele>2224.000000</ele>
        <time>2021-09-04T11:49:53Z</time>
      </trkpt>
      <trkpt lat="42.631945" lon="0.453622">
        <ele>2224.000000</ele>
        <time>2021-09-04T11:49:54Z</time>
      </trkpt>
      <trkpt lat="42.631953" lon="0.453617">
        <ele>2224.000000</ele>
        <time>2021-09-04T11:49:55Z</time>
      </trkpt>
      <trkpt lat="42.631962" lon="0.453613">
        <ele>2224.000000</ele>
        <time>2021-09-04T11:49:56Z</time>
      </trkpt>
      <trkpt lat="42.631967" lon="0.453609">
        <ele>2224.000000</ele>
        <time>2021-09-04T11:49:57Z</time>
      </trkpt>
      <trkpt lat="42.631972" lon="0.453603">
        <ele>2224.000000</ele>
        <time>2021-09-04T11:49:58Z</time>
      </trkpt>
      <trkpt lat="42.631978" lon="0.453597">
        <ele>2224.000000</ele>
        <time>2021-09-04T11:49:59Z</time>
      </trkpt>
      <trkpt lat="42.631987" lon="0.453588">
        <ele>2224.000000</ele>
        <time>2021-09-04T11:50:00Z</time>
      </trkpt>
      <trkpt lat="42.631995" lon="0.453580">
        <ele>2224.000000</ele>
        <time>2021-09-04T11:50:01Z</time>
      </trkpt>
      <trkpt lat="42.632002" lon="0.453573">
        <ele>2224.000000</ele>
        <time>2021-09-04T11:50:02Z</time>
      </trkpt>
      <trkpt lat="42.632010" lon="0.453567">
        <ele>2224.000000</ele>
        <time>2021-09-04T11:50:03Z</time>
      </trkpt>
      <trkpt lat="42.632017" lon="0.453565">
        <ele>2224.000000</ele>
        <time>2021-09-04T11:50:04Z</time>
      </trkpt>
      <trkpt lat="42.632020" lon="0.453563">
        <ele>2224.000000</ele>
        <time>2021-09-04T11:50:05Z</time>
      </trkpt>
      <trkpt lat="42.632023" lon="0.453560">
        <ele>2224.000000</ele>
        <time>2021-09-04T11:50:06Z</time>
      </trkpt>
      <trkpt lat="42.632030" lon="0.453555">
        <ele>2224.000000</ele>
        <time>2021-09-04T11:50:07Z</time>
      </trkpt>
      <trkpt lat="42.632038" lon="0.453551">
        <ele>2224.000000</ele>
        <time>2021-09-04T11:50:08Z</time>
      </trkpt>
      <trkpt lat="42.632047" lon="0.453547">
        <ele>2224.000000</ele>
        <time>2021-09-04T11:50:09Z</time>
      </trkpt>
      <trkpt lat="42.632055" lon="0.453565">
        <ele>2224.000000</ele>
        <time>2021-09-04T11:50:10Z</time>
      </trkpt>
      <trkpt lat="42.632063" lon="0.453565">
        <ele>2224.000000</ele>
        <time>2021-09-04T11:50:11Z</time>
      </trkpt>
      <trkpt lat="42.632070" lon="0.453565">
        <ele>2224.000000</ele>
        <time>2021-09-04T11:50:12Z</time>
      </trkpt>
      <trkpt lat="42.632078" lon="0.453562">
        <ele>2224.000000</ele>
        <time>2021-09-04T11:50:13Z</time>
      </trkpt>
      <trkpt lat="42.632083" lon="0.453562">
        <ele>2224.000000</ele>
        <time>2021-09-04T11:50:14Z</time>
      </trkpt>
      <trkpt lat="42.632087" lon="0.453561">
        <ele>2224.000000</ele>
        <time>2021-09-04T11:50:15Z</time>
      </trkpt>
      <trkpt lat="42.632090" lon="0.453562">
        <ele>2224.000000</ele>
        <time>2021-09-04T11:50:16Z</time>
      </trkpt>
      <trkpt lat="42.632100" lon="0.453562">
        <ele>2224.000000</ele>
        <time>2021-09-04T11:50:17Z</time>
      </trkpt>
      <trkpt lat="42.632108" lon="0.453565">
        <ele>2224.000000</ele>
        <time>2021-09-04T11:50:18Z</time>
      </trkpt>
      <trkpt lat="42.632117" lon="0.453569">
        <ele>2224.000000</ele>
        <time>2021-09-04T11:50:19Z</time>
      </trkpt>
      <trkpt lat="42.632127" lon="0.453573">
        <ele>2224.000000</ele>
        <time>2021-09-04T11:50:20Z</time>
      </trkpt>
      <trkpt lat="42.632132" lon="0.453576">
        <ele>2224.000000</ele>
        <time>2021-09-04T11:50:21Z</time>
      </trkpt>
      <trkpt lat="42.632137" lon="0.453578">
        <ele>2224.000000</ele>
        <time>2021-09-04T11:50:22Z</time>
      </trkpt>
      <trkpt lat="42.632142" lon="0.453580">
        <ele>2224.000000</ele>
        <time>2021-09-04T11:50:23Z</time>
      </trkpt>
      <trkpt lat="42.632147" lon="0.453581">
        <ele>2224.000000</ele>
        <time>2021-09-04T11:50:24Z</time>
      </trkpt>
      <trkpt lat="42.632150" lon="0.453583">
        <ele>2224.000000</ele>
        <time>2021-09-04T11:50:25Z</time>
      </trkpt>
      <trkpt lat="42.632157" lon="0.453587">
        <ele>2224.000000</ele>
        <time>2021-09-04T11:50:26Z</time>
      </trkpt>
      <trkpt lat="42.632163" lon="0.453592">
        <ele>2224.000000</ele>
        <time>2021-09-04T11:50:27Z</time>
      </trkpt>
      <trkpt lat="42.632167" lon="0.453592">
        <ele>2224.000000</ele>
        <time>2021-09-04T11:50:28Z</time>
      </trkpt>
      <trkpt lat="42.632163" lon="0.453590">
        <ele>2224.000000</ele>
        <time>2021-09-04T11:50:29Z</time>
      </trkpt>
      <trkpt lat="42.632162" lon="0.453589">
        <ele>2224.000000</ele>
        <time>2021-09-04T11:50:30Z</time>
      </trkpt>
      <trkpt lat="42.632158" lon="0.453586">
        <ele>2224.000000</ele>
        <time>2021-09-04T11:50:31Z</time>
      </trkpt>
      <trkpt lat="42.632153" lon="0.453582">
        <ele>2224.000000</ele>
        <time>2021-09-04T11:50:32Z</time>
      </trkpt>
      <trkpt lat="42.632150" lon="0.453578">
        <ele>2224.000000</ele>
        <time>2021-09-04T11:50:33Z</time>
      </trkpt>
      <trkpt lat="42.632145" lon="0.453573">
        <ele>2226.000000</ele>
        <time>2021-09-04T11:50:34Z</time>
      </trkpt>
      <trkpt lat="42.632143" lon="0.453571">
        <ele>2226.000000</ele>
        <time>2021-09-04T11:50:35Z</time>
      </trkpt>
      <trkpt lat="42.632140" lon="0.453567">
        <ele>2226.000000</ele>
        <time>2021-09-04T11:50:36Z</time>
      </trkpt>
      <trkpt lat="42.632140" lon="0.453562">
        <ele>2226.000000</ele>
        <time>2021-09-04T11:50:37Z</time>
      </trkpt>
      <trkpt lat="42.632138" lon="0.453553">
        <ele>2226.000000</ele>
        <time>2021-09-04T11:50:38Z</time>
      </trkpt>
      <trkpt lat="42.632142" lon="0.453548">
        <ele>2226.000000</ele>
        <time>2021-09-04T11:50:39Z</time>
      </trkpt>
      <trkpt lat="42.632145" lon="0.453545">
        <ele>2227.000000</ele>
        <time>2021-09-04T11:50:40Z</time>
      </trkpt>
      <trkpt lat="42.632150" lon="0.453545">
        <ele>2227.000000</ele>
        <time>2021-09-04T11:50:41Z</time>
      </trkpt>
      <trkpt lat="42.632157" lon="0.453545">
        <ele>2227.000000</ele>
        <time>2021-09-04T11:50:42Z</time>
      </trkpt>
      <trkpt lat="42.632162" lon="0.453542">
        <ele>2227.000000</ele>
        <time>2021-09-04T11:50:43Z</time>
      </trkpt>
      <trkpt lat="42.632170" lon="0.453543">
        <ele>2227.000000</ele>
        <time>2021-09-04T11:50:44Z</time>
      </trkpt>
      <trkpt lat="42.632175" lon="0.453543">
        <ele>2227.000000</ele>
        <time>2021-09-04T11:50:45Z</time>
      </trkpt>
      <trkpt lat="42.632182" lon="0.453547">
        <ele>2228.000000</ele>
        <time>2021-09-04T11:50:46Z</time>
      </trkpt>
      <trkpt lat="42.632190" lon="0.453547">
        <ele>2228.000000</ele>
        <time>2021-09-04T11:50:47Z</time>
      </trkpt>
      <trkpt lat="42.632198" lon="0.453550">
        <ele>2228.000000</ele>
        <time>2021-09-04T11:50:48Z</time>
      </trkpt>
      <trkpt lat="42.632205" lon="0.453547">
        <ele>2228.000000</ele>
        <time>2021-09-04T11:50:49Z</time>
      </trkpt>
      <trkpt lat="42.632208" lon="0.453544">
        <ele>2228.000000</ele>
        <time>2021-09-04T11:50:50Z</time>
      </trkpt>
      <trkpt lat="42.632207" lon="0.453540">
        <ele>2229.000000</ele>
        <time>2021-09-04T11:50:55Z</time>
      </trkpt>
      <trkpt lat="42.632208" lon="0.453542">
        <ele>2229.000000</ele>
        <time>2021-09-04T11:50:56Z</time>
      </trkpt>
      <trkpt lat="42.632210" lon="0.453543">
        <ele>2230.000000</ele>
        <time>2021-09-04T11:50:57Z</time>
      </trkpt>
      <trkpt lat="42.632215" lon="0.453544">
        <ele>2230.000000</ele>
        <time>2021-09-04T11:50:58Z</time>
      </trkpt>
      <trkpt lat="42.632218" lon="0.453542">
        <ele>2230.000000</ele>
        <time>2021-09-04T11:50:59Z</time>
      </trkpt>
      <trkpt lat="42.632223" lon="0.453541">
        <ele>2230.000000</ele>
        <time>2021-09-04T11:51:00Z</time>
      </trkpt>
      <trkpt lat="42.632228" lon="0.453537">
        <ele>2230.000000</ele>
        <time>2021-09-04T11:51:01Z</time>
      </trkpt>
      <trkpt lat="42.632233" lon="0.453534">
        <ele>2230.000000</ele>
        <time>2021-09-04T11:51:02Z</time>
      </trkpt>
      <trkpt lat="42.632238" lon="0.453533">
        <ele>2230.000000</ele>
        <time>2021-09-04T11:51:03Z</time>
      </trkpt>
      <trkpt lat="42.632243" lon="0.453532">
        <ele>2230.000000</ele>
        <time>2021-09-04T11:51:04Z</time>
      </trkpt>
      <trkpt lat="42.632250" lon="0.453532">
        <ele>2230.000000</ele>
        <time>2021-09-04T11:51:05Z</time>
      </trkpt>
      <trkpt lat="42.632258" lon="0.453530">
        <ele>2230.000000</ele>
        <time>2021-09-04T11:51:06Z</time>
      </trkpt>
      <trkpt lat="42.632263" lon="0.453528">
        <ele>2230.000000</ele>
        <time>2021-09-04T11:51:07Z</time>
      </trkpt>
      <trkpt lat="42.632270" lon="0.453528">
        <ele>2230.000000</ele>
        <time>2021-09-04T11:51:08Z</time>
      </trkpt>
      <trkpt lat="42.632278" lon="0.453527">
        <ele>2230.000000</ele>
        <time>2021-09-04T11:51:08Z</time>
      </trkpt>
      <trkpt lat="42.632285" lon="0.453525">
        <ele>2230.000000</ele>
        <time>2021-09-04T11:51:09Z</time>
      </trkpt>
      <trkpt lat="42.632295" lon="0.453524">
        <ele>2230.000000</ele>
        <time>2021-09-04T11:51:10Z</time>
      </trkpt>
      <trkpt lat="42.632305" lon="0.453524">
        <ele>2230.000000</ele>
        <time>2021-09-04T11:51:11Z</time>
      </trkpt>
      <trkpt lat="42.632310" lon="0.453523">
        <ele>2230.000000</ele>
        <time>2021-09-04T11:51:12Z</time>
      </trkpt>
      <trkpt lat="42.632315" lon="0.453522">
        <ele>2230.000000</ele>
        <time>2021-09-04T11:51:13Z</time>
      </trkpt>
      <trkpt lat="42.632320" lon="0.453523">
        <ele>2230.000000</ele>
        <time>2021-09-04T11:51:14Z</time>
      </trkpt>
      <trkpt lat="42.632328" lon="0.453523">
        <ele>2230.000000</ele>
        <time>2021-09-04T11:51:15Z</time>
      </trkpt>
      <trkpt lat="42.632335" lon="0.453523">
        <ele>2230.000000</ele>
        <time>2021-09-04T11:51:16Z</time>
      </trkpt>
      <trkpt lat="42.632340" lon="0.453522">
        <ele>2230.000000</ele>
        <time>2021-09-04T11:51:17Z</time>
      </trkpt>
      <trkpt lat="42.632347" lon="0.453520">
        <ele>2230.000000</ele>
        <time>2021-09-04T11:51:18Z</time>
      </trkpt>
      <trkpt lat="42.632353" lon="0.453519">
        <ele>2230.000000</ele>
        <time>2021-09-04T11:51:19Z</time>
      </trkpt>
      <trkpt lat="42.632355" lon="0.453519">
        <ele>2230.000000</ele>
        <time>2021-09-04T11:51:20Z</time>
      </trkpt>
      <trkpt lat="42.632358" lon="0.453519">
        <ele>2230.000000</ele>
        <time>2021-09-04T11:51:21Z</time>
      </trkpt>
      <trkpt lat="42.632362" lon="0.453519">
        <ele>2230.000000</ele>
        <time>2021-09-04T11:51:22Z</time>
      </trkpt>
      <trkpt lat="42.632365" lon="0.453519">
        <ele>2230.000000</ele>
        <time>2021-09-04T11:51:23Z</time>
      </trkpt>
      <trkpt lat="42.632370" lon="0.453518">
        <ele>2230.000000</ele>
        <time>2021-09-04T11:51:24Z</time>
      </trkpt>
      <trkpt lat="42.632375" lon="0.453519">
        <ele>2230.000000</ele>
        <time>2021-09-04T11:51:25Z</time>
      </trkpt>
      <trkpt lat="42.632380" lon="0.453518">
        <ele>2230.000000</ele>
        <time>2021-09-04T11:51:27Z</time>
      </trkpt>
      <trkpt lat="42.632383" lon="0.453519">
        <ele>2230.000000</ele>
        <time>2021-09-04T11:51:28Z</time>
      </trkpt>
      <trkpt lat="42.632387" lon="0.453518">
        <ele>2230.000000</ele>
        <time>2021-09-04T11:51:29Z</time>
      </trkpt>
      <trkpt lat="42.632387" lon="0.453518">
        <ele>2231.000000</ele>
        <time>2021-09-04T11:51:30Z</time>
      </trkpt>
      <trkpt lat="42.632390" lon="0.453507">
        <ele>2231.000000</ele>
        <time>2021-09-04T11:51:32Z</time>
      </trkpt>
      <trkpt lat="42.632393" lon="0.453503">
        <ele>2231.000000</ele>
        <time>2021-09-04T11:51:33Z</time>
      </trkpt>
      <trkpt lat="42.632397" lon="0.453503">
        <ele>2231.000000</ele>
        <time>2021-09-04T11:51:34Z</time>
      </trkpt>
      <trkpt lat="42.632400" lon="0.453502">
        <ele>2231.000000</ele>
        <time>2021-09-04T11:51:35Z</time>
      </trkpt>
      <trkpt lat="42.632405" lon="0.453500">
        <ele>2232.000000</ele>
        <time>2021-09-04T11:51:36Z</time>
      </trkpt>
      <trkpt lat="42.632413" lon="0.453497">
        <ele>2232.000000</ele>
        <time>2021-09-04T11:51:37Z</time>
      </trkpt>
      <trkpt lat="42.632417" lon="0.453493">
        <ele>2232.000000</ele>
        <time>2021-09-04T11:51:38Z</time>
      </trkpt>
      <trkpt lat="42.632420" lon="0.453489">
        <ele>2232.000000</ele>
        <time>2021-09-04T11:51:39Z</time>
      </trkpt>
      <trkpt lat="42.632422" lon="0.453486">
        <ele>2232.000000</ele>
        <time>2021-09-04T11:51:40Z</time>
      </trkpt>
      <trkpt lat="42.632423" lon="0.453480">
        <ele>2232.000000</ele>
        <time>2021-09-04T11:51:41Z</time>
      </trkpt>
      <trkpt lat="42.632425" lon="0.453463">
        <ele>2232.000000</ele>
        <time>2021-09-04T11:51:42Z</time>
      </trkpt>
      <trkpt lat="42.632423" lon="0.453458">
        <ele>2232.000000</ele>
        <time>2021-09-04T11:51:43Z</time>
      </trkpt>
      <trkpt lat="42.632427" lon="0.453455">
        <ele>2232.000000</ele>
        <time>2021-09-04T11:51:44Z</time>
      </trkpt>
      <trkpt lat="42.632432" lon="0.453457">
        <ele>2232.000000</ele>
        <time>2021-09-04T11:51:45Z</time>
      </trkpt>
      <trkpt lat="42.632433" lon="0.453453">
        <ele>2232.000000</ele>
        <time>2021-09-04T11:51:46Z</time>
      </trkpt>
      <trkpt lat="42.632435" lon="0.453452">
        <ele>2233.000000</ele>
        <time>2021-09-04T11:51:50Z</time>
      </trkpt>
      <trkpt lat="42.632433" lon="0.453449">
        <ele>2234.000000</ele>
        <time>2021-09-04T11:51:52Z</time>
      </trkpt>
      <trkpt lat="42.632430" lon="0.453443">
        <ele>2234.000000</ele>
        <time>2021-09-04T11:51:53Z</time>
      </trkpt>
      <trkpt lat="42.632427" lon="0.453436">
        <ele>2234.000000</ele>
        <time>2021-09-04T11:51:54Z</time>
      </trkpt>
      <trkpt lat="42.632427" lon="0.453430">
        <ele>2234.000000</ele>
        <time>2021-09-04T11:51:55Z</time>
      </trkpt>
      <trkpt lat="42.632423" lon="0.453427">
        <ele>2235.000000</ele>
        <time>2021-09-04T11:51:56Z</time>
      </trkpt>
      <trkpt lat="42.632420" lon="0.453423">
        <ele>2235.000000</ele>
        <time>2021-09-04T11:51:57Z</time>
      </trkpt>
      <trkpt lat="42.632413" lon="0.453413">
        <ele>2235.000000</ele>
        <time>2021-09-04T11:51:58Z</time>
      </trkpt>
      <trkpt lat="42.632405" lon="0.453405">
        <ele>2235.000000</ele>
        <time>2021-09-04T11:51:59Z</time>
      </trkpt>
      <trkpt lat="42.632398" lon="0.453397">
        <ele>2235.000000</ele>
        <time>2021-09-04T11:52:00Z</time>
      </trkpt>
      <trkpt lat="42.632392" lon="0.453387">
        <ele>2236.000000</ele>
        <time>2021-09-04T11:52:01Z</time>
      </trkpt>
      <trkpt lat="42.632390" lon="0.453383">
        <ele>2236.000000</ele>
        <time>2021-09-04T11:52:02Z</time>
      </trkpt>
      <trkpt lat="42.632386" lon="0.453378">
        <ele>2236.000000</ele>
        <time>2021-09-04T11:52:03Z</time>
      </trkpt>
      <trkpt lat="42.632385" lon="0.453375">
        <ele>2236.000000</ele>
        <time>2021-09-04T11:52:04Z</time>
      </trkpt>
      <trkpt lat="42.632381" lon="0.453368">
        <ele>2236.000000</ele>
        <time>2021-09-04T11:52:05Z</time>
      </trkpt>
      <trkpt lat="42.632388" lon="0.453362">
        <ele>2237.000000</ele>
        <time>2021-09-04T11:52:06Z</time>
      </trkpt>
      <trkpt lat="42.632388" lon="0.453355">
        <ele>2237.000000</ele>
        <time>2021-09-04T11:52:07Z</time>
      </trkpt>
      <trkpt lat="42.632390" lon="0.453345">
        <ele>2237.000000</ele>
        <time>2021-09-04T11:52:08Z</time>
      </trkpt>
      <trkpt lat="42.632392" lon="0.453338">
        <ele>2237.000000</ele>
        <time>2021-09-04T11:52:09Z</time>
      </trkpt>
      <trkpt lat="42.632395" lon="0.453335">
        <ele>2237.000000</ele>
        <time>2021-09-04T11:52:10Z</time>
      </trkpt>
      <trkpt lat="42.632397" lon="0.453333">
        <ele>2237.000000</ele>
        <time>2021-09-04T11:52:11Z</time>
      </trkpt>
      <trkpt lat="42.632400" lon="0.453327">
        <ele>2237.000000</ele>
        <time>2021-09-04T11:52:12Z</time>
      </trkpt>
      <trkpt lat="42.632403" lon="0.453320">
        <ele>2237.000000</ele>
        <time>2021-09-04T11:52:13Z</time>
      </trkpt>
      <trkpt lat="42.632406" lon="0.453317">
        <ele>2237.000000</ele>
        <time>2021-09-04T11:52:14Z</time>
      </trkpt>
      <trkpt lat="42.632408" lon="0.453312">
        <ele>2237.000000</ele>
        <time>2021-09-04T11:52:15Z</time>
      </trkpt>
      <trkpt lat="42.632410" lon="0.453303">
        <ele>2237.000000</ele>
        <time>2021-09-04T11:52:16Z</time>
      </trkpt>
      <trkpt lat="42.632411" lon="0.453293">
        <ele>2237.000000</ele>
        <time>2021-09-04T11:52:17Z</time>
      </trkpt>
      <trkpt lat="42.632411" lon="0.453288">
        <ele>2237.000000</ele>
        <time>2021-09-04T11:52:18Z</time>
      </trkpt>
      <trkpt lat="42.632411" lon="0.453283">
        <ele>2238.000000</ele>
        <time>2021-09-04T11:52:19Z</time>
      </trkpt>
      <trkpt lat="42.632411" lon="0.453275">
        <ele>2238.000000</ele>
        <time>2021-09-04T11:52:20Z</time>
      </trkpt>
      <trkpt lat="42.632408" lon="0.453272">
        <ele>2238.000000</ele>
        <time>2021-09-04T11:52:21Z</time>
      </trkpt>
      <trkpt lat="42.632407" lon="0.453270">
        <ele>2238.000000</ele>
        <time>2021-09-04T11:52:22Z</time>
      </trkpt>
      <trkpt lat="42.632408" lon="0.453272">
        <ele>2239.000000</ele>
        <time>2021-09-04T11:52:23Z</time>
      </trkpt>
      <trkpt lat="42.632408" lon="0.453275">
        <ele>2239.000000</ele>
        <time>2021-09-04T11:52:28Z</time>
      </trkpt>
      <trkpt lat="42.632558" lon="0.453137">
        <ele>2244.000000</ele>
        <time>2021-09-04T11:53:05Z</time>
      </trkpt>
      <trkpt lat="42.632563" lon="0.453133">
        <ele>2244.000000</ele>
        <time>2021-09-04T11:53:06Z</time>
      </trkpt>
      <trkpt lat="42.632567" lon="0.453123">
        <ele>2244.000000</ele>
        <time>2021-09-04T11:53:07Z</time>
      </trkpt>
      <trkpt lat="42.632570" lon="0.453116">
        <ele>2244.000000</ele>
        <time>2021-09-04T11:53:08Z</time>
      </trkpt>
      <trkpt lat="42.632573" lon="0.453110">
        <ele>2244.000000</ele>
        <time>2021-09-04T11:53:09Z</time>
      </trkpt>
      <trkpt lat="42.632575" lon="0.453107">
        <ele>2245.000000</ele>
        <time>2021-09-04T11:53:10Z</time>
      </trkpt>
      <trkpt lat="42.632575" lon="0.453098">
        <ele>2245.000000</ele>
        <time>2021-09-04T11:53:11Z</time>
      </trkpt>
      <trkpt lat="42.632578" lon="0.453095">
        <ele>2245.000000</ele>
        <time>2021-09-04T11:53:12Z</time>
      </trkpt>
      <trkpt lat="42.632578" lon="0.453090">
        <ele>2245.000000</ele>
        <time>2021-09-04T11:53:13Z</time>
      </trkpt>
      <trkpt lat="42.632583" lon="0.453078">
        <ele>2246.000000</ele>
        <time>2021-09-04T11:53:15Z</time>
      </trkpt>
      <trkpt lat="42.632588" lon="0.453073">
        <ele>2246.000000</ele>
        <time>2021-09-04T11:53:16Z</time>
      </trkpt>
      <trkpt lat="42.632594" lon="0.453062">
        <ele>2246.000000</ele>
        <time>2021-09-04T11:53:17Z</time>
      </trkpt>
      <trkpt lat="42.632598" lon="0.453050">
        <ele>2246.000000</ele>
        <time>2021-09-04T11:53:18Z</time>
      </trkpt>
      <trkpt lat="42.632601" lon="0.453038">
        <ele>2246.000000</ele>
        <time>2021-09-04T11:53:19Z</time>
      </trkpt>
      <trkpt lat="42.632604" lon="0.453032">
        <ele>2246.000000</ele>
        <time>2021-09-04T11:53:20Z</time>
      </trkpt>
      <trkpt lat="42.632607" lon="0.453022">
        <ele>2246.000000</ele>
        <time>2021-09-04T11:53:21Z</time>
      </trkpt>
      <trkpt lat="42.632609" lon="0.453017">
        <ele>2246.000000</ele>
        <time>2021-09-04T11:53:22Z</time>
      </trkpt>
      <trkpt lat="42.632612" lon="0.453007">
        <ele>2247.000000</ele>
        <time>2021-09-04T11:53:23Z</time>
      </trkpt>
      <trkpt lat="42.632614" lon="0.453000">
        <ele>2247.000000</ele>
        <time>2021-09-04T11:53:24Z</time>
      </trkpt>
      <trkpt lat="42.632615" lon="0.452995">
        <ele>2247.000000</ele>
        <time>2021-09-04T11:53:25Z</time>
      </trkpt>
      <trkpt lat="42.632617" lon="0.452993">
        <ele>2247.000000</ele>
        <time>2021-09-04T11:53:26Z</time>
      </trkpt>
      <trkpt lat="42.632628" lon="0.452990">
        <ele>2247.000000</ele>
        <time>2021-09-04T11:53:27Z</time>
      </trkpt>
      <trkpt lat="42.632633" lon="0.452987">
        <ele>2247.000000</ele>
        <time>2021-09-04T11:53:28Z</time>
      </trkpt>
      <trkpt lat="42.632638" lon="0.452985">
        <ele>2247.000000</ele>
        <time>2021-09-04T11:53:29Z</time>
      </trkpt>
      <trkpt lat="42.632643" lon="0.452986">
        <ele>2247.000000</ele>
        <time>2021-09-04T11:53:30Z</time>
      </trkpt>
      <trkpt lat="42.632645" lon="0.452988">
        <ele>2247.000000</ele>
        <time>2021-09-04T11:53:31Z</time>
      </trkpt>
      <trkpt lat="42.632648" lon="0.452993">
        <ele>2247.000000</ele>
        <time>2021-09-04T11:53:32Z</time>
      </trkpt>
      <trkpt lat="42.632653" lon="0.452997">
        <ele>2248.000000</ele>
        <time>2021-09-04T11:53:33Z</time>
      </trkpt>
      <trkpt lat="42.632658" lon="0.453000">
        <ele>2248.000000</ele>
        <time>2021-09-04T11:53:34Z</time>
      </trkpt>
      <trkpt lat="42.632667" lon="0.453000">
        <ele>2248.000000</ele>
        <time>2021-09-04T11:53:35Z</time>
      </trkpt>
      <trkpt lat="42.632680" lon="0.453003">
        <ele>2248.000000</ele>
        <time>2021-09-04T11:53:36Z</time>
      </trkpt>
      <trkpt lat="42.632690" lon="0.453005">
        <ele>2248.000000</ele>
        <time>2021-09-04T11:53:37Z</time>
      </trkpt>
      <trkpt lat="42.632698" lon="0.453007">
        <ele>2248.000000</ele>
        <time>2021-09-04T11:53:38Z</time>
      </trkpt>
      <trkpt lat="42.632702" lon="0.453005">
        <ele>2248.000000</ele>
        <time>2021-09-04T11:53:39Z</time>
      </trkpt>
      <trkpt lat="42.632708" lon="0.453000">
        <ele>2248.000000</ele>
        <time>2021-09-04T11:53:40Z</time>
      </trkpt>
      <trkpt lat="42.632717" lon="0.452993">
        <ele>2248.000000</ele>
        <time>2021-09-04T11:53:41Z</time>
      </trkpt>
      <trkpt lat="42.632728" lon="0.452990">
        <ele>2248.000000</ele>
        <time>2021-09-04T11:53:42Z</time>
      </trkpt>
      <trkpt lat="42.632738" lon="0.452982">
        <ele>2248.000000</ele>
        <time>2021-09-04T11:53:43Z</time>
      </trkpt>
      <trkpt lat="42.632748" lon="0.452978">
        <ele>2248.000000</ele>
        <time>2021-09-04T11:53:44Z</time>
      </trkpt>
      <trkpt lat="42.632757" lon="0.452978">
        <ele>2248.000000</ele>
        <time>2021-09-04T11:53:45Z</time>
      </trkpt>
      <trkpt lat="42.632765" lon="0.452979">
        <ele>2248.000000</ele>
        <time>2021-09-04T11:53:46Z</time>
      </trkpt>
      <trkpt lat="42.632770" lon="0.452978">
        <ele>2248.000000</ele>
        <time>2021-09-04T11:53:47Z</time>
      </trkpt>
      <trkpt lat="42.632773" lon="0.452977">
        <ele>2248.000000</ele>
        <time>2021-09-04T11:53:48Z</time>
      </trkpt>
      <trkpt lat="42.632778" lon="0.452975">
        <ele>2248.000000</ele>
        <time>2021-09-04T11:53:49Z</time>
      </trkpt>
      <trkpt lat="42.632782" lon="0.452973">
        <ele>2248.000000</ele>
        <time>2021-09-04T11:53:50Z</time>
      </trkpt>
      <trkpt lat="42.632785" lon="0.452962">
        <ele>2248.000000</ele>
        <time>2021-09-04T11:53:51Z</time>
      </trkpt>
      <trkpt lat="42.632783" lon="0.452952">
        <ele>2248.000000</ele>
        <time>2021-09-04T11:53:52Z</time>
      </trkpt>
      <trkpt lat="42.632785" lon="0.452943">
        <ele>2248.000000</ele>
        <time>2021-09-04T11:53:53Z</time>
      </trkpt>
      <trkpt lat="42.632787" lon="0.452935">
        <ele>2248.000000</ele>
        <time>2021-09-04T11:53:54Z</time>
      </trkpt>
      <trkpt lat="42.632790" lon="0.452930">
        <ele>2248.000000</ele>
        <time>2021-09-04T11:53:55Z</time>
      </trkpt>
      <trkpt lat="42.632790" lon="0.452922">
        <ele>2248.000000</ele>
        <time>2021-09-04T11:53:56Z</time>
      </trkpt>
      <trkpt lat="42.632790" lon="0.452915">
        <ele>2249.000000</ele>
        <time>2021-09-04T11:53:57Z</time>
      </trkpt>
      <trkpt lat="42.632791" lon="0.452908">
        <ele>2249.000000</ele>
        <time>2021-09-04T11:53:58Z</time>
      </trkpt>
      <trkpt lat="42.632796" lon="0.452903">
        <ele>2249.000000</ele>
        <time>2021-09-04T11:53:59Z</time>
      </trkpt>
      <trkpt lat="42.632802" lon="0.452895">
        <ele>2249.000000</ele>
        <time>2021-09-04T11:54:00Z</time>
      </trkpt>
      <trkpt lat="42.632807" lon="0.452888">
        <ele>2249.000000</ele>
        <time>2021-09-04T11:54:01Z</time>
      </trkpt>
      <trkpt lat="42.632809" lon="0.452885">
        <ele>2249.000000</ele>
        <time>2021-09-04T11:54:02Z</time>
      </trkpt>
      <trkpt lat="42.632811" lon="0.452882">
        <ele>2250.000000</ele>
        <time>2021-09-04T11:54:03Z</time>
      </trkpt>
      <trkpt lat="42.632813" lon="0.452873">
        <ele>2250.000000</ele>
        <time>2021-09-04T11:54:04Z</time>
      </trkpt>
      <trkpt lat="42.632814" lon="0.452867">
        <ele>2250.000000</ele>
        <time>2021-09-04T11:54:05Z</time>
      </trkpt>
      <trkpt lat="42.632812" lon="0.452858">
        <ele>2250.000000</ele>
        <time>2021-09-04T11:54:06Z</time>
      </trkpt>
      <trkpt lat="42.632812" lon="0.452848">
        <ele>2250.000000</ele>
        <time>2021-09-04T11:54:07Z</time>
      </trkpt>
      <trkpt lat="42.632810" lon="0.452838">
        <ele>2250.000000</ele>
        <time>2021-09-04T11:54:08Z</time>
      </trkpt>
      <trkpt lat="42.632807" lon="0.452827">
        <ele>2250.000000</ele>
        <time>2021-09-04T11:54:09Z</time>
      </trkpt>
      <trkpt lat="42.632806" lon="0.452813">
        <ele>2250.000000</ele>
        <time>2021-09-04T11:54:10Z</time>
      </trkpt>
      <trkpt lat="42.632805" lon="0.452800">
        <ele>2250.000000</ele>
        <time>2021-09-04T11:54:11Z</time>
      </trkpt>
      <trkpt lat="42.632804" lon="0.452787">
        <ele>2250.000000</ele>
        <time>2021-09-04T11:54:12Z</time>
      </trkpt>
      <trkpt lat="42.632804" lon="0.452775">
        <ele>2250.000000</ele>
        <time>2021-09-04T11:54:13Z</time>
      </trkpt>
      <trkpt lat="42.632802" lon="0.452763">
        <ele>2250.000000</ele>
        <time>2021-09-04T11:54:14Z</time>
      </trkpt>
      <trkpt lat="42.632802" lon="0.452758">
        <ele>2250.000000</ele>
        <time>2021-09-04T11:54:15Z</time>
      </trkpt>
      <trkpt lat="42.632802" lon="0.452763">
        <ele>2250.000000</ele>
        <time>2021-09-04T11:54:16Z</time>
      </trkpt>
      <trkpt lat="42.632801" lon="0.452760">
        <ele>2250.000000</ele>
        <time>2021-09-04T11:54:17Z</time>
      </trkpt>
      <trkpt lat="42.632800" lon="0.452755">
        <ele>2250.000000</ele>
        <time>2021-09-04T11:54:18Z</time>
      </trkpt>
      <trkpt lat="42.632793" lon="0.452750">
        <ele>2251.000000</ele>
        <time>2021-09-04T11:54:19Z</time>
      </trkpt>
      <trkpt lat="42.632793" lon="0.452740">
        <ele>2251.000000</ele>
        <time>2021-09-04T11:54:21Z</time>
      </trkpt>
      <trkpt lat="42.632794" lon="0.452733">
        <ele>2251.000000</ele>
        <time>2021-09-04T11:54:22Z</time>
      </trkpt>
      <trkpt lat="42.632797" lon="0.452730">
        <ele>2251.000000</ele>
        <time>2021-09-04T11:54:23Z</time>
      </trkpt>
      <trkpt lat="42.632802" lon="0.452723">
        <ele>2251.000000</ele>
        <time>2021-09-04T11:54:24Z</time>
      </trkpt>
      <trkpt lat="42.632810" lon="0.452717">
        <ele>2251.000000</ele>
        <time>2021-09-04T11:54:25Z</time>
      </trkpt>
      <trkpt lat="42.632817" lon="0.452717">
        <ele>2252.000000</ele>
        <time>2021-09-04T11:54:26Z</time>
      </trkpt>
      <trkpt lat="42.632820" lon="0.452715">
        <ele>2252.000000</ele>
        <time>2021-09-04T11:54:27Z</time>
      </trkpt>
      <trkpt lat="42.632822" lon="0.452712">
        <ele>2252.000000</ele>
        <time>2021-09-04T11:54:28Z</time>
      </trkpt>
      <trkpt lat="42.632828" lon="0.452710">
        <ele>2252.000000</ele>
        <time>2021-09-04T11:54:29Z</time>
      </trkpt>
      <trkpt lat="42.632838" lon="0.452715">
        <ele>2252.000000</ele>
        <time>2021-09-04T11:54:30Z</time>
      </trkpt>
      <trkpt lat="42.632847" lon="0.452720">
        <ele>2252.000000</ele>
        <time>2021-09-04T11:54:31Z</time>
      </trkpt>
      <trkpt lat="42.632855" lon="0.452732">
        <ele>2252.000000</ele>
        <time>2021-09-04T11:54:32Z</time>
      </trkpt>
      <trkpt lat="42.632862" lon="0.452735">
        <ele>2252.000000</ele>
        <time>2021-09-04T11:54:33Z</time>
      </trkpt>
      <trkpt lat="42.632870" lon="0.452737">
        <ele>2252.000000</ele>
        <time>2021-09-04T11:54:34Z</time>
      </trkpt>
      <trkpt lat="42.632873" lon="0.452733">
        <ele>2253.000000</ele>
        <time>2021-09-04T11:54:35Z</time>
      </trkpt>
      <trkpt lat="42.632880" lon="0.452731">
        <ele>2253.000000</ele>
        <time>2021-09-04T11:54:36Z</time>
      </trkpt>
      <trkpt lat="42.632883" lon="0.452730">
        <ele>2253.000000</ele>
        <time>2021-09-04T11:54:37Z</time>
      </trkpt>
      <trkpt lat="42.632888" lon="0.452728">
        <ele>2253.000000</ele>
        <time>2021-09-04T11:54:38Z</time>
      </trkpt>
      <trkpt lat="42.632890" lon="0.452722">
        <ele>2253.000000</ele>
        <time>2021-09-04T11:54:40Z</time>
      </trkpt>
      <trkpt lat="42.632892" lon="0.452717">
        <ele>2253.000000</ele>
        <time>2021-09-04T11:54:41Z</time>
      </trkpt>
      <trkpt lat="42.632895" lon="0.452708">
        <ele>2253.000000</ele>
        <time>2021-09-04T11:54:42Z</time>
      </trkpt>
      <trkpt lat="42.632898" lon="0.452707">
        <ele>2253.000000</ele>
        <time>2021-09-04T11:54:43Z</time>
      </trkpt>
      <trkpt lat="42.632903" lon="0.452706">
        <ele>2253.000000</ele>
        <time>2021-09-04T11:54:44Z</time>
      </trkpt>
      <trkpt lat="42.632907" lon="0.452704">
        <ele>2254.000000</ele>
        <time>2021-09-04T11:54:45Z</time>
      </trkpt>
      <trkpt lat="42.632910" lon="0.452701">
        <ele>2254.000000</ele>
        <time>2021-09-04T11:54:46Z</time>
      </trkpt>
      <trkpt lat="42.632913" lon="0.452697">
        <ele>2254.000000</ele>
        <time>2021-09-04T11:54:47Z</time>
      </trkpt>
      <trkpt lat="42.632917" lon="0.452693">
        <ele>2254.000000</ele>
        <time>2021-09-04T11:54:48Z</time>
      </trkpt>
      <trkpt lat="42.632922" lon="0.452692">
        <ele>2254.000000</ele>
        <time>2021-09-04T11:54:50Z</time>
      </trkpt>
      <trkpt lat="42.632925" lon="0.452688">
        <ele>2254.000000</ele>
        <time>2021-09-04T11:54:51Z</time>
      </trkpt>
      <trkpt lat="42.632928" lon="0.452687">
        <ele>2254.000000</ele>
        <time>2021-09-04T11:54:52Z</time>
      </trkpt>
      <trkpt lat="42.632935" lon="0.452678">
        <ele>2255.000000</ele>
        <time>2021-09-04T11:54:53Z</time>
      </trkpt>
      <trkpt lat="42.632938" lon="0.452673">
        <ele>2255.000000</ele>
        <time>2021-09-04T11:54:54Z</time>
      </trkpt>
      <trkpt lat="42.632942" lon="0.452669">
        <ele>2255.000000</ele>
        <time>2021-09-04T11:54:55Z</time>
      </trkpt>
      <trkpt lat="42.632945" lon="0.452666">
        <ele>2255.000000</ele>
        <time>2021-09-04T11:54:56Z</time>
      </trkpt>
      <trkpt lat="42.632947" lon="0.452664">
        <ele>2255.000000</ele>
        <time>2021-09-04T11:54:57Z</time>
      </trkpt>
      <trkpt lat="42.632947" lon="0.452662">
        <ele>2256.000000</ele>
        <time>2021-09-04T11:54:58Z</time>
      </trkpt>
      <trkpt lat="42.632950" lon="0.452650">
        <ele>2256.000000</ele>
        <time>2021-09-04T11:54:59Z</time>
      </trkpt>
      <trkpt lat="42.632952" lon="0.452643">
        <ele>2256.000000</ele>
        <time>2021-09-04T11:55:00Z</time>
      </trkpt>
      <trkpt lat="42.632950" lon="0.452633">
        <ele>2256.000000</ele>
        <time>2021-09-04T11:55:01Z</time>
      </trkpt>
      <trkpt lat="42.632950" lon="0.452622">
        <ele>2256.000000</ele>
        <time>2021-09-04T11:55:02Z</time>
      </trkpt>
      <trkpt lat="42.632952" lon="0.452613">
        <ele>2256.000000</ele>
        <time>2021-09-04T11:55:03Z</time>
      </trkpt>
      <trkpt lat="42.632952" lon="0.452607">
        <ele>2256.000000</ele>
        <time>2021-09-04T11:55:04Z</time>
      </trkpt>
      <trkpt lat="42.632953" lon="0.452598">
        <ele>2256.000000</ele>
        <time>2021-09-04T11:55:05Z</time>
      </trkpt>
      <trkpt lat="42.632955" lon="0.452588">
        <ele>2256.000000</ele>
        <time>2021-09-04T11:55:06Z</time>
      </trkpt>
      <trkpt lat="42.632954" lon="0.452585">
        <ele>2256.000000</ele>
        <time>2021-09-04T11:55:07Z</time>
      </trkpt>
      <trkpt lat="42.632953" lon="0.452580">
        <ele>2256.000000</ele>
        <time>2021-09-04T11:55:08Z</time>
      </trkpt>
      <trkpt lat="42.632949" lon="0.452570">
        <ele>2257.000000</ele>
        <time>2021-09-04T11:55:09Z</time>
      </trkpt>
      <trkpt lat="42.632945" lon="0.452567">
        <ele>2257.000000</ele>
        <time>2021-09-04T11:55:10Z</time>
      </trkpt>
      <trkpt lat="42.632945" lon="0.452555">
        <ele>2257.000000</ele>
        <time>2021-09-04T11:55:11Z</time>
      </trkpt>
      <trkpt lat="42.632945" lon="0.452545">
        <ele>2257.000000</ele>
        <time>2021-09-04T11:55:12Z</time>
      </trkpt>
      <trkpt lat="42.632945" lon="0.452537">
        <ele>2257.000000</ele>
        <time>2021-09-04T11:55:13Z</time>
      </trkpt>
      <trkpt lat="42.632945" lon="0.452523">
        <ele>2257.000000</ele>
        <time>2021-09-04T11:55:14Z</time>
      </trkpt>
      <trkpt lat="42.632942" lon="0.452507">
        <ele>2257.000000</ele>
        <time>2021-09-04T11:55:15Z</time>
      </trkpt>
      <trkpt lat="42.632940" lon="0.452495">
        <ele>2257.000000</ele>
        <time>2021-09-04T11:55:16Z</time>
      </trkpt>
      <trkpt lat="42.632939" lon="0.452488">
        <ele>2258.000000</ele>
        <time>2021-09-04T11:55:17Z</time>
      </trkpt>
      <trkpt lat="42.632939" lon="0.452478">
        <ele>2258.000000</ele>
        <time>2021-09-04T11:55:18Z</time>
      </trkpt>
      <trkpt lat="42.632939" lon="0.452465">
        <ele>2258.000000</ele>
        <time>2021-09-04T11:55:19Z</time>
      </trkpt>
      <trkpt lat="42.632940" lon="0.452457">
        <ele>2258.000000</ele>
        <time>2021-09-04T11:55:20Z</time>
      </trkpt>
      <trkpt lat="42.632941" lon="0.452452">
        <ele>2258.000000</ele>
        <time>2021-09-04T11:55:21Z</time>
      </trkpt>
      <trkpt lat="42.632950" lon="0.452448">
        <ele>2258.000000</ele>
        <time>2021-09-04T11:55:23Z</time>
      </trkpt>
      <trkpt lat="42.632952" lon="0.452445">
        <ele>2258.000000</ele>
        <time>2021-09-04T11:55:23Z</time>
      </trkpt>
      <trkpt lat="42.632955" lon="0.452442">
        <ele>2258.000000</ele>
        <time>2021-09-04T11:55:24Z</time>
      </trkpt>
      <trkpt lat="42.632955" lon="0.452437">
        <ele>2258.000000</ele>
        <time>2021-09-04T11:55:25Z</time>
      </trkpt>
      <trkpt lat="42.632959" lon="0.452433">
        <ele>2259.000000</ele>
        <time>2021-09-04T11:55:26Z</time>
      </trkpt>
      <trkpt lat="42.632964" lon="0.452430">
        <ele>2259.000000</ele>
        <time>2021-09-04T11:55:27Z</time>
      </trkpt>
      <trkpt lat="42.632970" lon="0.452425">
        <ele>2259.000000</ele>
        <time>2021-09-04T11:55:28Z</time>
      </trkpt>
      <trkpt lat="42.632973" lon="0.452418">
        <ele>2259.000000</ele>
        <time>2021-09-04T11:55:29Z</time>
      </trkpt>
      <trkpt lat="42.632972" lon="0.452412">
        <ele>2259.000000</ele>
        <time>2021-09-04T11:55:30Z</time>
      </trkpt>
      <trkpt lat="42.632970" lon="0.452403">
        <ele>2259.000000</ele>
        <time>2021-09-04T11:55:31Z</time>
      </trkpt>
      <trkpt lat="42.632970" lon="0.452393">
        <ele>2259.000000</ele>
        <time>2021-09-04T11:55:32Z</time>
      </trkpt>
      <trkpt lat="42.632970" lon="0.452388">
        <ele>2259.000000</ele>
        <time>2021-09-04T11:55:33Z</time>
      </trkpt>
      <trkpt lat="42.632969" lon="0.452385">
        <ele>2260.000000</ele>
        <time>2021-09-04T11:55:34Z</time>
      </trkpt>
      <trkpt lat="42.632966" lon="0.452378">
        <ele>2260.000000</ele>
        <time>2021-09-04T11:55:35Z</time>
      </trkpt>
      <trkpt lat="42.632964" lon="0.452373">
        <ele>2260.000000</ele>
        <time>2021-09-04T11:55:36Z</time>
      </trkpt>
      <trkpt lat="42.632960" lon="0.452362">
        <ele>2260.000000</ele>
        <time>2021-09-04T11:55:37Z</time>
      </trkpt>
      <trkpt lat="42.632958" lon="0.452355">
        <ele>2260.000000</ele>
        <time>2021-09-04T11:55:38Z</time>
      </trkpt>
      <trkpt lat="42.632957" lon="0.452350">
        <ele>2261.000000</ele>
        <time>2021-09-04T11:55:39Z</time>
      </trkpt>
      <trkpt lat="42.632956" lon="0.452343">
        <ele>2261.000000</ele>
        <time>2021-09-04T11:55:40Z</time>
      </trkpt>
      <trkpt lat="42.632953" lon="0.452332">
        <ele>2261.000000</ele>
        <time>2021-09-04T11:55:41Z</time>
      </trkpt>
      <trkpt lat="42.632951" lon="0.452323">
        <ele>2261.000000</ele>
        <time>2021-09-04T11:55:42Z</time>
      </trkpt>
      <trkpt lat="42.632950" lon="0.452317">
        <ele>2261.000000</ele>
        <time>2021-09-04T11:55:43Z</time>
      </trkpt>
      <trkpt lat="42.632950" lon="0.452307">
        <ele>2261.000000</ele>
        <time>2021-09-04T11:55:44Z</time>
      </trkpt>
      <trkpt lat="42.632955" lon="0.452297">
        <ele>2261.000000</ele>
        <time>2021-09-04T11:55:45Z</time>
      </trkpt>
      <trkpt lat="42.632955" lon="0.452288">
        <ele>2261.000000</ele>
        <time>2021-09-04T11:55:46Z</time>
      </trkpt>
      <trkpt lat="42.632955" lon="0.452282">
        <ele>2261.000000</ele>
        <time>2021-09-04T11:55:47Z</time>
      </trkpt>
      <trkpt lat="42.632955" lon="0.452275">
        <ele>2261.000000</ele>
        <time>2021-09-04T11:55:48Z</time>
      </trkpt>
      <trkpt lat="42.632953" lon="0.452272">
        <ele>2261.000000</ele>
        <time>2021-09-04T11:55:49Z</time>
      </trkpt>
      <trkpt lat="42.632948" lon="0.452267">
        <ele>2261.000000</ele>
        <time>2021-09-04T11:55:50Z</time>
      </trkpt>
      <trkpt lat="42.632940" lon="0.452262">
        <ele>2261.000000</ele>
        <time>2021-09-04T11:55:51Z</time>
      </trkpt>
      <trkpt lat="42.632937" lon="0.452253">
        <ele>2261.000000</ele>
        <time>2021-09-04T11:55:52Z</time>
      </trkpt>
      <trkpt lat="42.632935" lon="0.452248">
        <ele>2261.000000</ele>
        <time>2021-09-04T11:55:53Z</time>
      </trkpt>
      <trkpt lat="42.632932" lon="0.452243">
        <ele>2261.000000</ele>
        <time>2021-09-04T11:55:54Z</time>
      </trkpt>
      <trkpt lat="42.632930" lon="0.452238">
        <ele>2261.000000</ele>
        <time>2021-09-04T11:55:55Z</time>
      </trkpt>
      <trkpt lat="42.632925" lon="0.452230">
        <ele>2261.000000</ele>
        <time>2021-09-04T11:55:56Z</time>
      </trkpt>
      <trkpt lat="42.632921" lon="0.452220">
        <ele>2262.000000</ele>
        <time>2021-09-04T11:55:57Z</time>
      </trkpt>
      <trkpt lat="42.632918" lon="0.452213">
        <ele>2262.000000</ele>
        <time>2021-09-04T11:55:58Z</time>
      </trkpt>
      <trkpt lat="42.632917" lon="0.452208">
        <ele>2262.000000</ele>
        <time>2021-09-04T11:55:59Z</time>
      </trkpt>
      <trkpt lat="42.632916" lon="0.452202">
        <ele>2262.000000</ele>
        <time>2021-09-04T11:56:00Z</time>
      </trkpt>
      <trkpt lat="42.632916" lon="0.452197">
        <ele>2262.000000</ele>
        <time>2021-09-04T11:56:01Z</time>
      </trkpt>
      <trkpt lat="42.632915" lon="0.452193">
        <ele>2262.000000</ele>
        <time>2021-09-04T11:56:02Z</time>
      </trkpt>
      <trkpt lat="42.632915" lon="0.452188">
        <ele>2262.000000</ele>
        <time>2021-09-04T11:56:03Z</time>
      </trkpt>
      <trkpt lat="42.632915" lon="0.452183">
        <ele>2263.000000</ele>
        <time>2021-09-04T11:56:05Z</time>
      </trkpt>
      <trkpt lat="42.632915" lon="0.452175">
        <ele>2263.000000</ele>
        <time>2021-09-04T11:56:06Z</time>
      </trkpt>
      <trkpt lat="42.632915" lon="0.452168">
        <ele>2263.000000</ele>
        <time>2021-09-04T11:56:07Z</time>
      </trkpt>
      <trkpt lat="42.632912" lon="0.452162">
        <ele>2263.000000</ele>
        <time>2021-09-04T11:56:08Z</time>
      </trkpt>
      <trkpt lat="42.632911" lon="0.452153">
        <ele>2264.000000</ele>
        <time>2021-09-04T11:56:09Z</time>
      </trkpt>
      <trkpt lat="42.632916" lon="0.452142">
        <ele>2264.000000</ele>
        <time>2021-09-04T11:56:10Z</time>
      </trkpt>
      <trkpt lat="42.632920" lon="0.452133">
        <ele>2264.000000</ele>
        <time>2021-09-04T11:56:11Z</time>
      </trkpt>
      <trkpt lat="42.632927" lon="0.452128">
        <ele>2264.000000</ele>
        <time>2021-09-04T11:56:12Z</time>
      </trkpt>
      <trkpt lat="42.632930" lon="0.452127">
        <ele>2264.000000</ele>
        <time>2021-09-04T11:56:13Z</time>
      </trkpt>
      <trkpt lat="42.632940" lon="0.452125">
        <ele>2264.000000</ele>
        <time>2021-09-04T11:56:14Z</time>
      </trkpt>
      <trkpt lat="42.632950" lon="0.452127">
        <ele>2265.000000</ele>
        <time>2021-09-04T11:56:15Z</time>
      </trkpt>
      <trkpt lat="42.632957" lon="0.452127">
        <ele>2265.000000</ele>
        <time>2021-09-04T11:56:16Z</time>
      </trkpt>
      <trkpt lat="42.632968" lon="0.452133">
        <ele>2265.000000</ele>
        <time>2021-09-04T11:56:17Z</time>
      </trkpt>
      <trkpt lat="42.632977" lon="0.452133">
        <ele>2265.000000</ele>
        <time>2021-09-04T11:56:18Z</time>
      </trkpt>
      <trkpt lat="42.632985" lon="0.452133">
        <ele>2265.000000</ele>
        <time>2021-09-04T11:56:19Z</time>
      </trkpt>
      <trkpt lat="42.632990" lon="0.452131">
        <ele>2265.000000</ele>
        <time>2021-09-04T11:56:20Z</time>
      </trkpt>
      <trkpt lat="42.632995" lon="0.452128">
        <ele>2265.000000</ele>
        <time>2021-09-04T11:56:21Z</time>
      </trkpt>
      <trkpt lat="42.632998" lon="0.452124">
        <ele>2265.000000</ele>
        <time>2021-09-04T11:56:22Z</time>
      </trkpt>
      <trkpt lat="42.633000" lon="0.452122">
        <ele>2266.000000</ele>
        <time>2021-09-04T11:56:23Z</time>
      </trkpt>
      <trkpt lat="42.633003" lon="0.452117">
        <ele>2266.000000</ele>
        <time>2021-09-04T11:56:24Z</time>
      </trkpt>
      <trkpt lat="42.633003" lon="0.452115">
        <ele>2266.000000</ele>
        <time>2021-09-04T11:56:25Z</time>
      </trkpt>
      <trkpt lat="42.633002" lon="0.452110">
        <ele>2266.000000</ele>
        <time>2021-09-04T11:56:27Z</time>
      </trkpt>
      <trkpt lat="42.633003" lon="0.452107">
        <ele>2266.000000</ele>
        <time>2021-09-04T11:56:29Z</time>
      </trkpt>
      <trkpt lat="42.633006" lon="0.452103">
        <ele>2266.000000</ele>
        <time>2021-09-04T11:56:31Z</time>
      </trkpt>
      <trkpt lat="42.633005" lon="0.452107">
        <ele>2266.000000</ele>
        <time>2021-09-04T11:56:32Z</time>
      </trkpt>
      <trkpt lat="42.633007" lon="0.452107">
        <ele>2266.000000</ele>
        <time>2021-09-04T11:56:33Z</time>
      </trkpt>
      <trkpt lat="42.633013" lon="0.452102">
        <ele>2266.000000</ele>
        <time>2021-09-04T11:56:34Z</time>
      </trkpt>
      <trkpt lat="42.633016" lon="0.452100">
        <ele>2266.000000</ele>
        <time>2021-09-04T11:56:35Z</time>
      </trkpt>
      <trkpt lat="42.633006" lon="0.452107">
        <ele>2266.000000</ele>
        <time>2021-09-04T11:56:36Z</time>
      </trkpt>
      <trkpt lat="42.633025" lon="0.452028">
        <ele>2267.000000</ele>
        <time>2021-09-04T11:56:48Z</time>
      </trkpt>
      <trkpt lat="42.633022" lon="0.452018">
        <ele>2267.000000</ele>
        <time>2021-09-04T11:56:49Z</time>
      </trkpt>
      <trkpt lat="42.633020" lon="0.452012">
        <ele>2268.000000</ele>
        <time>2021-09-04T11:56:50Z</time>
      </trkpt>
      <trkpt lat="42.633016" lon="0.452005">
        <ele>2268.000000</ele>
        <time>2021-09-04T11:56:51Z</time>
      </trkpt>
      <trkpt lat="42.633012" lon="0.451995">
        <ele>2268.000000</ele>
        <time>2021-09-04T11:56:52Z</time>
      </trkpt>
      <trkpt lat="42.633008" lon="0.451982">
        <ele>2268.000000</ele>
        <time>2021-09-04T11:56:53Z</time>
      </trkpt>
      <trkpt lat="42.633009" lon="0.451977">
        <ele>2268.000000</ele>
        <time>2021-09-04T11:56:54Z</time>
      </trkpt>
      <trkpt lat="42.633008" lon="0.451972">
        <ele>2268.000000</ele>
        <time>2021-09-04T11:56:55Z</time>
      </trkpt>
      <trkpt lat="42.633007" lon="0.451970">
        <ele>2268.000000</ele>
        <time>2021-09-04T11:56:56Z</time>
      </trkpt>
      <trkpt lat="42.633002" lon="0.451972">
        <ele>2268.000000</ele>
        <time>2021-09-04T11:56:57Z</time>
      </trkpt>
      <trkpt lat="42.632997" lon="0.451970">
        <ele>2269.000000</ele>
        <time>2021-09-04T11:56:58Z</time>
      </trkpt>
      <trkpt lat="42.632992" lon="0.451964">
        <ele>2269.000000</ele>
        <time>2021-09-04T11:56:59Z</time>
      </trkpt>
      <trkpt lat="42.632992" lon="0.451958">
        <ele>2269.000000</ele>
        <time>2021-09-04T11:57:00Z</time>
      </trkpt>
      <trkpt lat="42.632995" lon="0.451955">
        <ele>2269.000000</ele>
        <time>2021-09-04T11:57:01Z</time>
      </trkpt>
      <trkpt lat="42.632997" lon="0.451952">
        <ele>2269.000000</ele>
        <time>2021-09-04T11:57:02Z</time>
      </trkpt>
      <trkpt lat="42.632998" lon="0.451948">
        <ele>2269.000000</ele>
        <time>2021-09-04T11:57:03Z</time>
      </trkpt>
      <trkpt lat="42.633002" lon="0.451943">
        <ele>2269.000000</ele>
        <time>2021-09-04T11:57:04Z</time>
      </trkpt>
      <trkpt lat="42.633002" lon="0.451937">
        <ele>2269.000000</ele>
        <time>2021-09-04T11:57:05Z</time>
      </trkpt>
      <trkpt lat="42.632998" lon="0.451930">
        <ele>2270.000000</ele>
        <time>2021-09-04T11:57:06Z</time>
      </trkpt>
      <trkpt lat="42.632997" lon="0.451927">
        <ele>2270.000000</ele>
        <time>2021-09-04T11:57:07Z</time>
      </trkpt>
      <trkpt lat="42.632995" lon="0.451923">
        <ele>2270.000000</ele>
        <time>2021-09-04T11:57:08Z</time>
      </trkpt>
      <trkpt lat="42.632990" lon="0.451918">
        <ele>2270.000000</ele>
        <time>2021-09-04T11:57:09Z</time>
      </trkpt>
      <trkpt lat="42.632987" lon="0.451917">
        <ele>2270.000000</ele>
        <time>2021-09-04T11:57:10Z</time>
      </trkpt>
      <trkpt lat="42.632982" lon="0.451915">
        <ele>2270.000000</ele>
        <time>2021-09-04T11:57:11Z</time>
      </trkpt>
      <trkpt lat="42.632978" lon="0.451912">
        <ele>2270.000000</ele>
        <time>2021-09-04T11:57:12Z</time>
      </trkpt>
      <trkpt lat="42.632978" lon="0.451905">
        <ele>2271.000000</ele>
        <time>2021-09-04T11:57:13Z</time>
      </trkpt>
      <trkpt lat="42.632976" lon="0.451897">
        <ele>2271.000000</ele>
        <time>2021-09-04T11:57:14Z</time>
      </trkpt>
      <trkpt lat="42.632977" lon="0.451885">
        <ele>2271.000000</ele>
        <time>2021-09-04T11:57:15Z</time>
      </trkpt>
      <trkpt lat="42.632980" lon="0.451873">
        <ele>2271.000000</ele>
        <time>2021-09-04T11:57:16Z</time>
      </trkpt>
      <trkpt lat="42.632980" lon="0.451868">
        <ele>2271.000000</ele>
        <time>2021-09-04T11:57:17Z</time>
      </trkpt>
      <trkpt lat="42.632982" lon="0.451867">
        <ele>2271.000000</ele>
        <time>2021-09-04T11:57:18Z</time>
      </trkpt>
      <trkpt lat="42.632982" lon="0.451858">
        <ele>2271.000000</ele>
        <time>2021-09-04T11:57:19Z</time>
      </trkpt>
      <trkpt lat="42.632983" lon="0.451850">
        <ele>2272.000000</ele>
        <time>2021-09-04T11:57:20Z</time>
      </trkpt>
      <trkpt lat="42.632983" lon="0.451840">
        <ele>2272.000000</ele>
        <time>2021-09-04T11:57:21Z</time>
      </trkpt>
      <trkpt lat="42.632985" lon="0.451833">
        <ele>2272.000000</ele>
        <time>2021-09-04T11:57:22Z</time>
      </trkpt>
      <trkpt lat="42.632986" lon="0.451827">
        <ele>2272.000000</ele>
        <time>2021-09-04T11:57:23Z</time>
      </trkpt>
      <trkpt lat="42.632992" lon="0.451823">
        <ele>2272.000000</ele>
        <time>2021-09-04T11:57:24Z</time>
      </trkpt>
      <trkpt lat="42.632992" lon="0.451817">
        <ele>2272.000000</ele>
        <time>2021-09-04T11:57:25Z</time>
      </trkpt>
      <trkpt lat="42.632993" lon="0.451813">
        <ele>2272.000000</ele>
        <time>2021-09-04T11:57:26Z</time>
      </trkpt>
      <trkpt lat="42.632994" lon="0.451813">
        <ele>2272.000000</ele>
        <time>2021-09-04T11:57:27Z</time>
      </trkpt>
      <trkpt lat="42.632996" lon="0.451812">
        <ele>2272.000000</ele>
        <time>2021-09-04T11:57:28Z</time>
      </trkpt>
      <trkpt lat="42.632998" lon="0.451810">
        <ele>2272.000000</ele>
        <time>2021-09-04T11:57:29Z</time>
      </trkpt>
      <trkpt lat="42.633005" lon="0.451810">
        <ele>2272.000000</ele>
        <time>2021-09-04T11:57:30Z</time>
      </trkpt>
      <trkpt lat="42.633008" lon="0.451808">
        <ele>2272.000000</ele>
        <time>2021-09-04T11:57:31Z</time>
      </trkpt>
      <trkpt lat="42.633008" lon="0.451802">
        <ele>2272.000000</ele>
        <time>2021-09-04T11:57:32Z</time>
      </trkpt>
      <trkpt lat="42.633007" lon="0.451795">
        <ele>2272.000000</ele>
        <time>2021-09-04T11:57:33Z</time>
      </trkpt>
      <trkpt lat="42.633003" lon="0.451787">
        <ele>2273.000000</ele>
        <time>2021-09-04T11:57:34Z</time>
      </trkpt>
      <trkpt lat="42.633000" lon="0.451785">
        <ele>2273.000000</ele>
        <time>2021-09-04T11:57:35Z</time>
      </trkpt>
      <trkpt lat="42.632998" lon="0.451778">
        <ele>2273.000000</ele>
        <time>2021-09-04T11:57:36Z</time>
      </trkpt>
      <trkpt lat="42.632995" lon="0.451777">
        <ele>2273.000000</ele>
        <time>2021-09-04T11:57:37Z</time>
      </trkpt>
      <trkpt lat="42.632990" lon="0.451772">
        <ele>2273.000000</ele>
        <time>2021-09-04T11:57:38Z</time>
      </trkpt>
      <trkpt lat="42.632980" lon="0.451772">
        <ele>2273.000000</ele>
        <time>2021-09-04T11:57:39Z</time>
      </trkpt>
      <trkpt lat="42.632973" lon="0.451767">
        <ele>2273.000000</ele>
        <time>2021-09-04T11:57:40Z</time>
      </trkpt>
      <trkpt lat="42.632970" lon="0.451760">
        <ele>2274.000000</ele>
        <time>2021-09-04T11:57:43Z</time>
      </trkpt>
      <trkpt lat="42.632968" lon="0.451752">
        <ele>2274.000000</ele>
        <time>2021-09-04T11:57:44Z</time>
      </trkpt>
      <trkpt lat="42.632968" lon="0.451742">
        <ele>2274.000000</ele>
        <time>2021-09-04T11:57:45Z</time>
      </trkpt>
      <trkpt lat="42.632968" lon="0.451735">
        <ele>2275.000000</ele>
        <time>2021-09-04T11:57:46Z</time>
      </trkpt>
      <trkpt lat="42.632965" lon="0.451728">
        <ele>2275.000000</ele>
        <time>2021-09-04T11:57:47Z</time>
      </trkpt>
      <trkpt lat="42.632963" lon="0.451722">
        <ele>2275.000000</ele>
        <time>2021-09-04T11:57:48Z</time>
      </trkpt>
      <trkpt lat="42.632963" lon="0.451718">
        <ele>2276.000000</ele>
        <time>2021-09-04T11:57:49Z</time>
      </trkpt>
      <trkpt lat="42.632963" lon="0.451708">
        <ele>2276.000000</ele>
        <time>2021-09-04T11:57:50Z</time>
      </trkpt>
      <trkpt lat="42.632965" lon="0.451700">
        <ele>2276.000000</ele>
        <time>2021-09-04T11:57:51Z</time>
      </trkpt>
      <trkpt lat="42.632960" lon="0.451697">
        <ele>2276.000000</ele>
        <time>2021-09-04T11:57:52Z</time>
      </trkpt>
      <trkpt lat="42.632956" lon="0.451692">
        <ele>2277.000000</ele>
        <time>2021-09-04T11:57:53Z</time>
      </trkpt>
      <trkpt lat="42.632953" lon="0.451683">
        <ele>2277.000000</ele>
        <time>2021-09-04T11:57:54Z</time>
      </trkpt>
      <trkpt lat="42.632951" lon="0.451675">
        <ele>2277.000000</ele>
        <time>2021-09-04T11:57:55Z</time>
      </trkpt>
      <trkpt lat="42.632952" lon="0.451667">
        <ele>2277.000000</ele>
        <time>2021-09-04T11:57:56Z</time>
      </trkpt>
      <trkpt lat="42.632954" lon="0.451662">
        <ele>2277.000000</ele>
        <time>2021-09-04T11:57:57Z</time>
      </trkpt>
      <trkpt lat="42.632958" lon="0.451657">
        <ele>2277.000000</ele>
        <time>2021-09-04T11:57:58Z</time>
      </trkpt>
      <trkpt lat="42.632958" lon="0.451650">
        <ele>2278.000000</ele>
        <time>2021-09-04T11:57:59Z</time>
      </trkpt>
      <trkpt lat="42.632955" lon="0.451642">
        <ele>2278.000000</ele>
        <time>2021-09-04T11:58:00Z</time>
      </trkpt>
      <trkpt lat="42.632957" lon="0.451632">
        <ele>2278.000000</ele>
        <time>2021-09-04T11:58:01Z</time>
      </trkpt>
      <trkpt lat="42.632959" lon="0.451622">
        <ele>2278.000000</ele>
        <time>2021-09-04T11:58:02Z</time>
      </trkpt>
      <trkpt lat="42.632960" lon="0.451617">
        <ele>2278.000000</ele>
        <time>2021-09-04T11:58:03Z</time>
      </trkpt>
      <trkpt lat="42.632967" lon="0.451612">
        <ele>2278.000000</ele>
        <time>2021-09-04T11:58:04Z</time>
      </trkpt>
      <trkpt lat="42.632972" lon="0.451608">
        <ele>2278.000000</ele>
        <time>2021-09-04T11:58:05Z</time>
      </trkpt>
      <trkpt lat="42.632973" lon="0.451603">
        <ele>2278.000000</ele>
        <time>2021-09-04T11:58:06Z</time>
      </trkpt>
      <trkpt lat="42.632977" lon="0.451600">
        <ele>2278.000000</ele>
        <time>2021-09-04T11:58:07Z</time>
      </trkpt>
      <trkpt lat="42.632981" lon="0.451597">
        <ele>2278.000000</ele>
        <time>2021-09-04T11:58:08Z</time>
      </trkpt>
      <trkpt lat="42.632978" lon="0.451592">
        <ele>2278.000000</ele>
        <time>2021-09-04T11:58:09Z</time>
      </trkpt>
      <trkpt lat="42.632977" lon="0.451585">
        <ele>2278.000000</ele>
        <time>2021-09-04T11:58:10Z</time>
      </trkpt>
      <trkpt lat="42.632977" lon="0.451575">
        <ele>2278.000000</ele>
        <time>2021-09-04T11:58:11Z</time>
      </trkpt>
      <trkpt lat="42.632978" lon="0.451565">
        <ele>2278.000000</ele>
        <time>2021-09-04T11:58:12Z</time>
      </trkpt>
      <trkpt lat="42.632978" lon="0.451555">
        <ele>2278.000000</ele>
        <time>2021-09-04T11:58:13Z</time>
      </trkpt>
      <trkpt lat="42.632982" lon="0.451548">
        <ele>2279.000000</ele>
        <time>2021-09-04T11:58:14Z</time>
      </trkpt>
      <trkpt lat="42.632984" lon="0.451543">
        <ele>2279.000000</ele>
        <time>2021-09-04T11:58:15Z</time>
      </trkpt>
      <trkpt lat="42.632986" lon="0.451533">
        <ele>2279.000000</ele>
        <time>2021-09-04T11:58:16Z</time>
      </trkpt>
      <trkpt lat="42.632986" lon="0.451530">
        <ele>2279.000000</ele>
        <time>2021-09-04T11:58:17Z</time>
      </trkpt>
      <trkpt lat="42.632986" lon="0.451527">
        <ele>2279.000000</ele>
        <time>2021-09-04T11:58:18Z</time>
      </trkpt>
      <trkpt lat="42.632988" lon="0.451522">
        <ele>2279.000000</ele>
        <time>2021-09-04T11:58:20Z</time>
      </trkpt>
      <trkpt lat="42.632990" lon="0.451515">
        <ele>2279.000000</ele>
        <time>2021-09-04T11:58:21Z</time>
      </trkpt>
      <trkpt lat="42.632990" lon="0.451512">
        <ele>2279.000000</ele>
        <time>2021-09-04T11:58:22Z</time>
      </trkpt>
      <trkpt lat="42.632991" lon="0.451512">
        <ele>2279.000000</ele>
        <time>2021-09-04T11:58:23Z</time>
      </trkpt>
      <trkpt lat="42.632991" lon="0.451508">
        <ele>2279.000000</ele>
        <time>2021-09-04T11:58:25Z</time>
      </trkpt>
      <trkpt lat="42.632991" lon="0.451505">
        <ele>2279.000000</ele>
        <time>2021-09-04T11:58:26Z</time>
      </trkpt>
      <trkpt lat="42.632991" lon="0.451507">
        <ele>2279.000000</ele>
        <time>2021-09-04T11:58:27Z</time>
      </trkpt>
      <trkpt lat="42.632991" lon="0.451508">
        <ele>2279.000000</ele>
        <time>2021-09-04T11:58:29Z</time>
      </trkpt>
      <trkpt lat="42.632990" lon="0.451512">
        <ele>2279.000000</ele>
        <time>2021-09-04T11:58:30Z</time>
      </trkpt>
      <trkpt lat="42.632991" lon="0.451510">
        <ele>2279.000000</ele>
        <time>2021-09-04T11:58:31Z</time>
      </trkpt>
      <trkpt lat="42.632993" lon="0.451508">
        <ele>2279.000000</ele>
        <time>2021-09-04T11:58:32Z</time>
      </trkpt>
      <trkpt lat="42.632994" lon="0.451505">
        <ele>2279.000000</ele>
        <time>2021-09-04T11:58:33Z</time>
      </trkpt>
      <trkpt lat="42.632995" lon="0.451503">
        <ele>2279.000000</ele>
        <time>2021-09-04T11:58:34Z</time>
      </trkpt>
      <trkpt lat="42.632996" lon="0.451502">
        <ele>2279.000000</ele>
        <time>2021-09-04T11:58:35Z</time>
      </trkpt>
      <trkpt lat="42.633007" lon="0.451502">
        <ele>2279.000000</ele>
        <time>2021-09-04T11:58:36Z</time>
      </trkpt>
      <trkpt lat="42.633015" lon="0.451500">
        <ele>2279.000000</ele>
        <time>2021-09-04T11:58:37Z</time>
      </trkpt>
      <trkpt lat="42.633022" lon="0.451497">
        <ele>2279.000000</ele>
        <time>2021-09-04T11:58:38Z</time>
      </trkpt>
      <trkpt lat="42.633027" lon="0.451491">
        <ele>2280.000000</ele>
        <time>2021-09-04T11:58:39Z</time>
      </trkpt>
      <trkpt lat="42.633033" lon="0.451488">
        <ele>2280.000000</ele>
        <time>2021-09-04T11:58:40Z</time>
      </trkpt>
      <trkpt lat="42.633040" lon="0.451486">
        <ele>2280.000000</ele>
        <time>2021-09-04T11:58:41Z</time>
      </trkpt>
      <trkpt lat="42.633047" lon="0.451482">
        <ele>2280.000000</ele>
        <time>2021-09-04T11:58:42Z</time>
      </trkpt>
      <trkpt lat="42.633052" lon="0.451472">
        <ele>2280.000000</ele>
        <time>2021-09-04T11:58:43Z</time>
      </trkpt>
      <trkpt lat="42.633063" lon="0.451462">
        <ele>2280.000000</ele>
        <time>2021-09-04T11:58:44Z</time>
      </trkpt>
      <trkpt lat="42.633072" lon="0.451456">
        <ele>2280.000000</ele>
        <time>2021-09-04T11:58:45Z</time>
      </trkpt>
      <trkpt lat="42.633078" lon="0.451454">
        <ele>2280.000000</ele>
        <time>2021-09-04T11:58:46Z</time>
      </trkpt>
      <trkpt lat="42.633082" lon="0.451455">
        <ele>2280.000000</ele>
        <time>2021-09-04T11:58:47Z</time>
      </trkpt>
      <trkpt lat="42.633087" lon="0.451452">
        <ele>2281.000000</ele>
        <time>2021-09-04T11:58:48Z</time>
      </trkpt>
      <trkpt lat="42.633090" lon="0.451449">
        <ele>2281.000000</ele>
        <time>2021-09-04T11:58:49Z</time>
      </trkpt>
      <trkpt lat="42.633090" lon="0.451443">
        <ele>2281.000000</ele>
        <time>2021-09-04T11:58:50Z</time>
      </trkpt>
      <trkpt lat="42.633093" lon="0.451442">
        <ele>2281.000000</ele>
        <time>2021-09-04T11:58:52Z</time>
      </trkpt>
      <trkpt lat="42.633095" lon="0.451437">
        <ele>2282.000000</ele>
        <time>2021-09-04T11:58:53Z</time>
      </trkpt>
      <trkpt lat="42.633098" lon="0.451428">
        <ele>2282.000000</ele>
        <time>2021-09-04T11:58:54Z</time>
      </trkpt>
      <trkpt lat="42.633103" lon="0.451420">
        <ele>2282.000000</ele>
        <time>2021-09-04T11:58:55Z</time>
      </trkpt>
      <trkpt lat="42.633105" lon="0.451415">
        <ele>2282.000000</ele>
        <time>2021-09-04T11:58:56Z</time>
      </trkpt>
      <trkpt lat="42.633110" lon="0.451417">
        <ele>2282.000000</ele>
        <time>2021-09-04T11:58:58Z</time>
      </trkpt>
      <trkpt lat="42.633109" lon="0.451417">
        <ele>2283.000000</ele>
        <time>2021-09-04T11:59:02Z</time>
      </trkpt>
      <trkpt lat="42.633340" lon="0.451263">
        <ele>2291.000000</ele>
        <time>2021-09-04T12:00:16Z</time>
      </trkpt>
      <trkpt lat="42.633343" lon="0.451267">
        <ele>2291.000000</ele>
        <time>2021-09-04T12:00:17Z</time>
      </trkpt>
      <trkpt lat="42.633350" lon="0.451272">
        <ele>2292.000000</ele>
        <time>2021-09-04T12:00:18Z</time>
      </trkpt>
      <trkpt lat="42.633357" lon="0.451273">
        <ele>2292.000000</ele>
        <time>2021-09-04T12:00:19Z</time>
      </trkpt>
      <trkpt lat="42.633360" lon="0.451275">
        <ele>2292.000000</ele>
        <time>2021-09-04T12:00:20Z</time>
      </trkpt>
      <trkpt lat="42.633363" lon="0.451273">
        <ele>2292.000000</ele>
        <time>2021-09-04T12:00:23Z</time>
      </trkpt>
      <trkpt lat="42.633363" lon="0.451271">
        <ele>2293.000000</ele>
        <time>2021-09-04T12:00:24Z</time>
      </trkpt>
      <trkpt lat="42.633367" lon="0.451268">
        <ele>2293.000000</ele>
        <time>2021-09-04T12:00:25Z</time>
      </trkpt>
      <trkpt lat="42.633373" lon="0.451264">
        <ele>2293.000000</ele>
        <time>2021-09-04T12:00:26Z</time>
      </trkpt>
      <trkpt lat="42.633373" lon="0.451263">
        <ele>2293.000000</ele>
        <time>2021-09-04T12:00:27Z</time>
      </trkpt>
      <trkpt lat="42.633377" lon="0.451260">
        <ele>2293.000000</ele>
        <time>2021-09-04T12:00:28Z</time>
      </trkpt>
      <trkpt lat="42.633383" lon="0.451259">
        <ele>2293.000000</ele>
        <time>2021-09-04T12:00:29Z</time>
      </trkpt>
      <trkpt lat="42.633387" lon="0.451259">
        <ele>2294.000000</ele>
        <time>2021-09-04T12:00:30Z</time>
      </trkpt>
      <trkpt lat="42.633388" lon="0.451259">
        <ele>2294.000000</ele>
        <time>2021-09-04T12:00:31Z</time>
      </trkpt>
      <trkpt lat="42.633392" lon="0.451258">
        <ele>2294.000000</ele>
        <time>2021-09-04T12:00:32Z</time>
      </trkpt>
      <trkpt lat="42.633393" lon="0.451257">
        <ele>2294.000000</ele>
        <time>2021-09-04T12:00:34Z</time>
      </trkpt>
      <trkpt lat="42.633398" lon="0.451255">
        <ele>2295.000000</ele>
        <time>2021-09-04T12:00:35Z</time>
      </trkpt>
      <trkpt lat="42.633402" lon="0.451254">
        <ele>2295.000000</ele>
        <time>2021-09-04T12:00:36Z</time>
      </trkpt>
      <trkpt lat="42.633405" lon="0.451252">
        <ele>2295.000000</ele>
        <time>2021-09-04T12:00:37Z</time>
      </trkpt>
      <trkpt lat="42.633405" lon="0.451252">
        <ele>2295.000000</ele>
        <time>2021-09-04T12:00:38Z</time>
      </trkpt>
      <trkpt lat="42.633407" lon="0.451250">
        <ele>2295.000000</ele>
        <time>2021-09-04T12:00:39Z</time>
      </trkpt>
      <trkpt lat="42.633407" lon="0.451237">
        <ele>2295.000000</ele>
        <time>2021-09-04T12:00:40Z</time>
      </trkpt>
      <trkpt lat="42.633410" lon="0.451233">
        <ele>2295.000000</ele>
        <time>2021-09-04T12:00:41Z</time>
      </trkpt>
      <trkpt lat="42.633411" lon="0.451237">
        <ele>2295.000000</ele>
        <time>2021-09-04T12:00:42Z</time>
      </trkpt>
      <trkpt lat="42.633418" lon="0.451240">
        <ele>2296.000000</ele>
        <time>2021-09-04T12:00:43Z</time>
      </trkpt>
      <trkpt lat="42.633422" lon="0.451238">
        <ele>2296.000000</ele>
        <time>2021-09-04T12:00:44Z</time>
      </trkpt>
      <trkpt lat="42.633422" lon="0.451236">
        <ele>2296.000000</ele>
        <time>2021-09-04T12:00:45Z</time>
      </trkpt>
      <trkpt lat="42.633425" lon="0.451230">
        <ele>2296.000000</ele>
        <time>2021-09-04T12:00:46Z</time>
      </trkpt>
      <trkpt lat="42.633428" lon="0.451232">
        <ele>2296.000000</ele>
        <time>2021-09-04T12:00:47Z</time>
      </trkpt>
      <trkpt lat="42.633433" lon="0.451234">
        <ele>2296.000000</ele>
        <time>2021-09-04T12:00:48Z</time>
      </trkpt>
      <trkpt lat="42.633435" lon="0.451240">
        <ele>2296.000000</ele>
        <time>2021-09-04T12:00:49Z</time>
      </trkpt>
      <trkpt lat="42.633437" lon="0.451243">
        <ele>2296.000000</ele>
        <time>2021-09-04T12:00:50Z</time>
      </trkpt>
      <trkpt lat="42.633438" lon="0.451241">
        <ele>2296.000000</ele>
        <time>2021-09-04T12:00:51Z</time>
      </trkpt>
      <trkpt lat="42.633440" lon="0.451237">
        <ele>2297.000000</ele>
        <time>2021-09-04T12:00:53Z</time>
      </trkpt>
      <trkpt lat="42.633443" lon="0.451228">
        <ele>2297.000000</ele>
        <time>2021-09-04T12:00:54Z</time>
      </trkpt>
      <trkpt lat="42.633447" lon="0.451218">
        <ele>2297.000000</ele>
        <time>2021-09-04T12:00:55Z</time>
      </trkpt>
      <trkpt lat="42.633448" lon="0.451213">
        <ele>2298.000000</ele>
        <time>2021-09-04T12:00:56Z</time>
      </trkpt>
      <trkpt lat="42.633450" lon="0.451210">
        <ele>2298.000000</ele>
        <time>2021-09-04T12:00:57Z</time>
      </trkpt>
      <trkpt lat="42.633448" lon="0.451207">
        <ele>2298.000000</ele>
        <time>2021-09-04T12:00:58Z</time>
      </trkpt>
      <trkpt lat="42.633454" lon="0.451205">
        <ele>2298.000000</ele>
        <time>2021-09-04T12:01:00Z</time>
      </trkpt>
      <trkpt lat="42.633459" lon="0.451202">
        <ele>2298.000000</ele>
        <time>2021-09-04T12:01:01Z</time>
      </trkpt>
      <trkpt lat="42.633463" lon="0.451197">
        <ele>2299.000000</ele>
        <time>2021-09-04T12:01:02Z</time>
      </trkpt>
      <trkpt lat="42.633468" lon="0.451195">
        <ele>2299.000000</ele>
        <time>2021-09-04T12:01:03Z</time>
      </trkpt>
      <trkpt lat="42.633472" lon="0.451187">
        <ele>2299.000000</ele>
        <time>2021-09-04T12:01:04Z</time>
      </trkpt>
      <trkpt lat="42.633475" lon="0.451182">
        <ele>2299.000000</ele>
        <time>2021-09-04T12:01:05Z</time>
      </trkpt>
      <trkpt lat="42.633475" lon="0.451177">
        <ele>2299.000000</ele>
        <time>2021-09-04T12:01:06Z</time>
      </trkpt>
      <trkpt lat="42.633478" lon="0.451178">
        <ele>2299.000000</ele>
        <time>2021-09-04T12:01:07Z</time>
      </trkpt>
      <trkpt lat="42.633487" lon="0.451178">
        <ele>2299.000000</ele>
        <time>2021-09-04T12:01:08Z</time>
      </trkpt>
      <trkpt lat="42.633492" lon="0.451177">
        <ele>2299.000000</ele>
        <time>2021-09-04T12:01:09Z</time>
      </trkpt>
      <trkpt lat="42.633500" lon="0.451173">
        <ele>2299.000000</ele>
        <time>2021-09-04T12:01:10Z</time>
      </trkpt>
      <trkpt lat="42.633505" lon="0.451167">
        <ele>2299.000000</ele>
        <time>2021-09-04T12:01:11Z</time>
      </trkpt>
      <trkpt lat="42.633510" lon="0.451165">
        <ele>2299.000000</ele>
        <time>2021-09-04T12:01:12Z</time>
      </trkpt>
      <trkpt lat="42.633517" lon="0.451161">
        <ele>2299.000000</ele>
        <time>2021-09-04T12:01:13Z</time>
      </trkpt>
      <trkpt lat="42.633523" lon="0.451160">
        <ele>2299.000000</ele>
        <time>2021-09-04T12:01:14Z</time>
      </trkpt>
      <trkpt lat="42.633528" lon="0.451162">
        <ele>2299.000000</ele>
        <time>2021-09-04T12:01:15Z</time>
      </trkpt>
      <trkpt lat="42.633535" lon="0.451173">
        <ele>2299.000000</ele>
        <time>2021-09-04T12:01:16Z</time>
      </trkpt>
      <trkpt lat="42.633540" lon="0.451175">
        <ele>2299.000000</ele>
        <time>2021-09-04T12:01:17Z</time>
      </trkpt>
      <trkpt lat="42.633545" lon="0.451174">
        <ele>2300.000000</ele>
        <time>2021-09-04T12:01:18Z</time>
      </trkpt>
      <trkpt lat="42.633553" lon="0.451173">
        <ele>2300.000000</ele>
        <time>2021-09-04T12:01:19Z</time>
      </trkpt>
      <trkpt lat="42.633562" lon="0.451171">
        <ele>2300.000000</ele>
        <time>2021-09-04T12:01:20Z</time>
      </trkpt>
      <trkpt lat="42.633568" lon="0.451168">
        <ele>2300.000000</ele>
        <time>2021-09-04T12:01:21Z</time>
      </trkpt>
      <trkpt lat="42.633572" lon="0.451166">
        <ele>2300.000000</ele>
        <time>2021-09-04T12:01:22Z</time>
      </trkpt>
      <trkpt lat="42.633578" lon="0.451162">
        <ele>2300.000000</ele>
        <time>2021-09-04T12:01:23Z</time>
      </trkpt>
      <trkpt lat="42.633583" lon="0.451160">
        <ele>2301.000000</ele>
        <time>2021-09-04T12:01:24Z</time>
      </trkpt>
      <trkpt lat="42.633587" lon="0.451157">
        <ele>2301.000000</ele>
        <time>2021-09-04T12:01:25Z</time>
      </trkpt>
      <trkpt lat="42.633592" lon="0.451155">
        <ele>2301.000000</ele>
        <time>2021-09-04T12:01:26Z</time>
      </trkpt>
      <trkpt lat="42.633597" lon="0.451153">
        <ele>2301.000000</ele>
        <time>2021-09-04T12:01:27Z</time>
      </trkpt>
      <trkpt lat="42.633603" lon="0.451152">
        <ele>2301.000000</ele>
        <time>2021-09-04T12:01:28Z</time>
      </trkpt>
      <trkpt lat="42.633610" lon="0.451150">
        <ele>2301.000000</ele>
        <time>2021-09-04T12:01:29Z</time>
      </trkpt>
      <trkpt lat="42.633615" lon="0.451149">
        <ele>2302.000000</ele>
        <time>2021-09-04T12:01:30Z</time>
      </trkpt>
      <trkpt lat="42.633612" lon="0.451149">
        <ele>2302.000000</ele>
        <time>2021-09-04T12:01:31Z</time>
      </trkpt>
      <trkpt lat="42.633615" lon="0.451138">
        <ele>2302.000000</ele>
        <time>2021-09-04T12:01:32Z</time>
      </trkpt>
      <trkpt lat="42.633620" lon="0.451136">
        <ele>2302.000000</ele>
        <time>2021-09-04T12:01:33Z</time>
      </trkpt>
      <trkpt lat="42.633625" lon="0.451134">
        <ele>2302.000000</ele>
        <time>2021-09-04T12:01:34Z</time>
      </trkpt>
      <trkpt lat="42.633628" lon="0.451129">
        <ele>2302.000000</ele>
        <time>2021-09-04T12:01:35Z</time>
      </trkpt>
      <trkpt lat="42.633632" lon="0.451127">
        <ele>2302.000000</ele>
        <time>2021-09-04T12:01:36Z</time>
      </trkpt>
      <trkpt lat="42.633635" lon="0.451123">
        <ele>2302.000000</ele>
        <time>2021-09-04T12:01:37Z</time>
      </trkpt>
      <trkpt lat="42.633638" lon="0.451121">
        <ele>2302.000000</ele>
        <time>2021-09-04T12:01:38Z</time>
      </trkpt>
      <trkpt lat="42.633643" lon="0.451120">
        <ele>2303.000000</ele>
        <time>2021-09-04T12:01:39Z</time>
      </trkpt>
      <trkpt lat="42.633645" lon="0.451120">
        <ele>2303.000000</ele>
        <time>2021-09-04T12:01:40Z</time>
      </trkpt>
      <trkpt lat="42.633645" lon="0.451119">
        <ele>2303.000000</ele>
        <time>2021-09-04T12:01:41Z</time>
      </trkpt>
      <trkpt lat="42.633648" lon="0.451115">
        <ele>2303.000000</ele>
        <time>2021-09-04T12:01:42Z</time>
      </trkpt>
      <trkpt lat="42.633650" lon="0.451112">
        <ele>2303.000000</ele>
        <time>2021-09-04T12:01:44Z</time>
      </trkpt>
      <trkpt lat="42.633650" lon="0.451100">
        <ele>2304.000000</ele>
        <time>2021-09-04T12:01:45Z</time>
      </trkpt>
      <trkpt lat="42.633655" lon="0.451097">
        <ele>2304.000000</ele>
        <time>2021-09-04T12:01:46Z</time>
      </trkpt>
      <trkpt lat="42.633663" lon="0.451095">
        <ele>2304.000000</ele>
        <time>2021-09-04T12:01:47Z</time>
      </trkpt>
      <trkpt lat="42.633672" lon="0.451092">
        <ele>2304.000000</ele>
        <time>2021-09-04T12:01:48Z</time>
      </trkpt>
      <trkpt lat="42.633678" lon="0.451087">
        <ele>2304.000000</ele>
        <time>2021-09-04T12:01:49Z</time>
      </trkpt>
      <trkpt lat="42.633685" lon="0.451082">
        <ele>2304.000000</ele>
        <time>2021-09-04T12:01:50Z</time>
      </trkpt>
      <trkpt lat="42.633693" lon="0.451075">
        <ele>2304.000000</ele>
        <time>2021-09-04T12:01:51Z</time>
      </trkpt>
      <trkpt lat="42.633702" lon="0.451073">
        <ele>2304.000000</ele>
        <time>2021-09-04T12:01:52Z</time>
      </trkpt>
      <trkpt lat="42.633710" lon="0.451067">
        <ele>2304.000000</ele>
        <time>2021-09-04T12:01:53Z</time>
      </trkpt>
      <trkpt lat="42.633718" lon="0.451060">
        <ele>2304.000000</ele>
        <time>2021-09-04T12:01:54Z</time>
      </trkpt>
      <trkpt lat="42.633728" lon="0.451053">
        <ele>2304.000000</ele>
        <time>2021-09-04T12:01:55Z</time>
      </trkpt>
      <trkpt lat="42.633735" lon="0.451049">
        <ele>2304.000000</ele>
        <time>2021-09-04T12:01:56Z</time>
      </trkpt>
      <trkpt lat="42.633740" lon="0.451048">
        <ele>2304.000000</ele>
        <time>2021-09-04T12:01:57Z</time>
      </trkpt>
      <trkpt lat="42.633743" lon="0.451049">
        <ele>2305.000000</ele>
        <time>2021-09-04T12:01:59Z</time>
      </trkpt>
      <trkpt lat="42.633745" lon="0.451048">
        <ele>2305.000000</ele>
        <time>2021-09-04T12:02:00Z</time>
      </trkpt>
      <trkpt lat="42.633748" lon="0.451048">
        <ele>2305.000000</ele>
        <time>2021-09-04T12:02:01Z</time>
      </trkpt>
      <trkpt lat="42.633752" lon="0.451045">
        <ele>2305.000000</ele>
        <time>2021-09-04T12:02:02Z</time>
      </trkpt>
      <trkpt lat="42.633753" lon="0.451043">
        <ele>2306.000000</ele>
        <time>2021-09-04T12:02:03Z</time>
      </trkpt>
      <trkpt lat="42.633757" lon="0.451038">
        <ele>2306.000000</ele>
        <time>2021-09-04T12:02:04Z</time>
      </trkpt>
      <trkpt lat="42.633760" lon="0.451035">
        <ele>2306.000000</ele>
        <time>2021-09-04T12:02:05Z</time>
      </trkpt>
      <trkpt lat="42.633762" lon="0.451034">
        <ele>2306.000000</ele>
        <time>2021-09-04T12:02:06Z</time>
      </trkpt>
      <trkpt lat="42.633767" lon="0.451031">
        <ele>2306.000000</ele>
        <time>2021-09-04T12:02:08Z</time>
      </trkpt>
      <trkpt lat="42.633770" lon="0.451030">
        <ele>2307.000000</ele>
        <time>2021-09-04T12:02:09Z</time>
      </trkpt>
      <trkpt lat="42.633768" lon="0.451031">
        <ele>2307.000000</ele>
        <time>2021-09-04T12:02:10Z</time>
      </trkpt>
      <trkpt lat="42.633770" lon="0.451029">
        <ele>2307.000000</ele>
        <time>2021-09-04T12:02:11Z</time>
      </trkpt>
      <trkpt lat="42.633770" lon="0.451028">
        <ele>2307.000000</ele>
        <time>2021-09-04T12:02:12Z</time>
      </trkpt>
      <trkpt lat="42.633768" lon="0.451015">
        <ele>2307.000000</ele>
        <time>2021-09-04T12:02:14Z</time>
      </trkpt>
      <trkpt lat="42.633771" lon="0.451013">
        <ele>2307.000000</ele>
        <time>2021-09-04T12:02:15Z</time>
      </trkpt>
      <trkpt lat="42.633771" lon="0.451010">
        <ele>2307.000000</ele>
        <time>2021-09-04T12:02:16Z</time>
      </trkpt>
      <trkpt lat="42.633768" lon="0.451007">
        <ele>2307.000000</ele>
        <time>2021-09-04T12:02:17Z</time>
      </trkpt>
      <trkpt lat="42.633775" lon="0.451007">
        <ele>2307.000000</ele>
        <time>2021-09-04T12:02:19Z</time>
      </trkpt>
      <trkpt lat="42.633783" lon="0.451007">
        <ele>2307.000000</ele>
        <time>2021-09-04T12:02:20Z</time>
      </trkpt>
      <trkpt lat="42.633790" lon="0.451004">
        <ele>2307.000000</ele>
        <time>2021-09-04T12:02:21Z</time>
      </trkpt>
      <trkpt lat="42.633797" lon="0.451000">
        <ele>2307.000000</ele>
        <time>2021-09-04T12:02:22Z</time>
      </trkpt>
      <trkpt lat="42.633802" lon="0.450998">
        <ele>2307.000000</ele>
        <time>2021-09-04T12:02:23Z</time>
      </trkpt>
      <trkpt lat="42.633800" lon="0.451000">
        <ele>2307.000000</ele>
        <time>2021-09-04T12:02:24Z</time>
      </trkpt>
      <trkpt lat="42.633795" lon="0.451065">
        <ele>2309.000000</ele>
        <time>2021-09-04T12:03:56Z</time>
      </trkpt>
      <trkpt lat="42.633795" lon="0.451078">
        <ele>2309.000000</ele>
        <time>2021-09-04T12:03:57Z</time>
      </trkpt>
      <trkpt lat="42.633795" lon="0.451090">
        <ele>2309.000000</ele>
        <time>2021-09-04T12:03:58Z</time>
      </trkpt>
      <trkpt lat="42.633795" lon="0.451100">
        <ele>2309.000000</ele>
        <time>2021-09-04T12:03:59Z</time>
      </trkpt>
      <trkpt lat="42.633797" lon="0.451107">
        <ele>2309.000000</ele>
        <time>2021-09-04T12:04:00Z</time>
      </trkpt>
      <trkpt lat="42.633801" lon="0.451113">
        <ele>2309.000000</ele>
        <time>2021-09-04T12:04:01Z</time>
      </trkpt>
      <trkpt lat="42.633808" lon="0.451113">
        <ele>2309.000000</ele>
        <time>2021-09-04T12:04:02Z</time>
      </trkpt>
      <trkpt lat="42.633815" lon="0.451117">
        <ele>2309.000000</ele>
        <time>2021-09-04T12:04:03Z</time>
      </trkpt>
      <trkpt lat="42.633818" lon="0.451120">
        <ele>2309.000000</ele>
        <time>2021-09-04T12:04:04Z</time>
      </trkpt>
      <trkpt lat="42.633813" lon="0.451120">
        <ele>2309.000000</ele>
        <time>2021-09-04T12:04:07Z</time>
      </trkpt>
      <trkpt lat="42.633808" lon="0.451121">
        <ele>2309.000000</ele>
        <time>2021-09-04T12:04:08Z</time>
      </trkpt>
      <trkpt lat="42.633805" lon="0.451123">
        <ele>2309.000000</ele>
        <time>2021-09-04T12:04:10Z</time>
      </trkpt>
      <trkpt lat="42.633797" lon="0.451032">
        <ele>2309.000000</ele>
        <time>2021-09-04T12:04:46Z</time>
      </trkpt>
      <trkpt lat="42.633803" lon="0.451028">
        <ele>2309.000000</ele>
        <time>2021-09-04T12:04:47Z</time>
      </trkpt>
      <trkpt lat="42.633815" lon="0.451022">
        <ele>2309.000000</ele>
        <time>2021-09-04T12:04:48Z</time>
      </trkpt>
      <trkpt lat="42.633820" lon="0.451017">
        <ele>2309.000000</ele>
        <time>2021-09-04T12:04:49Z</time>
      </trkpt>
      <trkpt lat="42.633827" lon="0.451017">
        <ele>2309.000000</ele>
        <time>2021-09-04T12:04:51Z</time>
      </trkpt>
      <trkpt lat="42.633832" lon="0.451012">
        <ele>2309.000000</ele>
        <time>2021-09-04T12:04:51Z</time>
      </trkpt>
      <trkpt lat="42.633837" lon="0.451012">
        <ele>2309.000000</ele>
        <time>2021-09-04T12:04:52Z</time>
      </trkpt>
      <trkpt lat="42.633840" lon="0.451012">
        <ele>2309.000000</ele>
        <time>2021-09-04T12:04:53Z</time>
      </trkpt>
      <trkpt lat="42.633838" lon="0.451012">
        <ele>2309.000000</ele>
        <time>2021-09-04T12:04:54Z</time>
      </trkpt>
      <trkpt lat="42.633835" lon="0.451014">
        <ele>2309.000000</ele>
        <time>2021-09-04T12:04:55Z</time>
      </trkpt>
      <trkpt lat="42.633833" lon="0.451014">
        <ele>2309.000000</ele>
        <time>2021-09-04T12:04:56Z</time>
      </trkpt>
      <trkpt lat="42.633830" lon="0.451014">
        <ele>2309.000000</ele>
        <time>2021-09-04T12:04:57Z</time>
      </trkpt>
      <trkpt lat="42.633830" lon="0.451015">
        <ele>2309.000000</ele>
        <time>2021-09-04T12:04:59Z</time>
      </trkpt>
      <trkpt lat="42.633827" lon="0.451015">
        <ele>2309.000000</ele>
        <time>2021-09-04T12:05:01Z</time>
      </trkpt>
      <trkpt lat="42.633830" lon="0.451014">
        <ele>2309.000000</ele>
        <time>2021-09-04T12:05:02Z</time>
      </trkpt>
      <trkpt lat="42.633837" lon="0.451045">
        <ele>2309.000000</ele>
        <time>2021-09-04T12:05:29Z</time>
      </trkpt>
      <trkpt lat="42.633832" lon="0.451040">
        <ele>2309.000000</ele>
        <time>2021-09-04T12:05:30Z</time>
      </trkpt>
      <trkpt lat="42.633825" lon="0.451035">
        <ele>2309.000000</ele>
        <time>2021-09-04T12:05:31Z</time>
      </trkpt>
      <trkpt lat="42.633820" lon="0.451034">
        <ele>2309.000000</ele>
        <time>2021-09-04T12:05:32Z</time>
      </trkpt>
      <trkpt lat="42.633815" lon="0.451030">
        <ele>2309.000000</ele>
        <time>2021-09-04T12:05:33Z</time>
      </trkpt>
      <trkpt lat="42.633807" lon="0.451025">
        <ele>2309.000000</ele>
        <time>2021-09-04T12:05:34Z</time>
      </trkpt>
      <trkpt lat="42.633803" lon="0.451022">
        <ele>2309.000000</ele>
        <time>2021-09-04T12:05:35Z</time>
      </trkpt>
      <trkpt lat="42.633802" lon="0.451019">
        <ele>2309.000000</ele>
        <time>2021-09-04T12:05:36Z</time>
      </trkpt>
      <trkpt lat="42.633802" lon="0.451018">
        <ele>2309.000000</ele>
        <time>2021-09-04T12:05:39Z</time>
      </trkpt>
      <trkpt lat="42.633797" lon="0.451016">
        <ele>2309.000000</ele>
        <time>2021-09-04T12:05:42Z</time>
      </trkpt>
      <trkpt lat="42.633798" lon="0.451018">
        <ele>2309.000000</ele>
        <time>2021-09-04T12:05:43Z</time>
      </trkpt>
      <trkpt lat="42.633743" lon="0.450958">
        <ele>2309.000000</ele>
        <time>2021-09-04T12:09:40Z</time>
      </trkpt>
      <trkpt lat="42.633733" lon="0.450948">
        <ele>2309.000000</ele>
        <time>2021-09-04T12:09:41Z</time>
      </trkpt>
      <trkpt lat="42.633725" lon="0.450943">
        <ele>2309.000000</ele>
        <time>2021-09-04T12:09:42Z</time>
      </trkpt>
      <trkpt lat="42.633717" lon="0.450941">
        <ele>2309.000000</ele>
        <time>2021-09-04T12:09:43Z</time>
      </trkpt>
      <trkpt lat="42.633707" lon="0.450942">
        <ele>2309.000000</ele>
        <time>2021-09-04T12:09:44Z</time>
      </trkpt>
      <trkpt lat="42.633698" lon="0.450952">
        <ele>2309.000000</ele>
        <time>2021-09-04T12:09:45Z</time>
      </trkpt>
      <trkpt lat="42.633690" lon="0.450958">
        <ele>2309.000000</ele>
        <time>2021-09-04T12:09:46Z</time>
      </trkpt>
      <trkpt lat="42.633682" lon="0.450963">
        <ele>2309.000000</ele>
        <time>2021-09-04T12:09:47Z</time>
      </trkpt>
      <trkpt lat="42.633680" lon="0.450965">
        <ele>2309.000000</ele>
        <time>2021-09-04T12:09:48Z</time>
      </trkpt>
      <trkpt lat="42.633680" lon="0.450967">
        <ele>2309.000000</ele>
        <time>2021-09-04T12:09:49Z</time>
      </trkpt>
      <trkpt lat="42.633680" lon="0.450968">
        <ele>2309.000000</ele>
        <time>2021-09-04T12:09:52Z</time>
      </trkpt>
      <trkpt lat="42.633685" lon="0.450977">
        <ele>2309.000000</ele>
        <time>2021-09-04T12:09:55Z</time>
      </trkpt>
      <trkpt lat="42.633685" lon="0.450977">
        <ele>2309.000000</ele>
        <time>2021-09-04T12:09:57Z</time>
      </trkpt>
      <trkpt lat="42.633683" lon="0.450975">
        <ele>2309.000000</ele>
        <time>2021-09-04T12:09:59Z</time>
      </trkpt>
      <trkpt lat="42.633745" lon="0.450962">
        <ele>2309.000000</ele>
        <time>2021-09-04T12:12:56Z</time>
      </trkpt>
      <trkpt lat="42.633750" lon="0.450972">
        <ele>2309.000000</ele>
        <time>2021-09-04T12:12:57Z</time>
      </trkpt>
      <trkpt lat="42.633752" lon="0.450974">
        <ele>2309.000000</ele>
        <time>2021-09-04T12:12:58Z</time>
      </trkpt>
      <trkpt lat="42.633748" lon="0.450970">
        <ele>2309.000000</ele>
        <time>2021-09-04T12:12:59Z</time>
      </trkpt>
      <trkpt lat="42.633748" lon="0.450971">
        <ele>2309.000000</ele>
        <time>2021-09-04T12:13:00Z</time>
      </trkpt>
      <trkpt lat="42.633750" lon="0.450975">
        <ele>2309.000000</ele>
        <time>2021-09-04T12:13:01Z</time>
      </trkpt>
      <trkpt lat="42.633752" lon="0.450978">
        <ele>2309.000000</ele>
        <time>2021-09-04T12:13:02Z</time>
      </trkpt>
      <trkpt lat="42.633753" lon="0.450978">
        <ele>2309.000000</ele>
        <time>2021-09-04T12:13:03Z</time>
      </trkpt>
      <trkpt lat="42.633757" lon="0.450977">
        <ele>2309.000000</ele>
        <time>2021-09-04T12:13:04Z</time>
      </trkpt>
      <trkpt lat="42.633765" lon="0.450973">
        <ele>2309.000000</ele>
        <time>2021-09-04T12:13:05Z</time>
      </trkpt>
      <trkpt lat="42.633770" lon="0.450973">
        <ele>2309.000000</ele>
        <time>2021-09-04T12:13:06Z</time>
      </trkpt>
      <trkpt lat="42.633772" lon="0.450975">
        <ele>2309.000000</ele>
        <time>2021-09-04T12:13:07Z</time>
      </trkpt>
      <trkpt lat="42.633778" lon="0.450982">
        <ele>2309.000000</ele>
        <time>2021-09-04T12:13:08Z</time>
      </trkpt>
      <trkpt lat="42.633785" lon="0.450988">
        <ele>2309.000000</ele>
        <time>2021-09-04T12:13:09Z</time>
      </trkpt>
      <trkpt lat="42.633788" lon="0.450997">
        <ele>2309.000000</ele>
        <time>2021-09-04T12:13:10Z</time>
      </trkpt>
      <trkpt lat="42.633788" lon="0.451010">
        <ele>2309.000000</ele>
        <time>2021-09-04T12:13:11Z</time>
      </trkpt>
      <trkpt lat="42.633790" lon="0.451017">
        <ele>2309.000000</ele>
        <time>2021-09-04T12:13:12Z</time>
      </trkpt>
      <trkpt lat="42.633792" lon="0.451020">
        <ele>2309.000000</ele>
        <time>2021-09-04T12:13:13Z</time>
      </trkpt>
      <trkpt lat="42.633792" lon="0.451027">
        <ele>2309.000000</ele>
        <time>2021-09-04T12:13:14Z</time>
      </trkpt>
      <trkpt lat="42.633790" lon="0.451028">
        <ele>2309.000000</ele>
        <time>2021-09-04T12:13:15Z</time>
      </trkpt>
      <trkpt lat="42.633787" lon="0.451028">
        <ele>2309.000000</ele>
        <time>2021-09-04T12:13:17Z</time>
      </trkpt>
      <trkpt lat="42.633788" lon="0.451027">
        <ele>2309.000000</ele>
        <time>2021-09-04T12:13:19Z</time>
      </trkpt>
      <trkpt lat="42.633762" lon="0.450973">
        <ele>2309.000000</ele>
        <time>2021-09-04T12:14:30Z</time>
      </trkpt>
      <trkpt lat="42.633753" lon="0.450963">
        <ele>2309.000000</ele>
        <time>2021-09-04T12:14:31Z</time>
      </trkpt>
      <trkpt lat="42.633748" lon="0.450952">
        <ele>2309.000000</ele>
        <time>2021-09-04T12:14:32Z</time>
      </trkpt>
      <trkpt lat="42.633745" lon="0.450943">
        <ele>2309.000000</ele>
        <time>2021-09-04T12:14:33Z</time>
      </trkpt>
      <trkpt lat="42.633743" lon="0.450935">
        <ele>2309.000000</ele>
        <time>2021-09-04T12:14:34Z</time>
      </trkpt>
      <trkpt lat="42.633745" lon="0.450930">
        <ele>2309.000000</ele>
        <time>2021-09-04T12:14:35Z</time>
      </trkpt>
      <trkpt lat="42.633743" lon="0.450923">
        <ele>2309.000000</ele>
        <time>2021-09-04T12:14:36Z</time>
      </trkpt>
      <trkpt lat="42.633743" lon="0.450915">
        <ele>2309.000000</ele>
        <time>2021-09-04T12:14:37Z</time>
      </trkpt>
      <trkpt lat="42.633742" lon="0.450905">
        <ele>2309.000000</ele>
        <time>2021-09-04T12:14:38Z</time>
      </trkpt>
      <trkpt lat="42.633740" lon="0.450895">
        <ele>2309.000000</ele>
        <time>2021-09-04T12:14:39Z</time>
      </trkpt>
      <trkpt lat="42.633737" lon="0.450887">
        <ele>2309.000000</ele>
        <time>2021-09-04T12:14:40Z</time>
      </trkpt>
      <trkpt lat="42.633735" lon="0.450880">
        <ele>2309.000000</ele>
        <time>2021-09-04T12:14:41Z</time>
      </trkpt>
      <trkpt lat="42.633732" lon="0.450872">
        <ele>2309.000000</ele>
        <time>2021-09-04T12:14:42Z</time>
      </trkpt>
      <trkpt lat="42.633732" lon="0.450867">
        <ele>2309.000000</ele>
        <time>2021-09-04T12:14:43Z</time>
      </trkpt>
      <trkpt lat="42.633733" lon="0.450862">
        <ele>2309.000000</ele>
        <time>2021-09-04T12:14:44Z</time>
      </trkpt>
      <trkpt lat="42.633734" lon="0.450855">
        <ele>2309.000000</ele>
        <time>2021-09-04T12:14:45Z</time>
      </trkpt>
      <trkpt lat="42.633745" lon="0.450850">
        <ele>2309.000000</ele>
        <time>2021-09-04T12:14:46Z</time>
      </trkpt>
      <trkpt lat="42.633750" lon="0.450845">
        <ele>2309.000000</ele>
        <time>2021-09-04T12:14:47Z</time>
      </trkpt>
      <trkpt lat="42.633757" lon="0.450838">
        <ele>2309.000000</ele>
        <time>2021-09-04T12:14:48Z</time>
      </trkpt>
      <trkpt lat="42.633762" lon="0.450835">
        <ele>2309.000000</ele>
        <time>2021-09-04T12:14:49Z</time>
      </trkpt>
      <trkpt lat="42.633763" lon="0.450828">
        <ele>2309.000000</ele>
        <time>2021-09-04T12:14:50Z</time>
      </trkpt>
      <trkpt lat="42.633767" lon="0.450827">
        <ele>2309.000000</ele>
        <time>2021-09-04T12:14:51Z</time>
      </trkpt>
      <trkpt lat="42.633770" lon="0.450823">
        <ele>2309.000000</ele>
        <time>2021-09-04T12:14:52Z</time>
      </trkpt>
      <trkpt lat="42.633772" lon="0.450820">
        <ele>2309.000000</ele>
        <time>2021-09-04T12:14:53Z</time>
      </trkpt>
      <trkpt lat="42.633775" lon="0.450817">
        <ele>2309.000000</ele>
        <time>2021-09-04T12:14:54Z</time>
      </trkpt>
      <trkpt lat="42.633773" lon="0.450813">
        <ele>2309.000000</ele>
        <time>2021-09-04T12:14:55Z</time>
      </trkpt>
      <trkpt lat="42.633770" lon="0.450810">
        <ele>2309.000000</ele>
        <time>2021-09-04T12:14:56Z</time>
      </trkpt>
      <trkpt lat="42.633765" lon="0.450805">
        <ele>2309.000000</ele>
        <time>2021-09-04T12:14:57Z</time>
      </trkpt>
      <trkpt lat="42.633762" lon="0.450802">
        <ele>2309.000000</ele>
        <time>2021-09-04T12:14:58Z</time>
      </trkpt>
      <trkpt lat="42.633763" lon="0.450795">
        <ele>2309.000000</ele>
        <time>2021-09-04T12:15:00Z</time>
      </trkpt>
      <trkpt lat="42.633765" lon="0.450792">
        <ele>2309.000000</ele>
        <time>2021-09-04T12:15:01Z</time>
      </trkpt>
      <trkpt lat="42.633765" lon="0.450787">
        <ele>2309.000000</ele>
        <time>2021-09-04T12:15:02Z</time>
      </trkpt>
      <trkpt lat="42.633766" lon="0.450783">
        <ele>2309.000000</ele>
        <time>2021-09-04T12:15:03Z</time>
      </trkpt>
      <trkpt lat="42.633765" lon="0.450780">
        <ele>2309.000000</ele>
        <time>2021-09-04T12:15:04Z</time>
      </trkpt>
      <trkpt lat="42.633765" lon="0.450777">
        <ele>2309.000000</ele>
        <time>2021-09-04T12:15:05Z</time>
      </trkpt>
      <trkpt lat="42.633766" lon="0.450773">
        <ele>2309.000000</ele>
        <time>2021-09-04T12:15:06Z</time>
      </trkpt>
      <trkpt lat="42.633766" lon="0.450765">
        <ele>2309.000000</ele>
        <time>2021-09-04T12:15:07Z</time>
      </trkpt>
      <trkpt lat="42.633767" lon="0.450760">
        <ele>2309.000000</ele>
        <time>2021-09-04T12:15:08Z</time>
      </trkpt>
      <trkpt lat="42.633768" lon="0.450753">
        <ele>2309.000000</ele>
        <time>2021-09-04T12:15:09Z</time>
      </trkpt>
      <trkpt lat="42.633772" lon="0.450752">
        <ele>2309.000000</ele>
        <time>2021-09-04T12:15:10Z</time>
      </trkpt>
      <trkpt lat="42.633773" lon="0.450748">
        <ele>2309.000000</ele>
        <time>2021-09-04T12:15:11Z</time>
      </trkpt>
      <trkpt lat="42.633772" lon="0.450747">
        <ele>2309.000000</ele>
        <time>2021-09-04T12:15:14Z</time>
      </trkpt>
      <trkpt lat="42.633769" lon="0.450745">
        <ele>2309.000000</ele>
        <time>2021-09-04T12:15:15Z</time>
      </trkpt>
      <trkpt lat="42.633768" lon="0.450747">
        <ele>2309.000000</ele>
        <time>2021-09-04T12:15:16Z</time>
      </trkpt>
      <trkpt lat="42.633763" lon="0.450745">
        <ele>2309.000000</ele>
        <time>2021-09-04T12:15:17Z</time>
      </trkpt>
      <trkpt lat="42.633760" lon="0.450742">
        <ele>2309.000000</ele>
        <time>2021-09-04T12:15:18Z</time>
      </trkpt>
      <trkpt lat="42.633755" lon="0.450732">
        <ele>2309.000000</ele>
        <time>2021-09-04T12:15:19Z</time>
      </trkpt>
      <trkpt lat="42.633752" lon="0.450725">
        <ele>2309.000000</ele>
        <time>2021-09-04T12:15:20Z</time>
      </trkpt>
      <trkpt lat="42.633744" lon="0.450717">
        <ele>2309.000000</ele>
        <time>2021-09-04T12:15:21Z</time>
      </trkpt>
      <trkpt lat="42.633738" lon="0.450712">
        <ele>2309.000000</ele>
        <time>2021-09-04T12:15:22Z</time>
      </trkpt>
      <trkpt lat="42.633730" lon="0.450703">
        <ele>2309.000000</ele>
        <time>2021-09-04T12:15:23Z</time>
      </trkpt>
      <trkpt lat="42.633723" lon="0.450698">
        <ele>2309.000000</ele>
        <time>2021-09-04T12:15:24Z</time>
      </trkpt>
      <trkpt lat="42.633717" lon="0.450693">
        <ele>2309.000000</ele>
        <time>2021-09-04T12:15:25Z</time>
      </trkpt>
      <trkpt lat="42.633713" lon="0.450692">
        <ele>2309.000000</ele>
        <time>2021-09-04T12:15:26Z</time>
      </trkpt>
      <trkpt lat="42.633710" lon="0.450690">
        <ele>2309.000000</ele>
        <time>2021-09-04T12:15:27Z</time>
      </trkpt>
      <trkpt lat="42.633707" lon="0.450686">
        <ele>2309.000000</ele>
        <time>2021-09-04T12:15:28Z</time>
      </trkpt>
      <trkpt lat="42.633700" lon="0.450681">
        <ele>2309.000000</ele>
        <time>2021-09-04T12:15:29Z</time>
      </trkpt>
      <trkpt lat="42.633690" lon="0.450675">
        <ele>2309.000000</ele>
        <time>2021-09-04T12:15:30Z</time>
      </trkpt>
      <trkpt lat="42.633678" lon="0.450667">
        <ele>2309.000000</ele>
        <time>2021-09-04T12:15:31Z</time>
      </trkpt>
      <trkpt lat="42.633667" lon="0.450657">
        <ele>2309.000000</ele>
        <time>2021-09-04T12:15:32Z</time>
      </trkpt>
      <trkpt lat="42.633652" lon="0.450649">
        <ele>2309.000000</ele>
        <time>2021-09-04T12:15:33Z</time>
      </trkpt>
      <trkpt lat="42.633638" lon="0.450641">
        <ele>2309.000000</ele>
        <time>2021-09-04T12:15:34Z</time>
      </trkpt>
      <trkpt lat="42.633627" lon="0.450635">
        <ele>2309.000000</ele>
        <time>2021-09-04T12:15:35Z</time>
      </trkpt>
      <trkpt lat="42.633618" lon="0.450632">
        <ele>2309.000000</ele>
        <time>2021-09-04T12:15:36Z</time>
      </trkpt>
      <trkpt lat="42.633608" lon="0.450627">
        <ele>2309.000000</ele>
        <time>2021-09-04T12:15:37Z</time>
      </trkpt>
      <trkpt lat="42.633598" lon="0.450623">
        <ele>2309.000000</ele>
        <time>2021-09-04T12:15:38Z</time>
      </trkpt>
      <trkpt lat="42.633588" lon="0.450618">
        <ele>2309.000000</ele>
        <time>2021-09-04T12:15:39Z</time>
      </trkpt>
      <trkpt lat="42.633580" lon="0.450613">
        <ele>2309.000000</ele>
        <time>2021-09-04T12:15:40Z</time>
      </trkpt>
      <trkpt lat="42.633575" lon="0.450609">
        <ele>2309.000000</ele>
        <time>2021-09-04T12:15:41Z</time>
      </trkpt>
      <trkpt lat="42.633573" lon="0.450606">
        <ele>2309.000000</ele>
        <time>2021-09-04T12:15:42Z</time>
      </trkpt>
      <trkpt lat="42.633573" lon="0.450583">
        <ele>2309.000000</ele>
        <time>2021-09-04T12:15:43Z</time>
      </trkpt>
      <trkpt lat="42.633572" lon="0.450578">
        <ele>2309.000000</ele>
        <time>2021-09-04T12:15:44Z</time>
      </trkpt>
      <trkpt lat="42.633568" lon="0.450567">
        <ele>2309.000000</ele>
        <time>2021-09-04T12:15:45Z</time>
      </trkpt>
      <trkpt lat="42.633565" lon="0.450558">
        <ele>2309.000000</ele>
        <time>2021-09-04T12:15:46Z</time>
      </trkpt>
      <trkpt lat="42.633563" lon="0.450550">
        <ele>2309.000000</ele>
        <time>2021-09-04T12:15:47Z</time>
      </trkpt>
      <trkpt lat="42.633562" lon="0.450540">
        <ele>2309.000000</ele>
        <time>2021-09-04T12:15:48Z</time>
      </trkpt>
      <trkpt lat="42.633562" lon="0.450530">
        <ele>2309.000000</ele>
        <time>2021-09-04T12:15:49Z</time>
      </trkpt>
      <trkpt lat="42.633563" lon="0.450522">
        <ele>2309.000000</ele>
        <time>2021-09-04T12:15:50Z</time>
      </trkpt>
      <trkpt lat="42.633567" lon="0.450517">
        <ele>2309.000000</ele>
        <time>2021-09-04T12:15:51Z</time>
      </trkpt>
      <trkpt lat="42.633570" lon="0.450508">
        <ele>2309.000000</ele>
        <time>2021-09-04T12:15:52Z</time>
      </trkpt>
      <trkpt lat="42.633570" lon="0.450502">
        <ele>2309.000000</ele>
        <time>2021-09-04T12:15:53Z</time>
      </trkpt>
      <trkpt lat="42.633571" lon="0.450493">
        <ele>2309.000000</ele>
        <time>2021-09-04T12:15:54Z</time>
      </trkpt>
      <trkpt lat="42.633572" lon="0.450488">
        <ele>2309.000000</ele>
        <time>2021-09-04T12:15:55Z</time>
      </trkpt>
      <trkpt lat="42.633572" lon="0.450483">
        <ele>2309.000000</ele>
        <time>2021-09-04T12:15:56Z</time>
      </trkpt>
      <trkpt lat="42.633570" lon="0.450473">
        <ele>2319.000000</ele>
        <time>2021-09-04T12:15:57Z</time>
      </trkpt>
      <trkpt lat="42.633569" lon="0.450468">
        <ele>2319.000000</ele>
        <time>2021-09-04T12:15:58Z</time>
      </trkpt>
      <trkpt lat="42.633565" lon="0.450467">
        <ele>2319.000000</ele>
        <time>2021-09-04T12:15:59Z</time>
      </trkpt>
      <trkpt lat="42.633560" lon="0.450463">
        <ele>2319.000000</ele>
        <time>2021-09-04T12:16:00Z</time>
      </trkpt>
      <trkpt lat="42.633557" lon="0.450462">
        <ele>2319.000000</ele>
        <time>2021-09-04T12:16:01Z</time>
      </trkpt>
      <trkpt lat="42.633552" lon="0.450457">
        <ele>2319.000000</ele>
        <time>2021-09-04T12:16:02Z</time>
      </trkpt>
      <trkpt lat="42.633546" lon="0.450447">
        <ele>2319.000000</ele>
        <time>2021-09-04T12:16:03Z</time>
      </trkpt>
      <trkpt lat="42.633543" lon="0.450445">
        <ele>2319.000000</ele>
        <time>2021-09-04T12:16:04Z</time>
      </trkpt>
      <trkpt lat="42.633539" lon="0.450438">
        <ele>2319.000000</ele>
        <time>2021-09-04T12:16:05Z</time>
      </trkpt>
      <trkpt lat="42.633535" lon="0.450433">
        <ele>2320.000000</ele>
        <time>2021-09-04T12:16:06Z</time>
      </trkpt>
      <trkpt lat="42.633533" lon="0.450430">
        <ele>2320.000000</ele>
        <time>2021-09-04T12:16:07Z</time>
      </trkpt>
      <trkpt lat="42.633528" lon="0.450420">
        <ele>2320.000000</ele>
        <time>2021-09-04T12:16:08Z</time>
      </trkpt>
      <trkpt lat="42.633523" lon="0.450408">
        <ele>2320.000000</ele>
        <time>2021-09-04T12:16:09Z</time>
      </trkpt>
      <trkpt lat="42.633517" lon="0.450393">
        <ele>2320.000000</ele>
        <time>2021-09-04T12:16:10Z</time>
      </trkpt>
      <trkpt lat="42.633507" lon="0.450378">
        <ele>2320.000000</ele>
        <time>2021-09-04T12:16:11Z</time>
      </trkpt>
      <trkpt lat="42.633499" lon="0.450367">
        <ele>2320.000000</ele>
        <time>2021-09-04T12:16:12Z</time>
      </trkpt>
      <trkpt lat="42.633491" lon="0.450355">
        <ele>2320.000000</ele>
        <time>2021-09-04T12:16:13Z</time>
      </trkpt>
      <trkpt lat="42.633481" lon="0.450342">
        <ele>2320.000000</ele>
        <time>2021-09-04T12:16:14Z</time>
      </trkpt>
      <trkpt lat="42.633468" lon="0.450332">
        <ele>2320.000000</ele>
        <time>2021-09-04T12:16:15Z</time>
      </trkpt>
      <trkpt lat="42.633462" lon="0.450322">
        <ele>2320.000000</ele>
        <time>2021-09-04T12:16:16Z</time>
      </trkpt>
      <trkpt lat="42.633457" lon="0.450316">
        <ele>2320.000000</ele>
        <time>2021-09-04T12:16:17Z</time>
      </trkpt>
      <trkpt lat="42.633453" lon="0.450313">
        <ele>2320.000000</ele>
        <time>2021-09-04T12:16:18Z</time>
      </trkpt>
      <trkpt lat="42.633448" lon="0.450307">
        <ele>2321.000000</ele>
        <time>2021-09-04T12:16:19Z</time>
      </trkpt>
      <trkpt lat="42.633447" lon="0.450300">
        <ele>2321.000000</ele>
        <time>2021-09-04T12:16:20Z</time>
      </trkpt>
      <trkpt lat="42.633448" lon="0.450290">
        <ele>2321.000000</ele>
        <time>2021-09-04T12:16:21Z</time>
      </trkpt>
      <trkpt lat="42.633450" lon="0.450278">
        <ele>2321.000000</ele>
        <time>2021-09-04T12:16:22Z</time>
      </trkpt>
      <trkpt lat="42.633452" lon="0.450270">
        <ele>2321.000000</ele>
        <time>2021-09-04T12:16:23Z</time>
      </trkpt>
      <trkpt lat="42.633452" lon="0.450260">
        <ele>2321.000000</ele>
        <time>2021-09-04T12:16:24Z</time>
      </trkpt>
      <trkpt lat="42.633449" lon="0.450245">
        <ele>2321.000000</ele>
        <time>2021-09-04T12:16:25Z</time>
      </trkpt>
      <trkpt lat="42.633444" lon="0.450230">
        <ele>2321.000000</ele>
        <time>2021-09-04T12:16:26Z</time>
      </trkpt>
      <trkpt lat="42.633442" lon="0.450218">
        <ele>2321.000000</ele>
        <time>2021-09-04T12:16:27Z</time>
      </trkpt>
      <trkpt lat="42.633437" lon="0.450205">
        <ele>2321.000000</ele>
        <time>2021-09-04T12:16:28Z</time>
      </trkpt>
      <trkpt lat="42.633430" lon="0.450193">
        <ele>2321.000000</ele>
        <time>2021-09-04T12:16:29Z</time>
      </trkpt>
      <trkpt lat="42.633418" lon="0.450185">
        <ele>2321.000000</ele>
        <time>2021-09-04T12:16:30Z</time>
      </trkpt>
      <trkpt lat="42.633408" lon="0.450180">
        <ele>2322.000000</ele>
        <time>2021-09-04T12:16:31Z</time>
      </trkpt>
      <trkpt lat="42.633397" lon="0.450168">
        <ele>2322.000000</ele>
        <time>2021-09-04T12:16:32Z</time>
      </trkpt>
      <trkpt lat="42.633387" lon="0.450158">
        <ele>2322.000000</ele>
        <time>2021-09-04T12:16:33Z</time>
      </trkpt>
      <trkpt lat="42.633380" lon="0.450152">
        <ele>2322.000000</ele>
        <time>2021-09-04T12:16:34Z</time>
      </trkpt>
      <trkpt lat="42.633377" lon="0.450146">
        <ele>2322.000000</ele>
        <time>2021-09-04T12:16:35Z</time>
      </trkpt>
      <trkpt lat="42.633377" lon="0.450135">
        <ele>2323.000000</ele>
        <time>2021-09-04T12:16:36Z</time>
      </trkpt>
      <trkpt lat="42.633377" lon="0.450128">
        <ele>2323.000000</ele>
        <time>2021-09-04T12:16:37Z</time>
      </trkpt>
      <trkpt lat="42.633377" lon="0.450120">
        <ele>2323.000000</ele>
        <time>2021-09-04T12:16:38Z</time>
      </trkpt>
      <trkpt lat="42.633377" lon="0.450115">
        <ele>2323.000000</ele>
        <time>2021-09-04T12:16:38Z</time>
      </trkpt>
      <trkpt lat="42.633377" lon="0.450108">
        <ele>2324.000000</ele>
        <time>2021-09-04T12:16:39Z</time>
      </trkpt>
      <trkpt lat="42.633378" lon="0.450107">
        <ele>2324.000000</ele>
        <time>2021-09-04T12:16:40Z</time>
      </trkpt>
      <trkpt lat="42.633383" lon="0.450102">
        <ele>2324.000000</ele>
        <time>2021-09-04T12:16:41Z</time>
      </trkpt>
      <trkpt lat="42.633390" lon="0.450097">
        <ele>2324.000000</ele>
        <time>2021-09-04T12:16:42Z</time>
      </trkpt>
      <trkpt lat="42.633393" lon="0.450092">
        <ele>2324.000000</ele>
        <time>2021-09-04T12:16:43Z</time>
      </trkpt>
      <trkpt lat="42.633393" lon="0.450088">
        <ele>2325.000000</ele>
        <time>2021-09-04T12:16:44Z</time>
      </trkpt>
      <trkpt lat="42.633394" lon="0.450087">
        <ele>2325.000000</ele>
        <time>2021-09-04T12:16:45Z</time>
      </trkpt>
      <trkpt lat="42.633393" lon="0.450087">
        <ele>2325.000000</ele>
        <time>2021-09-04T12:16:46Z</time>
      </trkpt>
      <trkpt lat="42.633388" lon="0.450080">
        <ele>2327.000000</ele>
        <time>2021-09-04T12:16:51Z</time>
      </trkpt>
      <trkpt lat="42.633388" lon="0.450077">
        <ele>2327.000000</ele>
        <time>2021-09-04T12:16:52Z</time>
      </trkpt>
      <trkpt lat="42.633390" lon="0.450085">
        <ele>2328.000000</ele>
        <time>2021-09-04T12:16:54Z</time>
      </trkpt>
      <trkpt lat="42.633362" lon="0.450083">
        <ele>2328.000000</ele>
        <time>2021-09-04T12:16:59Z</time>
      </trkpt>
      <trkpt lat="42.633357" lon="0.450088">
        <ele>2328.000000</ele>
        <time>2021-09-04T12:17:00Z</time>
      </trkpt>
      <trkpt lat="42.633353" lon="0.450095">
        <ele>2328.000000</ele>
        <time>2021-09-04T12:17:01Z</time>
      </trkpt>
      <trkpt lat="42.633348" lon="0.450103">
        <ele>2329.000000</ele>
        <time>2021-09-04T12:17:02Z</time>
      </trkpt>
      <trkpt lat="42.633345" lon="0.450107">
        <ele>2329.000000</ele>
        <time>2021-09-04T12:17:03Z</time>
      </trkpt>
      <trkpt lat="42.633343" lon="0.450111">
        <ele>2329.000000</ele>
        <time>2021-09-04T12:17:04Z</time>
      </trkpt>
      <trkpt lat="42.633337" lon="0.450110">
        <ele>2329.000000</ele>
        <time>2021-09-04T12:17:05Z</time>
      </trkpt>
      <trkpt lat="42.633330" lon="0.450108">
        <ele>2329.000000</ele>
        <time>2021-09-04T12:17:06Z</time>
      </trkpt>
      <trkpt lat="42.633325" lon="0.450102">
        <ele>2330.000000</ele>
        <time>2021-09-04T12:17:07Z</time>
      </trkpt>
      <trkpt lat="42.633322" lon="0.450100">
        <ele>2330.000000</ele>
        <time>2021-09-04T12:17:08Z</time>
      </trkpt>
      <trkpt lat="42.633317" lon="0.450095">
        <ele>2330.000000</ele>
        <time>2021-09-04T12:17:09Z</time>
      </trkpt>
      <trkpt lat="42.633315" lon="0.450090">
        <ele>2330.000000</ele>
        <time>2021-09-04T12:17:10Z</time>
      </trkpt>
      <trkpt lat="42.633313" lon="0.450085">
        <ele>2330.000000</ele>
        <time>2021-09-04T12:17:11Z</time>
      </trkpt>
      <trkpt lat="42.633312" lon="0.450080">
        <ele>2331.000000</ele>
        <time>2021-09-04T12:17:12Z</time>
      </trkpt>
      <trkpt lat="42.633307" lon="0.450077">
        <ele>2331.000000</ele>
        <time>2021-09-04T12:17:13Z</time>
      </trkpt>
      <trkpt lat="42.633300" lon="0.450073">
        <ele>2331.000000</ele>
        <time>2021-09-04T12:17:14Z</time>
      </trkpt>
      <trkpt lat="42.633293" lon="0.450073">
        <ele>2331.000000</ele>
        <time>2021-09-04T12:17:15Z</time>
      </trkpt>
      <trkpt lat="42.633287" lon="0.450077">
        <ele>2331.000000</ele>
        <time>2021-09-04T12:17:16Z</time>
      </trkpt>
      <trkpt lat="42.633282" lon="0.450078">
        <ele>2331.000000</ele>
        <time>2021-09-04T12:17:17Z</time>
      </trkpt>
      <trkpt lat="42.633277" lon="0.450083">
        <ele>2331.000000</ele>
        <time>2021-09-04T12:17:18Z</time>
      </trkpt>
      <trkpt lat="42.633270" lon="0.450085">
        <ele>2332.000000</ele>
        <time>2021-09-04T12:17:19Z</time>
      </trkpt>
      <trkpt lat="42.633265" lon="0.450083">
        <ele>2332.000000</ele>
        <time>2021-09-04T12:17:20Z</time>
      </trkpt>
      <trkpt lat="42.633262" lon="0.450079">
        <ele>2332.000000</ele>
        <time>2021-09-04T12:17:21Z</time>
      </trkpt>
      <trkpt lat="42.633258" lon="0.450073">
        <ele>2332.000000</ele>
        <time>2021-09-04T12:17:22Z</time>
      </trkpt>
      <trkpt lat="42.633257" lon="0.450072">
        <ele>2332.000000</ele>
        <time>2021-09-04T12:17:23Z</time>
      </trkpt>
      <trkpt lat="42.633255" lon="0.450070">
        <ele>2332.000000</ele>
        <time>2021-09-04T12:17:24Z</time>
      </trkpt>
      <trkpt lat="42.633252" lon="0.450072">
        <ele>2333.000000</ele>
        <time>2021-09-04T12:17:25Z</time>
      </trkpt>
      <trkpt lat="42.633248" lon="0.450072">
        <ele>2333.000000</ele>
        <time>2021-09-04T12:17:26Z</time>
      </trkpt>
      <trkpt lat="42.633245" lon="0.450073">
        <ele>2333.000000</ele>
        <time>2021-09-04T12:17:27Z</time>
      </trkpt>
      <trkpt lat="42.633242" lon="0.450075">
        <ele>2333.000000</ele>
        <time>2021-09-04T12:17:28Z</time>
      </trkpt>
      <trkpt lat="42.633238" lon="0.450080">
        <ele>2333.000000</ele>
        <time>2021-09-04T12:17:29Z</time>
      </trkpt>
      <trkpt lat="42.633233" lon="0.450083">
        <ele>2333.000000</ele>
        <time>2021-09-04T12:17:30Z</time>
      </trkpt>
      <trkpt lat="42.633232" lon="0.450080">
        <ele>2333.000000</ele>
        <time>2021-09-04T12:17:31Z</time>
      </trkpt>
      <trkpt lat="42.633228" lon="0.450079">
        <ele>2333.000000</ele>
        <time>2021-09-04T12:17:32Z</time>
      </trkpt>
      <trkpt lat="42.633225" lon="0.450078">
        <ele>2333.000000</ele>
        <time>2021-09-04T12:17:33Z</time>
      </trkpt>
      <trkpt lat="42.633228" lon="0.450079">
        <ele>2334.000000</ele>
        <time>2021-09-04T12:17:36Z</time>
      </trkpt>
      <trkpt lat="42.633287" lon="0.449900">
        <ele>2343.000000</ele>
        <time>2021-09-04T12:18:43Z</time>
      </trkpt>
      <trkpt lat="42.633288" lon="0.449892">
        <ele>2343.000000</ele>
        <time>2021-09-04T12:18:44Z</time>
      </trkpt>
      <trkpt lat="42.633292" lon="0.449887">
        <ele>2343.000000</ele>
        <time>2021-09-04T12:18:45Z</time>
      </trkpt>
      <trkpt lat="42.633293" lon="0.449878">
        <ele>2343.000000</ele>
        <time>2021-09-04T12:18:46Z</time>
      </trkpt>
      <trkpt lat="42.633290" lon="0.449867">
        <ele>2343.000000</ele>
        <time>2021-09-04T12:18:47Z</time>
      </trkpt>
      <trkpt lat="42.633292" lon="0.449857">
        <ele>2343.000000</ele>
        <time>2021-09-04T12:18:48Z</time>
      </trkpt>
      <trkpt lat="42.633293" lon="0.449845">
        <ele>2343.000000</ele>
        <time>2021-09-04T12:18:49Z</time>
      </trkpt>
      <trkpt lat="42.633295" lon="0.449835">
        <ele>2343.000000</ele>
        <time>2021-09-04T12:18:50Z</time>
      </trkpt>
      <trkpt lat="42.633299" lon="0.449827">
        <ele>2343.000000</ele>
        <time>2021-09-04T12:18:51Z</time>
      </trkpt>
      <trkpt lat="42.633303" lon="0.449820">
        <ele>2343.000000</ele>
        <time>2021-09-04T12:18:52Z</time>
      </trkpt>
      <trkpt lat="42.633315" lon="0.449817">
        <ele>2343.000000</ele>
        <time>2021-09-04T12:18:53Z</time>
      </trkpt>
      <trkpt lat="42.633325" lon="0.449813">
        <ele>2343.000000</ele>
        <time>2021-09-04T12:18:54Z</time>
      </trkpt>
      <trkpt lat="42.633325" lon="0.449805">
        <ele>2343.000000</ele>
        <time>2021-09-04T12:18:55Z</time>
      </trkpt>
      <trkpt lat="42.633322" lon="0.449797">
        <ele>2343.000000</ele>
        <time>2021-09-04T12:18:56Z</time>
      </trkpt>
      <trkpt lat="42.633324" lon="0.449787">
        <ele>2343.000000</ele>
        <time>2021-09-04T12:18:57Z</time>
      </trkpt>
      <trkpt lat="42.633327" lon="0.449778">
        <ele>2343.000000</ele>
        <time>2021-09-04T12:18:58Z</time>
      </trkpt>
      <trkpt lat="42.633325" lon="0.449773">
        <ele>2343.000000</ele>
        <time>2021-09-04T12:18:59Z</time>
      </trkpt>
      <trkpt lat="42.633323" lon="0.449770">
        <ele>2343.000000</ele>
        <time>2021-09-04T12:19:00Z</time>
      </trkpt>
      <trkpt lat="42.633322" lon="0.449765">
        <ele>2343.000000</ele>
        <time>2021-09-04T12:19:01Z</time>
      </trkpt>
      <trkpt lat="42.633315" lon="0.449755">
        <ele>2343.000000</ele>
        <time>2021-09-04T12:19:02Z</time>
      </trkpt>
      <trkpt lat="42.633310" lon="0.449750">
        <ele>2343.000000</ele>
        <time>2021-09-04T12:19:03Z</time>
      </trkpt>
      <trkpt lat="42.633310" lon="0.449743">
        <ele>2343.000000</ele>
        <time>2021-09-04T12:19:04Z</time>
      </trkpt>
      <trkpt lat="42.633311" lon="0.449733">
        <ele>2343.000000</ele>
        <time>2021-09-04T12:19:05Z</time>
      </trkpt>
      <trkpt lat="42.633312" lon="0.449723">
        <ele>2343.000000</ele>
        <time>2021-09-04T12:19:06Z</time>
      </trkpt>
      <trkpt lat="42.633312" lon="0.449717">
        <ele>2343.000000</ele>
        <time>2021-09-04T12:19:07Z</time>
      </trkpt>
      <trkpt lat="42.633313" lon="0.449710">
        <ele>2343.000000</ele>
        <time>2021-09-04T12:19:08Z</time>
      </trkpt>
      <trkpt lat="42.633315" lon="0.449702">
        <ele>2343.000000</ele>
        <time>2021-09-04T12:19:09Z</time>
      </trkpt>
      <trkpt lat="42.633325" lon="0.449692">
        <ele>2343.000000</ele>
        <time>2021-09-04T12:19:10Z</time>
      </trkpt>
      <trkpt lat="42.633332" lon="0.449688">
        <ele>2343.000000</ele>
        <time>2021-09-04T12:19:11Z</time>
      </trkpt>
      <trkpt lat="42.633330" lon="0.449683">
        <ele>2343.000000</ele>
        <time>2021-09-04T12:19:12Z</time>
      </trkpt>
      <trkpt lat="42.633328" lon="0.449678">
        <ele>2343.000000</ele>
        <time>2021-09-04T12:19:13Z</time>
      </trkpt>
      <trkpt lat="42.633328" lon="0.449667">
        <ele>2343.000000</ele>
        <time>2021-09-04T12:19:14Z</time>
      </trkpt>
      <trkpt lat="42.633329" lon="0.449655">
        <ele>2343.000000</ele>
        <time>2021-09-04T12:19:15Z</time>
      </trkpt>
      <trkpt lat="42.633328" lon="0.449642">
        <ele>2343.000000</ele>
        <time>2021-09-04T12:19:16Z</time>
      </trkpt>
      <trkpt lat="42.633328" lon="0.449635">
        <ele>2343.000000</ele>
        <time>2021-09-04T12:19:17Z</time>
      </trkpt>
      <trkpt lat="42.633327" lon="0.449625">
        <ele>2343.000000</ele>
        <time>2021-09-04T12:19:18Z</time>
      </trkpt>
      <trkpt lat="42.633327" lon="0.449615">
        <ele>2343.000000</ele>
        <time>2021-09-04T12:19:19Z</time>
      </trkpt>
      <trkpt lat="42.633326" lon="0.449607">
        <ele>2343.000000</ele>
        <time>2021-09-04T12:19:20Z</time>
      </trkpt>
      <trkpt lat="42.633325" lon="0.449593">
        <ele>2343.000000</ele>
        <time>2021-09-04T12:19:21Z</time>
      </trkpt>
      <trkpt lat="42.633324" lon="0.449582">
        <ele>2343.000000</ele>
        <time>2021-09-04T12:19:22Z</time>
      </trkpt>
      <trkpt lat="42.633322" lon="0.449570">
        <ele>2343.000000</ele>
        <time>2021-09-04T12:19:23Z</time>
      </trkpt>
      <trkpt lat="42.633321" lon="0.449560">
        <ele>2343.000000</ele>
        <time>2021-09-04T12:19:24Z</time>
      </trkpt>
      <trkpt lat="42.633321" lon="0.449555">
        <ele>2343.000000</ele>
        <time>2021-09-04T12:19:25Z</time>
      </trkpt>
      <trkpt lat="42.633320" lon="0.449543">
        <ele>2343.000000</ele>
        <time>2021-09-04T12:19:26Z</time>
      </trkpt>
      <trkpt lat="42.633321" lon="0.449533">
        <ele>2343.000000</ele>
        <time>2021-09-04T12:19:27Z</time>
      </trkpt>
      <trkpt lat="42.633322" lon="0.449523">
        <ele>2343.000000</ele>
        <time>2021-09-04T12:19:28Z</time>
      </trkpt>
      <trkpt lat="42.633323" lon="0.449515">
        <ele>2343.000000</ele>
        <time>2021-09-04T12:19:29Z</time>
      </trkpt>
      <trkpt lat="42.633324" lon="0.449508">
        <ele>2343.000000</ele>
        <time>2021-09-04T12:19:30Z</time>
      </trkpt>
      <trkpt lat="42.633326" lon="0.449503">
        <ele>2343.000000</ele>
        <time>2021-09-04T12:19:31Z</time>
      </trkpt>
      <trkpt lat="42.633327" lon="0.449495">
        <ele>2343.000000</ele>
        <time>2021-09-04T12:19:32Z</time>
      </trkpt>
      <trkpt lat="42.633328" lon="0.449488">
        <ele>2343.000000</ele>
        <time>2021-09-04T12:19:33Z</time>
      </trkpt>
      <trkpt lat="42.633329" lon="0.449477">
        <ele>2343.000000</ele>
        <time>2021-09-04T12:19:34Z</time>
      </trkpt>
      <trkpt lat="42.633330" lon="0.449468">
        <ele>2343.000000</ele>
        <time>2021-09-04T12:19:35Z</time>
      </trkpt>
      <trkpt lat="42.633332" lon="0.449465">
        <ele>2343.000000</ele>
        <time>2021-09-04T12:19:36Z</time>
      </trkpt>
      <trkpt lat="42.633334" lon="0.449462">
        <ele>2343.000000</ele>
        <time>2021-09-04T12:19:37Z</time>
      </trkpt>
      <trkpt lat="42.633358" lon="0.449455">
        <ele>2343.000000</ele>
        <time>2021-09-04T12:19:38Z</time>
      </trkpt>
      <trkpt lat="42.633360" lon="0.449449">
        <ele>2343.000000</ele>
        <time>2021-09-04T12:19:39Z</time>
      </trkpt>
      <trkpt lat="42.633362" lon="0.449440">
        <ele>2343.000000</ele>
        <time>2021-09-04T12:19:40Z</time>
      </trkpt>
      <trkpt lat="42.633360" lon="0.449428">
        <ele>2343.000000</ele>
        <time>2021-09-04T12:19:41Z</time>
      </trkpt>
      <trkpt lat="42.633357" lon="0.449413">
        <ele>2343.000000</ele>
        <time>2021-09-04T12:19:42Z</time>
      </trkpt>
      <trkpt lat="42.633353" lon="0.449400">
        <ele>2343.000000</ele>
        <time>2021-09-04T12:19:43Z</time>
      </trkpt>
      <trkpt lat="42.633353" lon="0.449383">
        <ele>2343.000000</ele>
        <time>2021-09-04T12:19:44Z</time>
      </trkpt>
      <trkpt lat="42.633350" lon="0.449368">
        <ele>2343.000000</ele>
        <time>2021-09-04T12:19:45Z</time>
      </trkpt>
      <trkpt lat="42.633357" lon="0.449353">
        <ele>2343.000000</ele>
        <time>2021-09-04T12:19:46Z</time>
      </trkpt>
      <trkpt lat="42.633362" lon="0.449342">
        <ele>2343.000000</ele>
        <time>2021-09-04T12:19:47Z</time>
      </trkpt>
      <trkpt lat="42.633368" lon="0.449332">
        <ele>2343.000000</ele>
        <time>2021-09-04T12:19:48Z</time>
      </trkpt>
      <trkpt lat="42.633373" lon="0.449327">
        <ele>2343.000000</ele>
        <time>2021-09-04T12:19:49Z</time>
      </trkpt>
      <trkpt lat="42.633380" lon="0.449322">
        <ele>2343.000000</ele>
        <time>2021-09-04T12:19:50Z</time>
      </trkpt>
      <trkpt lat="42.633388" lon="0.449320">
        <ele>2343.000000</ele>
        <time>2021-09-04T12:19:51Z</time>
      </trkpt>
      <trkpt lat="42.633395" lon="0.449313">
        <ele>2343.000000</ele>
        <time>2021-09-04T12:19:52Z</time>
      </trkpt>
      <trkpt lat="42.633402" lon="0.449310">
        <ele>2343.000000</ele>
        <time>2021-09-04T12:19:53Z</time>
      </trkpt>
      <trkpt lat="42.633403" lon="0.449306">
        <ele>2343.000000</ele>
        <time>2021-09-04T12:19:54Z</time>
      </trkpt>
      <trkpt lat="42.633403" lon="0.449304">
        <ele>2343.000000</ele>
        <time>2021-09-04T12:19:55Z</time>
      </trkpt>
      <trkpt lat="42.633407" lon="0.449299">
        <ele>2343.000000</ele>
        <time>2021-09-04T12:19:56Z</time>
      </trkpt>
      <trkpt lat="42.633410" lon="0.449295">
        <ele>2343.000000</ele>
        <time>2021-09-04T12:19:57Z</time>
      </trkpt>
      <trkpt lat="42.633415" lon="0.449288">
        <ele>2343.000000</ele>
        <time>2021-09-04T12:19:58Z</time>
      </trkpt>
      <trkpt lat="42.633423" lon="0.449282">
        <ele>2343.000000</ele>
        <time>2021-09-04T12:19:59Z</time>
      </trkpt>
      <trkpt lat="42.633428" lon="0.449278">
        <ele>2343.000000</ele>
        <time>2021-09-04T12:20:00Z</time>
      </trkpt>
      <trkpt lat="42.633432" lon="0.449276">
        <ele>2343.000000</ele>
        <time>2021-09-04T12:20:01Z</time>
      </trkpt>
      <trkpt lat="42.633438" lon="0.449271">
        <ele>2343.000000</ele>
        <time>2021-09-04T12:20:02Z</time>
      </trkpt>
      <trkpt lat="42.633440" lon="0.449269">
        <ele>2343.000000</ele>
        <time>2021-09-04T12:20:03Z</time>
      </trkpt>
      <trkpt lat="42.633442" lon="0.449260">
        <ele>2343.000000</ele>
        <time>2021-09-04T12:20:04Z</time>
      </trkpt>
      <trkpt lat="42.633442" lon="0.449245">
        <ele>2343.000000</ele>
        <time>2021-09-04T12:20:05Z</time>
      </trkpt>
      <trkpt lat="42.633442" lon="0.449235">
        <ele>2343.000000</ele>
        <time>2021-09-04T12:20:06Z</time>
      </trkpt>
      <trkpt lat="42.633445" lon="0.449220">
        <ele>2343.000000</ele>
        <time>2021-09-04T12:20:07Z</time>
      </trkpt>
      <trkpt lat="42.633445" lon="0.449205">
        <ele>2343.000000</ele>
        <time>2021-09-04T12:20:08Z</time>
      </trkpt>
      <trkpt lat="42.633440" lon="0.449190">
        <ele>2343.000000</ele>
        <time>2021-09-04T12:20:09Z</time>
      </trkpt>
      <trkpt lat="42.633435" lon="0.449173">
        <ele>2343.000000</ele>
        <time>2021-09-04T12:20:10Z</time>
      </trkpt>
      <trkpt lat="42.633433" lon="0.449158">
        <ele>2343.000000</ele>
        <time>2021-09-04T12:20:11Z</time>
      </trkpt>
      <trkpt lat="42.633430" lon="0.449143">
        <ele>2343.000000</ele>
        <time>2021-09-04T12:20:12Z</time>
      </trkpt>
      <trkpt lat="42.633428" lon="0.449128">
        <ele>2343.000000</ele>
        <time>2021-09-04T12:20:14Z</time>
      </trkpt>
      <trkpt lat="42.633426" lon="0.449110">
        <ele>2343.000000</ele>
        <time>2021-09-04T12:20:14Z</time>
      </trkpt>
      <trkpt lat="42.633426" lon="0.449097">
        <ele>2343.000000</ele>
        <time>2021-09-04T12:20:15Z</time>
      </trkpt>
      <trkpt lat="42.633426" lon="0.449083">
        <ele>2343.000000</ele>
        <time>2021-09-04T12:20:16Z</time>
      </trkpt>
      <trkpt lat="42.633427" lon="0.449070">
        <ele>2343.000000</ele>
        <time>2021-09-04T12:20:17Z</time>
      </trkpt>
      <trkpt lat="42.633427" lon="0.449057">
        <ele>2343.000000</ele>
        <time>2021-09-04T12:20:18Z</time>
      </trkpt>
      <trkpt lat="42.633427" lon="0.449042">
        <ele>2343.000000</ele>
        <time>2021-09-04T12:20:19Z</time>
      </trkpt>
      <trkpt lat="42.633427" lon="0.449028">
        <ele>2343.000000</ele>
        <time>2021-09-04T12:20:20Z</time>
      </trkpt>
      <trkpt lat="42.633428" lon="0.449017">
        <ele>2343.000000</ele>
        <time>2021-09-04T12:20:21Z</time>
      </trkpt>
      <trkpt lat="42.633429" lon="0.449005">
        <ele>2343.000000</ele>
        <time>2021-09-04T12:20:22Z</time>
      </trkpt>
      <trkpt lat="42.633429" lon="0.448995">
        <ele>2343.000000</ele>
        <time>2021-09-04T12:20:23Z</time>
      </trkpt>
      <trkpt lat="42.633428" lon="0.448987">
        <ele>2343.000000</ele>
        <time>2021-09-04T12:20:24Z</time>
      </trkpt>
      <trkpt lat="42.633428" lon="0.448973">
        <ele>2343.000000</ele>
        <time>2021-09-04T12:20:25Z</time>
      </trkpt>
      <trkpt lat="42.633430" lon="0.448962">
        <ele>2343.000000</ele>
        <time>2021-09-04T12:20:26Z</time>
      </trkpt>
      <trkpt lat="42.633433" lon="0.448953">
        <ele>2343.000000</ele>
        <time>2021-09-04T12:20:27Z</time>
      </trkpt>
      <trkpt lat="42.633453" lon="0.448947">
        <ele>2343.000000</ele>
        <time>2021-09-04T12:20:28Z</time>
      </trkpt>
      <trkpt lat="42.633457" lon="0.448933">
        <ele>2343.000000</ele>
        <time>2021-09-04T12:20:29Z</time>
      </trkpt>
      <trkpt lat="42.633462" lon="0.448920">
        <ele>2343.000000</ele>
        <time>2021-09-04T12:20:30Z</time>
      </trkpt>
      <trkpt lat="42.633468" lon="0.448908">
        <ele>2343.000000</ele>
        <time>2021-09-04T12:20:31Z</time>
      </trkpt>
      <trkpt lat="42.633474" lon="0.448898">
        <ele>2343.000000</ele>
        <time>2021-09-04T12:20:32Z</time>
      </trkpt>
      <trkpt lat="42.633480" lon="0.448883">
        <ele>2343.000000</ele>
        <time>2021-09-04T12:20:33Z</time>
      </trkpt>
      <trkpt lat="42.633485" lon="0.448870">
        <ele>2343.000000</ele>
        <time>2021-09-04T12:20:34Z</time>
      </trkpt>
      <trkpt lat="42.633490" lon="0.448858">
        <ele>2343.000000</ele>
        <time>2021-09-04T12:20:35Z</time>
      </trkpt>
      <trkpt lat="42.633495" lon="0.448848">
        <ele>2343.000000</ele>
        <time>2021-09-04T12:20:36Z</time>
      </trkpt>
      <trkpt lat="42.633501" lon="0.448835">
        <ele>2343.000000</ele>
        <time>2021-09-04T12:20:37Z</time>
      </trkpt>
      <trkpt lat="42.633507" lon="0.448823">
        <ele>2344.000000</ele>
        <time>2021-09-04T12:20:38Z</time>
      </trkpt>
      <trkpt lat="42.633512" lon="0.448810">
        <ele>2344.000000</ele>
        <time>2021-09-04T12:20:39Z</time>
      </trkpt>
      <trkpt lat="42.633515" lon="0.448802">
        <ele>2344.000000</ele>
        <time>2021-09-04T12:20:40Z</time>
      </trkpt>
      <trkpt lat="42.633518" lon="0.448790">
        <ele>2344.000000</ele>
        <time>2021-09-04T12:20:41Z</time>
      </trkpt>
      <trkpt lat="42.633519" lon="0.448780">
        <ele>2344.000000</ele>
        <time>2021-09-04T12:20:42Z</time>
      </trkpt>
      <trkpt lat="42.633508" lon="0.448773">
        <ele>2344.000000</ele>
        <time>2021-09-04T12:20:43Z</time>
      </trkpt>
      <trkpt lat="42.633507" lon="0.448763">
        <ele>2344.000000</ele>
        <time>2021-09-04T12:20:44Z</time>
      </trkpt>
      <trkpt lat="42.633505" lon="0.448753">
        <ele>2344.000000</ele>
        <time>2021-09-04T12:20:45Z</time>
      </trkpt>
      <trkpt lat="42.633503" lon="0.448742">
        <ele>2344.000000</ele>
        <time>2021-09-04T12:20:46Z</time>
      </trkpt>
      <trkpt lat="42.633504" lon="0.448732">
        <ele>2344.000000</ele>
        <time>2021-09-04T12:20:47Z</time>
      </trkpt>
      <trkpt lat="42.633505" lon="0.448720">
        <ele>2344.000000</ele>
        <time>2021-09-04T12:20:48Z</time>
      </trkpt>
      <trkpt lat="42.633506" lon="0.448707">
        <ele>2344.000000</ele>
        <time>2021-09-04T12:20:49Z</time>
      </trkpt>
      <trkpt lat="42.633507" lon="0.448695">
        <ele>2344.000000</ele>
        <time>2021-09-04T12:20:50Z</time>
      </trkpt>
      <trkpt lat="42.633509" lon="0.448685">
        <ele>2344.000000</ele>
        <time>2021-09-04T12:20:51Z</time>
      </trkpt>
      <trkpt lat="42.633510" lon="0.448673">
        <ele>2344.000000</ele>
        <time>2021-09-04T12:20:52Z</time>
      </trkpt>
      <trkpt lat="42.633511" lon="0.448665">
        <ele>2344.000000</ele>
        <time>2021-09-04T12:20:53Z</time>
      </trkpt>
      <trkpt lat="42.633512" lon="0.448658">
        <ele>2344.000000</ele>
        <time>2021-09-04T12:20:53Z</time>
      </trkpt>
      <trkpt lat="42.633511" lon="0.448650">
        <ele>2344.000000</ele>
        <time>2021-09-04T12:20:54Z</time>
      </trkpt>
      <trkpt lat="42.633511" lon="0.448642">
        <ele>2344.000000</ele>
        <time>2021-09-04T12:20:55Z</time>
      </trkpt>
      <trkpt lat="42.633510" lon="0.448638">
        <ele>2345.000000</ele>
        <time>2021-09-04T12:20:56Z</time>
      </trkpt>
      <trkpt lat="42.633510" lon="0.448633">
        <ele>2345.000000</ele>
        <time>2021-09-04T12:20:57Z</time>
      </trkpt>
      <trkpt lat="42.633509" lon="0.448622">
        <ele>2345.000000</ele>
        <time>2021-09-04T12:20:58Z</time>
      </trkpt>
      <trkpt lat="42.633508" lon="0.448610">
        <ele>2345.000000</ele>
        <time>2021-09-04T12:20:59Z</time>
      </trkpt>
      <trkpt lat="42.633507" lon="0.448600">
        <ele>2345.000000</ele>
        <time>2021-09-04T12:21:00Z</time>
      </trkpt>
      <trkpt lat="42.633506" lon="0.448592">
        <ele>2345.000000</ele>
        <time>2021-09-04T12:21:01Z</time>
      </trkpt>
      <trkpt lat="42.633505" lon="0.448580">
        <ele>2345.000000</ele>
        <time>2021-09-04T12:21:02Z</time>
      </trkpt>
      <trkpt lat="42.633504" lon="0.448565">
        <ele>2345.000000</ele>
        <time>2021-09-04T12:21:03Z</time>
      </trkpt>
      <trkpt lat="42.633502" lon="0.448552">
        <ele>2345.000000</ele>
        <time>2021-09-04T12:21:04Z</time>
      </trkpt>
      <trkpt lat="42.633501" lon="0.448540">
        <ele>2345.000000</ele>
        <time>2021-09-04T12:21:05Z</time>
      </trkpt>
      <trkpt lat="42.633500" lon="0.448528">
        <ele>2345.000000</ele>
        <time>2021-09-04T12:21:06Z</time>
      </trkpt>
      <trkpt lat="42.633499" lon="0.448518">
        <ele>2345.000000</ele>
        <time>2021-09-04T12:21:07Z</time>
      </trkpt>
      <trkpt lat="42.633497" lon="0.448507">
        <ele>2346.000000</ele>
        <time>2021-09-04T12:21:08Z</time>
      </trkpt>
      <trkpt lat="42.633495" lon="0.448492">
        <ele>2346.000000</ele>
        <time>2021-09-04T12:21:09Z</time>
      </trkpt>
      <trkpt lat="42.633494" lon="0.448478">
        <ele>2346.000000</ele>
        <time>2021-09-04T12:21:10Z</time>
      </trkpt>
      <trkpt lat="42.633493" lon="0.448472">
        <ele>2346.000000</ele>
        <time>2021-09-04T12:21:11Z</time>
      </trkpt>
      <trkpt lat="42.633492" lon="0.448458">
        <ele>2346.000000</ele>
        <time>2021-09-04T12:21:12Z</time>
      </trkpt>
      <trkpt lat="42.633490" lon="0.448442">
        <ele>2346.000000</ele>
        <time>2021-09-04T12:21:13Z</time>
      </trkpt>
      <trkpt lat="42.633488" lon="0.448430">
        <ele>2346.000000</ele>
        <time>2021-09-04T12:21:14Z</time>
      </trkpt>
      <trkpt lat="42.633487" lon="0.448418">
        <ele>2346.000000</ele>
        <time>2021-09-04T12:21:15Z</time>
      </trkpt>
      <trkpt lat="42.633487" lon="0.448407">
        <ele>2347.000000</ele>
        <time>2021-09-04T12:21:16Z</time>
      </trkpt>
      <trkpt lat="42.633486" lon="0.448393">
        <ele>2347.000000</ele>
        <time>2021-09-04T12:21:17Z</time>
      </trkpt>
      <trkpt lat="42.633490" lon="0.448375">
        <ele>2347.000000</ele>
        <time>2021-09-04T12:21:18Z</time>
      </trkpt>
      <trkpt lat="42.633490" lon="0.448360">
        <ele>2347.000000</ele>
        <time>2021-09-04T12:21:19Z</time>
      </trkpt>
      <trkpt lat="42.633490" lon="0.448347">
        <ele>2347.000000</ele>
        <time>2021-09-04T12:21:20Z</time>
      </trkpt>
      <trkpt lat="42.633491" lon="0.448337">
        <ele>2347.000000</ele>
        <time>2021-09-04T12:21:21Z</time>
      </trkpt>
      <trkpt lat="42.633493" lon="0.448328">
        <ele>2347.000000</ele>
        <time>2021-09-04T12:21:22Z</time>
      </trkpt>
      <trkpt lat="42.633496" lon="0.448327">
        <ele>2347.000000</ele>
        <time>2021-09-04T12:21:23Z</time>
      </trkpt>
      <trkpt lat="42.633498" lon="0.448325">
        <ele>2347.000000</ele>
        <time>2021-09-04T12:21:24Z</time>
      </trkpt>
      <trkpt lat="42.633500" lon="0.448320">
        <ele>2347.000000</ele>
        <time>2021-09-04T12:21:27Z</time>
      </trkpt>
      <trkpt lat="42.633502" lon="0.448317">
        <ele>2347.000000</ele>
        <time>2021-09-04T12:21:28Z</time>
      </trkpt>
      <trkpt lat="42.633504" lon="0.448312">
        <ele>2347.000000</ele>
        <time>2021-09-04T12:21:30Z</time>
      </trkpt>
      <trkpt lat="42.633506" lon="0.448308">
        <ele>2347.000000</ele>
        <time>2021-09-04T12:21:31Z</time>
      </trkpt>
      <trkpt lat="42.633509" lon="0.448305">
        <ele>2347.000000</ele>
        <time>2021-09-04T12:21:32Z</time>
      </trkpt>
      <trkpt lat="42.633514" lon="0.448292">
        <ele>2347.000000</ele>
        <time>2021-09-04T12:21:33Z</time>
      </trkpt>
      <trkpt lat="42.633518" lon="0.448278">
        <ele>2347.000000</ele>
        <time>2021-09-04T12:21:34Z</time>
      </trkpt>
      <trkpt lat="42.633521" lon="0.448268">
        <ele>2347.000000</ele>
        <time>2021-09-04T12:21:35Z</time>
      </trkpt>
      <trkpt lat="42.633526" lon="0.448250">
        <ele>2347.000000</ele>
        <time>2021-09-04T12:21:36Z</time>
      </trkpt>
      <trkpt lat="42.633530" lon="0.448237">
        <ele>2347.000000</ele>
        <time>2021-09-04T12:21:37Z</time>
      </trkpt>
      <trkpt lat="42.633533" lon="0.448223">
        <ele>2347.000000</ele>
        <time>2021-09-04T12:21:38Z</time>
      </trkpt>
      <trkpt lat="42.633536" lon="0.448208">
        <ele>2347.000000</ele>
        <time>2021-09-04T12:21:39Z</time>
      </trkpt>
      <trkpt lat="42.633537" lon="0.448195">
        <ele>2348.000000</ele>
        <time>2021-09-04T12:21:40Z</time>
      </trkpt>
      <trkpt lat="42.633537" lon="0.448185">
        <ele>2348.000000</ele>
        <time>2021-09-04T12:21:41Z</time>
      </trkpt>
      <trkpt lat="42.633538" lon="0.448175">
        <ele>2348.000000</ele>
        <time>2021-09-04T12:21:42Z</time>
      </trkpt>
      <trkpt lat="42.633537" lon="0.448165">
        <ele>2348.000000</ele>
        <time>2021-09-04T12:21:43Z</time>
      </trkpt>
      <trkpt lat="42.633538" lon="0.448152">
        <ele>2348.000000</ele>
        <time>2021-09-04T12:21:44Z</time>
      </trkpt>
      <trkpt lat="42.633538" lon="0.448142">
        <ele>2348.000000</ele>
        <time>2021-09-04T12:21:45Z</time>
      </trkpt>
      <trkpt lat="42.633538" lon="0.448130">
        <ele>2348.000000</ele>
        <time>2021-09-04T12:21:46Z</time>
      </trkpt>
      <trkpt lat="42.633538" lon="0.448120">
        <ele>2348.000000</ele>
        <time>2021-09-04T12:21:47Z</time>
      </trkpt>
      <trkpt lat="42.633538" lon="0.448107">
        <ele>2348.000000</ele>
        <time>2021-09-04T12:21:48Z</time>
      </trkpt>
      <trkpt lat="42.633545" lon="0.448095">
        <ele>2348.000000</ele>
        <time>2021-09-04T12:21:49Z</time>
      </trkpt>
      <trkpt lat="42.633555" lon="0.448090">
        <ele>2349.000000</ele>
        <time>2021-09-04T12:21:50Z</time>
      </trkpt>
      <trkpt lat="42.633563" lon="0.448087">
        <ele>2349.000000</ele>
        <time>2021-09-04T12:21:51Z</time>
      </trkpt>
      <trkpt lat="42.633573" lon="0.448085">
        <ele>2349.000000</ele>
        <time>2021-09-04T12:21:52Z</time>
      </trkpt>
      <trkpt lat="42.633583" lon="0.448078">
        <ele>2349.000000</ele>
        <time>2021-09-04T12:21:53Z</time>
      </trkpt>
      <trkpt lat="42.633593" lon="0.448072">
        <ele>2349.000000</ele>
        <time>2021-09-04T12:21:54Z</time>
      </trkpt>
      <trkpt lat="42.633602" lon="0.448068">
        <ele>2349.000000</ele>
        <time>2021-09-04T12:21:55Z</time>
      </trkpt>
      <trkpt lat="42.633613" lon="0.448063">
        <ele>2350.000000</ele>
        <time>2021-09-04T12:21:56Z</time>
      </trkpt>
      <trkpt lat="42.633628" lon="0.448065">
        <ele>2350.000000</ele>
        <time>2021-09-04T12:21:57Z</time>
      </trkpt>
      <trkpt lat="42.633638" lon="0.448060">
        <ele>2350.000000</ele>
        <time>2021-09-04T12:21:58Z</time>
      </trkpt>
      <trkpt lat="42.633645" lon="0.448054">
        <ele>2350.000000</ele>
        <time>2021-09-04T12:21:59Z</time>
      </trkpt>
      <trkpt lat="42.633653" lon="0.448046">
        <ele>2350.000000</ele>
        <time>2021-09-04T12:22:00Z</time>
      </trkpt>
      <trkpt lat="42.633658" lon="0.448040">
        <ele>2350.000000</ele>
        <time>2021-09-04T12:22:01Z</time>
      </trkpt>
      <trkpt lat="42.633667" lon="0.448032">
        <ele>2350.000000</ele>
        <time>2021-09-04T12:22:02Z</time>
      </trkpt>
      <trkpt lat="42.633675" lon="0.448026">
        <ele>2351.000000</ele>
        <time>2021-09-04T12:22:03Z</time>
      </trkpt>
      <trkpt lat="42.633683" lon="0.448020">
        <ele>2351.000000</ele>
        <time>2021-09-04T12:22:04Z</time>
      </trkpt>
      <trkpt lat="42.633690" lon="0.448015">
        <ele>2351.000000</ele>
        <time>2021-09-04T12:22:05Z</time>
      </trkpt>
      <trkpt lat="42.633700" lon="0.448008">
        <ele>2351.000000</ele>
        <time>2021-09-04T12:22:06Z</time>
      </trkpt>
      <trkpt lat="42.633710" lon="0.448001">
        <ele>2351.000000</ele>
        <time>2021-09-04T12:22:07Z</time>
      </trkpt>
      <trkpt lat="42.633718" lon="0.447994">
        <ele>2351.000000</ele>
        <time>2021-09-04T12:22:08Z</time>
      </trkpt>
      <trkpt lat="42.633725" lon="0.447987">
        <ele>2352.000000</ele>
        <time>2021-09-04T12:22:09Z</time>
      </trkpt>
      <trkpt lat="42.633733" lon="0.447980">
        <ele>2352.000000</ele>
        <time>2021-09-04T12:22:10Z</time>
      </trkpt>
      <trkpt lat="42.633743" lon="0.447972">
        <ele>2352.000000</ele>
        <time>2021-09-04T12:22:11Z</time>
      </trkpt>
      <trkpt lat="42.633752" lon="0.447966">
        <ele>2352.000000</ele>
        <time>2021-09-04T12:22:12Z</time>
      </trkpt>
      <trkpt lat="42.633758" lon="0.447960">
        <ele>2352.000000</ele>
        <time>2021-09-04T12:22:13Z</time>
      </trkpt>
      <trkpt lat="42.633762" lon="0.447956">
        <ele>2352.000000</ele>
        <time>2021-09-04T12:22:14Z</time>
      </trkpt>
      <trkpt lat="42.633763" lon="0.447954">
        <ele>2352.000000</ele>
        <time>2021-09-04T12:22:15Z</time>
      </trkpt>
      <trkpt lat="42.633772" lon="0.447945">
        <ele>2352.000000</ele>
        <time>2021-09-04T12:22:16Z</time>
      </trkpt>
      <trkpt lat="42.633780" lon="0.447937">
        <ele>2352.000000</ele>
        <time>2021-09-04T12:22:17Z</time>
      </trkpt>
      <trkpt lat="42.633792" lon="0.447927">
        <ele>2352.000000</ele>
        <time>2021-09-04T12:22:18Z</time>
      </trkpt>
      <trkpt lat="42.633800" lon="0.447920">
        <ele>2352.000000</ele>
        <time>2021-09-04T12:22:19Z</time>
      </trkpt>
      <trkpt lat="42.633815" lon="0.447907">
        <ele>2352.000000</ele>
        <time>2021-09-04T12:22:20Z</time>
      </trkpt>
      <trkpt lat="42.633830" lon="0.447896">
        <ele>2352.000000</ele>
        <time>2021-09-04T12:22:21Z</time>
      </trkpt>
      <trkpt lat="42.633840" lon="0.447887">
        <ele>2353.000000</ele>
        <time>2021-09-04T12:22:22Z</time>
      </trkpt>
      <trkpt lat="42.633848" lon="0.447880">
        <ele>2353.000000</ele>
        <time>2021-09-04T12:22:23Z</time>
      </trkpt>
      <trkpt lat="42.633860" lon="0.447870">
        <ele>2353.000000</ele>
        <time>2021-09-04T12:22:24Z</time>
      </trkpt>
      <trkpt lat="42.633870" lon="0.447863">
        <ele>2353.000000</ele>
        <time>2021-09-04T12:22:25Z</time>
      </trkpt>
      <trkpt lat="42.633882" lon="0.447855">
        <ele>2353.000000</ele>
        <time>2021-09-04T12:22:26Z</time>
      </trkpt>
      <trkpt lat="42.633890" lon="0.447849">
        <ele>2353.000000</ele>
        <time>2021-09-04T12:22:27Z</time>
      </trkpt>
      <trkpt lat="42.633902" lon="0.447842">
        <ele>2353.000000</ele>
        <time>2021-09-04T12:22:28Z</time>
      </trkpt>
      <trkpt lat="42.633908" lon="0.447837">
        <ele>2353.000000</ele>
        <time>2021-09-04T12:22:29Z</time>
      </trkpt>
      <trkpt lat="42.633917" lon="0.447831">
        <ele>2353.000000</ele>
        <time>2021-09-04T12:22:30Z</time>
      </trkpt>
      <trkpt lat="42.633923" lon="0.447826">
        <ele>2353.000000</ele>
        <time>2021-09-04T12:22:31Z</time>
      </trkpt>
      <trkpt lat="42.633930" lon="0.447819">
        <ele>2353.000000</ele>
        <time>2021-09-04T12:22:32Z</time>
      </trkpt>
      <trkpt lat="42.633935" lon="0.447802">
        <ele>2353.000000</ele>
        <time>2021-09-04T12:22:33Z</time>
      </trkpt>
      <trkpt lat="42.633942" lon="0.447788">
        <ele>2353.000000</ele>
        <time>2021-09-04T12:22:34Z</time>
      </trkpt>
      <trkpt lat="42.633948" lon="0.447775">
        <ele>2353.000000</ele>
        <time>2021-09-04T12:22:35Z</time>
      </trkpt>
      <trkpt lat="42.633953" lon="0.447768">
        <ele>2353.000000</ele>
        <time>2021-09-04T12:22:36Z</time>
      </trkpt>
      <trkpt lat="42.633958" lon="0.447763">
        <ele>2353.000000</ele>
        <time>2021-09-04T12:22:37Z</time>
      </trkpt>
      <trkpt lat="42.633968" lon="0.447752">
        <ele>2353.000000</ele>
        <time>2021-09-04T12:22:38Z</time>
      </trkpt>
      <trkpt lat="42.633977" lon="0.447740">
        <ele>2353.000000</ele>
        <time>2021-09-04T12:22:39Z</time>
      </trkpt>
      <trkpt lat="42.633987" lon="0.447732">
        <ele>2353.000000</ele>
        <time>2021-09-04T12:22:40Z</time>
      </trkpt>
      <trkpt lat="42.633995" lon="0.447725">
        <ele>2353.000000</ele>
        <time>2021-09-04T12:22:41Z</time>
      </trkpt>
      <trkpt lat="42.634000" lon="0.447716">
        <ele>2353.000000</ele>
        <time>2021-09-04T12:22:42Z</time>
      </trkpt>
      <trkpt lat="42.634005" lon="0.447707">
        <ele>2353.000000</ele>
        <time>2021-09-04T12:22:43Z</time>
      </trkpt>
      <trkpt lat="42.634002" lon="0.447697">
        <ele>2353.000000</ele>
        <time>2021-09-04T12:22:44Z</time>
      </trkpt>
      <trkpt lat="42.634000" lon="0.447690">
        <ele>2353.000000</ele>
        <time>2021-09-04T12:22:45Z</time>
      </trkpt>
      <trkpt lat="42.633998" lon="0.447682">
        <ele>2353.000000</ele>
        <time>2021-09-04T12:22:46Z</time>
      </trkpt>
      <trkpt lat="42.633998" lon="0.447675">
        <ele>2353.000000</ele>
        <time>2021-09-04T12:22:47Z</time>
      </trkpt>
      <trkpt lat="42.633995" lon="0.447667">
        <ele>2353.000000</ele>
        <time>2021-09-04T12:22:48Z</time>
      </trkpt>
      <trkpt lat="42.633990" lon="0.447662">
        <ele>2353.000000</ele>
        <time>2021-09-04T12:22:49Z</time>
      </trkpt>
      <trkpt lat="42.633985" lon="0.447653">
        <ele>2353.000000</ele>
        <time>2021-09-04T12:22:50Z</time>
      </trkpt>
      <trkpt lat="42.633980" lon="0.447652">
        <ele>2354.000000</ele>
        <time>2021-09-04T12:22:51Z</time>
      </trkpt>
      <trkpt lat="42.633975" lon="0.447648">
        <ele>2354.000000</ele>
        <time>2021-09-04T12:22:52Z</time>
      </trkpt>
      <trkpt lat="42.633972" lon="0.447650">
        <ele>2354.000000</ele>
        <time>2021-09-04T12:22:53Z</time>
      </trkpt>
      <trkpt lat="42.633970" lon="0.447647">
        <ele>2354.000000</ele>
        <time>2021-09-04T12:22:54Z</time>
      </trkpt>
      <trkpt lat="42.633967" lon="0.447645">
        <ele>2354.000000</ele>
        <time>2021-09-04T12:22:55Z</time>
      </trkpt>
      <trkpt lat="42.633965" lon="0.447650">
        <ele>2354.000000</ele>
        <time>2021-09-04T12:22:57Z</time>
      </trkpt>
      <trkpt lat="42.633962" lon="0.447613">
        <ele>2355.000000</ele>
        <time>2021-09-04T12:23:13Z</time>
      </trkpt>
      <trkpt lat="42.633967" lon="0.447600">
        <ele>2355.000000</ele>
        <time>2021-09-04T12:23:14Z</time>
      </trkpt>
      <trkpt lat="42.633972" lon="0.447587">
        <ele>2355.000000</ele>
        <time>2021-09-04T12:23:15Z</time>
      </trkpt>
      <trkpt lat="42.633972" lon="0.447580">
        <ele>2355.000000</ele>
        <time>2021-09-04T12:23:16Z</time>
      </trkpt>
      <trkpt lat="42.633973" lon="0.447573">
        <ele>2355.000000</ele>
        <time>2021-09-04T12:23:17Z</time>
      </trkpt>
      <trkpt lat="42.633976" lon="0.447568">
        <ele>2355.000000</ele>
        <time>2021-09-04T12:23:18Z</time>
      </trkpt>
      <trkpt lat="42.633982" lon="0.447562">
        <ele>2355.000000</ele>
        <time>2021-09-04T12:23:19Z</time>
      </trkpt>
      <trkpt lat="42.633984" lon="0.447560">
        <ele>2355.000000</ele>
        <time>2021-09-04T12:23:20Z</time>
      </trkpt>
      <trkpt lat="42.633986" lon="0.447548">
        <ele>2355.000000</ele>
        <time>2021-09-04T12:23:21Z</time>
      </trkpt>
      <trkpt lat="42.633987" lon="0.447540">
        <ele>2355.000000</ele>
        <time>2021-09-04T12:23:22Z</time>
      </trkpt>
      <trkpt lat="42.633988" lon="0.447533">
        <ele>2355.000000</ele>
        <time>2021-09-04T12:23:23Z</time>
      </trkpt>
      <trkpt lat="42.633990" lon="0.447525">
        <ele>2355.000000</ele>
        <time>2021-09-04T12:23:24Z</time>
      </trkpt>
      <trkpt lat="42.633990" lon="0.447517">
        <ele>2355.000000</ele>
        <time>2021-09-04T12:23:25Z</time>
      </trkpt>
      <trkpt lat="42.633990" lon="0.447507">
        <ele>2355.000000</ele>
        <time>2021-09-04T12:23:26Z</time>
      </trkpt>
      <trkpt lat="42.633990" lon="0.447502">
        <ele>2355.000000</ele>
        <time>2021-09-04T12:23:27Z</time>
      </trkpt>
      <trkpt lat="42.633990" lon="0.447495">
        <ele>2355.000000</ele>
        <time>2021-09-04T12:23:28Z</time>
      </trkpt>
      <trkpt lat="42.633990" lon="0.447488">
        <ele>2356.000000</ele>
        <time>2021-09-04T12:23:29Z</time>
      </trkpt>
      <trkpt lat="42.633989" lon="0.447477">
        <ele>2356.000000</ele>
        <time>2021-09-04T12:23:30Z</time>
      </trkpt>
      <trkpt lat="42.633987" lon="0.447465">
        <ele>2356.000000</ele>
        <time>2021-09-04T12:23:31Z</time>
      </trkpt>
      <trkpt lat="42.633987" lon="0.447452">
        <ele>2356.000000</ele>
        <time>2021-09-04T12:23:32Z</time>
      </trkpt>
      <trkpt lat="42.633988" lon="0.447442">
        <ele>2356.000000</ele>
        <time>2021-09-04T12:23:33Z</time>
      </trkpt>
      <trkpt lat="42.633997" lon="0.447428">
        <ele>2356.000000</ele>
        <time>2021-09-04T12:23:34Z</time>
      </trkpt>
      <trkpt lat="42.634003" lon="0.447420">
        <ele>2356.000000</ele>
        <time>2021-09-04T12:23:35Z</time>
      </trkpt>
      <trkpt lat="42.634010" lon="0.447412">
        <ele>2356.000000</ele>
        <time>2021-09-04T12:23:36Z</time>
      </trkpt>
      <trkpt lat="42.634017" lon="0.447405">
        <ele>2357.000000</ele>
        <time>2021-09-04T12:23:37Z</time>
      </trkpt>
      <trkpt lat="42.634022" lon="0.447402">
        <ele>2357.000000</ele>
        <time>2021-09-04T12:23:38Z</time>
      </trkpt>
      <trkpt lat="42.634028" lon="0.447398">
        <ele>2357.000000</ele>
        <time>2021-09-04T12:23:39Z</time>
      </trkpt>
      <trkpt lat="42.634037" lon="0.447397">
        <ele>2357.000000</ele>
        <time>2021-09-04T12:23:40Z</time>
      </trkpt>
      <trkpt lat="42.634045" lon="0.447398">
        <ele>2357.000000</ele>
        <time>2021-09-04T12:23:41Z</time>
      </trkpt>
      <trkpt lat="42.634058" lon="0.447405">
        <ele>2357.000000</ele>
        <time>2021-09-04T12:23:43Z</time>
      </trkpt>
      <trkpt lat="42.634072" lon="0.447408">
        <ele>2357.000000</ele>
        <time>2021-09-04T12:23:43Z</time>
      </trkpt>
      <trkpt lat="42.634082" lon="0.447415">
        <ele>2357.000000</ele>
        <time>2021-09-04T12:23:44Z</time>
      </trkpt>
      <trkpt lat="42.634090" lon="0.447422">
        <ele>2358.000000</ele>
        <time>2021-09-04T12:23:45Z</time>
      </trkpt>
      <trkpt lat="42.634103" lon="0.447430">
        <ele>2358.000000</ele>
        <time>2021-09-04T12:23:46Z</time>
      </trkpt>
      <trkpt lat="42.634113" lon="0.447431">
        <ele>2358.000000</ele>
        <time>2021-09-04T12:23:47Z</time>
      </trkpt>
      <trkpt lat="42.634125" lon="0.447439">
        <ele>2358.000000</ele>
        <time>2021-09-04T12:23:48Z</time>
      </trkpt>
      <trkpt lat="42.634135" lon="0.447445">
        <ele>2358.000000</ele>
        <time>2021-09-04T12:23:49Z</time>
      </trkpt>
      <trkpt lat="42.634143" lon="0.447450">
        <ele>2358.000000</ele>
        <time>2021-09-04T12:23:50Z</time>
      </trkpt>
      <trkpt lat="42.634155" lon="0.447460">
        <ele>2358.000000</ele>
        <time>2021-09-04T12:23:51Z</time>
      </trkpt>
      <trkpt lat="42.634167" lon="0.447468">
        <ele>2358.000000</ele>
        <time>2021-09-04T12:23:52Z</time>
      </trkpt>
      <trkpt lat="42.634175" lon="0.447471">
        <ele>2358.000000</ele>
        <time>2021-09-04T12:23:53Z</time>
      </trkpt>
      <trkpt lat="42.634178" lon="0.447470">
        <ele>2358.000000</ele>
        <time>2021-09-04T12:23:54Z</time>
      </trkpt>
      <trkpt lat="42.634183" lon="0.447452">
        <ele>2359.000000</ele>
        <time>2021-09-04T12:23:55Z</time>
      </trkpt>
      <trkpt lat="42.634182" lon="0.447442">
        <ele>2359.000000</ele>
        <time>2021-09-04T12:23:56Z</time>
      </trkpt>
      <trkpt lat="42.634180" lon="0.447435">
        <ele>2359.000000</ele>
        <time>2021-09-04T12:23:57Z</time>
      </trkpt>
      <trkpt lat="42.634180" lon="0.447430">
        <ele>2359.000000</ele>
        <time>2021-09-04T12:23:58Z</time>
      </trkpt>
      <trkpt lat="42.634180" lon="0.447420">
        <ele>2359.000000</ele>
        <time>2021-09-04T12:23:59Z</time>
      </trkpt>
      <trkpt lat="42.634180" lon="0.447408">
        <ele>2359.000000</ele>
        <time>2021-09-04T12:24:00Z</time>
      </trkpt>
      <trkpt lat="42.634180" lon="0.447397">
        <ele>2359.000000</ele>
        <time>2021-09-04T12:24:01Z</time>
      </trkpt>
      <trkpt lat="42.634180" lon="0.447382">
        <ele>2359.000000</ele>
        <time>2021-09-04T12:24:02Z</time>
      </trkpt>
      <trkpt lat="42.634180" lon="0.447373">
        <ele>2359.000000</ele>
        <time>2021-09-04T12:24:03Z</time>
      </trkpt>
      <trkpt lat="42.634181" lon="0.447362">
        <ele>2359.000000</ele>
        <time>2021-09-04T12:24:04Z</time>
      </trkpt>
      <trkpt lat="42.634182" lon="0.447353">
        <ele>2359.000000</ele>
        <time>2021-09-04T12:24:05Z</time>
      </trkpt>
      <trkpt lat="42.634184" lon="0.447343">
        <ele>2359.000000</ele>
        <time>2021-09-04T12:24:06Z</time>
      </trkpt>
      <trkpt lat="42.634185" lon="0.447342">
        <ele>2359.000000</ele>
        <time>2021-09-04T12:24:07Z</time>
      </trkpt>
      <trkpt lat="42.634187" lon="0.447342">
        <ele>2359.000000</ele>
        <time>2021-09-04T12:24:08Z</time>
      </trkpt>
      <trkpt lat="42.634203" lon="0.447338">
        <ele>2359.000000</ele>
        <time>2021-09-04T12:24:09Z</time>
      </trkpt>
      <trkpt lat="42.634210" lon="0.447340">
        <ele>2359.000000</ele>
        <time>2021-09-04T12:24:10Z</time>
      </trkpt>
      <trkpt lat="42.634217" lon="0.447342">
        <ele>2359.000000</ele>
        <time>2021-09-04T12:24:11Z</time>
      </trkpt>
      <trkpt lat="42.634227" lon="0.447345">
        <ele>2359.000000</ele>
        <time>2021-09-04T12:24:12Z</time>
      </trkpt>
      <trkpt lat="42.634233" lon="0.447348">
        <ele>2359.000000</ele>
        <time>2021-09-04T12:24:13Z</time>
      </trkpt>
      <trkpt lat="42.634237" lon="0.447353">
        <ele>2359.000000</ele>
        <time>2021-09-04T12:24:14Z</time>
      </trkpt>
      <trkpt lat="42.634240" lon="0.447360">
        <ele>2359.000000</ele>
        <time>2021-09-04T12:24:15Z</time>
      </trkpt>
      <trkpt lat="42.634242" lon="0.447363">
        <ele>2359.000000</ele>
        <time>2021-09-04T12:24:16Z</time>
      </trkpt>
      <trkpt lat="42.634243" lon="0.447367">
        <ele>2359.000000</ele>
        <time>2021-09-04T12:24:17Z</time>
      </trkpt>
      <trkpt lat="42.634248" lon="0.447370">
        <ele>2359.000000</ele>
        <time>2021-09-04T12:24:18Z</time>
      </trkpt>
      <trkpt lat="42.634253" lon="0.447376">
        <ele>2359.000000</ele>
        <time>2021-09-04T12:24:19Z</time>
      </trkpt>
      <trkpt lat="42.634258" lon="0.447383">
        <ele>2359.000000</ele>
        <time>2021-09-04T12:24:20Z</time>
      </trkpt>
      <trkpt lat="42.634262" lon="0.447387">
        <ele>2360.000000</ele>
        <time>2021-09-04T12:24:21Z</time>
      </trkpt>
      <trkpt lat="42.634267" lon="0.447390">
        <ele>2360.000000</ele>
        <time>2021-09-04T12:24:22Z</time>
      </trkpt>
      <trkpt lat="42.634270" lon="0.447391">
        <ele>2360.000000</ele>
        <time>2021-09-04T12:24:23Z</time>
      </trkpt>
      <trkpt lat="42.634275" lon="0.447388">
        <ele>2360.000000</ele>
        <time>2021-09-04T12:24:24Z</time>
      </trkpt>
      <trkpt lat="42.634278" lon="0.447385">
        <ele>2360.000000</ele>
        <time>2021-09-04T12:24:25Z</time>
      </trkpt>
      <trkpt lat="42.634282" lon="0.447385">
        <ele>2360.000000</ele>
        <time>2021-09-04T12:24:26Z</time>
      </trkpt>
      <trkpt lat="42.634283" lon="0.447382">
        <ele>2361.000000</ele>
        <time>2021-09-04T12:24:27Z</time>
      </trkpt>
      <trkpt lat="42.634285" lon="0.447377">
        <ele>2361.000000</ele>
        <time>2021-09-04T12:24:28Z</time>
      </trkpt>
      <trkpt lat="42.634293" lon="0.447373">
        <ele>2361.000000</ele>
        <time>2021-09-04T12:24:29Z</time>
      </trkpt>
      <trkpt lat="42.634303" lon="0.447374">
        <ele>2361.000000</ele>
        <time>2021-09-04T12:24:30Z</time>
      </trkpt>
      <trkpt lat="42.634315" lon="0.447378">
        <ele>2361.000000</ele>
        <time>2021-09-04T12:24:31Z</time>
      </trkpt>
      <trkpt lat="42.634325" lon="0.447382">
        <ele>2361.000000</ele>
        <time>2021-09-04T12:24:32Z</time>
      </trkpt>
      <trkpt lat="42.634332" lon="0.447382">
        <ele>2361.000000</ele>
        <time>2021-09-04T12:24:33Z</time>
      </trkpt>
      <trkpt lat="42.634337" lon="0.447382">
        <ele>2362.000000</ele>
        <time>2021-09-04T12:24:34Z</time>
      </trkpt>
      <trkpt lat="42.634340" lon="0.447380">
        <ele>2362.000000</ele>
        <time>2021-09-04T12:24:35Z</time>
      </trkpt>
      <trkpt lat="42.634342" lon="0.447376">
        <ele>2362.000000</ele>
        <time>2021-09-04T12:24:36Z</time>
      </trkpt>
      <trkpt lat="42.634343" lon="0.447371">
        <ele>2362.000000</ele>
        <time>2021-09-04T12:24:37Z</time>
      </trkpt>
      <trkpt lat="42.634347" lon="0.447363">
        <ele>2362.000000</ele>
        <time>2021-09-04T12:24:38Z</time>
      </trkpt>
      <trkpt lat="42.634350" lon="0.447362">
        <ele>2362.000000</ele>
        <time>2021-09-04T12:24:39Z</time>
      </trkpt>
      <trkpt lat="42.634357" lon="0.447357">
        <ele>2362.000000</ele>
        <time>2021-09-04T12:24:40Z</time>
      </trkpt>
      <trkpt lat="42.634363" lon="0.447354">
        <ele>2362.000000</ele>
        <time>2021-09-04T12:24:41Z</time>
      </trkpt>
      <trkpt lat="42.634370" lon="0.447350">
        <ele>2362.000000</ele>
        <time>2021-09-04T12:24:42Z</time>
      </trkpt>
      <trkpt lat="42.634372" lon="0.447347">
        <ele>2362.000000</ele>
        <time>2021-09-04T12:24:43Z</time>
      </trkpt>
      <trkpt lat="42.634375" lon="0.447345">
        <ele>2362.000000</ele>
        <time>2021-09-04T12:24:44Z</time>
      </trkpt>
      <trkpt lat="42.634380" lon="0.447344">
        <ele>2362.000000</ele>
        <time>2021-09-04T12:24:45Z</time>
      </trkpt>
      <trkpt lat="42.634387" lon="0.447341">
        <ele>2362.000000</ele>
        <time>2021-09-04T12:24:46Z</time>
      </trkpt>
      <trkpt lat="42.634395" lon="0.447342">
        <ele>2362.000000</ele>
        <time>2021-09-04T12:24:47Z</time>
      </trkpt>
      <trkpt lat="42.634403" lon="0.447343">
        <ele>2363.000000</ele>
        <time>2021-09-04T12:24:48Z</time>
      </trkpt>
      <trkpt lat="42.634412" lon="0.447338">
        <ele>2363.000000</ele>
        <time>2021-09-04T12:24:49Z</time>
      </trkpt>
      <trkpt lat="42.634420" lon="0.447335">
        <ele>2363.000000</ele>
        <time>2021-09-04T12:24:50Z</time>
      </trkpt>
      <trkpt lat="42.634423" lon="0.447332">
        <ele>2363.000000</ele>
        <time>2021-09-04T12:24:51Z</time>
      </trkpt>
      <trkpt lat="42.634432" lon="0.447329">
        <ele>2363.000000</ele>
        <time>2021-09-04T12:24:52Z</time>
      </trkpt>
      <trkpt lat="42.634445" lon="0.447326">
        <ele>2363.000000</ele>
        <time>2021-09-04T12:24:53Z</time>
      </trkpt>
      <trkpt lat="42.634457" lon="0.447323">
        <ele>2363.000000</ele>
        <time>2021-09-04T12:24:54Z</time>
      </trkpt>
      <trkpt lat="42.634465" lon="0.447321">
        <ele>2363.000000</ele>
        <time>2021-09-04T12:24:55Z</time>
      </trkpt>
      <trkpt lat="42.634475" lon="0.447320">
        <ele>2364.000000</ele>
        <time>2021-09-04T12:24:56Z</time>
      </trkpt>
      <trkpt lat="42.634483" lon="0.447322">
        <ele>2364.000000</ele>
        <time>2021-09-04T12:24:57Z</time>
      </trkpt>
      <trkpt lat="42.634492" lon="0.447323">
        <ele>2364.000000</ele>
        <time>2021-09-04T12:24:58Z</time>
      </trkpt>
      <trkpt lat="42.634503" lon="0.447324">
        <ele>2364.000000</ele>
        <time>2021-09-04T12:24:59Z</time>
      </trkpt>
      <trkpt lat="42.634510" lon="0.447325">
        <ele>2364.000000</ele>
        <time>2021-09-04T12:25:00Z</time>
      </trkpt>
      <trkpt lat="42.634518" lon="0.447326">
        <ele>2364.000000</ele>
        <time>2021-09-04T12:25:01Z</time>
      </trkpt>
      <trkpt lat="42.634522" lon="0.447328">
        <ele>2365.000000</ele>
        <time>2021-09-04T12:25:02Z</time>
      </trkpt>
      <trkpt lat="42.634532" lon="0.447328">
        <ele>2365.000000</ele>
        <time>2021-09-04T12:25:03Z</time>
      </trkpt>
      <trkpt lat="42.634540" lon="0.447330">
        <ele>2365.000000</ele>
        <time>2021-09-04T12:25:04Z</time>
      </trkpt>
      <trkpt lat="42.634547" lon="0.447332">
        <ele>2365.000000</ele>
        <time>2021-09-04T12:25:05Z</time>
      </trkpt>
      <trkpt lat="42.634553" lon="0.447332">
        <ele>2365.000000</ele>
        <time>2021-09-04T12:25:06Z</time>
      </trkpt>
      <trkpt lat="42.634557" lon="0.447333">
        <ele>2365.000000</ele>
        <time>2021-09-04T12:25:07Z</time>
      </trkpt>
      <trkpt lat="42.634563" lon="0.447330">
        <ele>2365.000000</ele>
        <time>2021-09-04T12:25:08Z</time>
      </trkpt>
      <trkpt lat="42.634568" lon="0.447328">
        <ele>2365.000000</ele>
        <time>2021-09-04T12:25:08Z</time>
      </trkpt>
      <trkpt lat="42.634577" lon="0.447328">
        <ele>2366.000000</ele>
        <time>2021-09-04T12:25:09Z</time>
      </trkpt>
      <trkpt lat="42.634585" lon="0.447329">
        <ele>2366.000000</ele>
        <time>2021-09-04T12:25:10Z</time>
      </trkpt>
      <trkpt lat="42.634593" lon="0.447331">
        <ele>2366.000000</ele>
        <time>2021-09-04T12:25:11Z</time>
      </trkpt>
      <trkpt lat="42.634595" lon="0.447330">
        <ele>2366.000000</ele>
        <time>2021-09-04T12:25:12Z</time>
      </trkpt>
      <trkpt lat="42.634598" lon="0.447330">
        <ele>2366.000000</ele>
        <time>2021-09-04T12:25:13Z</time>
      </trkpt>
      <trkpt lat="42.634602" lon="0.447328">
        <ele>2366.000000</ele>
        <time>2021-09-04T12:25:14Z</time>
      </trkpt>
      <trkpt lat="42.634608" lon="0.447328">
        <ele>2366.000000</ele>
        <time>2021-09-04T12:25:15Z</time>
      </trkpt>
      <trkpt lat="42.634617" lon="0.447327">
        <ele>2366.000000</ele>
        <time>2021-09-04T12:25:16Z</time>
      </trkpt>
      <trkpt lat="42.634630" lon="0.447324">
        <ele>2366.000000</ele>
        <time>2021-09-04T12:25:17Z</time>
      </trkpt>
      <trkpt lat="42.634638" lon="0.447325">
        <ele>2366.000000</ele>
        <time>2021-09-04T12:25:18Z</time>
      </trkpt>
      <trkpt lat="42.634648" lon="0.447327">
        <ele>2367.000000</ele>
        <time>2021-09-04T12:25:19Z</time>
      </trkpt>
      <trkpt lat="42.634657" lon="0.447330">
        <ele>2367.000000</ele>
        <time>2021-09-04T12:25:20Z</time>
      </trkpt>
      <trkpt lat="42.634662" lon="0.447332">
        <ele>2367.000000</ele>
        <time>2021-09-04T12:25:21Z</time>
      </trkpt>
      <trkpt lat="42.634667" lon="0.447335">
        <ele>2367.000000</ele>
        <time>2021-09-04T12:25:22Z</time>
      </trkpt>
      <trkpt lat="42.634670" lon="0.447337">
        <ele>2367.000000</ele>
        <time>2021-09-04T12:25:23Z</time>
      </trkpt>
      <trkpt lat="42.634675" lon="0.447338">
        <ele>2367.000000</ele>
        <time>2021-09-04T12:25:24Z</time>
      </trkpt>
      <trkpt lat="42.634677" lon="0.447339">
        <ele>2367.000000</ele>
        <time>2021-09-04T12:25:25Z</time>
      </trkpt>
      <trkpt lat="42.634682" lon="0.447337">
        <ele>2367.000000</ele>
        <time>2021-09-04T12:25:26Z</time>
      </trkpt>
      <trkpt lat="42.634685" lon="0.447333">
        <ele>2368.000000</ele>
        <time>2021-09-04T12:25:27Z</time>
      </trkpt>
      <trkpt lat="42.634688" lon="0.447328">
        <ele>2368.000000</ele>
        <time>2021-09-04T12:25:28Z</time>
      </trkpt>
      <trkpt lat="42.634693" lon="0.447318">
        <ele>2368.000000</ele>
        <time>2021-09-04T12:25:29Z</time>
      </trkpt>
      <trkpt lat="42.634697" lon="0.447307">
        <ele>2368.000000</ele>
        <time>2021-09-04T12:25:30Z</time>
      </trkpt>
      <trkpt lat="42.634697" lon="0.447295">
        <ele>2368.000000</ele>
        <time>2021-09-04T12:25:31Z</time>
      </trkpt>
      <trkpt lat="42.634702" lon="0.447283">
        <ele>2368.000000</ele>
        <time>2021-09-04T12:25:32Z</time>
      </trkpt>
      <trkpt lat="42.634710" lon="0.447280">
        <ele>2368.000000</ele>
        <time>2021-09-04T12:25:33Z</time>
      </trkpt>
      <trkpt lat="42.634717" lon="0.447277">
        <ele>2368.000000</ele>
        <time>2021-09-04T12:25:34Z</time>
      </trkpt>
      <trkpt lat="42.634723" lon="0.447268">
        <ele>2368.000000</ele>
        <time>2021-09-04T12:25:35Z</time>
      </trkpt>
      <trkpt lat="42.634730" lon="0.447265">
        <ele>2368.000000</ele>
        <time>2021-09-04T12:25:36Z</time>
      </trkpt>
      <trkpt lat="42.634740" lon="0.447263">
        <ele>2368.000000</ele>
        <time>2021-09-04T12:25:37Z</time>
      </trkpt>
      <trkpt lat="42.634750" lon="0.447268">
        <ele>2368.000000</ele>
        <time>2021-09-04T12:25:38Z</time>
      </trkpt>
      <trkpt lat="42.634757" lon="0.447275">
        <ele>2368.000000</ele>
        <time>2021-09-04T12:25:39Z</time>
      </trkpt>
      <trkpt lat="42.634763" lon="0.447288">
        <ele>2368.000000</ele>
        <time>2021-09-04T12:25:40Z</time>
      </trkpt>
      <trkpt lat="42.634765" lon="0.447295">
        <ele>2368.000000</ele>
        <time>2021-09-04T12:25:41Z</time>
      </trkpt>
      <trkpt lat="42.634767" lon="0.447303">
        <ele>2369.000000</ele>
        <time>2021-09-04T12:25:42Z</time>
      </trkpt>
      <trkpt lat="42.634773" lon="0.447310">
        <ele>2369.000000</ele>
        <time>2021-09-04T12:25:43Z</time>
      </trkpt>
      <trkpt lat="42.634778" lon="0.447313">
        <ele>2369.000000</ele>
        <time>2021-09-04T12:25:44Z</time>
      </trkpt>
      <trkpt lat="42.634785" lon="0.447318">
        <ele>2369.000000</ele>
        <time>2021-09-04T12:25:45Z</time>
      </trkpt>
      <trkpt lat="42.634790" lon="0.447320">
        <ele>2369.000000</ele>
        <time>2021-09-04T12:25:46Z</time>
      </trkpt>
      <trkpt lat="42.634800" lon="0.447322">
        <ele>2369.000000</ele>
        <time>2021-09-04T12:25:47Z</time>
      </trkpt>
      <trkpt lat="42.634810" lon="0.447318">
        <ele>2370.000000</ele>
        <time>2021-09-04T12:25:48Z</time>
      </trkpt>
      <trkpt lat="42.634822" lon="0.447320">
        <ele>2370.000000</ele>
        <time>2021-09-04T12:25:49Z</time>
      </trkpt>
      <trkpt lat="42.634830" lon="0.447315">
        <ele>2370.000000</ele>
        <time>2021-09-04T12:25:50Z</time>
      </trkpt>
      <trkpt lat="42.634842" lon="0.447318">
        <ele>2370.000000</ele>
        <time>2021-09-04T12:25:51Z</time>
      </trkpt>
      <trkpt lat="42.634857" lon="0.447322">
        <ele>2370.000000</ele>
        <time>2021-09-04T12:25:52Z</time>
      </trkpt>
      <trkpt lat="42.634872" lon="0.447326">
        <ele>2370.000000</ele>
        <time>2021-09-04T12:25:53Z</time>
      </trkpt>
      <trkpt lat="42.634882" lon="0.447332">
        <ele>2370.000000</ele>
        <time>2021-09-04T12:25:54Z</time>
      </trkpt>
      <trkpt lat="42.634890" lon="0.447338">
        <ele>2370.000000</ele>
        <time>2021-09-04T12:25:55Z</time>
      </trkpt>
      <trkpt lat="42.634902" lon="0.447345">
        <ele>2370.000000</ele>
        <time>2021-09-04T12:25:56Z</time>
      </trkpt>
      <trkpt lat="42.634907" lon="0.447350">
        <ele>2370.000000</ele>
        <time>2021-09-04T12:25:57Z</time>
      </trkpt>
      <trkpt lat="42.634912" lon="0.447353">
        <ele>2370.000000</ele>
        <time>2021-09-04T12:25:58Z</time>
      </trkpt>
      <trkpt lat="42.634920" lon="0.447357">
        <ele>2370.000000</ele>
        <time>2021-09-04T12:25:59Z</time>
      </trkpt>
      <trkpt lat="42.634927" lon="0.447357">
        <ele>2371.000000</ele>
        <time>2021-09-04T12:26:00Z</time>
      </trkpt>
      <trkpt lat="42.634935" lon="0.447340">
        <ele>2371.000000</ele>
        <time>2021-09-04T12:26:01Z</time>
      </trkpt>
      <trkpt lat="42.634942" lon="0.447335">
        <ele>2371.000000</ele>
        <time>2021-09-04T12:26:02Z</time>
      </trkpt>
      <trkpt lat="42.634950" lon="0.447335">
        <ele>2371.000000</ele>
        <time>2021-09-04T12:26:03Z</time>
      </trkpt>
      <trkpt lat="42.634955" lon="0.447337">
        <ele>2371.000000</ele>
        <time>2021-09-04T12:26:04Z</time>
      </trkpt>
      <trkpt lat="42.634967" lon="0.447340">
        <ele>2371.000000</ele>
        <time>2021-09-04T12:26:05Z</time>
      </trkpt>
      <trkpt lat="42.634977" lon="0.447345">
        <ele>2371.000000</ele>
        <time>2021-09-04T12:26:06Z</time>
      </trkpt>
      <trkpt lat="42.634982" lon="0.447349">
        <ele>2371.000000</ele>
        <time>2021-09-04T12:26:07Z</time>
      </trkpt>
      <trkpt lat="42.634987" lon="0.447360">
        <ele>2371.000000</ele>
        <time>2021-09-04T12:26:08Z</time>
      </trkpt>
      <trkpt lat="42.634998" lon="0.447367">
        <ele>2371.000000</ele>
        <time>2021-09-04T12:26:09Z</time>
      </trkpt>
      <trkpt lat="42.635008" lon="0.447377">
        <ele>2371.000000</ele>
        <time>2021-09-04T12:26:10Z</time>
      </trkpt>
      <trkpt lat="42.635012" lon="0.447383">
        <ele>2371.000000</ele>
        <time>2021-09-04T12:26:11Z</time>
      </trkpt>
      <trkpt lat="42.635013" lon="0.447392">
        <ele>2371.000000</ele>
        <time>2021-09-04T12:26:12Z</time>
      </trkpt>
      <trkpt lat="42.635015" lon="0.447397">
        <ele>2372.000000</ele>
        <time>2021-09-04T12:26:13Z</time>
      </trkpt>
      <trkpt lat="42.635015" lon="0.447405">
        <ele>2372.000000</ele>
        <time>2021-09-04T12:26:14Z</time>
      </trkpt>
      <trkpt lat="42.635013" lon="0.447410">
        <ele>2372.000000</ele>
        <time>2021-09-04T12:26:15Z</time>
      </trkpt>
      <trkpt lat="42.635013" lon="0.447413">
        <ele>2372.000000</ele>
        <time>2021-09-04T12:26:16Z</time>
      </trkpt>
      <trkpt lat="42.635020" lon="0.447407">
        <ele>2373.000000</ele>
        <time>2021-09-04T12:26:20Z</time>
      </trkpt>
      <trkpt lat="42.635025" lon="0.447398">
        <ele>2373.000000</ele>
        <time>2021-09-04T12:26:21Z</time>
      </trkpt>
      <trkpt lat="42.635032" lon="0.447392">
        <ele>2373.000000</ele>
        <time>2021-09-04T12:26:22Z</time>
      </trkpt>
      <trkpt lat="42.635040" lon="0.447380">
        <ele>2373.000000</ele>
        <time>2021-09-04T12:26:23Z</time>
      </trkpt>
      <trkpt lat="42.635043" lon="0.447377">
        <ele>2373.000000</ele>
        <time>2021-09-04T12:26:24Z</time>
      </trkpt>
      <trkpt lat="42.635043" lon="0.447368">
        <ele>2373.000000</ele>
        <time>2021-09-04T12:26:25Z</time>
      </trkpt>
      <trkpt lat="42.635042" lon="0.447360">
        <ele>2374.000000</ele>
        <time>2021-09-04T12:26:26Z</time>
      </trkpt>
      <trkpt lat="42.635042" lon="0.447355">
        <ele>2374.000000</ele>
        <time>2021-09-04T12:26:27Z</time>
      </trkpt>
      <trkpt lat="42.635042" lon="0.447352">
        <ele>2374.000000</ele>
        <time>2021-09-04T12:26:28Z</time>
      </trkpt>
      <trkpt lat="42.635048" lon="0.447348">
        <ele>2374.000000</ele>
        <time>2021-09-04T12:26:29Z</time>
      </trkpt>
      <trkpt lat="42.635060" lon="0.447343">
        <ele>2374.000000</ele>
        <time>2021-09-04T12:26:30Z</time>
      </trkpt>
      <trkpt lat="42.635066" lon="0.447338">
        <ele>2374.000000</ele>
        <time>2021-09-04T12:26:31Z</time>
      </trkpt>
      <trkpt lat="42.635075" lon="0.447327">
        <ele>2374.000000</ele>
        <time>2021-09-04T12:26:32Z</time>
      </trkpt>
      <trkpt lat="42.635079" lon="0.447317">
        <ele>2374.000000</ele>
        <time>2021-09-04T12:26:33Z</time>
      </trkpt>
      <trkpt lat="42.635082" lon="0.447303">
        <ele>2375.000000</ele>
        <time>2021-09-04T12:26:34Z</time>
      </trkpt>
      <trkpt lat="42.635078" lon="0.447292">
        <ele>2375.000000</ele>
        <time>2021-09-04T12:26:35Z</time>
      </trkpt>
      <trkpt lat="42.635082" lon="0.447280">
        <ele>2375.000000</ele>
        <time>2021-09-04T12:26:36Z</time>
      </trkpt>
      <trkpt lat="42.635086" lon="0.447268">
        <ele>2375.000000</ele>
        <time>2021-09-04T12:26:37Z</time>
      </trkpt>
      <trkpt lat="42.635089" lon="0.447262">
        <ele>2375.000000</ele>
        <time>2021-09-04T12:26:38Z</time>
      </trkpt>
      <trkpt lat="42.635093" lon="0.447255">
        <ele>2375.000000</ele>
        <time>2021-09-04T12:26:39Z</time>
      </trkpt>
      <trkpt lat="42.635097" lon="0.447250">
        <ele>2375.000000</ele>
        <time>2021-09-04T12:26:40Z</time>
      </trkpt>
      <trkpt lat="42.635105" lon="0.447245">
        <ele>2375.000000</ele>
        <time>2021-09-04T12:26:41Z</time>
      </trkpt>
      <trkpt lat="42.635112" lon="0.447233">
        <ele>2375.000000</ele>
        <time>2021-09-04T12:26:42Z</time>
      </trkpt>
      <trkpt lat="42.635120" lon="0.447225">
        <ele>2375.000000</ele>
        <time>2021-09-04T12:26:43Z</time>
      </trkpt>
      <trkpt lat="42.635125" lon="0.447220">
        <ele>2375.000000</ele>
        <time>2021-09-04T12:26:44Z</time>
      </trkpt>
      <trkpt lat="42.635132" lon="0.447217">
        <ele>2375.000000</ele>
        <time>2021-09-04T12:26:45Z</time>
      </trkpt>
      <trkpt lat="42.635137" lon="0.447210">
        <ele>2375.000000</ele>
        <time>2021-09-04T12:26:46Z</time>
      </trkpt>
      <trkpt lat="42.635142" lon="0.447202">
        <ele>2375.000000</ele>
        <time>2021-09-04T12:26:47Z</time>
      </trkpt>
      <trkpt lat="42.635150" lon="0.447192">
        <ele>2375.000000</ele>
        <time>2021-09-04T12:26:48Z</time>
      </trkpt>
      <trkpt lat="42.635153" lon="0.447188">
        <ele>2375.000000</ele>
        <time>2021-09-04T12:26:49Z</time>
      </trkpt>
      <trkpt lat="42.635157" lon="0.447182">
        <ele>2375.000000</ele>
        <time>2021-09-04T12:26:50Z</time>
      </trkpt>
      <trkpt lat="42.635160" lon="0.447177">
        <ele>2375.000000</ele>
        <time>2021-09-04T12:26:51Z</time>
      </trkpt>
      <trkpt lat="42.635160" lon="0.447168">
        <ele>2375.000000</ele>
        <time>2021-09-04T12:26:52Z</time>
      </trkpt>
      <trkpt lat="42.635159" lon="0.447165">
        <ele>2375.000000</ele>
        <time>2021-09-04T12:26:53Z</time>
      </trkpt>
      <trkpt lat="42.635157" lon="0.447158">
        <ele>2375.000000</ele>
        <time>2021-09-04T12:26:56Z</time>
      </trkpt>
      <trkpt lat="42.635160" lon="0.447152">
        <ele>2375.000000</ele>
        <time>2021-09-04T12:26:57Z</time>
      </trkpt>
      <trkpt lat="42.635159" lon="0.447142">
        <ele>2375.000000</ele>
        <time>2021-09-04T12:26:58Z</time>
      </trkpt>
      <trkpt lat="42.635156" lon="0.447133">
        <ele>2375.000000</ele>
        <time>2021-09-04T12:26:59Z</time>
      </trkpt>
      <trkpt lat="42.635153" lon="0.447125">
        <ele>2375.000000</ele>
        <time>2021-09-04T12:27:00Z</time>
      </trkpt>
      <trkpt lat="42.635150" lon="0.447115">
        <ele>2375.000000</ele>
        <time>2021-09-04T12:27:01Z</time>
      </trkpt>
      <trkpt lat="42.635147" lon="0.447105">
        <ele>2375.000000</ele>
        <time>2021-09-04T12:27:02Z</time>
      </trkpt>
      <trkpt lat="42.635145" lon="0.447093">
        <ele>2375.000000</ele>
        <time>2021-09-04T12:27:03Z</time>
      </trkpt>
      <trkpt lat="42.635146" lon="0.447082">
        <ele>2375.000000</ele>
        <time>2021-09-04T12:27:04Z</time>
      </trkpt>
      <trkpt lat="42.635146" lon="0.447078">
        <ele>2375.000000</ele>
        <time>2021-09-04T12:27:05Z</time>
      </trkpt>
      <trkpt lat="42.635150" lon="0.447075">
        <ele>2375.000000</ele>
        <time>2021-09-04T12:27:06Z</time>
      </trkpt>
      <trkpt lat="42.635153" lon="0.447073">
        <ele>2375.000000</ele>
        <time>2021-09-04T12:27:07Z</time>
      </trkpt>
      <trkpt lat="42.635158" lon="0.447073">
        <ele>2375.000000</ele>
        <time>2021-09-04T12:27:08Z</time>
      </trkpt>
      <trkpt lat="42.635163" lon="0.447073">
        <ele>2375.000000</ele>
        <time>2021-09-04T12:27:09Z</time>
      </trkpt>
      <trkpt lat="42.635172" lon="0.447078">
        <ele>2375.000000</ele>
        <time>2021-09-04T12:27:10Z</time>
      </trkpt>
      <trkpt lat="42.635180" lon="0.447082">
        <ele>2375.000000</ele>
        <time>2021-09-04T12:27:11Z</time>
      </trkpt>
      <trkpt lat="42.635187" lon="0.447083">
        <ele>2375.000000</ele>
        <time>2021-09-04T12:27:12Z</time>
      </trkpt>
      <trkpt lat="42.635197" lon="0.447085">
        <ele>2375.000000</ele>
        <time>2021-09-04T12:27:13Z</time>
      </trkpt>
      <trkpt lat="42.635203" lon="0.447087">
        <ele>2375.000000</ele>
        <time>2021-09-04T12:27:14Z</time>
      </trkpt>
      <trkpt lat="42.635208" lon="0.447089">
        <ele>2375.000000</ele>
        <time>2021-09-04T12:27:15Z</time>
      </trkpt>
      <trkpt lat="42.635213" lon="0.447092">
        <ele>2375.000000</ele>
        <time>2021-09-04T12:27:16Z</time>
      </trkpt>
      <trkpt lat="42.635218" lon="0.447093">
        <ele>2375.000000</ele>
        <time>2021-09-04T12:27:17Z</time>
      </trkpt>
      <trkpt lat="42.635220" lon="0.447092">
        <ele>2375.000000</ele>
        <time>2021-09-04T12:27:18Z</time>
      </trkpt>
      <trkpt lat="42.635225" lon="0.447093">
        <ele>2375.000000</ele>
        <time>2021-09-04T12:27:19Z</time>
      </trkpt>
      <trkpt lat="42.635230" lon="0.447093">
        <ele>2375.000000</ele>
        <time>2021-09-04T12:27:21Z</time>
      </trkpt>
      <trkpt lat="42.635238" lon="0.447093">
        <ele>2375.000000</ele>
        <time>2021-09-04T12:27:22Z</time>
      </trkpt>
      <trkpt lat="42.635245" lon="0.447092">
        <ele>2375.000000</ele>
        <time>2021-09-04T12:27:23Z</time>
      </trkpt>
      <trkpt lat="42.635253" lon="0.447088">
        <ele>2375.000000</ele>
        <time>2021-09-04T12:27:24Z</time>
      </trkpt>
      <trkpt lat="42.635260" lon="0.447087">
        <ele>2375.000000</ele>
        <time>2021-09-04T12:27:25Z</time>
      </trkpt>
      <trkpt lat="42.635263" lon="0.447082">
        <ele>2375.000000</ele>
        <time>2021-09-04T12:27:26Z</time>
      </trkpt>
      <trkpt lat="42.635267" lon="0.447075">
        <ele>2375.000000</ele>
        <time>2021-09-04T12:27:27Z</time>
      </trkpt>
      <trkpt lat="42.635268" lon="0.447073">
        <ele>2375.000000</ele>
        <time>2021-09-04T12:27:28Z</time>
      </trkpt>
      <trkpt lat="42.635270" lon="0.447074">
        <ele>2375.000000</ele>
        <time>2021-09-04T12:27:29Z</time>
      </trkpt>
      <trkpt lat="42.635272" lon="0.447072">
        <ele>2375.000000</ele>
        <time>2021-09-04T12:27:31Z</time>
      </trkpt>
      <trkpt lat="42.635273" lon="0.447070">
        <ele>2375.000000</ele>
        <time>2021-09-04T12:27:32Z</time>
      </trkpt>
      <trkpt lat="42.635275" lon="0.447067">
        <ele>2375.000000</ele>
        <time>2021-09-04T12:27:33Z</time>
      </trkpt>
      <trkpt lat="42.635275" lon="0.447066">
        <ele>2375.000000</ele>
        <time>2021-09-04T12:27:36Z</time>
      </trkpt>
      <trkpt lat="42.635268" lon="0.447071">
        <ele>2375.000000</ele>
        <time>2021-09-04T12:27:37Z</time>
      </trkpt>
      <trkpt lat="42.635263" lon="0.447066">
        <ele>2375.000000</ele>
        <time>2021-09-04T12:27:39Z</time>
      </trkpt>
      <trkpt lat="42.635273" lon="0.447068">
        <ele>2375.000000</ele>
        <time>2021-09-04T12:27:40Z</time>
      </trkpt>
      <trkpt lat="42.635257" lon="0.447058">
        <ele>2375.000000</ele>
        <time>2021-09-04T12:28:06Z</time>
      </trkpt>
      <trkpt lat="42.635252" lon="0.447043">
        <ele>2375.000000</ele>
        <time>2021-09-04T12:28:07Z</time>
      </trkpt>
      <trkpt lat="42.635250" lon="0.447037">
        <ele>2375.000000</ele>
        <time>2021-09-04T12:28:08Z</time>
      </trkpt>
      <trkpt lat="42.635250" lon="0.447033">
        <ele>2375.000000</ele>
        <time>2021-09-04T12:28:09Z</time>
      </trkpt>
      <trkpt lat="42.635251" lon="0.447043">
        <ele>2375.000000</ele>
        <time>2021-09-04T12:28:12Z</time>
      </trkpt>
      <trkpt lat="42.635227" lon="0.446983">
        <ele>2375.000000</ele>
        <time>2021-09-04T12:28:24Z</time>
      </trkpt>
      <trkpt lat="42.635225" lon="0.446977">
        <ele>2375.000000</ele>
        <time>2021-09-04T12:28:25Z</time>
      </trkpt>
      <trkpt lat="42.635225" lon="0.446970">
        <ele>2375.000000</ele>
        <time>2021-09-04T12:28:26Z</time>
      </trkpt>
      <trkpt lat="42.635224" lon="0.446968">
        <ele>2375.000000</ele>
        <time>2021-09-04T12:28:27Z</time>
      </trkpt>
      <trkpt lat="42.635221" lon="0.446963">
        <ele>2375.000000</ele>
        <time>2021-09-04T12:28:28Z</time>
      </trkpt>
      <trkpt lat="42.635216" lon="0.446953">
        <ele>2375.000000</ele>
        <time>2021-09-04T12:28:29Z</time>
      </trkpt>
      <trkpt lat="42.635212" lon="0.446943">
        <ele>2375.000000</ele>
        <time>2021-09-04T12:28:30Z</time>
      </trkpt>
      <trkpt lat="42.635208" lon="0.446932">
        <ele>2375.000000</ele>
        <time>2021-09-04T12:28:31Z</time>
      </trkpt>
      <trkpt lat="42.635205" lon="0.446927">
        <ele>2375.000000</ele>
        <time>2021-09-04T12:28:32Z</time>
      </trkpt>
      <trkpt lat="42.635201" lon="0.446915">
        <ele>2375.000000</ele>
        <time>2021-09-04T12:28:33Z</time>
      </trkpt>
      <trkpt lat="42.635198" lon="0.446903">
        <ele>2375.000000</ele>
        <time>2021-09-04T12:28:34Z</time>
      </trkpt>
      <trkpt lat="42.635195" lon="0.446892">
        <ele>2375.000000</ele>
        <time>2021-09-04T12:28:35Z</time>
      </trkpt>
      <trkpt lat="42.635192" lon="0.446878">
        <ele>2375.000000</ele>
        <time>2021-09-04T12:28:36Z</time>
      </trkpt>
      <trkpt lat="42.635192" lon="0.446870">
        <ele>2375.000000</ele>
        <time>2021-09-04T12:28:37Z</time>
      </trkpt>
      <trkpt lat="42.635200" lon="0.446858">
        <ele>2380.000000</ele>
        <time>2021-09-04T12:28:38Z</time>
      </trkpt>
      <trkpt lat="42.635205" lon="0.446853">
        <ele>2380.000000</ele>
        <time>2021-09-04T12:28:39Z</time>
      </trkpt>
      <trkpt lat="42.635210" lon="0.446855">
        <ele>2380.000000</ele>
        <time>2021-09-04T12:28:40Z</time>
      </trkpt>
      <trkpt lat="42.635217" lon="0.446853">
        <ele>2380.000000</ele>
        <time>2021-09-04T12:28:41Z</time>
      </trkpt>
      <trkpt lat="42.635225" lon="0.446853">
        <ele>2381.000000</ele>
        <time>2021-09-04T12:28:42Z</time>
      </trkpt>
      <trkpt lat="42.635228" lon="0.446850">
        <ele>2381.000000</ele>
        <time>2021-09-04T12:28:43Z</time>
      </trkpt>
      <trkpt lat="42.635232" lon="0.446848">
        <ele>2381.000000</ele>
        <time>2021-09-04T12:28:44Z</time>
      </trkpt>
      <trkpt lat="42.635237" lon="0.446847">
        <ele>2381.000000</ele>
        <time>2021-09-04T12:28:45Z</time>
      </trkpt>
      <trkpt lat="42.635242" lon="0.446843">
        <ele>2381.000000</ele>
        <time>2021-09-04T12:28:46Z</time>
      </trkpt>
      <trkpt lat="42.635248" lon="0.446838">
        <ele>2381.000000</ele>
        <time>2021-09-04T12:28:47Z</time>
      </trkpt>
      <trkpt lat="42.635252" lon="0.446836">
        <ele>2381.000000</ele>
        <time>2021-09-04T12:28:48Z</time>
      </trkpt>
      <trkpt lat="42.635255" lon="0.446832">
        <ele>2381.000000</ele>
        <time>2021-09-04T12:28:49Z</time>
      </trkpt>
      <trkpt lat="42.635260" lon="0.446827">
        <ele>2381.000000</ele>
        <time>2021-09-04T12:28:50Z</time>
      </trkpt>
      <trkpt lat="42.635265" lon="0.446820">
        <ele>2381.000000</ele>
        <time>2021-09-04T12:28:51Z</time>
      </trkpt>
      <trkpt lat="42.635268" lon="0.446815">
        <ele>2382.000000</ele>
        <time>2021-09-04T12:28:52Z</time>
      </trkpt>
      <trkpt lat="42.635273" lon="0.446813">
        <ele>2382.000000</ele>
        <time>2021-09-04T12:28:53Z</time>
      </trkpt>
      <trkpt lat="42.635280" lon="0.446810">
        <ele>2382.000000</ele>
        <time>2021-09-04T12:28:54Z</time>
      </trkpt>
      <trkpt lat="42.635283" lon="0.446807">
        <ele>2382.000000</ele>
        <time>2021-09-04T12:28:55Z</time>
      </trkpt>
      <trkpt lat="42.635288" lon="0.446803">
        <ele>2382.000000</ele>
        <time>2021-09-04T12:28:56Z</time>
      </trkpt>
      <trkpt lat="42.635292" lon="0.446800">
        <ele>2382.000000</ele>
        <time>2021-09-04T12:28:57Z</time>
      </trkpt>
      <trkpt lat="42.635295" lon="0.446791">
        <ele>2383.000000</ele>
        <time>2021-09-04T12:28:58Z</time>
      </trkpt>
      <trkpt lat="42.635293" lon="0.446780">
        <ele>2383.000000</ele>
        <time>2021-09-04T12:28:59Z</time>
      </trkpt>
      <trkpt lat="42.635290" lon="0.446768">
        <ele>2383.000000</ele>
        <time>2021-09-04T12:29:00Z</time>
      </trkpt>
      <trkpt lat="42.635283" lon="0.446755">
        <ele>2383.000000</ele>
        <time>2021-09-04T12:29:01Z</time>
      </trkpt>
      <trkpt lat="42.635280" lon="0.446740">
        <ele>2383.000000</ele>
        <time>2021-09-04T12:29:02Z</time>
      </trkpt>
      <trkpt lat="42.635283" lon="0.446730">
        <ele>2383.000000</ele>
        <time>2021-09-04T12:29:03Z</time>
      </trkpt>
      <trkpt lat="42.635288" lon="0.446725">
        <ele>2384.000000</ele>
        <time>2021-09-04T12:29:04Z</time>
      </trkpt>
      <trkpt lat="42.635298" lon="0.446717">
        <ele>2384.000000</ele>
        <time>2021-09-04T12:29:05Z</time>
      </trkpt>
      <trkpt lat="42.635308" lon="0.446712">
        <ele>2384.000000</ele>
        <time>2021-09-04T12:29:06Z</time>
      </trkpt>
      <trkpt lat="42.635312" lon="0.446710">
        <ele>2384.000000</ele>
        <time>2021-09-04T12:29:07Z</time>
      </trkpt>
      <trkpt lat="42.635317" lon="0.446710">
        <ele>2385.000000</ele>
        <time>2021-09-04T12:29:08Z</time>
      </trkpt>
      <trkpt lat="42.635323" lon="0.446708">
        <ele>2385.000000</ele>
        <time>2021-09-04T12:29:09Z</time>
      </trkpt>
      <trkpt lat="42.635333" lon="0.446712">
        <ele>2385.000000</ele>
        <time>2021-09-04T12:29:10Z</time>
      </trkpt>
      <trkpt lat="42.635343" lon="0.446715">
        <ele>2385.000000</ele>
        <time>2021-09-04T12:29:11Z</time>
      </trkpt>
      <trkpt lat="42.635353" lon="0.446717">
        <ele>2385.000000</ele>
        <time>2021-09-04T12:29:12Z</time>
      </trkpt>
      <trkpt lat="42.635362" lon="0.446717">
        <ele>2385.000000</ele>
        <time>2021-09-04T12:29:13Z</time>
      </trkpt>
      <trkpt lat="42.635375" lon="0.446717">
        <ele>2386.000000</ele>
        <time>2021-09-04T12:29:14Z</time>
      </trkpt>
      <trkpt lat="42.635387" lon="0.446717">
        <ele>2386.000000</ele>
        <time>2021-09-04T12:29:15Z</time>
      </trkpt>
      <trkpt lat="42.635402" lon="0.446719">
        <ele>2386.000000</ele>
        <time>2021-09-04T12:29:16Z</time>
      </trkpt>
      <trkpt lat="42.635410" lon="0.446720">
        <ele>2386.000000</ele>
        <time>2021-09-04T12:29:17Z</time>
      </trkpt>
      <trkpt lat="42.635420" lon="0.446720">
        <ele>2386.000000</ele>
        <time>2021-09-04T12:29:18Z</time>
      </trkpt>
      <trkpt lat="42.635428" lon="0.446718">
        <ele>2386.000000</ele>
        <time>2021-09-04T12:29:19Z</time>
      </trkpt>
      <trkpt lat="42.635435" lon="0.446715">
        <ele>2386.000000</ele>
        <time>2021-09-04T12:29:20Z</time>
      </trkpt>
      <trkpt lat="42.635443" lon="0.446712">
        <ele>2386.000000</ele>
        <time>2021-09-04T12:29:21Z</time>
      </trkpt>
      <trkpt lat="42.635442" lon="0.446695">
        <ele>2386.000000</ele>
        <time>2021-09-04T12:29:22Z</time>
      </trkpt>
      <trkpt lat="42.635448" lon="0.446688">
        <ele>2387.000000</ele>
        <time>2021-09-04T12:29:23Z</time>
      </trkpt>
      <trkpt lat="42.635457" lon="0.446683">
        <ele>2387.000000</ele>
        <time>2021-09-04T12:29:23Z</time>
      </trkpt>
      <trkpt lat="42.635463" lon="0.446678">
        <ele>2387.000000</ele>
        <time>2021-09-04T12:29:24Z</time>
      </trkpt>
      <trkpt lat="42.635477" lon="0.446671">
        <ele>2387.000000</ele>
        <time>2021-09-04T12:29:25Z</time>
      </trkpt>
      <trkpt lat="42.635483" lon="0.446669">
        <ele>2387.000000</ele>
        <time>2021-09-04T12:29:26Z</time>
      </trkpt>
      <trkpt lat="42.635498" lon="0.446662">
        <ele>2387.000000</ele>
        <time>2021-09-04T12:29:27Z</time>
      </trkpt>
      <trkpt lat="42.635507" lon="0.446658">
        <ele>2387.000000</ele>
        <time>2021-09-04T12:29:28Z</time>
      </trkpt>
      <trkpt lat="42.635517" lon="0.446651">
        <ele>2387.000000</ele>
        <time>2021-09-04T12:29:29Z</time>
      </trkpt>
      <trkpt lat="42.635523" lon="0.446647">
        <ele>2388.000000</ele>
        <time>2021-09-04T12:29:30Z</time>
      </trkpt>
      <trkpt lat="42.635530" lon="0.446643">
        <ele>2388.000000</ele>
        <time>2021-09-04T12:29:31Z</time>
      </trkpt>
      <trkpt lat="42.635540" lon="0.446638">
        <ele>2388.000000</ele>
        <time>2021-09-04T12:29:32Z</time>
      </trkpt>
      <trkpt lat="42.635548" lon="0.446633">
        <ele>2388.000000</ele>
        <time>2021-09-04T12:29:33Z</time>
      </trkpt>
      <trkpt lat="42.635555" lon="0.446630">
        <ele>2388.000000</ele>
        <time>2021-09-04T12:29:34Z</time>
      </trkpt>
      <trkpt lat="42.635562" lon="0.446627">
        <ele>2388.000000</ele>
        <time>2021-09-04T12:29:35Z</time>
      </trkpt>
      <trkpt lat="42.635567" lon="0.446625">
        <ele>2388.000000</ele>
        <time>2021-09-04T12:29:36Z</time>
      </trkpt>
      <trkpt lat="42.635572" lon="0.446623">
        <ele>2389.000000</ele>
        <time>2021-09-04T12:29:37Z</time>
      </trkpt>
      <trkpt lat="42.635573" lon="0.446622">
        <ele>2389.000000</ele>
        <time>2021-09-04T12:29:38Z</time>
      </trkpt>
      <trkpt lat="42.635578" lon="0.446620">
        <ele>2389.000000</ele>
        <time>2021-09-04T12:29:39Z</time>
      </trkpt>
      <trkpt lat="42.635587" lon="0.446616">
        <ele>2389.000000</ele>
        <time>2021-09-04T12:29:40Z</time>
      </trkpt>
      <trkpt lat="42.635598" lon="0.446610">
        <ele>2389.000000</ele>
        <time>2021-09-04T12:29:41Z</time>
      </trkpt>
      <trkpt lat="42.635612" lon="0.446604">
        <ele>2389.000000</ele>
        <time>2021-09-04T12:29:42Z</time>
      </trkpt>
      <trkpt lat="42.635623" lon="0.446601">
        <ele>2389.000000</ele>
        <time>2021-09-04T12:29:43Z</time>
      </trkpt>
      <trkpt lat="42.635635" lon="0.446598">
        <ele>2389.000000</ele>
        <time>2021-09-04T12:29:44Z</time>
      </trkpt>
      <trkpt lat="42.635643" lon="0.446613">
        <ele>2389.000000</ele>
        <time>2021-09-04T12:29:45Z</time>
      </trkpt>
      <trkpt lat="42.635652" lon="0.446617">
        <ele>2389.000000</ele>
        <time>2021-09-04T12:29:46Z</time>
      </trkpt>
      <trkpt lat="42.635660" lon="0.446620">
        <ele>2389.000000</ele>
        <time>2021-09-04T12:29:47Z</time>
      </trkpt>
      <trkpt lat="42.635667" lon="0.446627">
        <ele>2389.000000</ele>
        <time>2021-09-04T12:29:48Z</time>
      </trkpt>
      <trkpt lat="42.635672" lon="0.446630">
        <ele>2389.000000</ele>
        <time>2021-09-04T12:29:49Z</time>
      </trkpt>
      <trkpt lat="42.635682" lon="0.446631">
        <ele>2389.000000</ele>
        <time>2021-09-04T12:29:50Z</time>
      </trkpt>
      <trkpt lat="42.635687" lon="0.446632">
        <ele>2389.000000</ele>
        <time>2021-09-04T12:29:51Z</time>
      </trkpt>
      <trkpt lat="42.635692" lon="0.446631">
        <ele>2390.000000</ele>
        <time>2021-09-04T12:29:52Z</time>
      </trkpt>
      <trkpt lat="42.635700" lon="0.446629">
        <ele>2390.000000</ele>
        <time>2021-09-04T12:29:53Z</time>
      </trkpt>
      <trkpt lat="42.635710" lon="0.446629">
        <ele>2390.000000</ele>
        <time>2021-09-04T12:29:54Z</time>
      </trkpt>
      <trkpt lat="42.635713" lon="0.446628">
        <ele>2390.000000</ele>
        <time>2021-09-04T12:29:55Z</time>
      </trkpt>
      <trkpt lat="42.635712" lon="0.446627">
        <ele>2390.000000</ele>
        <time>2021-09-04T12:29:56Z</time>
      </trkpt>
      <trkpt lat="42.635715" lon="0.446627">
        <ele>2390.000000</ele>
        <time>2021-09-04T12:29:57Z</time>
      </trkpt>
      <trkpt lat="42.635715" lon="0.446626">
        <ele>2390.000000</ele>
        <time>2021-09-04T12:29:58Z</time>
      </trkpt>
      <trkpt lat="42.635718" lon="0.446623">
        <ele>2390.000000</ele>
        <time>2021-09-04T12:29:59Z</time>
      </trkpt>
      <trkpt lat="42.635723" lon="0.446610">
        <ele>2391.000000</ele>
        <time>2021-09-04T12:30:00Z</time>
      </trkpt>
      <trkpt lat="42.635730" lon="0.446602">
        <ele>2391.000000</ele>
        <time>2021-09-04T12:30:01Z</time>
      </trkpt>
      <trkpt lat="42.635735" lon="0.446596">
        <ele>2391.000000</ele>
        <time>2021-09-04T12:30:02Z</time>
      </trkpt>
      <trkpt lat="42.635735" lon="0.446593">
        <ele>2391.000000</ele>
        <time>2021-09-04T12:30:03Z</time>
      </trkpt>
      <trkpt lat="42.635733" lon="0.446593">
        <ele>2391.000000</ele>
        <time>2021-09-04T12:30:04Z</time>
      </trkpt>
      <trkpt lat="42.635738" lon="0.446575">
        <ele>2391.000000</ele>
        <time>2021-09-04T12:30:05Z</time>
      </trkpt>
      <trkpt lat="42.635743" lon="0.446568">
        <ele>2391.000000</ele>
        <time>2021-09-04T12:30:06Z</time>
      </trkpt>
      <trkpt lat="42.635747" lon="0.446565">
        <ele>2391.000000</ele>
        <time>2021-09-04T12:30:07Z</time>
      </trkpt>
      <trkpt lat="42.635752" lon="0.446558">
        <ele>2392.000000</ele>
        <time>2021-09-04T12:30:08Z</time>
      </trkpt>
      <trkpt lat="42.635757" lon="0.446553">
        <ele>2392.000000</ele>
        <time>2021-09-04T12:30:09Z</time>
      </trkpt>
      <trkpt lat="42.635767" lon="0.446550">
        <ele>2392.000000</ele>
        <time>2021-09-04T12:30:10Z</time>
      </trkpt>
      <trkpt lat="42.635773" lon="0.446547">
        <ele>2392.000000</ele>
        <time>2021-09-04T12:30:11Z</time>
      </trkpt>
      <trkpt lat="42.635780" lon="0.446540">
        <ele>2392.000000</ele>
        <time>2021-09-04T12:30:12Z</time>
      </trkpt>
      <trkpt lat="42.635788" lon="0.446533">
        <ele>2392.000000</ele>
        <time>2021-09-04T12:30:13Z</time>
      </trkpt>
      <trkpt lat="42.635797" lon="0.446527">
        <ele>2392.000000</ele>
        <time>2021-09-04T12:30:14Z</time>
      </trkpt>
      <trkpt lat="42.635810" lon="0.446521">
        <ele>2392.000000</ele>
        <time>2021-09-04T12:30:15Z</time>
      </trkpt>
      <trkpt lat="42.635818" lon="0.446516">
        <ele>2392.000000</ele>
        <time>2021-09-04T12:30:16Z</time>
      </trkpt>
      <trkpt lat="42.635832" lon="0.446511">
        <ele>2392.000000</ele>
        <time>2021-09-04T12:30:17Z</time>
      </trkpt>
      <trkpt lat="42.635838" lon="0.446507">
        <ele>2392.000000</ele>
        <time>2021-09-04T12:30:18Z</time>
      </trkpt>
      <trkpt lat="42.635845" lon="0.446504">
        <ele>2393.000000</ele>
        <time>2021-09-04T12:30:19Z</time>
      </trkpt>
      <trkpt lat="42.635847" lon="0.446502">
        <ele>2393.000000</ele>
        <time>2021-09-04T12:30:20Z</time>
      </trkpt>
      <trkpt lat="42.635848" lon="0.446499">
        <ele>2393.000000</ele>
        <time>2021-09-04T12:30:21Z</time>
      </trkpt>
      <trkpt lat="42.635853" lon="0.446495">
        <ele>2393.000000</ele>
        <time>2021-09-04T12:30:22Z</time>
      </trkpt>
      <trkpt lat="42.635862" lon="0.446487">
        <ele>2393.000000</ele>
        <time>2021-09-04T12:30:23Z</time>
      </trkpt>
      <trkpt lat="42.635865" lon="0.446483">
        <ele>2393.000000</ele>
        <time>2021-09-04T12:30:24Z</time>
      </trkpt>
      <trkpt lat="42.635872" lon="0.446470">
        <ele>2393.000000</ele>
        <time>2021-09-04T12:30:25Z</time>
      </trkpt>
      <trkpt lat="42.635878" lon="0.446467">
        <ele>2393.000000</ele>
        <time>2021-09-04T12:30:26Z</time>
      </trkpt>
      <trkpt lat="42.635883" lon="0.446465">
        <ele>2394.000000</ele>
        <time>2021-09-04T12:30:27Z</time>
      </trkpt>
      <trkpt lat="42.635888" lon="0.446461">
        <ele>2394.000000</ele>
        <time>2021-09-04T12:30:28Z</time>
      </trkpt>
      <trkpt lat="42.635897" lon="0.446455">
        <ele>2394.000000</ele>
        <time>2021-09-04T12:30:29Z</time>
      </trkpt>
      <trkpt lat="42.635903" lon="0.446451">
        <ele>2394.000000</ele>
        <time>2021-09-04T12:30:30Z</time>
      </trkpt>
      <trkpt lat="42.635910" lon="0.446448">
        <ele>2394.000000</ele>
        <time>2021-09-04T12:30:31Z</time>
      </trkpt>
      <trkpt lat="42.635917" lon="0.446443">
        <ele>2394.000000</ele>
        <time>2021-09-04T12:30:32Z</time>
      </trkpt>
      <trkpt lat="42.635920" lon="0.446439">
        <ele>2394.000000</ele>
        <time>2021-09-04T12:30:33Z</time>
      </trkpt>
      <trkpt lat="42.635925" lon="0.446434">
        <ele>2394.000000</ele>
        <time>2021-09-04T12:30:34Z</time>
      </trkpt>
      <trkpt lat="42.635930" lon="0.446427">
        <ele>2394.000000</ele>
        <time>2021-09-04T12:30:35Z</time>
      </trkpt>
      <trkpt lat="42.635937" lon="0.446419">
        <ele>2394.000000</ele>
        <time>2021-09-04T12:30:36Z</time>
      </trkpt>
      <trkpt lat="42.635942" lon="0.446413">
        <ele>2394.000000</ele>
        <time>2021-09-04T12:30:37Z</time>
      </trkpt>
      <trkpt lat="42.635947" lon="0.446407">
        <ele>2394.000000</ele>
        <time>2021-09-04T12:30:38Z</time>
      </trkpt>
      <trkpt lat="42.635955" lon="0.446399">
        <ele>2394.000000</ele>
        <time>2021-09-04T12:30:39Z</time>
      </trkpt>
      <trkpt lat="42.635958" lon="0.446396">
        <ele>2394.000000</ele>
        <time>2021-09-04T12:30:40Z</time>
      </trkpt>
      <trkpt lat="42.635960" lon="0.446393">
        <ele>2394.000000</ele>
        <time>2021-09-04T12:30:41Z</time>
      </trkpt>
      <trkpt lat="42.635960" lon="0.446391">
        <ele>2394.000000</ele>
        <time>2021-09-04T12:30:42Z</time>
      </trkpt>
      <trkpt lat="42.635960" lon="0.446368">
        <ele>2395.000000</ele>
        <time>2021-09-04T12:30:43Z</time>
      </trkpt>
      <trkpt lat="42.635963" lon="0.446358">
        <ele>2395.000000</ele>
        <time>2021-09-04T12:30:44Z</time>
      </trkpt>
      <trkpt lat="42.635967" lon="0.446348">
        <ele>2395.000000</ele>
        <time>2021-09-04T12:30:45Z</time>
      </trkpt>
      <trkpt lat="42.635971" lon="0.446338">
        <ele>2395.000000</ele>
        <time>2021-09-04T12:30:46Z</time>
      </trkpt>
      <trkpt lat="42.635974" lon="0.446330">
        <ele>2395.000000</ele>
        <time>2021-09-04T12:30:47Z</time>
      </trkpt>
      <trkpt lat="42.635973" lon="0.446320">
        <ele>2395.000000</ele>
        <time>2021-09-04T12:30:48Z</time>
      </trkpt>
      <trkpt lat="42.635974" lon="0.446310">
        <ele>2396.000000</ele>
        <time>2021-09-04T12:30:49Z</time>
      </trkpt>
      <trkpt lat="42.635974" lon="0.446305">
        <ele>2396.000000</ele>
        <time>2021-09-04T12:30:50Z</time>
      </trkpt>
      <trkpt lat="42.635976" lon="0.446293">
        <ele>2396.000000</ele>
        <time>2021-09-04T12:30:51Z</time>
      </trkpt>
      <trkpt lat="42.635976" lon="0.446288">
        <ele>2396.000000</ele>
        <time>2021-09-04T12:30:52Z</time>
      </trkpt>
      <trkpt lat="42.635977" lon="0.446277">
        <ele>2396.000000</ele>
        <time>2021-09-04T12:30:53Z</time>
      </trkpt>
      <trkpt lat="42.635979" lon="0.446268">
        <ele>2396.000000</ele>
        <time>2021-09-04T12:30:54Z</time>
      </trkpt>
      <trkpt lat="42.635982" lon="0.446260">
        <ele>2396.000000</ele>
        <time>2021-09-04T12:30:55Z</time>
      </trkpt>
      <trkpt lat="42.635988" lon="0.446257">
        <ele>2396.000000</ele>
        <time>2021-09-04T12:30:56Z</time>
      </trkpt>
      <trkpt lat="42.635992" lon="0.446250">
        <ele>2397.000000</ele>
        <time>2021-09-04T12:30:57Z</time>
      </trkpt>
      <trkpt lat="42.635992" lon="0.446245">
        <ele>2397.000000</ele>
        <time>2021-09-04T12:30:58Z</time>
      </trkpt>
      <trkpt lat="42.635992" lon="0.446240">
        <ele>2397.000000</ele>
        <time>2021-09-04T12:30:59Z</time>
      </trkpt>
      <trkpt lat="42.635993" lon="0.446235">
        <ele>2397.000000</ele>
        <time>2021-09-04T12:31:00Z</time>
      </trkpt>
      <trkpt lat="42.635994" lon="0.446228">
        <ele>2397.000000</ele>
        <time>2021-09-04T12:31:01Z</time>
      </trkpt>
      <trkpt lat="42.635994" lon="0.446223">
        <ele>2397.000000</ele>
        <time>2021-09-04T12:31:02Z</time>
      </trkpt>
      <trkpt lat="42.635993" lon="0.446218">
        <ele>2397.000000</ele>
        <time>2021-09-04T12:31:03Z</time>
      </trkpt>
      <trkpt lat="42.635990" lon="0.446213">
        <ele>2397.000000</ele>
        <time>2021-09-04T12:31:04Z</time>
      </trkpt>
      <trkpt lat="42.635987" lon="0.446213">
        <ele>2398.000000</ele>
        <time>2021-09-04T12:31:05Z</time>
      </trkpt>
      <trkpt lat="42.635987" lon="0.446205">
        <ele>2398.000000</ele>
        <time>2021-09-04T12:31:06Z</time>
      </trkpt>
      <trkpt lat="42.635987" lon="0.446192">
        <ele>2398.000000</ele>
        <time>2021-09-04T12:31:07Z</time>
      </trkpt>
      <trkpt lat="42.635988" lon="0.446185">
        <ele>2398.000000</ele>
        <time>2021-09-04T12:31:08Z</time>
      </trkpt>
      <trkpt lat="42.635990" lon="0.446177">
        <ele>2398.000000</ele>
        <time>2021-09-04T12:31:09Z</time>
      </trkpt>
      <trkpt lat="42.635995" lon="0.446170">
        <ele>2398.000000</ele>
        <time>2021-09-04T12:31:10Z</time>
      </trkpt>
      <trkpt lat="42.635998" lon="0.446168">
        <ele>2398.000000</ele>
        <time>2021-09-04T12:31:11Z</time>
      </trkpt>
      <trkpt lat="42.635997" lon="0.446165">
        <ele>2398.000000</ele>
        <time>2021-09-04T12:31:12Z</time>
      </trkpt>
      <trkpt lat="42.635998" lon="0.446168">
        <ele>2398.000000</ele>
        <time>2021-09-04T12:31:13Z</time>
      </trkpt>
      <trkpt lat="42.635998" lon="0.446173">
        <ele>2398.000000</ele>
        <time>2021-09-04T12:31:14Z</time>
      </trkpt>
      <trkpt lat="42.636000" lon="0.446132">
        <ele>2401.000000</ele>
        <time>2021-09-04T12:31:51Z</time>
      </trkpt>
      <trkpt lat="42.636000" lon="0.446128">
        <ele>2401.000000</ele>
        <time>2021-09-04T12:31:52Z</time>
      </trkpt>
      <trkpt lat="42.636000" lon="0.446123">
        <ele>2401.000000</ele>
        <time>2021-09-04T12:31:53Z</time>
      </trkpt>
      <trkpt lat="42.636001" lon="0.446120">
        <ele>2401.000000</ele>
        <time>2021-09-04T12:31:54Z</time>
      </trkpt>
      <trkpt lat="42.636003" lon="0.446115">
        <ele>2401.000000</ele>
        <time>2021-09-04T12:31:55Z</time>
      </trkpt>
      <trkpt lat="42.636003" lon="0.446110">
        <ele>2401.000000</ele>
        <time>2021-09-04T12:31:56Z</time>
      </trkpt>
      <trkpt lat="42.636002" lon="0.446107">
        <ele>2401.000000</ele>
        <time>2021-09-04T12:31:57Z</time>
      </trkpt>
      <trkpt lat="42.636001" lon="0.446103">
        <ele>2401.000000</ele>
        <time>2021-09-04T12:31:58Z</time>
      </trkpt>
      <trkpt lat="42.635998" lon="0.446112">
        <ele>2401.000000</ele>
        <time>2021-09-04T12:32:02Z</time>
      </trkpt>
      <trkpt lat="42.635998" lon="0.446115">
        <ele>2401.000000</ele>
        <time>2021-09-04T12:32:03Z</time>
      </trkpt>
      <trkpt lat="42.635999" lon="0.446110">
        <ele>2401.000000</ele>
        <time>2021-09-04T12:32:04Z</time>
      </trkpt>
      <trkpt lat="42.636037" lon="0.446070">
        <ele>2401.000000</ele>
        <time>2021-09-04T12:32:33Z</time>
      </trkpt>
      <trkpt lat="42.636042" lon="0.446058">
        <ele>2401.000000</ele>
        <time>2021-09-04T12:32:34Z</time>
      </trkpt>
      <trkpt lat="42.636050" lon="0.446052">
        <ele>2401.000000</ele>
        <time>2021-09-04T12:32:35Z</time>
      </trkpt>
      <trkpt lat="42.636057" lon="0.446042">
        <ele>2401.000000</ele>
        <time>2021-09-04T12:32:36Z</time>
      </trkpt>
      <trkpt lat="42.636063" lon="0.446032">
        <ele>2401.000000</ele>
        <time>2021-09-04T12:32:37Z</time>
      </trkpt>
      <trkpt lat="42.636068" lon="0.446025">
        <ele>2401.000000</ele>
        <time>2021-09-04T12:32:38Z</time>
      </trkpt>
      <trkpt lat="42.636072" lon="0.446020">
        <ele>2401.000000</ele>
        <time>2021-09-04T12:32:39Z</time>
      </trkpt>
      <trkpt lat="42.636078" lon="0.446015">
        <ele>2398.000000</ele>
        <time>2021-09-04T12:32:40Z</time>
      </trkpt>
      <trkpt lat="42.636085" lon="0.446011">
        <ele>2398.000000</ele>
        <time>2021-09-04T12:32:41Z</time>
      </trkpt>
      <trkpt lat="42.636090" lon="0.446005">
        <ele>2398.000000</ele>
        <time>2021-09-04T12:32:42Z</time>
      </trkpt>
      <trkpt lat="42.636093" lon="0.446000">
        <ele>2398.000000</ele>
        <time>2021-09-04T12:32:43Z</time>
      </trkpt>
      <trkpt lat="42.636100" lon="0.445988">
        <ele>2398.000000</ele>
        <time>2021-09-04T12:32:44Z</time>
      </trkpt>
      <trkpt lat="42.636107" lon="0.445983">
        <ele>2398.000000</ele>
        <time>2021-09-04T12:32:45Z</time>
      </trkpt>
      <trkpt lat="42.636110" lon="0.445978">
        <ele>2398.000000</ele>
        <time>2021-09-04T12:32:46Z</time>
      </trkpt>
      <trkpt lat="42.636117" lon="0.445971">
        <ele>2398.000000</ele>
        <time>2021-09-04T12:32:47Z</time>
      </trkpt>
      <trkpt lat="42.636122" lon="0.445966">
        <ele>2397.000000</ele>
        <time>2021-09-04T12:32:48Z</time>
      </trkpt>
      <trkpt lat="42.636132" lon="0.445958">
        <ele>2397.000000</ele>
        <time>2021-09-04T12:32:49Z</time>
      </trkpt>
      <trkpt lat="42.636138" lon="0.445950">
        <ele>2397.000000</ele>
        <time>2021-09-04T12:32:50Z</time>
      </trkpt>
      <trkpt lat="42.636145" lon="0.445939">
        <ele>2397.000000</ele>
        <time>2021-09-04T12:32:51Z</time>
      </trkpt>
      <trkpt lat="42.636150" lon="0.445923">
        <ele>2397.000000</ele>
        <time>2021-09-04T12:32:52Z</time>
      </trkpt>
      <trkpt lat="42.636155" lon="0.445908">
        <ele>2397.000000</ele>
        <time>2021-09-04T12:32:53Z</time>
      </trkpt>
      <trkpt lat="42.636161" lon="0.445897">
        <ele>2396.000000</ele>
        <time>2021-09-04T12:32:54Z</time>
      </trkpt>
      <trkpt lat="42.636168" lon="0.445887">
        <ele>2396.000000</ele>
        <time>2021-09-04T12:32:55Z</time>
      </trkpt>
      <trkpt lat="42.636177" lon="0.445875">
        <ele>2396.000000</ele>
        <time>2021-09-04T12:32:56Z</time>
      </trkpt>
      <trkpt lat="42.636185" lon="0.445862">
        <ele>2396.000000</ele>
        <time>2021-09-04T12:32:57Z</time>
      </trkpt>
      <trkpt lat="42.636192" lon="0.445845">
        <ele>2396.000000</ele>
        <time>2021-09-04T12:32:58Z</time>
      </trkpt>
      <trkpt lat="42.636197" lon="0.445832">
        <ele>2395.000000</ele>
        <time>2021-09-04T12:32:59Z</time>
      </trkpt>
      <trkpt lat="42.636202" lon="0.445820">
        <ele>2395.000000</ele>
        <time>2021-09-04T12:33:00Z</time>
      </trkpt>
      <trkpt lat="42.636208" lon="0.445803">
        <ele>2395.000000</ele>
        <time>2021-09-04T12:33:01Z</time>
      </trkpt>
      <trkpt lat="42.636212" lon="0.445790">
        <ele>2395.000000</ele>
        <time>2021-09-04T12:33:02Z</time>
      </trkpt>
      <trkpt lat="42.636215" lon="0.445777">
        <ele>2395.000000</ele>
        <time>2021-09-04T12:33:03Z</time>
      </trkpt>
      <trkpt lat="42.636217" lon="0.445770">
        <ele>2395.000000</ele>
        <time>2021-09-04T12:33:04Z</time>
      </trkpt>
      <trkpt lat="42.636220" lon="0.445762">
        <ele>2395.000000</ele>
        <time>2021-09-04T12:33:05Z</time>
      </trkpt>
      <trkpt lat="42.636224" lon="0.445750">
        <ele>2395.000000</ele>
        <time>2021-09-04T12:33:06Z</time>
      </trkpt>
      <trkpt lat="42.636227" lon="0.445740">
        <ele>2395.000000</ele>
        <time>2021-09-04T12:33:07Z</time>
      </trkpt>
      <trkpt lat="42.636230" lon="0.445730">
        <ele>2395.000000</ele>
        <time>2021-09-04T12:33:08Z</time>
      </trkpt>
      <trkpt lat="42.636232" lon="0.445722">
        <ele>2395.000000</ele>
        <time>2021-09-04T12:33:09Z</time>
      </trkpt>
      <trkpt lat="42.636234" lon="0.445715">
        <ele>2395.000000</ele>
        <time>2021-09-04T12:33:10Z</time>
      </trkpt>
      <trkpt lat="42.636236" lon="0.445708">
        <ele>2395.000000</ele>
        <time>2021-09-04T12:33:11Z</time>
      </trkpt>
      <trkpt lat="42.636240" lon="0.445695">
        <ele>2395.000000</ele>
        <time>2021-09-04T12:33:12Z</time>
      </trkpt>
      <trkpt lat="42.636243" lon="0.445685">
        <ele>2395.000000</ele>
        <time>2021-09-04T12:33:13Z</time>
      </trkpt>
      <trkpt lat="42.636245" lon="0.445678">
        <ele>2395.000000</ele>
        <time>2021-09-04T12:33:14Z</time>
      </trkpt>
      <trkpt lat="42.636248" lon="0.445668">
        <ele>2395.000000</ele>
        <time>2021-09-04T12:33:15Z</time>
      </trkpt>
      <trkpt lat="42.636249" lon="0.445663">
        <ele>2395.000000</ele>
        <time>2021-09-04T12:33:16Z</time>
      </trkpt>
      <trkpt lat="42.636251" lon="0.445655">
        <ele>2396.000000</ele>
        <time>2021-09-04T12:33:17Z</time>
      </trkpt>
      <trkpt lat="42.636252" lon="0.445650">
        <ele>2396.000000</ele>
        <time>2021-09-04T12:33:18Z</time>
      </trkpt>
      <trkpt lat="42.636253" lon="0.445645">
        <ele>2396.000000</ele>
        <time>2021-09-04T12:33:19Z</time>
      </trkpt>
      <trkpt lat="42.636253" lon="0.445643">
        <ele>2396.000000</ele>
        <time>2021-09-04T12:33:20Z</time>
      </trkpt>
      <trkpt lat="42.636242" lon="0.445642">
        <ele>2397.000000</ele>
        <time>2021-09-04T12:33:21Z</time>
      </trkpt>
      <trkpt lat="42.636238" lon="0.445638">
        <ele>2397.000000</ele>
        <time>2021-09-04T12:33:22Z</time>
      </trkpt>
      <trkpt lat="42.636238" lon="0.445637">
        <ele>2398.000000</ele>
        <time>2021-09-04T12:33:25Z</time>
      </trkpt>
      <trkpt lat="42.636241" lon="0.445635">
        <ele>2399.000000</ele>
        <time>2021-09-04T12:33:26Z</time>
      </trkpt>
      <trkpt lat="42.636248" lon="0.445630">
        <ele>2399.000000</ele>
        <time>2021-09-04T12:33:27Z</time>
      </trkpt>
      <trkpt lat="42.636253" lon="0.445627">
        <ele>2399.000000</ele>
        <time>2021-09-04T12:33:28Z</time>
      </trkpt>
      <trkpt lat="42.636257" lon="0.445622">
        <ele>2399.000000</ele>
        <time>2021-09-04T12:33:29Z</time>
      </trkpt>
      <trkpt lat="42.636260" lon="0.445617">
        <ele>2399.000000</ele>
        <time>2021-09-04T12:33:30Z</time>
      </trkpt>
      <trkpt lat="42.636265" lon="0.445610">
        <ele>2400.000000</ele>
        <time>2021-09-04T12:33:31Z</time>
      </trkpt>
      <trkpt lat="42.636269" lon="0.445603">
        <ele>2400.000000</ele>
        <time>2021-09-04T12:33:32Z</time>
      </trkpt>
      <trkpt lat="42.636275" lon="0.445597">
        <ele>2400.000000</ele>
        <time>2021-09-04T12:33:33Z</time>
      </trkpt>
      <trkpt lat="42.636280" lon="0.445590">
        <ele>2400.000000</ele>
        <time>2021-09-04T12:33:34Z</time>
      </trkpt>
      <trkpt lat="42.636281" lon="0.445585">
        <ele>2400.000000</ele>
        <time>2021-09-04T12:33:35Z</time>
      </trkpt>
      <trkpt lat="42.636282" lon="0.445582">
        <ele>2400.000000</ele>
        <time>2021-09-04T12:33:36Z</time>
      </trkpt>
      <trkpt lat="42.636285" lon="0.445578">
        <ele>2400.000000</ele>
        <time>2021-09-04T12:33:37Z</time>
      </trkpt>
      <trkpt lat="42.636293" lon="0.445573">
        <ele>2400.000000</ele>
        <time>2021-09-04T12:33:38Z</time>
      </trkpt>
      <trkpt lat="42.636297" lon="0.445570">
        <ele>2400.000000</ele>
        <time>2021-09-04T12:33:38Z</time>
      </trkpt>
      <trkpt lat="42.636302" lon="0.445567">
        <ele>2401.000000</ele>
        <time>2021-09-04T12:33:40Z</time>
      </trkpt>
      <trkpt lat="42.636302" lon="0.445564">
        <ele>2401.000000</ele>
        <time>2021-09-04T12:33:41Z</time>
      </trkpt>
      <trkpt lat="42.636303" lon="0.445558">
        <ele>2401.000000</ele>
        <time>2021-09-04T12:33:42Z</time>
      </trkpt>
      <trkpt lat="42.636305" lon="0.445553">
        <ele>2401.000000</ele>
        <time>2021-09-04T12:33:43Z</time>
      </trkpt>
      <trkpt lat="42.636307" lon="0.445550">
        <ele>2402.000000</ele>
        <time>2021-09-04T12:33:44Z</time>
      </trkpt>
      <trkpt lat="42.636308" lon="0.445545">
        <ele>2402.000000</ele>
        <time>2021-09-04T12:33:45Z</time>
      </trkpt>
      <trkpt lat="42.636308" lon="0.445542">
        <ele>2402.000000</ele>
        <time>2021-09-04T12:33:46Z</time>
      </trkpt>
      <trkpt lat="42.636305" lon="0.445538">
        <ele>2403.000000</ele>
        <time>2021-09-04T12:33:47Z</time>
      </trkpt>
      <trkpt lat="42.636305" lon="0.445530">
        <ele>2403.000000</ele>
        <time>2021-09-04T12:33:48Z</time>
      </trkpt>
      <trkpt lat="42.636303" lon="0.445522">
        <ele>2403.000000</ele>
        <time>2021-09-04T12:33:49Z</time>
      </trkpt>
      <trkpt lat="42.636303" lon="0.445512">
        <ele>2404.000000</ele>
        <time>2021-09-04T12:33:50Z</time>
      </trkpt>
      <trkpt lat="42.636305" lon="0.445507">
        <ele>2404.000000</ele>
        <time>2021-09-04T12:33:51Z</time>
      </trkpt>
      <trkpt lat="42.636308" lon="0.445502">
        <ele>2404.000000</ele>
        <time>2021-09-04T12:33:52Z</time>
      </trkpt>
      <trkpt lat="42.636310" lon="0.445492">
        <ele>2405.000000</ele>
        <time>2021-09-04T12:33:53Z</time>
      </trkpt>
      <trkpt lat="42.636315" lon="0.445487">
        <ele>2405.000000</ele>
        <time>2021-09-04T12:33:54Z</time>
      </trkpt>
      <trkpt lat="42.636317" lon="0.445483">
        <ele>2405.000000</ele>
        <time>2021-09-04T12:33:55Z</time>
      </trkpt>
      <trkpt lat="42.636318" lon="0.445477">
        <ele>2406.000000</ele>
        <time>2021-09-04T12:33:56Z</time>
      </trkpt>
      <trkpt lat="42.636321" lon="0.445470">
        <ele>2406.000000</ele>
        <time>2021-09-04T12:33:57Z</time>
      </trkpt>
      <trkpt lat="42.636322" lon="0.445463">
        <ele>2407.000000</ele>
        <time>2021-09-04T12:33:59Z</time>
      </trkpt>
      <trkpt lat="42.636323" lon="0.445458">
        <ele>2407.000000</ele>
        <time>2021-09-04T12:34:00Z</time>
      </trkpt>
      <trkpt lat="42.636323" lon="0.445452">
        <ele>2407.000000</ele>
        <time>2021-09-04T12:34:01Z</time>
      </trkpt>
      <trkpt lat="42.636325" lon="0.445447">
        <ele>2408.000000</ele>
        <time>2021-09-04T12:34:02Z</time>
      </trkpt>
      <trkpt lat="42.636328" lon="0.445438">
        <ele>2408.000000</ele>
        <time>2021-09-04T12:34:03Z</time>
      </trkpt>
      <trkpt lat="42.636331" lon="0.445430">
        <ele>2408.000000</ele>
        <time>2021-09-04T12:34:04Z</time>
      </trkpt>
      <trkpt lat="42.636334" lon="0.445423">
        <ele>2408.000000</ele>
        <time>2021-09-04T12:34:05Z</time>
      </trkpt>
      <trkpt lat="42.636335" lon="0.445417">
        <ele>2408.000000</ele>
        <time>2021-09-04T12:34:06Z</time>
      </trkpt>
      <trkpt lat="42.636335" lon="0.445410">
        <ele>2409.000000</ele>
        <time>2021-09-04T12:34:07Z</time>
      </trkpt>
      <trkpt lat="42.636330" lon="0.445400">
        <ele>2409.000000</ele>
        <time>2021-09-04T12:34:08Z</time>
      </trkpt>
      <trkpt lat="42.636328" lon="0.445388">
        <ele>2409.000000</ele>
        <time>2021-09-04T12:34:09Z</time>
      </trkpt>
      <trkpt lat="42.636322" lon="0.445378">
        <ele>2410.000000</ele>
        <time>2021-09-04T12:34:10Z</time>
      </trkpt>
      <trkpt lat="42.636318" lon="0.445368">
        <ele>2410.000000</ele>
        <time>2021-09-04T12:34:11Z</time>
      </trkpt>
      <trkpt lat="42.636313" lon="0.445357">
        <ele>2410.000000</ele>
        <time>2021-09-04T12:34:12Z</time>
      </trkpt>
      <trkpt lat="42.636310" lon="0.445345">
        <ele>2410.000000</ele>
        <time>2021-09-04T12:34:13Z</time>
      </trkpt>
      <trkpt lat="42.636303" lon="0.445327">
        <ele>2410.000000</ele>
        <time>2021-09-04T12:34:14Z</time>
      </trkpt>
      <trkpt lat="42.636301" lon="0.445310">
        <ele>2411.000000</ele>
        <time>2021-09-04T12:34:15Z</time>
      </trkpt>
      <trkpt lat="42.636299" lon="0.445297">
        <ele>2411.000000</ele>
        <time>2021-09-04T12:34:16Z</time>
      </trkpt>
      <trkpt lat="42.636298" lon="0.445283">
        <ele>2411.000000</ele>
        <time>2021-09-04T12:34:17Z</time>
      </trkpt>
      <trkpt lat="42.636296" lon="0.445267">
        <ele>2411.000000</ele>
        <time>2021-09-04T12:34:18Z</time>
      </trkpt>
      <trkpt lat="42.636295" lon="0.445250">
        <ele>2411.000000</ele>
        <time>2021-09-04T12:34:19Z</time>
      </trkpt>
      <trkpt lat="42.636296" lon="0.445235">
        <ele>2412.000000</ele>
        <time>2021-09-04T12:34:20Z</time>
      </trkpt>
      <trkpt lat="42.636305" lon="0.445222">
        <ele>2412.000000</ele>
        <time>2021-09-04T12:34:21Z</time>
      </trkpt>
      <trkpt lat="42.636305" lon="0.445205">
        <ele>2412.000000</ele>
        <time>2021-09-04T12:34:22Z</time>
      </trkpt>
      <trkpt lat="42.636306" lon="0.445187">
        <ele>2412.000000</ele>
        <time>2021-09-04T12:34:23Z</time>
      </trkpt>
      <trkpt lat="42.636309" lon="0.445170">
        <ele>2412.000000</ele>
        <time>2021-09-04T12:34:24Z</time>
      </trkpt>
      <trkpt lat="42.636312" lon="0.445153">
        <ele>2412.000000</ele>
        <time>2021-09-04T12:34:25Z</time>
      </trkpt>
      <trkpt lat="42.636315" lon="0.445137">
        <ele>2412.000000</ele>
        <time>2021-09-04T12:34:26Z</time>
      </trkpt>
      <trkpt lat="42.636319" lon="0.445122">
        <ele>2412.000000</ele>
        <time>2021-09-04T12:34:27Z</time>
      </trkpt>
      <trkpt lat="42.636324" lon="0.445112">
        <ele>2412.000000</ele>
        <time>2021-09-04T12:34:28Z</time>
      </trkpt>
      <trkpt lat="42.636329" lon="0.445095">
        <ele>2412.000000</ele>
        <time>2021-09-04T12:34:29Z</time>
      </trkpt>
      <trkpt lat="42.636334" lon="0.445075">
        <ele>2412.000000</ele>
        <time>2021-09-04T12:34:30Z</time>
      </trkpt>
      <trkpt lat="42.636337" lon="0.445057">
        <ele>2412.000000</ele>
        <time>2021-09-04T12:34:31Z</time>
      </trkpt>
      <trkpt lat="42.636339" lon="0.445040">
        <ele>2412.000000</ele>
        <time>2021-09-04T12:34:32Z</time>
      </trkpt>
      <trkpt lat="42.636341" lon="0.445023">
        <ele>2412.000000</ele>
        <time>2021-09-04T12:34:33Z</time>
      </trkpt>
      <trkpt lat="42.636343" lon="0.445007">
        <ele>2412.000000</ele>
        <time>2021-09-04T12:34:34Z</time>
      </trkpt>
      <trkpt lat="42.636345" lon="0.444988">
        <ele>2412.000000</ele>
        <time>2021-09-04T12:34:35Z</time>
      </trkpt>
      <trkpt lat="42.636348" lon="0.444972">
        <ele>2412.000000</ele>
        <time>2021-09-04T12:34:36Z</time>
      </trkpt>
      <trkpt lat="42.636350" lon="0.444955">
        <ele>2412.000000</ele>
        <time>2021-09-04T12:34:38Z</time>
      </trkpt>
      <trkpt lat="42.636353" lon="0.444938">
        <ele>2412.000000</ele>
        <time>2021-09-04T12:34:38Z</time>
      </trkpt>
      <trkpt lat="42.636355" lon="0.444920">
        <ele>2412.000000</ele>
        <time>2021-09-04T12:34:39Z</time>
      </trkpt>
      <trkpt lat="42.636357" lon="0.444908">
        <ele>2412.000000</ele>
        <time>2021-09-04T12:34:40Z</time>
      </trkpt>
      <trkpt lat="42.636359" lon="0.444893">
        <ele>2412.000000</ele>
        <time>2021-09-04T12:34:41Z</time>
      </trkpt>
      <trkpt lat="42.636361" lon="0.444877">
        <ele>2412.000000</ele>
        <time>2021-09-04T12:34:42Z</time>
      </trkpt>
      <trkpt lat="42.636362" lon="0.444863">
        <ele>2412.000000</ele>
        <time>2021-09-04T12:34:43Z</time>
      </trkpt>
      <trkpt lat="42.636364" lon="0.444847">
        <ele>2412.000000</ele>
        <time>2021-09-04T12:34:44Z</time>
      </trkpt>
      <trkpt lat="42.636364" lon="0.444830">
        <ele>2413.000000</ele>
        <time>2021-09-04T12:34:45Z</time>
      </trkpt>
      <trkpt lat="42.636363" lon="0.444813">
        <ele>2413.000000</ele>
        <time>2021-09-04T12:34:46Z</time>
      </trkpt>
      <trkpt lat="42.636363" lon="0.444797">
        <ele>2413.000000</ele>
        <time>2021-09-04T12:34:47Z</time>
      </trkpt>
      <trkpt lat="42.636363" lon="0.444777">
        <ele>2413.000000</ele>
        <time>2021-09-04T12:34:48Z</time>
      </trkpt>
      <trkpt lat="42.636362" lon="0.444762">
        <ele>2413.000000</ele>
        <time>2021-09-04T12:34:49Z</time>
      </trkpt>
      <trkpt lat="42.636362" lon="0.444745">
        <ele>2413.000000</ele>
        <time>2021-09-04T12:34:50Z</time>
      </trkpt>
      <trkpt lat="42.636363" lon="0.444732">
        <ele>2413.000000</ele>
        <time>2021-09-04T12:34:51Z</time>
      </trkpt>
      <trkpt lat="42.636364" lon="0.444715">
        <ele>2414.000000</ele>
        <time>2021-09-04T12:34:52Z</time>
      </trkpt>
      <trkpt lat="42.636365" lon="0.444702">
        <ele>2414.000000</ele>
        <time>2021-09-04T12:34:53Z</time>
      </trkpt>
      <trkpt lat="42.636367" lon="0.444682">
        <ele>2414.000000</ele>
        <time>2021-09-04T12:34:54Z</time>
      </trkpt>
      <trkpt lat="42.636368" lon="0.444665">
        <ele>2414.000000</ele>
        <time>2021-09-04T12:34:55Z</time>
      </trkpt>
      <trkpt lat="42.636371" lon="0.444643">
        <ele>2414.000000</ele>
        <time>2021-09-04T12:34:56Z</time>
      </trkpt>
      <trkpt lat="42.636373" lon="0.444627">
        <ele>2414.000000</ele>
        <time>2021-09-04T12:34:57Z</time>
      </trkpt>
      <trkpt lat="42.636374" lon="0.444610">
        <ele>2414.000000</ele>
        <time>2021-09-04T12:34:58Z</time>
      </trkpt>
      <trkpt lat="42.636377" lon="0.444593">
        <ele>2414.000000</ele>
        <time>2021-09-04T12:34:59Z</time>
      </trkpt>
      <trkpt lat="42.636379" lon="0.444580">
        <ele>2414.000000</ele>
        <time>2021-09-04T12:35:00Z</time>
      </trkpt>
      <trkpt lat="42.636382" lon="0.444565">
        <ele>2414.000000</ele>
        <time>2021-09-04T12:35:01Z</time>
      </trkpt>
      <trkpt lat="42.636385" lon="0.444552">
        <ele>2414.000000</ele>
        <time>2021-09-04T12:35:02Z</time>
      </trkpt>
      <trkpt lat="42.636407" lon="0.444542">
        <ele>2415.000000</ele>
        <time>2021-09-04T12:35:03Z</time>
      </trkpt>
      <trkpt lat="42.636412" lon="0.444540">
        <ele>2415.000000</ele>
        <time>2021-09-04T12:35:04Z</time>
      </trkpt>
      <trkpt lat="42.636413" lon="0.444542">
        <ele>2415.000000</ele>
        <time>2021-09-04T12:35:05Z</time>
      </trkpt>
      <trkpt lat="42.636415" lon="0.444545">
        <ele>2416.000000</ele>
        <time>2021-09-04T12:35:06Z</time>
      </trkpt>
      <trkpt lat="42.636414" lon="0.444548">
        <ele>2416.000000</ele>
        <time>2021-09-04T12:35:07Z</time>
      </trkpt>
      <trkpt lat="42.636411" lon="0.444548">
        <ele>2418.000000</ele>
        <time>2021-09-04T12:35:08Z</time>
      </trkpt>
      <trkpt lat="42.636411" lon="0.444548">
        <ele>2418.000000</ele>
        <time>2021-09-04T12:35:09Z</time>
      </trkpt>
      <trkpt lat="42.636414" lon="0.444553">
        <ele>2419.000000</ele>
        <time>2021-09-04T12:35:10Z</time>
      </trkpt>
      <trkpt lat="42.636416" lon="0.444558">
        <ele>2419.000000</ele>
        <time>2021-09-04T12:35:11Z</time>
      </trkpt>
      <trkpt lat="42.636416" lon="0.444557">
        <ele>2420.000000</ele>
        <time>2021-09-04T12:35:12Z</time>
      </trkpt>
      <trkpt lat="42.636415" lon="0.444553">
        <ele>2420.000000</ele>
        <time>2021-09-04T12:35:13Z</time>
      </trkpt>
      <trkpt lat="42.636425" lon="0.444523">
        <ele>2427.000000</ele>
        <time>2021-09-04T12:38:42Z</time>
      </trkpt>
      <trkpt lat="42.636428" lon="0.444510">
        <ele>2424.000000</ele>
        <time>2021-09-04T12:38:43Z</time>
      </trkpt>
      <trkpt lat="42.636433" lon="0.444490">
        <ele>2424.000000</ele>
        <time>2021-09-04T12:38:44Z</time>
      </trkpt>
      <trkpt lat="42.636438" lon="0.444475">
        <ele>2423.000000</ele>
        <time>2021-09-04T12:38:45Z</time>
      </trkpt>
      <trkpt lat="42.636441" lon="0.444463">
        <ele>2423.000000</ele>
        <time>2021-09-04T12:38:46Z</time>
      </trkpt>
      <trkpt lat="42.636444" lon="0.444448">
        <ele>2422.000000</ele>
        <time>2021-09-04T12:38:47Z</time>
      </trkpt>
      <trkpt lat="42.636448" lon="0.444430">
        <ele>2422.000000</ele>
        <time>2021-09-04T12:38:48Z</time>
      </trkpt>
      <trkpt lat="42.636448" lon="0.444418">
        <ele>2421.000000</ele>
        <time>2021-09-04T12:38:49Z</time>
      </trkpt>
      <trkpt lat="42.636445" lon="0.444402">
        <ele>2421.000000</ele>
        <time>2021-09-04T12:38:50Z</time>
      </trkpt>
      <trkpt lat="42.636445" lon="0.444385">
        <ele>2421.000000</ele>
        <time>2021-09-04T12:38:51Z</time>
      </trkpt>
      <trkpt lat="42.636443" lon="0.444372">
        <ele>2420.000000</ele>
        <time>2021-09-04T12:38:52Z</time>
      </trkpt>
      <trkpt lat="42.636443" lon="0.444355">
        <ele>2420.000000</ele>
        <time>2021-09-04T12:38:53Z</time>
      </trkpt>
      <trkpt lat="42.636443" lon="0.444337">
        <ele>2420.000000</ele>
        <time>2021-09-04T12:38:54Z</time>
      </trkpt>
      <trkpt lat="42.636442" lon="0.444328">
        <ele>2420.000000</ele>
        <time>2021-09-04T12:38:55Z</time>
      </trkpt>
      <trkpt lat="42.636442" lon="0.444317">
        <ele>2420.000000</ele>
        <time>2021-09-04T12:38:56Z</time>
      </trkpt>
      <trkpt lat="42.636440" lon="0.444305">
        <ele>2419.000000</ele>
        <time>2021-09-04T12:38:57Z</time>
      </trkpt>
      <trkpt lat="42.636440" lon="0.444297">
        <ele>2419.000000</ele>
        <time>2021-09-04T12:38:58Z</time>
      </trkpt>
      <trkpt lat="42.636440" lon="0.444285">
        <ele>2419.000000</ele>
        <time>2021-09-04T12:38:59Z</time>
      </trkpt>
      <trkpt lat="42.636439" lon="0.444275">
        <ele>2419.000000</ele>
        <time>2021-09-04T12:39:00Z</time>
      </trkpt>
      <trkpt lat="42.636439" lon="0.444262">
        <ele>2419.000000</ele>
        <time>2021-09-04T12:39:01Z</time>
      </trkpt>
      <trkpt lat="42.636438" lon="0.444253">
        <ele>2419.000000</ele>
        <time>2021-09-04T12:39:02Z</time>
      </trkpt>
      <trkpt lat="42.636437" lon="0.444243">
        <ele>2419.000000</ele>
        <time>2021-09-04T12:39:03Z</time>
      </trkpt>
      <trkpt lat="42.636438" lon="0.444233">
        <ele>2419.000000</ele>
        <time>2021-09-04T12:39:04Z</time>
      </trkpt>
      <trkpt lat="42.636439" lon="0.444222">
        <ele>2419.000000</ele>
        <time>2021-09-04T12:39:05Z</time>
      </trkpt>
      <trkpt lat="42.636440" lon="0.444212">
        <ele>2419.000000</ele>
        <time>2021-09-04T12:39:06Z</time>
      </trkpt>
      <trkpt lat="42.636441" lon="0.444207">
        <ele>2419.000000</ele>
        <time>2021-09-04T12:39:07Z</time>
      </trkpt>
      <trkpt lat="42.636442" lon="0.444202">
        <ele>2419.000000</ele>
        <time>2021-09-04T12:39:08Z</time>
      </trkpt>
      <trkpt lat="42.636442" lon="0.444198">
        <ele>2419.000000</ele>
        <time>2021-09-04T12:39:09Z</time>
      </trkpt>
      <trkpt lat="42.636443" lon="0.444195">
        <ele>2419.000000</ele>
        <time>2021-09-04T12:39:10Z</time>
      </trkpt>
      <trkpt lat="42.636444" lon="0.444192">
        <ele>2419.000000</ele>
        <time>2021-09-04T12:39:11Z</time>
      </trkpt>
      <trkpt lat="42.636446" lon="0.444182">
        <ele>2419.000000</ele>
        <time>2021-09-04T12:39:12Z</time>
      </trkpt>
      <trkpt lat="42.636447" lon="0.444172">
        <ele>2419.000000</ele>
        <time>2021-09-04T12:39:13Z</time>
      </trkpt>
      <trkpt lat="42.636449" lon="0.444162">
        <ele>2419.000000</ele>
        <time>2021-09-04T12:39:14Z</time>
      </trkpt>
      <trkpt lat="42.636451" lon="0.444152">
        <ele>2419.000000</ele>
        <time>2021-09-04T12:39:15Z</time>
      </trkpt>
      <trkpt lat="42.636453" lon="0.444138">
        <ele>2419.000000</ele>
        <time>2021-09-04T12:39:16Z</time>
      </trkpt>
      <trkpt lat="42.636455" lon="0.444125">
        <ele>2419.000000</ele>
        <time>2021-09-04T12:39:17Z</time>
      </trkpt>
      <trkpt lat="42.636458" lon="0.444117">
        <ele>2419.000000</ele>
        <time>2021-09-04T12:39:18Z</time>
      </trkpt>
      <trkpt lat="42.636460" lon="0.444110">
        <ele>2419.000000</ele>
        <time>2021-09-04T12:39:19Z</time>
      </trkpt>
      <trkpt lat="42.636462" lon="0.444097">
        <ele>2419.000000</ele>
        <time>2021-09-04T12:39:20Z</time>
      </trkpt>
      <trkpt lat="42.636465" lon="0.444085">
        <ele>2419.000000</ele>
        <time>2021-09-04T12:39:21Z</time>
      </trkpt>
      <trkpt lat="42.636470" lon="0.444077">
        <ele>2420.000000</ele>
        <time>2021-09-04T12:39:22Z</time>
      </trkpt>
      <trkpt lat="42.636477" lon="0.444065">
        <ele>2420.000000</ele>
        <time>2021-09-04T12:39:23Z</time>
      </trkpt>
      <trkpt lat="42.636482" lon="0.444053">
        <ele>2420.000000</ele>
        <time>2021-09-04T12:39:24Z</time>
      </trkpt>
      <trkpt lat="42.636487" lon="0.444045">
        <ele>2420.000000</ele>
        <time>2021-09-04T12:39:25Z</time>
      </trkpt>
      <trkpt lat="42.636492" lon="0.444038">
        <ele>2420.000000</ele>
        <time>2021-09-04T12:39:26Z</time>
      </trkpt>
      <trkpt lat="42.636497" lon="0.444027">
        <ele>2420.000000</ele>
        <time>2021-09-04T12:39:27Z</time>
      </trkpt>
      <trkpt lat="42.636501" lon="0.444018">
        <ele>2420.000000</ele>
        <time>2021-09-04T12:39:28Z</time>
      </trkpt>
      <trkpt lat="42.636510" lon="0.444007">
        <ele>2420.000000</ele>
        <time>2021-09-04T12:39:29Z</time>
      </trkpt>
      <trkpt lat="42.636518" lon="0.443995">
        <ele>2421.000000</ele>
        <time>2021-09-04T12:39:30Z</time>
      </trkpt>
      <trkpt lat="42.636525" lon="0.443987">
        <ele>2421.000000</ele>
        <time>2021-09-04T12:39:31Z</time>
      </trkpt>
      <trkpt lat="42.636533" lon="0.443977">
        <ele>2421.000000</ele>
        <time>2021-09-04T12:39:32Z</time>
      </trkpt>
      <trkpt lat="42.636548" lon="0.443968">
        <ele>2421.000000</ele>
        <time>2021-09-04T12:39:33Z</time>
      </trkpt>
      <trkpt lat="42.636562" lon="0.443962">
        <ele>2421.000000</ele>
        <time>2021-09-04T12:39:34Z</time>
      </trkpt>
      <trkpt lat="42.636572" lon="0.443955">
        <ele>2421.000000</ele>
        <time>2021-09-04T12:39:35Z</time>
      </trkpt>
      <trkpt lat="42.636578" lon="0.443948">
        <ele>2421.000000</ele>
        <time>2021-09-04T12:39:36Z</time>
      </trkpt>
      <trkpt lat="42.636585" lon="0.443944">
        <ele>2421.000000</ele>
        <time>2021-09-04T12:39:37Z</time>
      </trkpt>
      <trkpt lat="42.636590" lon="0.443942">
        <ele>2421.000000</ele>
        <time>2021-09-04T12:39:38Z</time>
      </trkpt>
      <trkpt lat="42.636592" lon="0.443942">
        <ele>2421.000000</ele>
        <time>2021-09-04T12:39:39Z</time>
      </trkpt>
      <trkpt lat="42.636590" lon="0.443937">
        <ele>2421.000000</ele>
        <time>2021-09-04T12:39:42Z</time>
      </trkpt>
      <trkpt lat="42.636592" lon="0.443942">
        <ele>2422.000000</ele>
        <time>2021-09-04T12:39:47Z</time>
      </trkpt>
      <trkpt lat="42.636588" lon="0.443940">
        <ele>2422.000000</ele>
        <time>2021-09-04T12:39:48Z</time>
      </trkpt>
      <trkpt lat="42.636592" lon="0.443939">
        <ele>2422.000000</ele>
        <time>2021-09-04T12:39:49Z</time>
      </trkpt>
      <trkpt lat="42.636630" lon="0.443907">
        <ele>2423.000000</ele>
        <time>2021-09-04T12:39:59Z</time>
      </trkpt>
      <trkpt lat="42.636640" lon="0.443902">
        <ele>2423.000000</ele>
        <time>2021-09-04T12:40:00Z</time>
      </trkpt>
      <trkpt lat="42.636645" lon="0.443896">
        <ele>2423.000000</ele>
        <time>2021-09-04T12:40:01Z</time>
      </trkpt>
      <trkpt lat="42.636653" lon="0.443890">
        <ele>2423.000000</ele>
        <time>2021-09-04T12:40:02Z</time>
      </trkpt>
      <trkpt lat="42.636657" lon="0.443888">
        <ele>2423.000000</ele>
        <time>2021-09-04T12:40:03Z</time>
      </trkpt>
      <trkpt lat="42.636662" lon="0.443886">
        <ele>2424.000000</ele>
        <time>2021-09-04T12:40:04Z</time>
      </trkpt>
      <trkpt lat="42.636670" lon="0.443882">
        <ele>2424.000000</ele>
        <time>2021-09-04T12:40:05Z</time>
      </trkpt>
      <trkpt lat="42.636677" lon="0.443881">
        <ele>2424.000000</ele>
        <time>2021-09-04T12:40:06Z</time>
      </trkpt>
      <trkpt lat="42.636683" lon="0.443879">
        <ele>2424.000000</ele>
        <time>2021-09-04T12:40:07Z</time>
      </trkpt>
      <trkpt lat="42.636688" lon="0.443877">
        <ele>2424.000000</ele>
        <time>2021-09-04T12:40:08Z</time>
      </trkpt>
      <trkpt lat="42.636693" lon="0.443873">
        <ele>2424.000000</ele>
        <time>2021-09-04T12:40:09Z</time>
      </trkpt>
      <trkpt lat="42.636702" lon="0.443868">
        <ele>2424.000000</ele>
        <time>2021-09-04T12:40:10Z</time>
      </trkpt>
      <trkpt lat="42.636712" lon="0.443863">
        <ele>2425.000000</ele>
        <time>2021-09-04T12:40:11Z</time>
      </trkpt>
      <trkpt lat="42.636720" lon="0.443858">
        <ele>2425.000000</ele>
        <time>2021-09-04T12:40:12Z</time>
      </trkpt>
      <trkpt lat="42.636728" lon="0.443858">
        <ele>2425.000000</ele>
        <time>2021-09-04T12:40:13Z</time>
      </trkpt>
      <trkpt lat="42.636738" lon="0.443858">
        <ele>2426.000000</ele>
        <time>2021-09-04T12:40:14Z</time>
      </trkpt>
      <trkpt lat="42.636745" lon="0.443857">
        <ele>2426.000000</ele>
        <time>2021-09-04T12:40:15Z</time>
      </trkpt>
      <trkpt lat="42.636748" lon="0.443857">
        <ele>2426.000000</ele>
        <time>2021-09-04T12:40:16Z</time>
      </trkpt>
      <trkpt lat="42.636755" lon="0.443854">
        <ele>2426.000000</ele>
        <time>2021-09-04T12:40:17Z</time>
      </trkpt>
      <trkpt lat="42.636762" lon="0.443850">
        <ele>2427.000000</ele>
        <time>2021-09-04T12:40:18Z</time>
      </trkpt>
      <trkpt lat="42.636767" lon="0.443847">
        <ele>2427.000000</ele>
        <time>2021-09-04T12:40:19Z</time>
      </trkpt>
      <trkpt lat="42.636772" lon="0.443840">
        <ele>2427.000000</ele>
        <time>2021-09-04T12:40:20Z</time>
      </trkpt>
      <trkpt lat="42.636772" lon="0.443835">
        <ele>2427.000000</ele>
        <time>2021-09-04T12:40:21Z</time>
      </trkpt>
      <trkpt lat="42.636772" lon="0.443830">
        <ele>2427.000000</ele>
        <time>2021-09-04T12:40:22Z</time>
      </trkpt>
      <trkpt lat="42.636772" lon="0.443818">
        <ele>2427.000000</ele>
        <time>2021-09-04T12:40:23Z</time>
      </trkpt>
      <trkpt lat="42.636776" lon="0.443810">
        <ele>2428.000000</ele>
        <time>2021-09-04T12:40:24Z</time>
      </trkpt>
      <trkpt lat="42.636777" lon="0.443802">
        <ele>2428.000000</ele>
        <time>2021-09-04T12:40:25Z</time>
      </trkpt>
      <trkpt lat="42.636779" lon="0.443792">
        <ele>2428.000000</ele>
        <time>2021-09-04T12:40:26Z</time>
      </trkpt>
      <trkpt lat="42.636784" lon="0.443780">
        <ele>2428.000000</ele>
        <time>2021-09-04T12:40:27Z</time>
      </trkpt>
      <trkpt lat="42.636788" lon="0.443775">
        <ele>2428.000000</ele>
        <time>2021-09-04T12:40:28Z</time>
      </trkpt>
      <trkpt lat="42.636798" lon="0.443773">
        <ele>2428.000000</ele>
        <time>2021-09-04T12:40:29Z</time>
      </trkpt>
      <trkpt lat="42.636805" lon="0.443777">
        <ele>2429.000000</ele>
        <time>2021-09-04T12:40:30Z</time>
      </trkpt>
      <trkpt lat="42.636812" lon="0.443780">
        <ele>2429.000000</ele>
        <time>2021-09-04T12:40:31Z</time>
      </trkpt>
      <trkpt lat="42.636815" lon="0.443782">
        <ele>2429.000000</ele>
        <time>2021-09-04T12:40:32Z</time>
      </trkpt>
      <trkpt lat="42.636820" lon="0.443780">
        <ele>2430.000000</ele>
        <time>2021-09-04T12:40:33Z</time>
      </trkpt>
      <trkpt lat="42.636827" lon="0.443774">
        <ele>2430.000000</ele>
        <time>2021-09-04T12:40:34Z</time>
      </trkpt>
      <trkpt lat="42.636832" lon="0.443770">
        <ele>2430.000000</ele>
        <time>2021-09-04T12:40:35Z</time>
      </trkpt>
      <trkpt lat="42.636833" lon="0.443768">
        <ele>2430.000000</ele>
        <time>2021-09-04T12:40:36Z</time>
      </trkpt>
      <trkpt lat="42.636837" lon="0.443760">
        <ele>2430.000000</ele>
        <time>2021-09-04T12:40:37Z</time>
      </trkpt>
      <trkpt lat="42.636840" lon="0.443750">
        <ele>2430.000000</ele>
        <time>2021-09-04T12:40:38Z</time>
      </trkpt>
      <trkpt lat="42.636842" lon="0.443738">
        <ele>2430.000000</ele>
        <time>2021-09-04T12:40:39Z</time>
      </trkpt>
      <trkpt lat="42.636843" lon="0.443728">
        <ele>2430.000000</ele>
        <time>2021-09-04T12:40:40Z</time>
      </trkpt>
      <trkpt lat="42.636845" lon="0.443718">
        <ele>2430.000000</ele>
        <time>2021-09-04T12:40:41Z</time>
      </trkpt>
      <trkpt lat="42.636847" lon="0.443712">
        <ele>2430.000000</ele>
        <time>2021-09-04T12:40:42Z</time>
      </trkpt>
      <trkpt lat="42.636850" lon="0.443708">
        <ele>2430.000000</ele>
        <time>2021-09-04T12:40:43Z</time>
      </trkpt>
      <trkpt lat="42.636855" lon="0.443703">
        <ele>2431.000000</ele>
        <time>2021-09-04T12:40:44Z</time>
      </trkpt>
      <trkpt lat="42.636864" lon="0.443697">
        <ele>2431.000000</ele>
        <time>2021-09-04T12:40:45Z</time>
      </trkpt>
      <trkpt lat="42.636873" lon="0.443693">
        <ele>2431.000000</ele>
        <time>2021-09-04T12:40:46Z</time>
      </trkpt>
      <trkpt lat="42.636883" lon="0.443692">
        <ele>2431.000000</ele>
        <time>2021-09-04T12:40:47Z</time>
      </trkpt>
      <trkpt lat="42.636888" lon="0.443690">
        <ele>2432.000000</ele>
        <time>2021-09-04T12:40:48Z</time>
      </trkpt>
      <trkpt lat="42.636883" lon="0.443688">
        <ele>2433.000000</ele>
        <time>2021-09-04T12:40:52Z</time>
      </trkpt>
      <trkpt lat="42.636880" lon="0.443688">
        <ele>2433.000000</ele>
        <time>2021-09-04T12:40:53Z</time>
      </trkpt>
      <trkpt lat="42.636875" lon="0.443690">
        <ele>2433.000000</ele>
        <time>2021-09-04T12:40:54Z</time>
      </trkpt>
      <trkpt lat="42.636868" lon="0.443694">
        <ele>2434.000000</ele>
        <time>2021-09-04T12:40:55Z</time>
      </trkpt>
      <trkpt lat="42.636865" lon="0.443695">
        <ele>2434.000000</ele>
        <time>2021-09-04T12:40:56Z</time>
      </trkpt>
      <trkpt lat="42.636862" lon="0.443694">
        <ele>2434.000000</ele>
        <time>2021-09-04T12:40:57Z</time>
      </trkpt>
      <trkpt lat="42.636863" lon="0.443693">
        <ele>2434.000000</ele>
        <time>2021-09-04T12:40:58Z</time>
      </trkpt>
      <trkpt lat="42.636875" lon="0.443690">
        <ele>2434.000000</ele>
        <time>2021-09-04T12:40:59Z</time>
      </trkpt>
      <trkpt lat="42.636947" lon="0.443593">
        <ele>2440.000000</ele>
        <time>2021-09-04T12:41:20Z</time>
      </trkpt>
      <trkpt lat="42.636948" lon="0.443590">
        <ele>2441.000000</ele>
        <time>2021-09-04T12:41:21Z</time>
      </trkpt>
      <trkpt lat="42.636957" lon="0.443583">
        <ele>2441.000000</ele>
        <time>2021-09-04T12:41:22Z</time>
      </trkpt>
      <trkpt lat="42.636966" lon="0.443577">
        <ele>2441.000000</ele>
        <time>2021-09-04T12:41:23Z</time>
      </trkpt>
      <trkpt lat="42.636971" lon="0.443570">
        <ele>2441.000000</ele>
        <time>2021-09-04T12:41:24Z</time>
      </trkpt>
      <trkpt lat="42.636974" lon="0.443565">
        <ele>2441.000000</ele>
        <time>2021-09-04T12:41:25Z</time>
      </trkpt>
      <trkpt lat="42.636979" lon="0.443558">
        <ele>2441.000000</ele>
        <time>2021-09-04T12:41:26Z</time>
      </trkpt>
      <trkpt lat="42.636982" lon="0.443550">
        <ele>2441.000000</ele>
        <time>2021-09-04T12:41:27Z</time>
      </trkpt>
      <trkpt lat="42.636984" lon="0.443542">
        <ele>2441.000000</ele>
        <time>2021-09-04T12:41:28Z</time>
      </trkpt>
      <trkpt lat="42.636987" lon="0.443533">
        <ele>2441.000000</ele>
        <time>2021-09-04T12:41:29Z</time>
      </trkpt>
      <trkpt lat="42.636990" lon="0.443525">
        <ele>2441.000000</ele>
        <time>2021-09-04T12:41:30Z</time>
      </trkpt>
      <trkpt lat="42.636994" lon="0.443517">
        <ele>2441.000000</ele>
        <time>2021-09-04T12:41:31Z</time>
      </trkpt>
      <trkpt lat="42.637000" lon="0.443505">
        <ele>2442.000000</ele>
        <time>2021-09-04T12:41:32Z</time>
      </trkpt>
      <trkpt lat="42.637003" lon="0.443500">
        <ele>2442.000000</ele>
        <time>2021-09-04T12:41:33Z</time>
      </trkpt>
      <trkpt lat="42.637006" lon="0.443497">
        <ele>2442.000000</ele>
        <time>2021-09-04T12:41:34Z</time>
      </trkpt>
      <trkpt lat="42.637008" lon="0.443493">
        <ele>2442.000000</ele>
        <time>2021-09-04T12:41:35Z</time>
      </trkpt>
      <trkpt lat="42.637013" lon="0.443485">
        <ele>2442.000000</ele>
        <time>2021-09-04T12:41:36Z</time>
      </trkpt>
      <trkpt lat="42.637016" lon="0.443480">
        <ele>2442.000000</ele>
        <time>2021-09-04T12:41:37Z</time>
      </trkpt>
      <trkpt lat="42.637022" lon="0.443468">
        <ele>2443.000000</ele>
        <time>2021-09-04T12:41:38Z</time>
      </trkpt>
      <trkpt lat="42.637026" lon="0.443460">
        <ele>2443.000000</ele>
        <time>2021-09-04T12:41:39Z</time>
      </trkpt>
      <trkpt lat="42.637031" lon="0.443450">
        <ele>2443.000000</ele>
        <time>2021-09-04T12:41:40Z</time>
      </trkpt>
      <trkpt lat="42.637033" lon="0.443450">
        <ele>2443.000000</ele>
        <time>2021-09-04T12:41:41Z</time>
      </trkpt>
      <trkpt lat="42.637048" lon="0.443448">
        <ele>2444.000000</ele>
        <time>2021-09-04T12:41:42Z</time>
      </trkpt>
      <trkpt lat="42.637053" lon="0.443447">
        <ele>2444.000000</ele>
        <time>2021-09-04T12:41:43Z</time>
      </trkpt>
      <trkpt lat="42.637058" lon="0.443445">
        <ele>2444.000000</ele>
        <time>2021-09-04T12:41:45Z</time>
      </trkpt>
      <trkpt lat="42.637067" lon="0.443442">
        <ele>2445.000000</ele>
        <time>2021-09-04T12:41:46Z</time>
      </trkpt>
      <trkpt lat="42.637075" lon="0.443442">
        <ele>2445.000000</ele>
        <time>2021-09-04T12:41:47Z</time>
      </trkpt>
      <trkpt lat="42.637080" lon="0.443442">
        <ele>2446.000000</ele>
        <time>2021-09-04T12:41:48Z</time>
      </trkpt>
      <trkpt lat="42.637087" lon="0.443446">
        <ele>2446.000000</ele>
        <time>2021-09-04T12:41:49Z</time>
      </trkpt>
      <trkpt lat="42.637093" lon="0.443450">
        <ele>2447.000000</ele>
        <time>2021-09-04T12:41:50Z</time>
      </trkpt>
      <trkpt lat="42.637095" lon="0.443451">
        <ele>2448.000000</ele>
        <time>2021-09-04T12:41:51Z</time>
      </trkpt>
      <trkpt lat="42.637095" lon="0.443452">
        <ele>2448.000000</ele>
        <time>2021-09-04T12:41:52Z</time>
      </trkpt>
      <trkpt lat="42.637092" lon="0.443450">
        <ele>2449.000000</ele>
        <time>2021-09-04T12:41:54Z</time>
      </trkpt>
      <trkpt lat="42.637088" lon="0.443448">
        <ele>2450.000000</ele>
        <time>2021-09-04T12:41:55Z</time>
      </trkpt>
      <trkpt lat="42.637085" lon="0.443446">
        <ele>2450.000000</ele>
        <time>2021-09-04T12:41:56Z</time>
      </trkpt>
      <trkpt lat="42.637085" lon="0.443446">
        <ele>2451.000000</ele>
        <time>2021-09-04T12:41:58Z</time>
      </trkpt>
      <trkpt lat="42.637087" lon="0.443446">
        <ele>2451.000000</ele>
        <time>2021-09-04T12:41:59Z</time>
      </trkpt>
      <trkpt lat="42.637090" lon="0.443447">
        <ele>2452.000000</ele>
        <time>2021-09-04T12:42:00Z</time>
      </trkpt>
      <trkpt lat="42.637093" lon="0.443430">
        <ele>2452.000000</ele>
        <time>2021-09-04T12:42:01Z</time>
      </trkpt>
      <trkpt lat="42.637097" lon="0.443427">
        <ele>2452.000000</ele>
        <time>2021-09-04T12:42:02Z</time>
      </trkpt>
      <trkpt lat="42.637100" lon="0.443422">
        <ele>2452.000000</ele>
        <time>2021-09-04T12:42:03Z</time>
      </trkpt>
      <trkpt lat="42.637108" lon="0.443415">
        <ele>2452.000000</ele>
        <time>2021-09-04T12:42:04Z</time>
      </trkpt>
      <trkpt lat="42.637115" lon="0.443408">
        <ele>2452.000000</ele>
        <time>2021-09-04T12:42:05Z</time>
      </trkpt>
      <trkpt lat="42.637122" lon="0.443403">
        <ele>2452.000000</ele>
        <time>2021-09-04T12:42:05Z</time>
      </trkpt>
      <trkpt lat="42.637127" lon="0.443397">
        <ele>2452.000000</ele>
        <time>2021-09-04T12:42:06Z</time>
      </trkpt>
      <trkpt lat="42.637133" lon="0.443387">
        <ele>2452.000000</ele>
        <time>2021-09-04T12:42:07Z</time>
      </trkpt>
      <trkpt lat="42.637140" lon="0.443379">
        <ele>2452.000000</ele>
        <time>2021-09-04T12:42:08Z</time>
      </trkpt>
      <trkpt lat="42.637145" lon="0.443373">
        <ele>2452.000000</ele>
        <time>2021-09-04T12:42:09Z</time>
      </trkpt>
      <trkpt lat="42.637152" lon="0.443365">
        <ele>2452.000000</ele>
        <time>2021-09-04T12:42:10Z</time>
      </trkpt>
      <trkpt lat="42.637153" lon="0.443355">
        <ele>2452.000000</ele>
        <time>2021-09-04T12:42:11Z</time>
      </trkpt>
      <trkpt lat="42.637155" lon="0.443352">
        <ele>2452.000000</ele>
        <time>2021-09-04T12:42:12Z</time>
      </trkpt>
      <trkpt lat="42.637155" lon="0.443348">
        <ele>2452.000000</ele>
        <time>2021-09-04T12:42:13Z</time>
      </trkpt>
      <trkpt lat="42.637157" lon="0.443338">
        <ele>2453.000000</ele>
        <time>2021-09-04T12:42:14Z</time>
      </trkpt>
      <trkpt lat="42.637160" lon="0.443325">
        <ele>2453.000000</ele>
        <time>2021-09-04T12:42:15Z</time>
      </trkpt>
      <trkpt lat="42.637163" lon="0.443318">
        <ele>2453.000000</ele>
        <time>2021-09-04T12:42:16Z</time>
      </trkpt>
      <trkpt lat="42.637167" lon="0.443303">
        <ele>2454.000000</ele>
        <time>2021-09-04T12:42:17Z</time>
      </trkpt>
      <trkpt lat="42.637168" lon="0.443297">
        <ele>2454.000000</ele>
        <time>2021-09-04T12:42:18Z</time>
      </trkpt>
      <trkpt lat="42.637171" lon="0.443292">
        <ele>2455.000000</ele>
        <time>2021-09-04T12:42:19Z</time>
      </trkpt>
      <trkpt lat="42.637174" lon="0.443287">
        <ele>2455.000000</ele>
        <time>2021-09-04T12:42:20Z</time>
      </trkpt>
      <trkpt lat="42.637182" lon="0.443278">
        <ele>2456.000000</ele>
        <time>2021-09-04T12:42:21Z</time>
      </trkpt>
      <trkpt lat="42.637185" lon="0.443272">
        <ele>2456.000000</ele>
        <time>2021-09-04T12:42:22Z</time>
      </trkpt>
      <trkpt lat="42.637188" lon="0.443263">
        <ele>2456.000000</ele>
        <time>2021-09-04T12:42:23Z</time>
      </trkpt>
      <trkpt lat="42.637194" lon="0.443258">
        <ele>2456.000000</ele>
        <time>2021-09-04T12:42:24Z</time>
      </trkpt>
      <trkpt lat="42.637202" lon="0.443255">
        <ele>2457.000000</ele>
        <time>2021-09-04T12:42:25Z</time>
      </trkpt>
      <trkpt lat="42.637203" lon="0.443246">
        <ele>2458.000000</ele>
        <time>2021-09-04T12:42:27Z</time>
      </trkpt>
      <trkpt lat="42.637207" lon="0.443238">
        <ele>2458.000000</ele>
        <time>2021-09-04T12:42:28Z</time>
      </trkpt>
      <trkpt lat="42.637213" lon="0.443234">
        <ele>2458.000000</ele>
        <time>2021-09-04T12:42:29Z</time>
      </trkpt>
      <trkpt lat="42.637218" lon="0.443233">
        <ele>2458.000000</ele>
        <time>2021-09-04T12:42:30Z</time>
      </trkpt>
      <trkpt lat="42.637228" lon="0.443227">
        <ele>2459.000000</ele>
        <time>2021-09-04T12:42:31Z</time>
      </trkpt>
      <trkpt lat="42.637233" lon="0.443224">
        <ele>2459.000000</ele>
        <time>2021-09-04T12:42:32Z</time>
      </trkpt>
      <trkpt lat="42.637237" lon="0.443223">
        <ele>2459.000000</ele>
        <time>2021-09-04T12:42:33Z</time>
      </trkpt>
      <trkpt lat="42.637242" lon="0.443220">
        <ele>2459.000000</ele>
        <time>2021-09-04T12:42:34Z</time>
      </trkpt>
      <trkpt lat="42.637245" lon="0.443217">
        <ele>2459.000000</ele>
        <time>2021-09-04T12:42:35Z</time>
      </trkpt>
      <trkpt lat="42.637248" lon="0.443212">
        <ele>2459.000000</ele>
        <time>2021-09-04T12:42:36Z</time>
      </trkpt>
      <trkpt lat="42.637253" lon="0.443207">
        <ele>2459.000000</ele>
        <time>2021-09-04T12:42:37Z</time>
      </trkpt>
      <trkpt lat="42.637253" lon="0.443200">
        <ele>2459.000000</ele>
        <time>2021-09-04T12:42:38Z</time>
      </trkpt>
      <trkpt lat="42.637255" lon="0.443200">
        <ele>2459.000000</ele>
        <time>2021-09-04T12:42:39Z</time>
      </trkpt>
      <trkpt lat="42.637263" lon="0.443192">
        <ele>2459.000000</ele>
        <time>2021-09-04T12:42:40Z</time>
      </trkpt>
      <trkpt lat="42.637270" lon="0.443190">
        <ele>2459.000000</ele>
        <time>2021-09-04T12:42:41Z</time>
      </trkpt>
      <trkpt lat="42.637277" lon="0.443182">
        <ele>2459.000000</ele>
        <time>2021-09-04T12:42:42Z</time>
      </trkpt>
      <trkpt lat="42.637280" lon="0.443174">
        <ele>2460.000000</ele>
        <time>2021-09-04T12:42:43Z</time>
      </trkpt>
      <trkpt lat="42.637285" lon="0.443167">
        <ele>2460.000000</ele>
        <time>2021-09-04T12:42:44Z</time>
      </trkpt>
      <trkpt lat="42.637290" lon="0.443165">
        <ele>2460.000000</ele>
        <time>2021-09-04T12:42:45Z</time>
      </trkpt>
      <trkpt lat="42.637292" lon="0.443162">
        <ele>2460.000000</ele>
        <time>2021-09-04T12:42:46Z</time>
      </trkpt>
      <trkpt lat="42.637293" lon="0.443160">
        <ele>2460.000000</ele>
        <time>2021-09-04T12:42:47Z</time>
      </trkpt>
      <trkpt lat="42.637293" lon="0.443157">
        <ele>2461.000000</ele>
        <time>2021-09-04T12:42:48Z</time>
      </trkpt>
      <trkpt lat="42.637295" lon="0.443150">
        <ele>2461.000000</ele>
        <time>2021-09-04T12:42:50Z</time>
      </trkpt>
      <trkpt lat="42.637298" lon="0.443143">
        <ele>2462.000000</ele>
        <time>2021-09-04T12:42:51Z</time>
      </trkpt>
      <trkpt lat="42.637301" lon="0.443137">
        <ele>2462.000000</ele>
        <time>2021-09-04T12:42:52Z</time>
      </trkpt>
      <trkpt lat="42.637304" lon="0.443127">
        <ele>2462.000000</ele>
        <time>2021-09-04T12:42:53Z</time>
      </trkpt>
      <trkpt lat="42.637306" lon="0.443118">
        <ele>2462.000000</ele>
        <time>2021-09-04T12:42:54Z</time>
      </trkpt>
      <trkpt lat="42.637309" lon="0.443110">
        <ele>2462.000000</ele>
        <time>2021-09-04T12:42:55Z</time>
      </trkpt>
      <trkpt lat="42.637311" lon="0.443103">
        <ele>2462.000000</ele>
        <time>2021-09-04T12:42:56Z</time>
      </trkpt>
      <trkpt lat="42.637315" lon="0.443093">
        <ele>2462.000000</ele>
        <time>2021-09-04T12:42:57Z</time>
      </trkpt>
      <trkpt lat="42.637318" lon="0.443083">
        <ele>2463.000000</ele>
        <time>2021-09-04T12:42:58Z</time>
      </trkpt>
      <trkpt lat="42.637320" lon="0.443078">
        <ele>2463.000000</ele>
        <time>2021-09-04T12:42:59Z</time>
      </trkpt>
      <trkpt lat="42.637324" lon="0.443070">
        <ele>2463.000000</ele>
        <time>2021-09-04T12:43:00Z</time>
      </trkpt>
      <trkpt lat="42.637326" lon="0.443067">
        <ele>2463.000000</ele>
        <time>2021-09-04T12:43:01Z</time>
      </trkpt>
      <trkpt lat="42.637333" lon="0.443067">
        <ele>2463.000000</ele>
        <time>2021-09-04T12:43:02Z</time>
      </trkpt>
      <trkpt lat="42.637342" lon="0.443065">
        <ele>2463.000000</ele>
        <time>2021-09-04T12:43:03Z</time>
      </trkpt>
      <trkpt lat="42.637343" lon="0.443063">
        <ele>2463.000000</ele>
        <time>2021-09-04T12:43:04Z</time>
      </trkpt>
      <trkpt lat="42.637350" lon="0.443055">
        <ele>2463.000000</ele>
        <time>2021-09-04T12:43:05Z</time>
      </trkpt>
      <trkpt lat="42.637357" lon="0.443052">
        <ele>2463.000000</ele>
        <time>2021-09-04T12:43:06Z</time>
      </trkpt>
      <trkpt lat="42.637363" lon="0.443050">
        <ele>2463.000000</ele>
        <time>2021-09-04T12:43:07Z</time>
      </trkpt>
      <trkpt lat="42.637367" lon="0.443048">
        <ele>2463.000000</ele>
        <time>2021-09-04T12:43:08Z</time>
      </trkpt>
      <trkpt lat="42.637373" lon="0.443044">
        <ele>2463.000000</ele>
        <time>2021-09-04T12:43:09Z</time>
      </trkpt>
      <trkpt lat="42.637378" lon="0.443041">
        <ele>2463.000000</ele>
        <time>2021-09-04T12:43:10Z</time>
      </trkpt>
      <trkpt lat="42.637385" lon="0.443036">
        <ele>2463.000000</ele>
        <time>2021-09-04T12:43:11Z</time>
      </trkpt>
      <trkpt lat="42.637388" lon="0.443030">
        <ele>2463.000000</ele>
        <time>2021-09-04T12:43:12Z</time>
      </trkpt>
      <trkpt lat="42.637392" lon="0.443027">
        <ele>2463.000000</ele>
        <time>2021-09-04T12:43:13Z</time>
      </trkpt>
      <trkpt lat="42.637395" lon="0.443021">
        <ele>2463.000000</ele>
        <time>2021-09-04T12:43:14Z</time>
      </trkpt>
      <trkpt lat="42.637403" lon="0.443011">
        <ele>2464.000000</ele>
        <time>2021-09-04T12:43:15Z</time>
      </trkpt>
      <trkpt lat="42.637405" lon="0.443007">
        <ele>2464.000000</ele>
        <time>2021-09-04T12:43:16Z</time>
      </trkpt>
      <trkpt lat="42.637410" lon="0.443001">
        <ele>2464.000000</ele>
        <time>2021-09-04T12:43:17Z</time>
      </trkpt>
      <trkpt lat="42.637412" lon="0.442992">
        <ele>2465.000000</ele>
        <time>2021-09-04T12:43:18Z</time>
      </trkpt>
      <trkpt lat="42.637412" lon="0.442983">
        <ele>2465.000000</ele>
        <time>2021-09-04T12:43:19Z</time>
      </trkpt>
      <trkpt lat="42.637413" lon="0.442980">
        <ele>2466.000000</ele>
        <time>2021-09-04T12:43:20Z</time>
      </trkpt>
      <trkpt lat="42.637417" lon="0.442975">
        <ele>2466.000000</ele>
        <time>2021-09-04T12:43:21Z</time>
      </trkpt>
      <trkpt lat="42.637421" lon="0.442973">
        <ele>2467.000000</ele>
        <time>2021-09-04T12:43:22Z</time>
      </trkpt>
      <trkpt lat="42.637426" lon="0.442968">
        <ele>2467.000000</ele>
        <time>2021-09-04T12:43:23Z</time>
      </trkpt>
      <trkpt lat="42.637430" lon="0.442965">
        <ele>2468.000000</ele>
        <time>2021-09-04T12:43:24Z</time>
      </trkpt>
      <trkpt lat="42.637433" lon="0.442960">
        <ele>2468.000000</ele>
        <time>2021-09-04T12:43:25Z</time>
      </trkpt>
      <trkpt lat="42.637439" lon="0.442952">
        <ele>2469.000000</ele>
        <time>2021-09-04T12:43:26Z</time>
      </trkpt>
      <trkpt lat="42.637442" lon="0.442948">
        <ele>2469.000000</ele>
        <time>2021-09-04T12:43:27Z</time>
      </trkpt>
      <trkpt lat="42.637447" lon="0.442948">
        <ele>2470.000000</ele>
        <time>2021-09-04T12:43:28Z</time>
      </trkpt>
      <trkpt lat="42.637453" lon="0.442945">
        <ele>2470.000000</ele>
        <time>2021-09-04T12:43:29Z</time>
      </trkpt>
      <trkpt lat="42.637458" lon="0.442938">
        <ele>2471.000000</ele>
        <time>2021-09-04T12:43:30Z</time>
      </trkpt>
      <trkpt lat="42.637462" lon="0.442932">
        <ele>2471.000000</ele>
        <time>2021-09-04T12:43:31Z</time>
      </trkpt>
      <trkpt lat="42.637467" lon="0.442920">
        <ele>2471.000000</ele>
        <time>2021-09-04T12:43:32Z</time>
      </trkpt>
      <trkpt lat="42.637475" lon="0.442915">
        <ele>2472.000000</ele>
        <time>2021-09-04T12:43:33Z</time>
      </trkpt>
      <trkpt lat="42.637477" lon="0.442907">
        <ele>2472.000000</ele>
        <time>2021-09-04T12:43:34Z</time>
      </trkpt>
      <trkpt lat="42.637478" lon="0.442900">
        <ele>2472.000000</ele>
        <time>2021-09-04T12:43:35Z</time>
      </trkpt>
      <trkpt lat="42.637482" lon="0.442890">
        <ele>2473.000000</ele>
        <time>2021-09-04T12:43:36Z</time>
      </trkpt>
      <trkpt lat="42.637487" lon="0.442883">
        <ele>2473.000000</ele>
        <time>2021-09-04T12:43:37Z</time>
      </trkpt>
      <trkpt lat="42.637492" lon="0.442868">
        <ele>2473.000000</ele>
        <time>2021-09-04T12:43:38Z</time>
      </trkpt>
      <trkpt lat="42.637495" lon="0.442860">
        <ele>2474.000000</ele>
        <time>2021-09-04T12:43:39Z</time>
      </trkpt>
      <trkpt lat="42.637497" lon="0.442852">
        <ele>2474.000000</ele>
        <time>2021-09-04T12:43:40Z</time>
      </trkpt>
      <trkpt lat="42.637500" lon="0.442838">
        <ele>2474.000000</ele>
        <time>2021-09-04T12:43:41Z</time>
      </trkpt>
      <trkpt lat="42.637503" lon="0.442827">
        <ele>2475.000000</ele>
        <time>2021-09-04T12:43:42Z</time>
      </trkpt>
      <trkpt lat="42.637506" lon="0.442813">
        <ele>2475.000000</ele>
        <time>2021-09-04T12:43:43Z</time>
      </trkpt>
      <trkpt lat="42.637508" lon="0.442803">
        <ele>2475.000000</ele>
        <time>2021-09-04T12:43:44Z</time>
      </trkpt>
      <trkpt lat="42.637512" lon="0.442793">
        <ele>2476.000000</ele>
        <time>2021-09-04T12:43:45Z</time>
      </trkpt>
      <trkpt lat="42.637515" lon="0.442783">
        <ele>2476.000000</ele>
        <time>2021-09-04T12:43:46Z</time>
      </trkpt>
      <trkpt lat="42.637517" lon="0.442777">
        <ele>2476.000000</ele>
        <time>2021-09-04T12:43:47Z</time>
      </trkpt>
      <trkpt lat="42.637519" lon="0.442765">
        <ele>2477.000000</ele>
        <time>2021-09-04T12:43:48Z</time>
      </trkpt>
      <trkpt lat="42.637520" lon="0.442753">
        <ele>2477.000000</ele>
        <time>2021-09-04T12:43:49Z</time>
      </trkpt>
      <trkpt lat="42.637512" lon="0.442743">
        <ele>2477.000000</ele>
        <time>2021-09-04T12:43:50Z</time>
      </trkpt>
      <trkpt lat="42.637512" lon="0.442737">
        <ele>2478.000000</ele>
        <time>2021-09-04T12:43:51Z</time>
      </trkpt>
      <trkpt lat="42.637510" lon="0.442728">
        <ele>2478.000000</ele>
        <time>2021-09-04T12:43:52Z</time>
      </trkpt>
      <trkpt lat="42.637512" lon="0.442722">
        <ele>2478.000000</ele>
        <time>2021-09-04T12:43:53Z</time>
      </trkpt>
      <trkpt lat="42.637513" lon="0.442713">
        <ele>2479.000000</ele>
        <time>2021-09-04T12:43:54Z</time>
      </trkpt>
      <trkpt lat="42.637515" lon="0.442698">
        <ele>2479.000000</ele>
        <time>2021-09-04T12:43:55Z</time>
      </trkpt>
      <trkpt lat="42.637517" lon="0.442688">
        <ele>2479.000000</ele>
        <time>2021-09-04T12:43:56Z</time>
      </trkpt>
      <trkpt lat="42.637520" lon="0.442677">
        <ele>2480.000000</ele>
        <time>2021-09-04T12:43:57Z</time>
      </trkpt>
      <trkpt lat="42.637522" lon="0.442667">
        <ele>2480.000000</ele>
        <time>2021-09-04T12:43:58Z</time>
      </trkpt>
      <trkpt lat="42.637525" lon="0.442653">
        <ele>2480.000000</ele>
        <time>2021-09-04T12:43:59Z</time>
      </trkpt>
      <trkpt lat="42.637527" lon="0.442645">
        <ele>2480.000000</ele>
        <time>2021-09-04T12:44:00Z</time>
      </trkpt>
      <trkpt lat="42.637529" lon="0.442633">
        <ele>2481.000000</ele>
        <time>2021-09-04T12:44:01Z</time>
      </trkpt>
      <trkpt lat="42.637532" lon="0.442622">
        <ele>2481.000000</ele>
        <time>2021-09-04T12:44:02Z</time>
      </trkpt>
      <trkpt lat="42.637535" lon="0.442613">
        <ele>2481.000000</ele>
        <time>2021-09-04T12:44:03Z</time>
      </trkpt>
      <trkpt lat="42.637537" lon="0.442603">
        <ele>2481.000000</ele>
        <time>2021-09-04T12:44:04Z</time>
      </trkpt>
      <trkpt lat="42.637539" lon="0.442598">
        <ele>2481.000000</ele>
        <time>2021-09-04T12:44:05Z</time>
      </trkpt>
      <trkpt lat="42.637540" lon="0.442595">
        <ele>2481.000000</ele>
        <time>2021-09-04T12:44:06Z</time>
      </trkpt>
      <trkpt lat="42.637541" lon="0.442592">
        <ele>2481.000000</ele>
        <time>2021-09-04T12:44:07Z</time>
      </trkpt>
      <trkpt lat="42.637544" lon="0.442580">
        <ele>2482.000000</ele>
        <time>2021-09-04T12:44:08Z</time>
      </trkpt>
      <trkpt lat="42.637547" lon="0.442567">
        <ele>2482.000000</ele>
        <time>2021-09-04T12:44:09Z</time>
      </trkpt>
      <trkpt lat="42.637550" lon="0.442555">
        <ele>2482.000000</ele>
        <time>2021-09-04T12:44:10Z</time>
      </trkpt>
      <trkpt lat="42.637551" lon="0.442552">
        <ele>2482.000000</ele>
        <time>2021-09-04T12:44:11Z</time>
      </trkpt>
      <trkpt lat="42.637554" lon="0.442542">
        <ele>2483.000000</ele>
        <time>2021-09-04T12:44:12Z</time>
      </trkpt>
      <trkpt lat="42.637556" lon="0.442532">
        <ele>2483.000000</ele>
        <time>2021-09-04T12:44:13Z</time>
      </trkpt>
      <trkpt lat="42.637559" lon="0.442522">
        <ele>2483.000000</ele>
        <time>2021-09-04T12:44:14Z</time>
      </trkpt>
      <trkpt lat="42.637560" lon="0.442513">
        <ele>2483.000000</ele>
        <time>2021-09-04T12:44:15Z</time>
      </trkpt>
      <trkpt lat="42.637562" lon="0.442498">
        <ele>2484.000000</ele>
        <time>2021-09-04T12:44:16Z</time>
      </trkpt>
      <trkpt lat="42.637564" lon="0.442487">
        <ele>2484.000000</ele>
        <time>2021-09-04T12:44:17Z</time>
      </trkpt>
      <trkpt lat="42.637566" lon="0.442473">
        <ele>2484.000000</ele>
        <time>2021-09-04T12:44:18Z</time>
      </trkpt>
      <trkpt lat="42.637568" lon="0.442465">
        <ele>2484.000000</ele>
        <time>2021-09-04T12:44:19Z</time>
      </trkpt>
      <trkpt lat="42.637568" lon="0.442457">
        <ele>2484.000000</ele>
        <time>2021-09-04T12:44:20Z</time>
      </trkpt>
      <trkpt lat="42.637571" lon="0.442443">
        <ele>2484.000000</ele>
        <time>2021-09-04T12:44:21Z</time>
      </trkpt>
      <trkpt lat="42.637572" lon="0.442430">
        <ele>2484.000000</ele>
        <time>2021-09-04T12:44:22Z</time>
      </trkpt>
      <trkpt lat="42.637574" lon="0.442417">
        <ele>2484.000000</ele>
        <time>2021-09-04T12:44:23Z</time>
      </trkpt>
      <trkpt lat="42.637576" lon="0.442403">
        <ele>2484.000000</ele>
        <time>2021-09-04T12:44:24Z</time>
      </trkpt>
      <trkpt lat="42.637577" lon="0.442397">
        <ele>2484.000000</ele>
        <time>2021-09-04T12:44:25Z</time>
      </trkpt>
      <trkpt lat="42.637579" lon="0.442383">
        <ele>2484.000000</ele>
        <time>2021-09-04T12:44:26Z</time>
      </trkpt>
      <trkpt lat="42.637579" lon="0.442377">
        <ele>2484.000000</ele>
        <time>2021-09-04T12:44:27Z</time>
      </trkpt>
      <trkpt lat="42.637581" lon="0.442362">
        <ele>2484.000000</ele>
        <time>2021-09-04T12:44:28Z</time>
      </trkpt>
      <trkpt lat="42.637582" lon="0.442350">
        <ele>2484.000000</ele>
        <time>2021-09-04T12:44:29Z</time>
      </trkpt>
      <trkpt lat="42.637582" lon="0.442342">
        <ele>2484.000000</ele>
        <time>2021-09-04T12:44:30Z</time>
      </trkpt>
      <trkpt lat="42.637583" lon="0.442328">
        <ele>2484.000000</ele>
        <time>2021-09-04T12:44:31Z</time>
      </trkpt>
      <trkpt lat="42.637585" lon="0.442315">
        <ele>2484.000000</ele>
        <time>2021-09-04T12:44:32Z</time>
      </trkpt>
      <trkpt lat="42.637586" lon="0.442302">
        <ele>2484.000000</ele>
        <time>2021-09-04T12:44:33Z</time>
      </trkpt>
      <trkpt lat="42.637587" lon="0.442292">
        <ele>2484.000000</ele>
        <time>2021-09-04T12:44:34Z</time>
      </trkpt>
      <trkpt lat="42.637587" lon="0.442283">
        <ele>2484.000000</ele>
        <time>2021-09-04T12:44:35Z</time>
      </trkpt>
      <trkpt lat="42.637590" lon="0.442268">
        <ele>2484.000000</ele>
        <time>2021-09-04T12:44:36Z</time>
      </trkpt>
      <trkpt lat="42.637591" lon="0.442258">
        <ele>2484.000000</ele>
        <time>2021-09-04T12:44:37Z</time>
      </trkpt>
      <trkpt lat="42.637593" lon="0.442247">
        <ele>2484.000000</ele>
        <time>2021-09-04T12:44:38Z</time>
      </trkpt>
      <trkpt lat="42.637595" lon="0.442235">
        <ele>2484.000000</ele>
        <time>2021-09-04T12:44:39Z</time>
      </trkpt>
      <trkpt lat="42.637595" lon="0.442227">
        <ele>2484.000000</ele>
        <time>2021-09-04T12:44:40Z</time>
      </trkpt>
      <trkpt lat="42.637596" lon="0.442222">
        <ele>2484.000000</ele>
        <time>2021-09-04T12:44:41Z</time>
      </trkpt>
      <trkpt lat="42.637596" lon="0.442223">
        <ele>2484.000000</ele>
        <time>2021-09-04T12:44:42Z</time>
      </trkpt>
      <trkpt lat="42.637610" lon="0.442227">
        <ele>2484.000000</ele>
        <time>2021-09-04T12:44:43Z</time>
      </trkpt>
      <trkpt lat="42.637610" lon="0.442223">
        <ele>2484.000000</ele>
        <time>2021-09-04T12:44:44Z</time>
      </trkpt>
      <trkpt lat="42.637612" lon="0.442220">
        <ele>2484.000000</ele>
        <time>2021-09-04T12:44:46Z</time>
      </trkpt>
      <trkpt lat="42.637610" lon="0.442220">
        <ele>2484.000000</ele>
        <time>2021-09-04T12:44:47Z</time>
      </trkpt>
      <trkpt lat="42.637610" lon="0.442217">
        <ele>2484.000000</ele>
        <time>2021-09-04T12:44:49Z</time>
      </trkpt>
      <trkpt lat="42.637608" lon="0.442215">
        <ele>2484.000000</ele>
        <time>2021-09-04T12:44:52Z</time>
      </trkpt>
      <trkpt lat="42.637605" lon="0.442215">
        <ele>2484.000000</ele>
        <time>2021-09-04T12:44:53Z</time>
      </trkpt>
      <trkpt lat="42.637610" lon="0.442217">
        <ele>2484.000000</ele>
        <time>2021-09-04T12:44:54Z</time>
      </trkpt>
      <trkpt lat="42.637593" lon="0.442310">
        <ele>2468.000000</ele>
        <time>2021-09-04T12:50:29Z</time>
      </trkpt>
      <trkpt lat="42.637592" lon="0.442320">
        <ele>2468.000000</ele>
        <time>2021-09-04T12:50:30Z</time>
      </trkpt>
      <trkpt lat="42.637590" lon="0.442335">
        <ele>2468.000000</ele>
        <time>2021-09-04T12:50:31Z</time>
      </trkpt>
      <trkpt lat="42.637584" lon="0.442352">
        <ele>2468.000000</ele>
        <time>2021-09-04T12:50:32Z</time>
      </trkpt>
      <trkpt lat="42.637580" lon="0.442373">
        <ele>2468.000000</ele>
        <time>2021-09-04T12:50:33Z</time>
      </trkpt>
      <trkpt lat="42.637578" lon="0.442395">
        <ele>2468.000000</ele>
        <time>2021-09-04T12:50:33Z</time>
      </trkpt>
      <trkpt lat="42.637576" lon="0.442417">
        <ele>2468.000000</ele>
        <time>2021-09-04T12:50:34Z</time>
      </trkpt>
      <trkpt lat="42.637574" lon="0.442437">
        <ele>2468.000000</ele>
        <time>2021-09-04T12:50:35Z</time>
      </trkpt>
      <trkpt lat="42.637572" lon="0.442452">
        <ele>2468.000000</ele>
        <time>2021-09-04T12:50:36Z</time>
      </trkpt>
      <trkpt lat="42.637571" lon="0.442465">
        <ele>2468.000000</ele>
        <time>2021-09-04T12:50:37Z</time>
      </trkpt>
      <trkpt lat="42.637570" lon="0.442480">
        <ele>2468.000000</ele>
        <time>2021-09-04T12:50:38Z</time>
      </trkpt>
      <trkpt lat="42.637568" lon="0.442500">
        <ele>2468.000000</ele>
        <time>2021-09-04T12:50:39Z</time>
      </trkpt>
      <trkpt lat="42.637566" lon="0.442513">
        <ele>2468.000000</ele>
        <time>2021-09-04T12:50:40Z</time>
      </trkpt>
      <trkpt lat="42.637563" lon="0.442528">
        <ele>2468.000000</ele>
        <time>2021-09-04T12:50:41Z</time>
      </trkpt>
      <trkpt lat="42.637560" lon="0.442542">
        <ele>2468.000000</ele>
        <time>2021-09-04T12:50:42Z</time>
      </trkpt>
      <trkpt lat="42.637559" lon="0.442553">
        <ele>2468.000000</ele>
        <time>2021-09-04T12:50:43Z</time>
      </trkpt>
      <trkpt lat="42.637557" lon="0.442568">
        <ele>2468.000000</ele>
        <time>2021-09-04T12:50:44Z</time>
      </trkpt>
      <trkpt lat="42.637556" lon="0.442578">
        <ele>2468.000000</ele>
        <time>2021-09-04T12:50:45Z</time>
      </trkpt>
      <trkpt lat="42.637554" lon="0.442597">
        <ele>2468.000000</ele>
        <time>2021-09-04T12:50:46Z</time>
      </trkpt>
      <trkpt lat="42.637553" lon="0.442610">
        <ele>2468.000000</ele>
        <time>2021-09-04T12:50:47Z</time>
      </trkpt>
      <trkpt lat="42.637552" lon="0.442623">
        <ele>2468.000000</ele>
        <time>2021-09-04T12:50:48Z</time>
      </trkpt>
      <trkpt lat="42.637551" lon="0.442638">
        <ele>2468.000000</ele>
        <time>2021-09-04T12:50:49Z</time>
      </trkpt>
      <trkpt lat="42.637549" lon="0.442648">
        <ele>2468.000000</ele>
        <time>2021-09-04T12:50:50Z</time>
      </trkpt>
      <trkpt lat="42.637547" lon="0.442660">
        <ele>2468.000000</ele>
        <time>2021-09-04T12:50:51Z</time>
      </trkpt>
      <trkpt lat="42.637545" lon="0.442670">
        <ele>2468.000000</ele>
        <time>2021-09-04T12:50:52Z</time>
      </trkpt>
      <trkpt lat="42.637544" lon="0.442682">
        <ele>2468.000000</ele>
        <time>2021-09-04T12:50:53Z</time>
      </trkpt>
      <trkpt lat="42.637542" lon="0.442697">
        <ele>2468.000000</ele>
        <time>2021-09-04T12:50:54Z</time>
      </trkpt>
      <trkpt lat="42.637536" lon="0.442710">
        <ele>2468.000000</ele>
        <time>2021-09-04T12:50:55Z</time>
      </trkpt>
      <trkpt lat="42.637531" lon="0.442718">
        <ele>2468.000000</ele>
        <time>2021-09-04T12:50:56Z</time>
      </trkpt>
      <trkpt lat="42.637527" lon="0.442727">
        <ele>2468.000000</ele>
        <time>2021-09-04T12:50:57Z</time>
      </trkpt>
      <trkpt lat="42.637525" lon="0.442732">
        <ele>2468.000000</ele>
        <time>2021-09-04T12:50:58Z</time>
      </trkpt>
      <trkpt lat="42.637522" lon="0.442740">
        <ele>2468.000000</ele>
        <time>2021-09-04T12:50:59Z</time>
      </trkpt>
      <trkpt lat="42.637522" lon="0.442743">
        <ele>2468.000000</ele>
        <time>2021-09-04T12:51:00Z</time>
      </trkpt>
      <trkpt lat="42.637521" lon="0.442747">
        <ele>2468.000000</ele>
        <time>2021-09-04T12:51:01Z</time>
      </trkpt>
      <trkpt lat="42.637520" lon="0.442753">
        <ele>2468.000000</ele>
        <time>2021-09-04T12:51:02Z</time>
      </trkpt>
      <trkpt lat="42.637518" lon="0.442758">
        <ele>2468.000000</ele>
        <time>2021-09-04T12:51:03Z</time>
      </trkpt>
      <trkpt lat="42.637517" lon="0.442763">
        <ele>2468.000000</ele>
        <time>2021-09-04T12:51:04Z</time>
      </trkpt>
      <trkpt lat="42.637516" lon="0.442765">
        <ele>2468.000000</ele>
        <time>2021-09-04T12:51:05Z</time>
      </trkpt>
      <trkpt lat="42.637515" lon="0.442768">
        <ele>2468.000000</ele>
        <time>2021-09-04T12:51:06Z</time>
      </trkpt>
      <trkpt lat="42.637516" lon="0.442765">
        <ele>2468.000000</ele>
        <time>2021-09-04T12:51:08Z</time>
      </trkpt>
      <trkpt lat="42.637517" lon="0.442760">
        <ele>2468.000000</ele>
        <time>2021-09-04T12:51:09Z</time>
      </trkpt>
      <trkpt lat="42.637518" lon="0.442757">
        <ele>2468.000000</ele>
        <time>2021-09-04T12:51:10Z</time>
      </trkpt>
      <trkpt lat="42.637520" lon="0.442752">
        <ele>2468.000000</ele>
        <time>2021-09-04T12:51:11Z</time>
      </trkpt>
      <trkpt lat="42.637522" lon="0.442747">
        <ele>2468.000000</ele>
        <time>2021-09-04T12:51:12Z</time>
      </trkpt>
      <trkpt lat="42.637523" lon="0.442742">
        <ele>2468.000000</ele>
        <time>2021-09-04T12:51:13Z</time>
      </trkpt>
      <trkpt lat="42.637524" lon="0.442738">
        <ele>2468.000000</ele>
        <time>2021-09-04T12:51:14Z</time>
      </trkpt>
      <trkpt lat="42.637524" lon="0.442737">
        <ele>2468.000000</ele>
        <time>2021-09-04T12:51:15Z</time>
      </trkpt>
      <trkpt lat="42.637519" lon="0.442752">
        <ele>2468.000000</ele>
        <time>2021-09-04T12:51:16Z</time>
      </trkpt>
      <trkpt lat="42.637540" lon="0.442667">
        <ele>2468.000000</ele>
        <time>2021-09-04T12:59:06Z</time>
      </trkpt>
      <trkpt lat="42.637547" lon="0.442665">
        <ele>2468.000000</ele>
        <time>2021-09-04T12:59:07Z</time>
      </trkpt>
      <trkpt lat="42.637555" lon="0.442665">
        <ele>2468.000000</ele>
        <time>2021-09-04T12:59:08Z</time>
      </trkpt>
      <trkpt lat="42.637558" lon="0.442665">
        <ele>2468.000000</ele>
        <time>2021-09-04T12:59:09Z</time>
      </trkpt>
      <trkpt lat="42.637560" lon="0.442663">
        <ele>2468.000000</ele>
        <time>2021-09-04T12:59:11Z</time>
      </trkpt>
      <trkpt lat="42.637548" lon="0.442665">
        <ele>2468.000000</ele>
        <time>2021-09-04T12:59:12Z</time>
      </trkpt>
      <trkpt lat="42.637560" lon="0.442565">
        <ele>2468.000000</ele>
        <time>2021-09-04T12:59:26Z</time>
      </trkpt>
      <trkpt lat="42.637558" lon="0.442553">
        <ele>2468.000000</ele>
        <time>2021-09-04T12:59:27Z</time>
      </trkpt>
      <trkpt lat="42.637558" lon="0.442540">
        <ele>2468.000000</ele>
        <time>2021-09-04T12:59:28Z</time>
      </trkpt>
      <trkpt lat="42.637562" lon="0.442528">
        <ele>2468.000000</ele>
        <time>2021-09-04T12:59:29Z</time>
      </trkpt>
      <trkpt lat="42.637566" lon="0.442515">
        <ele>2468.000000</ele>
        <time>2021-09-04T12:59:30Z</time>
      </trkpt>
      <trkpt lat="42.637568" lon="0.442505">
        <ele>2468.000000</ele>
        <time>2021-09-04T12:59:31Z</time>
      </trkpt>
      <trkpt lat="42.637568" lon="0.442493">
        <ele>2468.000000</ele>
        <time>2021-09-04T12:59:32Z</time>
      </trkpt>
      <trkpt lat="42.637569" lon="0.442478">
        <ele>2468.000000</ele>
        <time>2021-09-04T12:59:33Z</time>
      </trkpt>
      <trkpt lat="42.637571" lon="0.442467">
        <ele>2468.000000</ele>
        <time>2021-09-04T12:59:34Z</time>
      </trkpt>
      <trkpt lat="42.637575" lon="0.442453">
        <ele>2468.000000</ele>
        <time>2021-09-04T12:59:35Z</time>
      </trkpt>
      <trkpt lat="42.637578" lon="0.442440">
        <ele>2468.000000</ele>
        <time>2021-09-04T12:59:36Z</time>
      </trkpt>
      <trkpt lat="42.637580" lon="0.442427">
        <ele>2468.000000</ele>
        <time>2021-09-04T12:59:37Z</time>
      </trkpt>
      <trkpt lat="42.637583" lon="0.442408">
        <ele>2468.000000</ele>
        <time>2021-09-04T12:59:38Z</time>
      </trkpt>
      <trkpt lat="42.637586" lon="0.442395">
        <ele>2468.000000</ele>
        <time>2021-09-04T12:59:39Z</time>
      </trkpt>
      <trkpt lat="42.637588" lon="0.442378">
        <ele>2468.000000</ele>
        <time>2021-09-04T12:59:40Z</time>
      </trkpt>
      <trkpt lat="42.637591" lon="0.442363">
        <ele>2468.000000</ele>
        <time>2021-09-04T12:59:41Z</time>
      </trkpt>
      <trkpt lat="42.637593" lon="0.442348">
        <ele>2468.000000</ele>
        <time>2021-09-04T12:59:42Z</time>
      </trkpt>
      <trkpt lat="42.637594" lon="0.442340">
        <ele>2468.000000</ele>
        <time>2021-09-04T12:59:43Z</time>
      </trkpt>
      <trkpt lat="42.637594" lon="0.442333">
        <ele>2468.000000</ele>
        <time>2021-09-04T12:59:44Z</time>
      </trkpt>
      <trkpt lat="42.637594" lon="0.442330">
        <ele>2468.000000</ele>
        <time>2021-09-04T12:59:45Z</time>
      </trkpt>
      <trkpt lat="42.637593" lon="0.442327">
        <ele>2468.000000</ele>
        <time>2021-09-04T12:59:46Z</time>
      </trkpt>
      <trkpt lat="42.637593" lon="0.442317">
        <ele>2468.000000</ele>
        <time>2021-09-04T12:59:47Z</time>
      </trkpt>
      <trkpt lat="42.637593" lon="0.442305">
        <ele>2468.000000</ele>
        <time>2021-09-04T12:59:48Z</time>
      </trkpt>
      <trkpt lat="42.637593" lon="0.442292">
        <ele>2468.000000</ele>
        <time>2021-09-04T12:59:49Z</time>
      </trkpt>
      <trkpt lat="42.637593" lon="0.442278">
        <ele>2468.000000</ele>
        <time>2021-09-04T12:59:50Z</time>
      </trkpt>
      <trkpt lat="42.637594" lon="0.442262">
        <ele>2468.000000</ele>
        <time>2021-09-04T12:59:51Z</time>
      </trkpt>
      <trkpt lat="42.637595" lon="0.442248">
        <ele>2468.000000</ele>
        <time>2021-09-04T12:59:52Z</time>
      </trkpt>
      <trkpt lat="42.637595" lon="0.442245">
        <ele>2468.000000</ele>
        <time>2021-09-04T12:59:53Z</time>
      </trkpt>
      <trkpt lat="42.637595" lon="0.442245">
        <ele>2468.000000</ele>
        <time>2021-09-04T12:59:57Z</time>
      </trkpt>
      <trkpt lat="42.637596" lon="0.442243">
        <ele>2468.000000</ele>
        <time>2021-09-04T12:59:58Z</time>
      </trkpt>
      <trkpt lat="42.637601" lon="0.442242">
        <ele>2468.000000</ele>
        <time>2021-09-04T13:00:00Z</time>
      </trkpt>
      <trkpt lat="42.637599" lon="0.442243">
        <ele>2468.000000</ele>
        <time>2021-09-04T13:00:01Z</time>
      </trkpt>
      <trkpt lat="42.637604" lon="0.442238">
        <ele>2468.000000</ele>
        <time>2021-09-04T13:00:02Z</time>
      </trkpt>
      <trkpt lat="42.637603" lon="0.442237">
        <ele>2468.000000</ele>
        <time>2021-09-04T13:00:03Z</time>
      </trkpt>
      <trkpt lat="42.637602" lon="0.442238">
        <ele>2468.000000</ele>
        <time>2021-09-04T13:00:04Z</time>
      </trkpt>
      <trkpt lat="42.637602" lon="0.442238">
        <ele>2468.000000</ele>
        <time>2021-09-04T13:00:06Z</time>
      </trkpt>
      <trkpt lat="42.637597" lon="0.442207">
        <ele>2468.000000</ele>
        <time>2021-09-04T13:00:13Z</time>
      </trkpt>
      <trkpt lat="42.637597" lon="0.442198">
        <ele>2468.000000</ele>
        <time>2021-09-04T13:00:14Z</time>
      </trkpt>
      <trkpt lat="42.637599" lon="0.442192">
        <ele>2468.000000</ele>
        <time>2021-09-04T13:00:15Z</time>
      </trkpt>
      <trkpt lat="42.637605" lon="0.442192">
        <ele>2468.000000</ele>
        <time>2021-09-04T13:00:16Z</time>
      </trkpt>
      <trkpt lat="42.637603" lon="0.442192">
        <ele>2468.000000</ele>
        <time>2021-09-04T13:00:19Z</time>
      </trkpt>
      <trkpt lat="42.637622" lon="0.442178">
        <ele>2468.000000</ele>
        <time>2021-09-04T13:00:43Z</time>
      </trkpt>
      <trkpt lat="42.637625" lon="0.442173">
        <ele>2468.000000</ele>
        <time>2021-09-04T13:00:44Z</time>
      </trkpt>
      <trkpt lat="42.637625" lon="0.442170">
        <ele>2468.000000</ele>
        <time>2021-09-04T13:00:45Z</time>
      </trkpt>
      <trkpt lat="42.637626" lon="0.442165">
        <ele>2468.000000</ele>
        <time>2021-09-04T13:00:46Z</time>
      </trkpt>
      <trkpt lat="42.637628" lon="0.442158">
        <ele>2468.000000</ele>
        <time>2021-09-04T13:00:47Z</time>
      </trkpt>
      <trkpt lat="42.637631" lon="0.442150">
        <ele>2468.000000</ele>
        <time>2021-09-04T13:00:48Z</time>
      </trkpt>
      <trkpt lat="42.637634" lon="0.442137">
        <ele>2468.000000</ele>
        <time>2021-09-04T13:00:49Z</time>
      </trkpt>
      <trkpt lat="42.637636" lon="0.442120">
        <ele>2468.000000</ele>
        <time>2021-09-04T13:00:50Z</time>
      </trkpt>
      <trkpt lat="42.637636" lon="0.442107">
        <ele>2468.000000</ele>
        <time>2021-09-04T13:00:51Z</time>
      </trkpt>
      <trkpt lat="42.637636" lon="0.442087">
        <ele>2468.000000</ele>
        <time>2021-09-04T13:00:52Z</time>
      </trkpt>
      <trkpt lat="42.637636" lon="0.442072">
        <ele>2468.000000</ele>
        <time>2021-09-04T13:00:53Z</time>
      </trkpt>
      <trkpt lat="42.637636" lon="0.442057">
        <ele>2468.000000</ele>
        <time>2021-09-04T13:00:54Z</time>
      </trkpt>
      <trkpt lat="42.637636" lon="0.442040">
        <ele>2468.000000</ele>
        <time>2021-09-04T13:00:55Z</time>
      </trkpt>
      <trkpt lat="42.637635" lon="0.442028">
        <ele>2468.000000</ele>
        <time>2021-09-04T13:00:56Z</time>
      </trkpt>
      <trkpt lat="42.637636" lon="0.442015">
        <ele>2468.000000</ele>
        <time>2021-09-04T13:00:57Z</time>
      </trkpt>
      <trkpt lat="42.637636" lon="0.442005">
        <ele>2468.000000</ele>
        <time>2021-09-04T13:00:58Z</time>
      </trkpt>
      <trkpt lat="42.637635" lon="0.441995">
        <ele>2468.000000</ele>
        <time>2021-09-04T13:00:59Z</time>
      </trkpt>
      <trkpt lat="42.637634" lon="0.441987">
        <ele>2468.000000</ele>
        <time>2021-09-04T13:01:00Z</time>
      </trkpt>
      <trkpt lat="42.637633" lon="0.441980">
        <ele>2468.000000</ele>
        <time>2021-09-04T13:01:01Z</time>
      </trkpt>
      <trkpt lat="42.637634" lon="0.441967">
        <ele>2468.000000</ele>
        <time>2021-09-04T13:01:02Z</time>
      </trkpt>
      <trkpt lat="42.637634" lon="0.441955">
        <ele>2468.000000</ele>
        <time>2021-09-04T13:01:03Z</time>
      </trkpt>
      <trkpt lat="42.637634" lon="0.441948">
        <ele>2468.000000</ele>
        <time>2021-09-04T13:01:04Z</time>
      </trkpt>
      <trkpt lat="42.637634" lon="0.441942">
        <ele>2468.000000</ele>
        <time>2021-09-04T13:01:05Z</time>
      </trkpt>
      <trkpt lat="42.637634" lon="0.441938">
        <ele>2468.000000</ele>
        <time>2021-09-04T13:01:06Z</time>
      </trkpt>
      <trkpt lat="42.637625" lon="0.441930">
        <ele>2468.000000</ele>
        <time>2021-09-04T13:01:07Z</time>
      </trkpt>
      <trkpt lat="42.637615" lon="0.441920">
        <ele>2468.000000</ele>
        <time>2021-09-04T13:01:08Z</time>
      </trkpt>
      <trkpt lat="42.637610" lon="0.441910">
        <ele>2468.000000</ele>
        <time>2021-09-04T13:01:09Z</time>
      </trkpt>
      <trkpt lat="42.637607" lon="0.441902">
        <ele>2468.000000</ele>
        <time>2021-09-04T13:01:10Z</time>
      </trkpt>
      <trkpt lat="42.637606" lon="0.441892">
        <ele>2468.000000</ele>
        <time>2021-09-04T13:01:11Z</time>
      </trkpt>
      <trkpt lat="42.637604" lon="0.441882">
        <ele>2468.000000</ele>
        <time>2021-09-04T13:01:12Z</time>
      </trkpt>
      <trkpt lat="42.637601" lon="0.441873">
        <ele>2468.000000</ele>
        <time>2021-09-04T13:01:13Z</time>
      </trkpt>
      <trkpt lat="42.637599" lon="0.441868">
        <ele>2468.000000</ele>
        <time>2021-09-04T13:01:14Z</time>
      </trkpt>
      <trkpt lat="42.637597" lon="0.441862">
        <ele>2468.000000</ele>
        <time>2021-09-04T13:01:15Z</time>
      </trkpt>
      <trkpt lat="42.637594" lon="0.441850">
        <ele>2468.000000</ele>
        <time>2021-09-04T13:01:16Z</time>
      </trkpt>
      <trkpt lat="42.637593" lon="0.441847">
        <ele>2468.000000</ele>
        <time>2021-09-04T13:01:17Z</time>
      </trkpt>
      <trkpt lat="42.637592" lon="0.441842">
        <ele>2468.000000</ele>
        <time>2021-09-04T13:01:18Z</time>
      </trkpt>
      <trkpt lat="42.637589" lon="0.441835">
        <ele>2468.000000</ele>
        <time>2021-09-04T13:01:19Z</time>
      </trkpt>
      <trkpt lat="42.637587" lon="0.441828">
        <ele>2468.000000</ele>
        <time>2021-09-04T13:01:20Z</time>
      </trkpt>
      <trkpt lat="42.637585" lon="0.441823">
        <ele>2468.000000</ele>
        <time>2021-09-04T13:01:21Z</time>
      </trkpt>
      <trkpt lat="42.637583" lon="0.441818">
        <ele>2468.000000</ele>
        <time>2021-09-04T13:01:22Z</time>
      </trkpt>
      <trkpt lat="42.637580" lon="0.441813">
        <ele>2468.000000</ele>
        <time>2021-09-04T13:01:23Z</time>
      </trkpt>
      <trkpt lat="42.637576" lon="0.441807">
        <ele>2468.000000</ele>
        <time>2021-09-04T13:01:24Z</time>
      </trkpt>
      <trkpt lat="42.637572" lon="0.441800">
        <ele>2468.000000</ele>
        <time>2021-09-04T13:01:25Z</time>
      </trkpt>
      <trkpt lat="42.637569" lon="0.441793">
        <ele>2468.000000</ele>
        <time>2021-09-04T13:01:27Z</time>
      </trkpt>
      <trkpt lat="42.637564" lon="0.441783">
        <ele>2468.000000</ele>
        <time>2021-09-04T13:01:27Z</time>
      </trkpt>
      <trkpt lat="42.637563" lon="0.441777">
        <ele>2468.000000</ele>
        <time>2021-09-04T13:01:28Z</time>
      </trkpt>
      <trkpt lat="42.637570" lon="0.441770">
        <ele>2468.000000</ele>
        <time>2021-09-04T13:01:29Z</time>
      </trkpt>
      <trkpt lat="42.637573" lon="0.441763">
        <ele>2468.000000</ele>
        <time>2021-09-04T13:01:30Z</time>
      </trkpt>
      <trkpt lat="42.637573" lon="0.441752">
        <ele>2468.000000</ele>
        <time>2021-09-04T13:01:31Z</time>
      </trkpt>
      <trkpt lat="42.637572" lon="0.441743">
        <ele>2468.000000</ele>
        <time>2021-09-04T13:01:32Z</time>
      </trkpt>
      <trkpt lat="42.637570" lon="0.441737">
        <ele>2468.000000</ele>
        <time>2021-09-04T13:01:33Z</time>
      </trkpt>
      <trkpt lat="42.637569" lon="0.441732">
        <ele>2468.000000</ele>
        <time>2021-09-04T13:01:34Z</time>
      </trkpt>
      <trkpt lat="42.637570" lon="0.441723">
        <ele>2468.000000</ele>
        <time>2021-09-04T13:01:35Z</time>
      </trkpt>
      <trkpt lat="42.637571" lon="0.441710">
        <ele>2468.000000</ele>
        <time>2021-09-04T13:01:36Z</time>
      </trkpt>
      <trkpt lat="42.637570" lon="0.441698">
        <ele>2468.000000</ele>
        <time>2021-09-04T13:01:37Z</time>
      </trkpt>
      <trkpt lat="42.637570" lon="0.441687">
        <ele>2468.000000</ele>
        <time>2021-09-04T13:01:38Z</time>
      </trkpt>
      <trkpt lat="42.637568" lon="0.441677">
        <ele>2468.000000</ele>
        <time>2021-09-04T13:01:39Z</time>
      </trkpt>
      <trkpt lat="42.637566" lon="0.441665">
        <ele>2468.000000</ele>
        <time>2021-09-04T13:01:40Z</time>
      </trkpt>
      <trkpt lat="42.637560" lon="0.441652">
        <ele>2468.000000</ele>
        <time>2021-09-04T13:01:41Z</time>
      </trkpt>
      <trkpt lat="42.637555" lon="0.441638">
        <ele>2468.000000</ele>
        <time>2021-09-04T13:01:42Z</time>
      </trkpt>
      <trkpt lat="42.637553" lon="0.441628">
        <ele>2468.000000</ele>
        <time>2021-09-04T13:01:43Z</time>
      </trkpt>
      <trkpt lat="42.637548" lon="0.441618">
        <ele>2468.000000</ele>
        <time>2021-09-04T13:01:44Z</time>
      </trkpt>
      <trkpt lat="42.637541" lon="0.441608">
        <ele>2479.000000</ele>
        <time>2021-09-04T13:01:45Z</time>
      </trkpt>
      <trkpt lat="42.637535" lon="0.441598">
        <ele>2479.000000</ele>
        <time>2021-09-04T13:01:46Z</time>
      </trkpt>
      <trkpt lat="42.637529" lon="0.441587">
        <ele>2479.000000</ele>
        <time>2021-09-04T13:01:47Z</time>
      </trkpt>
      <trkpt lat="42.637524" lon="0.441578">
        <ele>2479.000000</ele>
        <time>2021-09-04T13:01:48Z</time>
      </trkpt>
      <trkpt lat="42.637518" lon="0.441567">
        <ele>2479.000000</ele>
        <time>2021-09-04T13:01:49Z</time>
      </trkpt>
      <trkpt lat="42.637513" lon="0.441555">
        <ele>2479.000000</ele>
        <time>2021-09-04T13:01:50Z</time>
      </trkpt>
      <trkpt lat="42.637510" lon="0.441547">
        <ele>2479.000000</ele>
        <time>2021-09-04T13:01:51Z</time>
      </trkpt>
      <trkpt lat="42.637508" lon="0.441538">
        <ele>2479.000000</ele>
        <time>2021-09-04T13:01:52Z</time>
      </trkpt>
      <trkpt lat="42.637505" lon="0.441528">
        <ele>2479.000000</ele>
        <time>2021-09-04T13:01:53Z</time>
      </trkpt>
      <trkpt lat="42.637501" lon="0.441520">
        <ele>2479.000000</ele>
        <time>2021-09-04T13:01:54Z</time>
      </trkpt>
      <trkpt lat="42.637496" lon="0.441507">
        <ele>2480.000000</ele>
        <time>2021-09-04T13:01:55Z</time>
      </trkpt>
      <trkpt lat="42.637493" lon="0.441502">
        <ele>2480.000000</ele>
        <time>2021-09-04T13:01:56Z</time>
      </trkpt>
      <trkpt lat="42.637490" lon="0.441498">
        <ele>2480.000000</ele>
        <time>2021-09-04T13:01:57Z</time>
      </trkpt>
      <trkpt lat="42.637472" lon="0.441493">
        <ele>2480.000000</ele>
        <time>2021-09-04T13:01:58Z</time>
      </trkpt>
      <trkpt lat="42.637460" lon="0.441488">
        <ele>2480.000000</ele>
        <time>2021-09-04T13:01:59Z</time>
      </trkpt>
      <trkpt lat="42.637453" lon="0.441488">
        <ele>2480.000000</ele>
        <time>2021-09-04T13:02:00Z</time>
      </trkpt>
      <trkpt lat="42.637445" lon="0.441487">
        <ele>2480.000000</ele>
        <time>2021-09-04T13:02:01Z</time>
      </trkpt>
      <trkpt lat="42.637445" lon="0.441486">
        <ele>2481.000000</ele>
        <time>2021-09-04T13:02:05Z</time>
      </trkpt>
      <trkpt lat="42.637443" lon="0.441484">
        <ele>2481.000000</ele>
        <time>2021-09-04T13:02:06Z</time>
      </trkpt>
      <trkpt lat="42.637443" lon="0.441481">
        <ele>2481.000000</ele>
        <time>2021-09-04T13:02:07Z</time>
      </trkpt>
      <trkpt lat="42.637437" lon="0.441479">
        <ele>2481.000000</ele>
        <time>2021-09-04T13:02:09Z</time>
      </trkpt>
      <trkpt lat="42.637427" lon="0.441479">
        <ele>2481.000000</ele>
        <time>2021-09-04T13:02:10Z</time>
      </trkpt>
      <trkpt lat="42.637418" lon="0.441479">
        <ele>2482.000000</ele>
        <time>2021-09-04T13:02:11Z</time>
      </trkpt>
      <trkpt lat="42.637407" lon="0.441476">
        <ele>2482.000000</ele>
        <time>2021-09-04T13:02:12Z</time>
      </trkpt>
      <trkpt lat="42.637400" lon="0.441475">
        <ele>2482.000000</ele>
        <time>2021-09-04T13:02:13Z</time>
      </trkpt>
      <trkpt lat="42.637390" lon="0.441473">
        <ele>2482.000000</ele>
        <time>2021-09-04T13:02:14Z</time>
      </trkpt>
      <trkpt lat="42.637382" lon="0.441470">
        <ele>2482.000000</ele>
        <time>2021-09-04T13:02:15Z</time>
      </trkpt>
      <trkpt lat="42.637373" lon="0.441465">
        <ele>2482.000000</ele>
        <time>2021-09-04T13:02:16Z</time>
      </trkpt>
      <trkpt lat="42.637360" lon="0.441457">
        <ele>2482.000000</ele>
        <time>2021-09-04T13:02:17Z</time>
      </trkpt>
      <trkpt lat="42.637350" lon="0.441449">
        <ele>2482.000000</ele>
        <time>2021-09-04T13:02:18Z</time>
      </trkpt>
      <trkpt lat="42.637335" lon="0.441440">
        <ele>2482.000000</ele>
        <time>2021-09-04T13:02:19Z</time>
      </trkpt>
      <trkpt lat="42.637325" lon="0.441432">
        <ele>2482.000000</ele>
        <time>2021-09-04T13:02:20Z</time>
      </trkpt>
      <trkpt lat="42.637313" lon="0.441423">
        <ele>2482.000000</ele>
        <time>2021-09-04T13:02:21Z</time>
      </trkpt>
      <trkpt lat="42.637305" lon="0.441416">
        <ele>2482.000000</ele>
        <time>2021-09-04T13:02:22Z</time>
      </trkpt>
      <trkpt lat="42.637293" lon="0.441406">
        <ele>2482.000000</ele>
        <time>2021-09-04T13:02:23Z</time>
      </trkpt>
      <trkpt lat="42.637287" lon="0.441399">
        <ele>2482.000000</ele>
        <time>2021-09-04T13:02:24Z</time>
      </trkpt>
      <trkpt lat="42.637277" lon="0.441390">
        <ele>2482.000000</ele>
        <time>2021-09-04T13:02:25Z</time>
      </trkpt>
      <trkpt lat="42.637268" lon="0.441381">
        <ele>2482.000000</ele>
        <time>2021-09-04T13:02:26Z</time>
      </trkpt>
      <trkpt lat="42.637263" lon="0.441375">
        <ele>2482.000000</ele>
        <time>2021-09-04T13:02:27Z</time>
      </trkpt>
      <trkpt lat="42.637255" lon="0.441366">
        <ele>2482.000000</ele>
        <time>2021-09-04T13:02:28Z</time>
      </trkpt>
      <trkpt lat="42.637248" lon="0.441359">
        <ele>2482.000000</ele>
        <time>2021-09-04T13:02:29Z</time>
      </trkpt>
      <trkpt lat="42.637242" lon="0.441351">
        <ele>2482.000000</ele>
        <time>2021-09-04T13:02:30Z</time>
      </trkpt>
      <trkpt lat="42.637232" lon="0.441342">
        <ele>2482.000000</ele>
        <time>2021-09-04T13:02:31Z</time>
      </trkpt>
      <trkpt lat="42.637225" lon="0.441334">
        <ele>2482.000000</ele>
        <time>2021-09-04T13:02:32Z</time>
      </trkpt>
      <trkpt lat="42.637220" lon="0.441328">
        <ele>2482.000000</ele>
        <time>2021-09-04T13:02:33Z</time>
      </trkpt>
      <trkpt lat="42.637217" lon="0.441323">
        <ele>2482.000000</ele>
        <time>2021-09-04T13:02:34Z</time>
      </trkpt>
      <trkpt lat="42.637215" lon="0.441320">
        <ele>2482.000000</ele>
        <time>2021-09-04T13:02:35Z</time>
      </trkpt>
      <trkpt lat="42.637222" lon="0.441323">
        <ele>2482.000000</ele>
        <time>2021-09-04T13:02:36Z</time>
      </trkpt>
      <trkpt lat="42.637227" lon="0.441326">
        <ele>2482.000000</ele>
        <time>2021-09-04T13:02:37Z</time>
      </trkpt>
      <trkpt lat="42.637230" lon="0.441326">
        <ele>2482.000000</ele>
        <time>2021-09-04T13:02:38Z</time>
      </trkpt>
      <trkpt lat="42.637232" lon="0.441326">
        <ele>2482.000000</ele>
        <time>2021-09-04T13:02:39Z</time>
      </trkpt>
      <trkpt lat="42.637232" lon="0.441325">
        <ele>2482.000000</ele>
        <time>2021-09-04T13:02:40Z</time>
      </trkpt>
      <trkpt lat="42.637235" lon="0.441326">
        <ele>2482.000000</ele>
        <time>2021-09-04T13:02:41Z</time>
      </trkpt>
      <trkpt lat="42.637237" lon="0.441326">
        <ele>2482.000000</ele>
        <time>2021-09-04T13:02:42Z</time>
      </trkpt>
      <trkpt lat="42.637237" lon="0.441325">
        <ele>2482.000000</ele>
        <time>2021-09-04T13:02:43Z</time>
      </trkpt>
      <trkpt lat="42.637235" lon="0.441323">
        <ele>2482.000000</ele>
        <time>2021-09-04T13:02:44Z</time>
      </trkpt>
      <trkpt lat="42.637232" lon="0.441319">
        <ele>2482.000000</ele>
        <time>2021-09-04T13:02:45Z</time>
      </trkpt>
      <trkpt lat="42.637178" lon="0.441282">
        <ele>2482.000000</ele>
        <time>2021-09-04T13:03:01Z</time>
      </trkpt>
      <trkpt lat="42.637170" lon="0.441283">
        <ele>2482.000000</ele>
        <time>2021-09-04T13:03:02Z</time>
      </trkpt>
      <trkpt lat="42.637155" lon="0.441282">
        <ele>2482.000000</ele>
        <time>2021-09-04T13:03:03Z</time>
      </trkpt>
      <trkpt lat="42.637142" lon="0.441282">
        <ele>2482.000000</ele>
        <time>2021-09-04T13:03:04Z</time>
      </trkpt>
      <trkpt lat="42.637130" lon="0.441284">
        <ele>2482.000000</ele>
        <time>2021-09-04T13:03:05Z</time>
      </trkpt>
      <trkpt lat="42.637120" lon="0.441284">
        <ele>2482.000000</ele>
        <time>2021-09-04T13:03:06Z</time>
      </trkpt>
      <trkpt lat="42.637115" lon="0.441282">
        <ele>2482.000000</ele>
        <time>2021-09-04T13:03:07Z</time>
      </trkpt>
      <trkpt lat="42.637110" lon="0.441279">
        <ele>2482.000000</ele>
        <time>2021-09-04T13:03:08Z</time>
      </trkpt>
      <trkpt lat="42.637103" lon="0.441268">
        <ele>2482.000000</ele>
        <time>2021-09-04T13:03:09Z</time>
      </trkpt>
      <trkpt lat="42.637098" lon="0.441265">
        <ele>2482.000000</ele>
        <time>2021-09-04T13:03:10Z</time>
      </trkpt>
      <trkpt lat="42.637093" lon="0.441262">
        <ele>2482.000000</ele>
        <time>2021-09-04T13:03:11Z</time>
      </trkpt>
      <trkpt lat="42.637085" lon="0.441260">
        <ele>2482.000000</ele>
        <time>2021-09-04T13:03:12Z</time>
      </trkpt>
      <trkpt lat="42.637078" lon="0.441260">
        <ele>2482.000000</ele>
        <time>2021-09-04T13:03:13Z</time>
      </trkpt>
      <trkpt lat="42.637073" lon="0.441259">
        <ele>2482.000000</ele>
        <time>2021-09-04T13:03:14Z</time>
      </trkpt>
      <trkpt lat="42.637068" lon="0.441257">
        <ele>2482.000000</ele>
        <time>2021-09-04T13:03:15Z</time>
      </trkpt>
      <trkpt lat="42.637065" lon="0.441255">
        <ele>2482.000000</ele>
        <time>2021-09-04T13:03:16Z</time>
      </trkpt>
      <trkpt lat="42.637055" lon="0.441249">
        <ele>2482.000000</ele>
        <time>2021-09-04T13:03:16Z</time>
      </trkpt>
      <trkpt lat="42.637045" lon="0.441240">
        <ele>2482.000000</ele>
        <time>2021-09-04T13:03:17Z</time>
      </trkpt>
      <trkpt lat="42.637040" lon="0.441230">
        <ele>2482.000000</ele>
        <time>2021-09-04T13:03:18Z</time>
      </trkpt>
      <trkpt lat="42.637035" lon="0.441217">
        <ele>2482.000000</ele>
        <time>2021-09-04T13:03:19Z</time>
      </trkpt>
      <trkpt lat="42.637032" lon="0.441213">
        <ele>2482.000000</ele>
        <time>2021-09-04T13:03:20Z</time>
      </trkpt>
      <trkpt lat="42.637028" lon="0.441207">
        <ele>2482.000000</ele>
        <time>2021-09-04T13:03:21Z</time>
      </trkpt>
      <trkpt lat="42.637028" lon="0.441202">
        <ele>2482.000000</ele>
        <time>2021-09-04T13:03:22Z</time>
      </trkpt>
      <trkpt lat="42.637028" lon="0.441198">
        <ele>2482.000000</ele>
        <time>2021-09-04T13:03:23Z</time>
      </trkpt>
      <trkpt lat="42.637029" lon="0.441200">
        <ele>2482.000000</ele>
        <time>2021-09-04T13:03:24Z</time>
      </trkpt>
      <trkpt lat="42.637028" lon="0.441190">
        <ele>2482.000000</ele>
        <time>2021-09-04T13:03:26Z</time>
      </trkpt>
      <trkpt lat="42.637025" lon="0.441177">
        <ele>2483.000000</ele>
        <time>2021-09-04T13:03:27Z</time>
      </trkpt>
      <trkpt lat="42.637020" lon="0.441167">
        <ele>2483.000000</ele>
        <time>2021-09-04T13:03:28Z</time>
      </trkpt>
      <trkpt lat="42.637014" lon="0.441155">
        <ele>2483.000000</ele>
        <time>2021-09-04T13:03:29Z</time>
      </trkpt>
      <trkpt lat="42.637006" lon="0.441142">
        <ele>2483.000000</ele>
        <time>2021-09-04T13:03:30Z</time>
      </trkpt>
      <trkpt lat="42.636999" lon="0.441128">
        <ele>2484.000000</ele>
        <time>2021-09-04T13:03:31Z</time>
      </trkpt>
      <trkpt lat="42.636991" lon="0.441108">
        <ele>2484.000000</ele>
        <time>2021-09-04T13:03:32Z</time>
      </trkpt>
      <trkpt lat="42.636989" lon="0.441097">
        <ele>2484.000000</ele>
        <time>2021-09-04T13:03:33Z</time>
      </trkpt>
      <trkpt lat="42.636992" lon="0.441088">
        <ele>2484.000000</ele>
        <time>2021-09-04T13:03:34Z</time>
      </trkpt>
      <trkpt lat="42.636992" lon="0.441077">
        <ele>2484.000000</ele>
        <time>2021-09-04T13:03:35Z</time>
      </trkpt>
      <trkpt lat="42.636992" lon="0.441068">
        <ele>2485.000000</ele>
        <time>2021-09-04T13:03:36Z</time>
      </trkpt>
      <trkpt lat="42.636993" lon="0.441067">
        <ele>2485.000000</ele>
        <time>2021-09-04T13:03:37Z</time>
      </trkpt>
      <trkpt lat="42.636994" lon="0.441068">
        <ele>2485.000000</ele>
        <time>2021-09-04T13:03:38Z</time>
      </trkpt>
      <trkpt lat="42.636997" lon="0.441063">
        <ele>2485.000000</ele>
        <time>2021-09-04T13:03:39Z</time>
      </trkpt>
      <trkpt lat="42.636995" lon="0.441052">
        <ele>2485.000000</ele>
        <time>2021-09-04T13:03:40Z</time>
      </trkpt>
      <trkpt lat="42.636996" lon="0.441040">
        <ele>2485.000000</ele>
        <time>2021-09-04T13:03:41Z</time>
      </trkpt>
      <trkpt lat="42.636996" lon="0.441028">
        <ele>2485.000000</ele>
        <time>2021-09-04T13:03:42Z</time>
      </trkpt>
      <trkpt lat="42.636997" lon="0.441022">
        <ele>2486.000000</ele>
        <time>2021-09-04T13:03:43Z</time>
      </trkpt>
      <trkpt lat="42.636998" lon="0.441013">
        <ele>2486.000000</ele>
        <time>2021-09-04T13:03:44Z</time>
      </trkpt>
      <trkpt lat="42.637000" lon="0.440998">
        <ele>2486.000000</ele>
        <time>2021-09-04T13:03:45Z</time>
      </trkpt>
      <trkpt lat="42.637001" lon="0.440983">
        <ele>2486.000000</ele>
        <time>2021-09-04T13:03:46Z</time>
      </trkpt>
      <trkpt lat="42.637002" lon="0.440972">
        <ele>2486.000000</ele>
        <time>2021-09-04T13:03:47Z</time>
      </trkpt>
      <trkpt lat="42.637003" lon="0.440962">
        <ele>2486.000000</ele>
        <time>2021-09-04T13:03:48Z</time>
      </trkpt>
      <trkpt lat="42.637007" lon="0.440945">
        <ele>2486.000000</ele>
        <time>2021-09-04T13:03:49Z</time>
      </trkpt>
      <trkpt lat="42.637010" lon="0.440932">
        <ele>2487.000000</ele>
        <time>2021-09-04T13:03:50Z</time>
      </trkpt>
      <trkpt lat="42.637013" lon="0.440917">
        <ele>2487.000000</ele>
        <time>2021-09-04T13:03:51Z</time>
      </trkpt>
      <trkpt lat="42.637016" lon="0.440905">
        <ele>2487.000000</ele>
        <time>2021-09-04T13:03:52Z</time>
      </trkpt>
      <trkpt lat="42.637019" lon="0.440895">
        <ele>2488.000000</ele>
        <time>2021-09-04T13:03:53Z</time>
      </trkpt>
      <trkpt lat="42.637023" lon="0.440878">
        <ele>2488.000000</ele>
        <time>2021-09-04T13:03:54Z</time>
      </trkpt>
      <trkpt lat="42.637026" lon="0.440867">
        <ele>2488.000000</ele>
        <time>2021-09-04T13:03:55Z</time>
      </trkpt>
      <trkpt lat="42.637030" lon="0.440852">
        <ele>2488.000000</ele>
        <time>2021-09-04T13:03:56Z</time>
      </trkpt>
      <trkpt lat="42.637033" lon="0.440843">
        <ele>2488.000000</ele>
        <time>2021-09-04T13:03:57Z</time>
      </trkpt>
      <trkpt lat="42.637038" lon="0.440833">
        <ele>2488.000000</ele>
        <time>2021-09-04T13:03:58Z</time>
      </trkpt>
      <trkpt lat="42.637043" lon="0.440818">
        <ele>2489.000000</ele>
        <time>2021-09-04T13:03:59Z</time>
      </trkpt>
      <trkpt lat="42.637049" lon="0.440802">
        <ele>2489.000000</ele>
        <time>2021-09-04T13:04:00Z</time>
      </trkpt>
      <trkpt lat="42.637054" lon="0.440787">
        <ele>2489.000000</ele>
        <time>2021-09-04T13:04:01Z</time>
      </trkpt>
      <trkpt lat="42.637059" lon="0.440773">
        <ele>2489.000000</ele>
        <time>2021-09-04T13:04:02Z</time>
      </trkpt>
      <trkpt lat="42.637063" lon="0.440763">
        <ele>2489.000000</ele>
        <time>2021-09-04T13:04:03Z</time>
      </trkpt>
      <trkpt lat="42.637067" lon="0.440753">
        <ele>2489.000000</ele>
        <time>2021-09-04T13:04:04Z</time>
      </trkpt>
      <trkpt lat="42.637073" lon="0.440738">
        <ele>2489.000000</ele>
        <time>2021-09-04T13:04:05Z</time>
      </trkpt>
      <trkpt lat="42.637078" lon="0.440728">
        <ele>2489.000000</ele>
        <time>2021-09-04T13:04:06Z</time>
      </trkpt>
      <trkpt lat="42.637083" lon="0.440715">
        <ele>2489.000000</ele>
        <time>2021-09-04T13:04:07Z</time>
      </trkpt>
      <trkpt lat="42.637088" lon="0.440695">
        <ele>2489.000000</ele>
        <time>2021-09-04T13:04:08Z</time>
      </trkpt>
      <trkpt lat="42.637090" lon="0.440680">
        <ele>2490.000000</ele>
        <time>2021-09-04T13:04:09Z</time>
      </trkpt>
      <trkpt lat="42.637090" lon="0.440670">
        <ele>2490.000000</ele>
        <time>2021-09-04T13:04:10Z</time>
      </trkpt>
      <trkpt lat="42.637092" lon="0.440658">
        <ele>2490.000000</ele>
        <time>2021-09-04T13:04:11Z</time>
      </trkpt>
      <trkpt lat="42.637090" lon="0.440647">
        <ele>2490.000000</ele>
        <time>2021-09-04T13:04:12Z</time>
      </trkpt>
      <trkpt lat="42.637090" lon="0.440635">
        <ele>2490.000000</ele>
        <time>2021-09-04T13:04:13Z</time>
      </trkpt>
      <trkpt lat="42.637090" lon="0.440620">
        <ele>2490.000000</ele>
        <time>2021-09-04T13:04:14Z</time>
      </trkpt>
      <trkpt lat="42.637091" lon="0.440607">
        <ele>2491.000000</ele>
        <time>2021-09-04T13:04:15Z</time>
      </trkpt>
      <trkpt lat="42.637092" lon="0.440598">
        <ele>2491.000000</ele>
        <time>2021-09-04T13:04:16Z</time>
      </trkpt>
      <trkpt lat="42.637091" lon="0.440582">
        <ele>2491.000000</ele>
        <time>2021-09-04T13:04:17Z</time>
      </trkpt>
      <trkpt lat="42.637092" lon="0.440568">
        <ele>2491.000000</ele>
        <time>2021-09-04T13:04:18Z</time>
      </trkpt>
      <trkpt lat="42.637094" lon="0.440553">
        <ele>2491.000000</ele>
        <time>2021-09-04T13:04:19Z</time>
      </trkpt>
      <trkpt lat="42.637094" lon="0.440545">
        <ele>2492.000000</ele>
        <time>2021-09-04T13:04:20Z</time>
      </trkpt>
      <trkpt lat="42.637093" lon="0.440537">
        <ele>2492.000000</ele>
        <time>2021-09-04T13:04:21Z</time>
      </trkpt>
      <trkpt lat="42.637094" lon="0.440527">
        <ele>2492.000000</ele>
        <time>2021-09-04T13:04:22Z</time>
      </trkpt>
      <trkpt lat="42.637095" lon="0.440517">
        <ele>2492.000000</ele>
        <time>2021-09-04T13:04:23Z</time>
      </trkpt>
      <trkpt lat="42.637107" lon="0.440513">
        <ele>2492.000000</ele>
        <time>2021-09-04T13:04:24Z</time>
      </trkpt>
      <trkpt lat="42.637117" lon="0.440508">
        <ele>2493.000000</ele>
        <time>2021-09-04T13:04:25Z</time>
      </trkpt>
      <trkpt lat="42.637127" lon="0.440498">
        <ele>2493.000000</ele>
        <time>2021-09-04T13:04:26Z</time>
      </trkpt>
      <trkpt lat="42.637138" lon="0.440485">
        <ele>2493.000000</ele>
        <time>2021-09-04T13:04:27Z</time>
      </trkpt>
      <trkpt lat="42.637148" lon="0.440473">
        <ele>2493.000000</ele>
        <time>2021-09-04T13:04:28Z</time>
      </trkpt>
      <trkpt lat="42.637152" lon="0.440465">
        <ele>2494.000000</ele>
        <time>2021-09-04T13:04:29Z</time>
      </trkpt>
      <trkpt lat="42.637157" lon="0.440456">
        <ele>2494.000000</ele>
        <time>2021-09-04T13:04:30Z</time>
      </trkpt>
      <trkpt lat="42.637163" lon="0.440450">
        <ele>2494.000000</ele>
        <time>2021-09-04T13:04:31Z</time>
      </trkpt>
      <trkpt lat="42.637172" lon="0.440444">
        <ele>2494.000000</ele>
        <time>2021-09-04T13:04:32Z</time>
      </trkpt>
      <trkpt lat="42.637183" lon="0.440438">
        <ele>2494.000000</ele>
        <time>2021-09-04T13:04:33Z</time>
      </trkpt>
      <trkpt lat="42.637190" lon="0.440435">
        <ele>2494.000000</ele>
        <time>2021-09-04T13:04:34Z</time>
      </trkpt>
      <trkpt lat="42.637200" lon="0.440428">
        <ele>2494.000000</ele>
        <time>2021-09-04T13:04:35Z</time>
      </trkpt>
      <trkpt lat="42.637208" lon="0.440420">
        <ele>2495.000000</ele>
        <time>2021-09-04T13:04:36Z</time>
      </trkpt>
      <trkpt lat="42.637215" lon="0.440415">
        <ele>2495.000000</ele>
        <time>2021-09-04T13:04:37Z</time>
      </trkpt>
      <trkpt lat="42.637222" lon="0.440408">
        <ele>2495.000000</ele>
        <time>2021-09-04T13:04:38Z</time>
      </trkpt>
      <trkpt lat="42.637225" lon="0.440402">
        <ele>2495.000000</ele>
        <time>2021-09-04T13:04:39Z</time>
      </trkpt>
      <trkpt lat="42.637228" lon="0.440396">
        <ele>2495.000000</ele>
        <time>2021-09-04T13:04:40Z</time>
      </trkpt>
      <trkpt lat="42.637228" lon="0.440377">
        <ele>2495.000000</ele>
        <time>2021-09-04T13:04:41Z</time>
      </trkpt>
      <trkpt lat="42.637233" lon="0.440368">
        <ele>2495.000000</ele>
        <time>2021-09-04T13:04:42Z</time>
      </trkpt>
      <trkpt lat="42.637238" lon="0.440360">
        <ele>2495.000000</ele>
        <time>2021-09-04T13:04:43Z</time>
      </trkpt>
      <trkpt lat="42.637240" lon="0.440353">
        <ele>2495.000000</ele>
        <time>2021-09-04T13:04:44Z</time>
      </trkpt>
      <trkpt lat="42.637243" lon="0.440348">
        <ele>2495.000000</ele>
        <time>2021-09-04T13:04:45Z</time>
      </trkpt>
      <trkpt lat="42.637246" lon="0.440343">
        <ele>2495.000000</ele>
        <time>2021-09-04T13:04:46Z</time>
      </trkpt>
      <trkpt lat="42.637249" lon="0.440338">
        <ele>2495.000000</ele>
        <time>2021-09-04T13:04:47Z</time>
      </trkpt>
      <trkpt lat="42.637251" lon="0.440337">
        <ele>2496.000000</ele>
        <time>2021-09-04T13:04:48Z</time>
      </trkpt>
      <trkpt lat="42.637254" lon="0.440332">
        <ele>2496.000000</ele>
        <time>2021-09-04T13:04:49Z</time>
      </trkpt>
      <trkpt lat="42.637260" lon="0.440322">
        <ele>2496.000000</ele>
        <time>2021-09-04T13:04:50Z</time>
      </trkpt>
      <trkpt lat="42.637265" lon="0.440313">
        <ele>2496.000000</ele>
        <time>2021-09-04T13:04:51Z</time>
      </trkpt>
      <trkpt lat="42.637268" lon="0.440308">
        <ele>2496.000000</ele>
        <time>2021-09-04T13:04:52Z</time>
      </trkpt>
      <trkpt lat="42.637272" lon="0.440303">
        <ele>2496.000000</ele>
        <time>2021-09-04T13:04:53Z</time>
      </trkpt>
      <trkpt lat="42.637280" lon="0.440298">
        <ele>2496.000000</ele>
        <time>2021-09-04T13:04:54Z</time>
      </trkpt>
      <trkpt lat="42.637283" lon="0.440293">
        <ele>2496.000000</ele>
        <time>2021-09-04T13:04:55Z</time>
      </trkpt>
      <trkpt lat="42.637287" lon="0.440287">
        <ele>2496.000000</ele>
        <time>2021-09-04T13:04:56Z</time>
      </trkpt>
      <trkpt lat="42.637288" lon="0.440281">
        <ele>2496.000000</ele>
        <time>2021-09-04T13:04:57Z</time>
      </trkpt>
      <trkpt lat="42.637293" lon="0.440274">
        <ele>2496.000000</ele>
        <time>2021-09-04T13:04:58Z</time>
      </trkpt>
      <trkpt lat="42.637298" lon="0.440270">
        <ele>2496.000000</ele>
        <time>2021-09-04T13:04:59Z</time>
      </trkpt>
      <trkpt lat="42.637305" lon="0.440271">
        <ele>2496.000000</ele>
        <time>2021-09-04T13:05:00Z</time>
      </trkpt>
      <trkpt lat="42.637315" lon="0.440271">
        <ele>2496.000000</ele>
        <time>2021-09-04T13:05:01Z</time>
      </trkpt>
      <trkpt lat="42.637325" lon="0.440269">
        <ele>2496.000000</ele>
        <time>2021-09-04T13:05:02Z</time>
      </trkpt>
      <trkpt lat="42.637330" lon="0.440269">
        <ele>2496.000000</ele>
        <time>2021-09-04T13:05:03Z</time>
      </trkpt>
      <trkpt lat="42.637337" lon="0.440266">
        <ele>2496.000000</ele>
        <time>2021-09-04T13:05:04Z</time>
      </trkpt>
      <trkpt lat="42.637342" lon="0.440261">
        <ele>2496.000000</ele>
        <time>2021-09-04T13:05:05Z</time>
      </trkpt>
      <trkpt lat="42.637343" lon="0.440248">
        <ele>2496.000000</ele>
        <time>2021-09-04T13:05:06Z</time>
      </trkpt>
      <trkpt lat="42.637347" lon="0.440245">
        <ele>2496.000000</ele>
        <time>2021-09-04T13:05:07Z</time>
      </trkpt>
      <trkpt lat="42.637355" lon="0.440235">
        <ele>2496.000000</ele>
        <time>2021-09-04T13:05:08Z</time>
      </trkpt>
      <trkpt lat="42.637361" lon="0.440227">
        <ele>2496.000000</ele>
        <time>2021-09-04T13:05:09Z</time>
      </trkpt>
      <trkpt lat="42.637367" lon="0.440222">
        <ele>2496.000000</ele>
        <time>2021-09-04T13:05:10Z</time>
      </trkpt>
      <trkpt lat="42.637372" lon="0.440213">
        <ele>2496.000000</ele>
        <time>2021-09-04T13:05:11Z</time>
      </trkpt>
      <trkpt lat="42.637375" lon="0.440205">
        <ele>2496.000000</ele>
        <time>2021-09-04T13:05:12Z</time>
      </trkpt>
      <trkpt lat="42.637380" lon="0.440197">
        <ele>2496.000000</ele>
        <time>2021-09-04T13:05:13Z</time>
      </trkpt>
      <trkpt lat="42.637385" lon="0.440191">
        <ele>2496.000000</ele>
        <time>2021-09-04T13:05:14Z</time>
      </trkpt>
      <trkpt lat="42.637390" lon="0.440186">
        <ele>2496.000000</ele>
        <time>2021-09-04T13:05:15Z</time>
      </trkpt>
      <trkpt lat="42.637395" lon="0.440183">
        <ele>2496.000000</ele>
        <time>2021-09-04T13:05:16Z</time>
      </trkpt>
      <trkpt lat="42.637398" lon="0.440181">
        <ele>2496.000000</ele>
        <time>2021-09-04T13:05:17Z</time>
      </trkpt>
      <trkpt lat="42.637405" lon="0.440175">
        <ele>2496.000000</ele>
        <time>2021-09-04T13:05:18Z</time>
      </trkpt>
      <trkpt lat="42.637412" lon="0.440170">
        <ele>2496.000000</ele>
        <time>2021-09-04T13:05:19Z</time>
      </trkpt>
      <trkpt lat="42.637417" lon="0.440166">
        <ele>2496.000000</ele>
        <time>2021-09-04T13:05:20Z</time>
      </trkpt>
      <trkpt lat="42.637423" lon="0.440161">
        <ele>2496.000000</ele>
        <time>2021-09-04T13:05:21Z</time>
      </trkpt>
      <trkpt lat="42.637428" lon="0.440157">
        <ele>2496.000000</ele>
        <time>2021-09-04T13:05:22Z</time>
      </trkpt>
      <trkpt lat="42.637437" lon="0.440153">
        <ele>2496.000000</ele>
        <time>2021-09-04T13:05:23Z</time>
      </trkpt>
      <trkpt lat="42.637440" lon="0.440151">
        <ele>2496.000000</ele>
        <time>2021-09-04T13:05:24Z</time>
      </trkpt>
      <trkpt lat="42.637443" lon="0.440149">
        <ele>2496.000000</ele>
        <time>2021-09-04T13:05:25Z</time>
      </trkpt>
      <trkpt lat="42.637447" lon="0.440147">
        <ele>2496.000000</ele>
        <time>2021-09-04T13:05:26Z</time>
      </trkpt>
      <trkpt lat="42.637450" lon="0.440144">
        <ele>2496.000000</ele>
        <time>2021-09-04T13:05:27Z</time>
      </trkpt>
      <trkpt lat="42.637453" lon="0.440141">
        <ele>2496.000000</ele>
        <time>2021-09-04T13:05:28Z</time>
      </trkpt>
      <trkpt lat="42.637457" lon="0.440138">
        <ele>2496.000000</ele>
        <time>2021-09-04T13:05:29Z</time>
      </trkpt>
      <trkpt lat="42.637460" lon="0.440134">
        <ele>2496.000000</ele>
        <time>2021-09-04T13:05:30Z</time>
      </trkpt>
      <trkpt lat="42.637462" lon="0.440132">
        <ele>2496.000000</ele>
        <time>2021-09-04T13:05:31Z</time>
      </trkpt>
      <trkpt lat="42.637467" lon="0.440125">
        <ele>2496.000000</ele>
        <time>2021-09-04T13:05:32Z</time>
      </trkpt>
      <trkpt lat="42.637467" lon="0.440117">
        <ele>2496.000000</ele>
        <time>2021-09-04T13:05:33Z</time>
      </trkpt>
      <trkpt lat="42.637468" lon="0.440110">
        <ele>2496.000000</ele>
        <time>2021-09-04T13:05:34Z</time>
      </trkpt>
      <trkpt lat="42.637468" lon="0.440100">
        <ele>2496.000000</ele>
        <time>2021-09-04T13:05:35Z</time>
      </trkpt>
      <trkpt lat="42.637470" lon="0.440093">
        <ele>2496.000000</ele>
        <time>2021-09-04T13:05:36Z</time>
      </trkpt>
      <trkpt lat="42.637477" lon="0.440082">
        <ele>2496.000000</ele>
        <time>2021-09-04T13:05:37Z</time>
      </trkpt>
      <trkpt lat="42.637483" lon="0.440072">
        <ele>2496.000000</ele>
        <time>2021-09-04T13:05:38Z</time>
      </trkpt>
      <trkpt lat="42.637495" lon="0.440065">
        <ele>2496.000000</ele>
        <time>2021-09-04T13:05:39Z</time>
      </trkpt>
      <trkpt lat="42.637503" lon="0.440063">
        <ele>2496.000000</ele>
        <time>2021-09-04T13:05:40Z</time>
      </trkpt>
      <trkpt lat="42.637508" lon="0.440065">
        <ele>2498.000000</ele>
        <time>2021-09-04T13:05:41Z</time>
      </trkpt>
      <trkpt lat="42.637507" lon="0.440068">
        <ele>2498.000000</ele>
        <time>2021-09-04T13:05:42Z</time>
      </trkpt>
      <trkpt lat="42.637503" lon="0.440072">
        <ele>2498.000000</ele>
        <time>2021-09-04T13:05:43Z</time>
      </trkpt>
      <trkpt lat="42.637507" lon="0.440070">
        <ele>2499.000000</ele>
        <time>2021-09-04T13:05:44Z</time>
      </trkpt>
      <trkpt lat="42.637510" lon="0.440073">
        <ele>2499.000000</ele>
        <time>2021-09-04T13:05:45Z</time>
      </trkpt>
      <trkpt lat="42.637513" lon="0.440076">
        <ele>2499.000000</ele>
        <time>2021-09-04T13:05:46Z</time>
      </trkpt>
      <trkpt lat="42.637517" lon="0.440078">
        <ele>2500.000000</ele>
        <time>2021-09-04T13:05:47Z</time>
      </trkpt>
      <trkpt lat="42.637518" lon="0.440078">
        <ele>2500.000000</ele>
        <time>2021-09-04T13:05:48Z</time>
      </trkpt>
      <trkpt lat="42.637522" lon="0.440079">
        <ele>2500.000000</ele>
        <time>2021-09-04T13:05:49Z</time>
      </trkpt>
      <trkpt lat="42.637525" lon="0.440078">
        <ele>2500.000000</ele>
        <time>2021-09-04T13:05:50Z</time>
      </trkpt>
      <trkpt lat="42.637530" lon="0.440077">
        <ele>2501.000000</ele>
        <time>2021-09-04T13:05:51Z</time>
      </trkpt>
      <trkpt lat="42.637535" lon="0.440076">
        <ele>2501.000000</ele>
        <time>2021-09-04T13:05:52Z</time>
      </trkpt>
      <trkpt lat="42.637542" lon="0.440077">
        <ele>2501.000000</ele>
        <time>2021-09-04T13:05:53Z</time>
      </trkpt>
      <trkpt lat="42.637550" lon="0.440077">
        <ele>2501.000000</ele>
        <time>2021-09-04T13:05:54Z</time>
      </trkpt>
      <trkpt lat="42.637557" lon="0.440078">
        <ele>2501.000000</ele>
        <time>2021-09-04T13:05:55Z</time>
      </trkpt>
      <trkpt lat="42.637567" lon="0.440079">
        <ele>2501.000000</ele>
        <time>2021-09-04T13:05:56Z</time>
      </trkpt>
      <trkpt lat="42.637572" lon="0.440080">
        <ele>2501.000000</ele>
        <time>2021-09-04T13:05:57Z</time>
      </trkpt>
      <trkpt lat="42.637575" lon="0.440081">
        <ele>2501.000000</ele>
        <time>2021-09-04T13:05:58Z</time>
      </trkpt>
      <trkpt lat="42.637575" lon="0.440080">
        <ele>2501.000000</ele>
        <time>2021-09-04T13:06:00Z</time>
      </trkpt>
      <trkpt lat="42.637573" lon="0.440079">
        <ele>2501.000000</ele>
        <time>2021-09-04T13:06:01Z</time>
      </trkpt>
      <trkpt lat="42.637577" lon="0.440078">
        <ele>2501.000000</ele>
        <time>2021-09-04T13:06:03Z</time>
      </trkpt>
      <trkpt lat="42.637580" lon="0.440068">
        <ele>2501.000000</ele>
        <time>2021-09-04T13:06:05Z</time>
      </trkpt>
      <trkpt lat="42.637583" lon="0.440068">
        <ele>2501.000000</ele>
        <time>2021-09-04T13:06:06Z</time>
      </trkpt>
      <trkpt lat="42.637587" lon="0.440065">
        <ele>2501.000000</ele>
        <time>2021-09-04T13:06:07Z</time>
      </trkpt>
      <trkpt lat="42.637585" lon="0.440065">
        <ele>2501.000000</ele>
        <time>2021-09-04T13:06:08Z</time>
      </trkpt>
      <trkpt lat="42.637588" lon="0.440063">
        <ele>2501.000000</ele>
        <time>2021-09-04T13:06:09Z</time>
      </trkpt>
      <trkpt lat="42.637592" lon="0.440062">
        <ele>2501.000000</ele>
        <time>2021-09-04T13:06:10Z</time>
      </trkpt>
      <trkpt lat="42.637595" lon="0.440063">
        <ele>2501.000000</ele>
        <time>2021-09-04T13:06:11Z</time>
      </trkpt>
      <trkpt lat="42.637598" lon="0.440060">
        <ele>2501.000000</ele>
        <time>2021-09-04T13:06:12Z</time>
      </trkpt>
      <trkpt lat="42.637597" lon="0.440055">
        <ele>2501.000000</ele>
        <time>2021-09-04T13:06:13Z</time>
      </trkpt>
      <trkpt lat="42.637597" lon="0.440048">
        <ele>2501.000000</ele>
        <time>2021-09-04T13:06:14Z</time>
      </trkpt>
      <trkpt lat="42.637592" lon="0.440042">
        <ele>2501.000000</ele>
        <time>2021-09-04T13:06:15Z</time>
      </trkpt>
      <trkpt lat="42.637588" lon="0.440038">
        <ele>2501.000000</ele>
        <time>2021-09-04T13:06:16Z</time>
      </trkpt>
      <trkpt lat="42.637583" lon="0.440028">
        <ele>2501.000000</ele>
        <time>2021-09-04T13:06:17Z</time>
      </trkpt>
      <trkpt lat="42.637583" lon="0.440018">
        <ele>2501.000000</ele>
        <time>2021-09-04T13:06:18Z</time>
      </trkpt>
      <trkpt lat="42.637582" lon="0.440013">
        <ele>2502.000000</ele>
        <time>2021-09-04T13:06:19Z</time>
      </trkpt>
      <trkpt lat="42.637582" lon="0.440010">
        <ele>2502.000000</ele>
        <time>2021-09-04T13:06:20Z</time>
      </trkpt>
      <trkpt lat="42.637583" lon="0.440007">
        <ele>2502.000000</ele>
        <time>2021-09-04T13:06:21Z</time>
      </trkpt>
      <trkpt lat="42.637581" lon="0.439998">
        <ele>2502.000000</ele>
        <time>2021-09-04T13:06:22Z</time>
      </trkpt>
      <trkpt lat="42.637581" lon="0.439995">
        <ele>2503.000000</ele>
        <time>2021-09-04T13:06:23Z</time>
      </trkpt>
      <trkpt lat="42.637580" lon="0.439988">
        <ele>2503.000000</ele>
        <time>2021-09-04T13:06:24Z</time>
      </trkpt>
      <trkpt lat="42.637580" lon="0.439983">
        <ele>2503.000000</ele>
        <time>2021-09-04T13:06:25Z</time>
      </trkpt>
      <trkpt lat="42.637577" lon="0.439975">
        <ele>2504.000000</ele>
        <time>2021-09-04T13:06:26Z</time>
      </trkpt>
      <trkpt lat="42.637575" lon="0.439970">
        <ele>2504.000000</ele>
        <time>2021-09-04T13:06:27Z</time>
      </trkpt>
      <trkpt lat="42.637575" lon="0.439965">
        <ele>2504.000000</ele>
        <time>2021-09-04T13:06:28Z</time>
      </trkpt>
      <trkpt lat="42.637577" lon="0.439958">
        <ele>2505.000000</ele>
        <time>2021-09-04T13:06:29Z</time>
      </trkpt>
      <trkpt lat="42.637583" lon="0.439952">
        <ele>2505.000000</ele>
        <time>2021-09-04T13:06:30Z</time>
      </trkpt>
      <trkpt lat="42.637587" lon="0.439950">
        <ele>2505.000000</ele>
        <time>2021-09-04T13:06:31Z</time>
      </trkpt>
      <trkpt lat="42.637592" lon="0.439950">
        <ele>2506.000000</ele>
        <time>2021-09-04T13:06:32Z</time>
      </trkpt>
      <trkpt lat="42.637595" lon="0.439947">
        <ele>2506.000000</ele>
        <time>2021-09-04T13:06:33Z</time>
      </trkpt>
      <trkpt lat="42.637603" lon="0.439950">
        <ele>2507.000000</ele>
        <time>2021-09-04T13:06:34Z</time>
      </trkpt>
      <trkpt lat="42.637607" lon="0.439952">
        <ele>2507.000000</ele>
        <time>2021-09-04T13:06:35Z</time>
      </trkpt>
      <trkpt lat="42.637608" lon="0.439953">
        <ele>2507.000000</ele>
        <time>2021-09-04T13:06:36Z</time>
      </trkpt>
      <trkpt lat="42.637617" lon="0.439953">
        <ele>2508.000000</ele>
        <time>2021-09-04T13:06:37Z</time>
      </trkpt>
      <trkpt lat="42.637623" lon="0.439949">
        <ele>2508.000000</ele>
        <time>2021-09-04T13:06:38Z</time>
      </trkpt>
      <trkpt lat="42.637632" lon="0.439948">
        <ele>2508.000000</ele>
        <time>2021-09-04T13:06:39Z</time>
      </trkpt>
      <trkpt lat="42.637640" lon="0.439946">
        <ele>2509.000000</ele>
        <time>2021-09-04T13:06:40Z</time>
      </trkpt>
      <trkpt lat="42.637645" lon="0.439947">
        <ele>2509.000000</ele>
        <time>2021-09-04T13:06:41Z</time>
      </trkpt>
      <trkpt lat="42.637650" lon="0.439948">
        <ele>2509.000000</ele>
        <time>2021-09-04T13:06:42Z</time>
      </trkpt>
      <trkpt lat="42.637653" lon="0.439949">
        <ele>2509.000000</ele>
        <time>2021-09-04T13:06:43Z</time>
      </trkpt>
      <trkpt lat="42.637657" lon="0.439948">
        <ele>2509.000000</ele>
        <time>2021-09-04T13:06:44Z</time>
      </trkpt>
      <trkpt lat="42.637662" lon="0.439946">
        <ele>2509.000000</ele>
        <time>2021-09-04T13:06:45Z</time>
      </trkpt>
      <trkpt lat="42.637665" lon="0.439944">
        <ele>2509.000000</ele>
        <time>2021-09-04T13:06:46Z</time>
      </trkpt>
      <trkpt lat="42.637667" lon="0.439938">
        <ele>2509.000000</ele>
        <time>2021-09-04T13:06:47Z</time>
      </trkpt>
      <trkpt lat="42.637670" lon="0.439933">
        <ele>2509.000000</ele>
        <time>2021-09-04T13:06:48Z</time>
      </trkpt>
      <trkpt lat="42.637670" lon="0.439930">
        <ele>2509.000000</ele>
        <time>2021-09-04T13:06:49Z</time>
      </trkpt>
      <trkpt lat="42.637672" lon="0.439927">
        <ele>2509.000000</ele>
        <time>2021-09-04T13:06:50Z</time>
      </trkpt>
      <trkpt lat="42.637672" lon="0.439922">
        <ele>2509.000000</ele>
        <time>2021-09-04T13:06:51Z</time>
      </trkpt>
      <trkpt lat="42.637668" lon="0.439917">
        <ele>2510.000000</ele>
        <time>2021-09-04T13:06:52Z</time>
      </trkpt>
      <trkpt lat="42.637663" lon="0.439910">
        <ele>2510.000000</ele>
        <time>2021-09-04T13:06:53Z</time>
      </trkpt>
      <trkpt lat="42.637660" lon="0.439908">
        <ele>2510.000000</ele>
        <time>2021-09-04T13:06:54Z</time>
      </trkpt>
      <trkpt lat="42.637655" lon="0.439907">
        <ele>2511.000000</ele>
        <time>2021-09-04T13:06:55Z</time>
      </trkpt>
      <trkpt lat="42.637652" lon="0.439903">
        <ele>2511.000000</ele>
        <time>2021-09-04T13:06:56Z</time>
      </trkpt>
      <trkpt lat="42.637650" lon="0.439900">
        <ele>2511.000000</ele>
        <time>2021-09-04T13:06:57Z</time>
      </trkpt>
      <trkpt lat="42.637645" lon="0.439895">
        <ele>2512.000000</ele>
        <time>2021-09-04T13:06:58Z</time>
      </trkpt>
      <trkpt lat="42.637643" lon="0.439888">
        <ele>2512.000000</ele>
        <time>2021-09-04T13:06:59Z</time>
      </trkpt>
      <trkpt lat="42.637644" lon="0.439882">
        <ele>2512.000000</ele>
        <time>2021-09-04T13:07:00Z</time>
      </trkpt>
      <trkpt lat="42.637645" lon="0.439877">
        <ele>2513.000000</ele>
        <time>2021-09-04T13:07:01Z</time>
      </trkpt>
      <trkpt lat="42.637643" lon="0.439870">
        <ele>2513.000000</ele>
        <time>2021-09-04T13:07:02Z</time>
      </trkpt>
      <trkpt lat="42.637640" lon="0.439860">
        <ele>2513.000000</ele>
        <time>2021-09-04T13:07:03Z</time>
      </trkpt>
      <trkpt lat="42.637638" lon="0.439850">
        <ele>2514.000000</ele>
        <time>2021-09-04T13:07:04Z</time>
      </trkpt>
      <trkpt lat="42.637635" lon="0.439842">
        <ele>2514.000000</ele>
        <time>2021-09-04T13:07:05Z</time>
      </trkpt>
      <trkpt lat="42.637637" lon="0.439830">
        <ele>2514.000000</ele>
        <time>2021-09-04T13:07:06Z</time>
      </trkpt>
      <trkpt lat="42.637641" lon="0.439825">
        <ele>2514.000000</ele>
        <time>2021-09-04T13:07:07Z</time>
      </trkpt>
      <trkpt lat="42.637647" lon="0.439820">
        <ele>2514.000000</ele>
        <time>2021-09-04T13:07:08Z</time>
      </trkpt>
      <trkpt lat="42.637650" lon="0.439815">
        <ele>2515.000000</ele>
        <time>2021-09-04T13:07:09Z</time>
      </trkpt>
      <trkpt lat="42.637653" lon="0.439812">
        <ele>2515.000000</ele>
        <time>2021-09-04T13:07:10Z</time>
      </trkpt>
      <trkpt lat="42.637655" lon="0.439808">
        <ele>2515.000000</ele>
        <time>2021-09-04T13:07:11Z</time>
      </trkpt>
      <trkpt lat="42.637658" lon="0.439808">
        <ele>2515.000000</ele>
        <time>2021-09-04T13:07:12Z</time>
      </trkpt>
      <trkpt lat="42.637665" lon="0.439810">
        <ele>2515.000000</ele>
        <time>2021-09-04T13:07:13Z</time>
      </trkpt>
      <trkpt lat="42.637668" lon="0.439803">
        <ele>2515.000000</ele>
        <time>2021-09-04T13:07:14Z</time>
      </trkpt>
      <trkpt lat="42.637673" lon="0.439799">
        <ele>2515.000000</ele>
        <time>2021-09-04T13:07:15Z</time>
      </trkpt>
      <trkpt lat="42.637677" lon="0.439797">
        <ele>2515.000000</ele>
        <time>2021-09-04T13:07:16Z</time>
      </trkpt>
      <trkpt lat="42.637682" lon="0.439795">
        <ele>2515.000000</ele>
        <time>2021-09-04T13:07:17Z</time>
      </trkpt>
      <trkpt lat="42.637683" lon="0.439794">
        <ele>2515.000000</ele>
        <time>2021-09-04T13:07:18Z</time>
      </trkpt>
      <trkpt lat="42.637683" lon="0.439793">
        <ele>2515.000000</ele>
        <time>2021-09-04T13:07:19Z</time>
      </trkpt>
      <trkpt lat="42.637682" lon="0.439787">
        <ele>2515.000000</ele>
        <time>2021-09-04T13:07:20Z</time>
      </trkpt>
      <trkpt lat="42.637678" lon="0.439783">
        <ele>2516.000000</ele>
        <time>2021-09-04T13:07:21Z</time>
      </trkpt>
      <trkpt lat="42.637673" lon="0.439778">
        <ele>2516.000000</ele>
        <time>2021-09-04T13:07:22Z</time>
      </trkpt>
      <trkpt lat="42.637670" lon="0.439772">
        <ele>2516.000000</ele>
        <time>2021-09-04T13:07:23Z</time>
      </trkpt>
      <trkpt lat="42.637670" lon="0.439762">
        <ele>2517.000000</ele>
        <time>2021-09-04T13:07:24Z</time>
      </trkpt>
      <trkpt lat="42.637671" lon="0.439757">
        <ele>2517.000000</ele>
        <time>2021-09-04T13:07:25Z</time>
      </trkpt>
      <trkpt lat="42.637672" lon="0.439750">
        <ele>2517.000000</ele>
        <time>2021-09-04T13:07:26Z</time>
      </trkpt>
      <trkpt lat="42.637673" lon="0.439747">
        <ele>2518.000000</ele>
        <time>2021-09-04T13:07:27Z</time>
      </trkpt>
      <trkpt lat="42.637677" lon="0.439738">
        <ele>2518.000000</ele>
        <time>2021-09-04T13:07:28Z</time>
      </trkpt>
      <trkpt lat="42.637678" lon="0.439733">
        <ele>2518.000000</ele>
        <time>2021-09-04T13:07:29Z</time>
      </trkpt>
      <trkpt lat="42.637681" lon="0.439732">
        <ele>2518.000000</ele>
        <time>2021-09-04T13:07:31Z</time>
      </trkpt>
      <trkpt lat="42.637682" lon="0.439727">
        <ele>2518.000000</ele>
        <time>2021-09-04T13:07:31Z</time>
      </trkpt>
      <trkpt lat="42.637683" lon="0.439722">
        <ele>2518.000000</ele>
        <time>2021-09-04T13:07:32Z</time>
      </trkpt>
      <trkpt lat="42.637684" lon="0.439717">
        <ele>2518.000000</ele>
        <time>2021-09-04T13:07:33Z</time>
      </trkpt>
      <trkpt lat="42.637684" lon="0.439712">
        <ele>2518.000000</ele>
        <time>2021-09-04T13:07:34Z</time>
      </trkpt>
      <trkpt lat="42.637684" lon="0.439705">
        <ele>2519.000000</ele>
        <time>2021-09-04T13:07:35Z</time>
      </trkpt>
      <trkpt lat="42.637684" lon="0.439697">
        <ele>2519.000000</ele>
        <time>2021-09-04T13:07:36Z</time>
      </trkpt>
      <trkpt lat="42.637685" lon="0.439688">
        <ele>2519.000000</ele>
        <time>2021-09-04T13:07:37Z</time>
      </trkpt>
      <trkpt lat="42.637686" lon="0.439687">
        <ele>2519.000000</ele>
        <time>2021-09-04T13:07:38Z</time>
      </trkpt>
      <trkpt lat="42.637689" lon="0.439677">
        <ele>2519.000000</ele>
        <time>2021-09-04T13:07:40Z</time>
      </trkpt>
      <trkpt lat="42.637692" lon="0.439668">
        <ele>2520.000000</ele>
        <time>2021-09-04T13:07:41Z</time>
      </trkpt>
      <trkpt lat="42.637694" lon="0.439665">
        <ele>2520.000000</ele>
        <time>2021-09-04T13:07:42Z</time>
      </trkpt>
      <trkpt lat="42.637696" lon="0.439658">
        <ele>2520.000000</ele>
        <time>2021-09-04T13:07:43Z</time>
      </trkpt>
      <trkpt lat="42.637697" lon="0.439648">
        <ele>2520.000000</ele>
        <time>2021-09-04T13:07:44Z</time>
      </trkpt>
      <trkpt lat="42.637698" lon="0.439640">
        <ele>2520.000000</ele>
        <time>2021-09-04T13:07:45Z</time>
      </trkpt>
      <trkpt lat="42.637699" lon="0.439635">
        <ele>2520.000000</ele>
        <time>2021-09-04T13:07:46Z</time>
      </trkpt>
      <trkpt lat="42.637700" lon="0.439637">
        <ele>2521.000000</ele>
        <time>2021-09-04T13:07:47Z</time>
      </trkpt>
      <trkpt lat="42.637713" lon="0.439637">
        <ele>2521.000000</ele>
        <time>2021-09-04T13:07:48Z</time>
      </trkpt>
      <trkpt lat="42.637720" lon="0.439638">
        <ele>2521.000000</ele>
        <time>2021-09-04T13:07:49Z</time>
      </trkpt>
      <trkpt lat="42.637723" lon="0.439642">
        <ele>2521.000000</ele>
        <time>2021-09-04T13:07:50Z</time>
      </trkpt>
      <trkpt lat="42.637727" lon="0.439643">
        <ele>2521.000000</ele>
        <time>2021-09-04T13:07:51Z</time>
      </trkpt>
      <trkpt lat="42.637730" lon="0.439643">
        <ele>2521.000000</ele>
        <time>2021-09-04T13:07:52Z</time>
      </trkpt>
      <trkpt lat="42.637735" lon="0.439645">
        <ele>2522.000000</ele>
        <time>2021-09-04T13:07:53Z</time>
      </trkpt>
      <trkpt lat="42.637740" lon="0.439645">
        <ele>2522.000000</ele>
        <time>2021-09-04T13:07:54Z</time>
      </trkpt>
      <trkpt lat="42.637748" lon="0.439648">
        <ele>2522.000000</ele>
        <time>2021-09-04T13:07:55Z</time>
      </trkpt>
      <trkpt lat="42.637752" lon="0.439647">
        <ele>2522.000000</ele>
        <time>2021-09-04T13:07:56Z</time>
      </trkpt>
      <trkpt lat="42.637757" lon="0.439645">
        <ele>2522.000000</ele>
        <time>2021-09-04T13:07:58Z</time>
      </trkpt>
      <trkpt lat="42.637760" lon="0.439646">
        <ele>2523.000000</ele>
        <time>2021-09-04T13:07:59Z</time>
      </trkpt>
      <trkpt lat="42.637763" lon="0.439646">
        <ele>2523.000000</ele>
        <time>2021-09-04T13:08:00Z</time>
      </trkpt>
      <trkpt lat="42.637763" lon="0.439647">
        <ele>2523.000000</ele>
        <time>2021-09-04T13:08:01Z</time>
      </trkpt>
      <trkpt lat="42.637765" lon="0.439648">
        <ele>2523.000000</ele>
        <time>2021-09-04T13:08:03Z</time>
      </trkpt>
      <trkpt lat="42.637768" lon="0.439649">
        <ele>2523.000000</ele>
        <time>2021-09-04T13:08:04Z</time>
      </trkpt>
      <trkpt lat="42.637770" lon="0.439650">
        <ele>2523.000000</ele>
        <time>2021-09-04T13:08:05Z</time>
      </trkpt>
      <trkpt lat="42.637772" lon="0.439650">
        <ele>2523.000000</ele>
        <time>2021-09-04T13:08:07Z</time>
      </trkpt>
      <trkpt lat="42.637775" lon="0.439650">
        <ele>2523.000000</ele>
        <time>2021-09-04T13:08:08Z</time>
      </trkpt>
      <trkpt lat="42.637780" lon="0.439651">
        <ele>2523.000000</ele>
        <time>2021-09-04T13:08:09Z</time>
      </trkpt>
      <trkpt lat="42.637788" lon="0.439651">
        <ele>2523.000000</ele>
        <time>2021-09-04T13:08:10Z</time>
      </trkpt>
      <trkpt lat="42.637793" lon="0.439651">
        <ele>2523.000000</ele>
        <time>2021-09-04T13:08:11Z</time>
      </trkpt>
      <trkpt lat="42.637798" lon="0.439651">
        <ele>2523.000000</ele>
        <time>2021-09-04T13:08:12Z</time>
      </trkpt>
      <trkpt lat="42.637805" lon="0.439652">
        <ele>2523.000000</ele>
        <time>2021-09-04T13:08:13Z</time>
      </trkpt>
      <trkpt lat="42.637810" lon="0.439653">
        <ele>2523.000000</ele>
        <time>2021-09-04T13:08:14Z</time>
      </trkpt>
      <trkpt lat="42.637813" lon="0.439653">
        <ele>2523.000000</ele>
        <time>2021-09-04T13:08:15Z</time>
      </trkpt>
      <trkpt lat="42.637817" lon="0.439654">
        <ele>2523.000000</ele>
        <time>2021-09-04T13:08:16Z</time>
      </trkpt>
      <trkpt lat="42.637825" lon="0.439654">
        <ele>2523.000000</ele>
        <time>2021-09-04T13:08:17Z</time>
      </trkpt>
      <trkpt lat="42.637828" lon="0.439654">
        <ele>2524.000000</ele>
        <time>2021-09-04T13:08:18Z</time>
      </trkpt>
      <trkpt lat="42.637825" lon="0.439645">
        <ele>2524.000000</ele>
        <time>2021-09-04T13:08:19Z</time>
      </trkpt>
      <trkpt lat="42.637822" lon="0.439642">
        <ele>2524.000000</ele>
        <time>2021-09-04T13:08:20Z</time>
      </trkpt>
      <trkpt lat="42.637820" lon="0.439635">
        <ele>2524.000000</ele>
        <time>2021-09-04T13:08:21Z</time>
      </trkpt>
      <trkpt lat="42.637818" lon="0.439628">
        <ele>2524.000000</ele>
        <time>2021-09-04T13:08:22Z</time>
      </trkpt>
      <trkpt lat="42.637815" lon="0.439622">
        <ele>2524.000000</ele>
        <time>2021-09-04T13:08:23Z</time>
      </trkpt>
      <trkpt lat="42.637810" lon="0.439615">
        <ele>2524.000000</ele>
        <time>2021-09-04T13:08:25Z</time>
      </trkpt>
      <trkpt lat="42.637808" lon="0.439607">
        <ele>2524.000000</ele>
        <time>2021-09-04T13:08:25Z</time>
      </trkpt>
      <trkpt lat="42.637809" lon="0.439600">
        <ele>2525.000000</ele>
        <time>2021-09-04T13:08:26Z</time>
      </trkpt>
      <trkpt lat="42.637811" lon="0.439600">
        <ele>2525.000000</ele>
        <time>2021-09-04T13:08:27Z</time>
      </trkpt>
      <trkpt lat="42.637820" lon="0.439600">
        <ele>2525.000000</ele>
        <time>2021-09-04T13:08:28Z</time>
      </trkpt>
      <trkpt lat="42.637827" lon="0.439602">
        <ele>2525.000000</ele>
        <time>2021-09-04T13:08:29Z</time>
      </trkpt>
      <trkpt lat="42.637832" lon="0.439600">
        <ele>2526.000000</ele>
        <time>2021-09-04T13:08:30Z</time>
      </trkpt>
      <trkpt lat="42.637842" lon="0.439598">
        <ele>2526.000000</ele>
        <time>2021-09-04T13:08:31Z</time>
      </trkpt>
      <trkpt lat="42.637850" lon="0.439595">
        <ele>2527.000000</ele>
        <time>2021-09-04T13:08:32Z</time>
      </trkpt>
      <trkpt lat="42.637857" lon="0.439595">
        <ele>2527.000000</ele>
        <time>2021-09-04T13:08:33Z</time>
      </trkpt>
      <trkpt lat="42.637860" lon="0.439593">
        <ele>2527.000000</ele>
        <time>2021-09-04T13:08:34Z</time>
      </trkpt>
      <trkpt lat="42.637865" lon="0.439593">
        <ele>2527.000000</ele>
        <time>2021-09-04T13:08:35Z</time>
      </trkpt>
      <trkpt lat="42.637872" lon="0.439592">
        <ele>2527.000000</ele>
        <time>2021-09-04T13:08:36Z</time>
      </trkpt>
      <trkpt lat="42.637880" lon="0.439591">
        <ele>2528.000000</ele>
        <time>2021-09-04T13:08:37Z</time>
      </trkpt>
      <trkpt lat="42.637883" lon="0.439591">
        <ele>2528.000000</ele>
        <time>2021-09-04T13:08:38Z</time>
      </trkpt>
      <trkpt lat="42.637888" lon="0.439591">
        <ele>2529.000000</ele>
        <time>2021-09-04T13:08:39Z</time>
      </trkpt>
      <trkpt lat="42.637892" lon="0.439589">
        <ele>2529.000000</ele>
        <time>2021-09-04T13:08:40Z</time>
      </trkpt>
      <trkpt lat="42.637895" lon="0.439587">
        <ele>2530.000000</ele>
        <time>2021-09-04T13:08:41Z</time>
      </trkpt>
      <trkpt lat="42.637895" lon="0.439578">
        <ele>2531.000000</ele>
        <time>2021-09-04T13:08:44Z</time>
      </trkpt>
      <trkpt lat="42.637893" lon="0.439577">
        <ele>2532.000000</ele>
        <time>2021-09-04T13:08:45Z</time>
      </trkpt>
      <trkpt lat="42.637893" lon="0.439572">
        <ele>2532.000000</ele>
        <time>2021-09-04T13:08:46Z</time>
      </trkpt>
      <trkpt lat="42.637890" lon="0.439565">
        <ele>2533.000000</ele>
        <time>2021-09-04T13:08:47Z</time>
      </trkpt>
      <trkpt lat="42.637890" lon="0.439557">
        <ele>2533.000000</ele>
        <time>2021-09-04T13:08:48Z</time>
      </trkpt>
      <trkpt lat="42.637892" lon="0.439550">
        <ele>2533.000000</ele>
        <time>2021-09-04T13:08:49Z</time>
      </trkpt>
      <trkpt lat="42.637898" lon="0.439545">
        <ele>2534.000000</ele>
        <time>2021-09-04T13:08:50Z</time>
      </trkpt>
      <trkpt lat="42.637908" lon="0.439543">
        <ele>2534.000000</ele>
        <time>2021-09-04T13:08:51Z</time>
      </trkpt>
      <trkpt lat="42.637912" lon="0.439542">
        <ele>2534.000000</ele>
        <time>2021-09-04T13:08:52Z</time>
      </trkpt>
      <trkpt lat="42.637915" lon="0.439540">
        <ele>2535.000000</ele>
        <time>2021-09-04T13:08:53Z</time>
      </trkpt>
      <trkpt lat="42.637925" lon="0.439537">
        <ele>2535.000000</ele>
        <time>2021-09-04T13:08:54Z</time>
      </trkpt>
      <trkpt lat="42.637930" lon="0.439533">
        <ele>2535.000000</ele>
        <time>2021-09-04T13:08:55Z</time>
      </trkpt>
      <trkpt lat="42.637933" lon="0.439533">
        <ele>2535.000000</ele>
        <time>2021-09-04T13:08:56Z</time>
      </trkpt>
      <trkpt lat="42.637938" lon="0.439530">
        <ele>2535.000000</ele>
        <time>2021-09-04T13:08:57Z</time>
      </trkpt>
      <trkpt lat="42.637940" lon="0.439526">
        <ele>2535.000000</ele>
        <time>2021-09-04T13:08:58Z</time>
      </trkpt>
      <trkpt lat="42.637940" lon="0.439522">
        <ele>2536.000000</ele>
        <time>2021-09-04T13:08:59Z</time>
      </trkpt>
      <trkpt lat="42.637938" lon="0.439512">
        <ele>2536.000000</ele>
        <time>2021-09-04T13:09:00Z</time>
      </trkpt>
      <trkpt lat="42.637938" lon="0.439503">
        <ele>2536.000000</ele>
        <time>2021-09-04T13:09:01Z</time>
      </trkpt>
      <trkpt lat="42.637938" lon="0.439497">
        <ele>2536.000000</ele>
        <time>2021-09-04T13:09:02Z</time>
      </trkpt>
      <trkpt lat="42.637940" lon="0.439490">
        <ele>2536.000000</ele>
        <time>2021-09-04T13:09:03Z</time>
      </trkpt>
      <trkpt lat="42.637940" lon="0.439485">
        <ele>2536.000000</ele>
        <time>2021-09-04T13:09:04Z</time>
      </trkpt>
      <trkpt lat="42.637940" lon="0.439482">
        <ele>2536.000000</ele>
        <time>2021-09-04T13:09:05Z</time>
      </trkpt>
      <trkpt lat="42.637940" lon="0.439478">
        <ele>2536.000000</ele>
        <time>2021-09-04T13:09:06Z</time>
      </trkpt>
      <trkpt lat="42.637941" lon="0.439473">
        <ele>2536.000000</ele>
        <time>2021-09-04T13:09:07Z</time>
      </trkpt>
      <trkpt lat="42.637942" lon="0.439468">
        <ele>2536.000000</ele>
        <time>2021-09-04T13:09:08Z</time>
      </trkpt>
      <trkpt lat="42.637941" lon="0.439463">
        <ele>2536.000000</ele>
        <time>2021-09-04T13:09:09Z</time>
      </trkpt>
      <trkpt lat="42.637940" lon="0.439460">
        <ele>2536.000000</ele>
        <time>2021-09-04T13:09:10Z</time>
      </trkpt>
      <trkpt lat="42.637940" lon="0.439467">
        <ele>2536.000000</ele>
        <time>2021-09-04T13:09:11Z</time>
      </trkpt>
      <trkpt lat="42.637940" lon="0.439465">
        <ele>2536.000000</ele>
        <time>2021-09-04T13:09:12Z</time>
      </trkpt>
      <trkpt lat="42.637939" lon="0.439463">
        <ele>2536.000000</ele>
        <time>2021-09-04T13:09:13Z</time>
      </trkpt>
      <trkpt lat="42.637940" lon="0.439465">
        <ele>2536.000000</ele>
        <time>2021-09-04T13:09:14Z</time>
      </trkpt>
      <trkpt lat="42.637950" lon="0.439472">
        <ele>2536.000000</ele>
        <time>2021-09-04T13:09:15Z</time>
      </trkpt>
      <trkpt lat="42.637957" lon="0.439473">
        <ele>2536.000000</ele>
        <time>2021-09-04T13:09:16Z</time>
      </trkpt>
      <trkpt lat="42.637960" lon="0.439473">
        <ele>2536.000000</ele>
        <time>2021-09-04T13:09:17Z</time>
      </trkpt>
      <trkpt lat="42.637962" lon="0.439466">
        <ele>2536.000000</ele>
        <time>2021-09-04T13:09:18Z</time>
      </trkpt>
      <trkpt lat="42.637963" lon="0.439460">
        <ele>2536.000000</ele>
        <time>2021-09-04T13:09:19Z</time>
      </trkpt>
      <trkpt lat="42.637967" lon="0.439456">
        <ele>2536.000000</ele>
        <time>2021-09-04T13:09:20Z</time>
      </trkpt>
      <trkpt lat="42.637968" lon="0.439455">
        <ele>2536.000000</ele>
        <time>2021-09-04T13:09:21Z</time>
      </trkpt>
      <trkpt lat="42.637973" lon="0.439460">
        <ele>2536.000000</ele>
        <time>2021-09-04T13:09:24Z</time>
      </trkpt>
      <trkpt lat="42.637975" lon="0.439473">
        <ele>2536.000000</ele>
        <time>2021-09-04T13:09:25Z</time>
      </trkpt>
      <trkpt lat="42.637968" lon="0.439459">
        <ele>2536.000000</ele>
        <time>2021-09-04T13:09:26Z</time>
      </trkpt>
      <trkpt lat="42.638030" lon="0.439410">
        <ele>2535.000000</ele>
        <time>2021-09-04T13:10:12Z</time>
      </trkpt>
      <trkpt lat="42.638030" lon="0.439403">
        <ele>2535.000000</ele>
        <time>2021-09-04T13:10:13Z</time>
      </trkpt>
      <trkpt lat="42.638031" lon="0.439392">
        <ele>2534.000000</ele>
        <time>2021-09-04T13:10:14Z</time>
      </trkpt>
      <trkpt lat="42.638035" lon="0.439382">
        <ele>2534.000000</ele>
        <time>2021-09-04T13:10:15Z</time>
      </trkpt>
      <trkpt lat="42.638039" lon="0.439375">
        <ele>2534.000000</ele>
        <time>2021-09-04T13:10:16Z</time>
      </trkpt>
      <trkpt lat="42.638042" lon="0.439368">
        <ele>2534.000000</ele>
        <time>2021-09-04T13:10:17Z</time>
      </trkpt>
      <trkpt lat="42.638047" lon="0.439360">
        <ele>2534.000000</ele>
        <time>2021-09-04T13:10:18Z</time>
      </trkpt>
      <trkpt lat="42.638049" lon="0.439353">
        <ele>2534.000000</ele>
        <time>2021-09-04T13:10:19Z</time>
      </trkpt>
      <trkpt lat="42.638051" lon="0.439348">
        <ele>2534.000000</ele>
        <time>2021-09-04T13:10:20Z</time>
      </trkpt>
      <trkpt lat="42.638054" lon="0.439343">
        <ele>2534.000000</ele>
        <time>2021-09-04T13:10:21Z</time>
      </trkpt>
      <trkpt lat="42.638057" lon="0.439335">
        <ele>2534.000000</ele>
        <time>2021-09-04T13:10:22Z</time>
      </trkpt>
      <trkpt lat="42.638058" lon="0.439330">
        <ele>2534.000000</ele>
        <time>2021-09-04T13:10:23Z</time>
      </trkpt>
      <trkpt lat="42.638060" lon="0.439318">
        <ele>2534.000000</ele>
        <time>2021-09-04T13:10:24Z</time>
      </trkpt>
      <trkpt lat="42.638062" lon="0.439312">
        <ele>2534.000000</ele>
        <time>2021-09-04T13:10:25Z</time>
      </trkpt>
      <trkpt lat="42.638064" lon="0.439307">
        <ele>2534.000000</ele>
        <time>2021-09-04T13:10:26Z</time>
      </trkpt>
      <trkpt lat="42.638066" lon="0.439305">
        <ele>2534.000000</ele>
        <time>2021-09-04T13:10:28Z</time>
      </trkpt>
      <trkpt lat="42.638075" lon="0.439305">
        <ele>2534.000000</ele>
        <time>2021-09-04T13:10:29Z</time>
      </trkpt>
      <trkpt lat="42.638082" lon="0.439303">
        <ele>2534.000000</ele>
        <time>2021-09-04T13:10:30Z</time>
      </trkpt>
      <trkpt lat="42.638088" lon="0.439302">
        <ele>2535.000000</ele>
        <time>2021-09-04T13:10:31Z</time>
      </trkpt>
      <trkpt lat="42.638095" lon="0.439300">
        <ele>2535.000000</ele>
        <time>2021-09-04T13:10:32Z</time>
      </trkpt>
      <trkpt lat="42.638102" lon="0.439297">
        <ele>2535.000000</ele>
        <time>2021-09-04T13:10:33Z</time>
      </trkpt>
      <trkpt lat="42.638105" lon="0.439292">
        <ele>2535.000000</ele>
        <time>2021-09-04T13:10:34Z</time>
      </trkpt>
      <trkpt lat="42.638107" lon="0.439288">
        <ele>2535.000000</ele>
        <time>2021-09-04T13:10:35Z</time>
      </trkpt>
      <trkpt lat="42.638107" lon="0.439287">
        <ele>2535.000000</ele>
        <time>2021-09-04T13:10:36Z</time>
      </trkpt>
      <trkpt lat="42.638113" lon="0.439279">
        <ele>2535.000000</ele>
        <time>2021-09-04T13:10:37Z</time>
      </trkpt>
      <trkpt lat="42.638117" lon="0.439277">
        <ele>2536.000000</ele>
        <time>2021-09-04T13:10:38Z</time>
      </trkpt>
      <trkpt lat="42.638118" lon="0.439279">
        <ele>2536.000000</ele>
        <time>2021-09-04T13:10:39Z</time>
      </trkpt>
      <trkpt lat="42.638122" lon="0.439281">
        <ele>2536.000000</ele>
        <time>2021-09-04T13:10:40Z</time>
      </trkpt>
      <trkpt lat="42.638118" lon="0.439285">
        <ele>2536.000000</ele>
        <time>2021-09-04T13:10:41Z</time>
      </trkpt>
      <trkpt lat="42.638118" lon="0.439288">
        <ele>2536.000000</ele>
        <time>2021-09-04T13:10:42Z</time>
      </trkpt>
      <trkpt lat="42.638118" lon="0.439290">
        <ele>2536.000000</ele>
        <time>2021-09-04T13:10:44Z</time>
      </trkpt>
      <trkpt lat="42.638118" lon="0.439293">
        <ele>2536.000000</ele>
        <time>2021-09-04T13:10:45Z</time>
      </trkpt>
      <trkpt lat="42.638118" lon="0.439293">
        <ele>2536.000000</ele>
        <time>2021-09-04T13:10:46Z</time>
      </trkpt>
      <trkpt lat="42.638113" lon="0.439227">
        <ele>2541.000000</ele>
        <time>2021-09-04T13:11:14Z</time>
      </trkpt>
      <trkpt lat="42.638113" lon="0.439212">
        <ele>2542.000000</ele>
        <time>2021-09-04T13:11:15Z</time>
      </trkpt>
      <trkpt lat="42.638112" lon="0.439198">
        <ele>2542.000000</ele>
        <time>2021-09-04T13:11:16Z</time>
      </trkpt>
      <trkpt lat="42.638110" lon="0.439187">
        <ele>2543.000000</ele>
        <time>2021-09-04T13:11:17Z</time>
      </trkpt>
      <trkpt lat="42.638110" lon="0.439175">
        <ele>2543.000000</ele>
        <time>2021-09-04T13:11:18Z</time>
      </trkpt>
      <trkpt lat="42.638111" lon="0.439167">
        <ele>2544.000000</ele>
        <time>2021-09-04T13:11:19Z</time>
      </trkpt>
      <trkpt lat="42.638117" lon="0.439157">
        <ele>2544.000000</ele>
        <time>2021-09-04T13:11:20Z</time>
      </trkpt>
      <trkpt lat="42.638123" lon="0.439150">
        <ele>2544.000000</ele>
        <time>2021-09-04T13:11:21Z</time>
      </trkpt>
      <trkpt lat="42.638128" lon="0.439143">
        <ele>2545.000000</ele>
        <time>2021-09-04T13:11:22Z</time>
      </trkpt>
      <trkpt lat="42.638137" lon="0.439137">
        <ele>2545.000000</ele>
        <time>2021-09-04T13:11:23Z</time>
      </trkpt>
      <trkpt lat="42.638147" lon="0.439135">
        <ele>2545.000000</ele>
        <time>2021-09-04T13:11:24Z</time>
      </trkpt>
      <trkpt lat="42.638153" lon="0.439133">
        <ele>2546.000000</ele>
        <time>2021-09-04T13:11:25Z</time>
      </trkpt>
      <trkpt lat="42.638157" lon="0.439135">
        <ele>2546.000000</ele>
        <time>2021-09-04T13:11:26Z</time>
      </trkpt>
      <trkpt lat="42.638162" lon="0.439137">
        <ele>2546.000000</ele>
        <time>2021-09-04T13:11:27Z</time>
      </trkpt>
      <trkpt lat="42.638170" lon="0.439138">
        <ele>2547.000000</ele>
        <time>2021-09-04T13:11:28Z</time>
      </trkpt>
      <trkpt lat="42.638178" lon="0.439136">
        <ele>2547.000000</ele>
        <time>2021-09-04T13:11:29Z</time>
      </trkpt>
      <trkpt lat="42.638182" lon="0.439137">
        <ele>2547.000000</ele>
        <time>2021-09-04T13:11:30Z</time>
      </trkpt>
      <trkpt lat="42.638187" lon="0.439139">
        <ele>2547.000000</ele>
        <time>2021-09-04T13:11:31Z</time>
      </trkpt>
      <trkpt lat="42.638192" lon="0.439139">
        <ele>2547.000000</ele>
        <time>2021-09-04T13:11:33Z</time>
      </trkpt>
      <trkpt lat="42.638190" lon="0.439139">
        <ele>2547.000000</ele>
        <time>2021-09-04T13:11:34Z</time>
      </trkpt>
      <trkpt lat="42.638192" lon="0.439139">
        <ele>2547.000000</ele>
        <time>2021-09-04T13:11:35Z</time>
      </trkpt>
      <trkpt lat="42.638187" lon="0.439138">
        <ele>2547.000000</ele>
        <time>2021-09-04T13:11:36Z</time>
      </trkpt>
      <trkpt lat="42.638185" lon="0.439136">
        <ele>2547.000000</ele>
        <time>2021-09-04T13:11:37Z</time>
      </trkpt>
      <trkpt lat="42.638188" lon="0.439134">
        <ele>2548.000000</ele>
        <time>2021-09-04T13:11:38Z</time>
      </trkpt>
      <trkpt lat="42.638193" lon="0.439110">
        <ele>2548.000000</ele>
        <time>2021-09-04T13:11:39Z</time>
      </trkpt>
      <trkpt lat="42.638198" lon="0.439107">
        <ele>2548.000000</ele>
        <time>2021-09-04T13:11:40Z</time>
      </trkpt>
      <trkpt lat="42.638207" lon="0.439105">
        <ele>2549.000000</ele>
        <time>2021-09-04T13:11:41Z</time>
      </trkpt>
      <trkpt lat="42.638213" lon="0.439105">
        <ele>2549.000000</ele>
        <time>2021-09-04T13:11:42Z</time>
      </trkpt>
      <trkpt lat="42.638217" lon="0.439107">
        <ele>2549.000000</ele>
        <time>2021-09-04T13:11:43Z</time>
      </trkpt>
      <trkpt lat="42.638218" lon="0.439103">
        <ele>2549.000000</ele>
        <time>2021-09-04T13:11:44Z</time>
      </trkpt>
      <trkpt lat="42.638222" lon="0.439101">
        <ele>2549.000000</ele>
        <time>2021-09-04T13:11:45Z</time>
      </trkpt>
      <trkpt lat="42.638227" lon="0.439101">
        <ele>2549.000000</ele>
        <time>2021-09-04T13:11:46Z</time>
      </trkpt>
      <trkpt lat="42.638232" lon="0.439100">
        <ele>2549.000000</ele>
        <time>2021-09-04T13:11:46Z</time>
      </trkpt>
      <trkpt lat="42.638237" lon="0.439099">
        <ele>2549.000000</ele>
        <time>2021-09-04T13:11:47Z</time>
      </trkpt>
      <trkpt lat="42.638238" lon="0.439098">
        <ele>2549.000000</ele>
        <time>2021-09-04T13:11:48Z</time>
      </trkpt>
      <trkpt lat="42.638245" lon="0.439094">
        <ele>2549.000000</ele>
        <time>2021-09-04T13:11:49Z</time>
      </trkpt>
      <trkpt lat="42.638250" lon="0.439090">
        <ele>2549.000000</ele>
        <time>2021-09-04T13:11:50Z</time>
      </trkpt>
      <trkpt lat="42.638255" lon="0.439086">
        <ele>2549.000000</ele>
        <time>2021-09-04T13:11:51Z</time>
      </trkpt>
      <trkpt lat="42.638258" lon="0.439084">
        <ele>2549.000000</ele>
        <time>2021-09-04T13:11:52Z</time>
      </trkpt>
      <trkpt lat="42.638263" lon="0.439083">
        <ele>2550.000000</ele>
        <time>2021-09-04T13:11:53Z</time>
      </trkpt>
      <trkpt lat="42.638268" lon="0.439090">
        <ele>2550.000000</ele>
        <time>2021-09-04T13:11:54Z</time>
      </trkpt>
      <trkpt lat="42.638275" lon="0.439095">
        <ele>2550.000000</ele>
        <time>2021-09-04T13:11:55Z</time>
      </trkpt>
      <trkpt lat="42.638280" lon="0.439097">
        <ele>2550.000000</ele>
        <time>2021-09-04T13:11:56Z</time>
      </trkpt>
      <trkpt lat="42.638287" lon="0.439101">
        <ele>2550.000000</ele>
        <time>2021-09-04T13:11:57Z</time>
      </trkpt>
      <trkpt lat="42.638292" lon="0.439104">
        <ele>2551.000000</ele>
        <time>2021-09-04T13:11:58Z</time>
      </trkpt>
      <trkpt lat="42.638297" lon="0.439108">
        <ele>2551.000000</ele>
        <time>2021-09-04T13:11:59Z</time>
      </trkpt>
      <trkpt lat="42.638302" lon="0.439112">
        <ele>2551.000000</ele>
        <time>2021-09-04T13:12:00Z</time>
      </trkpt>
      <trkpt lat="42.638305" lon="0.439112">
        <ele>2551.000000</ele>
        <time>2021-09-04T13:12:01Z</time>
      </trkpt>
      <trkpt lat="42.638307" lon="0.439111">
        <ele>2551.000000</ele>
        <time>2021-09-04T13:12:02Z</time>
      </trkpt>
      <trkpt lat="42.638312" lon="0.439110">
        <ele>2552.000000</ele>
        <time>2021-09-04T13:12:03Z</time>
      </trkpt>
      <trkpt lat="42.638317" lon="0.439108">
        <ele>2552.000000</ele>
        <time>2021-09-04T13:12:04Z</time>
      </trkpt>
      <trkpt lat="42.638323" lon="0.439106">
        <ele>2552.000000</ele>
        <time>2021-09-04T13:12:05Z</time>
      </trkpt>
      <trkpt lat="42.638327" lon="0.439105">
        <ele>2552.000000</ele>
        <time>2021-09-04T13:12:06Z</time>
      </trkpt>
      <trkpt lat="42.638332" lon="0.439105">
        <ele>2552.000000</ele>
        <time>2021-09-04T13:12:07Z</time>
      </trkpt>
      <trkpt lat="42.638337" lon="0.439102">
        <ele>2552.000000</ele>
        <time>2021-09-04T13:12:08Z</time>
      </trkpt>
      <trkpt lat="42.638338" lon="0.439105">
        <ele>2552.000000</ele>
        <time>2021-09-04T13:12:09Z</time>
      </trkpt>
      <trkpt lat="42.638345" lon="0.439105">
        <ele>2552.000000</ele>
        <time>2021-09-04T13:12:10Z</time>
      </trkpt>
      <trkpt lat="42.638350" lon="0.439101">
        <ele>2552.000000</ele>
        <time>2021-09-04T13:12:11Z</time>
      </trkpt>
      <trkpt lat="42.638352" lon="0.439095">
        <ele>2552.000000</ele>
        <time>2021-09-04T13:12:12Z</time>
      </trkpt>
      <trkpt lat="42.638357" lon="0.439090">
        <ele>2552.000000</ele>
        <time>2021-09-04T13:12:13Z</time>
      </trkpt>
      <trkpt lat="42.638358" lon="0.439088">
        <ele>2552.000000</ele>
        <time>2021-09-04T13:12:14Z</time>
      </trkpt>
      <trkpt lat="42.638362" lon="0.439088">
        <ele>2552.000000</ele>
        <time>2021-09-04T13:12:15Z</time>
      </trkpt>
      <trkpt lat="42.638368" lon="0.439087">
        <ele>2552.000000</ele>
        <time>2021-09-04T13:12:16Z</time>
      </trkpt>
      <trkpt lat="42.638375" lon="0.439086">
        <ele>2552.000000</ele>
        <time>2021-09-04T13:12:17Z</time>
      </trkpt>
      <trkpt lat="42.638383" lon="0.439085">
        <ele>2552.000000</ele>
        <time>2021-09-04T13:12:18Z</time>
      </trkpt>
      <trkpt lat="42.638390" lon="0.439083">
        <ele>2553.000000</ele>
        <time>2021-09-04T13:12:19Z</time>
      </trkpt>
      <trkpt lat="42.638395" lon="0.439082">
        <ele>2553.000000</ele>
        <time>2021-09-04T13:12:20Z</time>
      </trkpt>
      <trkpt lat="42.638397" lon="0.439081">
        <ele>2553.000000</ele>
        <time>2021-09-04T13:12:21Z</time>
      </trkpt>
      <trkpt lat="42.638402" lon="0.439079">
        <ele>2553.000000</ele>
        <time>2021-09-04T13:12:22Z</time>
      </trkpt>
      <trkpt lat="42.638407" lon="0.439076">
        <ele>2553.000000</ele>
        <time>2021-09-04T13:12:23Z</time>
      </trkpt>
      <trkpt lat="42.638408" lon="0.439075">
        <ele>2553.000000</ele>
        <time>2021-09-04T13:12:24Z</time>
      </trkpt>
      <trkpt lat="42.638405" lon="0.439074">
        <ele>2553.000000</ele>
        <time>2021-09-04T13:12:26Z</time>
      </trkpt>
      <trkpt lat="42.638402" lon="0.439057">
        <ele>2553.000000</ele>
        <time>2021-09-04T13:12:27Z</time>
      </trkpt>
      <trkpt lat="42.638398" lon="0.439052">
        <ele>2553.000000</ele>
        <time>2021-09-04T13:12:28Z</time>
      </trkpt>
      <trkpt lat="42.638397" lon="0.439043">
        <ele>2553.000000</ele>
        <time>2021-09-04T13:12:29Z</time>
      </trkpt>
      <trkpt lat="42.638393" lon="0.439042">
        <ele>2553.000000</ele>
        <time>2021-09-04T13:12:30Z</time>
      </trkpt>
      <trkpt lat="42.638392" lon="0.439037">
        <ele>2553.000000</ele>
        <time>2021-09-04T13:12:31Z</time>
      </trkpt>
      <trkpt lat="42.638395" lon="0.439028">
        <ele>2554.000000</ele>
        <time>2021-09-04T13:12:32Z</time>
      </trkpt>
      <trkpt lat="42.638395" lon="0.439020">
        <ele>2554.000000</ele>
        <time>2021-09-04T13:12:33Z</time>
      </trkpt>
      <trkpt lat="42.638396" lon="0.439015">
        <ele>2554.000000</ele>
        <time>2021-09-04T13:12:34Z</time>
      </trkpt>
      <trkpt lat="42.638396" lon="0.439010">
        <ele>2554.000000</ele>
        <time>2021-09-04T13:12:35Z</time>
      </trkpt>
      <trkpt lat="42.638398" lon="0.439007">
        <ele>2554.000000</ele>
        <time>2021-09-04T13:12:36Z</time>
      </trkpt>
      <trkpt lat="42.638400" lon="0.439002">
        <ele>2554.000000</ele>
        <time>2021-09-04T13:12:37Z</time>
      </trkpt>
      <trkpt lat="42.638400" lon="0.438995">
        <ele>2554.000000</ele>
        <time>2021-09-04T13:12:38Z</time>
      </trkpt>
      <trkpt lat="42.638400" lon="0.438988">
        <ele>2554.000000</ele>
        <time>2021-09-04T13:12:39Z</time>
      </trkpt>
      <trkpt lat="42.638399" lon="0.438980">
        <ele>2555.000000</ele>
        <time>2021-09-04T13:12:40Z</time>
      </trkpt>
      <trkpt lat="42.638397" lon="0.438972">
        <ele>2555.000000</ele>
        <time>2021-09-04T13:12:41Z</time>
      </trkpt>
      <trkpt lat="42.638395" lon="0.438965">
        <ele>2555.000000</ele>
        <time>2021-09-04T13:12:42Z</time>
      </trkpt>
      <trkpt lat="42.638393" lon="0.438957">
        <ele>2555.000000</ele>
        <time>2021-09-04T13:12:43Z</time>
      </trkpt>
      <trkpt lat="42.638392" lon="0.438950">
        <ele>2556.000000</ele>
        <time>2021-09-04T13:12:44Z</time>
      </trkpt>
      <trkpt lat="42.638393" lon="0.438947">
        <ele>2556.000000</ele>
        <time>2021-09-04T13:12:45Z</time>
      </trkpt>
      <trkpt lat="42.638392" lon="0.438937">
        <ele>2556.000000</ele>
        <time>2021-09-04T13:12:46Z</time>
      </trkpt>
      <trkpt lat="42.638394" lon="0.438927">
        <ele>2556.000000</ele>
        <time>2021-09-04T13:12:47Z</time>
      </trkpt>
      <trkpt lat="42.638396" lon="0.438922">
        <ele>2557.000000</ele>
        <time>2021-09-04T13:12:48Z</time>
      </trkpt>
      <trkpt lat="42.638398" lon="0.438917">
        <ele>2557.000000</ele>
        <time>2021-09-04T13:12:49Z</time>
      </trkpt>
      <trkpt lat="42.638400" lon="0.438912">
        <ele>2557.000000</ele>
        <time>2021-09-04T13:12:50Z</time>
      </trkpt>
      <trkpt lat="42.638402" lon="0.438907">
        <ele>2557.000000</ele>
        <time>2021-09-04T13:12:51Z</time>
      </trkpt>
      <trkpt lat="42.638404" lon="0.438908">
        <ele>2557.000000</ele>
        <time>2021-09-04T13:12:52Z</time>
      </trkpt>
      <trkpt lat="42.638404" lon="0.438912">
        <ele>2558.000000</ele>
        <time>2021-09-04T13:12:53Z</time>
      </trkpt>
      <trkpt lat="42.638406" lon="0.438907">
        <ele>2558.000000</ele>
        <time>2021-09-04T13:12:55Z</time>
      </trkpt>
      <trkpt lat="42.638408" lon="0.438897">
        <ele>2558.000000</ele>
        <time>2021-09-04T13:12:56Z</time>
      </trkpt>
      <trkpt lat="42.638410" lon="0.438890">
        <ele>2558.000000</ele>
        <time>2021-09-04T13:12:57Z</time>
      </trkpt>
      <trkpt lat="42.638411" lon="0.438885">
        <ele>2558.000000</ele>
        <time>2021-09-04T13:12:58Z</time>
      </trkpt>
      <trkpt lat="42.638413" lon="0.438880">
        <ele>2558.000000</ele>
        <time>2021-09-04T13:12:59Z</time>
      </trkpt>
      <trkpt lat="42.638415" lon="0.438877">
        <ele>2558.000000</ele>
        <time>2021-09-04T13:13:00Z</time>
      </trkpt>
      <trkpt lat="42.638417" lon="0.438870">
        <ele>2558.000000</ele>
        <time>2021-09-04T13:13:01Z</time>
      </trkpt>
      <trkpt lat="42.638417" lon="0.438867">
        <ele>2558.000000</ele>
        <time>2021-09-04T13:13:02Z</time>
      </trkpt>
      <trkpt lat="42.638415" lon="0.438870">
        <ele>2559.000000</ele>
        <time>2021-09-04T13:13:04Z</time>
      </trkpt>
      <trkpt lat="42.638415" lon="0.438865">
        <ele>2559.000000</ele>
        <time>2021-09-04T13:13:05Z</time>
      </trkpt>
      <trkpt lat="42.638414" lon="0.438867">
        <ele>2560.000000</ele>
        <time>2021-09-04T13:13:09Z</time>
      </trkpt>
      <trkpt lat="42.638423" lon="0.438828">
        <ele>2569.000000</ele>
        <time>2021-09-04T13:13:55Z</time>
      </trkpt>
      <trkpt lat="42.638427" lon="0.438817">
        <ele>2569.000000</ele>
        <time>2021-09-04T13:13:56Z</time>
      </trkpt>
      <trkpt lat="42.638428" lon="0.438803">
        <ele>2569.000000</ele>
        <time>2021-09-04T13:13:57Z</time>
      </trkpt>
      <trkpt lat="42.638428" lon="0.438790">
        <ele>2569.000000</ele>
        <time>2021-09-04T13:13:58Z</time>
      </trkpt>
      <trkpt lat="42.638428" lon="0.438775">
        <ele>2569.000000</ele>
        <time>2021-09-04T13:13:59Z</time>
      </trkpt>
      <trkpt lat="42.638426" lon="0.438762">
        <ele>2569.000000</ele>
        <time>2021-09-04T13:14:00Z</time>
      </trkpt>
      <trkpt lat="42.638426" lon="0.438748">
        <ele>2569.000000</ele>
        <time>2021-09-04T13:14:01Z</time>
      </trkpt>
      <trkpt lat="42.638428" lon="0.438745">
        <ele>2569.000000</ele>
        <time>2021-09-04T13:14:04Z</time>
      </trkpt>
      <trkpt lat="42.638431" lon="0.438743">
        <ele>2569.000000</ele>
        <time>2021-09-04T13:14:05Z</time>
      </trkpt>
      <trkpt lat="42.638435" lon="0.438742">
        <ele>2569.000000</ele>
        <time>2021-09-04T13:14:06Z</time>
      </trkpt>
      <trkpt lat="42.638437" lon="0.438737">
        <ele>2569.000000</ele>
        <time>2021-09-04T13:14:07Z</time>
      </trkpt>
      <trkpt lat="42.638438" lon="0.438733">
        <ele>2569.000000</ele>
        <time>2021-09-04T13:14:08Z</time>
      </trkpt>
      <trkpt lat="42.638439" lon="0.438730">
        <ele>2569.000000</ele>
        <time>2021-09-04T13:14:09Z</time>
      </trkpt>
      <trkpt lat="42.638441" lon="0.438725">
        <ele>2569.000000</ele>
        <time>2021-09-04T13:14:10Z</time>
      </trkpt>
      <trkpt lat="42.638443" lon="0.438718">
        <ele>2569.000000</ele>
        <time>2021-09-04T13:14:11Z</time>
      </trkpt>
      <trkpt lat="42.638441" lon="0.438717">
        <ele>2570.000000</ele>
        <time>2021-09-04T13:14:13Z</time>
      </trkpt>
      <trkpt lat="42.638438" lon="0.438725">
        <ele>2570.000000</ele>
        <time>2021-09-04T13:14:15Z</time>
      </trkpt>
      <trkpt lat="42.638437" lon="0.438687">
        <ele>2571.000000</ele>
        <time>2021-09-04T13:14:20Z</time>
      </trkpt>
      <trkpt lat="42.638438" lon="0.438675">
        <ele>2571.000000</ele>
        <time>2021-09-04T13:14:21Z</time>
      </trkpt>
      <trkpt lat="42.638440" lon="0.438658">
        <ele>2571.000000</ele>
        <time>2021-09-04T13:14:22Z</time>
      </trkpt>
      <trkpt lat="42.638439" lon="0.438647">
        <ele>2571.000000</ele>
        <time>2021-09-04T13:14:24Z</time>
      </trkpt>
      <trkpt lat="42.638438" lon="0.438642">
        <ele>2571.000000</ele>
        <time>2021-09-04T13:14:24Z</time>
      </trkpt>
      <trkpt lat="42.638438" lon="0.438640">
        <ele>2571.000000</ele>
        <time>2021-09-04T13:14:25Z</time>
      </trkpt>
      <trkpt lat="42.638438" lon="0.438638">
        <ele>2572.000000</ele>
        <time>2021-09-04T13:14:26Z</time>
      </trkpt>
      <trkpt lat="42.638439" lon="0.438637">
        <ele>2572.000000</ele>
        <time>2021-09-04T13:14:27Z</time>
      </trkpt>
      <trkpt lat="42.638441" lon="0.438635">
        <ele>2572.000000</ele>
        <time>2021-09-04T13:14:31Z</time>
      </trkpt>
      <trkpt lat="42.638443" lon="0.438633">
        <ele>2573.000000</ele>
        <time>2021-09-04T13:14:33Z</time>
      </trkpt>
      <trkpt lat="42.638447" lon="0.438628">
        <ele>2573.000000</ele>
        <time>2021-09-04T13:14:36Z</time>
      </trkpt>
      <trkpt lat="42.638446" lon="0.438635">
        <ele>2573.000000</ele>
        <time>2021-09-04T13:14:37Z</time>
      </trkpt>
      <trkpt lat="42.638465" lon="0.438582">
        <ele>2574.000000</ele>
        <time>2021-09-04T13:14:43Z</time>
      </trkpt>
      <trkpt lat="42.638465" lon="0.438572">
        <ele>2574.000000</ele>
        <time>2021-09-04T13:14:44Z</time>
      </trkpt>
      <trkpt lat="42.638463" lon="0.438558">
        <ele>2574.000000</ele>
        <time>2021-09-04T13:14:45Z</time>
      </trkpt>
      <trkpt lat="42.638464" lon="0.438550">
        <ele>2574.000000</ele>
        <time>2021-09-04T13:14:46Z</time>
      </trkpt>
      <trkpt lat="42.638465" lon="0.438547">
        <ele>2574.000000</ele>
        <time>2021-09-04T13:14:47Z</time>
      </trkpt>
      <trkpt lat="42.638467" lon="0.438540">
        <ele>2574.000000</ele>
        <time>2021-09-04T13:14:48Z</time>
      </trkpt>
      <trkpt lat="42.638472" lon="0.438538">
        <ele>2574.000000</ele>
        <time>2021-09-04T13:14:49Z</time>
      </trkpt>
      <trkpt lat="42.638478" lon="0.438533">
        <ele>2574.000000</ele>
        <time>2021-09-04T13:14:50Z</time>
      </trkpt>
      <trkpt lat="42.638483" lon="0.438528">
        <ele>2574.000000</ele>
        <time>2021-09-04T13:14:51Z</time>
      </trkpt>
      <trkpt lat="42.638485" lon="0.438519">
        <ele>2574.000000</ele>
        <time>2021-09-04T13:14:52Z</time>
      </trkpt>
      <trkpt lat="42.638490" lon="0.438507">
        <ele>2574.000000</ele>
        <time>2021-09-04T13:14:53Z</time>
      </trkpt>
      <trkpt lat="42.638497" lon="0.438495">
        <ele>2574.000000</ele>
        <time>2021-09-04T13:14:54Z</time>
      </trkpt>
      <trkpt lat="42.638500" lon="0.438485">
        <ele>2574.000000</ele>
        <time>2021-09-04T13:14:55Z</time>
      </trkpt>
      <trkpt lat="42.638500" lon="0.438472">
        <ele>2574.000000</ele>
        <time>2021-09-04T13:14:56Z</time>
      </trkpt>
      <trkpt lat="42.638500" lon="0.438457">
        <ele>2574.000000</ele>
        <time>2021-09-04T13:14:57Z</time>
      </trkpt>
      <trkpt lat="42.638502" lon="0.438447">
        <ele>2573.000000</ele>
        <time>2021-09-04T13:14:58Z</time>
      </trkpt>
      <trkpt lat="42.638504" lon="0.438438">
        <ele>2573.000000</ele>
        <time>2021-09-04T13:14:59Z</time>
      </trkpt>
      <trkpt lat="42.638504" lon="0.438433">
        <ele>2573.000000</ele>
        <time>2021-09-04T13:15:00Z</time>
      </trkpt>
      <trkpt lat="42.638504" lon="0.438430">
        <ele>2573.000000</ele>
        <time>2021-09-04T13:15:01Z</time>
      </trkpt>
      <trkpt lat="42.638505" lon="0.438422">
        <ele>2573.000000</ele>
        <time>2021-09-04T13:15:02Z</time>
      </trkpt>
      <trkpt lat="42.638506" lon="0.438412">
        <ele>2573.000000</ele>
        <time>2021-09-04T13:15:03Z</time>
      </trkpt>
      <trkpt lat="42.638507" lon="0.438398">
        <ele>2573.000000</ele>
        <time>2021-09-04T13:15:04Z</time>
      </trkpt>
      <trkpt lat="42.638508" lon="0.438385">
        <ele>2573.000000</ele>
        <time>2021-09-04T13:15:05Z</time>
      </trkpt>
      <trkpt lat="42.638510" lon="0.438373">
        <ele>2573.000000</ele>
        <time>2021-09-04T13:15:06Z</time>
      </trkpt>
      <trkpt lat="42.638507" lon="0.438370">
        <ele>2573.000000</ele>
        <time>2021-09-04T13:15:07Z</time>
      </trkpt>
      <trkpt lat="42.638508" lon="0.438365">
        <ele>2573.000000</ele>
        <time>2021-09-04T13:15:08Z</time>
      </trkpt>
      <trkpt lat="42.638506" lon="0.438365">
        <ele>2573.000000</ele>
        <time>2021-09-04T13:15:09Z</time>
      </trkpt>
      <trkpt lat="42.638503" lon="0.438360">
        <ele>2573.000000</ele>
        <time>2021-09-04T13:15:10Z</time>
      </trkpt>
      <trkpt lat="42.638497" lon="0.438353">
        <ele>2573.000000</ele>
        <time>2021-09-04T13:15:11Z</time>
      </trkpt>
      <trkpt lat="42.638495" lon="0.438350">
        <ele>2573.000000</ele>
        <time>2021-09-04T13:15:12Z</time>
      </trkpt>
      <trkpt lat="42.638490" lon="0.438348">
        <ele>2573.000000</ele>
        <time>2021-09-04T13:15:13Z</time>
      </trkpt>
      <trkpt lat="42.638485" lon="0.438348">
        <ele>2573.000000</ele>
        <time>2021-09-04T13:15:14Z</time>
      </trkpt>
      <trkpt lat="42.638486" lon="0.438338">
        <ele>2573.000000</ele>
        <time>2021-09-04T13:15:15Z</time>
      </trkpt>
      <trkpt lat="42.638488" lon="0.438328">
        <ele>2573.000000</ele>
        <time>2021-09-04T13:15:16Z</time>
      </trkpt>
      <trkpt lat="42.638486" lon="0.438320">
        <ele>2573.000000</ele>
        <time>2021-09-04T13:15:17Z</time>
      </trkpt>
      <trkpt lat="42.638483" lon="0.438310">
        <ele>2573.000000</ele>
        <time>2021-09-04T13:15:18Z</time>
      </trkpt>
      <trkpt lat="42.638478" lon="0.438297">
        <ele>2573.000000</ele>
        <time>2021-09-04T13:15:19Z</time>
      </trkpt>
      <trkpt lat="42.638475" lon="0.438282">
        <ele>2573.000000</ele>
        <time>2021-09-04T13:15:20Z</time>
      </trkpt>
      <trkpt lat="42.638473" lon="0.438272">
        <ele>2573.000000</ele>
        <time>2021-09-04T13:15:21Z</time>
      </trkpt>
      <trkpt lat="42.638472" lon="0.438260">
        <ele>2573.000000</ele>
        <time>2021-09-04T13:15:22Z</time>
      </trkpt>
      <trkpt lat="42.638475" lon="0.438250">
        <ele>2573.000000</ele>
        <time>2021-09-04T13:15:23Z</time>
      </trkpt>
      <trkpt lat="42.638473" lon="0.438240">
        <ele>2573.000000</ele>
        <time>2021-09-04T13:15:24Z</time>
      </trkpt>
      <trkpt lat="42.638474" lon="0.438237">
        <ele>2573.000000</ele>
        <time>2021-09-04T13:15:25Z</time>
      </trkpt>
      <trkpt lat="42.638476" lon="0.438233">
        <ele>2573.000000</ele>
        <time>2021-09-04T13:15:26Z</time>
      </trkpt>
      <trkpt lat="42.638477" lon="0.438238">
        <ele>2573.000000</ele>
        <time>2021-09-04T13:15:29Z</time>
      </trkpt>
      <trkpt lat="42.638476" lon="0.438242">
        <ele>2573.000000</ele>
        <time>2021-09-04T13:15:30Z</time>
      </trkpt>
      <trkpt lat="42.638477" lon="0.438237">
        <ele>2573.000000</ele>
        <time>2021-09-04T13:15:32Z</time>
      </trkpt>
      <trkpt lat="42.638477" lon="0.438227">
        <ele>2573.000000</ele>
        <time>2021-09-04T13:15:33Z</time>
      </trkpt>
      <trkpt lat="42.638477" lon="0.438215">
        <ele>2573.000000</ele>
        <time>2021-09-04T13:15:34Z</time>
      </trkpt>
      <trkpt lat="42.638475" lon="0.438207">
        <ele>2573.000000</ele>
        <time>2021-09-04T13:15:35Z</time>
      </trkpt>
      <trkpt lat="42.638472" lon="0.438197">
        <ele>2573.000000</ele>
        <time>2021-09-04T13:15:36Z</time>
      </trkpt>
      <trkpt lat="42.638468" lon="0.438188">
        <ele>2573.000000</ele>
        <time>2021-09-04T13:15:37Z</time>
      </trkpt>
      <trkpt lat="42.638465" lon="0.438185">
        <ele>2573.000000</ele>
        <time>2021-09-04T13:15:38Z</time>
      </trkpt>
      <trkpt lat="42.638464" lon="0.438182">
        <ele>2573.000000</ele>
        <time>2021-09-04T13:15:39Z</time>
      </trkpt>
      <trkpt lat="42.638462" lon="0.438180">
        <ele>2571.000000</ele>
        <time>2021-09-04T13:15:40Z</time>
      </trkpt>
      <trkpt lat="42.638463" lon="0.438187">
        <ele>2571.000000</ele>
        <time>2021-09-04T13:15:42Z</time>
      </trkpt>
      <trkpt lat="42.638463" lon="0.438187">
        <ele>2571.000000</ele>
        <time>2021-09-04T13:15:44Z</time>
      </trkpt>
      <trkpt lat="42.638465" lon="0.438187">
        <ele>2570.000000</ele>
        <time>2021-09-04T13:15:45Z</time>
      </trkpt>
      <trkpt lat="42.638467" lon="0.438185">
        <ele>2570.000000</ele>
        <time>2021-09-04T13:15:46Z</time>
      </trkpt>
      <trkpt lat="42.638470" lon="0.438176">
        <ele>2570.000000</ele>
        <time>2021-09-04T13:15:47Z</time>
      </trkpt>
      <trkpt lat="42.638472" lon="0.438170">
        <ele>2569.000000</ele>
        <time>2021-09-04T13:15:48Z</time>
      </trkpt>
      <trkpt lat="42.638472" lon="0.438165">
        <ele>2569.000000</ele>
        <time>2021-09-04T13:15:49Z</time>
      </trkpt>
      <trkpt lat="42.638473" lon="0.438157">
        <ele>2569.000000</ele>
        <time>2021-09-04T13:15:50Z</time>
      </trkpt>
      <trkpt lat="42.638475" lon="0.438152">
        <ele>2568.000000</ele>
        <time>2021-09-04T13:15:51Z</time>
      </trkpt>
      <trkpt lat="42.638477" lon="0.438142">
        <ele>2568.000000</ele>
        <time>2021-09-04T13:15:52Z</time>
      </trkpt>
      <trkpt lat="42.638475" lon="0.438135">
        <ele>2568.000000</ele>
        <time>2021-09-04T13:15:53Z</time>
      </trkpt>
      <trkpt lat="42.638477" lon="0.438128">
        <ele>2568.000000</ele>
        <time>2021-09-04T13:15:54Z</time>
      </trkpt>
      <trkpt lat="42.638477" lon="0.438130">
        <ele>2568.000000</ele>
        <time>2021-09-04T13:15:56Z</time>
      </trkpt>
      <trkpt lat="42.638475" lon="0.438132">
        <ele>2568.000000</ele>
        <time>2021-09-04T13:15:58Z</time>
      </trkpt>
      <trkpt lat="42.638472" lon="0.438127">
        <ele>2568.000000</ele>
        <time>2021-09-04T13:16:00Z</time>
      </trkpt>
      <trkpt lat="42.638471" lon="0.438120">
        <ele>2568.000000</ele>
        <time>2021-09-04T13:16:01Z</time>
      </trkpt>
      <trkpt lat="42.638474" lon="0.438128">
        <ele>2568.000000</ele>
        <time>2021-09-04T13:16:02Z</time>
      </trkpt>
      <trkpt lat="42.638477" lon="0.438075">
        <ele>2569.000000</ele>
        <time>2021-09-04T13:17:01Z</time>
      </trkpt>
      <trkpt lat="42.638477" lon="0.438063">
        <ele>2569.000000</ele>
        <time>2021-09-04T13:17:02Z</time>
      </trkpt>
      <trkpt lat="42.638477" lon="0.438053">
        <ele>2569.000000</ele>
        <time>2021-09-04T13:17:03Z</time>
      </trkpt>
      <trkpt lat="42.638475" lon="0.438045">
        <ele>2569.000000</ele>
        <time>2021-09-04T13:17:04Z</time>
      </trkpt>
      <trkpt lat="42.638476" lon="0.438033">
        <ele>2569.000000</ele>
        <time>2021-09-04T13:17:05Z</time>
      </trkpt>
      <trkpt lat="42.638477" lon="0.438022">
        <ele>2569.000000</ele>
        <time>2021-09-04T13:17:06Z</time>
      </trkpt>
      <trkpt lat="42.638478" lon="0.438008">
        <ele>2569.000000</ele>
        <time>2021-09-04T13:17:07Z</time>
      </trkpt>
      <trkpt lat="42.638477" lon="0.437998">
        <ele>2569.000000</ele>
        <time>2021-09-04T13:17:08Z</time>
      </trkpt>
      <trkpt lat="42.638474" lon="0.437983">
        <ele>2567.000000</ele>
        <time>2021-09-04T13:17:09Z</time>
      </trkpt>
      <trkpt lat="42.638463" lon="0.437972">
        <ele>2567.000000</ele>
        <time>2021-09-04T13:17:10Z</time>
      </trkpt>
      <trkpt lat="42.638457" lon="0.437953">
        <ele>2567.000000</ele>
        <time>2021-09-04T13:17:11Z</time>
      </trkpt>
      <trkpt lat="42.638450" lon="0.437938">
        <ele>2567.000000</ele>
        <time>2021-09-04T13:17:12Z</time>
      </trkpt>
      <trkpt lat="42.638444" lon="0.437923">
        <ele>2567.000000</ele>
        <time>2021-09-04T13:17:13Z</time>
      </trkpt>
      <trkpt lat="42.638438" lon="0.437910">
        <ele>2567.000000</ele>
        <time>2021-09-04T13:17:14Z</time>
      </trkpt>
      <trkpt lat="42.638432" lon="0.437897">
        <ele>2567.000000</ele>
        <time>2021-09-04T13:17:15Z</time>
      </trkpt>
      <trkpt lat="42.638427" lon="0.437883">
        <ele>2567.000000</ele>
        <time>2021-09-04T13:17:16Z</time>
      </trkpt>
      <trkpt lat="42.638421" lon="0.437867">
        <ele>2567.000000</ele>
        <time>2021-09-04T13:17:17Z</time>
      </trkpt>
      <trkpt lat="42.638417" lon="0.437853">
        <ele>2567.000000</ele>
        <time>2021-09-04T13:17:18Z</time>
      </trkpt>
      <trkpt lat="42.638412" lon="0.437840">
        <ele>2567.000000</ele>
        <time>2021-09-04T13:17:19Z</time>
      </trkpt>
      <trkpt lat="42.638406" lon="0.437822">
        <ele>2567.000000</ele>
        <time>2021-09-04T13:17:20Z</time>
      </trkpt>
      <trkpt lat="42.638402" lon="0.437803">
        <ele>2567.000000</ele>
        <time>2021-09-04T13:17:21Z</time>
      </trkpt>
      <trkpt lat="42.638399" lon="0.437787">
        <ele>2567.000000</ele>
        <time>2021-09-04T13:17:22Z</time>
      </trkpt>
      <trkpt lat="42.638396" lon="0.437772">
        <ele>2567.000000</ele>
        <time>2021-09-04T13:17:23Z</time>
      </trkpt>
      <trkpt lat="42.638393" lon="0.437762">
        <ele>2567.000000</ele>
        <time>2021-09-04T13:17:24Z</time>
      </trkpt>
      <trkpt lat="42.638389" lon="0.437748">
        <ele>2567.000000</ele>
        <time>2021-09-04T13:17:25Z</time>
      </trkpt>
      <trkpt lat="42.638382" lon="0.437735">
        <ele>2567.000000</ele>
        <time>2021-09-04T13:17:26Z</time>
      </trkpt>
      <trkpt lat="42.638373" lon="0.437723">
        <ele>2567.000000</ele>
        <time>2021-09-04T13:17:27Z</time>
      </trkpt>
      <trkpt lat="42.638366" lon="0.437710">
        <ele>2567.000000</ele>
        <time>2021-09-04T13:17:28Z</time>
      </trkpt>
      <trkpt lat="42.638357" lon="0.437702">
        <ele>2567.000000</ele>
        <time>2021-09-04T13:17:29Z</time>
      </trkpt>
      <trkpt lat="42.638348" lon="0.437692">
        <ele>2567.000000</ele>
        <time>2021-09-04T13:17:30Z</time>
      </trkpt>
      <trkpt lat="42.638332" lon="0.437682">
        <ele>2567.000000</ele>
        <time>2021-09-04T13:17:31Z</time>
      </trkpt>
      <trkpt lat="42.638322" lon="0.437670">
        <ele>2567.000000</ele>
        <time>2021-09-04T13:17:32Z</time>
      </trkpt>
      <trkpt lat="42.638312" lon="0.437660">
        <ele>2567.000000</ele>
        <time>2021-09-04T13:17:33Z</time>
      </trkpt>
      <trkpt lat="42.638305" lon="0.437647">
        <ele>2567.000000</ele>
        <time>2021-09-04T13:17:34Z</time>
      </trkpt>
      <trkpt lat="42.638293" lon="0.437632">
        <ele>2567.000000</ele>
        <time>2021-09-04T13:17:35Z</time>
      </trkpt>
      <trkpt lat="42.638283" lon="0.437615">
        <ele>2567.000000</ele>
        <time>2021-09-04T13:17:36Z</time>
      </trkpt>
      <trkpt lat="42.638275" lon="0.437600">
        <ele>2567.000000</ele>
        <time>2021-09-04T13:17:37Z</time>
      </trkpt>
      <trkpt lat="42.638269" lon="0.437578">
        <ele>2568.000000</ele>
        <time>2021-09-04T13:17:38Z</time>
      </trkpt>
      <trkpt lat="42.638264" lon="0.437558">
        <ele>2568.000000</ele>
        <time>2021-09-04T13:17:39Z</time>
      </trkpt>
      <trkpt lat="42.638260" lon="0.437540">
        <ele>2568.000000</ele>
        <time>2021-09-04T13:17:40Z</time>
      </trkpt>
      <trkpt lat="42.638255" lon="0.437522">
        <ele>2568.000000</ele>
        <time>2021-09-04T13:17:41Z</time>
      </trkpt>
      <trkpt lat="42.638253" lon="0.437502">
        <ele>2568.000000</ele>
        <time>2021-09-04T13:17:42Z</time>
      </trkpt>
      <trkpt lat="42.638252" lon="0.437485">
        <ele>2568.000000</ele>
        <time>2021-09-04T13:17:43Z</time>
      </trkpt>
      <trkpt lat="42.638248" lon="0.437468">
        <ele>2568.000000</ele>
        <time>2021-09-04T13:17:44Z</time>
      </trkpt>
      <trkpt lat="42.638242" lon="0.437455">
        <ele>2568.000000</ele>
        <time>2021-09-04T13:17:45Z</time>
      </trkpt>
      <trkpt lat="42.638235" lon="0.437445">
        <ele>2568.000000</ele>
        <time>2021-09-04T13:17:46Z</time>
      </trkpt>
      <trkpt lat="42.638225" lon="0.437437">
        <ele>2568.000000</ele>
        <time>2021-09-04T13:17:47Z</time>
      </trkpt>
      <trkpt lat="42.638208" lon="0.437427">
        <ele>2568.000000</ele>
        <time>2021-09-04T13:17:48Z</time>
      </trkpt>
      <trkpt lat="42.638198" lon="0.437415">
        <ele>2568.000000</ele>
        <time>2021-09-04T13:17:49Z</time>
      </trkpt>
      <trkpt lat="42.638188" lon="0.437405">
        <ele>2568.000000</ele>
        <time>2021-09-04T13:17:50Z</time>
      </trkpt>
      <trkpt lat="42.638181" lon="0.437385">
        <ele>2568.000000</ele>
        <time>2021-09-04T13:17:51Z</time>
      </trkpt>
      <trkpt lat="42.638177" lon="0.437368">
        <ele>2568.000000</ele>
        <time>2021-09-04T13:17:52Z</time>
      </trkpt>
      <trkpt lat="42.638173" lon="0.437355">
        <ele>2568.000000</ele>
        <time>2021-09-04T13:17:53Z</time>
      </trkpt>
      <trkpt lat="42.638167" lon="0.437342">
        <ele>2568.000000</ele>
        <time>2021-09-04T13:17:54Z</time>
      </trkpt>
      <trkpt lat="42.638162" lon="0.437330">
        <ele>2568.000000</ele>
        <time>2021-09-04T13:17:55Z</time>
      </trkpt>
      <trkpt lat="42.638156" lon="0.437315">
        <ele>2567.000000</ele>
        <time>2021-09-04T13:17:56Z</time>
      </trkpt>
      <trkpt lat="42.638153" lon="0.437302">
        <ele>2567.000000</ele>
        <time>2021-09-04T13:17:57Z</time>
      </trkpt>
      <trkpt lat="42.638157" lon="0.437287">
        <ele>2567.000000</ele>
        <time>2021-09-04T13:17:58Z</time>
      </trkpt>
      <trkpt lat="42.638155" lon="0.437272">
        <ele>2567.000000</ele>
        <time>2021-09-04T13:17:59Z</time>
      </trkpt>
      <trkpt lat="42.638150" lon="0.437257">
        <ele>2567.000000</ele>
        <time>2021-09-04T13:18:00Z</time>
      </trkpt>
      <trkpt lat="42.638148" lon="0.437245">
        <ele>2567.000000</ele>
        <time>2021-09-04T13:18:01Z</time>
      </trkpt>
      <trkpt lat="42.638146" lon="0.437233">
        <ele>2567.000000</ele>
        <time>2021-09-04T13:18:02Z</time>
      </trkpt>
      <trkpt lat="42.638145" lon="0.437217">
        <ele>2567.000000</ele>
        <time>2021-09-04T13:18:03Z</time>
      </trkpt>
      <trkpt lat="42.638144" lon="0.437205">
        <ele>2567.000000</ele>
        <time>2021-09-04T13:18:04Z</time>
      </trkpt>
      <trkpt lat="42.638143" lon="0.437192">
        <ele>2566.000000</ele>
        <time>2021-09-04T13:18:05Z</time>
      </trkpt>
      <trkpt lat="42.638148" lon="0.437185">
        <ele>2566.000000</ele>
        <time>2021-09-04T13:18:06Z</time>
      </trkpt>
      <trkpt lat="42.638150" lon="0.437175">
        <ele>2566.000000</ele>
        <time>2021-09-04T13:18:07Z</time>
      </trkpt>
      <trkpt lat="42.638150" lon="0.437167">
        <ele>2566.000000</ele>
        <time>2021-09-04T13:18:08Z</time>
      </trkpt>
      <trkpt lat="42.638148" lon="0.437153">
        <ele>2566.000000</ele>
        <time>2021-09-04T13:18:09Z</time>
      </trkpt>
      <trkpt lat="42.638148" lon="0.437138">
        <ele>2565.000000</ele>
        <time>2021-09-04T13:18:10Z</time>
      </trkpt>
      <trkpt lat="42.638149" lon="0.437123">
        <ele>2565.000000</ele>
        <time>2021-09-04T13:18:11Z</time>
      </trkpt>
      <trkpt lat="42.638149" lon="0.437108">
        <ele>2565.000000</ele>
        <time>2021-09-04T13:18:12Z</time>
      </trkpt>
      <trkpt lat="42.638147" lon="0.437097">
        <ele>2565.000000</ele>
        <time>2021-09-04T13:18:13Z</time>
      </trkpt>
      <trkpt lat="42.638143" lon="0.437083">
        <ele>2565.000000</ele>
        <time>2021-09-04T13:18:14Z</time>
      </trkpt>
      <trkpt lat="42.638139" lon="0.437067">
        <ele>2565.000000</ele>
        <time>2021-09-04T13:18:15Z</time>
      </trkpt>
      <trkpt lat="42.638135" lon="0.437053">
        <ele>2565.000000</ele>
        <time>2021-09-04T13:18:16Z</time>
      </trkpt>
      <trkpt lat="42.638130" lon="0.437045">
        <ele>2565.000000</ele>
        <time>2021-09-04T13:18:17Z</time>
      </trkpt>
      <trkpt lat="42.638125" lon="0.437040">
        <ele>2565.000000</ele>
        <time>2021-09-04T13:18:18Z</time>
      </trkpt>
      <trkpt lat="42.638102" lon="0.437033">
        <ele>2565.000000</ele>
        <time>2021-09-04T13:18:19Z</time>
      </trkpt>
      <trkpt lat="42.638090" lon="0.437025">
        <ele>2565.000000</ele>
        <time>2021-09-04T13:18:20Z</time>
      </trkpt>
      <trkpt lat="42.638082" lon="0.437009">
        <ele>2565.000000</ele>
        <time>2021-09-04T13:18:21Z</time>
      </trkpt>
      <trkpt lat="42.638077" lon="0.436992">
        <ele>2565.000000</ele>
        <time>2021-09-04T13:18:22Z</time>
      </trkpt>
      <trkpt lat="42.638078" lon="0.436980">
        <ele>2565.000000</ele>
        <time>2021-09-04T13:18:23Z</time>
      </trkpt>
      <trkpt lat="42.638073" lon="0.436967">
        <ele>2565.000000</ele>
        <time>2021-09-04T13:18:24Z</time>
      </trkpt>
      <trkpt lat="42.638068" lon="0.436958">
        <ele>2565.000000</ele>
        <time>2021-09-04T13:18:25Z</time>
      </trkpt>
      <trkpt lat="42.638064" lon="0.436952">
        <ele>2566.000000</ele>
        <time>2021-09-04T13:18:26Z</time>
      </trkpt>
      <trkpt lat="42.638057" lon="0.436945">
        <ele>2566.000000</ele>
        <time>2021-09-04T13:18:27Z</time>
      </trkpt>
      <trkpt lat="42.638053" lon="0.436937">
        <ele>2567.000000</ele>
        <time>2021-09-04T13:18:28Z</time>
      </trkpt>
      <trkpt lat="42.638049" lon="0.436928">
        <ele>2567.000000</ele>
        <time>2021-09-04T13:18:29Z</time>
      </trkpt>
      <trkpt lat="42.638046" lon="0.436920">
        <ele>2568.000000</ele>
        <time>2021-09-04T13:18:30Z</time>
      </trkpt>
      <trkpt lat="42.638039" lon="0.436913">
        <ele>2568.000000</ele>
        <time>2021-09-04T13:18:31Z</time>
      </trkpt>
      <trkpt lat="42.638025" lon="0.436905">
        <ele>2568.000000</ele>
        <time>2021-09-04T13:18:32Z</time>
      </trkpt>
      <trkpt lat="42.638013" lon="0.436897">
        <ele>2569.000000</ele>
        <time>2021-09-04T13:18:33Z</time>
      </trkpt>
      <trkpt lat="42.638003" lon="0.436887">
        <ele>2569.000000</ele>
        <time>2021-09-04T13:18:34Z</time>
      </trkpt>
      <trkpt lat="42.637993" lon="0.436877">
        <ele>2570.000000</ele>
        <time>2021-09-04T13:18:35Z</time>
      </trkpt>
      <trkpt lat="42.637988" lon="0.436871">
        <ele>2570.000000</ele>
        <time>2021-09-04T13:18:36Z</time>
      </trkpt>
      <trkpt lat="42.637977" lon="0.436859">
        <ele>2571.000000</ele>
        <time>2021-09-04T13:18:37Z</time>
      </trkpt>
      <trkpt lat="42.637968" lon="0.436848">
        <ele>2571.000000</ele>
        <time>2021-09-04T13:18:38Z</time>
      </trkpt>
      <trkpt lat="42.637965" lon="0.436840">
        <ele>2572.000000</ele>
        <time>2021-09-04T13:18:39Z</time>
      </trkpt>
      <trkpt lat="42.637960" lon="0.436820">
        <ele>2572.000000</ele>
        <time>2021-09-04T13:18:40Z</time>
      </trkpt>
      <trkpt lat="42.637955" lon="0.436810">
        <ele>2573.000000</ele>
        <time>2021-09-04T13:18:41Z</time>
      </trkpt>
      <trkpt lat="42.637953" lon="0.436803">
        <ele>2573.000000</ele>
        <time>2021-09-04T13:18:42Z</time>
      </trkpt>
      <trkpt lat="42.637949" lon="0.436798">
        <ele>2574.000000</ele>
        <time>2021-09-04T13:18:43Z</time>
      </trkpt>
      <trkpt lat="42.637945" lon="0.436793">
        <ele>2574.000000</ele>
        <time>2021-09-04T13:18:44Z</time>
      </trkpt>
      <trkpt lat="42.637940" lon="0.436788">
        <ele>2575.000000</ele>
        <time>2021-09-04T13:18:45Z</time>
      </trkpt>
      <trkpt lat="42.637938" lon="0.436787">
        <ele>2575.000000</ele>
        <time>2021-09-04T13:18:46Z</time>
      </trkpt>
      <trkpt lat="42.637934" lon="0.436780">
        <ele>2576.000000</ele>
        <time>2021-09-04T13:18:48Z</time>
      </trkpt>
      <trkpt lat="42.637928" lon="0.436772">
        <ele>2576.000000</ele>
        <time>2021-09-04T13:18:48Z</time>
      </trkpt>
      <trkpt lat="42.637921" lon="0.436760">
        <ele>2577.000000</ele>
        <time>2021-09-04T13:18:49Z</time>
      </trkpt>
      <trkpt lat="42.637916" lon="0.436753">
        <ele>2577.000000</ele>
        <time>2021-09-04T13:18:50Z</time>
      </trkpt>
      <trkpt lat="42.637912" lon="0.436748">
        <ele>2578.000000</ele>
        <time>2021-09-04T13:18:51Z</time>
      </trkpt>
      <trkpt lat="42.637906" lon="0.436740">
        <ele>2578.000000</ele>
        <time>2021-09-04T13:18:52Z</time>
      </trkpt>
      <trkpt lat="42.637899" lon="0.436730">
        <ele>2579.000000</ele>
        <time>2021-09-04T13:18:53Z</time>
      </trkpt>
      <trkpt lat="42.637893" lon="0.436722">
        <ele>2579.000000</ele>
        <time>2021-09-04T13:18:54Z</time>
      </trkpt>
      <trkpt lat="42.637887" lon="0.436710">
        <ele>2579.000000</ele>
        <time>2021-09-04T13:18:55Z</time>
      </trkpt>
      <trkpt lat="42.637884" lon="0.436700">
        <ele>2580.000000</ele>
        <time>2021-09-04T13:18:56Z</time>
      </trkpt>
      <trkpt lat="42.637893" lon="0.436697">
        <ele>2580.000000</ele>
        <time>2021-09-04T13:18:57Z</time>
      </trkpt>
      <trkpt lat="42.637892" lon="0.436690">
        <ele>2581.000000</ele>
        <time>2021-09-04T13:18:59Z</time>
      </trkpt>
      <trkpt lat="42.637891" lon="0.436687">
        <ele>2581.000000</ele>
        <time>2021-09-04T13:19:00Z</time>
      </trkpt>
      <trkpt lat="42.637889" lon="0.436683">
        <ele>2581.000000</ele>
        <time>2021-09-04T13:19:01Z</time>
      </trkpt>
      <trkpt lat="42.637888" lon="0.436683">
        <ele>2581.000000</ele>
        <time>2021-09-04T13:19:03Z</time>
      </trkpt>
      <trkpt lat="42.637882" lon="0.436687">
        <ele>2581.000000</ele>
        <time>2021-09-04T13:19:04Z</time>
      </trkpt>
      <trkpt lat="42.637878" lon="0.436687">
        <ele>2581.000000</ele>
        <time>2021-09-04T13:19:05Z</time>
      </trkpt>
      <trkpt lat="42.637875" lon="0.436687">
        <ele>2581.000000</ele>
        <time>2021-09-04T13:19:06Z</time>
      </trkpt>
      <trkpt lat="42.637885" lon="0.436687">
        <ele>2582.000000</ele>
        <time>2021-09-04T13:19:08Z</time>
      </trkpt>
      <trkpt lat="42.637920" lon="0.436620">
        <ele>2579.000000</ele>
        <time>2021-09-04T13:19:39Z</time>
      </trkpt>
      <trkpt lat="42.637925" lon="0.436605">
        <ele>2579.000000</ele>
        <time>2021-09-04T13:19:40Z</time>
      </trkpt>
      <trkpt lat="42.637927" lon="0.436592">
        <ele>2579.000000</ele>
        <time>2021-09-04T13:19:41Z</time>
      </trkpt>
      <trkpt lat="42.637930" lon="0.436575">
        <ele>2578.000000</ele>
        <time>2021-09-04T13:19:42Z</time>
      </trkpt>
      <trkpt lat="42.637930" lon="0.436562">
        <ele>2578.000000</ele>
        <time>2021-09-04T13:19:43Z</time>
      </trkpt>
      <trkpt lat="42.637929" lon="0.436545">
        <ele>2578.000000</ele>
        <time>2021-09-04T13:19:44Z</time>
      </trkpt>
      <trkpt lat="42.637927" lon="0.436533">
        <ele>2578.000000</ele>
        <time>2021-09-04T13:19:45Z</time>
      </trkpt>
      <trkpt lat="42.637924" lon="0.436525">
        <ele>2578.000000</ele>
        <time>2021-09-04T13:19:46Z</time>
      </trkpt>
      <trkpt lat="42.637912" lon="0.436508">
        <ele>2578.000000</ele>
        <time>2021-09-04T13:19:47Z</time>
      </trkpt>
      <trkpt lat="42.637908" lon="0.436497">
        <ele>2578.000000</ele>
        <time>2021-09-04T13:19:48Z</time>
      </trkpt>
      <trkpt lat="42.637908" lon="0.436490">
        <ele>2578.000000</ele>
        <time>2021-09-04T13:19:49Z</time>
      </trkpt>
      <trkpt lat="42.637902" lon="0.436475">
        <ele>2578.000000</ele>
        <time>2021-09-04T13:19:50Z</time>
      </trkpt>
      <trkpt lat="42.637901" lon="0.436460">
        <ele>2578.000000</ele>
        <time>2021-09-04T13:19:51Z</time>
      </trkpt>
      <trkpt lat="42.637897" lon="0.436450">
        <ele>2578.000000</ele>
        <time>2021-09-04T13:19:52Z</time>
      </trkpt>
      <trkpt lat="42.637893" lon="0.436442">
        <ele>2578.000000</ele>
        <time>2021-09-04T13:19:53Z</time>
      </trkpt>
      <trkpt lat="42.637890" lon="0.436435">
        <ele>2578.000000</ele>
        <time>2021-09-04T13:19:54Z</time>
      </trkpt>
      <trkpt lat="42.637890" lon="0.436432">
        <ele>2578.000000</ele>
        <time>2021-09-04T13:19:55Z</time>
      </trkpt>
      <trkpt lat="42.637895" lon="0.436428">
        <ele>2578.000000</ele>
        <time>2021-09-04T13:19:56Z</time>
      </trkpt>
      <trkpt lat="42.637898" lon="0.436423">
        <ele>2578.000000</ele>
        <time>2021-09-04T13:19:59Z</time>
      </trkpt>
      <trkpt lat="42.637897" lon="0.436425">
        <ele>2578.000000</ele>
        <time>2021-09-04T13:20:04Z</time>
      </trkpt>
      <trkpt lat="42.637896" lon="0.436425">
        <ele>2578.000000</ele>
        <time>2021-09-04T13:20:05Z</time>
      </trkpt>
      <trkpt lat="42.637897" lon="0.436425">
        <ele>2578.000000</ele>
        <time>2021-09-04T13:20:07Z</time>
      </trkpt>
      <trkpt lat="42.637925" lon="0.436375">
        <ele>2576.000000</ele>
        <time>2021-09-04T13:20:13Z</time>
      </trkpt>
      <trkpt lat="42.637935" lon="0.436365">
        <ele>2576.000000</ele>
        <time>2021-09-04T13:20:14Z</time>
      </trkpt>
      <trkpt lat="42.637940" lon="0.436359">
        <ele>2576.000000</ele>
        <time>2021-09-04T13:20:15Z</time>
      </trkpt>
      <trkpt lat="42.637952" lon="0.436350">
        <ele>2576.000000</ele>
        <time>2021-09-04T13:20:16Z</time>
      </trkpt>
      <trkpt lat="42.637958" lon="0.436345">
        <ele>2576.000000</ele>
        <time>2021-09-04T13:20:16Z</time>
      </trkpt>
      <trkpt lat="42.637965" lon="0.436339">
        <ele>2576.000000</ele>
        <time>2021-09-04T13:20:17Z</time>
      </trkpt>
      <trkpt lat="42.637970" lon="0.436334">
        <ele>2575.000000</ele>
        <time>2021-09-04T13:20:18Z</time>
      </trkpt>
      <trkpt lat="42.637973" lon="0.436331">
        <ele>2575.000000</ele>
        <time>2021-09-04T13:20:19Z</time>
      </trkpt>
      <trkpt lat="42.637975" lon="0.436327">
        <ele>2575.000000</ele>
        <time>2021-09-04T13:20:20Z</time>
      </trkpt>
      <trkpt lat="42.637980" lon="0.436320">
        <ele>2575.000000</ele>
        <time>2021-09-04T13:20:21Z</time>
      </trkpt>
      <trkpt lat="42.637985" lon="0.436313">
        <ele>2575.000000</ele>
        <time>2021-09-04T13:20:22Z</time>
      </trkpt>
      <trkpt lat="42.637990" lon="0.436307">
        <ele>2575.000000</ele>
        <time>2021-09-04T13:20:23Z</time>
      </trkpt>
      <trkpt lat="42.637993" lon="0.436303">
        <ele>2575.000000</ele>
        <time>2021-09-04T13:20:24Z</time>
      </trkpt>
      <trkpt lat="42.638003" lon="0.436294">
        <ele>2575.000000</ele>
        <time>2021-09-04T13:20:25Z</time>
      </trkpt>
      <trkpt lat="42.638012" lon="0.436300">
        <ele>2575.000000</ele>
        <time>2021-09-04T13:20:26Z</time>
      </trkpt>
      <trkpt lat="42.638022" lon="0.436298">
        <ele>2575.000000</ele>
        <time>2021-09-04T13:20:27Z</time>
      </trkpt>
      <trkpt lat="42.638030" lon="0.436295">
        <ele>2575.000000</ele>
        <time>2021-09-04T13:20:28Z</time>
      </trkpt>
      <trkpt lat="42.638035" lon="0.436294">
        <ele>2575.000000</ele>
        <time>2021-09-04T13:20:29Z</time>
      </trkpt>
      <trkpt lat="42.638045" lon="0.436293">
        <ele>2575.000000</ele>
        <time>2021-09-04T13:20:30Z</time>
      </trkpt>
      <trkpt lat="42.638050" lon="0.436292">
        <ele>2575.000000</ele>
        <time>2021-09-04T13:20:31Z</time>
      </trkpt>
      <trkpt lat="42.638055" lon="0.436292">
        <ele>2575.000000</ele>
        <time>2021-09-04T13:20:32Z</time>
      </trkpt>
      <trkpt lat="42.638060" lon="0.436291">
        <ele>2575.000000</ele>
        <time>2021-09-04T13:20:33Z</time>
      </trkpt>
      <trkpt lat="42.638065" lon="0.436289">
        <ele>2575.000000</ele>
        <time>2021-09-04T13:20:34Z</time>
      </trkpt>
      <trkpt lat="42.638065" lon="0.436287">
        <ele>2575.000000</ele>
        <time>2021-09-04T13:20:35Z</time>
      </trkpt>
      <trkpt lat="42.638068" lon="0.436272">
        <ele>2575.000000</ele>
        <time>2021-09-04T13:20:36Z</time>
      </trkpt>
      <trkpt lat="42.638072" lon="0.436263">
        <ele>2575.000000</ele>
        <time>2021-09-04T13:20:37Z</time>
      </trkpt>
      <trkpt lat="42.638077" lon="0.436257">
        <ele>2575.000000</ele>
        <time>2021-09-04T13:20:38Z</time>
      </trkpt>
      <trkpt lat="42.638083" lon="0.436255">
        <ele>2575.000000</ele>
        <time>2021-09-04T13:20:39Z</time>
      </trkpt>
      <trkpt lat="42.638088" lon="0.436253">
        <ele>2575.000000</ele>
        <time>2021-09-04T13:20:40Z</time>
      </trkpt>
      <trkpt lat="42.638090" lon="0.436250">
        <ele>2575.000000</ele>
        <time>2021-09-04T13:20:41Z</time>
      </trkpt>
      <trkpt lat="42.638092" lon="0.436248">
        <ele>2575.000000</ele>
        <time>2021-09-04T13:20:42Z</time>
      </trkpt>
      <trkpt lat="42.638090" lon="0.436245">
        <ele>2575.000000</ele>
        <time>2021-09-04T13:20:43Z</time>
      </trkpt>
      <trkpt lat="42.638088" lon="0.436242">
        <ele>2576.000000</ele>
        <time>2021-09-04T13:20:44Z</time>
      </trkpt>
      <trkpt lat="42.638090" lon="0.436236">
        <ele>2576.000000</ele>
        <time>2021-09-04T13:20:46Z</time>
      </trkpt>
      <trkpt lat="42.638092" lon="0.436241">
        <ele>2576.000000</ele>
        <time>2021-09-04T13:20:49Z</time>
      </trkpt>
      <trkpt lat="42.638090" lon="0.436241">
        <ele>2575.000000</ele>
        <time>2021-09-04T13:20:51Z</time>
      </trkpt>
      <trkpt lat="42.638112" lon="0.436225">
        <ele>2575.000000</ele>
        <time>2021-09-04T13:21:03Z</time>
      </trkpt>
      <trkpt lat="42.638117" lon="0.436222">
        <ele>2575.000000</ele>
        <time>2021-09-04T13:21:04Z</time>
      </trkpt>
      <trkpt lat="42.638120" lon="0.436218">
        <ele>2575.000000</ele>
        <time>2021-09-04T13:21:05Z</time>
      </trkpt>
      <trkpt lat="42.638125" lon="0.436214">
        <ele>2575.000000</ele>
        <time>2021-09-04T13:21:06Z</time>
      </trkpt>
      <trkpt lat="42.638128" lon="0.436211">
        <ele>2575.000000</ele>
        <time>2021-09-04T13:21:07Z</time>
      </trkpt>
      <trkpt lat="42.638133" lon="0.436208">
        <ele>2575.000000</ele>
        <time>2021-09-04T13:21:08Z</time>
      </trkpt>
      <trkpt lat="42.638140" lon="0.436204">
        <ele>2575.000000</ele>
        <time>2021-09-04T13:21:09Z</time>
      </trkpt>
      <trkpt lat="42.638152" lon="0.436199">
        <ele>2576.000000</ele>
        <time>2021-09-04T13:21:10Z</time>
      </trkpt>
      <trkpt lat="42.638160" lon="0.436196">
        <ele>2576.000000</ele>
        <time>2021-09-04T13:21:11Z</time>
      </trkpt>
      <trkpt lat="42.638167" lon="0.436197">
        <ele>2576.000000</ele>
        <time>2021-09-04T13:21:12Z</time>
      </trkpt>
      <trkpt lat="42.638175" lon="0.436197">
        <ele>2577.000000</ele>
        <time>2021-09-04T13:21:13Z</time>
      </trkpt>
      <trkpt lat="42.638182" lon="0.436212">
        <ele>2577.000000</ele>
        <time>2021-09-04T13:21:14Z</time>
      </trkpt>
      <trkpt lat="42.638188" lon="0.436215">
        <ele>2577.000000</ele>
        <time>2021-09-04T13:21:15Z</time>
      </trkpt>
      <trkpt lat="42.638198" lon="0.436222">
        <ele>2578.000000</ele>
        <time>2021-09-04T13:21:16Z</time>
      </trkpt>
      <trkpt lat="42.638203" lon="0.436227">
        <ele>2578.000000</ele>
        <time>2021-09-04T13:21:17Z</time>
      </trkpt>
      <trkpt lat="42.638208" lon="0.436225">
        <ele>2579.000000</ele>
        <time>2021-09-04T13:21:20Z</time>
      </trkpt>
      <trkpt lat="42.638208" lon="0.436222">
        <ele>2579.000000</ele>
        <time>2021-09-04T13:21:22Z</time>
      </trkpt>
      <trkpt lat="42.638208" lon="0.436210">
        <ele>2580.000000</ele>
        <time>2021-09-04T13:21:22Z</time>
      </trkpt>
      <trkpt lat="42.638208" lon="0.436203">
        <ele>2580.000000</ele>
        <time>2021-09-04T13:21:23Z</time>
      </trkpt>
      <trkpt lat="42.638210" lon="0.436197">
        <ele>2580.000000</ele>
        <time>2021-09-04T13:21:24Z</time>
      </trkpt>
      <trkpt lat="42.638213" lon="0.436190">
        <ele>2580.000000</ele>
        <time>2021-09-04T13:21:25Z</time>
      </trkpt>
      <trkpt lat="42.638218" lon="0.436188">
        <ele>2581.000000</ele>
        <time>2021-09-04T13:21:26Z</time>
      </trkpt>
      <trkpt lat="42.638221" lon="0.436187">
        <ele>2581.000000</ele>
        <time>2021-09-04T13:21:27Z</time>
      </trkpt>
      <trkpt lat="42.638228" lon="0.436187">
        <ele>2581.000000</ele>
        <time>2021-09-04T13:21:28Z</time>
      </trkpt>
      <trkpt lat="42.638235" lon="0.436185">
        <ele>2581.000000</ele>
        <time>2021-09-04T13:21:29Z</time>
      </trkpt>
      <trkpt lat="42.638242" lon="0.436188">
        <ele>2582.000000</ele>
        <time>2021-09-04T13:21:30Z</time>
      </trkpt>
      <trkpt lat="42.638247" lon="0.436190">
        <ele>2582.000000</ele>
        <time>2021-09-04T13:21:31Z</time>
      </trkpt>
      <trkpt lat="42.638253" lon="0.436193">
        <ele>2582.000000</ele>
        <time>2021-09-04T13:21:32Z</time>
      </trkpt>
      <trkpt lat="42.638260" lon="0.436193">
        <ele>2583.000000</ele>
        <time>2021-09-04T13:21:33Z</time>
      </trkpt>
      <trkpt lat="42.638268" lon="0.436195">
        <ele>2583.000000</ele>
        <time>2021-09-04T13:21:34Z</time>
      </trkpt>
      <trkpt lat="42.638275" lon="0.436199">
        <ele>2583.000000</ele>
        <time>2021-09-04T13:21:35Z</time>
      </trkpt>
      <trkpt lat="42.638278" lon="0.436200">
        <ele>2584.000000</ele>
        <time>2021-09-04T13:21:36Z</time>
      </trkpt>
      <trkpt lat="42.638282" lon="0.436202">
        <ele>2584.000000</ele>
        <time>2021-09-04T13:21:37Z</time>
      </trkpt>
      <trkpt lat="42.638285" lon="0.436203">
        <ele>2584.000000</ele>
        <time>2021-09-04T13:21:38Z</time>
      </trkpt>
      <trkpt lat="42.638290" lon="0.436207">
        <ele>2584.000000</ele>
        <time>2021-09-04T13:21:39Z</time>
      </trkpt>
      <trkpt lat="42.638298" lon="0.436213">
        <ele>2585.000000</ele>
        <time>2021-09-04T13:21:40Z</time>
      </trkpt>
      <trkpt lat="42.638308" lon="0.436219">
        <ele>2585.000000</ele>
        <time>2021-09-04T13:21:41Z</time>
      </trkpt>
      <trkpt lat="42.638313" lon="0.436222">
        <ele>2585.000000</ele>
        <time>2021-09-04T13:21:42Z</time>
      </trkpt>
      <trkpt lat="42.638315" lon="0.436223">
        <ele>2585.000000</ele>
        <time>2021-09-04T13:21:43Z</time>
      </trkpt>
      <trkpt lat="42.638315" lon="0.436224">
        <ele>2586.000000</ele>
        <time>2021-09-04T13:21:44Z</time>
      </trkpt>
      <trkpt lat="42.638317" lon="0.436225">
        <ele>2586.000000</ele>
        <time>2021-09-04T13:21:46Z</time>
      </trkpt>
      <trkpt lat="42.638320" lon="0.436227">
        <ele>2586.000000</ele>
        <time>2021-09-04T13:21:47Z</time>
      </trkpt>
      <trkpt lat="42.638323" lon="0.436229">
        <ele>2586.000000</ele>
        <time>2021-09-04T13:21:48Z</time>
      </trkpt>
      <trkpt lat="42.638325" lon="0.436229">
        <ele>2587.000000</ele>
        <time>2021-09-04T13:21:49Z</time>
      </trkpt>
      <trkpt lat="42.638333" lon="0.436232">
        <ele>2587.000000</ele>
        <time>2021-09-04T13:21:53Z</time>
      </trkpt>
      <trkpt lat="42.638337" lon="0.436222">
        <ele>2587.000000</ele>
        <time>2021-09-04T13:21:54Z</time>
      </trkpt>
      <trkpt lat="42.638338" lon="0.436218">
        <ele>2587.000000</ele>
        <time>2021-09-04T13:21:55Z</time>
      </trkpt>
      <trkpt lat="42.638340" lon="0.436215">
        <ele>2588.000000</ele>
        <time>2021-09-04T13:21:56Z</time>
      </trkpt>
      <trkpt lat="42.638342" lon="0.436212">
        <ele>2588.000000</ele>
        <time>2021-09-04T13:21:57Z</time>
      </trkpt>
      <trkpt lat="42.638343" lon="0.436207">
        <ele>2588.000000</ele>
        <time>2021-09-04T13:21:58Z</time>
      </trkpt>
      <trkpt lat="42.638342" lon="0.436198">
        <ele>2588.000000</ele>
        <time>2021-09-04T13:21:59Z</time>
      </trkpt>
      <trkpt lat="42.638347" lon="0.436192">
        <ele>2588.000000</ele>
        <time>2021-09-04T13:22:00Z</time>
      </trkpt>
      <trkpt lat="42.638351" lon="0.436187">
        <ele>2588.000000</ele>
        <time>2021-09-04T13:22:01Z</time>
      </trkpt>
      <trkpt lat="42.638360" lon="0.436183">
        <ele>2588.000000</ele>
        <time>2021-09-04T13:22:02Z</time>
      </trkpt>
      <trkpt lat="42.638365" lon="0.436183">
        <ele>2588.000000</ele>
        <time>2021-09-04T13:22:03Z</time>
      </trkpt>
      <trkpt lat="42.638372" lon="0.436185">
        <ele>2589.000000</ele>
        <time>2021-09-04T13:22:04Z</time>
      </trkpt>
      <trkpt lat="42.638377" lon="0.436187">
        <ele>2589.000000</ele>
        <time>2021-09-04T13:22:05Z</time>
      </trkpt>
      <trkpt lat="42.638383" lon="0.436185">
        <ele>2589.000000</ele>
        <time>2021-09-04T13:22:06Z</time>
      </trkpt>
      <trkpt lat="42.638390" lon="0.436186">
        <ele>2589.000000</ele>
        <time>2021-09-04T13:22:07Z</time>
      </trkpt>
      <trkpt lat="42.638393" lon="0.436186">
        <ele>2589.000000</ele>
        <time>2021-09-04T13:22:08Z</time>
      </trkpt>
      <trkpt lat="42.638402" lon="0.436186">
        <ele>2589.000000</ele>
        <time>2021-09-04T13:22:09Z</time>
      </trkpt>
      <trkpt lat="42.638408" lon="0.436186">
        <ele>2589.000000</ele>
        <time>2021-09-04T13:22:10Z</time>
      </trkpt>
      <trkpt lat="42.638413" lon="0.436188">
        <ele>2590.000000</ele>
        <time>2021-09-04T13:22:11Z</time>
      </trkpt>
      <trkpt lat="42.638418" lon="0.436191">
        <ele>2590.000000</ele>
        <time>2021-09-04T13:22:12Z</time>
      </trkpt>
      <trkpt lat="42.638422" lon="0.436191">
        <ele>2590.000000</ele>
        <time>2021-09-04T13:22:13Z</time>
      </trkpt>
      <trkpt lat="42.638430" lon="0.436193">
        <ele>2590.000000</ele>
        <time>2021-09-04T13:22:14Z</time>
      </trkpt>
      <trkpt lat="42.638437" lon="0.436195">
        <ele>2590.000000</ele>
        <time>2021-09-04T13:22:15Z</time>
      </trkpt>
      <trkpt lat="42.638442" lon="0.436195">
        <ele>2590.000000</ele>
        <time>2021-09-04T13:22:16Z</time>
      </trkpt>
      <trkpt lat="42.638448" lon="0.436193">
        <ele>2591.000000</ele>
        <time>2021-09-04T13:22:18Z</time>
      </trkpt>
      <trkpt lat="42.638453" lon="0.436188">
        <ele>2591.000000</ele>
        <time>2021-09-04T13:22:19Z</time>
      </trkpt>
      <trkpt lat="42.638457" lon="0.436187">
        <ele>2591.000000</ele>
        <time>2021-09-04T13:22:20Z</time>
      </trkpt>
      <trkpt lat="42.638460" lon="0.436185">
        <ele>2591.000000</ele>
        <time>2021-09-04T13:22:21Z</time>
      </trkpt>
      <trkpt lat="42.638463" lon="0.436183">
        <ele>2591.000000</ele>
        <time>2021-09-04T13:22:22Z</time>
      </trkpt>
      <trkpt lat="42.638465" lon="0.436180">
        <ele>2591.000000</ele>
        <time>2021-09-04T13:22:24Z</time>
      </trkpt>
      <trkpt lat="42.638468" lon="0.436173">
        <ele>2592.000000</ele>
        <time>2021-09-04T13:22:25Z</time>
      </trkpt>
      <trkpt lat="42.638472" lon="0.436170">
        <ele>2592.000000</ele>
        <time>2021-09-04T13:22:26Z</time>
      </trkpt>
      <trkpt lat="42.638473" lon="0.436166">
        <ele>2592.000000</ele>
        <time>2021-09-04T13:22:27Z</time>
      </trkpt>
      <trkpt lat="42.638477" lon="0.436163">
        <ele>2592.000000</ele>
        <time>2021-09-04T13:22:28Z</time>
      </trkpt>
      <trkpt lat="42.638482" lon="0.436159">
        <ele>2592.000000</ele>
        <time>2021-09-04T13:22:29Z</time>
      </trkpt>
      <trkpt lat="42.638485" lon="0.436155">
        <ele>2593.000000</ele>
        <time>2021-09-04T13:22:30Z</time>
      </trkpt>
      <trkpt lat="42.638487" lon="0.436153">
        <ele>2593.000000</ele>
        <time>2021-09-04T13:22:31Z</time>
      </trkpt>
      <trkpt lat="42.638490" lon="0.436149">
        <ele>2594.000000</ele>
        <time>2021-09-04T13:22:32Z</time>
      </trkpt>
      <trkpt lat="42.638490" lon="0.436147">
        <ele>2594.000000</ele>
        <time>2021-09-04T13:22:33Z</time>
      </trkpt>
      <trkpt lat="42.638492" lon="0.436138">
        <ele>2595.000000</ele>
        <time>2021-09-04T13:22:34Z</time>
      </trkpt>
      <trkpt lat="42.638495" lon="0.436133">
        <ele>2595.000000</ele>
        <time>2021-09-04T13:22:35Z</time>
      </trkpt>
      <trkpt lat="42.638495" lon="0.436122">
        <ele>2596.000000</ele>
        <time>2021-09-04T13:22:36Z</time>
      </trkpt>
      <trkpt lat="42.638495" lon="0.436113">
        <ele>2596.000000</ele>
        <time>2021-09-04T13:22:37Z</time>
      </trkpt>
      <trkpt lat="42.638493" lon="0.436105">
        <ele>2596.000000</ele>
        <time>2021-09-04T13:22:38Z</time>
      </trkpt>
      <trkpt lat="42.638490" lon="0.436095">
        <ele>2596.000000</ele>
        <time>2021-09-04T13:22:39Z</time>
      </trkpt>
      <trkpt lat="42.638490" lon="0.436090">
        <ele>2596.000000</ele>
        <time>2021-09-04T13:22:40Z</time>
      </trkpt>
      <trkpt lat="42.638490" lon="0.436085">
        <ele>2598.000000</ele>
        <time>2021-09-04T13:22:41Z</time>
      </trkpt>
      <trkpt lat="42.638489" lon="0.436082">
        <ele>2598.000000</ele>
        <time>2021-09-04T13:22:42Z</time>
      </trkpt>
      <trkpt lat="42.638488" lon="0.436077">
        <ele>2598.000000</ele>
        <time>2021-09-04T13:22:43Z</time>
      </trkpt>
      <trkpt lat="42.638490" lon="0.436073">
        <ele>2599.000000</ele>
        <time>2021-09-04T13:22:44Z</time>
      </trkpt>
      <trkpt lat="42.638493" lon="0.436068">
        <ele>2599.000000</ele>
        <time>2021-09-04T13:22:45Z</time>
      </trkpt>
      <trkpt lat="42.638495" lon="0.436065">
        <ele>2599.000000</ele>
        <time>2021-09-04T13:22:46Z</time>
      </trkpt>
      <trkpt lat="42.638498" lon="0.436055">
        <ele>2599.000000</ele>
        <time>2021-09-04T13:22:47Z</time>
      </trkpt>
      <trkpt lat="42.638501" lon="0.436052">
        <ele>2599.000000</ele>
        <time>2021-09-04T13:22:48Z</time>
      </trkpt>
      <trkpt lat="42.638502" lon="0.436052">
        <ele>2599.000000</ele>
        <time>2021-09-04T13:22:49Z</time>
      </trkpt>
      <trkpt lat="42.638506" lon="0.436045">
        <ele>2599.000000</ele>
        <time>2021-09-04T13:22:50Z</time>
      </trkpt>
      <trkpt lat="42.638508" lon="0.436035">
        <ele>2599.000000</ele>
        <time>2021-09-04T13:22:51Z</time>
      </trkpt>
      <trkpt lat="42.638508" lon="0.436030">
        <ele>2599.000000</ele>
        <time>2021-09-04T13:22:52Z</time>
      </trkpt>
      <trkpt lat="42.638509" lon="0.436027">
        <ele>2600.000000</ele>
        <time>2021-09-04T13:22:53Z</time>
      </trkpt>
      <trkpt lat="42.638508" lon="0.436017">
        <ele>2600.000000</ele>
        <time>2021-09-04T13:22:54Z</time>
      </trkpt>
      <trkpt lat="42.638505" lon="0.436007">
        <ele>2600.000000</ele>
        <time>2021-09-04T13:22:55Z</time>
      </trkpt>
      <trkpt lat="42.638505" lon="0.435998">
        <ele>2600.000000</ele>
        <time>2021-09-04T13:22:56Z</time>
      </trkpt>
      <trkpt lat="42.638503" lon="0.435995">
        <ele>2600.000000</ele>
        <time>2021-09-04T13:22:57Z</time>
      </trkpt>
      <trkpt lat="42.638508" lon="0.435993">
        <ele>2600.000000</ele>
        <time>2021-09-04T13:22:58Z</time>
      </trkpt>
      <trkpt lat="42.638512" lon="0.435988">
        <ele>2601.000000</ele>
        <time>2021-09-04T13:22:59Z</time>
      </trkpt>
      <trkpt lat="42.638515" lon="0.435987">
        <ele>2601.000000</ele>
        <time>2021-09-04T13:23:00Z</time>
      </trkpt>
      <trkpt lat="42.638520" lon="0.435987">
        <ele>2601.000000</ele>
        <time>2021-09-04T13:23:01Z</time>
      </trkpt>
      <trkpt lat="42.638525" lon="0.435987">
        <ele>2601.000000</ele>
        <time>2021-09-04T13:23:02Z</time>
      </trkpt>
      <trkpt lat="42.638530" lon="0.435988">
        <ele>2601.000000</ele>
        <time>2021-09-04T13:23:03Z</time>
      </trkpt>
      <trkpt lat="42.638535" lon="0.435990">
        <ele>2601.000000</ele>
        <time>2021-09-04T13:23:04Z</time>
      </trkpt>
      <trkpt lat="42.638542" lon="0.435993">
        <ele>2601.000000</ele>
        <time>2021-09-04T13:23:05Z</time>
      </trkpt>
      <trkpt lat="42.638547" lon="0.436000">
        <ele>2601.000000</ele>
        <time>2021-09-04T13:23:06Z</time>
      </trkpt>
      <trkpt lat="42.638552" lon="0.436005">
        <ele>2601.000000</ele>
        <time>2021-09-04T13:23:07Z</time>
      </trkpt>
      <trkpt lat="42.638560" lon="0.436007">
        <ele>2601.000000</ele>
        <time>2021-09-04T13:23:08Z</time>
      </trkpt>
      <trkpt lat="42.638565" lon="0.436008">
        <ele>2601.000000</ele>
        <time>2021-09-04T13:23:09Z</time>
      </trkpt>
      <trkpt lat="42.638568" lon="0.436009">
        <ele>2601.000000</ele>
        <time>2021-09-04T13:23:10Z</time>
      </trkpt>
      <trkpt lat="42.638572" lon="0.436010">
        <ele>2600.000000</ele>
        <time>2021-09-04T13:23:11Z</time>
      </trkpt>
      <trkpt lat="42.638577" lon="0.436011">
        <ele>2600.000000</ele>
        <time>2021-09-04T13:23:12Z</time>
      </trkpt>
      <trkpt lat="42.638578" lon="0.436009">
        <ele>2600.000000</ele>
        <time>2021-09-04T13:23:14Z</time>
      </trkpt>
      <trkpt lat="42.638582" lon="0.436007">
        <ele>2600.000000</ele>
        <time>2021-09-04T13:23:15Z</time>
      </trkpt>
      <trkpt lat="42.638585" lon="0.436004">
        <ele>2600.000000</ele>
        <time>2021-09-04T13:23:16Z</time>
      </trkpt>
      <trkpt lat="42.638588" lon="0.436002">
        <ele>2600.000000</ele>
        <time>2021-09-04T13:23:17Z</time>
      </trkpt>
      <trkpt lat="42.638590" lon="0.436000">
        <ele>2600.000000</ele>
        <time>2021-09-04T13:23:18Z</time>
      </trkpt>
      <trkpt lat="42.638595" lon="0.435998">
        <ele>2600.000000</ele>
        <time>2021-09-04T13:23:19Z</time>
      </trkpt>
      <trkpt lat="42.638600" lon="0.435996">
        <ele>2600.000000</ele>
        <time>2021-09-04T13:23:20Z</time>
      </trkpt>
      <trkpt lat="42.638605" lon="0.435994">
        <ele>2600.000000</ele>
        <time>2021-09-04T13:23:21Z</time>
      </trkpt>
      <trkpt lat="42.638610" lon="0.435992">
        <ele>2600.000000</ele>
        <time>2021-09-04T13:23:22Z</time>
      </trkpt>
      <trkpt lat="42.638615" lon="0.435990">
        <ele>2600.000000</ele>
        <time>2021-09-04T13:23:23Z</time>
      </trkpt>
      <trkpt lat="42.638620" lon="0.435988">
        <ele>2600.000000</ele>
        <time>2021-09-04T13:23:24Z</time>
      </trkpt>
      <trkpt lat="42.638623" lon="0.435987">
        <ele>2600.000000</ele>
        <time>2021-09-04T13:23:25Z</time>
      </trkpt>
      <trkpt lat="42.638628" lon="0.435986">
        <ele>2600.000000</ele>
        <time>2021-09-04T13:23:26Z</time>
      </trkpt>
      <trkpt lat="42.638633" lon="0.435985">
        <ele>2600.000000</ele>
        <time>2021-09-04T13:23:28Z</time>
      </trkpt>
      <trkpt lat="42.638640" lon="0.435983">
        <ele>2600.000000</ele>
        <time>2021-09-04T13:23:29Z</time>
      </trkpt>
      <trkpt lat="42.638647" lon="0.435981">
        <ele>2600.000000</ele>
        <time>2021-09-04T13:23:30Z</time>
      </trkpt>
      <trkpt lat="42.638652" lon="0.435979">
        <ele>2600.000000</ele>
        <time>2021-09-04T13:23:31Z</time>
      </trkpt>
      <trkpt lat="42.638657" lon="0.435977">
        <ele>2600.000000</ele>
        <time>2021-09-04T13:23:32Z</time>
      </trkpt>
      <trkpt lat="42.638660" lon="0.435976">
        <ele>2600.000000</ele>
        <time>2021-09-04T13:23:33Z</time>
      </trkpt>
      <trkpt lat="42.638662" lon="0.435970">
        <ele>2601.000000</ele>
        <time>2021-09-04T13:23:36Z</time>
      </trkpt>
      <trkpt lat="42.638663" lon="0.435963">
        <ele>2601.000000</ele>
        <time>2021-09-04T13:23:37Z</time>
      </trkpt>
      <trkpt lat="42.638665" lon="0.435958">
        <ele>2602.000000</ele>
        <time>2021-09-04T13:23:38Z</time>
      </trkpt>
      <trkpt lat="42.638667" lon="0.435957">
        <ele>2602.000000</ele>
        <time>2021-09-04T13:23:39Z</time>
      </trkpt>
      <trkpt lat="42.638668" lon="0.435953">
        <ele>2602.000000</ele>
        <time>2021-09-04T13:23:41Z</time>
      </trkpt>
      <trkpt lat="42.638667" lon="0.435948">
        <ele>2602.000000</ele>
        <time>2021-09-04T13:23:42Z</time>
      </trkpt>
      <trkpt lat="42.638663" lon="0.435945">
        <ele>2603.000000</ele>
        <time>2021-09-04T13:23:43Z</time>
      </trkpt>
      <trkpt lat="42.638663" lon="0.435937">
        <ele>2603.000000</ele>
        <time>2021-09-04T13:23:45Z</time>
      </trkpt>
      <trkpt lat="42.638662" lon="0.435928">
        <ele>2603.000000</ele>
        <time>2021-09-04T13:23:46Z</time>
      </trkpt>
      <trkpt lat="42.638662" lon="0.435918">
        <ele>2604.000000</ele>
        <time>2021-09-04T13:23:47Z</time>
      </trkpt>
      <trkpt lat="42.638662" lon="0.435915">
        <ele>2604.000000</ele>
        <time>2021-09-04T13:23:48Z</time>
      </trkpt>
      <trkpt lat="42.638663" lon="0.435907">
        <ele>2604.000000</ele>
        <time>2021-09-04T13:23:49Z</time>
      </trkpt>
      <trkpt lat="42.638666" lon="0.435903">
        <ele>2604.000000</ele>
        <time>2021-09-04T13:23:50Z</time>
      </trkpt>
      <trkpt lat="42.638673" lon="0.435900">
        <ele>2605.000000</ele>
        <time>2021-09-04T13:23:51Z</time>
      </trkpt>
      <trkpt lat="42.638677" lon="0.435898">
        <ele>2605.000000</ele>
        <time>2021-09-04T13:23:53Z</time>
      </trkpt>
      <trkpt lat="42.638680" lon="0.435898">
        <ele>2605.000000</ele>
        <time>2021-09-04T13:23:54Z</time>
      </trkpt>
      <trkpt lat="42.638685" lon="0.435895">
        <ele>2606.000000</ele>
        <time>2021-09-04T13:23:55Z</time>
      </trkpt>
      <trkpt lat="42.638690" lon="0.435892">
        <ele>2606.000000</ele>
        <time>2021-09-04T13:23:56Z</time>
      </trkpt>
      <trkpt lat="42.638693" lon="0.435888">
        <ele>2606.000000</ele>
        <time>2021-09-04T13:23:57Z</time>
      </trkpt>
      <trkpt lat="42.638695" lon="0.435885">
        <ele>2606.000000</ele>
        <time>2021-09-04T13:23:58Z</time>
      </trkpt>
      <trkpt lat="42.638695" lon="0.435878">
        <ele>2606.000000</ele>
        <time>2021-09-04T13:23:59Z</time>
      </trkpt>
      <trkpt lat="42.638698" lon="0.435870">
        <ele>2606.000000</ele>
        <time>2021-09-04T13:24:00Z</time>
      </trkpt>
      <trkpt lat="42.638700" lon="0.435867">
        <ele>2606.000000</ele>
        <time>2021-09-04T13:24:01Z</time>
      </trkpt>
      <trkpt lat="42.638703" lon="0.435863">
        <ele>2606.000000</ele>
        <time>2021-09-04T13:24:02Z</time>
      </trkpt>
      <trkpt lat="42.638705" lon="0.435860">
        <ele>2606.000000</ele>
        <time>2021-09-04T13:24:03Z</time>
      </trkpt>
      <trkpt lat="42.638710" lon="0.435857">
        <ele>2606.000000</ele>
        <time>2021-09-04T13:24:04Z</time>
      </trkpt>
      <trkpt lat="42.638715" lon="0.435852">
        <ele>2606.000000</ele>
        <time>2021-09-04T13:24:05Z</time>
      </trkpt>
      <trkpt lat="42.638720" lon="0.435848">
        <ele>2606.000000</ele>
        <time>2021-09-04T13:24:06Z</time>
      </trkpt>
      <trkpt lat="42.638723" lon="0.435845">
        <ele>2606.000000</ele>
        <time>2021-09-04T13:24:07Z</time>
      </trkpt>
      <trkpt lat="42.638728" lon="0.435842">
        <ele>2606.000000</ele>
        <time>2021-09-04T13:24:08Z</time>
      </trkpt>
      <trkpt lat="42.638728" lon="0.435840">
        <ele>2606.000000</ele>
        <time>2021-09-04T13:24:09Z</time>
      </trkpt>
      <trkpt lat="42.638728" lon="0.435838">
        <ele>2606.000000</ele>
        <time>2021-09-04T13:24:10Z</time>
      </trkpt>
      <trkpt lat="42.638730" lon="0.435828">
        <ele>2606.000000</ele>
        <time>2021-09-04T13:24:12Z</time>
      </trkpt>
      <trkpt lat="42.638730" lon="0.435823">
        <ele>2606.000000</ele>
        <time>2021-09-04T13:24:13Z</time>
      </trkpt>
      <trkpt lat="42.638730" lon="0.435820">
        <ele>2606.000000</ele>
        <time>2021-09-04T13:24:14Z</time>
      </trkpt>
      <trkpt lat="42.638728" lon="0.435815">
        <ele>2606.000000</ele>
        <time>2021-09-04T13:24:15Z</time>
      </trkpt>
      <trkpt lat="42.638730" lon="0.435808">
        <ele>2606.000000</ele>
        <time>2021-09-04T13:24:16Z</time>
      </trkpt>
      <trkpt lat="42.638730" lon="0.435802">
        <ele>2606.000000</ele>
        <time>2021-09-04T13:24:17Z</time>
      </trkpt>
      <trkpt lat="42.638733" lon="0.435798">
        <ele>2606.000000</ele>
        <time>2021-09-04T13:24:18Z</time>
      </trkpt>
      <trkpt lat="42.638736" lon="0.435793">
        <ele>2606.000000</ele>
        <time>2021-09-04T13:24:19Z</time>
      </trkpt>
      <trkpt lat="42.638740" lon="0.435788">
        <ele>2606.000000</ele>
        <time>2021-09-04T13:24:20Z</time>
      </trkpt>
      <trkpt lat="42.638745" lon="0.435788">
        <ele>2606.000000</ele>
        <time>2021-09-04T13:24:22Z</time>
      </trkpt>
      <trkpt lat="42.638750" lon="0.435788">
        <ele>2606.000000</ele>
        <time>2021-09-04T13:24:22Z</time>
      </trkpt>
      <trkpt lat="42.638752" lon="0.435787">
        <ele>2606.000000</ele>
        <time>2021-09-04T13:24:23Z</time>
      </trkpt>
      <trkpt lat="42.638755" lon="0.435785">
        <ele>2606.000000</ele>
        <time>2021-09-04T13:24:24Z</time>
      </trkpt>
      <trkpt lat="42.638758" lon="0.435785">
        <ele>2606.000000</ele>
        <time>2021-09-04T13:24:25Z</time>
      </trkpt>
      <trkpt lat="42.638762" lon="0.435782">
        <ele>2606.000000</ele>
        <time>2021-09-04T13:24:26Z</time>
      </trkpt>
      <trkpt lat="42.638765" lon="0.435777">
        <ele>2606.000000</ele>
        <time>2021-09-04T13:24:27Z</time>
      </trkpt>
      <trkpt lat="42.638765" lon="0.435772">
        <ele>2606.000000</ele>
        <time>2021-09-04T13:24:28Z</time>
      </trkpt>
      <trkpt lat="42.638767" lon="0.435770">
        <ele>2606.000000</ele>
        <time>2021-09-04T13:24:29Z</time>
      </trkpt>
      <trkpt lat="42.638770" lon="0.435768">
        <ele>2606.000000</ele>
        <time>2021-09-04T13:24:30Z</time>
      </trkpt>
      <trkpt lat="42.638775" lon="0.435770">
        <ele>2606.000000</ele>
        <time>2021-09-04T13:24:31Z</time>
      </trkpt>
      <trkpt lat="42.638778" lon="0.435770">
        <ele>2606.000000</ele>
        <time>2021-09-04T13:24:31Z</time>
      </trkpt>
      <trkpt lat="42.638782" lon="0.435768">
        <ele>2606.000000</ele>
        <time>2021-09-04T13:24:32Z</time>
      </trkpt>
      <trkpt lat="42.638783" lon="0.435772">
        <ele>2606.000000</ele>
        <time>2021-09-04T13:24:33Z</time>
      </trkpt>
      <trkpt lat="42.638787" lon="0.435773">
        <ele>2606.000000</ele>
        <time>2021-09-04T13:24:34Z</time>
      </trkpt>
      <trkpt lat="42.638790" lon="0.435772">
        <ele>2606.000000</ele>
        <time>2021-09-04T13:24:35Z</time>
      </trkpt>
      <trkpt lat="42.638795" lon="0.435771">
        <ele>2606.000000</ele>
        <time>2021-09-04T13:24:36Z</time>
      </trkpt>
      <trkpt lat="42.638798" lon="0.435771">
        <ele>2606.000000</ele>
        <time>2021-09-04T13:24:37Z</time>
      </trkpt>
      <trkpt lat="42.638802" lon="0.435773">
        <ele>2606.000000</ele>
        <time>2021-09-04T13:24:38Z</time>
      </trkpt>
      <trkpt lat="42.638808" lon="0.435774">
        <ele>2606.000000</ele>
        <time>2021-09-04T13:24:39Z</time>
      </trkpt>
      <trkpt lat="42.638813" lon="0.435777">
        <ele>2606.000000</ele>
        <time>2021-09-04T13:24:40Z</time>
      </trkpt>
      <trkpt lat="42.638820" lon="0.435779">
        <ele>2606.000000</ele>
        <time>2021-09-04T13:24:41Z</time>
      </trkpt>
      <trkpt lat="42.638823" lon="0.435780">
        <ele>2606.000000</ele>
        <time>2021-09-04T13:24:42Z</time>
      </trkpt>
      <trkpt lat="42.638827" lon="0.435777">
        <ele>2606.000000</ele>
        <time>2021-09-04T13:24:43Z</time>
      </trkpt>
      <trkpt lat="42.638833" lon="0.435773">
        <ele>2606.000000</ele>
        <time>2021-09-04T13:24:44Z</time>
      </trkpt>
      <trkpt lat="42.638838" lon="0.435770">
        <ele>2606.000000</ele>
        <time>2021-09-04T13:24:45Z</time>
      </trkpt>
      <trkpt lat="42.638842" lon="0.435767">
        <ele>2606.000000</ele>
        <time>2021-09-04T13:24:46Z</time>
      </trkpt>
      <trkpt lat="42.638845" lon="0.435762">
        <ele>2606.000000</ele>
        <time>2021-09-04T13:24:47Z</time>
      </trkpt>
      <trkpt lat="42.638847" lon="0.435760">
        <ele>2606.000000</ele>
        <time>2021-09-04T13:24:48Z</time>
      </trkpt>
      <trkpt lat="42.638850" lon="0.435760">
        <ele>2606.000000</ele>
        <time>2021-09-04T13:24:49Z</time>
      </trkpt>
      <trkpt lat="42.638853" lon="0.435759">
        <ele>2606.000000</ele>
        <time>2021-09-04T13:24:50Z</time>
      </trkpt>
      <trkpt lat="42.638857" lon="0.435756">
        <ele>2606.000000</ele>
        <time>2021-09-04T13:24:51Z</time>
      </trkpt>
      <trkpt lat="42.638860" lon="0.435750">
        <ele>2606.000000</ele>
        <time>2021-09-04T13:24:52Z</time>
      </trkpt>
      <trkpt lat="42.638863" lon="0.435743">
        <ele>2606.000000</ele>
        <time>2021-09-04T13:24:53Z</time>
      </trkpt>
      <trkpt lat="42.638868" lon="0.435740">
        <ele>2606.000000</ele>
        <time>2021-09-04T13:24:54Z</time>
      </trkpt>
      <trkpt lat="42.638873" lon="0.435738">
        <ele>2606.000000</ele>
        <time>2021-09-04T13:24:55Z</time>
      </trkpt>
      <trkpt lat="42.638878" lon="0.435735">
        <ele>2606.000000</ele>
        <time>2021-09-04T13:24:56Z</time>
      </trkpt>
      <trkpt lat="42.638882" lon="0.435732">
        <ele>2609.000000</ele>
        <time>2021-09-04T13:24:57Z</time>
      </trkpt>
      <trkpt lat="42.638883" lon="0.435729">
        <ele>2609.000000</ele>
        <time>2021-09-04T13:24:58Z</time>
      </trkpt>
      <trkpt lat="42.638885" lon="0.435726">
        <ele>2609.000000</ele>
        <time>2021-09-04T13:24:59Z</time>
      </trkpt>
      <trkpt lat="42.638888" lon="0.435721">
        <ele>2610.000000</ele>
        <time>2021-09-04T13:25:00Z</time>
      </trkpt>
      <trkpt lat="42.638888" lon="0.435710">
        <ele>2610.000000</ele>
        <time>2021-09-04T13:25:01Z</time>
      </trkpt>
      <trkpt lat="42.638888" lon="0.435705">
        <ele>2610.000000</ele>
        <time>2021-09-04T13:25:02Z</time>
      </trkpt>
      <trkpt lat="42.638890" lon="0.435698">
        <ele>2610.000000</ele>
        <time>2021-09-04T13:25:03Z</time>
      </trkpt>
      <trkpt lat="42.638890" lon="0.435692">
        <ele>2610.000000</ele>
        <time>2021-09-04T13:25:04Z</time>
      </trkpt>
      <trkpt lat="42.638895" lon="0.435683">
        <ele>2610.000000</ele>
        <time>2021-09-04T13:25:05Z</time>
      </trkpt>
      <trkpt lat="42.638899" lon="0.435675">
        <ele>2610.000000</ele>
        <time>2021-09-04T13:25:06Z</time>
      </trkpt>
      <trkpt lat="42.638901" lon="0.435672">
        <ele>2610.000000</ele>
        <time>2021-09-04T13:25:07Z</time>
      </trkpt>
      <trkpt lat="42.638904" lon="0.435665">
        <ele>2610.000000</ele>
        <time>2021-09-04T13:25:08Z</time>
      </trkpt>
      <trkpt lat="42.638904" lon="0.435662">
        <ele>2610.000000</ele>
        <time>2021-09-04T13:25:09Z</time>
      </trkpt>
      <trkpt lat="42.638905" lon="0.435658">
        <ele>2610.000000</ele>
        <time>2021-09-04T13:25:10Z</time>
      </trkpt>
      <trkpt lat="42.638906" lon="0.435655">
        <ele>2610.000000</ele>
        <time>2021-09-04T13:25:11Z</time>
      </trkpt>
      <trkpt lat="42.638908" lon="0.435652">
        <ele>2610.000000</ele>
        <time>2021-09-04T13:25:12Z</time>
      </trkpt>
      <trkpt lat="42.638910" lon="0.435648">
        <ele>2610.000000</ele>
        <time>2021-09-04T13:25:13Z</time>
      </trkpt>
      <trkpt lat="42.638912" lon="0.435647">
        <ele>2610.000000</ele>
        <time>2021-09-04T13:25:14Z</time>
      </trkpt>
      <trkpt lat="42.638917" lon="0.435643">
        <ele>2610.000000</ele>
        <time>2021-09-04T13:25:15Z</time>
      </trkpt>
      <trkpt lat="42.638918" lon="0.435639">
        <ele>2610.000000</ele>
        <time>2021-09-04T13:25:17Z</time>
      </trkpt>
      <trkpt lat="42.638920" lon="0.435637">
        <ele>2610.000000</ele>
        <time>2021-09-04T13:25:18Z</time>
      </trkpt>
      <trkpt lat="42.638918" lon="0.435632">
        <ele>2610.000000</ele>
        <time>2021-09-04T13:25:19Z</time>
      </trkpt>
      <trkpt lat="42.638915" lon="0.435627">
        <ele>2610.000000</ele>
        <time>2021-09-04T13:25:20Z</time>
      </trkpt>
      <trkpt lat="42.638918" lon="0.435618">
        <ele>2610.000000</ele>
        <time>2021-09-04T13:25:22Z</time>
      </trkpt>
      <trkpt lat="42.638923" lon="0.435610">
        <ele>2610.000000</ele>
        <time>2021-09-04T13:25:23Z</time>
      </trkpt>
      <trkpt lat="42.638925" lon="0.435605">
        <ele>2610.000000</ele>
        <time>2021-09-04T13:25:24Z</time>
      </trkpt>
      <trkpt lat="42.638927" lon="0.435597">
        <ele>2610.000000</ele>
        <time>2021-09-04T13:25:25Z</time>
      </trkpt>
      <trkpt lat="42.638929" lon="0.435588">
        <ele>2610.000000</ele>
        <time>2021-09-04T13:25:26Z</time>
      </trkpt>
      <trkpt lat="42.638931" lon="0.435585">
        <ele>2610.000000</ele>
        <time>2021-09-04T13:25:27Z</time>
      </trkpt>
      <trkpt lat="42.638932" lon="0.435582">
        <ele>2610.000000</ele>
        <time>2021-09-04T13:25:28Z</time>
      </trkpt>
      <trkpt lat="42.638938" lon="0.435577">
        <ele>2610.000000</ele>
        <time>2021-09-04T13:25:29Z</time>
      </trkpt>
      <trkpt lat="42.638938" lon="0.435573">
        <ele>2610.000000</ele>
        <time>2021-09-04T13:25:30Z</time>
      </trkpt>
      <trkpt lat="42.638942" lon="0.435570">
        <ele>2610.000000</ele>
        <time>2021-09-04T13:25:31Z</time>
      </trkpt>
      <trkpt lat="42.638945" lon="0.435570">
        <ele>2610.000000</ele>
        <time>2021-09-04T13:25:32Z</time>
      </trkpt>
      <trkpt lat="42.638947" lon="0.435569">
        <ele>2610.000000</ele>
        <time>2021-09-04T13:25:33Z</time>
      </trkpt>
      <trkpt lat="42.638950" lon="0.435565">
        <ele>2610.000000</ele>
        <time>2021-09-04T13:25:34Z</time>
      </trkpt>
      <trkpt lat="42.638948" lon="0.435562">
        <ele>2611.000000</ele>
        <time>2021-09-04T13:25:35Z</time>
      </trkpt>
      <trkpt lat="42.638950" lon="0.435555">
        <ele>2611.000000</ele>
        <time>2021-09-04T13:25:36Z</time>
      </trkpt>
      <trkpt lat="42.638948" lon="0.435547">
        <ele>2612.000000</ele>
        <time>2021-09-04T13:25:37Z</time>
      </trkpt>
      <trkpt lat="42.638948" lon="0.435542">
        <ele>2612.000000</ele>
        <time>2021-09-04T13:25:38Z</time>
      </trkpt>
      <trkpt lat="42.638947" lon="0.435533">
        <ele>2613.000000</ele>
        <time>2021-09-04T13:25:39Z</time>
      </trkpt>
      <trkpt lat="42.638945" lon="0.435523">
        <ele>2613.000000</ele>
        <time>2021-09-04T13:25:40Z</time>
      </trkpt>
      <trkpt lat="42.638947" lon="0.435520">
        <ele>2614.000000</ele>
        <time>2021-09-04T13:25:41Z</time>
      </trkpt>
      <trkpt lat="42.638952" lon="0.435517">
        <ele>2614.000000</ele>
        <time>2021-09-04T13:25:43Z</time>
      </trkpt>
      <trkpt lat="42.638957" lon="0.435515">
        <ele>2616.000000</ele>
        <time>2021-09-04T13:25:44Z</time>
      </trkpt>
      <trkpt lat="42.638962" lon="0.435517">
        <ele>2616.000000</ele>
        <time>2021-09-04T13:25:45Z</time>
      </trkpt>
      <trkpt lat="42.638965" lon="0.435518">
        <ele>2616.000000</ele>
        <time>2021-09-04T13:25:46Z</time>
      </trkpt>
      <trkpt lat="42.638970" lon="0.435515">
        <ele>2617.000000</ele>
        <time>2021-09-04T13:25:47Z</time>
      </trkpt>
      <trkpt lat="42.638973" lon="0.435513">
        <ele>2617.000000</ele>
        <time>2021-09-04T13:25:48Z</time>
      </trkpt>
      <trkpt lat="42.638978" lon="0.435516">
        <ele>2618.000000</ele>
        <time>2021-09-04T13:25:49Z</time>
      </trkpt>
      <trkpt lat="42.638982" lon="0.435518">
        <ele>2618.000000</ele>
        <time>2021-09-04T13:25:50Z</time>
      </trkpt>
      <trkpt lat="42.638987" lon="0.435518">
        <ele>2618.000000</ele>
        <time>2021-09-04T13:25:51Z</time>
      </trkpt>
      <trkpt lat="42.638993" lon="0.435520">
        <ele>2619.000000</ele>
        <time>2021-09-04T13:25:53Z</time>
      </trkpt>
      <trkpt lat="42.638998" lon="0.435522">
        <ele>2619.000000</ele>
        <time>2021-09-04T13:25:54Z</time>
      </trkpt>
      <trkpt lat="42.639003" lon="0.435523">
        <ele>2620.000000</ele>
        <time>2021-09-04T13:25:55Z</time>
      </trkpt>
      <trkpt lat="42.639007" lon="0.435523">
        <ele>2620.000000</ele>
        <time>2021-09-04T13:25:56Z</time>
      </trkpt>
      <trkpt lat="42.639010" lon="0.435524">
        <ele>2620.000000</ele>
        <time>2021-09-04T13:25:57Z</time>
      </trkpt>
      <trkpt lat="42.639013" lon="0.435524">
        <ele>2621.000000</ele>
        <time>2021-09-04T13:25:58Z</time>
      </trkpt>
      <trkpt lat="42.639018" lon="0.435526">
        <ele>2621.000000</ele>
        <time>2021-09-04T13:25:59Z</time>
      </trkpt>
      <trkpt lat="42.639025" lon="0.435529">
        <ele>2621.000000</ele>
        <time>2021-09-04T13:26:00Z</time>
      </trkpt>
      <trkpt lat="42.639028" lon="0.435530">
        <ele>2621.000000</ele>
        <time>2021-09-04T13:26:01Z</time>
      </trkpt>
      <trkpt lat="42.639035" lon="0.435532">
        <ele>2621.000000</ele>
        <time>2021-09-04T13:26:02Z</time>
      </trkpt>
      <trkpt lat="42.639037" lon="0.435532">
        <ele>2622.000000</ele>
        <time>2021-09-04T13:26:04Z</time>
      </trkpt>
      <trkpt lat="42.639037" lon="0.435527">
        <ele>2622.000000</ele>
        <time>2021-09-04T13:26:05Z</time>
      </trkpt>
      <trkpt lat="42.639037" lon="0.435522">
        <ele>2622.000000</ele>
        <time>2021-09-04T13:26:06Z</time>
      </trkpt>
      <trkpt lat="42.639037" lon="0.435518">
        <ele>2623.000000</ele>
        <time>2021-09-04T13:26:07Z</time>
      </trkpt>
      <trkpt lat="42.639038" lon="0.435512">
        <ele>2623.000000</ele>
        <time>2021-09-04T13:26:08Z</time>
      </trkpt>
      <trkpt lat="42.639040" lon="0.435505">
        <ele>2623.000000</ele>
        <time>2021-09-04T13:26:09Z</time>
      </trkpt>
      <trkpt lat="42.639042" lon="0.435497">
        <ele>2624.000000</ele>
        <time>2021-09-04T13:26:11Z</time>
      </trkpt>
      <trkpt lat="42.639046" lon="0.435490">
        <ele>2624.000000</ele>
        <time>2021-09-04T13:26:13Z</time>
      </trkpt>
      <trkpt lat="42.639048" lon="0.435488">
        <ele>2624.000000</ele>
        <time>2021-09-04T13:26:13Z</time>
      </trkpt>
      <trkpt lat="42.639053" lon="0.435487">
        <ele>2625.000000</ele>
        <time>2021-09-04T13:26:14Z</time>
      </trkpt>
      <trkpt lat="42.639057" lon="0.435483">
        <ele>2625.000000</ele>
        <time>2021-09-04T13:26:15Z</time>
      </trkpt>
      <trkpt lat="42.639060" lon="0.435478">
        <ele>2626.000000</ele>
        <time>2021-09-04T13:26:16Z</time>
      </trkpt>
      <trkpt lat="42.639063" lon="0.435475">
        <ele>2626.000000</ele>
        <time>2021-09-04T13:26:17Z</time>
      </trkpt>
      <trkpt lat="42.639067" lon="0.435472">
        <ele>2626.000000</ele>
        <time>2021-09-04T13:26:18Z</time>
      </trkpt>
      <trkpt lat="42.639073" lon="0.435466">
        <ele>2626.000000</ele>
        <time>2021-09-04T13:26:19Z</time>
      </trkpt>
      <trkpt lat="42.639080" lon="0.435463">
        <ele>2627.000000</ele>
        <time>2021-09-04T13:26:20Z</time>
      </trkpt>
      <trkpt lat="42.639083" lon="0.435462">
        <ele>2627.000000</ele>
        <time>2021-09-04T13:26:21Z</time>
      </trkpt>
      <trkpt lat="42.639090" lon="0.435462">
        <ele>2627.000000</ele>
        <time>2021-09-04T13:26:22Z</time>
      </trkpt>
      <trkpt lat="42.639100" lon="0.435468">
        <ele>2627.000000</ele>
        <time>2021-09-04T13:26:23Z</time>
      </trkpt>
      <trkpt lat="42.639107" lon="0.435470">
        <ele>2628.000000</ele>
        <time>2021-09-04T13:26:24Z</time>
      </trkpt>
      <trkpt lat="42.639113" lon="0.435473">
        <ele>2628.000000</ele>
        <time>2021-09-04T13:26:25Z</time>
      </trkpt>
      <trkpt lat="42.639120" lon="0.435475">
        <ele>2628.000000</ele>
        <time>2021-09-04T13:26:26Z</time>
      </trkpt>
      <trkpt lat="42.639125" lon="0.435478">
        <ele>2628.000000</ele>
        <time>2021-09-04T13:26:27Z</time>
      </trkpt>
      <trkpt lat="42.639132" lon="0.435479">
        <ele>2629.000000</ele>
        <time>2021-09-04T13:26:29Z</time>
      </trkpt>
      <trkpt lat="42.639137" lon="0.435480">
        <ele>2629.000000</ele>
        <time>2021-09-04T13:26:30Z</time>
      </trkpt>
      <trkpt lat="42.639142" lon="0.435481">
        <ele>2629.000000</ele>
        <time>2021-09-04T13:26:31Z</time>
      </trkpt>
      <trkpt lat="42.639145" lon="0.435480">
        <ele>2629.000000</ele>
        <time>2021-09-04T13:26:32Z</time>
      </trkpt>
      <trkpt lat="42.639148" lon="0.435481">
        <ele>2629.000000</ele>
        <time>2021-09-04T13:26:33Z</time>
      </trkpt>
      <trkpt lat="42.639152" lon="0.435481">
        <ele>2629.000000</ele>
        <time>2021-09-04T13:26:34Z</time>
      </trkpt>
      <trkpt lat="42.639157" lon="0.435481">
        <ele>2629.000000</ele>
        <time>2021-09-04T13:26:35Z</time>
      </trkpt>
      <trkpt lat="42.639160" lon="0.435480">
        <ele>2629.000000</ele>
        <time>2021-09-04T13:26:36Z</time>
      </trkpt>
      <trkpt lat="42.639162" lon="0.435480">
        <ele>2629.000000</ele>
        <time>2021-09-04T13:26:37Z</time>
      </trkpt>
      <trkpt lat="42.639168" lon="0.435482">
        <ele>2629.000000</ele>
        <time>2021-09-04T13:26:38Z</time>
      </trkpt>
      <trkpt lat="42.639173" lon="0.435483">
        <ele>2629.000000</ele>
        <time>2021-09-04T13:26:39Z</time>
      </trkpt>
      <trkpt lat="42.639178" lon="0.435484">
        <ele>2629.000000</ele>
        <time>2021-09-04T13:26:40Z</time>
      </trkpt>
      <trkpt lat="42.639183" lon="0.435486">
        <ele>2629.000000</ele>
        <time>2021-09-04T13:26:41Z</time>
      </trkpt>
      <trkpt lat="42.639188" lon="0.435487">
        <ele>2629.000000</ele>
        <time>2021-09-04T13:26:42Z</time>
      </trkpt>
      <trkpt lat="42.639193" lon="0.435488">
        <ele>2629.000000</ele>
        <time>2021-09-04T13:26:43Z</time>
      </trkpt>
      <trkpt lat="42.639198" lon="0.435489">
        <ele>2629.000000</ele>
        <time>2021-09-04T13:26:44Z</time>
      </trkpt>
      <trkpt lat="42.639203" lon="0.435490">
        <ele>2629.000000</ele>
        <time>2021-09-04T13:26:45Z</time>
      </trkpt>
      <trkpt lat="42.639207" lon="0.435491">
        <ele>2629.000000</ele>
        <time>2021-09-04T13:26:46Z</time>
      </trkpt>
      <trkpt lat="42.639208" lon="0.435500">
        <ele>2629.000000</ele>
        <time>2021-09-04T13:26:47Z</time>
      </trkpt>
      <trkpt lat="42.639210" lon="0.435508">
        <ele>2629.000000</ele>
        <time>2021-09-04T13:26:48Z</time>
      </trkpt>
      <trkpt lat="42.639212" lon="0.435517">
        <ele>2629.000000</ele>
        <time>2021-09-04T13:26:49Z</time>
      </trkpt>
      <trkpt lat="42.639218" lon="0.435522">
        <ele>2629.000000</ele>
        <time>2021-09-04T13:26:50Z</time>
      </trkpt>
      <trkpt lat="42.639220" lon="0.435521">
        <ele>2629.000000</ele>
        <time>2021-09-04T13:26:51Z</time>
      </trkpt>
      <trkpt lat="42.639225" lon="0.435522">
        <ele>2629.000000</ele>
        <time>2021-09-04T13:26:53Z</time>
      </trkpt>
      <trkpt lat="42.639232" lon="0.435522">
        <ele>2629.000000</ele>
        <time>2021-09-04T13:26:54Z</time>
      </trkpt>
      <trkpt lat="42.639237" lon="0.435523">
        <ele>2629.000000</ele>
        <time>2021-09-04T13:26:55Z</time>
      </trkpt>
      <trkpt lat="42.639242" lon="0.435525">
        <ele>2630.000000</ele>
        <time>2021-09-04T13:26:56Z</time>
      </trkpt>
      <trkpt lat="42.639247" lon="0.435527">
        <ele>2630.000000</ele>
        <time>2021-09-04T13:26:57Z</time>
      </trkpt>
      <trkpt lat="42.639252" lon="0.435526">
        <ele>2630.000000</ele>
        <time>2021-09-04T13:26:58Z</time>
      </trkpt>
      <trkpt lat="42.639255" lon="0.435526">
        <ele>2630.000000</ele>
        <time>2021-09-04T13:26:59Z</time>
      </trkpt>
      <trkpt lat="42.639257" lon="0.435525">
        <ele>2630.000000</ele>
        <time>2021-09-04T13:27:01Z</time>
      </trkpt>
      <trkpt lat="42.639258" lon="0.435525">
        <ele>2630.000000</ele>
        <time>2021-09-04T13:27:02Z</time>
      </trkpt>
      <trkpt lat="42.639260" lon="0.435525">
        <ele>2630.000000</ele>
        <time>2021-09-04T13:27:03Z</time>
      </trkpt>
      <trkpt lat="42.639267" lon="0.435522">
        <ele>2630.000000</ele>
        <time>2021-09-04T13:27:04Z</time>
      </trkpt>
      <trkpt lat="42.639268" lon="0.435513">
        <ele>2630.000000</ele>
        <time>2021-09-04T13:27:05Z</time>
      </trkpt>
      <trkpt lat="42.639270" lon="0.435508">
        <ele>2631.000000</ele>
        <time>2021-09-04T13:27:06Z</time>
      </trkpt>
      <trkpt lat="42.639275" lon="0.435505">
        <ele>2631.000000</ele>
        <time>2021-09-04T13:27:07Z</time>
      </trkpt>
      <trkpt lat="42.639280" lon="0.435500">
        <ele>2631.000000</ele>
        <time>2021-09-04T13:27:08Z</time>
      </trkpt>
      <trkpt lat="42.639287" lon="0.435500">
        <ele>2631.000000</ele>
        <time>2021-09-04T13:27:09Z</time>
      </trkpt>
      <trkpt lat="42.639292" lon="0.435503">
        <ele>2631.000000</ele>
        <time>2021-09-04T13:27:10Z</time>
      </trkpt>
      <trkpt lat="42.639295" lon="0.435507">
        <ele>2631.000000</ele>
        <time>2021-09-04T13:27:11Z</time>
      </trkpt>
      <trkpt lat="42.639300" lon="0.435510">
        <ele>2632.000000</ele>
        <time>2021-09-04T13:27:12Z</time>
      </trkpt>
      <trkpt lat="42.639305" lon="0.435515">
        <ele>2632.000000</ele>
        <time>2021-09-04T13:27:13Z</time>
      </trkpt>
      <trkpt lat="42.639310" lon="0.435518">
        <ele>2632.000000</ele>
        <time>2021-09-04T13:27:14Z</time>
      </trkpt>
      <trkpt lat="42.639313" lon="0.435520">
        <ele>2632.000000</ele>
        <time>2021-09-04T13:27:15Z</time>
      </trkpt>
      <trkpt lat="42.639317" lon="0.435521">
        <ele>2632.000000</ele>
        <time>2021-09-04T13:27:16Z</time>
      </trkpt>
      <trkpt lat="42.639318" lon="0.435518">
        <ele>2632.000000</ele>
        <time>2021-09-04T13:27:17Z</time>
      </trkpt>
      <trkpt lat="42.639320" lon="0.435517">
        <ele>2632.000000</ele>
        <time>2021-09-04T13:27:18Z</time>
      </trkpt>
      <trkpt lat="42.639320" lon="0.435507">
        <ele>2632.000000</ele>
        <time>2021-09-04T13:27:19Z</time>
      </trkpt>
      <trkpt lat="42.639320" lon="0.435498">
        <ele>2632.000000</ele>
        <time>2021-09-04T13:27:20Z</time>
      </trkpt>
      <trkpt lat="42.639322" lon="0.435488">
        <ele>2632.000000</ele>
        <time>2021-09-04T13:27:21Z</time>
      </trkpt>
      <trkpt lat="42.639325" lon="0.435483">
        <ele>2632.000000</ele>
        <time>2021-09-04T13:27:22Z</time>
      </trkpt>
      <trkpt lat="42.639327" lon="0.435480">
        <ele>2632.000000</ele>
        <time>2021-09-04T13:27:23Z</time>
      </trkpt>
      <trkpt lat="42.639330" lon="0.435473">
        <ele>2633.000000</ele>
        <time>2021-09-04T13:27:24Z</time>
      </trkpt>
      <trkpt lat="42.639330" lon="0.435467">
        <ele>2633.000000</ele>
        <time>2021-09-04T13:27:25Z</time>
      </trkpt>
      <trkpt lat="42.639332" lon="0.435460">
        <ele>2633.000000</ele>
        <time>2021-09-04T13:27:26Z</time>
      </trkpt>
      <trkpt lat="42.639338" lon="0.435460">
        <ele>2633.000000</ele>
        <time>2021-09-04T13:27:27Z</time>
      </trkpt>
      <trkpt lat="42.639342" lon="0.435462">
        <ele>2634.000000</ele>
        <time>2021-09-04T13:27:28Z</time>
      </trkpt>
      <trkpt lat="42.639347" lon="0.435463">
        <ele>2634.000000</ele>
        <time>2021-09-04T13:27:29Z</time>
      </trkpt>
      <trkpt lat="42.639353" lon="0.435468">
        <ele>2634.000000</ele>
        <time>2021-09-04T13:27:30Z</time>
      </trkpt>
      <trkpt lat="42.639362" lon="0.435472">
        <ele>2634.000000</ele>
        <time>2021-09-04T13:27:31Z</time>
      </trkpt>
      <trkpt lat="42.639367" lon="0.435475">
        <ele>2634.000000</ele>
        <time>2021-09-04T13:27:32Z</time>
      </trkpt>
      <trkpt lat="42.639373" lon="0.435478">
        <ele>2635.000000</ele>
        <time>2021-09-04T13:27:33Z</time>
      </trkpt>
      <trkpt lat="42.639378" lon="0.435480">
        <ele>2635.000000</ele>
        <time>2021-09-04T13:27:34Z</time>
      </trkpt>
      <trkpt lat="42.639383" lon="0.435482">
        <ele>2635.000000</ele>
        <time>2021-09-04T13:27:35Z</time>
      </trkpt>
      <trkpt lat="42.639388" lon="0.435483">
        <ele>2635.000000</ele>
        <time>2021-09-04T13:27:36Z</time>
      </trkpt>
      <trkpt lat="42.639392" lon="0.435482">
        <ele>2635.000000</ele>
        <time>2021-09-04T13:27:37Z</time>
      </trkpt>
      <trkpt lat="42.639397" lon="0.435475">
        <ele>2635.000000</ele>
        <time>2021-09-04T13:27:38Z</time>
      </trkpt>
      <trkpt lat="42.639402" lon="0.435468">
        <ele>2635.000000</ele>
        <time>2021-09-04T13:27:39Z</time>
      </trkpt>
      <trkpt lat="42.639407" lon="0.435463">
        <ele>2635.000000</ele>
        <time>2021-09-04T13:27:40Z</time>
      </trkpt>
      <trkpt lat="42.639410" lon="0.435463">
        <ele>2635.000000</ele>
        <time>2021-09-04T13:27:41Z</time>
      </trkpt>
      <trkpt lat="42.639415" lon="0.435460">
        <ele>2635.000000</ele>
        <time>2021-09-04T13:27:42Z</time>
      </trkpt>
      <trkpt lat="42.639420" lon="0.435456">
        <ele>2635.000000</ele>
        <time>2021-09-04T13:27:43Z</time>
      </trkpt>
      <trkpt lat="42.639422" lon="0.435452">
        <ele>2635.000000</ele>
        <time>2021-09-04T13:27:44Z</time>
      </trkpt>
      <trkpt lat="42.639422" lon="0.435448">
        <ele>2635.000000</ele>
        <time>2021-09-04T13:27:45Z</time>
      </trkpt>
      <trkpt lat="42.639422" lon="0.435445">
        <ele>2635.000000</ele>
        <time>2021-09-04T13:27:46Z</time>
      </trkpt>
      <trkpt lat="42.639418" lon="0.435438">
        <ele>2635.000000</ele>
        <time>2021-09-04T13:27:48Z</time>
      </trkpt>
      <trkpt lat="42.639418" lon="0.435428">
        <ele>2635.000000</ele>
        <time>2021-09-04T13:27:49Z</time>
      </trkpt>
      <trkpt lat="42.639418" lon="0.435418">
        <ele>2635.000000</ele>
        <time>2021-09-04T13:27:50Z</time>
      </trkpt>
      <trkpt lat="42.639415" lon="0.435413">
        <ele>2635.000000</ele>
        <time>2021-09-04T13:27:51Z</time>
      </trkpt>
      <trkpt lat="42.639412" lon="0.435410">
        <ele>2635.000000</ele>
        <time>2021-09-04T13:27:52Z</time>
      </trkpt>
      <trkpt lat="42.639413" lon="0.435398">
        <ele>2635.000000</ele>
        <time>2021-09-04T13:27:53Z</time>
      </trkpt>
      <trkpt lat="42.639414" lon="0.435390">
        <ele>2634.000000</ele>
        <time>2021-09-04T13:27:54Z</time>
      </trkpt>
      <trkpt lat="42.639414" lon="0.435383">
        <ele>2634.000000</ele>
        <time>2021-09-04T13:27:55Z</time>
      </trkpt>
      <trkpt lat="42.639413" lon="0.435380">
        <ele>2634.000000</ele>
        <time>2021-09-04T13:27:56Z</time>
      </trkpt>
      <trkpt lat="42.639413" lon="0.435373">
        <ele>2633.000000</ele>
        <time>2021-09-04T13:27:57Z</time>
      </trkpt>
      <trkpt lat="42.639414" lon="0.435368">
        <ele>2633.000000</ele>
        <time>2021-09-04T13:27:58Z</time>
      </trkpt>
      <trkpt lat="42.639415" lon="0.435363">
        <ele>2633.000000</ele>
        <time>2021-09-04T13:27:59Z</time>
      </trkpt>
      <trkpt lat="42.639416" lon="0.435357">
        <ele>2633.000000</ele>
        <time>2021-09-04T13:28:00Z</time>
      </trkpt>
      <trkpt lat="42.639417" lon="0.435352">
        <ele>2633.000000</ele>
        <time>2021-09-04T13:28:01Z</time>
      </trkpt>
      <trkpt lat="42.639418" lon="0.435347">
        <ele>2632.000000</ele>
        <time>2021-09-04T13:28:02Z</time>
      </trkpt>
      <trkpt lat="42.639417" lon="0.435345">
        <ele>2632.000000</ele>
        <time>2021-09-04T13:28:03Z</time>
      </trkpt>
      <trkpt lat="42.639417" lon="0.435340">
        <ele>2632.000000</ele>
        <time>2021-09-04T13:28:04Z</time>
      </trkpt>
      <trkpt lat="42.639417" lon="0.435337">
        <ele>2632.000000</ele>
        <time>2021-09-04T13:28:05Z</time>
      </trkpt>
      <trkpt lat="42.639413" lon="0.435330">
        <ele>2632.000000</ele>
        <time>2021-09-04T13:28:06Z</time>
      </trkpt>
      <trkpt lat="42.639409" lon="0.435323">
        <ele>2632.000000</ele>
        <time>2021-09-04T13:28:07Z</time>
      </trkpt>
      <trkpt lat="42.639406" lon="0.435313">
        <ele>2632.000000</ele>
        <time>2021-09-04T13:28:08Z</time>
      </trkpt>
      <trkpt lat="42.639402" lon="0.435303">
        <ele>2632.000000</ele>
        <time>2021-09-04T13:28:09Z</time>
      </trkpt>
      <trkpt lat="42.639400" lon="0.435295">
        <ele>2632.000000</ele>
        <time>2021-09-04T13:28:10Z</time>
      </trkpt>
      <trkpt lat="42.639399" lon="0.435285">
        <ele>2632.000000</ele>
        <time>2021-09-04T13:28:11Z</time>
      </trkpt>
      <trkpt lat="42.639398" lon="0.435272">
        <ele>2632.000000</ele>
        <time>2021-09-04T13:28:12Z</time>
      </trkpt>
      <trkpt lat="42.639397" lon="0.435263">
        <ele>2632.000000</ele>
        <time>2021-09-04T13:28:13Z</time>
      </trkpt>
      <trkpt lat="42.639397" lon="0.435258">
        <ele>2632.000000</ele>
        <time>2021-09-04T13:28:14Z</time>
      </trkpt>
      <trkpt lat="42.639396" lon="0.435252">
        <ele>2631.000000</ele>
        <time>2021-09-04T13:28:15Z</time>
      </trkpt>
      <trkpt lat="42.639395" lon="0.435243">
        <ele>2631.000000</ele>
        <time>2021-09-04T13:28:16Z</time>
      </trkpt>
      <trkpt lat="42.639395" lon="0.435237">
        <ele>2631.000000</ele>
        <time>2021-09-04T13:28:17Z</time>
      </trkpt>
      <trkpt lat="42.639403" lon="0.435235">
        <ele>2631.000000</ele>
        <time>2021-09-04T13:28:18Z</time>
      </trkpt>
      <trkpt lat="42.639400" lon="0.435227">
        <ele>2631.000000</ele>
        <time>2021-09-04T13:28:19Z</time>
      </trkpt>
      <trkpt lat="42.639397" lon="0.435222">
        <ele>2631.000000</ele>
        <time>2021-09-04T13:28:20Z</time>
      </trkpt>
      <trkpt lat="42.639394" lon="0.435215">
        <ele>2631.000000</ele>
        <time>2021-09-04T13:28:21Z</time>
      </trkpt>
      <trkpt lat="42.639392" lon="0.435207">
        <ele>2631.000000</ele>
        <time>2021-09-04T13:28:22Z</time>
      </trkpt>
      <trkpt lat="42.639391" lon="0.435195">
        <ele>2631.000000</ele>
        <time>2021-09-04T13:28:23Z</time>
      </trkpt>
      <trkpt lat="42.639392" lon="0.435190">
        <ele>2631.000000</ele>
        <time>2021-09-04T13:28:24Z</time>
      </trkpt>
      <trkpt lat="42.639392" lon="0.435182">
        <ele>2631.000000</ele>
        <time>2021-09-04T13:28:25Z</time>
      </trkpt>
      <trkpt lat="42.639393" lon="0.435177">
        <ele>2631.000000</ele>
        <time>2021-09-04T13:28:26Z</time>
      </trkpt>
      <trkpt lat="42.639393" lon="0.435173">
        <ele>2631.000000</ele>
        <time>2021-09-04T13:28:27Z</time>
      </trkpt>
      <trkpt lat="42.639392" lon="0.435167">
        <ele>2631.000000</ele>
        <time>2021-09-04T13:28:28Z</time>
      </trkpt>
      <trkpt lat="42.639391" lon="0.435158">
        <ele>2631.000000</ele>
        <time>2021-09-04T13:28:29Z</time>
      </trkpt>
      <trkpt lat="42.639390" lon="0.435152">
        <ele>2631.000000</ele>
        <time>2021-09-04T13:28:30Z</time>
      </trkpt>
      <trkpt lat="42.639389" lon="0.435145">
        <ele>2631.000000</ele>
        <time>2021-09-04T13:28:31Z</time>
      </trkpt>
      <trkpt lat="42.639389" lon="0.435138">
        <ele>2631.000000</ele>
        <time>2021-09-04T13:28:32Z</time>
      </trkpt>
      <trkpt lat="42.639390" lon="0.435132">
        <ele>2632.000000</ele>
        <time>2021-09-04T13:28:33Z</time>
      </trkpt>
      <trkpt lat="42.639391" lon="0.435125">
        <ele>2632.000000</ele>
        <time>2021-09-04T13:28:34Z</time>
      </trkpt>
      <trkpt lat="42.639400" lon="0.435117">
        <ele>2632.000000</ele>
        <time>2021-09-04T13:28:35Z</time>
      </trkpt>
      <trkpt lat="42.639400" lon="0.435110">
        <ele>2632.000000</ele>
        <time>2021-09-04T13:28:36Z</time>
      </trkpt>
      <trkpt lat="42.639401" lon="0.435107">
        <ele>2632.000000</ele>
        <time>2021-09-04T13:28:37Z</time>
      </trkpt>
      <trkpt lat="42.639403" lon="0.435102">
        <ele>2633.000000</ele>
        <time>2021-09-04T13:28:38Z</time>
      </trkpt>
      <trkpt lat="42.639405" lon="0.435090">
        <ele>2633.000000</ele>
        <time>2021-09-04T13:28:39Z</time>
      </trkpt>
      <trkpt lat="42.639406" lon="0.435085">
        <ele>2633.000000</ele>
        <time>2021-09-04T13:28:40Z</time>
      </trkpt>
      <trkpt lat="42.639407" lon="0.435082">
        <ele>2634.000000</ele>
        <time>2021-09-04T13:28:41Z</time>
      </trkpt>
      <trkpt lat="42.639408" lon="0.435077">
        <ele>2634.000000</ele>
        <time>2021-09-04T13:28:42Z</time>
      </trkpt>
      <trkpt lat="42.639407" lon="0.435073">
        <ele>2634.000000</ele>
        <time>2021-09-04T13:28:43Z</time>
      </trkpt>
      <trkpt lat="42.639407" lon="0.435068">
        <ele>2634.000000</ele>
        <time>2021-09-04T13:28:44Z</time>
      </trkpt>
      <trkpt lat="42.639407" lon="0.435062">
        <ele>2635.000000</ele>
        <time>2021-09-04T13:28:45Z</time>
      </trkpt>
      <trkpt lat="42.639405" lon="0.435057">
        <ele>2635.000000</ele>
        <time>2021-09-04T13:28:46Z</time>
      </trkpt>
      <trkpt lat="42.639405" lon="0.435052">
        <ele>2635.000000</ele>
        <time>2021-09-04T13:28:46Z</time>
      </trkpt>
      <trkpt lat="42.639405" lon="0.435040">
        <ele>2635.000000</ele>
        <time>2021-09-04T13:28:47Z</time>
      </trkpt>
      <trkpt lat="42.639403" lon="0.435035">
        <ele>2635.000000</ele>
        <time>2021-09-04T13:28:48Z</time>
      </trkpt>
      <trkpt lat="42.639402" lon="0.435027">
        <ele>2636.000000</ele>
        <time>2021-09-04T13:28:49Z</time>
      </trkpt>
      <trkpt lat="42.639401" lon="0.435018">
        <ele>2636.000000</ele>
        <time>2021-09-04T13:28:50Z</time>
      </trkpt>
      <trkpt lat="42.639402" lon="0.435013">
        <ele>2636.000000</ele>
        <time>2021-09-04T13:28:51Z</time>
      </trkpt>
      <trkpt lat="42.639403" lon="0.435010">
        <ele>2636.000000</ele>
        <time>2021-09-04T13:28:52Z</time>
      </trkpt>
      <trkpt lat="42.639408" lon="0.435007">
        <ele>2637.000000</ele>
        <time>2021-09-04T13:28:53Z</time>
      </trkpt>
      <trkpt lat="42.639410" lon="0.435002">
        <ele>2637.000000</ele>
        <time>2021-09-04T13:28:54Z</time>
      </trkpt>
      <trkpt lat="42.639413" lon="0.434997">
        <ele>2637.000000</ele>
        <time>2021-09-04T13:28:55Z</time>
      </trkpt>
      <trkpt lat="42.639420" lon="0.434992">
        <ele>2637.000000</ele>
        <time>2021-09-04T13:28:56Z</time>
      </trkpt>
      <trkpt lat="42.639427" lon="0.434992">
        <ele>2637.000000</ele>
        <time>2021-09-04T13:28:57Z</time>
      </trkpt>
      <trkpt lat="42.639433" lon="0.434990">
        <ele>2638.000000</ele>
        <time>2021-09-04T13:28:58Z</time>
      </trkpt>
      <trkpt lat="42.639442" lon="0.434993">
        <ele>2638.000000</ele>
        <time>2021-09-04T13:28:59Z</time>
      </trkpt>
      <trkpt lat="42.639447" lon="0.434993">
        <ele>2638.000000</ele>
        <time>2021-09-04T13:29:00Z</time>
      </trkpt>
      <trkpt lat="42.639453" lon="0.434998">
        <ele>2638.000000</ele>
        <time>2021-09-04T13:29:01Z</time>
      </trkpt>
      <trkpt lat="42.639462" lon="0.435000">
        <ele>2639.000000</ele>
        <time>2021-09-04T13:29:02Z</time>
      </trkpt>
      <trkpt lat="42.639467" lon="0.435002">
        <ele>2639.000000</ele>
        <time>2021-09-04T13:29:03Z</time>
      </trkpt>
      <trkpt lat="42.639470" lon="0.434999">
        <ele>2639.000000</ele>
        <time>2021-09-04T13:29:04Z</time>
      </trkpt>
      <trkpt lat="42.639475" lon="0.434998">
        <ele>2639.000000</ele>
        <time>2021-09-04T13:29:05Z</time>
      </trkpt>
      <trkpt lat="42.639478" lon="0.434998">
        <ele>2639.000000</ele>
        <time>2021-09-04T13:29:06Z</time>
      </trkpt>
      <trkpt lat="42.639483" lon="0.434995">
        <ele>2639.000000</ele>
        <time>2021-09-04T13:29:08Z</time>
      </trkpt>
      <trkpt lat="42.639487" lon="0.434992">
        <ele>2640.000000</ele>
        <time>2021-09-04T13:29:09Z</time>
      </trkpt>
      <trkpt lat="42.639492" lon="0.434988">
        <ele>2640.000000</ele>
        <time>2021-09-04T13:29:10Z</time>
      </trkpt>
      <trkpt lat="42.639495" lon="0.434988">
        <ele>2640.000000</ele>
        <time>2021-09-04T13:29:11Z</time>
      </trkpt>
      <trkpt lat="42.639498" lon="0.434991">
        <ele>2640.000000</ele>
        <time>2021-09-04T13:29:12Z</time>
      </trkpt>
      <trkpt lat="42.639500" lon="0.434993">
        <ele>2640.000000</ele>
        <time>2021-09-04T13:29:13Z</time>
      </trkpt>
      <trkpt lat="42.639502" lon="0.434995">
        <ele>2640.000000</ele>
        <time>2021-09-04T13:29:14Z</time>
      </trkpt>
      <trkpt lat="42.639505" lon="0.434997">
        <ele>2640.000000</ele>
        <time>2021-09-04T13:29:15Z</time>
      </trkpt>
      <trkpt lat="42.639508" lon="0.434998">
        <ele>2640.000000</ele>
        <time>2021-09-04T13:29:16Z</time>
      </trkpt>
      <trkpt lat="42.639505" lon="0.434996">
        <ele>2641.000000</ele>
        <time>2021-09-04T13:29:20Z</time>
      </trkpt>
      <trkpt lat="42.639572" lon="0.435023">
        <ele>2641.000000</ele>
        <time>2021-09-04T13:29:44Z</time>
      </trkpt>
      <trkpt lat="42.639573" lon="0.435018">
        <ele>2641.000000</ele>
        <time>2021-09-04T13:29:45Z</time>
      </trkpt>
      <trkpt lat="42.639573" lon="0.435013">
        <ele>2641.000000</ele>
        <time>2021-09-04T13:29:46Z</time>
      </trkpt>
      <trkpt lat="42.639577" lon="0.435005">
        <ele>2641.000000</ele>
        <time>2021-09-04T13:29:47Z</time>
      </trkpt>
      <trkpt lat="42.639573" lon="0.435000">
        <ele>2641.000000</ele>
        <time>2021-09-04T13:29:48Z</time>
      </trkpt>
      <trkpt lat="42.639570" lon="0.434992">
        <ele>2641.000000</ele>
        <time>2021-09-04T13:29:49Z</time>
      </trkpt>
      <trkpt lat="42.639570" lon="0.434983">
        <ele>2641.000000</ele>
        <time>2021-09-04T13:29:50Z</time>
      </trkpt>
      <trkpt lat="42.639570" lon="0.434975">
        <ele>2641.000000</ele>
        <time>2021-09-04T13:29:51Z</time>
      </trkpt>
      <trkpt lat="42.639570" lon="0.434965">
        <ele>2642.000000</ele>
        <time>2021-09-04T13:29:52Z</time>
      </trkpt>
      <trkpt lat="42.639573" lon="0.434962">
        <ele>2642.000000</ele>
        <time>2021-09-04T13:29:53Z</time>
      </trkpt>
      <trkpt lat="42.639576" lon="0.434960">
        <ele>2642.000000</ele>
        <time>2021-09-04T13:29:54Z</time>
      </trkpt>
      <trkpt lat="42.639585" lon="0.434957">
        <ele>2642.000000</ele>
        <time>2021-09-04T13:29:55Z</time>
      </trkpt>
      <trkpt lat="42.639592" lon="0.434957">
        <ele>2642.000000</ele>
        <time>2021-09-04T13:29:56Z</time>
      </trkpt>
      <trkpt lat="42.639595" lon="0.434955">
        <ele>2642.000000</ele>
        <time>2021-09-04T13:29:57Z</time>
      </trkpt>
      <trkpt lat="42.639598" lon="0.434953">
        <ele>2643.000000</ele>
        <time>2021-09-04T13:29:59Z</time>
      </trkpt>
      <trkpt lat="42.639602" lon="0.434952">
        <ele>2643.000000</ele>
        <time>2021-09-04T13:30:00Z</time>
      </trkpt>
      <trkpt lat="42.639607" lon="0.434950">
        <ele>2644.000000</ele>
        <time>2021-09-04T13:30:01Z</time>
      </trkpt>
      <trkpt lat="42.639605" lon="0.434953">
        <ele>2645.000000</ele>
        <time>2021-09-04T13:30:05Z</time>
      </trkpt>
      <trkpt lat="42.639603" lon="0.434952">
        <ele>2646.000000</ele>
        <time>2021-09-04T13:30:06Z</time>
      </trkpt>
      <trkpt lat="42.639600" lon="0.434950">
        <ele>2647.000000</ele>
        <time>2021-09-04T13:30:08Z</time>
      </trkpt>
      <trkpt lat="42.639605" lon="0.434953">
        <ele>2647.000000</ele>
        <time>2021-09-04T13:30:09Z</time>
      </trkpt>
      <trkpt lat="42.639608" lon="0.434940">
        <ele>2670.000000</ele>
        <time>2021-09-04T13:31:58Z</time>
      </trkpt>
      <trkpt lat="42.639612" lon="0.434930">
        <ele>2671.000000</ele>
        <time>2021-09-04T13:32:20Z</time>
      </trkpt>
      <trkpt lat="42.639617" lon="0.434913">
        <ele>2672.000000</ele>
        <time>2021-09-04T13:32:48Z</time>
      </trkpt>
      <trkpt lat="42.639620" lon="0.434905">
        <ele>2675.000000</ele>
        <time>2021-09-04T13:33:01Z</time>
      </trkpt>
      <trkpt lat="42.639623" lon="0.434897">
        <ele>2678.000000</ele>
        <time>2021-09-04T13:33:12Z</time>
      </trkpt>
      <trkpt lat="42.639627" lon="0.434888">
        <ele>2679.000000</ele>
        <time>2021-09-04T13:33:24Z</time>
      </trkpt>
      <trkpt lat="42.639628" lon="0.434883">
        <ele>2680.000000</ele>
        <time>2021-09-04T13:33:30Z</time>
      </trkpt>
      <trkpt lat="42.639630" lon="0.434878">
        <ele>2681.000000</ele>
        <time>2021-09-04T13:33:37Z</time>
      </trkpt>
      <trkpt lat="42.639632" lon="0.434873">
        <ele>2682.000000</ele>
        <time>2021-09-04T13:33:43Z</time>
      </trkpt>
      <trkpt lat="42.639633" lon="0.434868">
        <ele>2683.000000</ele>
        <time>2021-09-04T13:33:49Z</time>
      </trkpt>
      <trkpt lat="42.639635" lon="0.434863">
        <ele>2684.000000</ele>
        <time>2021-09-04T13:33:55Z</time>
      </trkpt>
      <trkpt lat="42.639637" lon="0.434858">
        <ele>2684.000000</ele>
        <time>2021-09-04T13:34:01Z</time>
      </trkpt>
      <trkpt lat="42.639638" lon="0.434853">
        <ele>2685.000000</ele>
        <time>2021-09-04T13:34:07Z</time>
      </trkpt>
      <trkpt lat="42.639640" lon="0.434848">
        <ele>2685.000000</ele>
        <time>2021-09-04T13:34:13Z</time>
      </trkpt>
      <trkpt lat="42.639642" lon="0.434843">
        <ele>2684.000000</ele>
        <time>2021-09-04T13:34:19Z</time>
      </trkpt>
      <trkpt lat="42.639643" lon="0.434838">
        <ele>2684.000000</ele>
        <time>2021-09-04T13:34:25Z</time>
      </trkpt>
      <trkpt lat="42.639648" lon="0.434822">
        <ele>2684.000000</ele>
        <time>2021-09-04T13:34:46Z</time>
      </trkpt>
      <trkpt lat="42.639655" lon="0.434795">
        <ele>2684.000000</ele>
        <time>2021-09-04T13:35:21Z</time>
      </trkpt>
      <trkpt lat="42.639658" lon="0.434782">
        <ele>2682.000000</ele>
        <time>2021-09-04T13:35:40Z</time>
      </trkpt>
      <trkpt lat="42.639772" lon="0.434200">
        <ele>2684.000000</ele>
        <time>2021-09-04T13:35:52Z</time>
      </trkpt>
      <trkpt lat="42.639770" lon="0.434190">
        <ele>2684.000000</ele>
        <time>2021-09-04T13:35:53Z</time>
      </trkpt>
      <trkpt lat="42.639766" lon="0.434187">
        <ele>2684.000000</ele>
        <time>2021-09-04T13:35:54Z</time>
      </trkpt>
      <trkpt lat="42.639762" lon="0.434182">
        <ele>2684.000000</ele>
        <time>2021-09-04T13:35:55Z</time>
      </trkpt>
      <trkpt lat="42.639758" lon="0.434180">
        <ele>2684.000000</ele>
        <time>2021-09-04T13:35:56Z</time>
      </trkpt>
      <trkpt lat="42.639757" lon="0.434177">
        <ele>2684.000000</ele>
        <time>2021-09-04T13:35:57Z</time>
      </trkpt>
      <trkpt lat="42.639756" lon="0.434173">
        <ele>2685.000000</ele>
        <time>2021-09-04T13:35:58Z</time>
      </trkpt>
      <trkpt lat="42.639758" lon="0.434172">
        <ele>2685.000000</ele>
        <time>2021-09-04T13:35:59Z</time>
      </trkpt>
      <trkpt lat="42.639761" lon="0.434170">
        <ele>2685.000000</ele>
        <time>2021-09-04T13:36:00Z</time>
      </trkpt>
      <trkpt lat="42.639761" lon="0.434172">
        <ele>2685.000000</ele>
        <time>2021-09-04T13:36:03Z</time>
      </trkpt>
      <trkpt lat="42.639764" lon="0.434170">
        <ele>2685.000000</ele>
        <time>2021-09-04T13:36:04Z</time>
      </trkpt>
      <trkpt lat="42.639772" lon="0.434167">
        <ele>2685.000000</ele>
        <time>2021-09-04T13:36:06Z</time>
      </trkpt>
      <trkpt lat="42.639777" lon="0.434170">
        <ele>2686.000000</ele>
        <time>2021-09-04T13:36:08Z</time>
      </trkpt>
      <trkpt lat="42.639772" lon="0.434170">
        <ele>2686.000000</ele>
        <time>2021-09-04T13:36:09Z</time>
      </trkpt>
      <trkpt lat="42.639775" lon="0.434138">
        <ele>2703.000000</ele>
        <time>2021-09-04T13:38:25Z</time>
      </trkpt>
      <trkpt lat="42.639778" lon="0.434122">
        <ele>2702.000000</ele>
        <time>2021-09-04T13:38:54Z</time>
      </trkpt>
      <trkpt lat="42.639857" lon="0.433547">
        <ele>2702.000000</ele>
        <time>2021-09-04T13:39:17Z</time>
      </trkpt>
      <trkpt lat="42.639855" lon="0.433542">
        <ele>2702.000000</ele>
        <time>2021-09-04T13:39:18Z</time>
      </trkpt>
      <trkpt lat="42.639855" lon="0.433533">
        <ele>2702.000000</ele>
        <time>2021-09-04T13:39:19Z</time>
      </trkpt>
      <trkpt lat="42.639854" lon="0.433530">
        <ele>2702.000000</ele>
        <time>2021-09-04T13:39:20Z</time>
      </trkpt>
      <trkpt lat="42.639852" lon="0.433525">
        <ele>2702.000000</ele>
        <time>2021-09-04T13:39:21Z</time>
      </trkpt>
      <trkpt lat="42.639851" lon="0.433517">
        <ele>2702.000000</ele>
        <time>2021-09-04T13:39:22Z</time>
      </trkpt>
      <trkpt lat="42.639852" lon="0.433508">
        <ele>2702.000000</ele>
        <time>2021-09-04T13:39:23Z</time>
      </trkpt>
      <trkpt lat="42.639854" lon="0.433507">
        <ele>2702.000000</ele>
        <time>2021-09-04T13:39:24Z</time>
      </trkpt>
      <trkpt lat="42.639862" lon="0.433500">
        <ele>2702.000000</ele>
        <time>2021-09-04T13:39:25Z</time>
      </trkpt>
      <trkpt lat="42.639862" lon="0.433497">
        <ele>2702.000000</ele>
        <time>2021-09-04T13:39:26Z</time>
      </trkpt>
      <trkpt lat="42.639864" lon="0.433495">
        <ele>2702.000000</ele>
        <time>2021-09-04T13:39:27Z</time>
      </trkpt>
      <trkpt lat="42.639868" lon="0.433492">
        <ele>2702.000000</ele>
        <time>2021-09-04T13:39:28Z</time>
      </trkpt>
      <trkpt lat="42.639874" lon="0.433487">
        <ele>2702.000000</ele>
        <time>2021-09-04T13:39:29Z</time>
      </trkpt>
      <trkpt lat="42.639877" lon="0.433482">
        <ele>2702.000000</ele>
        <time>2021-09-04T13:39:30Z</time>
      </trkpt>
      <trkpt lat="42.639880" lon="0.433478">
        <ele>2701.000000</ele>
        <time>2021-09-04T13:39:31Z</time>
      </trkpt>
      <trkpt lat="42.639884" lon="0.433473">
        <ele>2701.000000</ele>
        <time>2021-09-04T13:39:32Z</time>
      </trkpt>
      <trkpt lat="42.639886" lon="0.433470">
        <ele>2701.000000</ele>
        <time>2021-09-04T13:39:34Z</time>
      </trkpt>
      <trkpt lat="42.639890" lon="0.433465">
        <ele>2701.000000</ele>
        <time>2021-09-04T13:39:35Z</time>
      </trkpt>
      <trkpt lat="42.639893" lon="0.433460">
        <ele>2701.000000</ele>
        <time>2021-09-04T13:39:36Z</time>
      </trkpt>
      <trkpt lat="42.639895" lon="0.433457">
        <ele>2701.000000</ele>
        <time>2021-09-04T13:39:37Z</time>
      </trkpt>
      <trkpt lat="42.639900" lon="0.433450">
        <ele>2701.000000</ele>
        <time>2021-09-04T13:39:38Z</time>
      </trkpt>
      <trkpt lat="42.639902" lon="0.433443">
        <ele>2701.000000</ele>
        <time>2021-09-04T13:39:39Z</time>
      </trkpt>
      <trkpt lat="42.639905" lon="0.433437">
        <ele>2701.000000</ele>
        <time>2021-09-04T13:39:40Z</time>
      </trkpt>
      <trkpt lat="42.639910" lon="0.433428">
        <ele>2701.000000</ele>
        <time>2021-09-04T13:39:41Z</time>
      </trkpt>
      <trkpt lat="42.639913" lon="0.433423">
        <ele>2701.000000</ele>
        <time>2021-09-04T13:39:42Z</time>
      </trkpt>
      <trkpt lat="42.639914" lon="0.433418">
        <ele>2701.000000</ele>
        <time>2021-09-04T13:39:43Z</time>
      </trkpt>
      <trkpt lat="42.639915" lon="0.433413">
        <ele>2701.000000</ele>
        <time>2021-09-04T13:39:44Z</time>
      </trkpt>
      <trkpt lat="42.639916" lon="0.433408">
        <ele>2701.000000</ele>
        <time>2021-09-04T13:39:45Z</time>
      </trkpt>
      <trkpt lat="42.639917" lon="0.433403">
        <ele>2701.000000</ele>
        <time>2021-09-04T13:39:46Z</time>
      </trkpt>
      <trkpt lat="42.639917" lon="0.433398">
        <ele>2702.000000</ele>
        <time>2021-09-04T13:39:48Z</time>
      </trkpt>
      <trkpt lat="42.639915" lon="0.433392">
        <ele>2702.000000</ele>
        <time>2021-09-04T13:39:49Z</time>
      </trkpt>
      <trkpt lat="42.639915" lon="0.433387">
        <ele>2702.000000</ele>
        <time>2021-09-04T13:39:50Z</time>
      </trkpt>
      <trkpt lat="42.639917" lon="0.433382">
        <ele>2703.000000</ele>
        <time>2021-09-04T13:39:51Z</time>
      </trkpt>
      <trkpt lat="42.639917" lon="0.433373">
        <ele>2703.000000</ele>
        <time>2021-09-04T13:39:52Z</time>
      </trkpt>
      <trkpt lat="42.639916" lon="0.433367">
        <ele>2703.000000</ele>
        <time>2021-09-04T13:39:53Z</time>
      </trkpt>
      <trkpt lat="42.639915" lon="0.433362">
        <ele>2703.000000</ele>
        <time>2021-09-04T13:39:54Z</time>
      </trkpt>
      <trkpt lat="42.639914" lon="0.433353">
        <ele>2704.000000</ele>
        <time>2021-09-04T13:39:55Z</time>
      </trkpt>
      <trkpt lat="42.639914" lon="0.433348">
        <ele>2704.000000</ele>
        <time>2021-09-04T13:39:56Z</time>
      </trkpt>
      <trkpt lat="42.639914" lon="0.433343">
        <ele>2704.000000</ele>
        <time>2021-09-04T13:39:57Z</time>
      </trkpt>
      <trkpt lat="42.639915" lon="0.433338">
        <ele>2705.000000</ele>
        <time>2021-09-04T13:39:58Z</time>
      </trkpt>
      <trkpt lat="42.639915" lon="0.433333">
        <ele>2705.000000</ele>
        <time>2021-09-04T13:39:59Z</time>
      </trkpt>
      <trkpt lat="42.639914" lon="0.433328">
        <ele>2705.000000</ele>
        <time>2021-09-04T13:40:01Z</time>
      </trkpt>
      <trkpt lat="42.639914" lon="0.433322">
        <ele>2706.000000</ele>
        <time>2021-09-04T13:40:02Z</time>
      </trkpt>
      <trkpt lat="42.639914" lon="0.433315">
        <ele>2706.000000</ele>
        <time>2021-09-04T13:40:03Z</time>
      </trkpt>
      <trkpt lat="42.639913" lon="0.433312">
        <ele>2706.000000</ele>
        <time>2021-09-04T13:40:04Z</time>
      </trkpt>
      <trkpt lat="42.639913" lon="0.433307">
        <ele>2707.000000</ele>
        <time>2021-09-04T13:40:05Z</time>
      </trkpt>
      <trkpt lat="42.639912" lon="0.433303">
        <ele>2707.000000</ele>
        <time>2021-09-04T13:40:06Z</time>
      </trkpt>
      <trkpt lat="42.639912" lon="0.433295">
        <ele>2707.000000</ele>
        <time>2021-09-04T13:40:07Z</time>
      </trkpt>
      <trkpt lat="42.639912" lon="0.433288">
        <ele>2707.000000</ele>
        <time>2021-09-04T13:40:08Z</time>
      </trkpt>
      <trkpt lat="42.639912" lon="0.433280">
        <ele>2707.000000</ele>
        <time>2021-09-04T13:40:09Z</time>
      </trkpt>
      <trkpt lat="42.639913" lon="0.433275">
        <ele>2707.000000</ele>
        <time>2021-09-04T13:40:10Z</time>
      </trkpt>
      <trkpt lat="42.639913" lon="0.433268">
        <ele>2709.000000</ele>
        <time>2021-09-04T13:40:11Z</time>
      </trkpt>
      <trkpt lat="42.639914" lon="0.433260">
        <ele>2709.000000</ele>
        <time>2021-09-04T13:40:12Z</time>
      </trkpt>
      <trkpt lat="42.639914" lon="0.433252">
        <ele>2710.000000</ele>
        <time>2021-09-04T13:40:14Z</time>
      </trkpt>
      <trkpt lat="42.639915" lon="0.433245">
        <ele>2710.000000</ele>
        <time>2021-09-04T13:40:14Z</time>
      </trkpt>
      <trkpt lat="42.639915" lon="0.433240">
        <ele>2711.000000</ele>
        <time>2021-09-04T13:40:15Z</time>
      </trkpt>
      <trkpt lat="42.639915" lon="0.433233">
        <ele>2711.000000</ele>
        <time>2021-09-04T13:40:16Z</time>
      </trkpt>
      <trkpt lat="42.639915" lon="0.433223">
        <ele>2712.000000</ele>
        <time>2021-09-04T13:40:17Z</time>
      </trkpt>
      <trkpt lat="42.639916" lon="0.433218">
        <ele>2712.000000</ele>
        <time>2021-09-04T13:40:18Z</time>
      </trkpt>
      <trkpt lat="42.639917" lon="0.433210">
        <ele>2713.000000</ele>
        <time>2021-09-04T13:40:19Z</time>
      </trkpt>
      <trkpt lat="42.639927" lon="0.433203">
        <ele>2713.000000</ele>
        <time>2021-09-04T13:40:20Z</time>
      </trkpt>
      <trkpt lat="42.639931" lon="0.433195">
        <ele>2714.000000</ele>
        <time>2021-09-04T13:40:21Z</time>
      </trkpt>
      <trkpt lat="42.639933" lon="0.433190">
        <ele>2714.000000</ele>
        <time>2021-09-04T13:40:22Z</time>
      </trkpt>
      <trkpt lat="42.639936" lon="0.433183">
        <ele>2715.000000</ele>
        <time>2021-09-04T13:40:23Z</time>
      </trkpt>
      <trkpt lat="42.639937" lon="0.433177">
        <ele>2715.000000</ele>
        <time>2021-09-04T13:40:24Z</time>
      </trkpt>
      <trkpt lat="42.639937" lon="0.433170">
        <ele>2716.000000</ele>
        <time>2021-09-04T13:40:25Z</time>
      </trkpt>
      <trkpt lat="42.639938" lon="0.433165">
        <ele>2716.000000</ele>
        <time>2021-09-04T13:40:26Z</time>
      </trkpt>
      <trkpt lat="42.639940" lon="0.433157">
        <ele>2716.000000</ele>
        <time>2021-09-04T13:40:27Z</time>
      </trkpt>
      <trkpt lat="42.639944" lon="0.433147">
        <ele>2717.000000</ele>
        <time>2021-09-04T13:40:28Z</time>
      </trkpt>
      <trkpt lat="42.639946" lon="0.433142">
        <ele>2717.000000</ele>
        <time>2021-09-04T13:40:29Z</time>
      </trkpt>
      <trkpt lat="42.639952" lon="0.433133">
        <ele>2717.000000</ele>
        <time>2021-09-04T13:40:30Z</time>
      </trkpt>
      <trkpt lat="42.639953" lon="0.433127">
        <ele>2718.000000</ele>
        <time>2021-09-04T13:40:31Z</time>
      </trkpt>
      <trkpt lat="42.639955" lon="0.433122">
        <ele>2718.000000</ele>
        <time>2021-09-04T13:40:32Z</time>
      </trkpt>
      <trkpt lat="42.639956" lon="0.433115">
        <ele>2718.000000</ele>
        <time>2021-09-04T13:40:33Z</time>
      </trkpt>
      <trkpt lat="42.639958" lon="0.433110">
        <ele>2718.000000</ele>
        <time>2021-09-04T13:40:34Z</time>
      </trkpt>
      <trkpt lat="42.639961" lon="0.433102">
        <ele>2718.000000</ele>
        <time>2021-09-04T13:40:35Z</time>
      </trkpt>
      <trkpt lat="42.639962" lon="0.433098">
        <ele>2718.000000</ele>
        <time>2021-09-04T13:40:36Z</time>
      </trkpt>
      <trkpt lat="42.639961" lon="0.433097">
        <ele>2719.000000</ele>
        <time>2021-09-04T13:40:37Z</time>
      </trkpt>
      <trkpt lat="42.639962" lon="0.433095">
        <ele>2719.000000</ele>
        <time>2021-09-04T13:40:38Z</time>
      </trkpt>
      <trkpt lat="42.639965" lon="0.433087">
        <ele>2719.000000</ele>
        <time>2021-09-04T13:40:40Z</time>
      </trkpt>
      <trkpt lat="42.639965" lon="0.433080">
        <ele>2720.000000</ele>
        <time>2021-09-04T13:40:41Z</time>
      </trkpt>
      <trkpt lat="42.639965" lon="0.433072">
        <ele>2720.000000</ele>
        <time>2021-09-04T13:40:42Z</time>
      </trkpt>
      <trkpt lat="42.639965" lon="0.433065">
        <ele>2720.000000</ele>
        <time>2021-09-04T13:40:43Z</time>
      </trkpt>
      <trkpt lat="42.639965" lon="0.433057">
        <ele>2721.000000</ele>
        <time>2021-09-04T13:40:44Z</time>
      </trkpt>
      <trkpt lat="42.639963" lon="0.433047">
        <ele>2721.000000</ele>
        <time>2021-09-04T13:40:45Z</time>
      </trkpt>
      <trkpt lat="42.639962" lon="0.433045">
        <ele>2721.000000</ele>
        <time>2021-09-04T13:40:46Z</time>
      </trkpt>
      <trkpt lat="42.639961" lon="0.433038">
        <ele>2721.000000</ele>
        <time>2021-09-04T13:40:47Z</time>
      </trkpt>
      <trkpt lat="42.639961" lon="0.433033">
        <ele>2722.000000</ele>
        <time>2021-09-04T13:40:48Z</time>
      </trkpt>
      <trkpt lat="42.639961" lon="0.433025">
        <ele>2722.000000</ele>
        <time>2021-09-04T13:40:49Z</time>
      </trkpt>
      <trkpt lat="42.639962" lon="0.433017">
        <ele>2722.000000</ele>
        <time>2021-09-04T13:40:50Z</time>
      </trkpt>
      <trkpt lat="42.639963" lon="0.433012">
        <ele>2723.000000</ele>
        <time>2021-09-04T13:40:51Z</time>
      </trkpt>
      <trkpt lat="42.639965" lon="0.433007">
        <ele>2723.000000</ele>
        <time>2021-09-04T13:40:52Z</time>
      </trkpt>
      <trkpt lat="42.639966" lon="0.433000">
        <ele>2723.000000</ele>
        <time>2021-09-04T13:40:53Z</time>
      </trkpt>
      <trkpt lat="42.639968" lon="0.432993">
        <ele>2724.000000</ele>
        <time>2021-09-04T13:40:54Z</time>
      </trkpt>
      <trkpt lat="42.639969" lon="0.432988">
        <ele>2724.000000</ele>
        <time>2021-09-04T13:40:55Z</time>
      </trkpt>
      <trkpt lat="42.639971" lon="0.432982">
        <ele>2724.000000</ele>
        <time>2021-09-04T13:40:56Z</time>
      </trkpt>
      <trkpt lat="42.639972" lon="0.432973">
        <ele>2724.000000</ele>
        <time>2021-09-04T13:40:57Z</time>
      </trkpt>
      <trkpt lat="42.639973" lon="0.432965">
        <ele>2724.000000</ele>
        <time>2021-09-04T13:40:58Z</time>
      </trkpt>
      <trkpt lat="42.639970" lon="0.432962">
        <ele>2724.000000</ele>
        <time>2021-09-04T13:40:59Z</time>
      </trkpt>
      <trkpt lat="42.639970" lon="0.432957">
        <ele>2724.000000</ele>
        <time>2021-09-04T13:41:00Z</time>
      </trkpt>
      <trkpt lat="42.639970" lon="0.432950">
        <ele>2724.000000</ele>
        <time>2021-09-04T13:41:01Z</time>
      </trkpt>
      <trkpt lat="42.639975" lon="0.432943">
        <ele>2724.000000</ele>
        <time>2021-09-04T13:41:02Z</time>
      </trkpt>
      <trkpt lat="42.639978" lon="0.432938">
        <ele>2724.000000</ele>
        <time>2021-09-04T13:41:03Z</time>
      </trkpt>
      <trkpt lat="42.639980" lon="0.432935">
        <ele>2724.000000</ele>
        <time>2021-09-04T13:41:04Z</time>
      </trkpt>
      <trkpt lat="42.639981" lon="0.432932">
        <ele>2725.000000</ele>
        <time>2021-09-04T13:41:05Z</time>
      </trkpt>
      <trkpt lat="42.639981" lon="0.432928">
        <ele>2725.000000</ele>
        <time>2021-09-04T13:41:06Z</time>
      </trkpt>
      <trkpt lat="42.639982" lon="0.432925">
        <ele>2725.000000</ele>
        <time>2021-09-04T13:41:07Z</time>
      </trkpt>
      <trkpt lat="42.639983" lon="0.432920">
        <ele>2725.000000</ele>
        <time>2021-09-04T13:41:08Z</time>
      </trkpt>
      <trkpt lat="42.639983" lon="0.432917">
        <ele>2726.000000</ele>
        <time>2021-09-04T13:41:10Z</time>
      </trkpt>
      <trkpt lat="42.639985" lon="0.432918">
        <ele>2726.000000</ele>
        <time>2021-09-04T13:41:11Z</time>
      </trkpt>
      <trkpt lat="42.639990" lon="0.432918">
        <ele>2726.000000</ele>
        <time>2021-09-04T13:41:12Z</time>
      </trkpt>
      <trkpt lat="42.639995" lon="0.432918">
        <ele>2726.000000</ele>
        <time>2021-09-04T13:41:13Z</time>
      </trkpt>
      <trkpt lat="42.639998" lon="0.432917">
        <ele>2726.000000</ele>
        <time>2021-09-04T13:41:14Z</time>
      </trkpt>
      <trkpt lat="42.640000" lon="0.432913">
        <ele>2726.000000</ele>
        <time>2021-09-04T13:41:15Z</time>
      </trkpt>
      <trkpt lat="42.639997" lon="0.432917">
        <ele>2726.000000</ele>
        <time>2021-09-04T13:41:19Z</time>
      </trkpt>
      <trkpt lat="42.640018" lon="0.432805">
        <ele>2728.000000</ele>
        <time>2021-09-04T13:41:31Z</time>
      </trkpt>
      <trkpt lat="42.640022" lon="0.432795">
        <ele>2728.000000</ele>
        <time>2021-09-04T13:41:32Z</time>
      </trkpt>
      <trkpt lat="42.640023" lon="0.432783">
        <ele>2728.000000</ele>
        <time>2021-09-04T13:41:33Z</time>
      </trkpt>
      <trkpt lat="42.640024" lon="0.432777">
        <ele>2728.000000</ele>
        <time>2021-09-04T13:41:34Z</time>
      </trkpt>
      <trkpt lat="42.640025" lon="0.432772">
        <ele>2728.000000</ele>
        <time>2021-09-04T13:41:35Z</time>
      </trkpt>
      <trkpt lat="42.640026" lon="0.432760">
        <ele>2728.000000</ele>
        <time>2021-09-04T13:41:36Z</time>
      </trkpt>
      <trkpt lat="42.640026" lon="0.432755">
        <ele>2728.000000</ele>
        <time>2021-09-04T13:41:37Z</time>
      </trkpt>
      <trkpt lat="42.640027" lon="0.432747">
        <ele>2728.000000</ele>
        <time>2021-09-04T13:41:38Z</time>
      </trkpt>
      <trkpt lat="42.640028" lon="0.432740">
        <ele>2728.000000</ele>
        <time>2021-09-04T13:41:39Z</time>
      </trkpt>
      <trkpt lat="42.640028" lon="0.432735">
        <ele>2728.000000</ele>
        <time>2021-09-04T13:41:40Z</time>
      </trkpt>
      <trkpt lat="42.640027" lon="0.432727">
        <ele>2728.000000</ele>
        <time>2021-09-04T13:41:41Z</time>
      </trkpt>
      <trkpt lat="42.640027" lon="0.432718">
        <ele>2728.000000</ele>
        <time>2021-09-04T13:41:42Z</time>
      </trkpt>
      <trkpt lat="42.640027" lon="0.432710">
        <ele>2728.000000</ele>
        <time>2021-09-04T13:41:43Z</time>
      </trkpt>
      <trkpt lat="42.640027" lon="0.432700">
        <ele>2728.000000</ele>
        <time>2021-09-04T13:41:44Z</time>
      </trkpt>
      <trkpt lat="42.640027" lon="0.432695">
        <ele>2728.000000</ele>
        <time>2021-09-04T13:41:45Z</time>
      </trkpt>
      <trkpt lat="42.640028" lon="0.432682">
        <ele>2728.000000</ele>
        <time>2021-09-04T13:41:46Z</time>
      </trkpt>
      <trkpt lat="42.640030" lon="0.432668">
        <ele>2728.000000</ele>
        <time>2021-09-04T13:41:47Z</time>
      </trkpt>
      <trkpt lat="42.640033" lon="0.432655">
        <ele>2728.000000</ele>
        <time>2021-09-04T13:41:48Z</time>
      </trkpt>
      <trkpt lat="42.640037" lon="0.432647">
        <ele>2728.000000</ele>
        <time>2021-09-04T13:41:49Z</time>
      </trkpt>
      <trkpt lat="42.640040" lon="0.432637">
        <ele>2728.000000</ele>
        <time>2021-09-04T13:41:50Z</time>
      </trkpt>
      <trkpt lat="42.640043" lon="0.432632">
        <ele>2728.000000</ele>
        <time>2021-09-04T13:41:51Z</time>
      </trkpt>
      <trkpt lat="42.640043" lon="0.432628">
        <ele>2728.000000</ele>
        <time>2021-09-04T13:41:52Z</time>
      </trkpt>
      <trkpt lat="42.640043" lon="0.432628">
        <ele>2728.000000</ele>
        <time>2021-09-04T13:41:53Z</time>
      </trkpt>
      <trkpt lat="42.640043" lon="0.432627">
        <ele>2728.000000</ele>
        <time>2021-09-04T13:41:54Z</time>
      </trkpt>
      <trkpt lat="42.640043" lon="0.432623">
        <ele>2728.000000</ele>
        <time>2021-09-04T13:41:55Z</time>
      </trkpt>
      <trkpt lat="42.640043" lon="0.432618">
        <ele>2728.000000</ele>
        <time>2021-09-04T13:41:56Z</time>
      </trkpt>
      <trkpt lat="42.640043" lon="0.432615">
        <ele>2728.000000</ele>
        <time>2021-09-04T13:41:57Z</time>
      </trkpt>
      <trkpt lat="42.640047" lon="0.432607">
        <ele>2728.000000</ele>
        <time>2021-09-04T13:41:58Z</time>
      </trkpt>
      <trkpt lat="42.640047" lon="0.432603">
        <ele>2728.000000</ele>
        <time>2021-09-04T13:41:59Z</time>
      </trkpt>
      <trkpt lat="42.640049" lon="0.432602">
        <ele>2728.000000</ele>
        <time>2021-09-04T13:42:00Z</time>
      </trkpt>
      <trkpt lat="42.640046" lon="0.432607">
        <ele>2728.000000</ele>
        <time>2021-09-04T13:42:03Z</time>
      </trkpt>
      <trkpt lat="42.640043" lon="0.432612">
        <ele>2728.000000</ele>
        <time>2021-09-04T13:42:04Z</time>
      </trkpt>
      <trkpt lat="42.640042" lon="0.432612">
        <ele>2728.000000</ele>
        <time>2021-09-04T13:42:05Z</time>
      </trkpt>
      <trkpt lat="42.640046" lon="0.432607">
        <ele>2728.000000</ele>
        <time>2021-09-04T13:42:07Z</time>
      </trkpt>
      <trkpt lat="42.640055" lon="0.432570">
        <ele>2732.000000</ele>
        <time>2021-09-04T13:45:07Z</time>
      </trkpt>
      <trkpt lat="42.640055" lon="0.432570">
        <ele>2733.000000</ele>
        <time>2021-09-04T13:45:12Z</time>
      </trkpt>
      <trkpt lat="42.640070" lon="0.432520">
        <ele>2733.000000</ele>
        <time>2021-09-04T13:46:29Z</time>
      </trkpt>
      <trkpt lat="42.640077" lon="0.432513">
        <ele>2733.000000</ele>
        <time>2021-09-04T13:46:30Z</time>
      </trkpt>
      <trkpt lat="42.640086" lon="0.432505">
        <ele>2733.000000</ele>
        <time>2021-09-04T13:46:31Z</time>
      </trkpt>
      <trkpt lat="42.640092" lon="0.432495">
        <ele>2733.000000</ele>
        <time>2021-09-04T13:46:32Z</time>
      </trkpt>
      <trkpt lat="42.640098" lon="0.432480">
        <ele>2733.000000</ele>
        <time>2021-09-04T13:46:33Z</time>
      </trkpt>
      <trkpt lat="42.640098" lon="0.432468">
        <ele>2733.000000</ele>
        <time>2021-09-04T13:46:34Z</time>
      </trkpt>
      <trkpt lat="42.640087" lon="0.432457">
        <ele>2733.000000</ele>
        <time>2021-09-04T13:46:35Z</time>
      </trkpt>
      <trkpt lat="42.640080" lon="0.432445">
        <ele>2732.000000</ele>
        <time>2021-09-04T13:46:36Z</time>
      </trkpt>
      <trkpt lat="42.640073" lon="0.432438">
        <ele>2732.000000</ele>
        <time>2021-09-04T13:46:37Z</time>
      </trkpt>
      <trkpt lat="42.640060" lon="0.432432">
        <ele>2732.000000</ele>
        <time>2021-09-04T13:46:38Z</time>
      </trkpt>
      <trkpt lat="42.640048" lon="0.432427">
        <ele>2732.000000</ele>
        <time>2021-09-04T13:46:39Z</time>
      </trkpt>
      <trkpt lat="42.640038" lon="0.432422">
        <ele>2732.000000</ele>
        <time>2021-09-04T13:46:40Z</time>
      </trkpt>
      <trkpt lat="42.640030" lon="0.432418">
        <ele>2732.000000</ele>
        <time>2021-09-04T13:46:41Z</time>
      </trkpt>
      <trkpt lat="42.640025" lon="0.432410">
        <ele>2732.000000</ele>
        <time>2021-09-04T13:46:42Z</time>
      </trkpt>
      <trkpt lat="42.640024" lon="0.432407">
        <ele>2732.000000</ele>
        <time>2021-09-04T13:46:44Z</time>
      </trkpt>
      <trkpt lat="42.640022" lon="0.432405">
        <ele>2732.000000</ele>
        <time>2021-09-04T13:46:47Z</time>
      </trkpt>
      <trkpt lat="42.640022" lon="0.432405">
        <ele>2732.000000</ele>
        <time>2021-09-04T13:46:49Z</time>
      </trkpt>
      <trkpt lat="42.640023" lon="0.432405">
        <ele>2732.000000</ele>
        <time>2021-09-04T13:46:51Z</time>
      </trkpt>
      <trkpt lat="42.640022" lon="0.432397">
        <ele>2732.000000</ele>
        <time>2021-09-04T13:46:52Z</time>
      </trkpt>
      <trkpt lat="42.640023" lon="0.432385">
        <ele>2732.000000</ele>
        <time>2021-09-04T13:46:53Z</time>
      </trkpt>
      <trkpt lat="42.640025" lon="0.432373">
        <ele>2732.000000</ele>
        <time>2021-09-04T13:46:54Z</time>
      </trkpt>
      <trkpt lat="42.640022" lon="0.432362">
        <ele>2732.000000</ele>
        <time>2021-09-04T13:46:55Z</time>
      </trkpt>
      <trkpt lat="42.640027" lon="0.432350">
        <ele>2732.000000</ele>
        <time>2021-09-04T13:46:56Z</time>
      </trkpt>
      <trkpt lat="42.640035" lon="0.432338">
        <ele>2732.000000</ele>
        <time>2021-09-04T13:46:57Z</time>
      </trkpt>
      <trkpt lat="42.640045" lon="0.432328">
        <ele>2731.000000</ele>
        <time>2021-09-04T13:46:58Z</time>
      </trkpt>
      <trkpt lat="42.640048" lon="0.432323">
        <ele>2731.000000</ele>
        <time>2021-09-04T13:46:59Z</time>
      </trkpt>
      <trkpt lat="42.640052" lon="0.432315">
        <ele>2731.000000</ele>
        <time>2021-09-04T13:47:00Z</time>
      </trkpt>
      <trkpt lat="42.640050" lon="0.432308">
        <ele>2731.000000</ele>
        <time>2021-09-04T13:47:01Z</time>
      </trkpt>
      <trkpt lat="42.640051" lon="0.432300">
        <ele>2731.000000</ele>
        <time>2021-09-04T13:47:02Z</time>
      </trkpt>
      <trkpt lat="42.640055" lon="0.432290">
        <ele>2730.000000</ele>
        <time>2021-09-04T13:47:03Z</time>
      </trkpt>
      <trkpt lat="42.640062" lon="0.432277">
        <ele>2730.000000</ele>
        <time>2021-09-04T13:47:04Z</time>
      </trkpt>
      <trkpt lat="42.640070" lon="0.432262">
        <ele>2730.000000</ele>
        <time>2021-09-04T13:47:05Z</time>
      </trkpt>
      <trkpt lat="42.640081" lon="0.432247">
        <ele>2730.000000</ele>
        <time>2021-09-04T13:47:06Z</time>
      </trkpt>
      <trkpt lat="42.640093" lon="0.432232">
        <ele>2730.000000</ele>
        <time>2021-09-04T13:47:07Z</time>
      </trkpt>
      <trkpt lat="42.640104" lon="0.432218">
        <ele>2730.000000</ele>
        <time>2021-09-04T13:47:08Z</time>
      </trkpt>
      <trkpt lat="42.640110" lon="0.432212">
        <ele>2729.000000</ele>
        <time>2021-09-04T13:47:09Z</time>
      </trkpt>
      <trkpt lat="42.640114" lon="0.432205">
        <ele>2729.000000</ele>
        <time>2021-09-04T13:47:11Z</time>
      </trkpt>
      <trkpt lat="42.640117" lon="0.432200">
        <ele>2729.000000</ele>
        <time>2021-09-04T13:47:11Z</time>
      </trkpt>
      <trkpt lat="42.640122" lon="0.432193">
        <ele>2729.000000</ele>
        <time>2021-09-04T13:47:12Z</time>
      </trkpt>
      <trkpt lat="42.640125" lon="0.432187">
        <ele>2729.000000</ele>
        <time>2021-09-04T13:47:13Z</time>
      </trkpt>
      <trkpt lat="42.640133" lon="0.432172">
        <ele>2729.000000</ele>
        <time>2021-09-04T13:47:14Z</time>
      </trkpt>
      <trkpt lat="42.640140" lon="0.432158">
        <ele>2728.000000</ele>
        <time>2021-09-04T13:47:15Z</time>
      </trkpt>
      <trkpt lat="42.640143" lon="0.432148">
        <ele>2728.000000</ele>
        <time>2021-09-04T13:47:16Z</time>
      </trkpt>
      <trkpt lat="42.640145" lon="0.432140">
        <ele>2728.000000</ele>
        <time>2021-09-04T13:47:17Z</time>
      </trkpt>
      <trkpt lat="42.640150" lon="0.432128">
        <ele>2728.000000</ele>
        <time>2021-09-04T13:47:18Z</time>
      </trkpt>
      <trkpt lat="42.640162" lon="0.432125">
        <ele>2728.000000</ele>
        <time>2021-09-04T13:47:19Z</time>
      </trkpt>
      <trkpt lat="42.640173" lon="0.432118">
        <ele>2727.000000</ele>
        <time>2021-09-04T13:47:20Z</time>
      </trkpt>
      <trkpt lat="42.640183" lon="0.432117">
        <ele>2727.000000</ele>
        <time>2021-09-04T13:47:21Z</time>
      </trkpt>
      <trkpt lat="42.640180" lon="0.432118">
        <ele>2727.000000</ele>
        <time>2021-09-04T13:47:22Z</time>
      </trkpt>
      <trkpt lat="42.640172" lon="0.432123">
        <ele>2727.000000</ele>
        <time>2021-09-04T13:47:23Z</time>
      </trkpt>
      <trkpt lat="42.640167" lon="0.432123">
        <ele>2727.000000</ele>
        <time>2021-09-04T13:47:24Z</time>
      </trkpt>
      <trkpt lat="42.640158" lon="0.432120">
        <ele>2727.000000</ele>
        <time>2021-09-04T13:47:25Z</time>
      </trkpt>
      <trkpt lat="42.640152" lon="0.432117">
        <ele>2727.000000</ele>
        <time>2021-09-04T13:47:26Z</time>
      </trkpt>
      <trkpt lat="42.640150" lon="0.432112">
        <ele>2727.000000</ele>
        <time>2021-09-04T13:47:27Z</time>
      </trkpt>
      <trkpt lat="42.640148" lon="0.432097">
        <ele>2727.000000</ele>
        <time>2021-09-04T13:47:28Z</time>
      </trkpt>
      <trkpt lat="42.640148" lon="0.432088">
        <ele>2727.000000</ele>
        <time>2021-09-04T13:47:29Z</time>
      </trkpt>
      <trkpt lat="42.640147" lon="0.432082">
        <ele>2727.000000</ele>
        <time>2021-09-04T13:47:30Z</time>
      </trkpt>
      <trkpt lat="42.640152" lon="0.432067">
        <ele>2727.000000</ele>
        <time>2021-09-04T13:47:31Z</time>
      </trkpt>
      <trkpt lat="42.640158" lon="0.432057">
        <ele>2727.000000</ele>
        <time>2021-09-04T13:47:32Z</time>
      </trkpt>
      <trkpt lat="42.640158" lon="0.432048">
        <ele>2727.000000</ele>
        <time>2021-09-04T13:47:33Z</time>
      </trkpt>
      <trkpt lat="42.640163" lon="0.432042">
        <ele>2727.000000</ele>
        <time>2021-09-04T13:47:34Z</time>
      </trkpt>
      <trkpt lat="42.640168" lon="0.432042">
        <ele>2727.000000</ele>
        <time>2021-09-04T13:47:36Z</time>
      </trkpt>
      <trkpt lat="42.640168" lon="0.432045">
        <ele>2727.000000</ele>
        <time>2021-09-04T13:47:37Z</time>
      </trkpt>
      <trkpt lat="42.640167" lon="0.432046">
        <ele>2727.000000</ele>
        <time>2021-09-04T13:47:38Z</time>
      </trkpt>
      <trkpt lat="42.640163" lon="0.432047">
        <ele>2727.000000</ele>
        <time>2021-09-04T13:47:39Z</time>
      </trkpt>
      <trkpt lat="42.640158" lon="0.432048">
        <ele>2727.000000</ele>
        <time>2021-09-04T13:47:40Z</time>
      </trkpt>
      <trkpt lat="42.640160" lon="0.432046">
        <ele>2727.000000</ele>
        <time>2021-09-04T13:47:41Z</time>
      </trkpt>
      <trkpt lat="42.640163" lon="0.432045">
        <ele>2728.000000</ele>
        <time>2021-09-04T13:47:42Z</time>
      </trkpt>
      <trkpt lat="42.640167" lon="0.432042">
        <ele>2728.000000</ele>
        <time>2021-09-04T13:47:43Z</time>
      </trkpt>
      <trkpt lat="42.640167" lon="0.432040">
        <ele>2728.000000</ele>
        <time>2021-09-04T13:47:44Z</time>
      </trkpt>
      <trkpt lat="42.640172" lon="0.432032">
        <ele>2728.000000</ele>
        <time>2021-09-04T13:47:45Z</time>
      </trkpt>
      <trkpt lat="42.640173" lon="0.432027">
        <ele>2728.000000</ele>
        <time>2021-09-04T13:47:46Z</time>
      </trkpt>
      <trkpt lat="42.640173" lon="0.432025">
        <ele>2728.000000</ele>
        <time>2021-09-04T13:47:47Z</time>
      </trkpt>
      <trkpt lat="42.640167" lon="0.432036">
        <ele>2729.000000</ele>
        <time>2021-09-04T13:47:48Z</time>
      </trkpt>
      <trkpt lat="42.640190" lon="0.431968">
        <ele>2731.000000</ele>
        <time>2021-09-04T13:47:55Z</time>
      </trkpt>
      <trkpt lat="42.640188" lon="0.431967">
        <ele>2731.000000</ele>
        <time>2021-09-04T13:47:56Z</time>
      </trkpt>
      <trkpt lat="42.640185" lon="0.431967">
        <ele>2731.000000</ele>
        <time>2021-09-04T13:47:57Z</time>
      </trkpt>
      <trkpt lat="42.640179" lon="0.431968">
        <ele>2732.000000</ele>
        <time>2021-09-04T13:47:58Z</time>
      </trkpt>
      <trkpt lat="42.640174" lon="0.431972">
        <ele>2732.000000</ele>
        <time>2021-09-04T13:47:59Z</time>
      </trkpt>
      <trkpt lat="42.640168" lon="0.431972">
        <ele>2732.000000</ele>
        <time>2021-09-04T13:48:00Z</time>
      </trkpt>
      <trkpt lat="42.640160" lon="0.431975">
        <ele>2732.000000</ele>
        <time>2021-09-04T13:48:01Z</time>
      </trkpt>
      <trkpt lat="42.640150" lon="0.431977">
        <ele>2732.000000</ele>
        <time>2021-09-04T13:48:02Z</time>
      </trkpt>
      <trkpt lat="42.640138" lon="0.431980">
        <ele>2733.000000</ele>
        <time>2021-09-04T13:48:03Z</time>
      </trkpt>
      <trkpt lat="42.640125" lon="0.431985">
        <ele>2733.000000</ele>
        <time>2021-09-04T13:48:04Z</time>
      </trkpt>
      <trkpt lat="42.640115" lon="0.431987">
        <ele>2733.000000</ele>
        <time>2021-09-04T13:48:05Z</time>
      </trkpt>
      <trkpt lat="42.640105" lon="0.431987">
        <ele>2733.000000</ele>
        <time>2021-09-04T13:48:06Z</time>
      </trkpt>
      <trkpt lat="42.640097" lon="0.431986">
        <ele>2733.000000</ele>
        <time>2021-09-04T13:48:07Z</time>
      </trkpt>
      <trkpt lat="42.640085" lon="0.431987">
        <ele>2733.000000</ele>
        <time>2021-09-04T13:48:08Z</time>
      </trkpt>
      <trkpt lat="42.640073" lon="0.431988">
        <ele>2733.000000</ele>
        <time>2021-09-04T13:48:09Z</time>
      </trkpt>
      <trkpt lat="42.640062" lon="0.431988">
        <ele>2733.000000</ele>
        <time>2021-09-04T13:48:10Z</time>
      </trkpt>
      <trkpt lat="42.640047" lon="0.431989">
        <ele>2733.000000</ele>
        <time>2021-09-04T13:48:11Z</time>
      </trkpt>
      <trkpt lat="42.640032" lon="0.431991">
        <ele>2733.000000</ele>
        <time>2021-09-04T13:48:12Z</time>
      </trkpt>
      <trkpt lat="42.640015" lon="0.431994">
        <ele>2733.000000</ele>
        <time>2021-09-04T13:48:13Z</time>
      </trkpt>
      <trkpt lat="42.639997" lon="0.431999">
        <ele>2733.000000</ele>
        <time>2021-09-04T13:48:14Z</time>
      </trkpt>
      <trkpt lat="42.639987" lon="0.432003">
        <ele>2733.000000</ele>
        <time>2021-09-04T13:48:15Z</time>
      </trkpt>
      <trkpt lat="42.639973" lon="0.432007">
        <ele>2733.000000</ele>
        <time>2021-09-04T13:48:16Z</time>
      </trkpt>
      <trkpt lat="42.639957" lon="0.432011">
        <ele>2733.000000</ele>
        <time>2021-09-04T13:48:17Z</time>
      </trkpt>
      <trkpt lat="42.639943" lon="0.432014">
        <ele>2733.000000</ele>
        <time>2021-09-04T13:48:18Z</time>
      </trkpt>
      <trkpt lat="42.639932" lon="0.432016">
        <ele>2733.000000</ele>
        <time>2021-09-04T13:48:19Z</time>
      </trkpt>
      <trkpt lat="42.639918" lon="0.432017">
        <ele>2732.000000</ele>
        <time>2021-09-04T13:48:20Z</time>
      </trkpt>
      <trkpt lat="42.639903" lon="0.432019">
        <ele>2732.000000</ele>
        <time>2021-09-04T13:48:21Z</time>
      </trkpt>
      <trkpt lat="42.639895" lon="0.432018">
        <ele>2732.000000</ele>
        <time>2021-09-04T13:48:22Z</time>
      </trkpt>
      <trkpt lat="42.639890" lon="0.432016">
        <ele>2732.000000</ele>
        <time>2021-09-04T13:48:23Z</time>
      </trkpt>
      <trkpt lat="42.639883" lon="0.432014">
        <ele>2731.000000</ele>
        <time>2021-09-04T13:48:24Z</time>
      </trkpt>
      <trkpt lat="42.639875" lon="0.432013">
        <ele>2731.000000</ele>
        <time>2021-09-04T13:48:25Z</time>
      </trkpt>
      <trkpt lat="42.639863" lon="0.432011">
        <ele>2731.000000</ele>
        <time>2021-09-04T13:48:26Z</time>
      </trkpt>
      <trkpt lat="42.639853" lon="0.432009">
        <ele>2731.000000</ele>
        <time>2021-09-04T13:48:27Z</time>
      </trkpt>
      <trkpt lat="42.639843" lon="0.432008">
        <ele>2731.000000</ele>
        <time>2021-09-04T13:48:28Z</time>
      </trkpt>
      <trkpt lat="42.639833" lon="0.432006">
        <ele>2730.000000</ele>
        <time>2021-09-04T13:48:29Z</time>
      </trkpt>
      <trkpt lat="42.639818" lon="0.432004">
        <ele>2730.000000</ele>
        <time>2021-09-04T13:48:30Z</time>
      </trkpt>
      <trkpt lat="42.639805" lon="0.432002">
        <ele>2730.000000</ele>
        <time>2021-09-04T13:48:31Z</time>
      </trkpt>
      <trkpt lat="42.639797" lon="0.431962">
        <ele>2730.000000</ele>
        <time>2021-09-04T13:48:32Z</time>
      </trkpt>
      <trkpt lat="42.639788" lon="0.431947">
        <ele>2730.000000</ele>
        <time>2021-09-04T13:48:33Z</time>
      </trkpt>
      <trkpt lat="42.639782" lon="0.431933">
        <ele>2730.000000</ele>
        <time>2021-09-04T13:48:34Z</time>
      </trkpt>
      <trkpt lat="42.639773" lon="0.431923">
        <ele>2730.000000</ele>
        <time>2021-09-04T13:48:35Z</time>
      </trkpt>
      <trkpt lat="42.639758" lon="0.431918">
        <ele>2730.000000</ele>
        <time>2021-09-04T13:48:36Z</time>
      </trkpt>
      <trkpt lat="42.639752" lon="0.431913">
        <ele>2730.000000</ele>
        <time>2021-09-04T13:48:37Z</time>
      </trkpt>
      <trkpt lat="42.639745" lon="0.431906">
        <ele>2731.000000</ele>
        <time>2021-09-04T13:48:38Z</time>
      </trkpt>
      <trkpt lat="42.639743" lon="0.431895">
        <ele>2731.000000</ele>
        <time>2021-09-04T13:48:39Z</time>
      </trkpt>
      <trkpt lat="42.639743" lon="0.431892">
        <ele>2731.000000</ele>
        <time>2021-09-04T13:48:40Z</time>
      </trkpt>
      <trkpt lat="42.639742" lon="0.431890">
        <ele>2731.000000</ele>
        <time>2021-09-04T13:48:41Z</time>
      </trkpt>
      <trkpt lat="42.639743" lon="0.431890">
        <ele>2731.000000</ele>
        <time>2021-09-04T13:48:42Z</time>
      </trkpt>
      <trkpt lat="42.639747" lon="0.431883">
        <ele>2732.000000</ele>
        <time>2021-09-04T13:48:44Z</time>
      </trkpt>
      <trkpt lat="42.639749" lon="0.431880">
        <ele>2732.000000</ele>
        <time>2021-09-04T13:48:45Z</time>
      </trkpt>
      <trkpt lat="42.639747" lon="0.431883">
        <ele>2732.000000</ele>
        <time>2021-09-04T13:48:46Z</time>
      </trkpt>
      <trkpt lat="42.639747" lon="0.431882">
        <ele>2732.000000</ele>
        <time>2021-09-04T13:48:47Z</time>
      </trkpt>
      <trkpt lat="42.639747" lon="0.431880">
        <ele>2732.000000</ele>
        <time>2021-09-04T13:48:48Z</time>
      </trkpt>
      <trkpt lat="42.639752" lon="0.431873">
        <ele>2732.000000</ele>
        <time>2021-09-04T13:48:49Z</time>
      </trkpt>
      <trkpt lat="42.639756" lon="0.431862">
        <ele>2732.000000</ele>
        <time>2021-09-04T13:48:50Z</time>
      </trkpt>
      <trkpt lat="42.639756" lon="0.431848">
        <ele>2732.000000</ele>
        <time>2021-09-04T13:48:51Z</time>
      </trkpt>
      <trkpt lat="42.639755" lon="0.431837">
        <ele>2732.000000</ele>
        <time>2021-09-04T13:48:52Z</time>
      </trkpt>
      <trkpt lat="42.639753" lon="0.431832">
        <ele>2732.000000</ele>
        <time>2021-09-04T13:48:53Z</time>
      </trkpt>
      <trkpt lat="42.639751" lon="0.431830">
        <ele>2732.000000</ele>
        <time>2021-09-04T13:48:54Z</time>
      </trkpt>
      <trkpt lat="42.639748" lon="0.431833">
        <ele>2732.000000</ele>
        <time>2021-09-04T13:48:55Z</time>
      </trkpt>
      <trkpt lat="42.639747" lon="0.431832">
        <ele>2732.000000</ele>
        <time>2021-09-04T13:48:57Z</time>
      </trkpt>
      <trkpt lat="42.639745" lon="0.431825">
        <ele>2732.000000</ele>
        <time>2021-09-04T13:48:59Z</time>
      </trkpt>
      <trkpt lat="42.639744" lon="0.431822">
        <ele>2732.000000</ele>
        <time>2021-09-04T13:49:00Z</time>
      </trkpt>
      <trkpt lat="42.639743" lon="0.431818">
        <ele>2732.000000</ele>
        <time>2021-09-04T13:49:01Z</time>
      </trkpt>
      <trkpt lat="42.639741" lon="0.431810">
        <ele>2732.000000</ele>
        <time>2021-09-04T13:49:02Z</time>
      </trkpt>
      <trkpt lat="42.639728" lon="0.431800">
        <ele>2732.000000</ele>
        <time>2021-09-04T13:49:03Z</time>
      </trkpt>
      <trkpt lat="42.639723" lon="0.431788">
        <ele>2732.000000</ele>
        <time>2021-09-04T13:49:04Z</time>
      </trkpt>
      <trkpt lat="42.639718" lon="0.431782">
        <ele>2732.000000</ele>
        <time>2021-09-04T13:49:05Z</time>
      </trkpt>
      <trkpt lat="42.639710" lon="0.431768">
        <ele>2732.000000</ele>
        <time>2021-09-04T13:49:06Z</time>
      </trkpt>
      <trkpt lat="42.639703" lon="0.431757">
        <ele>2732.000000</ele>
        <time>2021-09-04T13:49:07Z</time>
      </trkpt>
      <trkpt lat="42.639700" lon="0.431740">
        <ele>2732.000000</ele>
        <time>2021-09-04T13:49:08Z</time>
      </trkpt>
      <trkpt lat="42.639701" lon="0.431728">
        <ele>2732.000000</ele>
        <time>2021-09-04T13:49:09Z</time>
      </trkpt>
      <trkpt lat="42.639707" lon="0.431713">
        <ele>2732.000000</ele>
        <time>2021-09-04T13:49:10Z</time>
      </trkpt>
      <trkpt lat="42.639705" lon="0.431700">
        <ele>2732.000000</ele>
        <time>2021-09-04T13:49:11Z</time>
      </trkpt>
      <trkpt lat="42.639705" lon="0.431690">
        <ele>2732.000000</ele>
        <time>2021-09-04T13:49:12Z</time>
      </trkpt>
      <trkpt lat="42.639704" lon="0.431682">
        <ele>2732.000000</ele>
        <time>2021-09-04T13:49:13Z</time>
      </trkpt>
      <trkpt lat="42.639704" lon="0.431675">
        <ele>2732.000000</ele>
        <time>2021-09-04T13:49:14Z</time>
      </trkpt>
      <trkpt lat="42.639702" lon="0.431668">
        <ele>2732.000000</ele>
        <time>2021-09-04T13:49:15Z</time>
      </trkpt>
      <trkpt lat="42.639699" lon="0.431658">
        <ele>2732.000000</ele>
        <time>2021-09-04T13:49:16Z</time>
      </trkpt>
      <trkpt lat="42.639695" lon="0.431650">
        <ele>2732.000000</ele>
        <time>2021-09-04T13:49:17Z</time>
      </trkpt>
      <trkpt lat="42.639691" lon="0.431640">
        <ele>2732.000000</ele>
        <time>2021-09-04T13:49:18Z</time>
      </trkpt>
      <trkpt lat="42.639688" lon="0.431628">
        <ele>2732.000000</ele>
        <time>2021-09-04T13:49:19Z</time>
      </trkpt>
      <trkpt lat="42.639685" lon="0.431613">
        <ele>2732.000000</ele>
        <time>2021-09-04T13:49:20Z</time>
      </trkpt>
      <trkpt lat="42.639684" lon="0.431603">
        <ele>2732.000000</ele>
        <time>2021-09-04T13:49:21Z</time>
      </trkpt>
      <trkpt lat="42.639683" lon="0.431593">
        <ele>2732.000000</ele>
        <time>2021-09-04T13:49:22Z</time>
      </trkpt>
      <trkpt lat="42.639684" lon="0.431588">
        <ele>2732.000000</ele>
        <time>2021-09-04T13:49:23Z</time>
      </trkpt>
      <trkpt lat="42.639684" lon="0.431585">
        <ele>2732.000000</ele>
        <time>2021-09-04T13:49:24Z</time>
      </trkpt>
      <trkpt lat="42.639682" lon="0.431575">
        <ele>2732.000000</ele>
        <time>2021-09-04T13:49:25Z</time>
      </trkpt>
      <trkpt lat="42.639682" lon="0.431570">
        <ele>2732.000000</ele>
        <time>2021-09-04T13:49:26Z</time>
      </trkpt>
      <trkpt lat="42.639680" lon="0.431568">
        <ele>2732.000000</ele>
        <time>2021-09-04T13:49:27Z</time>
      </trkpt>
      <trkpt lat="42.639680" lon="0.431567">
        <ele>2732.000000</ele>
        <time>2021-09-04T13:49:28Z</time>
      </trkpt>
      <trkpt lat="42.639670" lon="0.431562">
        <ele>2732.000000</ele>
        <time>2021-09-04T13:49:29Z</time>
      </trkpt>
      <trkpt lat="42.639668" lon="0.431555">
        <ele>2732.000000</ele>
        <time>2021-09-04T13:49:30Z</time>
      </trkpt>
      <trkpt lat="42.639666" lon="0.431552">
        <ele>2732.000000</ele>
        <time>2021-09-04T13:49:31Z</time>
      </trkpt>
      <trkpt lat="42.639663" lon="0.431550">
        <ele>2732.000000</ele>
        <time>2021-09-04T13:49:32Z</time>
      </trkpt>
      <trkpt lat="42.639660" lon="0.431547">
        <ele>2732.000000</ele>
        <time>2021-09-04T13:49:33Z</time>
      </trkpt>
      <trkpt lat="42.639653" lon="0.431543">
        <ele>2732.000000</ele>
        <time>2021-09-04T13:49:34Z</time>
      </trkpt>
      <trkpt lat="42.639648" lon="0.431543">
        <ele>2732.000000</ele>
        <time>2021-09-04T13:49:35Z</time>
      </trkpt>
      <trkpt lat="42.639645" lon="0.431541">
        <ele>2732.000000</ele>
        <time>2021-09-04T13:49:36Z</time>
      </trkpt>
      <trkpt lat="42.639647" lon="0.431539">
        <ele>2732.000000</ele>
        <time>2021-09-04T13:49:37Z</time>
      </trkpt>
      <trkpt lat="42.639647" lon="0.431537">
        <ele>2732.000000</ele>
        <time>2021-09-04T13:49:38Z</time>
      </trkpt>
      <trkpt lat="42.639645" lon="0.431531">
        <ele>2732.000000</ele>
        <time>2021-09-04T13:49:39Z</time>
      </trkpt>
      <trkpt lat="42.639645" lon="0.431512">
        <ele>2732.000000</ele>
        <time>2021-09-04T13:49:40Z</time>
      </trkpt>
      <trkpt lat="42.639643" lon="0.431507">
        <ele>2732.000000</ele>
        <time>2021-09-04T13:49:41Z</time>
      </trkpt>
      <trkpt lat="42.639643" lon="0.431502">
        <ele>2732.000000</ele>
        <time>2021-09-04T13:49:42Z</time>
      </trkpt>
      <trkpt lat="42.639642" lon="0.431503">
        <ele>2732.000000</ele>
        <time>2021-09-04T13:49:43Z</time>
      </trkpt>
      <trkpt lat="42.639639" lon="0.431500">
        <ele>2732.000000</ele>
        <time>2021-09-04T13:49:44Z</time>
      </trkpt>
      <trkpt lat="42.639637" lon="0.431497">
        <ele>2732.000000</ele>
        <time>2021-09-04T13:49:45Z</time>
      </trkpt>
      <trkpt lat="42.639637" lon="0.431495">
        <ele>2732.000000</ele>
        <time>2021-09-04T13:49:46Z</time>
      </trkpt>
      <trkpt lat="42.639636" lon="0.431490">
        <ele>2732.000000</ele>
        <time>2021-09-04T13:49:47Z</time>
      </trkpt>
      <trkpt lat="42.639637" lon="0.431485">
        <ele>2732.000000</ele>
        <time>2021-09-04T13:49:48Z</time>
      </trkpt>
      <trkpt lat="42.639642" lon="0.431477">
        <ele>2732.000000</ele>
        <time>2021-09-04T13:49:49Z</time>
      </trkpt>
      <trkpt lat="42.639643" lon="0.431467">
        <ele>2732.000000</ele>
        <time>2021-09-04T13:49:50Z</time>
      </trkpt>
      <trkpt lat="42.639642" lon="0.431458">
        <ele>2732.000000</ele>
        <time>2021-09-04T13:49:51Z</time>
      </trkpt>
      <trkpt lat="42.639641" lon="0.431450">
        <ele>2732.000000</ele>
        <time>2021-09-04T13:49:52Z</time>
      </trkpt>
      <trkpt lat="42.639633" lon="0.431442">
        <ele>2732.000000</ele>
        <time>2021-09-04T13:49:53Z</time>
      </trkpt>
      <trkpt lat="42.639627" lon="0.431433">
        <ele>2732.000000</ele>
        <time>2021-09-04T13:49:54Z</time>
      </trkpt>
      <trkpt lat="42.639622" lon="0.431425">
        <ele>2732.000000</ele>
        <time>2021-09-04T13:49:55Z</time>
      </trkpt>
      <trkpt lat="42.639617" lon="0.431415">
        <ele>2732.000000</ele>
        <time>2021-09-04T13:49:56Z</time>
      </trkpt>
      <trkpt lat="42.639611" lon="0.431410">
        <ele>2732.000000</ele>
        <time>2021-09-04T13:49:56Z</time>
      </trkpt>
      <trkpt lat="42.639606" lon="0.431403">
        <ele>2732.000000</ele>
        <time>2021-09-04T13:49:57Z</time>
      </trkpt>
      <trkpt lat="42.639601" lon="0.431400">
        <ele>2732.000000</ele>
        <time>2021-09-04T13:49:58Z</time>
      </trkpt>
      <trkpt lat="42.639591" lon="0.431392">
        <ele>2732.000000</ele>
        <time>2021-09-04T13:49:59Z</time>
      </trkpt>
      <trkpt lat="42.639582" lon="0.431383">
        <ele>2732.000000</ele>
        <time>2021-09-04T13:50:00Z</time>
      </trkpt>
      <trkpt lat="42.639576" lon="0.431377">
        <ele>2732.000000</ele>
        <time>2021-09-04T13:50:01Z</time>
      </trkpt>
      <trkpt lat="42.639568" lon="0.431367">
        <ele>2732.000000</ele>
        <time>2021-09-04T13:50:02Z</time>
      </trkpt>
      <trkpt lat="42.639559" lon="0.431357">
        <ele>2732.000000</ele>
        <time>2021-09-04T13:50:03Z</time>
      </trkpt>
      <trkpt lat="42.639547" lon="0.431342">
        <ele>2732.000000</ele>
        <time>2021-09-04T13:50:04Z</time>
      </trkpt>
      <trkpt lat="42.639539" lon="0.431330">
        <ele>2733.000000</ele>
        <time>2021-09-04T13:50:05Z</time>
      </trkpt>
      <trkpt lat="42.639533" lon="0.431320">
        <ele>2733.000000</ele>
        <time>2021-09-04T13:50:06Z</time>
      </trkpt>
      <trkpt lat="42.639527" lon="0.431307">
        <ele>2733.000000</ele>
        <time>2021-09-04T13:50:07Z</time>
      </trkpt>
      <trkpt lat="42.639522" lon="0.431295">
        <ele>2733.000000</ele>
        <time>2021-09-04T13:50:08Z</time>
      </trkpt>
      <trkpt lat="42.639518" lon="0.431282">
        <ele>2733.000000</ele>
        <time>2021-09-04T13:50:09Z</time>
      </trkpt>
      <trkpt lat="42.639515" lon="0.431267">
        <ele>2734.000000</ele>
        <time>2021-09-04T13:50:10Z</time>
      </trkpt>
      <trkpt lat="42.639514" lon="0.431255">
        <ele>2734.000000</ele>
        <time>2021-09-04T13:50:11Z</time>
      </trkpt>
      <trkpt lat="42.639514" lon="0.431245">
        <ele>2734.000000</ele>
        <time>2021-09-04T13:50:12Z</time>
      </trkpt>
      <trkpt lat="42.639511" lon="0.431228">
        <ele>2734.000000</ele>
        <time>2021-09-04T13:50:13Z</time>
      </trkpt>
      <trkpt lat="42.639510" lon="0.431220">
        <ele>2734.000000</ele>
        <time>2021-09-04T13:50:14Z</time>
      </trkpt>
      <trkpt lat="42.639506" lon="0.431205">
        <ele>2734.000000</ele>
        <time>2021-09-04T13:50:15Z</time>
      </trkpt>
      <trkpt lat="42.639504" lon="0.431193">
        <ele>2735.000000</ele>
        <time>2021-09-04T13:50:16Z</time>
      </trkpt>
      <trkpt lat="42.639502" lon="0.431183">
        <ele>2735.000000</ele>
        <time>2021-09-04T13:50:17Z</time>
      </trkpt>
      <trkpt lat="42.639500" lon="0.431175">
        <ele>2735.000000</ele>
        <time>2021-09-04T13:50:18Z</time>
      </trkpt>
      <trkpt lat="42.639497" lon="0.431163">
        <ele>2735.000000</ele>
        <time>2021-09-04T13:50:19Z</time>
      </trkpt>
      <trkpt lat="42.639493" lon="0.431152">
        <ele>2735.000000</ele>
        <time>2021-09-04T13:50:20Z</time>
      </trkpt>
      <trkpt lat="42.639490" lon="0.431140">
        <ele>2735.000000</ele>
        <time>2021-09-04T13:50:21Z</time>
      </trkpt>
      <trkpt lat="42.639486" lon="0.431130">
        <ele>2735.000000</ele>
        <time>2021-09-04T13:50:22Z</time>
      </trkpt>
      <trkpt lat="42.639482" lon="0.431118">
        <ele>2735.000000</ele>
        <time>2021-09-04T13:50:23Z</time>
      </trkpt>
      <trkpt lat="42.639475" lon="0.431102">
        <ele>2736.000000</ele>
        <time>2021-09-04T13:50:24Z</time>
      </trkpt>
      <trkpt lat="42.639472" lon="0.431092">
        <ele>2736.000000</ele>
        <time>2021-09-04T13:50:25Z</time>
      </trkpt>
      <trkpt lat="42.639468" lon="0.431080">
        <ele>2736.000000</ele>
        <time>2021-09-04T13:50:26Z</time>
      </trkpt>
      <trkpt lat="42.639464" lon="0.431070">
        <ele>2736.000000</ele>
        <time>2021-09-04T13:50:27Z</time>
      </trkpt>
      <trkpt lat="42.639458" lon="0.431053">
        <ele>2736.000000</ele>
        <time>2021-09-04T13:50:28Z</time>
      </trkpt>
      <trkpt lat="42.639454" lon="0.431042">
        <ele>2736.000000</ele>
        <time>2021-09-04T13:50:29Z</time>
      </trkpt>
      <trkpt lat="42.639451" lon="0.431033">
        <ele>2736.000000</ele>
        <time>2021-09-04T13:50:30Z</time>
      </trkpt>
      <trkpt lat="42.639444" lon="0.431017">
        <ele>2736.000000</ele>
        <time>2021-09-04T13:50:31Z</time>
      </trkpt>
      <trkpt lat="42.639440" lon="0.431003">
        <ele>2736.000000</ele>
        <time>2021-09-04T13:50:32Z</time>
      </trkpt>
      <trkpt lat="42.639438" lon="0.430998">
        <ele>2736.000000</ele>
        <time>2021-09-04T13:50:33Z</time>
      </trkpt>
      <trkpt lat="42.639435" lon="0.430993">
        <ele>2736.000000</ele>
        <time>2021-09-04T13:50:34Z</time>
      </trkpt>
      <trkpt lat="42.639433" lon="0.430987">
        <ele>2736.000000</ele>
        <time>2021-09-04T13:50:35Z</time>
      </trkpt>
      <trkpt lat="42.639428" lon="0.430977">
        <ele>2736.000000</ele>
        <time>2021-09-04T13:50:36Z</time>
      </trkpt>
      <trkpt lat="42.639423" lon="0.430967">
        <ele>2736.000000</ele>
        <time>2021-09-04T13:50:37Z</time>
      </trkpt>
      <trkpt lat="42.639414" lon="0.430948">
        <ele>2736.000000</ele>
        <time>2021-09-04T13:50:38Z</time>
      </trkpt>
      <trkpt lat="42.639409" lon="0.430932">
        <ele>2736.000000</ele>
        <time>2021-09-04T13:50:39Z</time>
      </trkpt>
      <trkpt lat="42.639423" lon="0.430910">
        <ele>2736.000000</ele>
        <time>2021-09-04T13:50:40Z</time>
      </trkpt>
      <trkpt lat="42.639432" lon="0.430892">
        <ele>2736.000000</ele>
        <time>2021-09-04T13:50:41Z</time>
      </trkpt>
      <trkpt lat="42.639437" lon="0.430880">
        <ele>2736.000000</ele>
        <time>2021-09-04T13:50:42Z</time>
      </trkpt>
      <trkpt lat="42.639440" lon="0.430865">
        <ele>2736.000000</ele>
        <time>2021-09-04T13:50:43Z</time>
      </trkpt>
      <trkpt lat="42.639443" lon="0.430855">
        <ele>2736.000000</ele>
        <time>2021-09-04T13:50:44Z</time>
      </trkpt>
      <trkpt lat="42.639445" lon="0.430840">
        <ele>2736.000000</ele>
        <time>2021-09-04T13:50:45Z</time>
      </trkpt>
      <trkpt lat="42.639449" lon="0.430822">
        <ele>2736.000000</ele>
        <time>2021-09-04T13:50:46Z</time>
      </trkpt>
      <trkpt lat="42.639452" lon="0.430810">
        <ele>2736.000000</ele>
        <time>2021-09-04T13:50:47Z</time>
      </trkpt>
      <trkpt lat="42.639458" lon="0.430790">
        <ele>2736.000000</ele>
        <time>2021-09-04T13:50:48Z</time>
      </trkpt>
      <trkpt lat="42.639465" lon="0.430772">
        <ele>2736.000000</ele>
        <time>2021-09-04T13:50:49Z</time>
      </trkpt>
      <trkpt lat="42.639470" lon="0.430762">
        <ele>2736.000000</ele>
        <time>2021-09-04T13:50:50Z</time>
      </trkpt>
      <trkpt lat="42.639473" lon="0.430753">
        <ele>2736.000000</ele>
        <time>2021-09-04T13:50:51Z</time>
      </trkpt>
      <trkpt lat="42.639478" lon="0.430740">
        <ele>2736.000000</ele>
        <time>2021-09-04T13:50:52Z</time>
      </trkpt>
      <trkpt lat="42.639482" lon="0.430728">
        <ele>2736.000000</ele>
        <time>2021-09-04T13:50:53Z</time>
      </trkpt>
      <trkpt lat="42.639484" lon="0.430720">
        <ele>2736.000000</ele>
        <time>2021-09-04T13:50:54Z</time>
      </trkpt>
      <trkpt lat="42.639489" lon="0.430708">
        <ele>2736.000000</ele>
        <time>2021-09-04T13:50:55Z</time>
      </trkpt>
      <trkpt lat="42.639494" lon="0.430702">
        <ele>2736.000000</ele>
        <time>2021-09-04T13:50:56Z</time>
      </trkpt>
      <trkpt lat="42.639500" lon="0.430690">
        <ele>2736.000000</ele>
        <time>2021-09-04T13:50:57Z</time>
      </trkpt>
      <trkpt lat="42.639506" lon="0.430677">
        <ele>2736.000000</ele>
        <time>2021-09-04T13:50:58Z</time>
      </trkpt>
      <trkpt lat="42.639510" lon="0.430668">
        <ele>2736.000000</ele>
        <time>2021-09-04T13:50:59Z</time>
      </trkpt>
      <trkpt lat="42.639518" lon="0.430650">
        <ele>2736.000000</ele>
        <time>2021-09-04T13:51:00Z</time>
      </trkpt>
      <trkpt lat="42.639522" lon="0.430640">
        <ele>2736.000000</ele>
        <time>2021-09-04T13:51:01Z</time>
      </trkpt>
      <trkpt lat="42.639528" lon="0.430627">
        <ele>2736.000000</ele>
        <time>2021-09-04T13:51:02Z</time>
      </trkpt>
      <trkpt lat="42.639533" lon="0.430618">
        <ele>2736.000000</ele>
        <time>2021-09-04T13:51:03Z</time>
      </trkpt>
      <trkpt lat="42.639538" lon="0.430608">
        <ele>2736.000000</ele>
        <time>2021-09-04T13:51:04Z</time>
      </trkpt>
      <trkpt lat="42.639542" lon="0.430603">
        <ele>2736.000000</ele>
        <time>2021-09-04T13:51:05Z</time>
      </trkpt>
      <trkpt lat="42.639547" lon="0.430595">
        <ele>2736.000000</ele>
        <time>2021-09-04T13:51:06Z</time>
      </trkpt>
      <trkpt lat="42.639551" lon="0.430587">
        <ele>2736.000000</ele>
        <time>2021-09-04T13:51:07Z</time>
      </trkpt>
      <trkpt lat="42.639556" lon="0.430578">
        <ele>2736.000000</ele>
        <time>2021-09-04T13:51:08Z</time>
      </trkpt>
      <trkpt lat="42.639561" lon="0.430568">
        <ele>2736.000000</ele>
        <time>2021-09-04T13:51:10Z</time>
      </trkpt>
      <trkpt lat="42.639568" lon="0.430552">
        <ele>2736.000000</ele>
        <time>2021-09-04T13:51:10Z</time>
      </trkpt>
      <trkpt lat="42.639573" lon="0.430540">
        <ele>2737.000000</ele>
        <time>2021-09-04T13:51:11Z</time>
      </trkpt>
      <trkpt lat="42.639578" lon="0.430528">
        <ele>2737.000000</ele>
        <time>2021-09-04T13:51:12Z</time>
      </trkpt>
      <trkpt lat="42.639581" lon="0.430522">
        <ele>2737.000000</ele>
        <time>2021-09-04T13:51:13Z</time>
      </trkpt>
      <trkpt lat="42.639583" lon="0.430512">
        <ele>2737.000000</ele>
        <time>2021-09-04T13:51:14Z</time>
      </trkpt>
      <trkpt lat="42.639585" lon="0.430507">
        <ele>2738.000000</ele>
        <time>2021-09-04T13:51:15Z</time>
      </trkpt>
      <trkpt lat="42.639587" lon="0.430500">
        <ele>2738.000000</ele>
        <time>2021-09-04T13:51:16Z</time>
      </trkpt>
      <trkpt lat="42.639589" lon="0.430493">
        <ele>2738.000000</ele>
        <time>2021-09-04T13:51:17Z</time>
      </trkpt>
      <trkpt lat="42.639589" lon="0.430490">
        <ele>2738.000000</ele>
        <time>2021-09-04T13:51:18Z</time>
      </trkpt>
      <trkpt lat="42.639590" lon="0.430487">
        <ele>2739.000000</ele>
        <time>2021-09-04T13:51:19Z</time>
      </trkpt>
      <trkpt lat="42.639593" lon="0.430478">
        <ele>2739.000000</ele>
        <time>2021-09-04T13:51:20Z</time>
      </trkpt>
      <trkpt lat="42.639596" lon="0.430470">
        <ele>2739.000000</ele>
        <time>2021-09-04T13:51:21Z</time>
      </trkpt>
      <trkpt lat="42.639600" lon="0.430458">
        <ele>2739.000000</ele>
        <time>2021-09-04T13:51:22Z</time>
      </trkpt>
      <trkpt lat="42.639603" lon="0.430448">
        <ele>2740.000000</ele>
        <time>2021-09-04T13:51:23Z</time>
      </trkpt>
      <trkpt lat="42.639590" lon="0.430443">
        <ele>2740.000000</ele>
        <time>2021-09-04T13:51:24Z</time>
      </trkpt>
      <trkpt lat="42.639591" lon="0.430432">
        <ele>2740.000000</ele>
        <time>2021-09-04T13:51:25Z</time>
      </trkpt>
      <trkpt lat="42.639597" lon="0.430422">
        <ele>2740.000000</ele>
        <time>2021-09-04T13:51:26Z</time>
      </trkpt>
      <trkpt lat="42.639601" lon="0.430412">
        <ele>2741.000000</ele>
        <time>2021-09-04T13:51:27Z</time>
      </trkpt>
      <trkpt lat="42.639602" lon="0.430407">
        <ele>2741.000000</ele>
        <time>2021-09-04T13:51:28Z</time>
      </trkpt>
      <trkpt lat="42.639601" lon="0.430398">
        <ele>2741.000000</ele>
        <time>2021-09-04T13:51:29Z</time>
      </trkpt>
      <trkpt lat="42.639599" lon="0.430387">
        <ele>2741.000000</ele>
        <time>2021-09-04T13:51:30Z</time>
      </trkpt>
      <trkpt lat="42.639599" lon="0.430377">
        <ele>2741.000000</ele>
        <time>2021-09-04T13:51:31Z</time>
      </trkpt>
      <trkpt lat="42.639600" lon="0.430368">
        <ele>2742.000000</ele>
        <time>2021-09-04T13:51:32Z</time>
      </trkpt>
      <trkpt lat="42.639599" lon="0.430363">
        <ele>2742.000000</ele>
        <time>2021-09-04T13:51:33Z</time>
      </trkpt>
      <trkpt lat="42.639598" lon="0.430355">
        <ele>2742.000000</ele>
        <time>2021-09-04T13:51:34Z</time>
      </trkpt>
      <trkpt lat="42.639597" lon="0.430348">
        <ele>2742.000000</ele>
        <time>2021-09-04T13:51:35Z</time>
      </trkpt>
      <trkpt lat="42.639596" lon="0.430342">
        <ele>2742.000000</ele>
        <time>2021-09-04T13:51:36Z</time>
      </trkpt>
      <trkpt lat="42.639595" lon="0.430335">
        <ele>2742.000000</ele>
        <time>2021-09-04T13:51:37Z</time>
      </trkpt>
      <trkpt lat="42.639595" lon="0.430325">
        <ele>2742.000000</ele>
        <time>2021-09-04T13:51:38Z</time>
      </trkpt>
      <trkpt lat="42.639594" lon="0.430317">
        <ele>2742.000000</ele>
        <time>2021-09-04T13:51:39Z</time>
      </trkpt>
      <trkpt lat="42.639593" lon="0.430310">
        <ele>2742.000000</ele>
        <time>2021-09-04T13:51:40Z</time>
      </trkpt>
      <trkpt lat="42.639593" lon="0.430303">
        <ele>2742.000000</ele>
        <time>2021-09-04T13:51:41Z</time>
      </trkpt>
      <trkpt lat="42.639593" lon="0.430295">
        <ele>2742.000000</ele>
        <time>2021-09-04T13:51:42Z</time>
      </trkpt>
      <trkpt lat="42.639597" lon="0.430287">
        <ele>2742.000000</ele>
        <time>2021-09-04T13:51:43Z</time>
      </trkpt>
      <trkpt lat="42.639595" lon="0.430282">
        <ele>2742.000000</ele>
        <time>2021-09-04T13:51:44Z</time>
      </trkpt>
      <trkpt lat="42.639596" lon="0.430275">
        <ele>2742.000000</ele>
        <time>2021-09-04T13:51:45Z</time>
      </trkpt>
      <trkpt lat="42.639599" lon="0.430268">
        <ele>2742.000000</ele>
        <time>2021-09-04T13:51:46Z</time>
      </trkpt>
      <trkpt lat="42.639600" lon="0.430260">
        <ele>2742.000000</ele>
        <time>2021-09-04T13:51:47Z</time>
      </trkpt>
      <trkpt lat="42.639602" lon="0.430257">
        <ele>2742.000000</ele>
        <time>2021-09-04T13:51:48Z</time>
      </trkpt>
      <trkpt lat="42.639603" lon="0.430250">
        <ele>2742.000000</ele>
        <time>2021-09-04T13:51:49Z</time>
      </trkpt>
      <trkpt lat="42.639602" lon="0.430242">
        <ele>2742.000000</ele>
        <time>2021-09-04T13:51:50Z</time>
      </trkpt>
      <trkpt lat="42.639601" lon="0.430232">
        <ele>2742.000000</ele>
        <time>2021-09-04T13:51:51Z</time>
      </trkpt>
      <trkpt lat="42.639600" lon="0.430225">
        <ele>2742.000000</ele>
        <time>2021-09-04T13:51:52Z</time>
      </trkpt>
      <trkpt lat="42.639598" lon="0.430218">
        <ele>2742.000000</ele>
        <time>2021-09-04T13:51:53Z</time>
      </trkpt>
      <trkpt lat="42.639598" lon="0.430210">
        <ele>2742.000000</ele>
        <time>2021-09-04T13:51:54Z</time>
      </trkpt>
      <trkpt lat="42.639600" lon="0.430200">
        <ele>2742.000000</ele>
        <time>2021-09-04T13:51:55Z</time>
      </trkpt>
      <trkpt lat="42.639599" lon="0.430190">
        <ele>2742.000000</ele>
        <time>2021-09-04T13:51:57Z</time>
      </trkpt>
      <trkpt lat="42.639596" lon="0.430180">
        <ele>2742.000000</ele>
        <time>2021-09-04T13:51:57Z</time>
      </trkpt>
      <trkpt lat="42.639596" lon="0.430167">
        <ele>2742.000000</ele>
        <time>2021-09-04T13:51:58Z</time>
      </trkpt>
      <trkpt lat="42.639594" lon="0.430157">
        <ele>2742.000000</ele>
        <time>2021-09-04T13:51:59Z</time>
      </trkpt>
      <trkpt lat="42.639593" lon="0.430150">
        <ele>2742.000000</ele>
        <time>2021-09-04T13:52:00Z</time>
      </trkpt>
      <trkpt lat="42.639591" lon="0.430137">
        <ele>2742.000000</ele>
        <time>2021-09-04T13:52:01Z</time>
      </trkpt>
      <trkpt lat="42.639589" lon="0.430125">
        <ele>2742.000000</ele>
        <time>2021-09-04T13:52:02Z</time>
      </trkpt>
      <trkpt lat="42.639589" lon="0.430115">
        <ele>2742.000000</ele>
        <time>2021-09-04T13:52:03Z</time>
      </trkpt>
      <trkpt lat="42.639588" lon="0.430103">
        <ele>2742.000000</ele>
        <time>2021-09-04T13:52:04Z</time>
      </trkpt>
      <trkpt lat="42.639586" lon="0.430092">
        <ele>2742.000000</ele>
        <time>2021-09-04T13:52:05Z</time>
      </trkpt>
      <trkpt lat="42.639584" lon="0.430082">
        <ele>2742.000000</ele>
        <time>2021-09-04T13:52:06Z</time>
      </trkpt>
      <trkpt lat="42.639580" lon="0.430070">
        <ele>2742.000000</ele>
        <time>2021-09-04T13:52:07Z</time>
      </trkpt>
      <trkpt lat="42.639576" lon="0.430063">
        <ele>2742.000000</ele>
        <time>2021-09-04T13:52:08Z</time>
      </trkpt>
      <trkpt lat="42.639558" lon="0.430050">
        <ele>2742.000000</ele>
        <time>2021-09-04T13:52:09Z</time>
      </trkpt>
      <trkpt lat="42.639552" lon="0.430038">
        <ele>2742.000000</ele>
        <time>2021-09-04T13:52:10Z</time>
      </trkpt>
      <trkpt lat="42.639542" lon="0.430025">
        <ele>2742.000000</ele>
        <time>2021-09-04T13:52:11Z</time>
      </trkpt>
      <trkpt lat="42.639533" lon="0.430013">
        <ele>2742.000000</ele>
        <time>2021-09-04T13:52:12Z</time>
      </trkpt>
      <trkpt lat="42.639529" lon="0.430003">
        <ele>2742.000000</ele>
        <time>2021-09-04T13:52:13Z</time>
      </trkpt>
      <trkpt lat="42.639523" lon="0.429990">
        <ele>2742.000000</ele>
        <time>2021-09-04T13:52:14Z</time>
      </trkpt>
      <trkpt lat="42.639522" lon="0.429978">
        <ele>2742.000000</ele>
        <time>2021-09-04T13:52:15Z</time>
      </trkpt>
      <trkpt lat="42.639519" lon="0.429963">
        <ele>2742.000000</ele>
        <time>2021-09-04T13:52:16Z</time>
      </trkpt>
      <trkpt lat="42.639518" lon="0.429952">
        <ele>2742.000000</ele>
        <time>2021-09-04T13:52:17Z</time>
      </trkpt>
      <trkpt lat="42.639518" lon="0.429945">
        <ele>2742.000000</ele>
        <time>2021-09-04T13:52:18Z</time>
      </trkpt>
      <trkpt lat="42.639518" lon="0.429935">
        <ele>2742.000000</ele>
        <time>2021-09-04T13:52:19Z</time>
      </trkpt>
      <trkpt lat="42.639517" lon="0.429925">
        <ele>2742.000000</ele>
        <time>2021-09-04T13:52:20Z</time>
      </trkpt>
      <trkpt lat="42.639517" lon="0.429920">
        <ele>2742.000000</ele>
        <time>2021-09-04T13:52:21Z</time>
      </trkpt>
      <trkpt lat="42.639517" lon="0.429913">
        <ele>2742.000000</ele>
        <time>2021-09-04T13:52:22Z</time>
      </trkpt>
      <trkpt lat="42.639515" lon="0.429905">
        <ele>2742.000000</ele>
        <time>2021-09-04T13:52:23Z</time>
      </trkpt>
      <trkpt lat="42.639513" lon="0.429895">
        <ele>2742.000000</ele>
        <time>2021-09-04T13:52:24Z</time>
      </trkpt>
      <trkpt lat="42.639513" lon="0.429890">
        <ele>2742.000000</ele>
        <time>2021-09-04T13:52:25Z</time>
      </trkpt>
      <trkpt lat="42.639511" lon="0.429882">
        <ele>2742.000000</ele>
        <time>2021-09-04T13:52:26Z</time>
      </trkpt>
      <trkpt lat="42.639509" lon="0.429875">
        <ele>2742.000000</ele>
        <time>2021-09-04T13:52:27Z</time>
      </trkpt>
      <trkpt lat="42.639508" lon="0.429868">
        <ele>2742.000000</ele>
        <time>2021-09-04T13:52:28Z</time>
      </trkpt>
      <trkpt lat="42.639507" lon="0.429862">
        <ele>2742.000000</ele>
        <time>2021-09-04T13:52:29Z</time>
      </trkpt>
      <trkpt lat="42.639506" lon="0.429855">
        <ele>2742.000000</ele>
        <time>2021-09-04T13:52:30Z</time>
      </trkpt>
      <trkpt lat="42.639506" lon="0.429853">
        <ele>2742.000000</ele>
        <time>2021-09-04T13:52:31Z</time>
      </trkpt>
      <trkpt lat="42.639505" lon="0.429852">
        <ele>2742.000000</ele>
        <time>2021-09-04T13:52:32Z</time>
      </trkpt>
      <trkpt lat="42.639497" lon="0.429848">
        <ele>2742.000000</ele>
        <time>2021-09-04T13:52:33Z</time>
      </trkpt>
      <trkpt lat="42.639492" lon="0.429847">
        <ele>2742.000000</ele>
        <time>2021-09-04T13:52:34Z</time>
      </trkpt>
      <trkpt lat="42.639488" lon="0.429843">
        <ele>2742.000000</ele>
        <time>2021-09-04T13:52:35Z</time>
      </trkpt>
      <trkpt lat="42.639488" lon="0.429835">
        <ele>2742.000000</ele>
        <time>2021-09-04T13:52:36Z</time>
      </trkpt>
      <trkpt lat="42.639489" lon="0.429828">
        <ele>2742.000000</ele>
        <time>2021-09-04T13:52:37Z</time>
      </trkpt>
      <trkpt lat="42.639491" lon="0.429820">
        <ele>2742.000000</ele>
        <time>2021-09-04T13:52:38Z</time>
      </trkpt>
      <trkpt lat="42.639492" lon="0.429813">
        <ele>2742.000000</ele>
        <time>2021-09-04T13:52:39Z</time>
      </trkpt>
      <trkpt lat="42.639491" lon="0.429807">
        <ele>2745.000000</ele>
        <time>2021-09-04T13:52:41Z</time>
      </trkpt>
      <trkpt lat="42.639485" lon="0.429803">
        <ele>2745.000000</ele>
        <time>2021-09-04T13:52:41Z</time>
      </trkpt>
      <trkpt lat="42.639480" lon="0.429800">
        <ele>2746.000000</ele>
        <time>2021-09-04T13:52:42Z</time>
      </trkpt>
      <trkpt lat="42.639477" lon="0.429793">
        <ele>2746.000000</ele>
        <time>2021-09-04T13:52:43Z</time>
      </trkpt>
      <trkpt lat="42.639472" lon="0.429785">
        <ele>2746.000000</ele>
        <time>2021-09-04T13:52:44Z</time>
      </trkpt>
      <trkpt lat="42.639472" lon="0.429782">
        <ele>2747.000000</ele>
        <time>2021-09-04T13:52:45Z</time>
      </trkpt>
      <trkpt lat="42.639470" lon="0.429772">
        <ele>2747.000000</ele>
        <time>2021-09-04T13:52:46Z</time>
      </trkpt>
      <trkpt lat="42.639467" lon="0.429767">
        <ele>2747.000000</ele>
        <time>2021-09-04T13:52:47Z</time>
      </trkpt>
      <trkpt lat="42.639463" lon="0.429762">
        <ele>2747.000000</ele>
        <time>2021-09-04T13:52:48Z</time>
      </trkpt>
      <trkpt lat="42.639462" lon="0.429758">
        <ele>2747.000000</ele>
        <time>2021-09-04T13:52:49Z</time>
      </trkpt>
      <trkpt lat="42.639457" lon="0.429753">
        <ele>2748.000000</ele>
        <time>2021-09-04T13:52:50Z</time>
      </trkpt>
      <trkpt lat="42.639452" lon="0.429747">
        <ele>2748.000000</ele>
        <time>2021-09-04T13:52:51Z</time>
      </trkpt>
      <trkpt lat="42.639449" lon="0.429742">
        <ele>2748.000000</ele>
        <time>2021-09-04T13:52:52Z</time>
      </trkpt>
      <trkpt lat="42.639444" lon="0.429733">
        <ele>2748.000000</ele>
        <time>2021-09-04T13:52:53Z</time>
      </trkpt>
      <trkpt lat="42.639439" lon="0.429727">
        <ele>2748.000000</ele>
        <time>2021-09-04T13:52:54Z</time>
      </trkpt>
      <trkpt lat="42.639434" lon="0.429718">
        <ele>2748.000000</ele>
        <time>2021-09-04T13:52:55Z</time>
      </trkpt>
      <trkpt lat="42.639428" lon="0.429710">
        <ele>2748.000000</ele>
        <time>2021-09-04T13:52:56Z</time>
      </trkpt>
      <trkpt lat="42.639420" lon="0.429698">
        <ele>2748.000000</ele>
        <time>2021-09-04T13:52:57Z</time>
      </trkpt>
      <trkpt lat="42.639415" lon="0.429692">
        <ele>2748.000000</ele>
        <time>2021-09-04T13:52:58Z</time>
      </trkpt>
      <trkpt lat="42.639409" lon="0.429678">
        <ele>2748.000000</ele>
        <time>2021-09-04T13:52:59Z</time>
      </trkpt>
      <trkpt lat="42.639405" lon="0.429663">
        <ele>2748.000000</ele>
        <time>2021-09-04T13:53:00Z</time>
      </trkpt>
      <trkpt lat="42.639422" lon="0.429648">
        <ele>2748.000000</ele>
        <time>2021-09-04T13:53:01Z</time>
      </trkpt>
      <trkpt lat="42.639423" lon="0.429637">
        <ele>2748.000000</ele>
        <time>2021-09-04T13:53:02Z</time>
      </trkpt>
      <trkpt lat="42.639425" lon="0.429630">
        <ele>2748.000000</ele>
        <time>2021-09-04T13:53:03Z</time>
      </trkpt>
      <trkpt lat="42.639423" lon="0.429620">
        <ele>2748.000000</ele>
        <time>2021-09-04T13:53:04Z</time>
      </trkpt>
      <trkpt lat="42.639420" lon="0.429610">
        <ele>2748.000000</ele>
        <time>2021-09-04T13:53:05Z</time>
      </trkpt>
      <trkpt lat="42.639418" lon="0.429603">
        <ele>2747.000000</ele>
        <time>2021-09-04T13:53:06Z</time>
      </trkpt>
      <trkpt lat="42.639418" lon="0.429592">
        <ele>2747.000000</ele>
        <time>2021-09-04T13:53:07Z</time>
      </trkpt>
      <trkpt lat="42.639419" lon="0.429580">
        <ele>2747.000000</ele>
        <time>2021-09-04T13:53:08Z</time>
      </trkpt>
      <trkpt lat="42.639421" lon="0.429570">
        <ele>2747.000000</ele>
        <time>2021-09-04T13:53:09Z</time>
      </trkpt>
      <trkpt lat="42.639422" lon="0.429563">
        <ele>2747.000000</ele>
        <time>2021-09-04T13:53:10Z</time>
      </trkpt>
      <trkpt lat="42.639422" lon="0.429557">
        <ele>2747.000000</ele>
        <time>2021-09-04T13:53:11Z</time>
      </trkpt>
      <trkpt lat="42.639423" lon="0.429547">
        <ele>2747.000000</ele>
        <time>2021-09-04T13:53:12Z</time>
      </trkpt>
      <trkpt lat="42.639424" lon="0.429543">
        <ele>2746.000000</ele>
        <time>2021-09-04T13:53:13Z</time>
      </trkpt>
      <trkpt lat="42.639427" lon="0.429533">
        <ele>2746.000000</ele>
        <time>2021-09-04T13:53:14Z</time>
      </trkpt>
      <trkpt lat="42.639437" lon="0.429525">
        <ele>2746.000000</ele>
        <time>2021-09-04T13:53:15Z</time>
      </trkpt>
      <trkpt lat="42.639440" lon="0.429513">
        <ele>2746.000000</ele>
        <time>2021-09-04T13:53:16Z</time>
      </trkpt>
      <trkpt lat="42.639442" lon="0.429505">
        <ele>2746.000000</ele>
        <time>2021-09-04T13:53:17Z</time>
      </trkpt>
      <trkpt lat="42.639447" lon="0.429495">
        <ele>2746.000000</ele>
        <time>2021-09-04T13:53:18Z</time>
      </trkpt>
      <trkpt lat="42.639451" lon="0.429483">
        <ele>2746.000000</ele>
        <time>2021-09-04T13:53:19Z</time>
      </trkpt>
      <trkpt lat="42.639456" lon="0.429475">
        <ele>2746.000000</ele>
        <time>2021-09-04T13:53:20Z</time>
      </trkpt>
      <trkpt lat="42.639461" lon="0.429468">
        <ele>2746.000000</ele>
        <time>2021-09-04T13:53:21Z</time>
      </trkpt>
      <trkpt lat="42.639463" lon="0.429463">
        <ele>2746.000000</ele>
        <time>2021-09-04T13:53:22Z</time>
      </trkpt>
      <trkpt lat="42.639467" lon="0.429455">
        <ele>2746.000000</ele>
        <time>2021-09-04T13:53:23Z</time>
      </trkpt>
      <trkpt lat="42.639469" lon="0.429447">
        <ele>2746.000000</ele>
        <time>2021-09-04T13:53:24Z</time>
      </trkpt>
      <trkpt lat="42.639470" lon="0.429442">
        <ele>2746.000000</ele>
        <time>2021-09-04T13:53:25Z</time>
      </trkpt>
      <trkpt lat="42.639474" lon="0.429433">
        <ele>2746.000000</ele>
        <time>2021-09-04T13:53:26Z</time>
      </trkpt>
      <trkpt lat="42.639478" lon="0.429427">
        <ele>2746.000000</ele>
        <time>2021-09-04T13:53:27Z</time>
      </trkpt>
      <trkpt lat="42.639485" lon="0.429417">
        <ele>2746.000000</ele>
        <time>2021-09-04T13:53:28Z</time>
      </trkpt>
      <trkpt lat="42.639486" lon="0.429408">
        <ele>2747.000000</ele>
        <time>2021-09-04T13:53:29Z</time>
      </trkpt>
      <trkpt lat="42.639488" lon="0.429402">
        <ele>2747.000000</ele>
        <time>2021-09-04T13:53:30Z</time>
      </trkpt>
      <trkpt lat="42.639488" lon="0.429397">
        <ele>2747.000000</ele>
        <time>2021-09-04T13:53:31Z</time>
      </trkpt>
      <trkpt lat="42.639490" lon="0.429390">
        <ele>2747.000000</ele>
        <time>2021-09-04T13:53:32Z</time>
      </trkpt>
      <trkpt lat="42.639493" lon="0.429380">
        <ele>2747.000000</ele>
        <time>2021-09-04T13:53:33Z</time>
      </trkpt>
      <trkpt lat="42.639498" lon="0.429370">
        <ele>2747.000000</ele>
        <time>2021-09-04T13:53:34Z</time>
      </trkpt>
      <trkpt lat="42.639499" lon="0.429367">
        <ele>2747.000000</ele>
        <time>2021-09-04T13:53:35Z</time>
      </trkpt>
      <trkpt lat="42.639502" lon="0.429358">
        <ele>2747.000000</ele>
        <time>2021-09-04T13:53:36Z</time>
      </trkpt>
      <trkpt lat="42.639505" lon="0.429350">
        <ele>2747.000000</ele>
        <time>2021-09-04T13:53:37Z</time>
      </trkpt>
      <trkpt lat="42.639506" lon="0.429345">
        <ele>2747.000000</ele>
        <time>2021-09-04T13:53:38Z</time>
      </trkpt>
      <trkpt lat="42.639508" lon="0.429338">
        <ele>2747.000000</ele>
        <time>2021-09-04T13:53:39Z</time>
      </trkpt>
      <trkpt lat="42.639511" lon="0.429332">
        <ele>2747.000000</ele>
        <time>2021-09-04T13:53:40Z</time>
      </trkpt>
      <trkpt lat="42.639513" lon="0.429323">
        <ele>2748.000000</ele>
        <time>2021-09-04T13:53:41Z</time>
      </trkpt>
      <trkpt lat="42.639515" lon="0.429315">
        <ele>2748.000000</ele>
        <time>2021-09-04T13:53:42Z</time>
      </trkpt>
      <trkpt lat="42.639510" lon="0.429310">
        <ele>2748.000000</ele>
        <time>2021-09-04T13:53:43Z</time>
      </trkpt>
      <trkpt lat="42.639512" lon="0.429300">
        <ele>2748.000000</ele>
        <time>2021-09-04T13:53:44Z</time>
      </trkpt>
      <trkpt lat="42.639510" lon="0.429293">
        <ele>2749.000000</ele>
        <time>2021-09-04T13:53:45Z</time>
      </trkpt>
      <trkpt lat="42.639507" lon="0.429287">
        <ele>2749.000000</ele>
        <time>2021-09-04T13:53:46Z</time>
      </trkpt>
      <trkpt lat="42.639505" lon="0.429280">
        <ele>2749.000000</ele>
        <time>2021-09-04T13:53:47Z</time>
      </trkpt>
      <trkpt lat="42.639508" lon="0.429272">
        <ele>2750.000000</ele>
        <time>2021-09-04T13:53:48Z</time>
      </trkpt>
      <trkpt lat="42.639509" lon="0.429263">
        <ele>2750.000000</ele>
        <time>2021-09-04T13:53:49Z</time>
      </trkpt>
      <trkpt lat="42.639507" lon="0.429253">
        <ele>2750.000000</ele>
        <time>2021-09-04T13:53:50Z</time>
      </trkpt>
      <trkpt lat="42.639505" lon="0.429245">
        <ele>2751.000000</ele>
        <time>2021-09-04T13:53:51Z</time>
      </trkpt>
      <trkpt lat="42.639504" lon="0.429237">
        <ele>2751.000000</ele>
        <time>2021-09-04T13:53:52Z</time>
      </trkpt>
      <trkpt lat="42.639503" lon="0.429228">
        <ele>2751.000000</ele>
        <time>2021-09-04T13:53:53Z</time>
      </trkpt>
      <trkpt lat="42.639502" lon="0.429217">
        <ele>2751.000000</ele>
        <time>2021-09-04T13:53:54Z</time>
      </trkpt>
      <trkpt lat="42.639502" lon="0.429207">
        <ele>2752.000000</ele>
        <time>2021-09-04T13:53:55Z</time>
      </trkpt>
      <trkpt lat="42.639501" lon="0.429198">
        <ele>2752.000000</ele>
        <time>2021-09-04T13:53:56Z</time>
      </trkpt>
      <trkpt lat="42.639501" lon="0.429185">
        <ele>2752.000000</ele>
        <time>2021-09-04T13:53:57Z</time>
      </trkpt>
      <trkpt lat="42.639500" lon="0.429177">
        <ele>2752.000000</ele>
        <time>2021-09-04T13:53:58Z</time>
      </trkpt>
      <trkpt lat="42.639499" lon="0.429165">
        <ele>2753.000000</ele>
        <time>2021-09-04T13:53:59Z</time>
      </trkpt>
      <trkpt lat="42.639497" lon="0.429162">
        <ele>2753.000000</ele>
        <time>2021-09-04T13:54:00Z</time>
      </trkpt>
      <trkpt lat="42.639482" lon="0.429160">
        <ele>2754.000000</ele>
        <time>2021-09-04T13:54:01Z</time>
      </trkpt>
      <trkpt lat="42.639472" lon="0.429160">
        <ele>2754.000000</ele>
        <time>2021-09-04T13:54:02Z</time>
      </trkpt>
      <trkpt lat="42.639465" lon="0.429158">
        <ele>2756.000000</ele>
        <time>2021-09-04T13:54:03Z</time>
      </trkpt>
      <trkpt lat="42.639458" lon="0.429152">
        <ele>2756.000000</ele>
        <time>2021-09-04T13:54:04Z</time>
      </trkpt>
      <trkpt lat="42.639455" lon="0.429145">
        <ele>2757.000000</ele>
        <time>2021-09-04T13:54:05Z</time>
      </trkpt>
      <trkpt lat="42.639450" lon="0.429135">
        <ele>2757.000000</ele>
        <time>2021-09-04T13:54:06Z</time>
      </trkpt>
      <trkpt lat="42.639448" lon="0.429128">
        <ele>2757.000000</ele>
        <time>2021-09-04T13:54:07Z</time>
      </trkpt>
      <trkpt lat="42.639447" lon="0.429120">
        <ele>2757.000000</ele>
        <time>2021-09-04T13:54:08Z</time>
      </trkpt>
      <trkpt lat="42.639445" lon="0.429110">
        <ele>2757.000000</ele>
        <time>2021-09-04T13:54:10Z</time>
      </trkpt>
      <trkpt lat="42.639443" lon="0.429107">
        <ele>2757.000000</ele>
        <time>2021-09-04T13:54:10Z</time>
      </trkpt>
      <trkpt lat="42.639438" lon="0.429102">
        <ele>2758.000000</ele>
        <time>2021-09-04T13:54:11Z</time>
      </trkpt>
      <trkpt lat="42.639434" lon="0.429097">
        <ele>2758.000000</ele>
        <time>2021-09-04T13:54:11Z</time>
      </trkpt>
      <trkpt lat="42.639427" lon="0.429093">
        <ele>2758.000000</ele>
        <time>2021-09-04T13:54:12Z</time>
      </trkpt>
      <trkpt lat="42.639421" lon="0.429088">
        <ele>2759.000000</ele>
        <time>2021-09-04T13:54:13Z</time>
      </trkpt>
      <trkpt lat="42.639415" lon="0.429080">
        <ele>2759.000000</ele>
        <time>2021-09-04T13:54:14Z</time>
      </trkpt>
      <trkpt lat="42.639412" lon="0.429075">
        <ele>2759.000000</ele>
        <time>2021-09-04T13:54:15Z</time>
      </trkpt>
      <trkpt lat="42.639409" lon="0.429067">
        <ele>2759.000000</ele>
        <time>2021-09-04T13:54:16Z</time>
      </trkpt>
      <trkpt lat="42.639405" lon="0.429055">
        <ele>2759.000000</ele>
        <time>2021-09-04T13:54:17Z</time>
      </trkpt>
      <trkpt lat="42.639404" lon="0.429043">
        <ele>2759.000000</ele>
        <time>2021-09-04T13:54:18Z</time>
      </trkpt>
      <trkpt lat="42.639402" lon="0.429033">
        <ele>2760.000000</ele>
        <time>2021-09-04T13:54:19Z</time>
      </trkpt>
      <trkpt lat="42.639401" lon="0.429030">
        <ele>2760.000000</ele>
        <time>2021-09-04T13:54:20Z</time>
      </trkpt>
      <trkpt lat="42.639396" lon="0.429022">
        <ele>2760.000000</ele>
        <time>2021-09-04T13:54:21Z</time>
      </trkpt>
      <trkpt lat="42.639380" lon="0.429017">
        <ele>2761.000000</ele>
        <time>2021-09-04T13:54:22Z</time>
      </trkpt>
      <trkpt lat="42.639374" lon="0.429012">
        <ele>2761.000000</ele>
        <time>2021-09-04T13:54:23Z</time>
      </trkpt>
      <trkpt lat="42.639369" lon="0.429007">
        <ele>2761.000000</ele>
        <time>2021-09-04T13:54:24Z</time>
      </trkpt>
      <trkpt lat="42.639367" lon="0.429003">
        <ele>2762.000000</ele>
        <time>2021-09-04T13:54:25Z</time>
      </trkpt>
      <trkpt lat="42.639359" lon="0.428993">
        <ele>2762.000000</ele>
        <time>2021-09-04T13:54:26Z</time>
      </trkpt>
      <trkpt lat="42.639353" lon="0.428985">
        <ele>2762.000000</ele>
        <time>2021-09-04T13:54:27Z</time>
      </trkpt>
      <trkpt lat="42.639347" lon="0.428977">
        <ele>2762.000000</ele>
        <time>2021-09-04T13:54:28Z</time>
      </trkpt>
      <trkpt lat="42.639341" lon="0.428968">
        <ele>2763.000000</ele>
        <time>2021-09-04T13:54:29Z</time>
      </trkpt>
      <trkpt lat="42.639336" lon="0.428957">
        <ele>2763.000000</ele>
        <time>2021-09-04T13:54:30Z</time>
      </trkpt>
      <trkpt lat="42.639333" lon="0.428948">
        <ele>2763.000000</ele>
        <time>2021-09-04T13:54:31Z</time>
      </trkpt>
      <trkpt lat="42.639331" lon="0.428942">
        <ele>2763.000000</ele>
        <time>2021-09-04T13:54:32Z</time>
      </trkpt>
      <trkpt lat="42.639329" lon="0.428937">
        <ele>2764.000000</ele>
        <time>2021-09-04T13:54:33Z</time>
      </trkpt>
      <trkpt lat="42.639328" lon="0.428933">
        <ele>2764.000000</ele>
        <time>2021-09-04T13:54:34Z</time>
      </trkpt>
      <trkpt lat="42.639327" lon="0.428930">
        <ele>2764.000000</ele>
        <time>2021-09-04T13:54:35Z</time>
      </trkpt>
      <trkpt lat="42.639340" lon="0.428928">
        <ele>2764.000000</ele>
        <time>2021-09-04T13:54:42Z</time>
      </trkpt>
      <trkpt lat="42.639336" lon="0.428930">
        <ele>2764.000000</ele>
        <time>2021-09-04T13:54:43Z</time>
      </trkpt>
      <trkpt lat="42.639337" lon="0.428928">
        <ele>2764.000000</ele>
        <time>2021-09-04T13:54:44Z</time>
      </trkpt>
      <trkpt lat="42.639398" lon="0.428735">
        <ele>2765.000000</ele>
        <time>2021-09-04T13:55:24Z</time>
      </trkpt>
      <trkpt lat="42.639405" lon="0.428725">
        <ele>2765.000000</ele>
        <time>2021-09-04T13:55:25Z</time>
      </trkpt>
      <trkpt lat="42.639415" lon="0.428715">
        <ele>2765.000000</ele>
        <time>2021-09-04T13:55:26Z</time>
      </trkpt>
      <trkpt lat="42.639418" lon="0.428708">
        <ele>2765.000000</ele>
        <time>2021-09-04T13:55:27Z</time>
      </trkpt>
      <trkpt lat="42.639419" lon="0.428702">
        <ele>2765.000000</ele>
        <time>2021-09-04T13:55:28Z</time>
      </trkpt>
      <trkpt lat="42.639420" lon="0.428697">
        <ele>2765.000000</ele>
        <time>2021-09-04T13:55:29Z</time>
      </trkpt>
      <trkpt lat="42.639423" lon="0.428692">
        <ele>2765.000000</ele>
        <time>2021-09-04T13:55:30Z</time>
      </trkpt>
      <trkpt lat="42.639426" lon="0.428690">
        <ele>2765.000000</ele>
        <time>2021-09-04T13:55:31Z</time>
      </trkpt>
      <trkpt lat="42.639435" lon="0.428683">
        <ele>2765.000000</ele>
        <time>2021-09-04T13:55:32Z</time>
      </trkpt>
      <trkpt lat="42.639438" lon="0.428677">
        <ele>2765.000000</ele>
        <time>2021-09-04T13:55:33Z</time>
      </trkpt>
      <trkpt lat="42.639442" lon="0.428672">
        <ele>2765.000000</ele>
        <time>2021-09-04T13:55:34Z</time>
      </trkpt>
      <trkpt lat="42.639446" lon="0.428665">
        <ele>2765.000000</ele>
        <time>2021-09-04T13:55:35Z</time>
      </trkpt>
      <trkpt lat="42.639452" lon="0.428655">
        <ele>2765.000000</ele>
        <time>2021-09-04T13:55:36Z</time>
      </trkpt>
      <trkpt lat="42.639455" lon="0.428652">
        <ele>2765.000000</ele>
        <time>2021-09-04T13:55:37Z</time>
      </trkpt>
      <trkpt lat="42.639458" lon="0.428645">
        <ele>2765.000000</ele>
        <time>2021-09-04T13:55:38Z</time>
      </trkpt>
      <trkpt lat="42.639463" lon="0.428638">
        <ele>2765.000000</ele>
        <time>2021-09-04T13:55:39Z</time>
      </trkpt>
      <trkpt lat="42.639469" lon="0.428627">
        <ele>2765.000000</ele>
        <time>2021-09-04T13:55:40Z</time>
      </trkpt>
      <trkpt lat="42.639473" lon="0.428620">
        <ele>2765.000000</ele>
        <time>2021-09-04T13:55:41Z</time>
      </trkpt>
      <trkpt lat="42.639478" lon="0.428613">
        <ele>2765.000000</ele>
        <time>2021-09-04T13:55:42Z</time>
      </trkpt>
      <trkpt lat="42.639482" lon="0.428605">
        <ele>2765.000000</ele>
        <time>2021-09-04T13:55:43Z</time>
      </trkpt>
      <trkpt lat="42.639486" lon="0.428598">
        <ele>2765.000000</ele>
        <time>2021-09-04T13:55:44Z</time>
      </trkpt>
      <trkpt lat="42.639488" lon="0.428595">
        <ele>2765.000000</ele>
        <time>2021-09-04T13:55:45Z</time>
      </trkpt>
      <trkpt lat="42.639490" lon="0.428590">
        <ele>2766.000000</ele>
        <time>2021-09-04T13:55:46Z</time>
      </trkpt>
      <trkpt lat="42.639493" lon="0.428583">
        <ele>2766.000000</ele>
        <time>2021-09-04T13:55:47Z</time>
      </trkpt>
      <trkpt lat="42.639496" lon="0.428575">
        <ele>2766.000000</ele>
        <time>2021-09-04T13:55:48Z</time>
      </trkpt>
      <trkpt lat="42.639493" lon="0.428572">
        <ele>2767.000000</ele>
        <time>2021-09-04T13:55:49Z</time>
      </trkpt>
      <trkpt lat="42.639495" lon="0.428563">
        <ele>2767.000000</ele>
        <time>2021-09-04T13:55:50Z</time>
      </trkpt>
      <trkpt lat="42.639497" lon="0.428555">
        <ele>2768.000000</ele>
        <time>2021-09-04T13:55:51Z</time>
      </trkpt>
      <trkpt lat="42.639498" lon="0.428548">
        <ele>2768.000000</ele>
        <time>2021-09-04T13:55:52Z</time>
      </trkpt>
      <trkpt lat="42.639501" lon="0.428543">
        <ele>2768.000000</ele>
        <time>2021-09-04T13:55:53Z</time>
      </trkpt>
      <trkpt lat="42.639500" lon="0.428542">
        <ele>2770.000000</ele>
        <time>2021-09-04T13:55:56Z</time>
      </trkpt>
      <trkpt lat="42.639502" lon="0.428540">
        <ele>2770.000000</ele>
        <time>2021-09-04T13:55:57Z</time>
      </trkpt>
      <trkpt lat="42.639503" lon="0.428538">
        <ele>2771.000000</ele>
        <time>2021-09-04T13:55:58Z</time>
      </trkpt>
      <trkpt lat="42.639505" lon="0.428535">
        <ele>2771.000000</ele>
        <time>2021-09-04T13:55:59Z</time>
      </trkpt>
      <trkpt lat="42.639512" lon="0.428530">
        <ele>2771.000000</ele>
        <time>2021-09-04T13:56:00Z</time>
      </trkpt>
      <trkpt lat="42.639513" lon="0.428525">
        <ele>2772.000000</ele>
        <time>2021-09-04T13:56:01Z</time>
      </trkpt>
      <trkpt lat="42.639518" lon="0.428517">
        <ele>2772.000000</ele>
        <time>2021-09-04T13:56:02Z</time>
      </trkpt>
      <trkpt lat="42.639518" lon="0.428508">
        <ele>2772.000000</ele>
        <time>2021-09-04T13:56:03Z</time>
      </trkpt>
      <trkpt lat="42.639522" lon="0.428503">
        <ele>2773.000000</ele>
        <time>2021-09-04T13:56:04Z</time>
      </trkpt>
      <trkpt lat="42.639526" lon="0.428497">
        <ele>2773.000000</ele>
        <time>2021-09-04T13:56:05Z</time>
      </trkpt>
      <trkpt lat="42.639530" lon="0.428488">
        <ele>2773.000000</ele>
        <time>2021-09-04T13:56:06Z</time>
      </trkpt>
      <trkpt lat="42.639533" lon="0.428482">
        <ele>2774.000000</ele>
        <time>2021-09-04T13:56:07Z</time>
      </trkpt>
      <trkpt lat="42.639530" lon="0.428477">
        <ele>2774.000000</ele>
        <time>2021-09-04T13:56:09Z</time>
      </trkpt>
      <trkpt lat="42.639530" lon="0.428473">
        <ele>2774.000000</ele>
        <time>2021-09-04T13:56:09Z</time>
      </trkpt>
      <trkpt lat="42.639530" lon="0.428467">
        <ele>2775.000000</ele>
        <time>2021-09-04T13:56:10Z</time>
      </trkpt>
      <trkpt lat="42.639530" lon="0.428458">
        <ele>2775.000000</ele>
        <time>2021-09-04T13:56:11Z</time>
      </trkpt>
      <trkpt lat="42.639531" lon="0.428450">
        <ele>2775.000000</ele>
        <time>2021-09-04T13:56:12Z</time>
      </trkpt>
      <trkpt lat="42.639534" lon="0.428443">
        <ele>2775.000000</ele>
        <time>2021-09-04T13:56:13Z</time>
      </trkpt>
      <trkpt lat="42.639536" lon="0.428440">
        <ele>2776.000000</ele>
        <time>2021-09-04T13:56:14Z</time>
      </trkpt>
      <trkpt lat="42.639537" lon="0.428433">
        <ele>2776.000000</ele>
        <time>2021-09-04T13:56:15Z</time>
      </trkpt>
      <trkpt lat="42.639540" lon="0.428428">
        <ele>2776.000000</ele>
        <time>2021-09-04T13:56:16Z</time>
      </trkpt>
      <trkpt lat="42.639542" lon="0.428422">
        <ele>2776.000000</ele>
        <time>2021-09-04T13:56:17Z</time>
      </trkpt>
      <trkpt lat="42.639545" lon="0.428417">
        <ele>2777.000000</ele>
        <time>2021-09-04T13:56:18Z</time>
      </trkpt>
      <trkpt lat="42.639547" lon="0.428412">
        <ele>2777.000000</ele>
        <time>2021-09-04T13:56:19Z</time>
      </trkpt>
      <trkpt lat="42.639548" lon="0.428407">
        <ele>2777.000000</ele>
        <time>2021-09-04T13:56:20Z</time>
      </trkpt>
      <trkpt lat="42.639553" lon="0.428395">
        <ele>2777.000000</ele>
        <time>2021-09-04T13:56:21Z</time>
      </trkpt>
      <trkpt lat="42.639554" lon="0.428390">
        <ele>2777.000000</ele>
        <time>2021-09-04T13:56:22Z</time>
      </trkpt>
      <trkpt lat="42.639554" lon="0.428385">
        <ele>2777.000000</ele>
        <time>2021-09-04T13:56:23Z</time>
      </trkpt>
      <trkpt lat="42.639553" lon="0.428383">
        <ele>2778.000000</ele>
        <time>2021-09-04T13:56:24Z</time>
      </trkpt>
      <trkpt lat="42.639553" lon="0.428378">
        <ele>2778.000000</ele>
        <time>2021-09-04T13:56:25Z</time>
      </trkpt>
      <trkpt lat="42.639552" lon="0.428373">
        <ele>2778.000000</ele>
        <time>2021-09-04T13:56:26Z</time>
      </trkpt>
      <trkpt lat="42.639553" lon="0.428367">
        <ele>2778.000000</ele>
        <time>2021-09-04T13:56:27Z</time>
      </trkpt>
      <trkpt lat="42.639552" lon="0.428363">
        <ele>2779.000000</ele>
        <time>2021-09-04T13:56:29Z</time>
      </trkpt>
      <trkpt lat="42.639550" lon="0.428365">
        <ele>2780.000000</ele>
        <time>2021-09-04T13:56:30Z</time>
      </trkpt>
      <trkpt lat="42.639533" lon="0.428362">
        <ele>2780.000000</ele>
        <time>2021-09-04T13:56:31Z</time>
      </trkpt>
      <trkpt lat="42.639528" lon="0.428360">
        <ele>2780.000000</ele>
        <time>2021-09-04T13:56:32Z</time>
      </trkpt>
      <trkpt lat="42.639518" lon="0.428357">
        <ele>2781.000000</ele>
        <time>2021-09-04T13:56:33Z</time>
      </trkpt>
      <trkpt lat="42.639507" lon="0.428355">
        <ele>2781.000000</ele>
        <time>2021-09-04T13:56:34Z</time>
      </trkpt>
      <trkpt lat="42.639495" lon="0.428355">
        <ele>2781.000000</ele>
        <time>2021-09-04T13:56:35Z</time>
      </trkpt>
      <trkpt lat="42.639485" lon="0.428353">
        <ele>2781.000000</ele>
        <time>2021-09-04T13:56:36Z</time>
      </trkpt>
      <trkpt lat="42.639477" lon="0.428347">
        <ele>2782.000000</ele>
        <time>2021-09-04T13:56:37Z</time>
      </trkpt>
      <trkpt lat="42.639468" lon="0.428340">
        <ele>2782.000000</ele>
        <time>2021-09-04T13:56:38Z</time>
      </trkpt>
      <trkpt lat="42.639462" lon="0.428333">
        <ele>2783.000000</ele>
        <time>2021-09-04T13:56:39Z</time>
      </trkpt>
      <trkpt lat="42.639452" lon="0.428325">
        <ele>2783.000000</ele>
        <time>2021-09-04T13:56:40Z</time>
      </trkpt>
      <trkpt lat="42.639445" lon="0.428319">
        <ele>2783.000000</ele>
        <time>2021-09-04T13:56:41Z</time>
      </trkpt>
      <trkpt lat="42.639438" lon="0.428314">
        <ele>2784.000000</ele>
        <time>2021-09-04T13:56:42Z</time>
      </trkpt>
      <trkpt lat="42.639437" lon="0.428311">
        <ele>2784.000000</ele>
        <time>2021-09-04T13:56:43Z</time>
      </trkpt>
      <trkpt lat="42.639437" lon="0.428302">
        <ele>2784.000000</ele>
        <time>2021-09-04T13:56:44Z</time>
      </trkpt>
      <trkpt lat="42.639438" lon="0.428292">
        <ele>2784.000000</ele>
        <time>2021-09-04T13:56:45Z</time>
      </trkpt>
      <trkpt lat="42.639442" lon="0.428283">
        <ele>2785.000000</ele>
        <time>2021-09-04T13:56:46Z</time>
      </trkpt>
      <trkpt lat="42.639442" lon="0.428275">
        <ele>2785.000000</ele>
        <time>2021-09-04T13:56:47Z</time>
      </trkpt>
      <trkpt lat="42.639438" lon="0.428280">
        <ele>2785.000000</ele>
        <time>2021-09-04T13:56:49Z</time>
      </trkpt>
      <trkpt lat="42.639433" lon="0.428283">
        <ele>2785.000000</ele>
        <time>2021-09-04T13:56:51Z</time>
      </trkpt>
      <trkpt lat="42.639435" lon="0.428280">
        <ele>2785.000000</ele>
        <time>2021-09-04T13:56:52Z</time>
      </trkpt>
      <trkpt lat="42.639430" lon="0.428277">
        <ele>2785.000000</ele>
        <time>2021-09-04T13:56:53Z</time>
      </trkpt>
      <trkpt lat="42.639423" lon="0.428275">
        <ele>2785.000000</ele>
        <time>2021-09-04T13:56:54Z</time>
      </trkpt>
      <trkpt lat="42.639422" lon="0.428268">
        <ele>2785.000000</ele>
        <time>2021-09-04T13:56:57Z</time>
      </trkpt>
      <trkpt lat="42.639422" lon="0.428262">
        <ele>2785.000000</ele>
        <time>2021-09-04T13:56:58Z</time>
      </trkpt>
      <trkpt lat="42.639422" lon="0.428255">
        <ele>2785.000000</ele>
        <time>2021-09-04T13:56:59Z</time>
      </trkpt>
      <trkpt lat="42.639427" lon="0.428247">
        <ele>2785.000000</ele>
        <time>2021-09-04T13:57:00Z</time>
      </trkpt>
      <trkpt lat="42.639430" lon="0.428243">
        <ele>2784.000000</ele>
        <time>2021-09-04T13:57:01Z</time>
      </trkpt>
      <trkpt lat="42.639438" lon="0.428237">
        <ele>2784.000000</ele>
        <time>2021-09-04T13:57:02Z</time>
      </trkpt>
      <trkpt lat="42.639443" lon="0.428233">
        <ele>2784.000000</ele>
        <time>2021-09-04T13:57:03Z</time>
      </trkpt>
      <trkpt lat="42.639445" lon="0.428230">
        <ele>2783.000000</ele>
        <time>2021-09-04T13:57:04Z</time>
      </trkpt>
      <trkpt lat="42.639447" lon="0.428223">
        <ele>2783.000000</ele>
        <time>2021-09-04T13:57:05Z</time>
      </trkpt>
      <trkpt lat="42.639448" lon="0.428215">
        <ele>2783.000000</ele>
        <time>2021-09-04T13:57:06Z</time>
      </trkpt>
      <trkpt lat="42.639450" lon="0.428207">
        <ele>2783.000000</ele>
        <time>2021-09-04T13:57:07Z</time>
      </trkpt>
      <trkpt lat="42.639453" lon="0.428202">
        <ele>2782.000000</ele>
        <time>2021-09-04T13:57:08Z</time>
      </trkpt>
      <trkpt lat="42.639458" lon="0.428195">
        <ele>2782.000000</ele>
        <time>2021-09-04T13:57:09Z</time>
      </trkpt>
      <trkpt lat="42.639462" lon="0.428190">
        <ele>2782.000000</ele>
        <time>2021-09-04T13:57:10Z</time>
      </trkpt>
      <trkpt lat="42.639467" lon="0.428182">
        <ele>2782.000000</ele>
        <time>2021-09-04T13:57:11Z</time>
      </trkpt>
      <trkpt lat="42.639470" lon="0.428175">
        <ele>2782.000000</ele>
        <time>2021-09-04T13:57:12Z</time>
      </trkpt>
      <trkpt lat="42.639470" lon="0.428167">
        <ele>2782.000000</ele>
        <time>2021-09-04T13:57:13Z</time>
      </trkpt>
      <trkpt lat="42.639473" lon="0.428158">
        <ele>2781.000000</ele>
        <time>2021-09-04T13:57:14Z</time>
      </trkpt>
      <trkpt lat="42.639476" lon="0.428155">
        <ele>2781.000000</ele>
        <time>2021-09-04T13:57:15Z</time>
      </trkpt>
      <trkpt lat="42.639479" lon="0.428145">
        <ele>2781.000000</ele>
        <time>2021-09-04T13:57:17Z</time>
      </trkpt>
      <trkpt lat="42.639480" lon="0.428143">
        <ele>2781.000000</ele>
        <time>2021-09-04T13:57:18Z</time>
      </trkpt>
      <trkpt lat="42.639479" lon="0.428140">
        <ele>2782.000000</ele>
        <time>2021-09-04T13:57:19Z</time>
      </trkpt>
      <trkpt lat="42.639477" lon="0.428137">
        <ele>2782.000000</ele>
        <time>2021-09-04T13:57:20Z</time>
      </trkpt>
      <trkpt lat="42.639468" lon="0.428135">
        <ele>2782.000000</ele>
        <time>2021-09-04T13:57:21Z</time>
      </trkpt>
      <trkpt lat="42.639472" lon="0.428128">
        <ele>2783.000000</ele>
        <time>2021-09-04T13:57:23Z</time>
      </trkpt>
      <trkpt lat="42.639472" lon="0.428122">
        <ele>2783.000000</ele>
        <time>2021-09-04T13:57:24Z</time>
      </trkpt>
      <trkpt lat="42.639472" lon="0.428118">
        <ele>2784.000000</ele>
        <time>2021-09-04T13:57:25Z</time>
      </trkpt>
      <trkpt lat="42.639470" lon="0.428120">
        <ele>2784.000000</ele>
        <time>2021-09-04T13:57:26Z</time>
      </trkpt>
      <trkpt lat="42.639460" lon="0.428118">
        <ele>2785.000000</ele>
        <time>2021-09-04T13:57:27Z</time>
      </trkpt>
      <trkpt lat="42.639457" lon="0.428117">
        <ele>2785.000000</ele>
        <time>2021-09-04T13:57:28Z</time>
      </trkpt>
      <trkpt lat="42.639453" lon="0.428118">
        <ele>2786.000000</ele>
        <time>2021-09-04T13:57:29Z</time>
      </trkpt>
      <trkpt lat="42.639448" lon="0.428113">
        <ele>2786.000000</ele>
        <time>2021-09-04T13:57:30Z</time>
      </trkpt>
      <trkpt lat="42.639448" lon="0.428111">
        <ele>2786.000000</ele>
        <time>2021-09-04T13:57:31Z</time>
      </trkpt>
      <trkpt lat="42.639448" lon="0.428105">
        <ele>2787.000000</ele>
        <time>2021-09-04T13:57:32Z</time>
      </trkpt>
      <trkpt lat="42.639447" lon="0.428097">
        <ele>2787.000000</ele>
        <time>2021-09-04T13:57:33Z</time>
      </trkpt>
      <trkpt lat="42.639447" lon="0.428093">
        <ele>2787.000000</ele>
        <time>2021-09-04T13:57:34Z</time>
      </trkpt>
      <trkpt lat="42.639443" lon="0.428090">
        <ele>2787.000000</ele>
        <time>2021-09-04T13:57:35Z</time>
      </trkpt>
      <trkpt lat="42.639442" lon="0.428087">
        <ele>2787.000000</ele>
        <time>2021-09-04T13:57:36Z</time>
      </trkpt>
      <trkpt lat="42.639438" lon="0.428078">
        <ele>2787.000000</ele>
        <time>2021-09-04T13:57:37Z</time>
      </trkpt>
      <trkpt lat="42.639438" lon="0.428073">
        <ele>2787.000000</ele>
        <time>2021-09-04T13:57:38Z</time>
      </trkpt>
      <trkpt lat="42.639437" lon="0.428065">
        <ele>2787.000000</ele>
        <time>2021-09-04T13:57:39Z</time>
      </trkpt>
      <trkpt lat="42.639435" lon="0.428060">
        <ele>2787.000000</ele>
        <time>2021-09-04T13:57:40Z</time>
      </trkpt>
      <trkpt lat="42.639433" lon="0.428053">
        <ele>2787.000000</ele>
        <time>2021-09-04T13:57:41Z</time>
      </trkpt>
      <trkpt lat="42.639428" lon="0.428045">
        <ele>2788.000000</ele>
        <time>2021-09-04T13:57:42Z</time>
      </trkpt>
      <trkpt lat="42.639425" lon="0.428038">
        <ele>2788.000000</ele>
        <time>2021-09-04T13:57:43Z</time>
      </trkpt>
      <trkpt lat="42.639420" lon="0.428030">
        <ele>2788.000000</ele>
        <time>2021-09-04T13:57:44Z</time>
      </trkpt>
      <trkpt lat="42.639408" lon="0.428028">
        <ele>2788.000000</ele>
        <time>2021-09-04T13:57:45Z</time>
      </trkpt>
      <trkpt lat="42.639397" lon="0.428030">
        <ele>2789.000000</ele>
        <time>2021-09-04T13:57:46Z</time>
      </trkpt>
      <trkpt lat="42.639390" lon="0.428035">
        <ele>2789.000000</ele>
        <time>2021-09-04T13:57:47Z</time>
      </trkpt>
      <trkpt lat="42.639382" lon="0.428037">
        <ele>2789.000000</ele>
        <time>2021-09-04T13:57:48Z</time>
      </trkpt>
      <trkpt lat="42.639373" lon="0.428038">
        <ele>2789.000000</ele>
        <time>2021-09-04T13:57:49Z</time>
      </trkpt>
      <trkpt lat="42.639365" lon="0.428042">
        <ele>2789.000000</ele>
        <time>2021-09-04T13:57:50Z</time>
      </trkpt>
      <trkpt lat="42.639360" lon="0.428043">
        <ele>2789.000000</ele>
        <time>2021-09-04T13:57:51Z</time>
      </trkpt>
      <trkpt lat="42.639358" lon="0.428047">
        <ele>2790.000000</ele>
        <time>2021-09-04T13:57:52Z</time>
      </trkpt>
      <trkpt lat="42.639353" lon="0.428055">
        <ele>2790.000000</ele>
        <time>2021-09-04T13:57:53Z</time>
      </trkpt>
      <trkpt lat="42.639348" lon="0.428062">
        <ele>2790.000000</ele>
        <time>2021-09-04T13:57:54Z</time>
      </trkpt>
      <trkpt lat="42.639347" lon="0.428063">
        <ele>2792.000000</ele>
        <time>2021-09-04T13:57:55Z</time>
      </trkpt>
      <trkpt lat="42.639343" lon="0.428062">
        <ele>2792.000000</ele>
        <time>2021-09-04T13:57:56Z</time>
      </trkpt>
      <trkpt lat="42.639340" lon="0.428062">
        <ele>2792.000000</ele>
        <time>2021-09-04T13:57:57Z</time>
      </trkpt>
      <trkpt lat="42.639333" lon="0.428065">
        <ele>2792.000000</ele>
        <time>2021-09-04T13:57:58Z</time>
      </trkpt>
      <trkpt lat="42.639328" lon="0.428073">
        <ele>2793.000000</ele>
        <time>2021-09-04T13:57:59Z</time>
      </trkpt>
      <trkpt lat="42.639322" lon="0.428083">
        <ele>2793.000000</ele>
        <time>2021-09-04T13:58:00Z</time>
      </trkpt>
      <trkpt lat="42.639315" lon="0.428089">
        <ele>2794.000000</ele>
        <time>2021-09-04T13:58:01Z</time>
      </trkpt>
      <trkpt lat="42.639308" lon="0.428092">
        <ele>2794.000000</ele>
        <time>2021-09-04T13:58:02Z</time>
      </trkpt>
      <trkpt lat="42.639302" lon="0.428092">
        <ele>2794.000000</ele>
        <time>2021-09-04T13:58:03Z</time>
      </trkpt>
      <trkpt lat="42.639298" lon="0.428078">
        <ele>2795.000000</ele>
        <time>2021-09-04T13:58:04Z</time>
      </trkpt>
      <trkpt lat="42.639298" lon="0.428072">
        <ele>2795.000000</ele>
        <time>2021-09-04T13:58:05Z</time>
      </trkpt>
      <trkpt lat="42.639295" lon="0.428063">
        <ele>2795.000000</ele>
        <time>2021-09-04T13:58:06Z</time>
      </trkpt>
      <trkpt lat="42.639298" lon="0.428057">
        <ele>2796.000000</ele>
        <time>2021-09-04T13:58:07Z</time>
      </trkpt>
      <trkpt lat="42.639302" lon="0.428047">
        <ele>2796.000000</ele>
        <time>2021-09-04T13:58:08Z</time>
      </trkpt>
      <trkpt lat="42.639307" lon="0.428037">
        <ele>2796.000000</ele>
        <time>2021-09-04T13:58:09Z</time>
      </trkpt>
      <trkpt lat="42.639310" lon="0.428032">
        <ele>2796.000000</ele>
        <time>2021-09-04T13:58:10Z</time>
      </trkpt>
      <trkpt lat="42.639308" lon="0.428028">
        <ele>2796.000000</ele>
        <time>2021-09-04T13:58:11Z</time>
      </trkpt>
      <trkpt lat="42.639310" lon="0.428027">
        <ele>2797.000000</ele>
        <time>2021-09-04T13:58:12Z</time>
      </trkpt>
      <trkpt lat="42.639307" lon="0.428023">
        <ele>2797.000000</ele>
        <time>2021-09-04T13:58:13Z</time>
      </trkpt>
      <trkpt lat="42.639303" lon="0.428023">
        <ele>2797.000000</ele>
        <time>2021-09-04T13:58:15Z</time>
      </trkpt>
      <trkpt lat="42.639302" lon="0.428015">
        <ele>2797.000000</ele>
        <time>2021-09-04T13:58:17Z</time>
      </trkpt>
      <trkpt lat="42.639307" lon="0.428012">
        <ele>2797.000000</ele>
        <time>2021-09-04T13:58:18Z</time>
      </trkpt>
      <trkpt lat="42.639313" lon="0.428007">
        <ele>2797.000000</ele>
        <time>2021-09-04T13:58:19Z</time>
      </trkpt>
      <trkpt lat="42.639317" lon="0.427998">
        <ele>2797.000000</ele>
        <time>2021-09-04T13:58:20Z</time>
      </trkpt>
      <trkpt lat="42.639320" lon="0.427987">
        <ele>2797.000000</ele>
        <time>2021-09-04T13:58:21Z</time>
      </trkpt>
      <trkpt lat="42.639324" lon="0.427977">
        <ele>2797.000000</ele>
        <time>2021-09-04T13:58:22Z</time>
      </trkpt>
      <trkpt lat="42.639328" lon="0.427970">
        <ele>2797.000000</ele>
        <time>2021-09-04T13:58:23Z</time>
      </trkpt>
      <trkpt lat="42.639331" lon="0.427963">
        <ele>2797.000000</ele>
        <time>2021-09-04T13:58:24Z</time>
      </trkpt>
      <trkpt lat="42.639336" lon="0.427955">
        <ele>2797.000000</ele>
        <time>2021-09-04T13:58:25Z</time>
      </trkpt>
      <trkpt lat="42.639339" lon="0.427950">
        <ele>2797.000000</ele>
        <time>2021-09-04T13:58:26Z</time>
      </trkpt>
      <trkpt lat="42.639342" lon="0.427945">
        <ele>2797.000000</ele>
        <time>2021-09-04T13:58:26Z</time>
      </trkpt>
      <trkpt lat="42.639344" lon="0.427942">
        <ele>2797.000000</ele>
        <time>2021-09-04T13:58:27Z</time>
      </trkpt>
      <trkpt lat="42.639344" lon="0.427940">
        <ele>2797.000000</ele>
        <time>2021-09-04T13:58:28Z</time>
      </trkpt>
      <trkpt lat="42.639343" lon="0.427938">
        <ele>2797.000000</ele>
        <time>2021-09-04T13:58:29Z</time>
      </trkpt>
      <trkpt lat="42.639333" lon="0.427938">
        <ele>2797.000000</ele>
        <time>2021-09-04T13:58:30Z</time>
      </trkpt>
      <trkpt lat="42.639335" lon="0.427937">
        <ele>2797.000000</ele>
        <time>2021-09-04T13:58:31Z</time>
      </trkpt>
      <trkpt lat="42.639338" lon="0.427932">
        <ele>2797.000000</ele>
        <time>2021-09-04T13:58:32Z</time>
      </trkpt>
      <trkpt lat="42.639340" lon="0.427932">
        <ele>2797.000000</ele>
        <time>2021-09-04T13:58:33Z</time>
      </trkpt>
      <trkpt lat="42.639343" lon="0.427928">
        <ele>2797.000000</ele>
        <time>2021-09-04T13:58:34Z</time>
      </trkpt>
      <trkpt lat="42.639342" lon="0.427927">
        <ele>2797.000000</ele>
        <time>2021-09-04T13:58:35Z</time>
      </trkpt>
      <trkpt lat="42.639340" lon="0.427923">
        <ele>2797.000000</ele>
        <time>2021-09-04T13:58:36Z</time>
      </trkpt>
      <trkpt lat="42.639337" lon="0.427918">
        <ele>2797.000000</ele>
        <time>2021-09-04T13:58:37Z</time>
      </trkpt>
      <trkpt lat="42.639337" lon="0.427912">
        <ele>2797.000000</ele>
        <time>2021-09-04T13:58:38Z</time>
      </trkpt>
      <trkpt lat="42.639338" lon="0.427907">
        <ele>2797.000000</ele>
        <time>2021-09-04T13:58:40Z</time>
      </trkpt>
      <trkpt lat="42.639340" lon="0.427907">
        <ele>2797.000000</ele>
        <time>2021-09-04T13:58:41Z</time>
      </trkpt>
      <trkpt lat="42.639338" lon="0.427908">
        <ele>2797.000000</ele>
        <time>2021-09-04T13:58:43Z</time>
      </trkpt>
      <trkpt lat="42.639339" lon="0.427903">
        <ele>2797.000000</ele>
        <time>2021-09-04T13:58:45Z</time>
      </trkpt>
      <trkpt lat="42.639338" lon="0.427900">
        <ele>2797.000000</ele>
        <time>2021-09-04T13:58:46Z</time>
      </trkpt>
      <trkpt lat="42.639339" lon="0.427907">
        <ele>2797.000000</ele>
        <time>2021-09-04T13:58:48Z</time>
      </trkpt>
      <trkpt lat="42.639260" lon="0.427893">
        <ele>2799.000000</ele>
        <time>2021-09-04T13:59:10Z</time>
      </trkpt>
      <trkpt lat="42.639255" lon="0.427892">
        <ele>2799.000000</ele>
        <time>2021-09-04T13:59:11Z</time>
      </trkpt>
      <trkpt lat="42.639248" lon="0.427888">
        <ele>2799.000000</ele>
        <time>2021-09-04T13:59:12Z</time>
      </trkpt>
      <trkpt lat="42.639247" lon="0.427885">
        <ele>2799.000000</ele>
        <time>2021-09-04T13:59:13Z</time>
      </trkpt>
      <trkpt lat="42.639242" lon="0.427886">
        <ele>2799.000000</ele>
        <time>2021-09-04T13:59:14Z</time>
      </trkpt>
      <trkpt lat="42.639233" lon="0.427890">
        <ele>2799.000000</ele>
        <time>2021-09-04T13:59:15Z</time>
      </trkpt>
      <trkpt lat="42.639228" lon="0.427890">
        <ele>2799.000000</ele>
        <time>2021-09-04T13:59:16Z</time>
      </trkpt>
      <trkpt lat="42.639227" lon="0.427891">
        <ele>2800.000000</ele>
        <time>2021-09-04T13:59:17Z</time>
      </trkpt>
      <trkpt lat="42.639222" lon="0.427892">
        <ele>2800.000000</ele>
        <time>2021-09-04T13:59:18Z</time>
      </trkpt>
      <trkpt lat="42.639218" lon="0.427892">
        <ele>2800.000000</ele>
        <time>2021-09-04T13:59:19Z</time>
      </trkpt>
      <trkpt lat="42.639212" lon="0.427894">
        <ele>2800.000000</ele>
        <time>2021-09-04T13:59:20Z</time>
      </trkpt>
      <trkpt lat="42.639210" lon="0.427894">
        <ele>2801.000000</ele>
        <time>2021-09-04T13:59:21Z</time>
      </trkpt>
      <trkpt lat="42.639208" lon="0.427893">
        <ele>2801.000000</ele>
        <time>2021-09-04T13:59:22Z</time>
      </trkpt>
      <trkpt lat="42.639207" lon="0.427891">
        <ele>2801.000000</ele>
        <time>2021-09-04T13:59:24Z</time>
      </trkpt>
      <trkpt lat="42.639205" lon="0.427890">
        <ele>2801.000000</ele>
        <time>2021-09-04T13:59:25Z</time>
      </trkpt>
      <trkpt lat="42.639203" lon="0.427882">
        <ele>2802.000000</ele>
        <time>2021-09-04T13:59:26Z</time>
      </trkpt>
      <trkpt lat="42.639200" lon="0.427880">
        <ele>2802.000000</ele>
        <time>2021-09-04T13:59:27Z</time>
      </trkpt>
      <trkpt lat="42.639198" lon="0.427882">
        <ele>2802.000000</ele>
        <time>2021-09-04T13:59:28Z</time>
      </trkpt>
      <trkpt lat="42.639192" lon="0.427883">
        <ele>2802.000000</ele>
        <time>2021-09-04T13:59:29Z</time>
      </trkpt>
      <trkpt lat="42.639187" lon="0.427881">
        <ele>2802.000000</ele>
        <time>2021-09-04T13:59:30Z</time>
      </trkpt>
      <trkpt lat="42.639183" lon="0.427877">
        <ele>2802.000000</ele>
        <time>2021-09-04T13:59:31Z</time>
      </trkpt>
      <trkpt lat="42.639178" lon="0.427873">
        <ele>2802.000000</ele>
        <time>2021-09-04T13:59:32Z</time>
      </trkpt>
      <trkpt lat="42.639173" lon="0.427871">
        <ele>2802.000000</ele>
        <time>2021-09-04T13:59:33Z</time>
      </trkpt>
      <trkpt lat="42.639168" lon="0.427869">
        <ele>2802.000000</ele>
        <time>2021-09-04T13:59:34Z</time>
      </trkpt>
      <trkpt lat="42.639163" lon="0.427867">
        <ele>2802.000000</ele>
        <time>2021-09-04T13:59:35Z</time>
      </trkpt>
      <trkpt lat="42.639158" lon="0.427866">
        <ele>2803.000000</ele>
        <time>2021-09-04T13:59:36Z</time>
      </trkpt>
      <trkpt lat="42.639155" lon="0.427865">
        <ele>2803.000000</ele>
        <time>2021-09-04T13:59:37Z</time>
      </trkpt>
      <trkpt lat="42.639147" lon="0.427862">
        <ele>2803.000000</ele>
        <time>2021-09-04T13:59:38Z</time>
      </trkpt>
      <trkpt lat="42.639145" lon="0.427861">
        <ele>2803.000000</ele>
        <time>2021-09-04T13:59:39Z</time>
      </trkpt>
      <trkpt lat="42.639142" lon="0.427858">
        <ele>2803.000000</ele>
        <time>2021-09-04T13:59:41Z</time>
      </trkpt>
      <trkpt lat="42.639140" lon="0.427854">
        <ele>2803.000000</ele>
        <time>2021-09-04T13:59:42Z</time>
      </trkpt>
      <trkpt lat="42.639133" lon="0.427846">
        <ele>2803.000000</ele>
        <time>2021-09-04T13:59:43Z</time>
      </trkpt>
      <trkpt lat="42.639125" lon="0.427835">
        <ele>2803.000000</ele>
        <time>2021-09-04T13:59:44Z</time>
      </trkpt>
      <trkpt lat="42.639115" lon="0.427824">
        <ele>2803.000000</ele>
        <time>2021-09-04T13:59:45Z</time>
      </trkpt>
      <trkpt lat="42.639107" lon="0.427816">
        <ele>2803.000000</ele>
        <time>2021-09-04T13:59:46Z</time>
      </trkpt>
      <trkpt lat="42.639098" lon="0.427808">
        <ele>2803.000000</ele>
        <time>2021-09-04T13:59:47Z</time>
      </trkpt>
      <trkpt lat="42.639092" lon="0.427804">
        <ele>2803.000000</ele>
        <time>2021-09-04T13:59:48Z</time>
      </trkpt>
      <trkpt lat="42.639082" lon="0.427797">
        <ele>2803.000000</ele>
        <time>2021-09-04T13:59:49Z</time>
      </trkpt>
      <trkpt lat="42.639072" lon="0.427790">
        <ele>2803.000000</ele>
        <time>2021-09-04T13:59:50Z</time>
      </trkpt>
      <trkpt lat="42.639067" lon="0.427787">
        <ele>2803.000000</ele>
        <time>2021-09-04T13:59:51Z</time>
      </trkpt>
      <trkpt lat="42.639058" lon="0.427781">
        <ele>2803.000000</ele>
        <time>2021-09-04T13:59:52Z</time>
      </trkpt>
      <trkpt lat="42.639050" lon="0.427775">
        <ele>2803.000000</ele>
        <time>2021-09-04T13:59:53Z</time>
      </trkpt>
      <trkpt lat="42.639043" lon="0.427771">
        <ele>2803.000000</ele>
        <time>2021-09-04T13:59:54Z</time>
      </trkpt>
      <trkpt lat="42.639037" lon="0.427766">
        <ele>2803.000000</ele>
        <time>2021-09-04T13:59:55Z</time>
      </trkpt>
      <trkpt lat="42.639030" lon="0.427761">
        <ele>2803.000000</ele>
        <time>2021-09-04T13:59:56Z</time>
      </trkpt>
      <trkpt lat="42.639027" lon="0.427757">
        <ele>2803.000000</ele>
        <time>2021-09-04T13:59:57Z</time>
      </trkpt>
      <trkpt lat="42.639023" lon="0.427753">
        <ele>2803.000000</ele>
        <time>2021-09-04T13:59:58Z</time>
      </trkpt>
      <trkpt lat="42.639022" lon="0.427751">
        <ele>2803.000000</ele>
        <time>2021-09-04T13:59:59Z</time>
      </trkpt>
      <trkpt lat="42.639015" lon="0.427744">
        <ele>2803.000000</ele>
        <time>2021-09-04T14:00:00Z</time>
      </trkpt>
      <trkpt lat="42.639008" lon="0.427738">
        <ele>2803.000000</ele>
        <time>2021-09-04T14:00:01Z</time>
      </trkpt>
      <trkpt lat="42.639003" lon="0.427733">
        <ele>2803.000000</ele>
        <time>2021-09-04T14:00:02Z</time>
      </trkpt>
      <trkpt lat="42.638997" lon="0.427730">
        <ele>2803.000000</ele>
        <time>2021-09-04T14:00:03Z</time>
      </trkpt>
      <trkpt lat="42.638990" lon="0.427730">
        <ele>2803.000000</ele>
        <time>2021-09-04T14:00:04Z</time>
      </trkpt>
      <trkpt lat="42.638985" lon="0.427728">
        <ele>2803.000000</ele>
        <time>2021-09-04T14:00:05Z</time>
      </trkpt>
      <trkpt lat="42.638975" lon="0.427728">
        <ele>2803.000000</ele>
        <time>2021-09-04T14:00:06Z</time>
      </trkpt>
      <trkpt lat="42.638965" lon="0.427727">
        <ele>2803.000000</ele>
        <time>2021-09-04T14:00:07Z</time>
      </trkpt>
      <trkpt lat="42.638958" lon="0.427725">
        <ele>2803.000000</ele>
        <time>2021-09-04T14:00:08Z</time>
      </trkpt>
      <trkpt lat="42.638955" lon="0.427723">
        <ele>2803.000000</ele>
        <time>2021-09-04T14:00:09Z</time>
      </trkpt>
      <trkpt lat="42.638950" lon="0.427721">
        <ele>2803.000000</ele>
        <time>2021-09-04T14:00:10Z</time>
      </trkpt>
      <trkpt lat="42.638948" lon="0.427721">
        <ele>2803.000000</ele>
        <time>2021-09-04T14:00:12Z</time>
      </trkpt>
      <trkpt lat="42.638950" lon="0.427722">
        <ele>2803.000000</ele>
        <time>2021-09-04T14:00:13Z</time>
      </trkpt>
      <trkpt lat="42.638953" lon="0.427723">
        <ele>2803.000000</ele>
        <time>2021-09-04T14:00:14Z</time>
      </trkpt>
      <trkpt lat="42.638953" lon="0.427724">
        <ele>2803.000000</ele>
        <time>2021-09-04T14:00:16Z</time>
      </trkpt>
      <trkpt lat="42.638955" lon="0.427725">
        <ele>2803.000000</ele>
        <time>2021-09-04T14:00:17Z</time>
      </trkpt>
      <trkpt lat="42.638952" lon="0.427724">
        <ele>2803.000000</ele>
        <time>2021-09-04T14:00:18Z</time>
      </trkpt>
      <trkpt lat="42.638950" lon="0.427724">
        <ele>2803.000000</ele>
        <time>2021-09-04T14:00:19Z</time>
      </trkpt>
      <trkpt lat="42.638952" lon="0.427725">
        <ele>2803.000000</ele>
        <time>2021-09-04T14:00:20Z</time>
      </trkpt>
      <trkpt lat="42.638997" lon="0.427620">
        <ele>2808.000000</ele>
        <time>2021-09-04T14:01:44Z</time>
      </trkpt>
      <trkpt lat="42.638998" lon="0.427613">
        <ele>2809.000000</ele>
        <time>2021-09-04T14:01:45Z</time>
      </trkpt>
      <trkpt lat="42.639000" lon="0.427608">
        <ele>2809.000000</ele>
        <time>2021-09-04T14:01:46Z</time>
      </trkpt>
      <trkpt lat="42.639003" lon="0.427598">
        <ele>2809.000000</ele>
        <time>2021-09-04T14:01:47Z</time>
      </trkpt>
      <trkpt lat="42.639010" lon="0.427590">
        <ele>2809.000000</ele>
        <time>2021-09-04T14:01:48Z</time>
      </trkpt>
      <trkpt lat="42.639017" lon="0.427583">
        <ele>2809.000000</ele>
        <time>2021-09-04T14:01:49Z</time>
      </trkpt>
      <trkpt lat="42.639022" lon="0.427575">
        <ele>2809.000000</ele>
        <time>2021-09-04T14:01:50Z</time>
      </trkpt>
      <trkpt lat="42.639027" lon="0.427565">
        <ele>2809.000000</ele>
        <time>2021-09-04T14:01:51Z</time>
      </trkpt>
      <trkpt lat="42.639029" lon="0.427555">
        <ele>2809.000000</ele>
        <time>2021-09-04T14:01:52Z</time>
      </trkpt>
      <trkpt lat="42.639028" lon="0.427550">
        <ele>2809.000000</ele>
        <time>2021-09-04T14:01:53Z</time>
      </trkpt>
      <trkpt lat="42.639027" lon="0.427547">
        <ele>2810.000000</ele>
        <time>2021-09-04T14:01:54Z</time>
      </trkpt>
      <trkpt lat="42.639027" lon="0.427540">
        <ele>2810.000000</ele>
        <time>2021-09-04T14:01:55Z</time>
      </trkpt>
      <trkpt lat="42.639030" lon="0.427535">
        <ele>2810.000000</ele>
        <time>2021-09-04T14:01:56Z</time>
      </trkpt>
      <trkpt lat="42.639033" lon="0.427530">
        <ele>2810.000000</ele>
        <time>2021-09-04T14:01:57Z</time>
      </trkpt>
      <trkpt lat="42.639042" lon="0.427525">
        <ele>2810.000000</ele>
        <time>2021-09-04T14:01:58Z</time>
      </trkpt>
      <trkpt lat="42.639045" lon="0.427518">
        <ele>2810.000000</ele>
        <time>2021-09-04T14:01:59Z</time>
      </trkpt>
      <trkpt lat="42.639051" lon="0.427508">
        <ele>2810.000000</ele>
        <time>2021-09-04T14:02:00Z</time>
      </trkpt>
      <trkpt lat="42.639054" lon="0.427502">
        <ele>2810.000000</ele>
        <time>2021-09-04T14:02:01Z</time>
      </trkpt>
      <trkpt lat="42.639056" lon="0.427495">
        <ele>2810.000000</ele>
        <time>2021-09-04T14:02:02Z</time>
      </trkpt>
      <trkpt lat="42.639056" lon="0.427490">
        <ele>2810.000000</ele>
        <time>2021-09-04T14:02:03Z</time>
      </trkpt>
      <trkpt lat="42.639055" lon="0.427483">
        <ele>2810.000000</ele>
        <time>2021-09-04T14:02:04Z</time>
      </trkpt>
      <trkpt lat="42.639056" lon="0.427478">
        <ele>2810.000000</ele>
        <time>2021-09-04T14:02:05Z</time>
      </trkpt>
      <trkpt lat="42.639058" lon="0.427470">
        <ele>2810.000000</ele>
        <time>2021-09-04T14:02:07Z</time>
      </trkpt>
      <trkpt lat="42.639058" lon="0.427467">
        <ele>2810.000000</ele>
        <time>2021-09-04T14:02:08Z</time>
      </trkpt>
      <trkpt lat="42.639060" lon="0.427460">
        <ele>2810.000000</ele>
        <time>2021-09-04T14:02:09Z</time>
      </trkpt>
      <trkpt lat="42.639060" lon="0.427455">
        <ele>2810.000000</ele>
        <time>2021-09-04T14:02:10Z</time>
      </trkpt>
      <trkpt lat="42.639059" lon="0.427447">
        <ele>2811.000000</ele>
        <time>2021-09-04T14:02:11Z</time>
      </trkpt>
      <trkpt lat="42.639053" lon="0.427438">
        <ele>2811.000000</ele>
        <time>2021-09-04T14:02:12Z</time>
      </trkpt>
      <trkpt lat="42.639050" lon="0.427437">
        <ele>2811.000000</ele>
        <time>2021-09-04T14:02:13Z</time>
      </trkpt>
      <trkpt lat="42.639047" lon="0.427427">
        <ele>2811.000000</ele>
        <time>2021-09-04T14:02:14Z</time>
      </trkpt>
      <trkpt lat="42.639046" lon="0.427422">
        <ele>2811.000000</ele>
        <time>2021-09-04T14:02:15Z</time>
      </trkpt>
      <trkpt lat="42.639046" lon="0.427413">
        <ele>2812.000000</ele>
        <time>2021-09-04T14:02:16Z</time>
      </trkpt>
      <trkpt lat="42.639048" lon="0.427408">
        <ele>2812.000000</ele>
        <time>2021-09-04T14:02:17Z</time>
      </trkpt>
      <trkpt lat="42.639048" lon="0.427402">
        <ele>2812.000000</ele>
        <time>2021-09-04T14:02:18Z</time>
      </trkpt>
      <trkpt lat="42.639047" lon="0.427397">
        <ele>2812.000000</ele>
        <time>2021-09-04T14:02:19Z</time>
      </trkpt>
      <trkpt lat="42.639048" lon="0.427395">
        <ele>2812.000000</ele>
        <time>2021-09-04T14:02:20Z</time>
      </trkpt>
      <trkpt lat="42.639049" lon="0.427388">
        <ele>2812.000000</ele>
        <time>2021-09-04T14:02:21Z</time>
      </trkpt>
      <trkpt lat="42.639050" lon="0.427382">
        <ele>2812.000000</ele>
        <time>2021-09-04T14:02:22Z</time>
      </trkpt>
      <trkpt lat="42.639062" lon="0.427377">
        <ele>2812.000000</ele>
        <time>2021-09-04T14:02:23Z</time>
      </trkpt>
      <trkpt lat="42.639065" lon="0.427375">
        <ele>2812.000000</ele>
        <time>2021-09-04T14:02:24Z</time>
      </trkpt>
      <trkpt lat="42.639072" lon="0.427368">
        <ele>2812.000000</ele>
        <time>2021-09-04T14:02:25Z</time>
      </trkpt>
      <trkpt lat="42.639078" lon="0.427365">
        <ele>2812.000000</ele>
        <time>2021-09-04T14:02:26Z</time>
      </trkpt>
      <trkpt lat="42.639087" lon="0.427358">
        <ele>2812.000000</ele>
        <time>2021-09-04T14:02:27Z</time>
      </trkpt>
      <trkpt lat="42.639093" lon="0.427355">
        <ele>2812.000000</ele>
        <time>2021-09-04T14:02:28Z</time>
      </trkpt>
      <trkpt lat="42.639098" lon="0.427350">
        <ele>2812.000000</ele>
        <time>2021-09-04T14:02:29Z</time>
      </trkpt>
      <trkpt lat="42.639102" lon="0.427346">
        <ele>2812.000000</ele>
        <time>2021-09-04T14:02:30Z</time>
      </trkpt>
      <trkpt lat="42.639105" lon="0.427343">
        <ele>2812.000000</ele>
        <time>2021-09-04T14:02:31Z</time>
      </trkpt>
      <trkpt lat="42.639108" lon="0.427336">
        <ele>2812.000000</ele>
        <time>2021-09-04T14:02:32Z</time>
      </trkpt>
      <trkpt lat="42.639110" lon="0.427328">
        <ele>2812.000000</ele>
        <time>2021-09-04T14:02:33Z</time>
      </trkpt>
      <trkpt lat="42.639108" lon="0.427325">
        <ele>2812.000000</ele>
        <time>2021-09-04T14:02:34Z</time>
      </trkpt>
      <trkpt lat="42.639112" lon="0.427318">
        <ele>2812.000000</ele>
        <time>2021-09-04T14:02:36Z</time>
      </trkpt>
      <trkpt lat="42.639115" lon="0.427317">
        <ele>2812.000000</ele>
        <time>2021-09-04T14:02:37Z</time>
      </trkpt>
      <trkpt lat="42.639118" lon="0.427315">
        <ele>2812.000000</ele>
        <time>2021-09-04T14:02:38Z</time>
      </trkpt>
      <trkpt lat="42.639120" lon="0.427312">
        <ele>2812.000000</ele>
        <time>2021-09-04T14:02:39Z</time>
      </trkpt>
      <trkpt lat="42.639124" lon="0.427308">
        <ele>2812.000000</ele>
        <time>2021-09-04T14:02:40Z</time>
      </trkpt>
      <trkpt lat="42.639129" lon="0.427302">
        <ele>2812.000000</ele>
        <time>2021-09-04T14:02:41Z</time>
      </trkpt>
      <trkpt lat="42.639132" lon="0.427297">
        <ele>2812.000000</ele>
        <time>2021-09-04T14:02:41Z</time>
      </trkpt>
      <trkpt lat="42.639135" lon="0.427292">
        <ele>2812.000000</ele>
        <time>2021-09-04T14:02:42Z</time>
      </trkpt>
      <trkpt lat="42.639138" lon="0.427285">
        <ele>2812.000000</ele>
        <time>2021-09-04T14:02:43Z</time>
      </trkpt>
      <trkpt lat="42.639143" lon="0.427277">
        <ele>2812.000000</ele>
        <time>2021-09-04T14:02:44Z</time>
      </trkpt>
      <trkpt lat="42.639147" lon="0.427270">
        <ele>2812.000000</ele>
        <time>2021-09-04T14:02:45Z</time>
      </trkpt>
      <trkpt lat="42.639152" lon="0.427263">
        <ele>2812.000000</ele>
        <time>2021-09-04T14:02:46Z</time>
      </trkpt>
      <trkpt lat="42.639158" lon="0.427253">
        <ele>2812.000000</ele>
        <time>2021-09-04T14:02:47Z</time>
      </trkpt>
      <trkpt lat="42.639163" lon="0.427245">
        <ele>2812.000000</ele>
        <time>2021-09-04T14:02:48Z</time>
      </trkpt>
      <trkpt lat="42.639169" lon="0.427235">
        <ele>2812.000000</ele>
        <time>2021-09-04T14:02:49Z</time>
      </trkpt>
      <trkpt lat="42.639172" lon="0.427227">
        <ele>2812.000000</ele>
        <time>2021-09-04T14:02:50Z</time>
      </trkpt>
      <trkpt lat="42.639177" lon="0.427218">
        <ele>2812.000000</ele>
        <time>2021-09-04T14:02:51Z</time>
      </trkpt>
      <trkpt lat="42.639182" lon="0.427207">
        <ele>2812.000000</ele>
        <time>2021-09-04T14:02:52Z</time>
      </trkpt>
      <trkpt lat="42.639182" lon="0.427202">
        <ele>2812.000000</ele>
        <time>2021-09-04T14:02:53Z</time>
      </trkpt>
      <trkpt lat="42.639184" lon="0.427197">
        <ele>2812.000000</ele>
        <time>2021-09-04T14:02:54Z</time>
      </trkpt>
      <trkpt lat="42.639188" lon="0.427190">
        <ele>2812.000000</ele>
        <time>2021-09-04T14:02:55Z</time>
      </trkpt>
      <trkpt lat="42.639189" lon="0.427185">
        <ele>2812.000000</ele>
        <time>2021-09-04T14:02:56Z</time>
      </trkpt>
      <trkpt lat="42.639190" lon="0.427183">
        <ele>2812.000000</ele>
        <time>2021-09-04T14:02:57Z</time>
      </trkpt>
      <trkpt lat="42.639191" lon="0.427182">
        <ele>2812.000000</ele>
        <time>2021-09-04T14:02:58Z</time>
      </trkpt>
      <trkpt lat="42.639195" lon="0.427178">
        <ele>2812.000000</ele>
        <time>2021-09-04T14:02:59Z</time>
      </trkpt>
      <trkpt lat="42.639197" lon="0.427176">
        <ele>2812.000000</ele>
        <time>2021-09-04T14:03:00Z</time>
      </trkpt>
      <trkpt lat="42.639200" lon="0.427173">
        <ele>2812.000000</ele>
        <time>2021-09-04T14:03:01Z</time>
      </trkpt>
      <trkpt lat="42.639202" lon="0.427172">
        <ele>2812.000000</ele>
        <time>2021-09-04T14:03:02Z</time>
      </trkpt>
      <trkpt lat="42.639205" lon="0.427167">
        <ele>2812.000000</ele>
        <time>2021-09-04T14:03:03Z</time>
      </trkpt>
      <trkpt lat="42.639207" lon="0.427163">
        <ele>2812.000000</ele>
        <time>2021-09-04T14:03:04Z</time>
      </trkpt>
      <trkpt lat="42.639212" lon="0.427158">
        <ele>2812.000000</ele>
        <time>2021-09-04T14:03:05Z</time>
      </trkpt>
      <trkpt lat="42.639214" lon="0.427157">
        <ele>2812.000000</ele>
        <time>2021-09-04T14:03:06Z</time>
      </trkpt>
      <trkpt lat="42.639217" lon="0.427148">
        <ele>2812.000000</ele>
        <time>2021-09-04T14:03:07Z</time>
      </trkpt>
      <trkpt lat="42.639218" lon="0.427143">
        <ele>2812.000000</ele>
        <time>2021-09-04T14:03:08Z</time>
      </trkpt>
      <trkpt lat="42.639217" lon="0.427140">
        <ele>2812.000000</ele>
        <time>2021-09-04T14:03:09Z</time>
      </trkpt>
      <trkpt lat="42.639213" lon="0.427137">
        <ele>2814.000000</ele>
        <time>2021-09-04T14:03:10Z</time>
      </trkpt>
      <trkpt lat="42.639213" lon="0.427130">
        <ele>2814.000000</ele>
        <time>2021-09-04T14:03:11Z</time>
      </trkpt>
      <trkpt lat="42.639212" lon="0.427123">
        <ele>2814.000000</ele>
        <time>2021-09-04T14:03:12Z</time>
      </trkpt>
      <trkpt lat="42.639210" lon="0.427117">
        <ele>2814.000000</ele>
        <time>2021-09-04T14:03:13Z</time>
      </trkpt>
      <trkpt lat="42.639208" lon="0.427110">
        <ele>2814.000000</ele>
        <time>2021-09-04T14:03:14Z</time>
      </trkpt>
      <trkpt lat="42.639210" lon="0.427107">
        <ele>2814.000000</ele>
        <time>2021-09-04T14:03:15Z</time>
      </trkpt>
      <trkpt lat="42.639211" lon="0.427100">
        <ele>2815.000000</ele>
        <time>2021-09-04T14:03:16Z</time>
      </trkpt>
      <trkpt lat="42.639213" lon="0.427093">
        <ele>2815.000000</ele>
        <time>2021-09-04T14:03:17Z</time>
      </trkpt>
      <trkpt lat="42.639214" lon="0.427088">
        <ele>2815.000000</ele>
        <time>2021-09-04T14:03:18Z</time>
      </trkpt>
      <trkpt lat="42.639217" lon="0.427085">
        <ele>2815.000000</ele>
        <time>2021-09-04T14:03:19Z</time>
      </trkpt>
      <trkpt lat="42.639218" lon="0.427083">
        <ele>2815.000000</ele>
        <time>2021-09-04T14:03:20Z</time>
      </trkpt>
      <trkpt lat="42.639218" lon="0.427080">
        <ele>2815.000000</ele>
        <time>2021-09-04T14:03:21Z</time>
      </trkpt>
      <trkpt lat="42.639218" lon="0.427072">
        <ele>2815.000000</ele>
        <time>2021-09-04T14:03:22Z</time>
      </trkpt>
      <trkpt lat="42.639218" lon="0.427063">
        <ele>2815.000000</ele>
        <time>2021-09-04T14:03:23Z</time>
      </trkpt>
      <trkpt lat="42.639218" lon="0.427057">
        <ele>2815.000000</ele>
        <time>2021-09-04T14:03:24Z</time>
      </trkpt>
      <trkpt lat="42.639219" lon="0.427048">
        <ele>2815.000000</ele>
        <time>2021-09-04T14:03:25Z</time>
      </trkpt>
      <trkpt lat="42.639220" lon="0.427040">
        <ele>2816.000000</ele>
        <time>2021-09-04T14:03:26Z</time>
      </trkpt>
      <trkpt lat="42.639221" lon="0.427032">
        <ele>2816.000000</ele>
        <time>2021-09-04T14:03:27Z</time>
      </trkpt>
      <trkpt lat="42.639222" lon="0.427028">
        <ele>2816.000000</ele>
        <time>2021-09-04T14:03:28Z</time>
      </trkpt>
      <trkpt lat="42.639225" lon="0.427025">
        <ele>2816.000000</ele>
        <time>2021-09-04T14:03:29Z</time>
      </trkpt>
      <trkpt lat="42.639228" lon="0.427020">
        <ele>2816.000000</ele>
        <time>2021-09-04T14:03:30Z</time>
      </trkpt>
      <trkpt lat="42.639231" lon="0.427020">
        <ele>2816.000000</ele>
        <time>2021-09-04T14:03:31Z</time>
      </trkpt>
      <trkpt lat="42.639243" lon="0.427013">
        <ele>2816.000000</ele>
        <time>2021-09-04T14:03:32Z</time>
      </trkpt>
      <trkpt lat="42.639247" lon="0.427010">
        <ele>2816.000000</ele>
        <time>2021-09-04T14:03:33Z</time>
      </trkpt>
      <trkpt lat="42.639252" lon="0.427002">
        <ele>2816.000000</ele>
        <time>2021-09-04T14:03:34Z</time>
      </trkpt>
      <trkpt lat="42.639253" lon="0.426998">
        <ele>2816.000000</ele>
        <time>2021-09-04T14:03:35Z</time>
      </trkpt>
      <trkpt lat="42.639258" lon="0.426995">
        <ele>2816.000000</ele>
        <time>2021-09-04T14:03:36Z</time>
      </trkpt>
      <trkpt lat="42.639263" lon="0.426990">
        <ele>2816.000000</ele>
        <time>2021-09-04T14:03:37Z</time>
      </trkpt>
      <trkpt lat="42.639269" lon="0.426983">
        <ele>2816.000000</ele>
        <time>2021-09-04T14:03:38Z</time>
      </trkpt>
      <trkpt lat="42.639274" lon="0.426972">
        <ele>2816.000000</ele>
        <time>2021-09-04T14:03:39Z</time>
      </trkpt>
      <trkpt lat="42.639274" lon="0.426968">
        <ele>2816.000000</ele>
        <time>2021-09-04T14:03:40Z</time>
      </trkpt>
      <trkpt lat="42.639276" lon="0.426965">
        <ele>2816.000000</ele>
        <time>2021-09-04T14:03:41Z</time>
      </trkpt>
      <trkpt lat="42.639279" lon="0.426958">
        <ele>2817.000000</ele>
        <time>2021-09-04T14:03:42Z</time>
      </trkpt>
      <trkpt lat="42.639283" lon="0.426953">
        <ele>2817.000000</ele>
        <time>2021-09-04T14:03:43Z</time>
      </trkpt>
      <trkpt lat="42.639285" lon="0.426950">
        <ele>2817.000000</ele>
        <time>2021-09-04T14:03:44Z</time>
      </trkpt>
      <trkpt lat="42.639285" lon="0.426948">
        <ele>2817.000000</ele>
        <time>2021-09-04T14:03:45Z</time>
      </trkpt>
      <trkpt lat="42.639287" lon="0.426943">
        <ele>2817.000000</ele>
        <time>2021-09-04T14:03:47Z</time>
      </trkpt>
      <trkpt lat="42.639285" lon="0.426947">
        <ele>2818.000000</ele>
        <time>2021-09-04T14:03:48Z</time>
      </trkpt>
      <trkpt lat="42.639283" lon="0.426947">
        <ele>2818.000000</ele>
        <time>2021-09-04T14:03:49Z</time>
      </trkpt>
      <trkpt lat="42.639282" lon="0.426944">
        <ele>2818.000000</ele>
        <time>2021-09-04T14:03:50Z</time>
      </trkpt>
      <trkpt lat="42.639280" lon="0.426944">
        <ele>2818.000000</ele>
        <time>2021-09-04T14:03:51Z</time>
      </trkpt>
      <trkpt lat="42.639278" lon="0.426940">
        <ele>2818.000000</ele>
        <time>2021-09-04T14:03:53Z</time>
      </trkpt>
      <trkpt lat="42.639280" lon="0.426933">
        <ele>2819.000000</ele>
        <time>2021-09-04T14:03:54Z</time>
      </trkpt>
      <trkpt lat="42.639280" lon="0.426925">
        <ele>2819.000000</ele>
        <time>2021-09-04T14:03:55Z</time>
      </trkpt>
      <trkpt lat="42.639278" lon="0.426920">
        <ele>2819.000000</ele>
        <time>2021-09-04T14:03:56Z</time>
      </trkpt>
      <trkpt lat="42.639278" lon="0.426917">
        <ele>2819.000000</ele>
        <time>2021-09-04T14:03:57Z</time>
      </trkpt>
      <trkpt lat="42.639277" lon="0.426912">
        <ele>2819.000000</ele>
        <time>2021-09-04T14:03:58Z</time>
      </trkpt>
      <trkpt lat="42.639276" lon="0.426905">
        <ele>2819.000000</ele>
        <time>2021-09-04T14:03:59Z</time>
      </trkpt>
      <trkpt lat="42.639279" lon="0.426898">
        <ele>2819.000000</ele>
        <time>2021-09-04T14:04:00Z</time>
      </trkpt>
      <trkpt lat="42.639280" lon="0.426890">
        <ele>2819.000000</ele>
        <time>2021-09-04T14:04:01Z</time>
      </trkpt>
      <trkpt lat="42.639279" lon="0.426885">
        <ele>2819.000000</ele>
        <time>2021-09-04T14:04:02Z</time>
      </trkpt>
      <trkpt lat="42.639278" lon="0.426888">
        <ele>2819.000000</ele>
        <time>2021-09-04T14:04:03Z</time>
      </trkpt>
      <trkpt lat="42.639276" lon="0.426890">
        <ele>2819.000000</ele>
        <time>2021-09-04T14:04:04Z</time>
      </trkpt>
      <trkpt lat="42.639263" lon="0.426890">
        <ele>2819.000000</ele>
        <time>2021-09-04T14:04:05Z</time>
      </trkpt>
      <trkpt lat="42.639255" lon="0.426890">
        <ele>2819.000000</ele>
        <time>2021-09-04T14:04:07Z</time>
      </trkpt>
      <trkpt lat="42.639252" lon="0.426890">
        <ele>2819.000000</ele>
        <time>2021-09-04T14:04:07Z</time>
      </trkpt>
      <trkpt lat="42.639253" lon="0.426880">
        <ele>2819.000000</ele>
        <time>2021-09-04T14:04:08Z</time>
      </trkpt>
      <trkpt lat="42.639248" lon="0.426870">
        <ele>2820.000000</ele>
        <time>2021-09-04T14:04:09Z</time>
      </trkpt>
      <trkpt lat="42.639250" lon="0.426863">
        <ele>2820.000000</ele>
        <time>2021-09-04T14:04:10Z</time>
      </trkpt>
      <trkpt lat="42.639250" lon="0.426858">
        <ele>2820.000000</ele>
        <time>2021-09-04T14:04:11Z</time>
      </trkpt>
      <trkpt lat="42.639253" lon="0.426855">
        <ele>2820.000000</ele>
        <time>2021-09-04T14:04:12Z</time>
      </trkpt>
      <trkpt lat="42.639255" lon="0.426845">
        <ele>2820.000000</ele>
        <time>2021-09-04T14:04:13Z</time>
      </trkpt>
      <trkpt lat="42.639257" lon="0.426838">
        <ele>2820.000000</ele>
        <time>2021-09-04T14:04:14Z</time>
      </trkpt>
      <trkpt lat="42.639257" lon="0.426828">
        <ele>2821.000000</ele>
        <time>2021-09-04T14:04:15Z</time>
      </trkpt>
      <trkpt lat="42.639260" lon="0.426820">
        <ele>2821.000000</ele>
        <time>2021-09-04T14:04:16Z</time>
      </trkpt>
      <trkpt lat="42.639267" lon="0.426817">
        <ele>2821.000000</ele>
        <time>2021-09-04T14:04:17Z</time>
      </trkpt>
      <trkpt lat="42.639267" lon="0.426813">
        <ele>2821.000000</ele>
        <time>2021-09-04T14:04:18Z</time>
      </trkpt>
      <trkpt lat="42.639267" lon="0.426810">
        <ele>2821.000000</ele>
        <time>2021-09-04T14:04:19Z</time>
      </trkpt>
      <trkpt lat="42.639269" lon="0.426807">
        <ele>2821.000000</ele>
        <time>2021-09-04T14:04:20Z</time>
      </trkpt>
      <trkpt lat="42.639271" lon="0.426805">
        <ele>2821.000000</ele>
        <time>2021-09-04T14:04:21Z</time>
      </trkpt>
      <trkpt lat="42.639272" lon="0.426798">
        <ele>2821.000000</ele>
        <time>2021-09-04T14:04:22Z</time>
      </trkpt>
      <trkpt lat="42.639275" lon="0.426793">
        <ele>2821.000000</ele>
        <time>2021-09-04T14:04:24Z</time>
      </trkpt>
      <trkpt lat="42.639278" lon="0.426788">
        <ele>2822.000000</ele>
        <time>2021-09-04T14:04:25Z</time>
      </trkpt>
      <trkpt lat="42.639280" lon="0.426782">
        <ele>2822.000000</ele>
        <time>2021-09-04T14:04:28Z</time>
      </trkpt>
      <trkpt lat="42.639280" lon="0.426780">
        <ele>2823.000000</ele>
        <time>2021-09-04T14:04:29Z</time>
      </trkpt>
      <trkpt lat="42.639279" lon="0.426782">
        <ele>2823.000000</ele>
        <time>2021-09-04T14:04:30Z</time>
      </trkpt>
      <trkpt lat="42.639276" lon="0.426788">
        <ele>2823.000000</ele>
        <time>2021-09-04T14:04:31Z</time>
      </trkpt>
      <trkpt lat="42.639373" lon="0.426713">
        <ele>2829.000000</ele>
        <time>2021-09-04T14:05:22Z</time>
      </trkpt>
      <trkpt lat="42.639380" lon="0.426707">
        <ele>2830.000000</ele>
        <time>2021-09-04T14:05:23Z</time>
      </trkpt>
      <trkpt lat="42.639378" lon="0.426705">
        <ele>2830.000000</ele>
        <time>2021-09-04T14:05:24Z</time>
      </trkpt>
      <trkpt lat="42.639375" lon="0.426697">
        <ele>2830.000000</ele>
        <time>2021-09-04T14:05:25Z</time>
      </trkpt>
      <trkpt lat="42.639372" lon="0.426693">
        <ele>2830.000000</ele>
        <time>2021-09-04T14:05:27Z</time>
      </trkpt>
      <trkpt lat="42.639375" lon="0.426692">
        <ele>2830.000000</ele>
        <time>2021-09-04T14:05:28Z</time>
      </trkpt>
      <trkpt lat="42.639375" lon="0.426688">
        <ele>2830.000000</ele>
        <time>2021-09-04T14:05:29Z</time>
      </trkpt>
      <trkpt lat="42.639373" lon="0.426687">
        <ele>2830.000000</ele>
        <time>2021-09-04T14:05:30Z</time>
      </trkpt>
      <trkpt lat="42.639373" lon="0.426683">
        <ele>2830.000000</ele>
        <time>2021-09-04T14:05:31Z</time>
      </trkpt>
      <trkpt lat="42.639375" lon="0.426680">
        <ele>2830.000000</ele>
        <time>2021-09-04T14:05:32Z</time>
      </trkpt>
      <trkpt lat="42.639380" lon="0.426675">
        <ele>2830.000000</ele>
        <time>2021-09-04T14:05:33Z</time>
      </trkpt>
      <trkpt lat="42.639378" lon="0.426673">
        <ele>2831.000000</ele>
        <time>2021-09-04T14:05:34Z</time>
      </trkpt>
      <trkpt lat="42.639380" lon="0.426668">
        <ele>2831.000000</ele>
        <time>2021-09-04T14:05:35Z</time>
      </trkpt>
      <trkpt lat="42.639381" lon="0.426665">
        <ele>2831.000000</ele>
        <time>2021-09-04T14:05:36Z</time>
      </trkpt>
      <trkpt lat="42.639387" lon="0.426658">
        <ele>2831.000000</ele>
        <time>2021-09-04T14:05:37Z</time>
      </trkpt>
      <trkpt lat="42.639394" lon="0.426653">
        <ele>2831.000000</ele>
        <time>2021-09-04T14:05:38Z</time>
      </trkpt>
      <trkpt lat="42.639405" lon="0.426650">
        <ele>2831.000000</ele>
        <time>2021-09-04T14:05:39Z</time>
      </trkpt>
      <trkpt lat="42.639413" lon="0.426645">
        <ele>2831.000000</ele>
        <time>2021-09-04T14:05:40Z</time>
      </trkpt>
      <trkpt lat="42.639418" lon="0.426642">
        <ele>2832.000000</ele>
        <time>2021-09-04T14:05:41Z</time>
      </trkpt>
      <trkpt lat="42.639425" lon="0.426634">
        <ele>2832.000000</ele>
        <time>2021-09-04T14:05:42Z</time>
      </trkpt>
      <trkpt lat="42.639430" lon="0.426627">
        <ele>2832.000000</ele>
        <time>2021-09-04T14:05:43Z</time>
      </trkpt>
      <trkpt lat="42.639433" lon="0.426623">
        <ele>2832.000000</ele>
        <time>2021-09-04T14:05:44Z</time>
      </trkpt>
      <trkpt lat="42.639435" lon="0.426617">
        <ele>2832.000000</ele>
        <time>2021-09-04T14:05:45Z</time>
      </trkpt>
      <trkpt lat="42.639433" lon="0.426613">
        <ele>2832.000000</ele>
        <time>2021-09-04T14:05:46Z</time>
      </trkpt>
      <trkpt lat="42.639432" lon="0.426610">
        <ele>2832.000000</ele>
        <time>2021-09-04T14:05:47Z</time>
      </trkpt>
      <trkpt lat="42.639438" lon="0.426602">
        <ele>2832.000000</ele>
        <time>2021-09-04T14:05:48Z</time>
      </trkpt>
      <trkpt lat="42.639443" lon="0.426593">
        <ele>2832.000000</ele>
        <time>2021-09-04T14:05:49Z</time>
      </trkpt>
      <trkpt lat="42.639448" lon="0.426590">
        <ele>2833.000000</ele>
        <time>2021-09-04T14:05:50Z</time>
      </trkpt>
      <trkpt lat="42.639455" lon="0.426590">
        <ele>2833.000000</ele>
        <time>2021-09-04T14:05:51Z</time>
      </trkpt>
      <trkpt lat="42.639462" lon="0.426592">
        <ele>2833.000000</ele>
        <time>2021-09-04T14:05:52Z</time>
      </trkpt>
      <trkpt lat="42.639465" lon="0.426588">
        <ele>2833.000000</ele>
        <time>2021-09-04T14:05:53Z</time>
      </trkpt>
      <trkpt lat="42.639467" lon="0.426589">
        <ele>2833.000000</ele>
        <time>2021-09-04T14:05:54Z</time>
      </trkpt>
      <trkpt lat="42.639463" lon="0.426589">
        <ele>2833.000000</ele>
        <time>2021-09-04T14:05:56Z</time>
      </trkpt>
      <trkpt lat="42.639467" lon="0.426586">
        <ele>2833.000000</ele>
        <time>2021-09-04T14:05:57Z</time>
      </trkpt>
      <trkpt lat="42.639468" lon="0.426578">
        <ele>2833.000000</ele>
        <time>2021-09-04T14:05:58Z</time>
      </trkpt>
      <trkpt lat="42.639465" lon="0.426565">
        <ele>2833.000000</ele>
        <time>2021-09-04T14:05:59Z</time>
      </trkpt>
      <trkpt lat="42.639465" lon="0.426560">
        <ele>2833.000000</ele>
        <time>2021-09-04T14:06:00Z</time>
      </trkpt>
      <trkpt lat="42.639463" lon="0.426558">
        <ele>2833.000000</ele>
        <time>2021-09-04T14:06:03Z</time>
      </trkpt>
      <trkpt lat="42.639463" lon="0.426552">
        <ele>2834.000000</ele>
        <time>2021-09-04T14:06:04Z</time>
      </trkpt>
      <trkpt lat="42.639462" lon="0.426548">
        <ele>2834.000000</ele>
        <time>2021-09-04T14:06:05Z</time>
      </trkpt>
      <trkpt lat="42.639458" lon="0.426545">
        <ele>2834.000000</ele>
        <time>2021-09-04T14:06:06Z</time>
      </trkpt>
      <trkpt lat="42.639453" lon="0.426540">
        <ele>2834.000000</ele>
        <time>2021-09-04T14:06:07Z</time>
      </trkpt>
      <trkpt lat="42.639451" lon="0.426537">
        <ele>2834.000000</ele>
        <time>2021-09-04T14:06:08Z</time>
      </trkpt>
      <trkpt lat="42.639451" lon="0.426533">
        <ele>2835.000000</ele>
        <time>2021-09-04T14:06:10Z</time>
      </trkpt>
      <trkpt lat="42.639451" lon="0.426527">
        <ele>2835.000000</ele>
        <time>2021-09-04T14:06:11Z</time>
      </trkpt>
      <trkpt lat="42.639453" lon="0.426522">
        <ele>2835.000000</ele>
        <time>2021-09-04T14:06:12Z</time>
      </trkpt>
      <trkpt lat="42.639454" lon="0.426515">
        <ele>2835.000000</ele>
        <time>2021-09-04T14:06:13Z</time>
      </trkpt>
      <trkpt lat="42.639460" lon="0.426510">
        <ele>2835.000000</ele>
        <time>2021-09-04T14:06:14Z</time>
      </trkpt>
      <trkpt lat="42.639462" lon="0.426512">
        <ele>2835.000000</ele>
        <time>2021-09-04T14:06:16Z</time>
      </trkpt>
      <trkpt lat="42.639462" lon="0.426513">
        <ele>2836.000000</ele>
        <time>2021-09-04T14:06:18Z</time>
      </trkpt>
      <trkpt lat="42.639458" lon="0.426517">
        <ele>2836.000000</ele>
        <time>2021-09-04T14:06:19Z</time>
      </trkpt>
      <trkpt lat="42.639460" lon="0.426515">
        <ele>2836.000000</ele>
        <time>2021-09-04T14:06:20Z</time>
      </trkpt>
      <trkpt lat="42.639462" lon="0.426510">
        <ele>2836.000000</ele>
        <time>2021-09-04T14:06:21Z</time>
      </trkpt>
      <trkpt lat="42.639462" lon="0.426507">
        <ele>2837.000000</ele>
        <time>2021-09-04T14:06:22Z</time>
      </trkpt>
      <trkpt lat="42.639465" lon="0.426503">
        <ele>2837.000000</ele>
        <time>2021-09-04T14:06:23Z</time>
      </trkpt>
      <trkpt lat="42.639470" lon="0.426500">
        <ele>2837.000000</ele>
        <time>2021-09-04T14:06:24Z</time>
      </trkpt>
      <trkpt lat="42.639470" lon="0.426495">
        <ele>2837.000000</ele>
        <time>2021-09-04T14:06:25Z</time>
      </trkpt>
      <trkpt lat="42.639470" lon="0.426488">
        <ele>2837.000000</ele>
        <time>2021-09-04T14:06:26Z</time>
      </trkpt>
      <trkpt lat="42.639469" lon="0.426485">
        <ele>2837.000000</ele>
        <time>2021-09-04T14:06:27Z</time>
      </trkpt>
      <trkpt lat="42.639469" lon="0.426500">
        <ele>2838.000000</ele>
        <time>2021-09-04T14:06:29Z</time>
      </trkpt>
      <trkpt lat="42.639468" lon="0.426492">
        <ele>2843.000000</ele>
        <time>2021-09-04T14:07:33Z</time>
      </trkpt>
      <trkpt lat="42.639538" lon="0.426177">
        <ele>2843.000000</ele>
        <time>2021-09-04T14:08:04Z</time>
      </trkpt>
      <trkpt lat="42.639538" lon="0.426173">
        <ele>2843.000000</ele>
        <time>2021-09-04T14:08:05Z</time>
      </trkpt>
      <trkpt lat="42.639535" lon="0.426168">
        <ele>2843.000000</ele>
        <time>2021-09-04T14:08:06Z</time>
      </trkpt>
      <trkpt lat="42.639532" lon="0.426163">
        <ele>2843.000000</ele>
        <time>2021-09-04T14:08:07Z</time>
      </trkpt>
      <trkpt lat="42.639533" lon="0.426165">
        <ele>2843.000000</ele>
        <time>2021-09-04T14:08:08Z</time>
      </trkpt>
      <trkpt lat="42.639536" lon="0.426157">
        <ele>2843.000000</ele>
        <time>2021-09-04T14:08:09Z</time>
      </trkpt>
      <trkpt lat="42.639547" lon="0.426155">
        <ele>2843.000000</ele>
        <time>2021-09-04T14:08:13Z</time>
      </trkpt>
      <trkpt lat="42.639545" lon="0.426150">
        <ele>2843.000000</ele>
        <time>2021-09-04T14:08:14Z</time>
      </trkpt>
      <trkpt lat="42.639543" lon="0.426147">
        <ele>2843.000000</ele>
        <time>2021-09-04T14:08:17Z</time>
      </trkpt>
      <trkpt lat="42.639543" lon="0.426140">
        <ele>2843.000000</ele>
        <time>2021-09-04T14:08:18Z</time>
      </trkpt>
      <trkpt lat="42.639549" lon="0.426132">
        <ele>2843.000000</ele>
        <time>2021-09-04T14:08:19Z</time>
      </trkpt>
      <trkpt lat="42.639549" lon="0.426130">
        <ele>2843.000000</ele>
        <time>2021-09-04T14:08:20Z</time>
      </trkpt>
      <trkpt lat="42.639547" lon="0.426122">
        <ele>2843.000000</ele>
        <time>2021-09-04T14:08:21Z</time>
      </trkpt>
      <trkpt lat="42.639547" lon="0.426117">
        <ele>2843.000000</ele>
        <time>2021-09-04T14:08:22Z</time>
      </trkpt>
      <trkpt lat="42.639546" lon="0.426112">
        <ele>2843.000000</ele>
        <time>2021-09-04T14:08:23Z</time>
      </trkpt>
      <trkpt lat="42.639544" lon="0.426110">
        <ele>2843.000000</ele>
        <time>2021-09-04T14:08:24Z</time>
      </trkpt>
      <trkpt lat="42.639542" lon="0.426108">
        <ele>2843.000000</ele>
        <time>2021-09-04T14:08:25Z</time>
      </trkpt>
      <trkpt lat="42.639532" lon="0.426110">
        <ele>2843.000000</ele>
        <time>2021-09-04T14:08:26Z</time>
      </trkpt>
      <trkpt lat="42.639528" lon="0.426107">
        <ele>2843.000000</ele>
        <time>2021-09-04T14:08:27Z</time>
      </trkpt>
      <trkpt lat="42.639527" lon="0.426102">
        <ele>2843.000000</ele>
        <time>2021-09-04T14:08:28Z</time>
      </trkpt>
      <trkpt lat="42.639526" lon="0.426095">
        <ele>2846.000000</ele>
        <time>2021-09-04T14:08:29Z</time>
      </trkpt>
      <trkpt lat="42.639527" lon="0.426090">
        <ele>2846.000000</ele>
        <time>2021-09-04T14:08:30Z</time>
      </trkpt>
      <trkpt lat="42.639532" lon="0.426085">
        <ele>2846.000000</ele>
        <time>2021-09-04T14:08:31Z</time>
      </trkpt>
      <trkpt lat="42.639532" lon="0.426082">
        <ele>2846.000000</ele>
        <time>2021-09-04T14:08:33Z</time>
      </trkpt>
      <trkpt lat="42.639528" lon="0.426078">
        <ele>2846.000000</ele>
        <time>2021-09-04T14:08:34Z</time>
      </trkpt>
      <trkpt lat="42.639528" lon="0.426080">
        <ele>2846.000000</ele>
        <time>2021-09-04T14:08:38Z</time>
      </trkpt>
      <trkpt lat="42.639528" lon="0.426083">
        <ele>2846.000000</ele>
        <time>2021-09-04T14:08:39Z</time>
      </trkpt>
      <trkpt lat="42.639528" lon="0.426080">
        <ele>2846.000000</ele>
        <time>2021-09-04T14:08:40Z</time>
      </trkpt>
      <trkpt lat="42.639526" lon="0.426073">
        <ele>2846.000000</ele>
        <time>2021-09-04T14:08:41Z</time>
      </trkpt>
      <trkpt lat="42.639524" lon="0.426067">
        <ele>2846.000000</ele>
        <time>2021-09-04T14:08:42Z</time>
      </trkpt>
      <trkpt lat="42.639524" lon="0.426063">
        <ele>2846.000000</ele>
        <time>2021-09-04T14:08:43Z</time>
      </trkpt>
      <trkpt lat="42.639522" lon="0.426058">
        <ele>2846.000000</ele>
        <time>2021-09-04T14:08:44Z</time>
      </trkpt>
      <trkpt lat="42.639522" lon="0.426057">
        <ele>2846.000000</ele>
        <time>2021-09-04T14:08:45Z</time>
      </trkpt>
      <trkpt lat="42.639523" lon="0.426053">
        <ele>2846.000000</ele>
        <time>2021-09-04T14:08:46Z</time>
      </trkpt>
      <trkpt lat="42.639532" lon="0.426052">
        <ele>2846.000000</ele>
        <time>2021-09-04T14:08:47Z</time>
      </trkpt>
      <trkpt lat="42.639533" lon="0.426050">
        <ele>2846.000000</ele>
        <time>2021-09-04T14:08:48Z</time>
      </trkpt>
      <trkpt lat="42.639535" lon="0.426047">
        <ele>2845.000000</ele>
        <time>2021-09-04T14:08:49Z</time>
      </trkpt>
      <trkpt lat="42.639535" lon="0.426037">
        <ele>2845.000000</ele>
        <time>2021-09-04T14:08:50Z</time>
      </trkpt>
      <trkpt lat="42.639535" lon="0.426032">
        <ele>2845.000000</ele>
        <time>2021-09-04T14:08:51Z</time>
      </trkpt>
      <trkpt lat="42.639535" lon="0.426028">
        <ele>2845.000000</ele>
        <time>2021-09-04T14:08:52Z</time>
      </trkpt>
      <trkpt lat="42.639537" lon="0.426025">
        <ele>2845.000000</ele>
        <time>2021-09-04T14:08:53Z</time>
      </trkpt>
      <trkpt lat="42.639540" lon="0.426023">
        <ele>2845.000000</ele>
        <time>2021-09-04T14:08:54Z</time>
      </trkpt>
      <trkpt lat="42.639544" lon="0.426020">
        <ele>2845.000000</ele>
        <time>2021-09-04T14:08:58Z</time>
      </trkpt>
      <trkpt lat="42.639547" lon="0.426018">
        <ele>2844.000000</ele>
        <time>2021-09-04T14:08:59Z</time>
      </trkpt>
      <trkpt lat="42.639552" lon="0.426010">
        <ele>2844.000000</ele>
        <time>2021-09-04T14:09:03Z</time>
      </trkpt>
      <trkpt lat="42.639550" lon="0.426000">
        <ele>2844.000000</ele>
        <time>2021-09-04T14:09:04Z</time>
      </trkpt>
      <trkpt lat="42.639550" lon="0.425995">
        <ele>2845.000000</ele>
        <time>2021-09-04T14:09:05Z</time>
      </trkpt>
      <trkpt lat="42.639548" lon="0.425988">
        <ele>2845.000000</ele>
        <time>2021-09-04T14:09:06Z</time>
      </trkpt>
      <trkpt lat="42.639551" lon="0.425982">
        <ele>2846.000000</ele>
        <time>2021-09-04T14:09:07Z</time>
      </trkpt>
      <trkpt lat="42.639554" lon="0.425975">
        <ele>2846.000000</ele>
        <time>2021-09-04T14:09:08Z</time>
      </trkpt>
      <trkpt lat="42.639556" lon="0.425965">
        <ele>2847.000000</ele>
        <time>2021-09-04T14:09:09Z</time>
      </trkpt>
      <trkpt lat="42.639561" lon="0.425955">
        <ele>2847.000000</ele>
        <time>2021-09-04T14:09:10Z</time>
      </trkpt>
      <trkpt lat="42.639563" lon="0.425952">
        <ele>2847.000000</ele>
        <time>2021-09-04T14:09:11Z</time>
      </trkpt>
      <trkpt lat="42.639572" lon="0.425950">
        <ele>2847.000000</ele>
        <time>2021-09-04T14:09:12Z</time>
      </trkpt>
      <trkpt lat="42.639577" lon="0.425948">
        <ele>2848.000000</ele>
        <time>2021-09-04T14:09:13Z</time>
      </trkpt>
      <trkpt lat="42.639583" lon="0.425948">
        <ele>2848.000000</ele>
        <time>2021-09-04T14:09:14Z</time>
      </trkpt>
      <trkpt lat="42.639583" lon="0.425945">
        <ele>2848.000000</ele>
        <time>2021-09-04T14:09:15Z</time>
      </trkpt>
      <trkpt lat="42.639582" lon="0.425938">
        <ele>2849.000000</ele>
        <time>2021-09-04T14:09:16Z</time>
      </trkpt>
      <trkpt lat="42.639578" lon="0.425933">
        <ele>2849.000000</ele>
        <time>2021-09-04T14:09:17Z</time>
      </trkpt>
      <trkpt lat="42.639580" lon="0.425925">
        <ele>2849.000000</ele>
        <time>2021-09-04T14:09:18Z</time>
      </trkpt>
      <trkpt lat="42.639583" lon="0.425915">
        <ele>2850.000000</ele>
        <time>2021-09-04T14:09:19Z</time>
      </trkpt>
      <trkpt lat="42.639587" lon="0.425912">
        <ele>2850.000000</ele>
        <time>2021-09-04T14:09:21Z</time>
      </trkpt>
      <trkpt lat="42.639588" lon="0.425920">
        <ele>2850.000000</ele>
        <time>2021-09-04T14:09:22Z</time>
      </trkpt>
      <trkpt lat="42.639592" lon="0.425913">
        <ele>2851.000000</ele>
        <time>2021-09-04T14:09:23Z</time>
      </trkpt>
      <trkpt lat="42.639595" lon="0.425913">
        <ele>2851.000000</ele>
        <time>2021-09-04T14:09:25Z</time>
      </trkpt>
      <trkpt lat="42.639597" lon="0.425915">
        <ele>2851.000000</ele>
        <time>2021-09-04T14:09:26Z</time>
      </trkpt>
      <trkpt lat="42.639593" lon="0.425915">
        <ele>2852.000000</ele>
        <time>2021-09-04T14:09:27Z</time>
      </trkpt>
      <trkpt lat="42.639557" lon="0.425780">
        <ele>2863.000000</ele>
        <time>2021-09-04T14:14:18Z</time>
      </trkpt>
      <trkpt lat="42.639548" lon="0.425787">
        <ele>2863.000000</ele>
        <time>2021-09-04T14:14:19Z</time>
      </trkpt>
      <trkpt lat="42.639543" lon="0.425794">
        <ele>2864.000000</ele>
        <time>2021-09-04T14:14:20Z</time>
      </trkpt>
      <trkpt lat="42.639537" lon="0.425802">
        <ele>2864.000000</ele>
        <time>2021-09-04T14:14:21Z</time>
      </trkpt>
      <trkpt lat="42.639535" lon="0.425803">
        <ele>2865.000000</ele>
        <time>2021-09-04T14:14:22Z</time>
      </trkpt>
      <trkpt lat="42.639533" lon="0.425803">
        <ele>2865.000000</ele>
        <time>2021-09-04T14:14:23Z</time>
      </trkpt>
      <trkpt lat="42.639532" lon="0.425803">
        <ele>2866.000000</ele>
        <time>2021-09-04T14:14:24Z</time>
      </trkpt>
      <trkpt lat="42.639537" lon="0.425797">
        <ele>2867.000000</ele>
        <time>2021-09-04T14:14:28Z</time>
      </trkpt>
      <trkpt lat="42.639538" lon="0.425793">
        <ele>2867.000000</ele>
        <time>2021-09-04T14:14:29Z</time>
      </trkpt>
      <trkpt lat="42.639537" lon="0.425792">
        <ele>2868.000000</ele>
        <time>2021-09-04T14:14:30Z</time>
      </trkpt>
      <trkpt lat="42.639533" lon="0.425787">
        <ele>2868.000000</ele>
        <time>2021-09-04T14:14:31Z</time>
      </trkpt>
      <trkpt lat="42.639532" lon="0.425787">
        <ele>2868.000000</ele>
        <time>2021-09-04T14:14:32Z</time>
      </trkpt>
      <trkpt lat="42.639532" lon="0.425789">
        <ele>2868.000000</ele>
        <time>2021-09-04T14:14:34Z</time>
      </trkpt>
      <trkpt lat="42.639528" lon="0.425790">
        <ele>2868.000000</ele>
        <time>2021-09-04T14:14:35Z</time>
      </trkpt>
      <trkpt lat="42.639533" lon="0.425791">
        <ele>2868.000000</ele>
        <time>2021-09-04T14:14:36Z</time>
      </trkpt>
      <trkpt lat="42.639590" lon="0.425770">
        <ele>2866.000000</ele>
        <time>2021-09-04T14:17:15Z</time>
      </trkpt>
      <trkpt lat="42.639595" lon="0.425760">
        <ele>2865.000000</ele>
        <time>2021-09-04T14:17:16Z</time>
      </trkpt>
      <trkpt lat="42.639600" lon="0.425755">
        <ele>2865.000000</ele>
        <time>2021-09-04T14:17:17Z</time>
      </trkpt>
      <trkpt lat="42.639602" lon="0.425752">
        <ele>2865.000000</ele>
        <time>2021-09-04T14:17:18Z</time>
      </trkpt>
      <trkpt lat="42.639602" lon="0.425748">
        <ele>2865.000000</ele>
        <time>2021-09-04T14:17:21Z</time>
      </trkpt>
      <trkpt lat="42.639603" lon="0.425745">
        <ele>2865.000000</ele>
        <time>2021-09-04T14:17:22Z</time>
      </trkpt>
      <trkpt lat="42.639604" lon="0.425742">
        <ele>2865.000000</ele>
        <time>2021-09-04T14:17:23Z</time>
      </trkpt>
      <trkpt lat="42.639602" lon="0.425740">
        <ele>2865.000000</ele>
        <time>2021-09-04T14:17:24Z</time>
      </trkpt>
      <trkpt lat="42.639600" lon="0.425738">
        <ele>2865.000000</ele>
        <time>2021-09-04T14:17:27Z</time>
      </trkpt>
      <trkpt lat="42.639597" lon="0.425737">
        <ele>2865.000000</ele>
        <time>2021-09-04T14:17:28Z</time>
      </trkpt>
      <trkpt lat="42.639600" lon="0.425742">
        <ele>2865.000000</ele>
        <time>2021-09-04T14:17:29Z</time>
      </trkpt>
      <trkpt lat="42.639597" lon="0.425737">
        <ele>2862.000000</ele>
        <time>2021-09-04T14:24:31Z</time>
      </trkpt>
      <trkpt lat="42.639597" lon="0.425732">
        <ele>2862.000000</ele>
        <time>2021-09-04T14:24:32Z</time>
      </trkpt>
      <trkpt lat="42.639599" lon="0.425730">
        <ele>2862.000000</ele>
        <time>2021-09-04T14:24:33Z</time>
      </trkpt>
      <trkpt lat="42.639597" lon="0.425733">
        <ele>2862.000000</ele>
        <time>2021-09-04T14:24:34Z</time>
      </trkpt>
      <trkpt lat="42.639596" lon="0.425737">
        <ele>2862.000000</ele>
        <time>2021-09-04T14:24:35Z</time>
      </trkpt>
      <trkpt lat="42.639595" lon="0.425738">
        <ele>2862.000000</ele>
        <time>2021-09-04T14:24:36Z</time>
      </trkpt>
      <trkpt lat="42.639594" lon="0.425740">
        <ele>2863.000000</ele>
        <time>2021-09-04T14:24:37Z</time>
      </trkpt>
      <trkpt lat="42.639596" lon="0.425737">
        <ele>2863.000000</ele>
        <time>2021-09-04T14:24:38Z</time>
      </trkpt>
      <trkpt lat="42.639622" lon="0.425718">
        <ele>2869.000000</ele>
        <time>2021-09-04T14:32:36Z</time>
      </trkpt>
      <trkpt lat="42.639630" lon="0.425712">
        <ele>2869.000000</ele>
        <time>2021-09-04T14:32:37Z</time>
      </trkpt>
      <trkpt lat="42.639638" lon="0.425705">
        <ele>2869.000000</ele>
        <time>2021-09-04T14:32:38Z</time>
      </trkpt>
      <trkpt lat="42.639650" lon="0.425698">
        <ele>2869.000000</ele>
        <time>2021-09-04T14:32:39Z</time>
      </trkpt>
      <trkpt lat="42.639653" lon="0.425694">
        <ele>2869.000000</ele>
        <time>2021-09-04T14:32:40Z</time>
      </trkpt>
      <trkpt lat="42.639662" lon="0.425689">
        <ele>2869.000000</ele>
        <time>2021-09-04T14:32:41Z</time>
      </trkpt>
      <trkpt lat="42.639670" lon="0.425684">
        <ele>2869.000000</ele>
        <time>2021-09-04T14:32:42Z</time>
      </trkpt>
      <trkpt lat="42.639673" lon="0.425678">
        <ele>2869.000000</ele>
        <time>2021-09-04T14:32:43Z</time>
      </trkpt>
      <trkpt lat="42.639673" lon="0.425674">
        <ele>2869.000000</ele>
        <time>2021-09-04T14:32:44Z</time>
      </trkpt>
      <trkpt lat="42.639677" lon="0.425648">
        <ele>2869.000000</ele>
        <time>2021-09-04T14:32:45Z</time>
      </trkpt>
      <trkpt lat="42.639682" lon="0.425633">
        <ele>2869.000000</ele>
        <time>2021-09-04T14:32:46Z</time>
      </trkpt>
      <trkpt lat="42.639685" lon="0.425625">
        <ele>2869.000000</ele>
        <time>2021-09-04T14:32:47Z</time>
      </trkpt>
      <trkpt lat="42.639692" lon="0.425623">
        <ele>2869.000000</ele>
        <time>2021-09-04T14:32:48Z</time>
      </trkpt>
      <trkpt lat="42.639697" lon="0.425616">
        <ele>2869.000000</ele>
        <time>2021-09-04T14:32:49Z</time>
      </trkpt>
      <trkpt lat="42.639700" lon="0.425613">
        <ele>2869.000000</ele>
        <time>2021-09-04T14:32:50Z</time>
      </trkpt>
      <trkpt lat="42.639700" lon="0.425609">
        <ele>2869.000000</ele>
        <time>2021-09-04T14:32:51Z</time>
      </trkpt>
      <trkpt lat="42.639702" lon="0.425602">
        <ele>2869.000000</ele>
        <time>2021-09-04T14:32:52Z</time>
      </trkpt>
      <trkpt lat="42.639703" lon="0.425597">
        <ele>2869.000000</ele>
        <time>2021-09-04T14:32:53Z</time>
      </trkpt>
      <trkpt lat="42.639702" lon="0.425587">
        <ele>2869.000000</ele>
        <time>2021-09-04T14:32:54Z</time>
      </trkpt>
      <trkpt lat="42.639705" lon="0.425582">
        <ele>2869.000000</ele>
        <time>2021-09-04T14:32:55Z</time>
      </trkpt>
      <trkpt lat="42.639712" lon="0.425583">
        <ele>2869.000000</ele>
        <time>2021-09-04T14:32:56Z</time>
      </trkpt>
      <trkpt lat="42.639715" lon="0.425585">
        <ele>2869.000000</ele>
        <time>2021-09-04T14:32:58Z</time>
      </trkpt>
      <trkpt lat="42.639718" lon="0.425582">
        <ele>2869.000000</ele>
        <time>2021-09-04T14:32:58Z</time>
      </trkpt>
      <trkpt lat="42.639718" lon="0.425578">
        <ele>2869.000000</ele>
        <time>2021-09-04T14:32:59Z</time>
      </trkpt>
      <trkpt lat="42.639718" lon="0.425575">
        <ele>2872.000000</ele>
        <time>2021-09-04T14:33:00Z</time>
      </trkpt>
      <trkpt lat="42.639723" lon="0.425564">
        <ele>2872.000000</ele>
        <time>2021-09-04T14:33:01Z</time>
      </trkpt>
      <trkpt lat="42.639727" lon="0.425552">
        <ele>2873.000000</ele>
        <time>2021-09-04T14:33:02Z</time>
      </trkpt>
      <trkpt lat="42.639728" lon="0.425542">
        <ele>2873.000000</ele>
        <time>2021-09-04T14:33:03Z</time>
      </trkpt>
      <trkpt lat="42.639727" lon="0.425533">
        <ele>2874.000000</ele>
        <time>2021-09-04T14:33:04Z</time>
      </trkpt>
      <trkpt lat="42.639727" lon="0.425527">
        <ele>2874.000000</ele>
        <time>2021-09-04T14:33:05Z</time>
      </trkpt>
      <trkpt lat="42.639725" lon="0.425527">
        <ele>2876.000000</ele>
        <time>2021-09-04T14:33:06Z</time>
      </trkpt>
      <trkpt lat="42.639722" lon="0.425522">
        <ele>2876.000000</ele>
        <time>2021-09-04T14:33:07Z</time>
      </trkpt>
      <trkpt lat="42.639724" lon="0.425522">
        <ele>2876.000000</ele>
        <time>2021-09-04T14:33:08Z</time>
      </trkpt>
      <trkpt lat="42.639724" lon="0.425518">
        <ele>2876.000000</ele>
        <time>2021-09-04T14:33:09Z</time>
      </trkpt>
      <trkpt lat="42.639722" lon="0.425513">
        <ele>2876.000000</ele>
        <time>2021-09-04T14:33:10Z</time>
      </trkpt>
      <trkpt lat="42.639723" lon="0.425512">
        <ele>2876.000000</ele>
        <time>2021-09-04T14:33:11Z</time>
      </trkpt>
      <trkpt lat="42.639722" lon="0.425504">
        <ele>2877.000000</ele>
        <time>2021-09-04T14:33:12Z</time>
      </trkpt>
      <trkpt lat="42.639723" lon="0.425503">
        <ele>2877.000000</ele>
        <time>2021-09-04T14:33:13Z</time>
      </trkpt>
      <trkpt lat="42.639723" lon="0.425496">
        <ele>2877.000000</ele>
        <time>2021-09-04T14:33:14Z</time>
      </trkpt>
      <trkpt lat="42.639720" lon="0.425468">
        <ele>2878.000000</ele>
        <time>2021-09-04T14:33:15Z</time>
      </trkpt>
      <trkpt lat="42.639720" lon="0.425457">
        <ele>2878.000000</ele>
        <time>2021-09-04T14:33:16Z</time>
      </trkpt>
      <trkpt lat="42.639718" lon="0.425452">
        <ele>2878.000000</ele>
        <time>2021-09-04T14:33:17Z</time>
      </trkpt>
      <trkpt lat="42.639723" lon="0.425450">
        <ele>2878.000000</ele>
        <time>2021-09-04T14:33:18Z</time>
      </trkpt>
      <trkpt lat="42.639725" lon="0.425450">
        <ele>2878.000000</ele>
        <time>2021-09-04T14:33:19Z</time>
      </trkpt>
      <trkpt lat="42.639727" lon="0.425450">
        <ele>2878.000000</ele>
        <time>2021-09-04T14:33:20Z</time>
      </trkpt>
      <trkpt lat="42.639738" lon="0.425450">
        <ele>2878.000000</ele>
        <time>2021-09-04T14:33:21Z</time>
      </trkpt>
      <trkpt lat="42.639742" lon="0.425453">
        <ele>2878.000000</ele>
        <time>2021-09-04T14:33:22Z</time>
      </trkpt>
      <trkpt lat="42.639745" lon="0.425453">
        <ele>2878.000000</ele>
        <time>2021-09-04T14:33:23Z</time>
      </trkpt>
      <trkpt lat="42.639753" lon="0.425449">
        <ele>2878.000000</ele>
        <time>2021-09-04T14:33:24Z</time>
      </trkpt>
      <trkpt lat="42.639753" lon="0.425444">
        <ele>2879.000000</ele>
        <time>2021-09-04T14:33:25Z</time>
      </trkpt>
      <trkpt lat="42.639760" lon="0.425422">
        <ele>2879.000000</ele>
        <time>2021-09-04T14:33:26Z</time>
      </trkpt>
      <trkpt lat="42.639767" lon="0.425415">
        <ele>2879.000000</ele>
        <time>2021-09-04T14:33:27Z</time>
      </trkpt>
      <trkpt lat="42.639772" lon="0.425410">
        <ele>2879.000000</ele>
        <time>2021-09-04T14:33:28Z</time>
      </trkpt>
      <trkpt lat="42.639773" lon="0.425402">
        <ele>2879.000000</ele>
        <time>2021-09-04T14:33:29Z</time>
      </trkpt>
      <trkpt lat="42.639775" lon="0.425395">
        <ele>2879.000000</ele>
        <time>2021-09-04T14:33:30Z</time>
      </trkpt>
      <trkpt lat="42.639777" lon="0.425387">
        <ele>2879.000000</ele>
        <time>2021-09-04T14:33:31Z</time>
      </trkpt>
      <trkpt lat="42.639782" lon="0.425378">
        <ele>2879.000000</ele>
        <time>2021-09-04T14:33:32Z</time>
      </trkpt>
      <trkpt lat="42.639786" lon="0.425378">
        <ele>2880.000000</ele>
        <time>2021-09-04T14:33:33Z</time>
      </trkpt>
      <trkpt lat="42.639788" lon="0.425380">
        <ele>2880.000000</ele>
        <time>2021-09-04T14:33:34Z</time>
      </trkpt>
      <trkpt lat="42.639793" lon="0.425375">
        <ele>2880.000000</ele>
        <time>2021-09-04T14:33:35Z</time>
      </trkpt>
      <trkpt lat="42.639795" lon="0.425368">
        <ele>2880.000000</ele>
        <time>2021-09-04T14:33:36Z</time>
      </trkpt>
      <trkpt lat="42.639797" lon="0.425362">
        <ele>2880.000000</ele>
        <time>2021-09-04T14:33:37Z</time>
      </trkpt>
      <trkpt lat="42.639798" lon="0.425355">
        <ele>2880.000000</ele>
        <time>2021-09-04T14:33:38Z</time>
      </trkpt>
      <trkpt lat="42.639799" lon="0.425350">
        <ele>2880.000000</ele>
        <time>2021-09-04T14:33:39Z</time>
      </trkpt>
      <trkpt lat="42.639795" lon="0.425345">
        <ele>2881.000000</ele>
        <time>2021-09-04T14:33:41Z</time>
      </trkpt>
      <trkpt lat="42.639797" lon="0.425345">
        <ele>2881.000000</ele>
        <time>2021-09-04T14:33:43Z</time>
      </trkpt>
      <trkpt lat="42.639803" lon="0.425347">
        <ele>2881.000000</ele>
        <time>2021-09-04T14:33:44Z</time>
      </trkpt>
      <trkpt lat="42.639805" lon="0.425345">
        <ele>2881.000000</ele>
        <time>2021-09-04T14:33:45Z</time>
      </trkpt>
      <trkpt lat="42.639810" lon="0.425348">
        <ele>2881.000000</ele>
        <time>2021-09-04T14:33:46Z</time>
      </trkpt>
      <trkpt lat="42.639810" lon="0.425343">
        <ele>2881.000000</ele>
        <time>2021-09-04T14:33:47Z</time>
      </trkpt>
      <trkpt lat="42.639812" lon="0.425347">
        <ele>2881.000000</ele>
        <time>2021-09-04T14:33:48Z</time>
      </trkpt>
      <trkpt lat="42.639808" lon="0.425345">
        <ele>2881.000000</ele>
        <time>2021-09-04T14:33:49Z</time>
      </trkpt>
      <trkpt lat="42.639805" lon="0.425342">
        <ele>2881.000000</ele>
        <time>2021-09-04T14:33:51Z</time>
      </trkpt>
      <trkpt lat="42.639808" lon="0.425344">
        <ele>2881.000000</ele>
        <time>2021-09-04T14:33:52Z</time>
      </trkpt>
      <trkpt lat="42.639895" lon="0.425020">
        <ele>2886.000000</ele>
        <time>2021-09-04T14:35:21Z</time>
      </trkpt>
      <trkpt lat="42.639898" lon="0.425012">
        <ele>2886.000000</ele>
        <time>2021-09-04T14:35:22Z</time>
      </trkpt>
      <trkpt lat="42.639901" lon="0.425010">
        <ele>2886.000000</ele>
        <time>2021-09-04T14:35:23Z</time>
      </trkpt>
      <trkpt lat="42.639907" lon="0.425002">
        <ele>2886.000000</ele>
        <time>2021-09-04T14:35:24Z</time>
      </trkpt>
      <trkpt lat="42.639910" lon="0.424998">
        <ele>2886.000000</ele>
        <time>2021-09-04T14:35:25Z</time>
      </trkpt>
      <trkpt lat="42.639909" lon="0.425002">
        <ele>2886.000000</ele>
        <time>2021-09-04T14:35:26Z</time>
      </trkpt>
      <trkpt lat="42.639909" lon="0.425003">
        <ele>2886.000000</ele>
        <time>2021-09-04T14:35:28Z</time>
      </trkpt>
      <trkpt lat="42.639917" lon="0.424997">
        <ele>2888.000000</ele>
        <time>2021-09-04T14:35:30Z</time>
      </trkpt>
      <trkpt lat="42.639917" lon="0.424990">
        <ele>2888.000000</ele>
        <time>2021-09-04T14:35:31Z</time>
      </trkpt>
      <trkpt lat="42.639916" lon="0.424988">
        <ele>2888.000000</ele>
        <time>2021-09-04T14:35:32Z</time>
      </trkpt>
      <trkpt lat="42.639915" lon="0.424983">
        <ele>2889.000000</ele>
        <time>2021-09-04T14:35:33Z</time>
      </trkpt>
      <trkpt lat="42.639916" lon="0.424982">
        <ele>2889.000000</ele>
        <time>2021-09-04T14:35:34Z</time>
      </trkpt>
      <trkpt lat="42.639916" lon="0.424975">
        <ele>2889.000000</ele>
        <time>2021-09-04T14:35:35Z</time>
      </trkpt>
      <trkpt lat="42.639917" lon="0.424973">
        <ele>2889.000000</ele>
        <time>2021-09-04T14:35:36Z</time>
      </trkpt>
      <trkpt lat="42.639919" lon="0.424972">
        <ele>2889.000000</ele>
        <time>2021-09-04T14:35:37Z</time>
      </trkpt>
      <trkpt lat="42.639927" lon="0.424968">
        <ele>2889.000000</ele>
        <time>2021-09-04T14:35:38Z</time>
      </trkpt>
      <trkpt lat="42.639928" lon="0.424970">
        <ele>2889.000000</ele>
        <time>2021-09-04T14:35:39Z</time>
      </trkpt>
      <trkpt lat="42.639930" lon="0.424972">
        <ele>2889.000000</ele>
        <time>2021-09-04T14:35:40Z</time>
      </trkpt>
      <trkpt lat="42.639933" lon="0.424972">
        <ele>2889.000000</ele>
        <time>2021-09-04T14:35:41Z</time>
      </trkpt>
      <trkpt lat="42.639937" lon="0.424972">
        <ele>2890.000000</ele>
        <time>2021-09-04T14:35:42Z</time>
      </trkpt>
      <trkpt lat="42.639940" lon="0.424972">
        <ele>2890.000000</ele>
        <time>2021-09-04T14:35:43Z</time>
      </trkpt>
      <trkpt lat="42.639942" lon="0.424970">
        <ele>2890.000000</ele>
        <time>2021-09-04T14:35:44Z</time>
      </trkpt>
      <trkpt lat="42.639945" lon="0.424965">
        <ele>2890.000000</ele>
        <time>2021-09-04T14:35:45Z</time>
      </trkpt>
      <trkpt lat="42.639945" lon="0.424961">
        <ele>2890.000000</ele>
        <time>2021-09-04T14:35:46Z</time>
      </trkpt>
      <trkpt lat="42.639948" lon="0.424958">
        <ele>2890.000000</ele>
        <time>2021-09-04T14:35:47Z</time>
      </trkpt>
      <trkpt lat="42.639955" lon="0.424955">
        <ele>2890.000000</ele>
        <time>2021-09-04T14:35:48Z</time>
      </trkpt>
      <trkpt lat="42.639960" lon="0.424957">
        <ele>2890.000000</ele>
        <time>2021-09-04T14:35:49Z</time>
      </trkpt>
      <trkpt lat="42.639967" lon="0.424950">
        <ele>2891.000000</ele>
        <time>2021-09-04T14:35:50Z</time>
      </trkpt>
      <trkpt lat="42.639970" lon="0.424944">
        <ele>2891.000000</ele>
        <time>2021-09-04T14:35:51Z</time>
      </trkpt>
      <trkpt lat="42.639968" lon="0.424943">
        <ele>2891.000000</ele>
        <time>2021-09-04T14:35:52Z</time>
      </trkpt>
      <trkpt lat="42.639968" lon="0.424933">
        <ele>2891.000000</ele>
        <time>2021-09-04T14:35:53Z</time>
      </trkpt>
      <trkpt lat="42.639967" lon="0.424928">
        <ele>2891.000000</ele>
        <time>2021-09-04T14:35:54Z</time>
      </trkpt>
      <trkpt lat="42.639968" lon="0.424923">
        <ele>2891.000000</ele>
        <time>2021-09-04T14:35:55Z</time>
      </trkpt>
      <trkpt lat="42.639970" lon="0.424922">
        <ele>2892.000000</ele>
        <time>2021-09-04T14:35:56Z</time>
      </trkpt>
      <trkpt lat="42.639972" lon="0.424923">
        <ele>2892.000000</ele>
        <time>2021-09-04T14:35:57Z</time>
      </trkpt>
      <trkpt lat="42.639973" lon="0.424918">
        <ele>2892.000000</ele>
        <time>2021-09-04T14:35:59Z</time>
      </trkpt>
      <trkpt lat="42.639974" lon="0.424917">
        <ele>2892.000000</ele>
        <time>2021-09-04T14:36:00Z</time>
      </trkpt>
      <trkpt lat="42.639978" lon="0.424915">
        <ele>2892.000000</ele>
        <time>2021-09-04T14:36:01Z</time>
      </trkpt>
      <trkpt lat="42.639980" lon="0.424913">
        <ele>2893.000000</ele>
        <time>2021-09-04T14:36:02Z</time>
      </trkpt>
      <trkpt lat="42.639985" lon="0.424913">
        <ele>2893.000000</ele>
        <time>2021-09-04T14:36:03Z</time>
      </trkpt>
      <trkpt lat="42.639983" lon="0.424907">
        <ele>2893.000000</ele>
        <time>2021-09-04T14:36:06Z</time>
      </trkpt>
      <trkpt lat="42.639980" lon="0.424902">
        <ele>2894.000000</ele>
        <time>2021-09-04T14:36:08Z</time>
      </trkpt>
      <trkpt lat="42.639979" lon="0.424897">
        <ele>2894.000000</ele>
        <time>2021-09-04T14:36:09Z</time>
      </trkpt>
      <trkpt lat="42.639982" lon="0.424893">
        <ele>2894.000000</ele>
        <time>2021-09-04T14:36:10Z</time>
      </trkpt>
      <trkpt lat="42.639985" lon="0.424888">
        <ele>2894.000000</ele>
        <time>2021-09-04T14:36:12Z</time>
      </trkpt>
      <trkpt lat="42.639986" lon="0.424885">
        <ele>2894.000000</ele>
        <time>2021-09-04T14:36:13Z</time>
      </trkpt>
      <trkpt lat="42.639990" lon="0.424880">
        <ele>2894.000000</ele>
        <time>2021-09-04T14:36:14Z</time>
      </trkpt>
      <trkpt lat="42.639995" lon="0.424873">
        <ele>2894.000000</ele>
        <time>2021-09-04T14:36:15Z</time>
      </trkpt>
      <trkpt lat="42.639998" lon="0.424870">
        <ele>2894.000000</ele>
        <time>2021-09-04T14:36:16Z</time>
      </trkpt>
      <trkpt lat="42.640005" lon="0.424865">
        <ele>2894.000000</ele>
        <time>2021-09-04T14:36:17Z</time>
      </trkpt>
      <trkpt lat="42.640005" lon="0.424852">
        <ele>2894.000000</ele>
        <time>2021-09-04T14:36:19Z</time>
      </trkpt>
      <trkpt lat="42.640008" lon="0.424848">
        <ele>2894.000000</ele>
        <time>2021-09-04T14:36:20Z</time>
      </trkpt>
      <trkpt lat="42.640008" lon="0.424845">
        <ele>2895.000000</ele>
        <time>2021-09-04T14:36:21Z</time>
      </trkpt>
      <trkpt lat="42.640010" lon="0.424847">
        <ele>2895.000000</ele>
        <time>2021-09-04T14:36:22Z</time>
      </trkpt>
      <trkpt lat="42.640010" lon="0.424842">
        <ele>2895.000000</ele>
        <time>2021-09-04T14:36:23Z</time>
      </trkpt>
      <trkpt lat="42.640013" lon="0.424837">
        <ele>2895.000000</ele>
        <time>2021-09-04T14:36:24Z</time>
      </trkpt>
      <trkpt lat="42.640017" lon="0.424828">
        <ele>2895.000000</ele>
        <time>2021-09-04T14:36:24Z</time>
      </trkpt>
      <trkpt lat="42.640017" lon="0.424830">
        <ele>2896.000000</ele>
        <time>2021-09-04T14:36:25Z</time>
      </trkpt>
      <trkpt lat="42.640020" lon="0.424828">
        <ele>2896.000000</ele>
        <time>2021-09-04T14:36:26Z</time>
      </trkpt>
      <trkpt lat="42.640028" lon="0.424828">
        <ele>2896.000000</ele>
        <time>2021-09-04T14:36:27Z</time>
      </trkpt>
      <trkpt lat="42.640033" lon="0.424830">
        <ele>2896.000000</ele>
        <time>2021-09-04T14:36:30Z</time>
      </trkpt>
      <trkpt lat="42.640040" lon="0.424815">
        <ele>2905.000000</ele>
        <time>2021-09-04T14:37:57Z</time>
      </trkpt>
      <trkpt lat="42.640295" lon="0.424583">
        <ele>2906.000000</ele>
        <time>2021-09-04T14:38:26Z</time>
      </trkpt>
      <trkpt lat="42.640295" lon="0.424578">
        <ele>2906.000000</ele>
        <time>2021-09-04T14:38:27Z</time>
      </trkpt>
      <trkpt lat="42.640298" lon="0.424580">
        <ele>2906.000000</ele>
        <time>2021-09-04T14:38:28Z</time>
      </trkpt>
      <trkpt lat="42.640296" lon="0.424582">
        <ele>2906.000000</ele>
        <time>2021-09-04T14:38:29Z</time>
      </trkpt>
      <trkpt lat="42.640298" lon="0.424577">
        <ele>2906.000000</ele>
        <time>2021-09-04T14:38:30Z</time>
      </trkpt>
      <trkpt lat="42.640298" lon="0.424573">
        <ele>2905.000000</ele>
        <time>2021-09-04T14:38:31Z</time>
      </trkpt>
      <trkpt lat="42.640300" lon="0.424572">
        <ele>2905.000000</ele>
        <time>2021-09-04T14:38:32Z</time>
      </trkpt>
      <trkpt lat="42.640302" lon="0.424570">
        <ele>2905.000000</ele>
        <time>2021-09-04T14:38:33Z</time>
      </trkpt>
      <trkpt lat="42.640303" lon="0.424572">
        <ele>2905.000000</ele>
        <time>2021-09-04T14:38:35Z</time>
      </trkpt>
      <trkpt lat="42.640298" lon="0.424573">
        <ele>2905.000000</ele>
        <time>2021-09-04T14:38:36Z</time>
      </trkpt>
      <trkpt lat="42.640442" lon="0.424408">
        <ele>2911.000000</ele>
        <time>2021-09-04T14:40:39Z</time>
      </trkpt>
      <trkpt lat="42.640447" lon="0.424405">
        <ele>2911.000000</ele>
        <time>2021-09-04T14:40:40Z</time>
      </trkpt>
      <trkpt lat="42.640450" lon="0.424400">
        <ele>2911.000000</ele>
        <time>2021-09-04T14:40:41Z</time>
      </trkpt>
      <trkpt lat="42.640454" lon="0.424395">
        <ele>2911.000000</ele>
        <time>2021-09-04T14:40:42Z</time>
      </trkpt>
      <trkpt lat="42.640458" lon="0.424392">
        <ele>2911.000000</ele>
        <time>2021-09-04T14:40:43Z</time>
      </trkpt>
      <trkpt lat="42.640460" lon="0.424386">
        <ele>2911.000000</ele>
        <time>2021-09-04T14:40:44Z</time>
      </trkpt>
      <trkpt lat="42.640463" lon="0.424381">
        <ele>2911.000000</ele>
        <time>2021-09-04T14:40:45Z</time>
      </trkpt>
      <trkpt lat="42.640468" lon="0.424380">
        <ele>2911.000000</ele>
        <time>2021-09-04T14:40:47Z</time>
      </trkpt>
      <trkpt lat="42.640472" lon="0.424378">
        <ele>2911.000000</ele>
        <time>2021-09-04T14:40:48Z</time>
      </trkpt>
      <trkpt lat="42.640475" lon="0.424373">
        <ele>2911.000000</ele>
        <time>2021-09-04T14:40:49Z</time>
      </trkpt>
      <trkpt lat="42.640478" lon="0.424373">
        <ele>2911.000000</ele>
        <time>2021-09-04T14:40:50Z</time>
      </trkpt>
      <trkpt lat="42.640477" lon="0.424375">
        <ele>2911.000000</ele>
        <time>2021-09-04T14:40:52Z</time>
      </trkpt>
      <trkpt lat="42.640475" lon="0.424376">
        <ele>2911.000000</ele>
        <time>2021-09-04T14:40:53Z</time>
      </trkpt>
      <trkpt lat="42.640480" lon="0.424375">
        <ele>2911.000000</ele>
        <time>2021-09-04T14:40:54Z</time>
      </trkpt>
      <trkpt lat="42.640482" lon="0.424373">
        <ele>2911.000000</ele>
        <time>2021-09-04T14:40:55Z</time>
      </trkpt>
      <trkpt lat="42.640482" lon="0.424368">
        <ele>2911.000000</ele>
        <time>2021-09-04T14:40:56Z</time>
      </trkpt>
      <trkpt lat="42.640485" lon="0.424367">
        <ele>2911.000000</ele>
        <time>2021-09-04T14:40:57Z</time>
      </trkpt>
      <trkpt lat="42.640487" lon="0.424365">
        <ele>2911.000000</ele>
        <time>2021-09-04T14:40:59Z</time>
      </trkpt>
      <trkpt lat="42.640488" lon="0.424363">
        <ele>2911.000000</ele>
        <time>2021-09-04T14:40:59Z</time>
      </trkpt>
      <trkpt lat="42.640492" lon="0.424364">
        <ele>2911.000000</ele>
        <time>2021-09-04T14:41:00Z</time>
      </trkpt>
      <trkpt lat="42.640492" lon="0.424365">
        <ele>2915.000000</ele>
        <time>2021-09-04T14:41:01Z</time>
      </trkpt>
      <trkpt lat="42.640490" lon="0.424366">
        <ele>2915.000000</ele>
        <time>2021-09-04T14:41:02Z</time>
      </trkpt>
      <trkpt lat="42.640493" lon="0.424366">
        <ele>2915.000000</ele>
        <time>2021-09-04T14:41:04Z</time>
      </trkpt>
      <trkpt lat="42.640493" lon="0.424368">
        <ele>2915.000000</ele>
        <time>2021-09-04T14:41:06Z</time>
      </trkpt>
      <trkpt lat="42.640492" lon="0.424368">
        <ele>2915.000000</ele>
        <time>2021-09-04T14:41:07Z</time>
      </trkpt>
      <trkpt lat="42.640490" lon="0.424369">
        <ele>2915.000000</ele>
        <time>2021-09-04T14:41:08Z</time>
      </trkpt>
      <trkpt lat="42.640493" lon="0.424371">
        <ele>2916.000000</ele>
        <time>2021-09-04T14:41:11Z</time>
      </trkpt>
      <trkpt lat="42.640498" lon="0.424375">
        <ele>2916.000000</ele>
        <time>2021-09-04T14:41:12Z</time>
      </trkpt>
      <trkpt lat="42.640502" lon="0.424376">
        <ele>2918.000000</ele>
        <time>2021-09-04T14:41:14Z</time>
      </trkpt>
      <trkpt lat="42.640493" lon="0.424371">
        <ele>2919.000000</ele>
        <time>2021-09-04T14:41:16Z</time>
      </trkpt>
      <trkpt lat="42.640648" lon="0.424200">
        <ele>2923.000000</ele>
        <time>2021-09-04T14:42:45Z</time>
      </trkpt>
      <trkpt lat="42.640652" lon="0.424192">
        <ele>2924.000000</ele>
        <time>2021-09-04T14:42:46Z</time>
      </trkpt>
      <trkpt lat="42.640658" lon="0.424180">
        <ele>2924.000000</ele>
        <time>2021-09-04T14:42:47Z</time>
      </trkpt>
      <trkpt lat="42.640660" lon="0.424173">
        <ele>2924.000000</ele>
        <time>2021-09-04T14:42:48Z</time>
      </trkpt>
      <trkpt lat="42.640663" lon="0.424165">
        <ele>2924.000000</ele>
        <time>2021-09-04T14:42:49Z</time>
      </trkpt>
      <trkpt lat="42.640664" lon="0.424157">
        <ele>2924.000000</ele>
        <time>2021-09-04T14:42:50Z</time>
      </trkpt>
      <trkpt lat="42.640664" lon="0.424148">
        <ele>2924.000000</ele>
        <time>2021-09-04T14:42:51Z</time>
      </trkpt>
      <trkpt lat="42.640665" lon="0.424140">
        <ele>2925.000000</ele>
        <time>2021-09-04T14:42:52Z</time>
      </trkpt>
      <trkpt lat="42.640666" lon="0.424132">
        <ele>2925.000000</ele>
        <time>2021-09-04T14:42:53Z</time>
      </trkpt>
      <trkpt lat="42.640668" lon="0.424123">
        <ele>2925.000000</ele>
        <time>2021-09-04T14:42:54Z</time>
      </trkpt>
      <trkpt lat="42.640670" lon="0.424117">
        <ele>2925.000000</ele>
        <time>2021-09-04T14:42:55Z</time>
      </trkpt>
      <trkpt lat="42.640672" lon="0.424112">
        <ele>2925.000000</ele>
        <time>2021-09-04T14:42:56Z</time>
      </trkpt>
      <trkpt lat="42.640678" lon="0.424113">
        <ele>2925.000000</ele>
        <time>2021-09-04T14:42:57Z</time>
      </trkpt>
      <trkpt lat="42.640683" lon="0.424113">
        <ele>2926.000000</ele>
        <time>2021-09-04T14:42:58Z</time>
      </trkpt>
      <trkpt lat="42.640685" lon="0.424112">
        <ele>2926.000000</ele>
        <time>2021-09-04T14:42:59Z</time>
      </trkpt>
      <trkpt lat="42.640683" lon="0.424110">
        <ele>2926.000000</ele>
        <time>2021-09-04T14:43:00Z</time>
      </trkpt>
      <trkpt lat="42.640682" lon="0.424114">
        <ele>2926.000000</ele>
        <time>2021-09-04T14:43:04Z</time>
      </trkpt>
      <trkpt lat="42.640680" lon="0.424114">
        <ele>2926.000000</ele>
        <time>2021-09-04T14:43:05Z</time>
      </trkpt>
      <trkpt lat="42.640678" lon="0.424112">
        <ele>2926.000000</ele>
        <time>2021-09-04T14:43:06Z</time>
      </trkpt>
      <trkpt lat="42.640677" lon="0.424110">
        <ele>2927.000000</ele>
        <time>2021-09-04T14:43:07Z</time>
      </trkpt>
      <trkpt lat="42.640677" lon="0.424108">
        <ele>2927.000000</ele>
        <time>2021-09-04T14:43:08Z</time>
      </trkpt>
      <trkpt lat="42.640678" lon="0.424108">
        <ele>2927.000000</ele>
        <time>2021-09-04T14:43:09Z</time>
      </trkpt>
      <trkpt lat="42.640682" lon="0.424108">
        <ele>2927.000000</ele>
        <time>2021-09-04T14:43:10Z</time>
      </trkpt>
      <trkpt lat="42.640688" lon="0.424099">
        <ele>2927.000000</ele>
        <time>2021-09-04T14:43:11Z</time>
      </trkpt>
      <trkpt lat="42.640697" lon="0.424082">
        <ele>2927.000000</ele>
        <time>2021-09-04T14:43:12Z</time>
      </trkpt>
      <trkpt lat="42.640705" lon="0.424071">
        <ele>2927.000000</ele>
        <time>2021-09-04T14:43:13Z</time>
      </trkpt>
      <trkpt lat="42.640717" lon="0.424062">
        <ele>2927.000000</ele>
        <time>2021-09-04T14:43:14Z</time>
      </trkpt>
      <trkpt lat="42.640723" lon="0.424061">
        <ele>2927.000000</ele>
        <time>2021-09-04T14:43:15Z</time>
      </trkpt>
      <trkpt lat="42.640728" lon="0.424059">
        <ele>2928.000000</ele>
        <time>2021-09-04T14:43:16Z</time>
      </trkpt>
      <trkpt lat="42.640730" lon="0.424059">
        <ele>2928.000000</ele>
        <time>2021-09-04T14:43:17Z</time>
      </trkpt>
      <trkpt lat="42.640735" lon="0.424055">
        <ele>2928.000000</ele>
        <time>2021-09-04T14:43:18Z</time>
      </trkpt>
      <trkpt lat="42.640743" lon="0.424049">
        <ele>2928.000000</ele>
        <time>2021-09-04T14:43:19Z</time>
      </trkpt>
      <trkpt lat="42.640747" lon="0.424046">
        <ele>2928.000000</ele>
        <time>2021-09-04T14:43:20Z</time>
      </trkpt>
      <trkpt lat="42.640752" lon="0.424042">
        <ele>2928.000000</ele>
        <time>2021-09-04T14:43:21Z</time>
      </trkpt>
      <trkpt lat="42.640757" lon="0.424038">
        <ele>2928.000000</ele>
        <time>2021-09-04T14:43:22Z</time>
      </trkpt>
      <trkpt lat="42.640763" lon="0.424033">
        <ele>2928.000000</ele>
        <time>2021-09-04T14:43:23Z</time>
      </trkpt>
      <trkpt lat="42.640765" lon="0.424032">
        <ele>2928.000000</ele>
        <time>2021-09-04T14:43:24Z</time>
      </trkpt>
      <trkpt lat="42.640765" lon="0.424022">
        <ele>2928.000000</ele>
        <time>2021-09-04T14:43:25Z</time>
      </trkpt>
      <trkpt lat="42.640768" lon="0.424015">
        <ele>2928.000000</ele>
        <time>2021-09-04T14:43:26Z</time>
      </trkpt>
      <trkpt lat="42.640770" lon="0.424010">
        <ele>2928.000000</ele>
        <time>2021-09-04T14:43:27Z</time>
      </trkpt>
      <trkpt lat="42.640773" lon="0.424002">
        <ele>2928.000000</ele>
        <time>2021-09-04T14:43:28Z</time>
      </trkpt>
      <trkpt lat="42.640777" lon="0.423992">
        <ele>2928.000000</ele>
        <time>2021-09-04T14:43:29Z</time>
      </trkpt>
      <trkpt lat="42.640781" lon="0.423983">
        <ele>2928.000000</ele>
        <time>2021-09-04T14:43:30Z</time>
      </trkpt>
      <trkpt lat="42.640786" lon="0.423978">
        <ele>2928.000000</ele>
        <time>2021-09-04T14:43:31Z</time>
      </trkpt>
      <trkpt lat="42.640792" lon="0.423975">
        <ele>2928.000000</ele>
        <time>2021-09-04T14:43:32Z</time>
      </trkpt>
      <trkpt lat="42.640793" lon="0.423973">
        <ele>2928.000000</ele>
        <time>2021-09-04T14:43:33Z</time>
      </trkpt>
      <trkpt lat="42.640795" lon="0.423970">
        <ele>2928.000000</ele>
        <time>2021-09-04T14:43:34Z</time>
      </trkpt>
      <trkpt lat="42.640793" lon="0.423967">
        <ele>2928.000000</ele>
        <time>2021-09-04T14:43:35Z</time>
      </trkpt>
      <trkpt lat="42.640795" lon="0.423972">
        <ele>2928.000000</ele>
        <time>2021-09-04T14:43:39Z</time>
      </trkpt>
      <trkpt lat="42.640800" lon="0.423968">
        <ele>2928.000000</ele>
        <time>2021-09-04T14:43:40Z</time>
      </trkpt>
      <trkpt lat="42.640805" lon="0.423964">
        <ele>2928.000000</ele>
        <time>2021-09-04T14:43:41Z</time>
      </trkpt>
      <trkpt lat="42.640805" lon="0.423960">
        <ele>2928.000000</ele>
        <time>2021-09-04T14:43:42Z</time>
      </trkpt>
      <trkpt lat="42.640810" lon="0.423955">
        <ele>2929.000000</ele>
        <time>2021-09-04T14:43:43Z</time>
      </trkpt>
      <trkpt lat="42.640810" lon="0.423947">
        <ele>2929.000000</ele>
        <time>2021-09-04T14:43:44Z</time>
      </trkpt>
      <trkpt lat="42.640810" lon="0.423942">
        <ele>2929.000000</ele>
        <time>2021-09-04T14:43:45Z</time>
      </trkpt>
      <trkpt lat="42.640809" lon="0.423933">
        <ele>2929.000000</ele>
        <time>2021-09-04T14:43:46Z</time>
      </trkpt>
      <trkpt lat="42.640807" lon="0.423930">
        <ele>2929.000000</ele>
        <time>2021-09-04T14:43:47Z</time>
      </trkpt>
      <trkpt lat="42.640808" lon="0.423932">
        <ele>2930.000000</ele>
        <time>2021-09-04T14:43:48Z</time>
      </trkpt>
      <trkpt lat="42.640807" lon="0.423933">
        <ele>2930.000000</ele>
        <time>2021-09-04T14:43:49Z</time>
      </trkpt>
      <trkpt lat="42.640808" lon="0.423942">
        <ele>2930.000000</ele>
        <time>2021-09-04T14:43:50Z</time>
      </trkpt>
      <trkpt lat="42.640908" lon="0.423942">
        <ele>2925.000000</ele>
        <time>2021-09-04T14:44:53Z</time>
      </trkpt>
      <trkpt lat="42.640918" lon="0.423942">
        <ele>2925.000000</ele>
        <time>2021-09-04T14:44:54Z</time>
      </trkpt>
      <trkpt lat="42.640930" lon="0.423943">
        <ele>2925.000000</ele>
        <time>2021-09-04T14:44:55Z</time>
      </trkpt>
      <trkpt lat="42.640938" lon="0.423944">
        <ele>2925.000000</ele>
        <time>2021-09-04T14:44:56Z</time>
      </trkpt>
      <trkpt lat="42.640950" lon="0.423946">
        <ele>2925.000000</ele>
        <time>2021-09-04T14:44:57Z</time>
      </trkpt>
      <trkpt lat="42.640958" lon="0.423945">
        <ele>2925.000000</ele>
        <time>2021-09-04T14:44:58Z</time>
      </trkpt>
      <trkpt lat="42.640972" lon="0.423942">
        <ele>2925.000000</ele>
        <time>2021-09-04T14:44:59Z</time>
      </trkpt>
      <trkpt lat="42.640985" lon="0.423933">
        <ele>2925.000000</ele>
        <time>2021-09-04T14:45:00Z</time>
      </trkpt>
      <trkpt lat="42.640995" lon="0.423937">
        <ele>2925.000000</ele>
        <time>2021-09-04T14:45:01Z</time>
      </trkpt>
      <trkpt lat="42.641005" lon="0.423944">
        <ele>2925.000000</ele>
        <time>2021-09-04T14:45:02Z</time>
      </trkpt>
      <trkpt lat="42.641013" lon="0.423952">
        <ele>2925.000000</ele>
        <time>2021-09-04T14:45:03Z</time>
      </trkpt>
      <trkpt lat="42.641028" lon="0.423967">
        <ele>2925.000000</ele>
        <time>2021-09-04T14:45:04Z</time>
      </trkpt>
      <trkpt lat="42.641040" lon="0.423973">
        <ele>2925.000000</ele>
        <time>2021-09-04T14:45:05Z</time>
      </trkpt>
      <trkpt lat="42.641052" lon="0.423978">
        <ele>2925.000000</ele>
        <time>2021-09-04T14:45:06Z</time>
      </trkpt>
      <trkpt lat="42.641060" lon="0.423979">
        <ele>2925.000000</ele>
        <time>2021-09-04T14:45:07Z</time>
      </trkpt>
      <trkpt lat="42.641075" lon="0.423983">
        <ele>2925.000000</ele>
        <time>2021-09-04T14:45:08Z</time>
      </trkpt>
      <trkpt lat="42.641083" lon="0.423984">
        <ele>2925.000000</ele>
        <time>2021-09-04T14:45:09Z</time>
      </trkpt>
      <trkpt lat="42.641093" lon="0.423984">
        <ele>2925.000000</ele>
        <time>2021-09-04T14:45:10Z</time>
      </trkpt>
      <trkpt lat="42.641103" lon="0.423985">
        <ele>2925.000000</ele>
        <time>2021-09-04T14:45:11Z</time>
      </trkpt>
      <trkpt lat="42.641110" lon="0.423986">
        <ele>2925.000000</ele>
        <time>2021-09-04T14:45:12Z</time>
      </trkpt>
      <trkpt lat="42.641120" lon="0.423987">
        <ele>2925.000000</ele>
        <time>2021-09-04T14:45:13Z</time>
      </trkpt>
      <trkpt lat="42.641128" lon="0.423987">
        <ele>2925.000000</ele>
        <time>2021-09-04T14:45:14Z</time>
      </trkpt>
      <trkpt lat="42.641138" lon="0.423987">
        <ele>2925.000000</ele>
        <time>2021-09-04T14:45:15Z</time>
      </trkpt>
      <trkpt lat="42.641147" lon="0.423986">
        <ele>2925.000000</ele>
        <time>2021-09-04T14:45:16Z</time>
      </trkpt>
      <trkpt lat="42.641158" lon="0.423986">
        <ele>2925.000000</ele>
        <time>2021-09-04T14:45:17Z</time>
      </trkpt>
      <trkpt lat="42.641168" lon="0.423986">
        <ele>2925.000000</ele>
        <time>2021-09-04T14:45:18Z</time>
      </trkpt>
      <trkpt lat="42.641175" lon="0.423983">
        <ele>2925.000000</ele>
        <time>2021-09-04T14:45:19Z</time>
      </trkpt>
      <trkpt lat="42.641180" lon="0.423980">
        <ele>2925.000000</ele>
        <time>2021-09-04T14:45:20Z</time>
      </trkpt>
      <trkpt lat="42.641187" lon="0.423955">
        <ele>2925.000000</ele>
        <time>2021-09-04T14:45:21Z</time>
      </trkpt>
      <trkpt lat="42.641197" lon="0.423955">
        <ele>2925.000000</ele>
        <time>2021-09-04T14:45:22Z</time>
      </trkpt>
      <trkpt lat="42.641208" lon="0.423952">
        <ele>2925.000000</ele>
        <time>2021-09-04T14:45:23Z</time>
      </trkpt>
      <trkpt lat="42.641218" lon="0.423951">
        <ele>2923.000000</ele>
        <time>2021-09-04T14:45:24Z</time>
      </trkpt>
      <trkpt lat="42.641228" lon="0.423951">
        <ele>2923.000000</ele>
        <time>2021-09-04T14:45:25Z</time>
      </trkpt>
      <trkpt lat="42.641240" lon="0.423950">
        <ele>2923.000000</ele>
        <time>2021-09-04T14:45:26Z</time>
      </trkpt>
      <trkpt lat="42.641247" lon="0.423952">
        <ele>2922.000000</ele>
        <time>2021-09-04T14:45:27Z</time>
      </trkpt>
      <trkpt lat="42.641253" lon="0.423963">
        <ele>2922.000000</ele>
        <time>2021-09-04T14:45:28Z</time>
      </trkpt>
      <trkpt lat="42.641258" lon="0.423968">
        <ele>2922.000000</ele>
        <time>2021-09-04T14:45:29Z</time>
      </trkpt>
      <trkpt lat="42.641267" lon="0.423966">
        <ele>2922.000000</ele>
        <time>2021-09-04T14:45:30Z</time>
      </trkpt>
      <trkpt lat="42.641273" lon="0.423969">
        <ele>2922.000000</ele>
        <time>2021-09-04T14:45:31Z</time>
      </trkpt>
      <trkpt lat="42.641277" lon="0.423973">
        <ele>2922.000000</ele>
        <time>2021-09-04T14:45:32Z</time>
      </trkpt>
      <trkpt lat="42.641280" lon="0.423976">
        <ele>2922.000000</ele>
        <time>2021-09-04T14:45:33Z</time>
      </trkpt>
      <trkpt lat="42.641287" lon="0.423978">
        <ele>2922.000000</ele>
        <time>2021-09-04T14:45:34Z</time>
      </trkpt>
      <trkpt lat="42.641295" lon="0.423977">
        <ele>2921.000000</ele>
        <time>2021-09-04T14:45:35Z</time>
      </trkpt>
      <trkpt lat="42.641303" lon="0.423977">
        <ele>2921.000000</ele>
        <time>2021-09-04T14:45:36Z</time>
      </trkpt>
      <trkpt lat="42.641310" lon="0.423978">
        <ele>2921.000000</ele>
        <time>2021-09-04T14:45:37Z</time>
      </trkpt>
      <trkpt lat="42.641320" lon="0.423981">
        <ele>2921.000000</ele>
        <time>2021-09-04T14:45:38Z</time>
      </trkpt>
      <trkpt lat="42.641325" lon="0.423980">
        <ele>2921.000000</ele>
        <time>2021-09-04T14:45:39Z</time>
      </trkpt>
      <trkpt lat="42.641332" lon="0.423979">
        <ele>2921.000000</ele>
        <time>2021-09-04T14:45:40Z</time>
      </trkpt>
      <trkpt lat="42.641342" lon="0.423980">
        <ele>2921.000000</ele>
        <time>2021-09-04T14:45:41Z</time>
      </trkpt>
      <trkpt lat="42.641350" lon="0.423982">
        <ele>2921.000000</ele>
        <time>2021-09-04T14:45:42Z</time>
      </trkpt>
      <trkpt lat="42.641360" lon="0.423985">
        <ele>2921.000000</ele>
        <time>2021-09-04T14:45:43Z</time>
      </trkpt>
      <trkpt lat="42.641370" lon="0.423997">
        <ele>2921.000000</ele>
        <time>2021-09-04T14:45:44Z</time>
      </trkpt>
      <trkpt lat="42.641382" lon="0.424007">
        <ele>2921.000000</ele>
        <time>2021-09-04T14:45:45Z</time>
      </trkpt>
      <trkpt lat="42.641387" lon="0.424018">
        <ele>2921.000000</ele>
        <time>2021-09-04T14:45:46Z</time>
      </trkpt>
      <trkpt lat="42.641392" lon="0.424025">
        <ele>2920.000000</ele>
        <time>2021-09-04T14:45:47Z</time>
      </trkpt>
      <trkpt lat="42.641398" lon="0.424032">
        <ele>2920.000000</ele>
        <time>2021-09-04T14:45:48Z</time>
      </trkpt>
      <trkpt lat="42.641402" lon="0.424042">
        <ele>2920.000000</ele>
        <time>2021-09-04T14:45:49Z</time>
      </trkpt>
      <trkpt lat="42.641403" lon="0.424057">
        <ele>2920.000000</ele>
        <time>2021-09-04T14:45:50Z</time>
      </trkpt>
      <trkpt lat="42.641405" lon="0.424070">
        <ele>2919.000000</ele>
        <time>2021-09-04T14:45:51Z</time>
      </trkpt>
      <trkpt lat="42.641408" lon="0.424083">
        <ele>2919.000000</ele>
        <time>2021-09-04T14:45:52Z</time>
      </trkpt>
      <trkpt lat="42.641413" lon="0.424088">
        <ele>2919.000000</ele>
        <time>2021-09-04T14:45:53Z</time>
      </trkpt>
      <trkpt lat="42.641414" lon="0.424087">
        <ele>2918.000000</ele>
        <time>2021-09-04T14:45:54Z</time>
      </trkpt>
      <trkpt lat="42.641425" lon="0.424092">
        <ele>2918.000000</ele>
        <time>2021-09-04T14:45:55Z</time>
      </trkpt>
      <trkpt lat="42.641435" lon="0.424092">
        <ele>2918.000000</ele>
        <time>2021-09-04T14:45:56Z</time>
      </trkpt>
      <trkpt lat="42.641442" lon="0.424095">
        <ele>2917.000000</ele>
        <time>2021-09-04T14:45:57Z</time>
      </trkpt>
      <trkpt lat="42.641445" lon="0.424095">
        <ele>2917.000000</ele>
        <time>2021-09-04T14:45:58Z</time>
      </trkpt>
      <trkpt lat="42.641447" lon="0.424094">
        <ele>2917.000000</ele>
        <time>2021-09-04T14:45:59Z</time>
      </trkpt>
      <trkpt lat="42.641452" lon="0.424092">
        <ele>2916.000000</ele>
        <time>2021-09-04T14:46:00Z</time>
      </trkpt>
      <trkpt lat="42.641455" lon="0.424082">
        <ele>2916.000000</ele>
        <time>2021-09-04T14:46:01Z</time>
      </trkpt>
      <trkpt lat="42.641463" lon="0.424073">
        <ele>2915.000000</ele>
        <time>2021-09-04T14:46:02Z</time>
      </trkpt>
      <trkpt lat="42.641477" lon="0.424067">
        <ele>2915.000000</ele>
        <time>2021-09-04T14:46:03Z</time>
      </trkpt>
      <trkpt lat="42.641483" lon="0.424061">
        <ele>2914.000000</ele>
        <time>2021-09-04T14:46:04Z</time>
      </trkpt>
      <trkpt lat="42.641492" lon="0.424056">
        <ele>2914.000000</ele>
        <time>2021-09-04T14:46:05Z</time>
      </trkpt>
      <trkpt lat="42.641502" lon="0.424052">
        <ele>2913.000000</ele>
        <time>2021-09-04T14:46:06Z</time>
      </trkpt>
      <trkpt lat="42.641512" lon="0.424051">
        <ele>2913.000000</ele>
        <time>2021-09-04T14:46:07Z</time>
      </trkpt>
      <trkpt lat="42.641523" lon="0.424057">
        <ele>2913.000000</ele>
        <time>2021-09-04T14:46:08Z</time>
      </trkpt>
      <trkpt lat="42.641540" lon="0.424062">
        <ele>2912.000000</ele>
        <time>2021-09-04T14:46:09Z</time>
      </trkpt>
      <trkpt lat="42.641557" lon="0.424072">
        <ele>2912.000000</ele>
        <time>2021-09-04T14:46:10Z</time>
      </trkpt>
      <trkpt lat="42.641572" lon="0.424077">
        <ele>2912.000000</ele>
        <time>2021-09-04T14:46:11Z</time>
      </trkpt>
      <trkpt lat="42.641582" lon="0.424077">
        <ele>2912.000000</ele>
        <time>2021-09-04T14:46:12Z</time>
      </trkpt>
      <trkpt lat="42.641590" lon="0.424075">
        <ele>2912.000000</ele>
        <time>2021-09-04T14:46:13Z</time>
      </trkpt>
      <trkpt lat="42.641600" lon="0.424077">
        <ele>2912.000000</ele>
        <time>2021-09-04T14:46:14Z</time>
      </trkpt>
      <trkpt lat="42.641608" lon="0.424083">
        <ele>2912.000000</ele>
        <time>2021-09-04T14:46:15Z</time>
      </trkpt>
      <trkpt lat="42.641617" lon="0.424089">
        <ele>2912.000000</ele>
        <time>2021-09-04T14:46:16Z</time>
      </trkpt>
      <trkpt lat="42.641627" lon="0.424094">
        <ele>2912.000000</ele>
        <time>2021-09-04T14:46:17Z</time>
      </trkpt>
      <trkpt lat="42.641640" lon="0.424099">
        <ele>2912.000000</ele>
        <time>2021-09-04T14:46:18Z</time>
      </trkpt>
      <trkpt lat="42.641657" lon="0.424103">
        <ele>2912.000000</ele>
        <time>2021-09-04T14:46:19Z</time>
      </trkpt>
      <trkpt lat="42.641673" lon="0.424108">
        <ele>2912.000000</ele>
        <time>2021-09-04T14:46:20Z</time>
      </trkpt>
      <trkpt lat="42.641687" lon="0.424109">
        <ele>2912.000000</ele>
        <time>2021-09-04T14:46:21Z</time>
      </trkpt>
      <trkpt lat="42.641698" lon="0.424109">
        <ele>2912.000000</ele>
        <time>2021-09-04T14:46:22Z</time>
      </trkpt>
      <trkpt lat="42.641712" lon="0.424111">
        <ele>2912.000000</ele>
        <time>2021-09-04T14:46:23Z</time>
      </trkpt>
      <trkpt lat="42.641727" lon="0.424115">
        <ele>2912.000000</ele>
        <time>2021-09-04T14:46:24Z</time>
      </trkpt>
      <trkpt lat="42.641742" lon="0.424119">
        <ele>2912.000000</ele>
        <time>2021-09-04T14:46:25Z</time>
      </trkpt>
      <trkpt lat="42.641755" lon="0.424121">
        <ele>2912.000000</ele>
        <time>2021-09-04T14:46:26Z</time>
      </trkpt>
      <trkpt lat="42.641770" lon="0.424124">
        <ele>2912.000000</ele>
        <time>2021-09-04T14:46:27Z</time>
      </trkpt>
      <trkpt lat="42.641783" lon="0.424126">
        <ele>2912.000000</ele>
        <time>2021-09-04T14:46:28Z</time>
      </trkpt>
      <trkpt lat="42.641797" lon="0.424129">
        <ele>2912.000000</ele>
        <time>2021-09-04T14:46:29Z</time>
      </trkpt>
      <trkpt lat="42.641808" lon="0.424132">
        <ele>2912.000000</ele>
        <time>2021-09-04T14:46:30Z</time>
      </trkpt>
      <trkpt lat="42.641813" lon="0.424133">
        <ele>2912.000000</ele>
        <time>2021-09-04T14:46:31Z</time>
      </trkpt>
      <trkpt lat="42.641818" lon="0.424134">
        <ele>2912.000000</ele>
        <time>2021-09-04T14:46:32Z</time>
      </trkpt>
      <trkpt lat="42.641823" lon="0.424133">
        <ele>2912.000000</ele>
        <time>2021-09-04T14:46:33Z</time>
      </trkpt>
      <trkpt lat="42.641835" lon="0.424134">
        <ele>2912.000000</ele>
        <time>2021-09-04T14:46:34Z</time>
      </trkpt>
      <trkpt lat="42.641845" lon="0.424135">
        <ele>2912.000000</ele>
        <time>2021-09-04T14:46:35Z</time>
      </trkpt>
      <trkpt lat="42.641855" lon="0.424136">
        <ele>2912.000000</ele>
        <time>2021-09-04T14:46:36Z</time>
      </trkpt>
      <trkpt lat="42.641863" lon="0.424136">
        <ele>2912.000000</ele>
        <time>2021-09-04T14:46:37Z</time>
      </trkpt>
      <trkpt lat="42.641873" lon="0.424137">
        <ele>2912.000000</ele>
        <time>2021-09-04T14:46:38Z</time>
      </trkpt>
      <trkpt lat="42.641885" lon="0.424138">
        <ele>2912.000000</ele>
        <time>2021-09-04T14:46:39Z</time>
      </trkpt>
      <trkpt lat="42.641893" lon="0.424139">
        <ele>2914.000000</ele>
        <time>2021-09-04T14:46:40Z</time>
      </trkpt>
      <trkpt lat="42.641900" lon="0.424139">
        <ele>2914.000000</ele>
        <time>2021-09-04T14:46:41Z</time>
      </trkpt>
      <trkpt lat="42.641905" lon="0.424139">
        <ele>2914.000000</ele>
        <time>2021-09-04T14:46:42Z</time>
      </trkpt>
      <trkpt lat="42.641910" lon="0.424139">
        <ele>2914.000000</ele>
        <time>2021-09-04T14:46:43Z</time>
      </trkpt>
      <trkpt lat="42.641915" lon="0.424139">
        <ele>2914.000000</ele>
        <time>2021-09-04T14:46:44Z</time>
      </trkpt>
      <trkpt lat="42.641917" lon="0.424139">
        <ele>2914.000000</ele>
        <time>2021-09-04T14:46:45Z</time>
      </trkpt>
      <trkpt lat="42.641922" lon="0.424140">
        <ele>2914.000000</ele>
        <time>2021-09-04T14:46:46Z</time>
      </trkpt>
      <trkpt lat="42.641928" lon="0.424140">
        <ele>2914.000000</ele>
        <time>2021-09-04T14:46:47Z</time>
      </trkpt>
      <trkpt lat="42.641938" lon="0.424142">
        <ele>2914.000000</ele>
        <time>2021-09-04T14:46:48Z</time>
      </trkpt>
      <trkpt lat="42.641945" lon="0.424142">
        <ele>2915.000000</ele>
        <time>2021-09-04T14:46:49Z</time>
      </trkpt>
      <trkpt lat="42.641957" lon="0.424144">
        <ele>2915.000000</ele>
        <time>2021-09-04T14:46:50Z</time>
      </trkpt>
      <trkpt lat="42.641965" lon="0.424145">
        <ele>2915.000000</ele>
        <time>2021-09-04T14:46:51Z</time>
      </trkpt>
      <trkpt lat="42.641973" lon="0.424146">
        <ele>2915.000000</ele>
        <time>2021-09-04T14:46:52Z</time>
      </trkpt>
      <trkpt lat="42.641982" lon="0.424148">
        <ele>2916.000000</ele>
        <time>2021-09-04T14:46:53Z</time>
      </trkpt>
      <trkpt lat="42.641990" lon="0.424150">
        <ele>2916.000000</ele>
        <time>2021-09-04T14:46:54Z</time>
      </trkpt>
      <trkpt lat="42.641997" lon="0.424152">
        <ele>2916.000000</ele>
        <time>2021-09-04T14:46:55Z</time>
      </trkpt>
      <trkpt lat="42.642007" lon="0.424154">
        <ele>2916.000000</ele>
        <time>2021-09-04T14:46:56Z</time>
      </trkpt>
      <trkpt lat="42.642013" lon="0.424156">
        <ele>2916.000000</ele>
        <time>2021-09-04T14:46:57Z</time>
      </trkpt>
      <trkpt lat="42.642018" lon="0.424158">
        <ele>2916.000000</ele>
        <time>2021-09-04T14:46:58Z</time>
      </trkpt>
      <trkpt lat="42.642023" lon="0.424160">
        <ele>2916.000000</ele>
        <time>2021-09-04T14:46:59Z</time>
      </trkpt>
      <trkpt lat="42.642030" lon="0.424162">
        <ele>2916.000000</ele>
        <time>2021-09-04T14:47:00Z</time>
      </trkpt>
      <trkpt lat="42.642037" lon="0.424165">
        <ele>2916.000000</ele>
        <time>2021-09-04T14:47:01Z</time>
      </trkpt>
      <trkpt lat="42.642045" lon="0.424168">
        <ele>2916.000000</ele>
        <time>2021-09-04T14:47:02Z</time>
      </trkpt>
      <trkpt lat="42.642050" lon="0.424170">
        <ele>2916.000000</ele>
        <time>2021-09-04T14:47:03Z</time>
      </trkpt>
      <trkpt lat="42.642057" lon="0.424172">
        <ele>2916.000000</ele>
        <time>2021-09-04T14:47:04Z</time>
      </trkpt>
      <trkpt lat="42.642070" lon="0.424176">
        <ele>2917.000000</ele>
        <time>2021-09-04T14:47:05Z</time>
      </trkpt>
      <trkpt lat="42.642080" lon="0.424179">
        <ele>2917.000000</ele>
        <time>2021-09-04T14:47:06Z</time>
      </trkpt>
      <trkpt lat="42.642087" lon="0.424182">
        <ele>2917.000000</ele>
        <time>2021-09-04T14:47:07Z</time>
      </trkpt>
      <trkpt lat="42.642093" lon="0.424184">
        <ele>2917.000000</ele>
        <time>2021-09-04T14:47:08Z</time>
      </trkpt>
      <trkpt lat="42.642103" lon="0.424188">
        <ele>2917.000000</ele>
        <time>2021-09-04T14:47:09Z</time>
      </trkpt>
      <trkpt lat="42.642113" lon="0.424192">
        <ele>2917.000000</ele>
        <time>2021-09-04T14:47:10Z</time>
      </trkpt>
      <trkpt lat="42.642120" lon="0.424195">
        <ele>2918.000000</ele>
        <time>2021-09-04T14:47:11Z</time>
      </trkpt>
      <trkpt lat="42.642127" lon="0.424198">
        <ele>2918.000000</ele>
        <time>2021-09-04T14:47:12Z</time>
      </trkpt>
      <trkpt lat="42.642133" lon="0.424202">
        <ele>2918.000000</ele>
        <time>2021-09-04T14:47:13Z</time>
      </trkpt>
      <trkpt lat="42.642138" lon="0.424205">
        <ele>2918.000000</ele>
        <time>2021-09-04T14:47:14Z</time>
      </trkpt>
      <trkpt lat="42.642143" lon="0.424208">
        <ele>2919.000000</ele>
        <time>2021-09-04T14:47:15Z</time>
      </trkpt>
      <trkpt lat="42.642148" lon="0.424211">
        <ele>2919.000000</ele>
        <time>2021-09-04T14:47:16Z</time>
      </trkpt>
      <trkpt lat="42.642153" lon="0.424212">
        <ele>2919.000000</ele>
        <time>2021-09-04T14:47:17Z</time>
      </trkpt>
      <trkpt lat="42.642160" lon="0.424203">
        <ele>2919.000000</ele>
        <time>2021-09-04T14:47:18Z</time>
      </trkpt>
      <trkpt lat="42.642167" lon="0.424198">
        <ele>2919.000000</ele>
        <time>2021-09-04T14:47:19Z</time>
      </trkpt>
      <trkpt lat="42.642172" lon="0.424198">
        <ele>2919.000000</ele>
        <time>2021-09-04T14:47:20Z</time>
      </trkpt>
      <trkpt lat="42.642177" lon="0.424199">
        <ele>2919.000000</ele>
        <time>2021-09-04T14:47:21Z</time>
      </trkpt>
      <trkpt lat="42.642180" lon="0.424201">
        <ele>2919.000000</ele>
        <time>2021-09-04T14:47:22Z</time>
      </trkpt>
      <trkpt lat="42.642185" lon="0.424203">
        <ele>2919.000000</ele>
        <time>2021-09-04T14:47:23Z</time>
      </trkpt>
      <trkpt lat="42.642193" lon="0.424208">
        <ele>2919.000000</ele>
        <time>2021-09-04T14:47:24Z</time>
      </trkpt>
      <trkpt lat="42.642198" lon="0.424212">
        <ele>2919.000000</ele>
        <time>2021-09-04T14:47:25Z</time>
      </trkpt>
      <trkpt lat="42.642202" lon="0.424213">
        <ele>2919.000000</ele>
        <time>2021-09-04T14:47:26Z</time>
      </trkpt>
      <trkpt lat="42.642202" lon="0.424215">
        <ele>2919.000000</ele>
        <time>2021-09-04T14:47:27Z</time>
      </trkpt>
      <trkpt lat="42.642203" lon="0.424216">
        <ele>2919.000000</ele>
        <time>2021-09-04T14:47:30Z</time>
      </trkpt>
      <trkpt lat="42.642205" lon="0.424216">
        <ele>2919.000000</ele>
        <time>2021-09-04T14:47:31Z</time>
      </trkpt>
      <trkpt lat="42.642210" lon="0.424219">
        <ele>2919.000000</ele>
        <time>2021-09-04T14:47:32Z</time>
      </trkpt>
      <trkpt lat="42.642213" lon="0.424221">
        <ele>2919.000000</ele>
        <time>2021-09-04T14:47:33Z</time>
      </trkpt>
      <trkpt lat="42.642217" lon="0.424224">
        <ele>2919.000000</ele>
        <time>2021-09-04T14:47:34Z</time>
      </trkpt>
      <trkpt lat="42.642222" lon="0.424226">
        <ele>2919.000000</ele>
        <time>2021-09-04T14:47:35Z</time>
      </trkpt>
      <trkpt lat="42.642228" lon="0.424229">
        <ele>2919.000000</ele>
        <time>2021-09-04T14:47:36Z</time>
      </trkpt>
      <trkpt lat="42.642232" lon="0.424229">
        <ele>2919.000000</ele>
        <time>2021-09-04T14:47:37Z</time>
      </trkpt>
      <trkpt lat="42.642235" lon="0.424230">
        <ele>2919.000000</ele>
        <time>2021-09-04T14:47:38Z</time>
      </trkpt>
      <trkpt lat="42.642238" lon="0.424230">
        <ele>2919.000000</ele>
        <time>2021-09-04T14:47:39Z</time>
      </trkpt>
      <trkpt lat="42.642247" lon="0.424230">
        <ele>2919.000000</ele>
        <time>2021-09-04T14:47:40Z</time>
      </trkpt>
      <trkpt lat="42.642250" lon="0.424230">
        <ele>2919.000000</ele>
        <time>2021-09-04T14:47:41Z</time>
      </trkpt>
      <trkpt lat="42.642255" lon="0.424230">
        <ele>2919.000000</ele>
        <time>2021-09-04T14:47:42Z</time>
      </trkpt>
      <trkpt lat="42.642260" lon="0.424232">
        <ele>2919.000000</ele>
        <time>2021-09-04T14:47:43Z</time>
      </trkpt>
      <trkpt lat="42.642265" lon="0.424237">
        <ele>2919.000000</ele>
        <time>2021-09-04T14:47:44Z</time>
      </trkpt>
      <trkpt lat="42.642267" lon="0.424240">
        <ele>2919.000000</ele>
        <time>2021-09-04T14:47:45Z</time>
      </trkpt>
      <trkpt lat="42.642268" lon="0.424238">
        <ele>2919.000000</ele>
        <time>2021-09-04T14:47:46Z</time>
      </trkpt>
      <trkpt lat="42.642270" lon="0.424239">
        <ele>2919.000000</ele>
        <time>2021-09-04T14:47:47Z</time>
      </trkpt>
      <trkpt lat="42.642273" lon="0.424240">
        <ele>2919.000000</ele>
        <time>2021-09-04T14:47:48Z</time>
      </trkpt>
      <trkpt lat="42.642277" lon="0.424238">
        <ele>2919.000000</ele>
        <time>2021-09-04T14:47:49Z</time>
      </trkpt>
      <trkpt lat="42.642283" lon="0.424235">
        <ele>2919.000000</ele>
        <time>2021-09-04T14:47:50Z</time>
      </trkpt>
      <trkpt lat="42.642290" lon="0.424232">
        <ele>2919.000000</ele>
        <time>2021-09-04T14:47:51Z</time>
      </trkpt>
      <trkpt lat="42.642298" lon="0.424235">
        <ele>2919.000000</ele>
        <time>2021-09-04T14:47:52Z</time>
      </trkpt>
      <trkpt lat="42.642303" lon="0.424237">
        <ele>2919.000000</ele>
        <time>2021-09-04T14:47:53Z</time>
      </trkpt>
      <trkpt lat="42.642308" lon="0.424242">
        <ele>2919.000000</ele>
        <time>2021-09-04T14:47:54Z</time>
      </trkpt>
      <trkpt lat="42.642312" lon="0.424246">
        <ele>2919.000000</ele>
        <time>2021-09-04T14:47:55Z</time>
      </trkpt>
      <trkpt lat="42.642315" lon="0.424257">
        <ele>2919.000000</ele>
        <time>2021-09-04T14:47:56Z</time>
      </trkpt>
      <trkpt lat="42.642318" lon="0.424260">
        <ele>2919.000000</ele>
        <time>2021-09-04T14:47:57Z</time>
      </trkpt>
      <trkpt lat="42.642322" lon="0.424262">
        <ele>2919.000000</ele>
        <time>2021-09-04T14:47:58Z</time>
      </trkpt>
      <trkpt lat="42.642328" lon="0.424262">
        <ele>2919.000000</ele>
        <time>2021-09-04T14:47:59Z</time>
      </trkpt>
      <trkpt lat="42.642332" lon="0.424260">
        <ele>2919.000000</ele>
        <time>2021-09-04T14:48:00Z</time>
      </trkpt>
      <trkpt lat="42.642335" lon="0.424258">
        <ele>2919.000000</ele>
        <time>2021-09-04T14:48:01Z</time>
      </trkpt>
      <trkpt lat="42.642337" lon="0.424260">
        <ele>2919.000000</ele>
        <time>2021-09-04T14:48:02Z</time>
      </trkpt>
      <trkpt lat="42.642342" lon="0.424262">
        <ele>2919.000000</ele>
        <time>2021-09-04T14:48:03Z</time>
      </trkpt>
      <trkpt lat="42.642347" lon="0.424266">
        <ele>2919.000000</ele>
        <time>2021-09-04T14:48:04Z</time>
      </trkpt>
      <trkpt lat="42.642352" lon="0.424270">
        <ele>2919.000000</ele>
        <time>2021-09-04T14:48:05Z</time>
      </trkpt>
      <trkpt lat="42.642355" lon="0.424272">
        <ele>2919.000000</ele>
        <time>2021-09-04T14:48:06Z</time>
      </trkpt>
      <trkpt lat="42.642358" lon="0.424274">
        <ele>2921.000000</ele>
        <time>2021-09-04T14:48:07Z</time>
      </trkpt>
      <trkpt lat="42.642363" lon="0.424277">
        <ele>2921.000000</ele>
        <time>2021-09-04T14:48:08Z</time>
      </trkpt>
      <trkpt lat="42.642370" lon="0.424280">
        <ele>2921.000000</ele>
        <time>2021-09-04T14:48:09Z</time>
      </trkpt>
      <trkpt lat="42.642375" lon="0.424288">
        <ele>2921.000000</ele>
        <time>2021-09-04T14:48:10Z</time>
      </trkpt>
      <trkpt lat="42.642382" lon="0.424294">
        <ele>2921.000000</ele>
        <time>2021-09-04T14:48:11Z</time>
      </trkpt>
      <trkpt lat="42.642385" lon="0.424300">
        <ele>2921.000000</ele>
        <time>2021-09-04T14:48:12Z</time>
      </trkpt>
      <trkpt lat="42.642388" lon="0.424305">
        <ele>2921.000000</ele>
        <time>2021-09-04T14:48:13Z</time>
      </trkpt>
      <trkpt lat="42.642392" lon="0.424308">
        <ele>2921.000000</ele>
        <time>2021-09-04T14:48:14Z</time>
      </trkpt>
      <trkpt lat="42.642395" lon="0.424313">
        <ele>2921.000000</ele>
        <time>2021-09-04T14:48:15Z</time>
      </trkpt>
      <trkpt lat="42.642400" lon="0.424315">
        <ele>2921.000000</ele>
        <time>2021-09-04T14:48:19Z</time>
      </trkpt>
      <trkpt lat="42.642402" lon="0.424320">
        <ele>2921.000000</ele>
        <time>2021-09-04T14:48:20Z</time>
      </trkpt>
      <trkpt lat="42.642403" lon="0.424317">
        <ele>2921.000000</ele>
        <time>2021-09-04T14:48:22Z</time>
      </trkpt>
      <trkpt lat="42.642408" lon="0.424312">
        <ele>2921.000000</ele>
        <time>2021-09-04T14:48:23Z</time>
      </trkpt>
      <trkpt lat="42.642413" lon="0.424313">
        <ele>2921.000000</ele>
        <time>2021-09-04T14:48:24Z</time>
      </trkpt>
      <trkpt lat="42.642420" lon="0.424320">
        <ele>2922.000000</ele>
        <time>2021-09-04T14:48:25Z</time>
      </trkpt>
      <trkpt lat="42.642425" lon="0.424329">
        <ele>2922.000000</ele>
        <time>2021-09-04T14:48:26Z</time>
      </trkpt>
      <trkpt lat="42.642422" lon="0.424335">
        <ele>2922.000000</ele>
        <time>2021-09-04T14:48:27Z</time>
      </trkpt>
      <trkpt lat="42.642420" lon="0.424337">
        <ele>2922.000000</ele>
        <time>2021-09-04T14:48:28Z</time>
      </trkpt>
      <trkpt lat="42.642422" lon="0.424342">
        <ele>2922.000000</ele>
        <time>2021-09-04T14:48:29Z</time>
      </trkpt>
      <trkpt lat="42.642424" lon="0.424342">
        <ele>2922.000000</ele>
        <time>2021-09-04T14:48:30Z</time>
      </trkpt>
      <trkpt lat="42.642431" lon="0.424343">
        <ele>2922.000000</ele>
        <time>2021-09-04T14:48:31Z</time>
      </trkpt>
      <trkpt lat="42.642433" lon="0.424343">
        <ele>2922.000000</ele>
        <time>2021-09-04T14:48:32Z</time>
      </trkpt>
      <trkpt lat="42.642438" lon="0.424343">
        <ele>2922.000000</ele>
        <time>2021-09-04T14:48:33Z</time>
      </trkpt>
      <trkpt lat="42.642443" lon="0.424348">
        <ele>2922.000000</ele>
        <time>2021-09-04T14:48:34Z</time>
      </trkpt>
      <trkpt lat="42.642450" lon="0.424354">
        <ele>2922.000000</ele>
        <time>2021-09-04T14:48:35Z</time>
      </trkpt>
      <trkpt lat="42.642455" lon="0.424356">
        <ele>2922.000000</ele>
        <time>2021-09-04T14:48:36Z</time>
      </trkpt>
      <trkpt lat="42.642457" lon="0.424357">
        <ele>2922.000000</ele>
        <time>2021-09-04T14:48:37Z</time>
      </trkpt>
      <trkpt lat="42.642458" lon="0.424358">
        <ele>2923.000000</ele>
        <time>2021-09-04T14:48:38Z</time>
      </trkpt>
      <trkpt lat="42.642462" lon="0.424361">
        <ele>2923.000000</ele>
        <time>2021-09-04T14:48:39Z</time>
      </trkpt>
      <trkpt lat="42.642467" lon="0.424365">
        <ele>2923.000000</ele>
        <time>2021-09-04T14:48:40Z</time>
      </trkpt>
      <trkpt lat="42.642470" lon="0.424368">
        <ele>2924.000000</ele>
        <time>2021-09-04T14:48:41Z</time>
      </trkpt>
      <trkpt lat="42.642473" lon="0.424370">
        <ele>2924.000000</ele>
        <time>2021-09-04T14:48:42Z</time>
      </trkpt>
      <trkpt lat="42.642477" lon="0.424372">
        <ele>2924.000000</ele>
        <time>2021-09-04T14:48:43Z</time>
      </trkpt>
      <trkpt lat="42.642482" lon="0.424375">
        <ele>2924.000000</ele>
        <time>2021-09-04T14:48:44Z</time>
      </trkpt>
      <trkpt lat="42.642485" lon="0.424377">
        <ele>2924.000000</ele>
        <time>2021-09-04T14:48:45Z</time>
      </trkpt>
      <trkpt lat="42.642492" lon="0.424379">
        <ele>2924.000000</ele>
        <time>2021-09-04T14:48:46Z</time>
      </trkpt>
      <trkpt lat="42.642495" lon="0.424379">
        <ele>2924.000000</ele>
        <time>2021-09-04T14:48:47Z</time>
      </trkpt>
      <trkpt lat="42.642497" lon="0.424378">
        <ele>2925.000000</ele>
        <time>2021-09-04T14:48:48Z</time>
      </trkpt>
      <trkpt lat="42.642498" lon="0.424377">
        <ele>2925.000000</ele>
        <time>2021-09-04T14:48:49Z</time>
      </trkpt>
      <trkpt lat="42.642500" lon="0.424376">
        <ele>2925.000000</ele>
        <time>2021-09-04T14:48:50Z</time>
      </trkpt>
      <trkpt lat="42.642502" lon="0.424375">
        <ele>2925.000000</ele>
        <time>2021-09-04T14:48:52Z</time>
      </trkpt>
      <trkpt lat="42.642507" lon="0.424375">
        <ele>2925.000000</ele>
        <time>2021-09-04T14:48:54Z</time>
      </trkpt>
      <trkpt lat="42.642512" lon="0.424373">
        <ele>2925.000000</ele>
        <time>2021-09-04T14:48:55Z</time>
      </trkpt>
      <trkpt lat="42.642513" lon="0.424372">
        <ele>2925.000000</ele>
        <time>2021-09-04T14:48:56Z</time>
      </trkpt>
      <trkpt lat="42.642515" lon="0.424370">
        <ele>2925.000000</ele>
        <time>2021-09-04T14:48:57Z</time>
      </trkpt>
      <trkpt lat="42.642517" lon="0.424369">
        <ele>2925.000000</ele>
        <time>2021-09-04T14:48:58Z</time>
      </trkpt>
      <trkpt lat="42.642520" lon="0.424369">
        <ele>2925.000000</ele>
        <time>2021-09-04T14:48:59Z</time>
      </trkpt>
      <trkpt lat="42.642518" lon="0.424368">
        <ele>2925.000000</ele>
        <time>2021-09-04T14:49:00Z</time>
      </trkpt>
      <trkpt lat="42.642517" lon="0.424369">
        <ele>2925.000000</ele>
        <time>2021-09-04T14:49:03Z</time>
      </trkpt>
      <trkpt lat="42.642518" lon="0.424370">
        <ele>2925.000000</ele>
        <time>2021-09-04T14:49:03Z</time>
      </trkpt>
      <trkpt lat="42.642523" lon="0.424372">
        <ele>2925.000000</ele>
        <time>2021-09-04T14:49:04Z</time>
      </trkpt>
      <trkpt lat="42.642527" lon="0.424387">
        <ele>2925.000000</ele>
        <time>2021-09-04T14:49:05Z</time>
      </trkpt>
      <trkpt lat="42.642532" lon="0.424392">
        <ele>2926.000000</ele>
        <time>2021-09-04T14:49:06Z</time>
      </trkpt>
      <trkpt lat="42.642535" lon="0.424395">
        <ele>2926.000000</ele>
        <time>2021-09-04T14:49:07Z</time>
      </trkpt>
      <trkpt lat="42.642533" lon="0.424398">
        <ele>2926.000000</ele>
        <time>2021-09-04T14:49:08Z</time>
      </trkpt>
      <trkpt lat="42.642533" lon="0.424397">
        <ele>2926.000000</ele>
        <time>2021-09-04T14:49:10Z</time>
      </trkpt>
      <trkpt lat="42.642540" lon="0.424397">
        <ele>2926.000000</ele>
        <time>2021-09-04T14:49:11Z</time>
      </trkpt>
      <trkpt lat="42.642543" lon="0.424395">
        <ele>2926.000000</ele>
        <time>2021-09-04T14:49:12Z</time>
      </trkpt>
      <trkpt lat="42.642547" lon="0.424396">
        <ele>2926.000000</ele>
        <time>2021-09-04T14:49:13Z</time>
      </trkpt>
      <trkpt lat="42.642553" lon="0.424396">
        <ele>2927.000000</ele>
        <time>2021-09-04T14:49:14Z</time>
      </trkpt>
      <trkpt lat="42.642557" lon="0.424396">
        <ele>2927.000000</ele>
        <time>2021-09-04T14:49:15Z</time>
      </trkpt>
      <trkpt lat="42.642560" lon="0.424395">
        <ele>2927.000000</ele>
        <time>2021-09-04T14:49:16Z</time>
      </trkpt>
      <trkpt lat="42.642565" lon="0.424395">
        <ele>2927.000000</ele>
        <time>2021-09-04T14:49:17Z</time>
      </trkpt>
      <trkpt lat="42.642567" lon="0.424396">
        <ele>2927.000000</ele>
        <time>2021-09-04T14:49:18Z</time>
      </trkpt>
      <trkpt lat="42.642572" lon="0.424398">
        <ele>2928.000000</ele>
        <time>2021-09-04T14:49:19Z</time>
      </trkpt>
      <trkpt lat="42.642577" lon="0.424400">
        <ele>2928.000000</ele>
        <time>2021-09-04T14:49:20Z</time>
      </trkpt>
      <trkpt lat="42.642580" lon="0.424401">
        <ele>2928.000000</ele>
        <time>2021-09-04T14:49:21Z</time>
      </trkpt>
      <trkpt lat="42.642585" lon="0.424401">
        <ele>2928.000000</ele>
        <time>2021-09-04T14:49:22Z</time>
      </trkpt>
      <trkpt lat="42.642590" lon="0.424403">
        <ele>2929.000000</ele>
        <time>2021-09-04T14:49:23Z</time>
      </trkpt>
      <trkpt lat="42.642597" lon="0.424406">
        <ele>2929.000000</ele>
        <time>2021-09-04T14:49:24Z</time>
      </trkpt>
      <trkpt lat="42.642602" lon="0.424409">
        <ele>2929.000000</ele>
        <time>2021-09-04T14:49:25Z</time>
      </trkpt>
      <trkpt lat="42.642603" lon="0.424417">
        <ele>2929.000000</ele>
        <time>2021-09-04T14:49:26Z</time>
      </trkpt>
      <trkpt lat="42.642608" lon="0.424418">
        <ele>2929.000000</ele>
        <time>2021-09-04T14:49:27Z</time>
      </trkpt>
      <trkpt lat="42.642615" lon="0.424420">
        <ele>2929.000000</ele>
        <time>2021-09-04T14:49:28Z</time>
      </trkpt>
      <trkpt lat="42.642622" lon="0.424423">
        <ele>2930.000000</ele>
        <time>2021-09-04T14:49:29Z</time>
      </trkpt>
      <trkpt lat="42.642623" lon="0.424425">
        <ele>2930.000000</ele>
        <time>2021-09-04T14:49:30Z</time>
      </trkpt>
      <trkpt lat="42.642625" lon="0.424427">
        <ele>2930.000000</ele>
        <time>2021-09-04T14:49:31Z</time>
      </trkpt>
      <trkpt lat="42.642622" lon="0.424426">
        <ele>2930.000000</ele>
        <time>2021-09-04T14:49:33Z</time>
      </trkpt>
      <trkpt lat="42.642620" lon="0.424425">
        <ele>2930.000000</ele>
        <time>2021-09-04T14:49:33Z</time>
      </trkpt>
      <trkpt lat="42.642620" lon="0.424425">
        <ele>2930.000000</ele>
        <time>2021-09-04T14:49:34Z</time>
      </trkpt>
      <trkpt lat="42.642618" lon="0.424424">
        <ele>2931.000000</ele>
        <time>2021-09-04T14:49:36Z</time>
      </trkpt>
      <trkpt lat="42.642623" lon="0.424427">
        <ele>2931.000000</ele>
        <time>2021-09-04T14:49:38Z</time>
      </trkpt>
      <trkpt lat="42.642630" lon="0.424430">
        <ele>2931.000000</ele>
        <time>2021-09-04T14:49:41Z</time>
      </trkpt>
      <trkpt lat="42.642632" lon="0.424435">
        <ele>2931.000000</ele>
        <time>2021-09-04T14:49:42Z</time>
      </trkpt>
      <trkpt lat="42.642637" lon="0.424442">
        <ele>2931.000000</ele>
        <time>2021-09-04T14:49:43Z</time>
      </trkpt>
      <trkpt lat="42.642642" lon="0.424446">
        <ele>2931.000000</ele>
        <time>2021-09-04T14:49:44Z</time>
      </trkpt>
      <trkpt lat="42.642645" lon="0.424447">
        <ele>2931.000000</ele>
        <time>2021-09-04T14:49:45Z</time>
      </trkpt>
      <trkpt lat="42.642652" lon="0.424450">
        <ele>2931.000000</ele>
        <time>2021-09-04T14:49:46Z</time>
      </trkpt>
      <trkpt lat="42.642655" lon="0.424447">
        <ele>2931.000000</ele>
        <time>2021-09-04T14:49:47Z</time>
      </trkpt>
      <trkpt lat="42.642660" lon="0.424442">
        <ele>2931.000000</ele>
        <time>2021-09-04T14:49:49Z</time>
      </trkpt>
      <trkpt lat="42.642662" lon="0.424438">
        <ele>2931.000000</ele>
        <time>2021-09-04T14:49:50Z</time>
      </trkpt>
      <trkpt lat="42.642665" lon="0.424437">
        <ele>2931.000000</ele>
        <time>2021-09-04T14:49:51Z</time>
      </trkpt>
      <trkpt lat="42.642670" lon="0.424439">
        <ele>2931.000000</ele>
        <time>2021-09-04T14:49:52Z</time>
      </trkpt>
      <trkpt lat="42.642673" lon="0.424445">
        <ele>2931.000000</ele>
        <time>2021-09-04T14:49:53Z</time>
      </trkpt>
      <trkpt lat="42.642675" lon="0.424452">
        <ele>2931.000000</ele>
        <time>2021-09-04T14:49:54Z</time>
      </trkpt>
      <trkpt lat="42.642678" lon="0.424457">
        <ele>2931.000000</ele>
        <time>2021-09-04T14:49:55Z</time>
      </trkpt>
      <trkpt lat="42.642680" lon="0.424460">
        <ele>2931.000000</ele>
        <time>2021-09-04T14:49:56Z</time>
      </trkpt>
      <trkpt lat="42.642685" lon="0.424465">
        <ele>2931.000000</ele>
        <time>2021-09-04T14:49:57Z</time>
      </trkpt>
      <trkpt lat="42.642688" lon="0.424468">
        <ele>2931.000000</ele>
        <time>2021-09-04T14:49:58Z</time>
      </trkpt>
      <trkpt lat="42.642690" lon="0.424470">
        <ele>2931.000000</ele>
        <time>2021-09-04T14:49:59Z</time>
      </trkpt>
      <trkpt lat="42.642692" lon="0.424472">
        <ele>2931.000000</ele>
        <time>2021-09-04T14:50:00Z</time>
      </trkpt>
      <trkpt lat="42.642698" lon="0.424476">
        <ele>2931.000000</ele>
        <time>2021-09-04T14:50:01Z</time>
      </trkpt>
      <trkpt lat="42.642702" lon="0.424477">
        <ele>2931.000000</ele>
        <time>2021-09-04T14:50:02Z</time>
      </trkpt>
      <trkpt lat="42.642703" lon="0.424478">
        <ele>2931.000000</ele>
        <time>2021-09-04T14:50:03Z</time>
      </trkpt>
      <trkpt lat="42.642705" lon="0.424480">
        <ele>2932.000000</ele>
        <time>2021-09-04T14:50:05Z</time>
      </trkpt>
      <trkpt lat="42.642708" lon="0.424482">
        <ele>2932.000000</ele>
        <time>2021-09-04T14:50:06Z</time>
      </trkpt>
      <trkpt lat="42.642715" lon="0.424485">
        <ele>2932.000000</ele>
        <time>2021-09-04T14:50:07Z</time>
      </trkpt>
      <trkpt lat="42.642718" lon="0.424487">
        <ele>2932.000000</ele>
        <time>2021-09-04T14:50:08Z</time>
      </trkpt>
      <trkpt lat="42.642722" lon="0.424488">
        <ele>2933.000000</ele>
        <time>2021-09-04T14:50:09Z</time>
      </trkpt>
      <trkpt lat="42.642727" lon="0.424491">
        <ele>2933.000000</ele>
        <time>2021-09-04T14:50:10Z</time>
      </trkpt>
      <trkpt lat="42.642730" lon="0.424492">
        <ele>2933.000000</ele>
        <time>2021-09-04T14:50:11Z</time>
      </trkpt>
      <trkpt lat="42.642737" lon="0.424496">
        <ele>2933.000000</ele>
        <time>2021-09-04T14:50:12Z</time>
      </trkpt>
      <trkpt lat="42.642740" lon="0.424497">
        <ele>2933.000000</ele>
        <time>2021-09-04T14:50:13Z</time>
      </trkpt>
      <trkpt lat="42.642743" lon="0.424500">
        <ele>2933.000000</ele>
        <time>2021-09-04T14:50:14Z</time>
      </trkpt>
      <trkpt lat="42.642747" lon="0.424501">
        <ele>2933.000000</ele>
        <time>2021-09-04T14:50:15Z</time>
      </trkpt>
      <trkpt lat="42.642748" lon="0.424502">
        <ele>2934.000000</ele>
        <time>2021-09-04T14:50:16Z</time>
      </trkpt>
      <trkpt lat="42.642747" lon="0.424502">
        <ele>2934.000000</ele>
        <time>2021-09-04T14:50:17Z</time>
      </trkpt>
      <trkpt lat="42.642752" lon="0.424505">
        <ele>2934.000000</ele>
        <time>2021-09-04T14:50:18Z</time>
      </trkpt>
      <trkpt lat="42.642757" lon="0.424508">
        <ele>2934.000000</ele>
        <time>2021-09-04T14:50:20Z</time>
      </trkpt>
      <trkpt lat="42.642757" lon="0.424509">
        <ele>2934.000000</ele>
        <time>2021-09-04T14:50:21Z</time>
      </trkpt>
      <trkpt lat="42.642760" lon="0.424518">
        <ele>2934.000000</ele>
        <time>2021-09-04T14:50:23Z</time>
      </trkpt>
      <trkpt lat="42.642762" lon="0.424516">
        <ele>2934.000000</ele>
        <time>2021-09-04T14:50:24Z</time>
      </trkpt>
      <trkpt lat="42.642765" lon="0.424516">
        <ele>2934.000000</ele>
        <time>2021-09-04T14:50:25Z</time>
      </trkpt>
      <trkpt lat="42.642770" lon="0.424516">
        <ele>2935.000000</ele>
        <time>2021-09-04T14:50:26Z</time>
      </trkpt>
      <trkpt lat="42.642773" lon="0.424515">
        <ele>2935.000000</ele>
        <time>2021-09-04T14:50:27Z</time>
      </trkpt>
      <trkpt lat="42.642780" lon="0.424517">
        <ele>2935.000000</ele>
        <time>2021-09-04T14:50:31Z</time>
      </trkpt>
      <trkpt lat="42.642780" lon="0.424513">
        <ele>2935.000000</ele>
        <time>2021-09-04T14:50:32Z</time>
      </trkpt>
      <trkpt lat="42.642782" lon="0.424512">
        <ele>2935.000000</ele>
        <time>2021-09-04T14:50:33Z</time>
      </trkpt>
      <trkpt lat="42.642782" lon="0.424507">
        <ele>2935.000000</ele>
        <time>2021-09-04T14:50:34Z</time>
      </trkpt>
      <trkpt lat="42.642785" lon="0.424503">
        <ele>2935.000000</ele>
        <time>2021-09-04T14:50:35Z</time>
      </trkpt>
      <trkpt lat="42.642790" lon="0.424500">
        <ele>2934.000000</ele>
        <time>2021-09-04T14:50:36Z</time>
      </trkpt>
      <trkpt lat="42.642793" lon="0.424499">
        <ele>2934.000000</ele>
        <time>2021-09-04T14:50:37Z</time>
      </trkpt>
      <trkpt lat="42.642793" lon="0.424497">
        <ele>2934.000000</ele>
        <time>2021-09-04T14:50:38Z</time>
      </trkpt>
      <trkpt lat="42.642790" lon="0.424490">
        <ele>2933.000000</ele>
        <time>2021-09-04T14:50:39Z</time>
      </trkpt>
      <trkpt lat="42.642795" lon="0.424490">
        <ele>2933.000000</ele>
        <time>2021-09-04T14:50:40Z</time>
      </trkpt>
      <trkpt lat="42.642803" lon="0.424495">
        <ele>2933.000000</ele>
        <time>2021-09-04T14:50:41Z</time>
      </trkpt>
      <trkpt lat="42.642810" lon="0.424498">
        <ele>2933.000000</ele>
        <time>2021-09-04T14:50:42Z</time>
      </trkpt>
      <trkpt lat="42.642813" lon="0.424500">
        <ele>2933.000000</ele>
        <time>2021-09-04T14:50:43Z</time>
      </trkpt>
      <trkpt lat="42.642813" lon="0.424503">
        <ele>2933.000000</ele>
        <time>2021-09-04T14:50:44Z</time>
      </trkpt>
      <trkpt lat="42.642813" lon="0.424507">
        <ele>2933.000000</ele>
        <time>2021-09-04T14:50:45Z</time>
      </trkpt>
      <trkpt lat="42.642815" lon="0.424508">
        <ele>2933.000000</ele>
        <time>2021-09-04T14:50:47Z</time>
      </trkpt>
      <trkpt lat="42.642813" lon="0.424504">
        <ele>2933.000000</ele>
        <time>2021-09-04T14:50:48Z</time>
      </trkpt>
      <trkpt lat="42.642850" lon="0.424507">
        <ele>2935.000000</ele>
        <time>2021-09-04T14:51:05Z</time>
      </trkpt>
      <trkpt lat="42.642857" lon="0.424505">
        <ele>2935.000000</ele>
        <time>2021-09-04T14:51:06Z</time>
      </trkpt>
      <trkpt lat="42.642858" lon="0.424507">
        <ele>2935.000000</ele>
        <time>2021-09-04T14:51:07Z</time>
      </trkpt>
      <trkpt lat="42.642862" lon="0.424505">
        <ele>2935.000000</ele>
        <time>2021-09-04T14:51:11Z</time>
      </trkpt>
      <trkpt lat="42.642870" lon="0.424505">
        <ele>2935.000000</ele>
        <time>2021-09-04T14:51:12Z</time>
      </trkpt>
      <trkpt lat="42.642877" lon="0.424505">
        <ele>2935.000000</ele>
        <time>2021-09-04T14:51:13Z</time>
      </trkpt>
      <trkpt lat="42.642885" lon="0.424504">
        <ele>2935.000000</ele>
        <time>2021-09-04T14:51:14Z</time>
      </trkpt>
      <trkpt lat="42.642893" lon="0.424500">
        <ele>2935.000000</ele>
        <time>2021-09-04T14:51:15Z</time>
      </trkpt>
      <trkpt lat="42.642897" lon="0.424498">
        <ele>2935.000000</ele>
        <time>2021-09-04T14:51:16Z</time>
      </trkpt>
      <trkpt lat="42.642902" lon="0.424498">
        <ele>2935.000000</ele>
        <time>2021-09-04T14:51:17Z</time>
      </trkpt>
      <trkpt lat="42.642905" lon="0.424498">
        <ele>2936.000000</ele>
        <time>2021-09-04T14:51:18Z</time>
      </trkpt>
      <trkpt lat="42.642912" lon="0.424499">
        <ele>2936.000000</ele>
        <time>2021-09-04T14:51:19Z</time>
      </trkpt>
      <trkpt lat="42.642918" lon="0.424498">
        <ele>2937.000000</ele>
        <time>2021-09-04T14:51:20Z</time>
      </trkpt>
      <trkpt lat="42.642925" lon="0.424496">
        <ele>2937.000000</ele>
        <time>2021-09-04T14:51:21Z</time>
      </trkpt>
      <trkpt lat="42.642928" lon="0.424494">
        <ele>2937.000000</ele>
        <time>2021-09-04T14:51:22Z</time>
      </trkpt>
      <trkpt lat="42.642933" lon="0.424492">
        <ele>2938.000000</ele>
        <time>2021-09-04T14:51:23Z</time>
      </trkpt>
      <trkpt lat="42.642938" lon="0.424489">
        <ele>2938.000000</ele>
        <time>2021-09-04T14:51:24Z</time>
      </trkpt>
      <trkpt lat="42.642942" lon="0.424486">
        <ele>2938.000000</ele>
        <time>2021-09-04T14:51:25Z</time>
      </trkpt>
      <trkpt lat="42.642945" lon="0.424485">
        <ele>2939.000000</ele>
        <time>2021-09-04T14:51:26Z</time>
      </trkpt>
      <trkpt lat="42.642948" lon="0.424484">
        <ele>2939.000000</ele>
        <time>2021-09-04T14:51:27Z</time>
      </trkpt>
      <trkpt lat="42.642957" lon="0.424483">
        <ele>2939.000000</ele>
        <time>2021-09-04T14:51:28Z</time>
      </trkpt>
      <trkpt lat="42.642963" lon="0.424483">
        <ele>2939.000000</ele>
        <time>2021-09-04T14:51:29Z</time>
      </trkpt>
      <trkpt lat="42.642968" lon="0.424482">
        <ele>2939.000000</ele>
        <time>2021-09-04T14:51:30Z</time>
      </trkpt>
      <trkpt lat="42.642973" lon="0.424483">
        <ele>2940.000000</ele>
        <time>2021-09-04T14:51:31Z</time>
      </trkpt>
      <trkpt lat="42.642978" lon="0.424482">
        <ele>2940.000000</ele>
        <time>2021-09-04T14:51:32Z</time>
      </trkpt>
      <trkpt lat="42.642982" lon="0.424482">
        <ele>2940.000000</ele>
        <time>2021-09-04T14:51:33Z</time>
      </trkpt>
      <trkpt lat="42.642987" lon="0.424481">
        <ele>2940.000000</ele>
        <time>2021-09-04T14:51:34Z</time>
      </trkpt>
      <trkpt lat="42.642992" lon="0.424480">
        <ele>2941.000000</ele>
        <time>2021-09-04T14:51:35Z</time>
      </trkpt>
      <trkpt lat="42.642997" lon="0.424480">
        <ele>2941.000000</ele>
        <time>2021-09-04T14:51:36Z</time>
      </trkpt>
      <trkpt lat="42.643002" lon="0.424479">
        <ele>2941.000000</ele>
        <time>2021-09-04T14:51:37Z</time>
      </trkpt>
      <trkpt lat="42.643003" lon="0.424478">
        <ele>2941.000000</ele>
        <time>2021-09-04T14:51:38Z</time>
      </trkpt>
      <trkpt lat="42.643007" lon="0.424478">
        <ele>2941.000000</ele>
        <time>2021-09-04T14:51:39Z</time>
      </trkpt>
      <trkpt lat="42.643007" lon="0.424477">
        <ele>2942.000000</ele>
        <time>2021-09-04T14:51:41Z</time>
      </trkpt>
      <trkpt lat="42.643007" lon="0.424477">
        <ele>2942.000000</ele>
        <time>2021-09-04T14:51:42Z</time>
      </trkpt>
      <trkpt lat="42.643010" lon="0.424475">
        <ele>2942.000000</ele>
        <time>2021-09-04T14:51:43Z</time>
      </trkpt>
      <trkpt lat="42.643015" lon="0.424478">
        <ele>2942.000000</ele>
        <time>2021-09-04T14:51:46Z</time>
      </trkpt>
      <trkpt lat="42.643018" lon="0.424482">
        <ele>2943.000000</ele>
        <time>2021-09-04T14:51:47Z</time>
      </trkpt>
      <trkpt lat="42.643060" lon="0.424413">
        <ele>2948.000000</ele>
        <time>2021-09-04T14:52:48Z</time>
      </trkpt>
      <trkpt lat="42.643067" lon="0.424407">
        <ele>2948.000000</ele>
        <time>2021-09-04T14:52:49Z</time>
      </trkpt>
      <trkpt lat="42.643072" lon="0.424400">
        <ele>2948.000000</ele>
        <time>2021-09-04T14:52:50Z</time>
      </trkpt>
      <trkpt lat="42.643073" lon="0.424396">
        <ele>2948.000000</ele>
        <time>2021-09-04T14:52:51Z</time>
      </trkpt>
      <trkpt lat="42.643077" lon="0.424393">
        <ele>2948.000000</ele>
        <time>2021-09-04T14:52:52Z</time>
      </trkpt>
      <trkpt lat="42.643080" lon="0.424392">
        <ele>2948.000000</ele>
        <time>2021-09-04T14:52:53Z</time>
      </trkpt>
      <trkpt lat="42.643085" lon="0.424385">
        <ele>2948.000000</ele>
        <time>2021-09-04T14:52:54Z</time>
      </trkpt>
      <trkpt lat="42.643087" lon="0.424382">
        <ele>2946.000000</ele>
        <time>2021-09-04T14:52:55Z</time>
      </trkpt>
      <trkpt lat="42.643090" lon="0.424378">
        <ele>2946.000000</ele>
        <time>2021-09-04T14:52:56Z</time>
      </trkpt>
      <trkpt lat="42.643090" lon="0.424375">
        <ele>2946.000000</ele>
        <time>2021-09-04T14:52:57Z</time>
      </trkpt>
      <trkpt lat="42.643091" lon="0.424372">
        <ele>2946.000000</ele>
        <time>2021-09-04T14:52:58Z</time>
      </trkpt>
      <trkpt lat="42.643094" lon="0.424370">
        <ele>2945.000000</ele>
        <time>2021-09-04T14:52:59Z</time>
      </trkpt>
      <trkpt lat="42.643096" lon="0.424368">
        <ele>2945.000000</ele>
        <time>2021-09-04T14:53:00Z</time>
      </trkpt>
      <trkpt lat="42.643099" lon="0.424365">
        <ele>2945.000000</ele>
        <time>2021-09-04T14:53:01Z</time>
      </trkpt>
      <trkpt lat="42.643103" lon="0.424360">
        <ele>2944.000000</ele>
        <time>2021-09-04T14:53:02Z</time>
      </trkpt>
      <trkpt lat="42.643108" lon="0.424362">
        <ele>2944.000000</ele>
        <time>2021-09-04T14:53:03Z</time>
      </trkpt>
      <trkpt lat="42.643115" lon="0.424353">
        <ele>2943.000000</ele>
        <time>2021-09-04T14:53:06Z</time>
      </trkpt>
      <trkpt lat="42.643123" lon="0.424355">
        <ele>2943.000000</ele>
        <time>2021-09-04T14:53:07Z</time>
      </trkpt>
      <trkpt lat="42.643130" lon="0.424351">
        <ele>2943.000000</ele>
        <time>2021-09-04T14:53:08Z</time>
      </trkpt>
      <trkpt lat="42.643137" lon="0.424347">
        <ele>2943.000000</ele>
        <time>2021-09-04T14:53:09Z</time>
      </trkpt>
      <trkpt lat="42.643142" lon="0.424343">
        <ele>2943.000000</ele>
        <time>2021-09-04T14:53:10Z</time>
      </trkpt>
      <trkpt lat="42.643150" lon="0.424336">
        <ele>2943.000000</ele>
        <time>2021-09-04T14:53:11Z</time>
      </trkpt>
      <trkpt lat="42.643153" lon="0.424332">
        <ele>2943.000000</ele>
        <time>2021-09-04T14:53:12Z</time>
      </trkpt>
      <trkpt lat="42.643155" lon="0.424329">
        <ele>2943.000000</ele>
        <time>2021-09-04T14:53:13Z</time>
      </trkpt>
      <trkpt lat="42.643160" lon="0.424326">
        <ele>2943.000000</ele>
        <time>2021-09-04T14:53:14Z</time>
      </trkpt>
      <trkpt lat="42.643163" lon="0.424323">
        <ele>2943.000000</ele>
        <time>2021-09-04T14:53:15Z</time>
      </trkpt>
      <trkpt lat="42.643170" lon="0.424316">
        <ele>2943.000000</ele>
        <time>2021-09-04T14:53:16Z</time>
      </trkpt>
      <trkpt lat="42.643170" lon="0.424314">
        <ele>2943.000000</ele>
        <time>2021-09-04T14:53:17Z</time>
      </trkpt>
      <trkpt lat="42.643172" lon="0.424303">
        <ele>2943.000000</ele>
        <time>2021-09-04T14:53:18Z</time>
      </trkpt>
      <trkpt lat="42.643175" lon="0.424295">
        <ele>2943.000000</ele>
        <time>2021-09-04T14:53:18Z</time>
      </trkpt>
      <trkpt lat="42.643175" lon="0.424288">
        <ele>2943.000000</ele>
        <time>2021-09-04T14:53:19Z</time>
      </trkpt>
      <trkpt lat="42.643180" lon="0.424290">
        <ele>2943.000000</ele>
        <time>2021-09-04T14:53:20Z</time>
      </trkpt>
      <trkpt lat="42.643183" lon="0.424288">
        <ele>2943.000000</ele>
        <time>2021-09-04T14:53:21Z</time>
      </trkpt>
      <trkpt lat="42.643188" lon="0.424290">
        <ele>2942.000000</ele>
        <time>2021-09-04T14:53:22Z</time>
      </trkpt>
      <trkpt lat="42.643195" lon="0.424290">
        <ele>2942.000000</ele>
        <time>2021-09-04T14:53:23Z</time>
      </trkpt>
      <trkpt lat="42.643203" lon="0.424293">
        <ele>2942.000000</ele>
        <time>2021-09-04T14:53:24Z</time>
      </trkpt>
      <trkpt lat="42.643212" lon="0.424298">
        <ele>2942.000000</ele>
        <time>2021-09-04T14:53:25Z</time>
      </trkpt>
      <trkpt lat="42.643218" lon="0.424303">
        <ele>2942.000000</ele>
        <time>2021-09-04T14:53:26Z</time>
      </trkpt>
      <trkpt lat="42.643223" lon="0.424301">
        <ele>2942.000000</ele>
        <time>2021-09-04T14:53:27Z</time>
      </trkpt>
      <trkpt lat="42.643230" lon="0.424301">
        <ele>2943.000000</ele>
        <time>2021-09-04T14:53:28Z</time>
      </trkpt>
      <trkpt lat="42.643240" lon="0.424303">
        <ele>2943.000000</ele>
        <time>2021-09-04T14:53:29Z</time>
      </trkpt>
      <trkpt lat="42.643248" lon="0.424306">
        <ele>2943.000000</ele>
        <time>2021-09-04T14:53:30Z</time>
      </trkpt>
      <trkpt lat="42.643260" lon="0.424308">
        <ele>2943.000000</ele>
        <time>2021-09-04T14:53:31Z</time>
      </trkpt>
      <trkpt lat="42.643265" lon="0.424309">
        <ele>2944.000000</ele>
        <time>2021-09-04T14:53:32Z</time>
      </trkpt>
      <trkpt lat="42.643275" lon="0.424312">
        <ele>2944.000000</ele>
        <time>2021-09-04T14:53:33Z</time>
      </trkpt>
      <trkpt lat="42.643280" lon="0.424311">
        <ele>2944.000000</ele>
        <time>2021-09-04T14:53:34Z</time>
      </trkpt>
      <trkpt lat="42.643287" lon="0.424313">
        <ele>2944.000000</ele>
        <time>2021-09-04T14:53:35Z</time>
      </trkpt>
      <trkpt lat="42.643295" lon="0.424314">
        <ele>2944.000000</ele>
        <time>2021-09-04T14:53:36Z</time>
      </trkpt>
      <trkpt lat="42.643302" lon="0.424314">
        <ele>2944.000000</ele>
        <time>2021-09-04T14:53:37Z</time>
      </trkpt>
      <trkpt lat="42.643307" lon="0.424316">
        <ele>2945.000000</ele>
        <time>2021-09-04T14:53:38Z</time>
      </trkpt>
      <trkpt lat="42.643313" lon="0.424317">
        <ele>2945.000000</ele>
        <time>2021-09-04T14:53:39Z</time>
      </trkpt>
      <trkpt lat="42.643318" lon="0.424317">
        <ele>2945.000000</ele>
        <time>2021-09-04T14:53:40Z</time>
      </trkpt>
      <trkpt lat="42.643320" lon="0.424315">
        <ele>2946.000000</ele>
        <time>2021-09-04T14:53:41Z</time>
      </trkpt>
      <trkpt lat="42.643323" lon="0.424303">
        <ele>2946.000000</ele>
        <time>2021-09-04T14:53:42Z</time>
      </trkpt>
      <trkpt lat="42.643328" lon="0.424300">
        <ele>2946.000000</ele>
        <time>2021-09-04T14:53:43Z</time>
      </trkpt>
      <trkpt lat="42.643330" lon="0.424296">
        <ele>2946.000000</ele>
        <time>2021-09-04T14:53:44Z</time>
      </trkpt>
      <trkpt lat="42.643333" lon="0.424290">
        <ele>2946.000000</ele>
        <time>2021-09-04T14:53:45Z</time>
      </trkpt>
      <trkpt lat="42.643335" lon="0.424286">
        <ele>2946.000000</ele>
        <time>2021-09-04T14:53:46Z</time>
      </trkpt>
      <trkpt lat="42.643337" lon="0.424280">
        <ele>2946.000000</ele>
        <time>2021-09-04T14:53:47Z</time>
      </trkpt>
      <trkpt lat="42.643340" lon="0.424275">
        <ele>2946.000000</ele>
        <time>2021-09-04T14:53:48Z</time>
      </trkpt>
      <trkpt lat="42.643345" lon="0.424276">
        <ele>2946.000000</ele>
        <time>2021-09-04T14:53:49Z</time>
      </trkpt>
      <trkpt lat="42.643348" lon="0.424280">
        <ele>2947.000000</ele>
        <time>2021-09-04T14:53:50Z</time>
      </trkpt>
      <trkpt lat="42.643353" lon="0.424293">
        <ele>2947.000000</ele>
        <time>2021-09-04T14:53:51Z</time>
      </trkpt>
      <trkpt lat="42.643358" lon="0.424293">
        <ele>2947.000000</ele>
        <time>2021-09-04T14:53:52Z</time>
      </trkpt>
      <trkpt lat="42.643363" lon="0.424292">
        <ele>2947.000000</ele>
        <time>2021-09-04T14:53:53Z</time>
      </trkpt>
      <trkpt lat="42.643367" lon="0.424294">
        <ele>2947.000000</ele>
        <time>2021-09-04T14:53:54Z</time>
      </trkpt>
      <trkpt lat="42.643368" lon="0.424292">
        <ele>2948.000000</ele>
        <time>2021-09-04T14:53:55Z</time>
      </trkpt>
      <trkpt lat="42.643370" lon="0.424290">
        <ele>2948.000000</ele>
        <time>2021-09-04T14:53:56Z</time>
      </trkpt>
      <trkpt lat="42.643375" lon="0.424287">
        <ele>2948.000000</ele>
        <time>2021-09-04T14:53:57Z</time>
      </trkpt>
      <trkpt lat="42.643378" lon="0.424280">
        <ele>2948.000000</ele>
        <time>2021-09-04T14:53:58Z</time>
      </trkpt>
      <trkpt lat="42.643380" lon="0.424274">
        <ele>2948.000000</ele>
        <time>2021-09-04T14:53:59Z</time>
      </trkpt>
      <trkpt lat="42.643387" lon="0.424265">
        <ele>2948.000000</ele>
        <time>2021-09-04T14:54:00Z</time>
      </trkpt>
      <trkpt lat="42.643395" lon="0.424256">
        <ele>2948.000000</ele>
        <time>2021-09-04T14:54:01Z</time>
      </trkpt>
      <trkpt lat="42.643400" lon="0.424251">
        <ele>2947.000000</ele>
        <time>2021-09-04T14:54:02Z</time>
      </trkpt>
      <trkpt lat="42.643403" lon="0.424247">
        <ele>2947.000000</ele>
        <time>2021-09-04T14:54:03Z</time>
      </trkpt>
      <trkpt lat="42.643410" lon="0.424240">
        <ele>2947.000000</ele>
        <time>2021-09-04T14:54:04Z</time>
      </trkpt>
      <trkpt lat="42.643415" lon="0.424234">
        <ele>2947.000000</ele>
        <time>2021-09-04T14:54:05Z</time>
      </trkpt>
      <trkpt lat="42.643417" lon="0.424231">
        <ele>2947.000000</ele>
        <time>2021-09-04T14:54:06Z</time>
      </trkpt>
      <trkpt lat="42.643420" lon="0.424226">
        <ele>2947.000000</ele>
        <time>2021-09-04T14:54:07Z</time>
      </trkpt>
      <trkpt lat="42.643423" lon="0.424222">
        <ele>2946.000000</ele>
        <time>2021-09-04T14:54:08Z</time>
      </trkpt>
      <trkpt lat="42.643427" lon="0.424220">
        <ele>2946.000000</ele>
        <time>2021-09-04T14:54:09Z</time>
      </trkpt>
      <trkpt lat="42.643430" lon="0.424218">
        <ele>2946.000000</ele>
        <time>2021-09-04T14:54:10Z</time>
      </trkpt>
      <trkpt lat="42.643433" lon="0.424216">
        <ele>2946.000000</ele>
        <time>2021-09-04T14:54:11Z</time>
      </trkpt>
      <trkpt lat="42.643443" lon="0.424210">
        <ele>2946.000000</ele>
        <time>2021-09-04T14:54:12Z</time>
      </trkpt>
      <trkpt lat="42.643450" lon="0.424208">
        <ele>2946.000000</ele>
        <time>2021-09-04T14:54:13Z</time>
      </trkpt>
      <trkpt lat="42.643453" lon="0.424208">
        <ele>2946.000000</ele>
        <time>2021-09-04T14:54:14Z</time>
      </trkpt>
      <trkpt lat="42.643458" lon="0.424207">
        <ele>2946.000000</ele>
        <time>2021-09-04T14:54:15Z</time>
      </trkpt>
      <trkpt lat="42.643472" lon="0.424201">
        <ele>2946.000000</ele>
        <time>2021-09-04T14:54:16Z</time>
      </trkpt>
      <trkpt lat="42.643480" lon="0.424197">
        <ele>2946.000000</ele>
        <time>2021-09-04T14:54:17Z</time>
      </trkpt>
      <trkpt lat="42.643487" lon="0.424194">
        <ele>2946.000000</ele>
        <time>2021-09-04T14:54:18Z</time>
      </trkpt>
      <trkpt lat="42.643490" lon="0.424194">
        <ele>2945.000000</ele>
        <time>2021-09-04T14:54:19Z</time>
      </trkpt>
      <trkpt lat="42.643497" lon="0.424192">
        <ele>2945.000000</ele>
        <time>2021-09-04T14:54:20Z</time>
      </trkpt>
      <trkpt lat="42.643503" lon="0.424190">
        <ele>2945.000000</ele>
        <time>2021-09-04T14:54:21Z</time>
      </trkpt>
      <trkpt lat="42.643507" lon="0.424190">
        <ele>2945.000000</ele>
        <time>2021-09-04T14:54:22Z</time>
      </trkpt>
      <trkpt lat="42.643512" lon="0.424190">
        <ele>2945.000000</ele>
        <time>2021-09-04T14:54:23Z</time>
      </trkpt>
      <trkpt lat="42.643517" lon="0.424205">
        <ele>2945.000000</ele>
        <time>2021-09-04T14:54:25Z</time>
      </trkpt>
      <trkpt lat="42.643518" lon="0.424203">
        <ele>2945.000000</ele>
        <time>2021-09-04T14:54:26Z</time>
      </trkpt>
      <trkpt lat="42.643520" lon="0.424203">
        <ele>2945.000000</ele>
        <time>2021-09-04T14:54:29Z</time>
      </trkpt>
      <trkpt lat="42.643523" lon="0.424204">
        <ele>2946.000000</ele>
        <time>2021-09-04T14:54:31Z</time>
      </trkpt>
      <trkpt lat="42.643530" lon="0.424205">
        <ele>2946.000000</ele>
        <time>2021-09-04T14:54:32Z</time>
      </trkpt>
      <trkpt lat="42.643537" lon="0.424206">
        <ele>2946.000000</ele>
        <time>2021-09-04T14:54:33Z</time>
      </trkpt>
      <trkpt lat="42.643543" lon="0.424207">
        <ele>2946.000000</ele>
        <time>2021-09-04T14:54:34Z</time>
      </trkpt>
      <trkpt lat="42.643550" lon="0.424205">
        <ele>2947.000000</ele>
        <time>2021-09-04T14:54:35Z</time>
      </trkpt>
      <trkpt lat="42.643555" lon="0.424204">
        <ele>2947.000000</ele>
        <time>2021-09-04T14:54:36Z</time>
      </trkpt>
      <trkpt lat="42.643563" lon="0.424202">
        <ele>2947.000000</ele>
        <time>2021-09-04T14:54:37Z</time>
      </trkpt>
      <trkpt lat="42.643570" lon="0.424199">
        <ele>2947.000000</ele>
        <time>2021-09-04T14:54:38Z</time>
      </trkpt>
      <trkpt lat="42.643573" lon="0.424197">
        <ele>2947.000000</ele>
        <time>2021-09-04T14:54:39Z</time>
      </trkpt>
      <trkpt lat="42.643575" lon="0.424195">
        <ele>2947.000000</ele>
        <time>2021-09-04T14:54:40Z</time>
      </trkpt>
      <trkpt lat="42.643580" lon="0.424193">
        <ele>2947.000000</ele>
        <time>2021-09-04T14:54:41Z</time>
      </trkpt>
      <trkpt lat="42.643580" lon="0.424191">
        <ele>2947.000000</ele>
        <time>2021-09-04T14:54:42Z</time>
      </trkpt>
      <trkpt lat="42.643578" lon="0.424190">
        <ele>2947.000000</ele>
        <time>2021-09-04T14:54:43Z</time>
      </trkpt>
      <trkpt lat="42.643578" lon="0.424189">
        <ele>2947.000000</ele>
        <time>2021-09-04T14:54:45Z</time>
      </trkpt>
      <trkpt lat="42.643585" lon="0.424186">
        <ele>2947.000000</ele>
        <time>2021-09-04T14:54:47Z</time>
      </trkpt>
      <trkpt lat="42.643592" lon="0.424185">
        <ele>2947.000000</ele>
        <time>2021-09-04T14:54:50Z</time>
      </trkpt>
      <trkpt lat="42.643600" lon="0.424183">
        <ele>2947.000000</ele>
        <time>2021-09-04T14:54:51Z</time>
      </trkpt>
      <trkpt lat="42.643605" lon="0.424178">
        <ele>2947.000000</ele>
        <time>2021-09-04T14:54:52Z</time>
      </trkpt>
      <trkpt lat="42.643610" lon="0.424168">
        <ele>2947.000000</ele>
        <time>2021-09-04T14:54:53Z</time>
      </trkpt>
      <trkpt lat="42.643617" lon="0.424162">
        <ele>2947.000000</ele>
        <time>2021-09-04T14:54:54Z</time>
      </trkpt>
      <trkpt lat="42.643627" lon="0.424158">
        <ele>2947.000000</ele>
        <time>2021-09-04T14:54:55Z</time>
      </trkpt>
      <trkpt lat="42.643632" lon="0.424158">
        <ele>2947.000000</ele>
        <time>2021-09-04T14:54:56Z</time>
      </trkpt>
      <trkpt lat="42.643640" lon="0.424153">
        <ele>2947.000000</ele>
        <time>2021-09-04T14:54:57Z</time>
      </trkpt>
      <trkpt lat="42.643647" lon="0.424148">
        <ele>2947.000000</ele>
        <time>2021-09-04T14:54:58Z</time>
      </trkpt>
      <trkpt lat="42.643652" lon="0.424145">
        <ele>2947.000000</ele>
        <time>2021-09-04T14:54:59Z</time>
      </trkpt>
      <trkpt lat="42.643658" lon="0.424143">
        <ele>2947.000000</ele>
        <time>2021-09-04T14:55:00Z</time>
      </trkpt>
      <trkpt lat="42.643663" lon="0.424141">
        <ele>2947.000000</ele>
        <time>2021-09-04T14:55:01Z</time>
      </trkpt>
      <trkpt lat="42.643667" lon="0.424139">
        <ele>2947.000000</ele>
        <time>2021-09-04T14:55:02Z</time>
      </trkpt>
      <trkpt lat="42.643675" lon="0.424136">
        <ele>2947.000000</ele>
        <time>2021-09-04T14:55:03Z</time>
      </trkpt>
      <trkpt lat="42.643680" lon="0.424134">
        <ele>2947.000000</ele>
        <time>2021-09-04T14:55:04Z</time>
      </trkpt>
      <trkpt lat="42.643685" lon="0.424131">
        <ele>2947.000000</ele>
        <time>2021-09-04T14:55:05Z</time>
      </trkpt>
      <trkpt lat="42.643690" lon="0.424129">
        <ele>2947.000000</ele>
        <time>2021-09-04T14:55:06Z</time>
      </trkpt>
      <trkpt lat="42.643698" lon="0.424124">
        <ele>2947.000000</ele>
        <time>2021-09-04T14:55:07Z</time>
      </trkpt>
      <trkpt lat="42.643705" lon="0.424122">
        <ele>2947.000000</ele>
        <time>2021-09-04T14:55:08Z</time>
      </trkpt>
      <trkpt lat="42.643715" lon="0.424119">
        <ele>2947.000000</ele>
        <time>2021-09-04T14:55:09Z</time>
      </trkpt>
      <trkpt lat="42.643722" lon="0.424119">
        <ele>2947.000000</ele>
        <time>2021-09-04T14:55:10Z</time>
      </trkpt>
      <trkpt lat="42.643728" lon="0.424118">
        <ele>2947.000000</ele>
        <time>2021-09-04T14:55:11Z</time>
      </trkpt>
      <trkpt lat="42.643727" lon="0.424120">
        <ele>2947.000000</ele>
        <time>2021-09-04T14:55:13Z</time>
      </trkpt>
      <trkpt lat="42.643725" lon="0.424122">
        <ele>2947.000000</ele>
        <time>2021-09-04T14:55:14Z</time>
      </trkpt>
      <trkpt lat="42.643723" lon="0.424123">
        <ele>2947.000000</ele>
        <time>2021-09-04T14:55:16Z</time>
      </trkpt>
      <trkpt lat="42.643722" lon="0.424124">
        <ele>2947.000000</ele>
        <time>2021-09-04T14:55:18Z</time>
      </trkpt>
      <trkpt lat="42.643725" lon="0.424122">
        <ele>2947.000000</ele>
        <time>2021-09-04T14:55:19Z</time>
      </trkpt>
      <trkpt lat="42.643730" lon="0.424122">
        <ele>2947.000000</ele>
        <time>2021-09-04T14:55:20Z</time>
      </trkpt>
      <trkpt lat="42.643735" lon="0.424120">
        <ele>2947.000000</ele>
        <time>2021-09-04T14:55:21Z</time>
      </trkpt>
      <trkpt lat="42.643740" lon="0.424119">
        <ele>2947.000000</ele>
        <time>2021-09-04T14:55:22Z</time>
      </trkpt>
      <trkpt lat="42.643752" lon="0.424116">
        <ele>2947.000000</ele>
        <time>2021-09-04T14:55:23Z</time>
      </trkpt>
      <trkpt lat="42.643760" lon="0.424115">
        <ele>2947.000000</ele>
        <time>2021-09-04T14:55:24Z</time>
      </trkpt>
      <trkpt lat="42.643768" lon="0.424113">
        <ele>2947.000000</ele>
        <time>2021-09-04T14:55:25Z</time>
      </trkpt>
      <trkpt lat="42.643773" lon="0.424112">
        <ele>2947.000000</ele>
        <time>2021-09-04T14:55:26Z</time>
      </trkpt>
      <trkpt lat="42.643778" lon="0.424112">
        <ele>2947.000000</ele>
        <time>2021-09-04T14:55:27Z</time>
      </trkpt>
      <trkpt lat="42.643785" lon="0.424110">
        <ele>2947.000000</ele>
        <time>2021-09-04T14:55:28Z</time>
      </trkpt>
      <trkpt lat="42.643790" lon="0.424109">
        <ele>2947.000000</ele>
        <time>2021-09-04T14:55:29Z</time>
      </trkpt>
      <trkpt lat="42.643797" lon="0.424107">
        <ele>2947.000000</ele>
        <time>2021-09-04T14:55:30Z</time>
      </trkpt>
      <trkpt lat="42.643803" lon="0.424103">
        <ele>2947.000000</ele>
        <time>2021-09-04T14:55:31Z</time>
      </trkpt>
      <trkpt lat="42.643810" lon="0.424100">
        <ele>2947.000000</ele>
        <time>2021-09-04T14:55:32Z</time>
      </trkpt>
      <trkpt lat="42.643817" lon="0.424103">
        <ele>2947.000000</ele>
        <time>2021-09-04T14:55:33Z</time>
      </trkpt>
      <trkpt lat="42.643818" lon="0.424101">
        <ele>2947.000000</ele>
        <time>2021-09-04T14:55:34Z</time>
      </trkpt>
      <trkpt lat="42.643822" lon="0.424095">
        <ele>2947.000000</ele>
        <time>2021-09-04T14:55:35Z</time>
      </trkpt>
      <trkpt lat="42.643827" lon="0.424090">
        <ele>2947.000000</ele>
        <time>2021-09-04T14:55:36Z</time>
      </trkpt>
      <trkpt lat="42.643830" lon="0.424085">
        <ele>2947.000000</ele>
        <time>2021-09-04T14:55:37Z</time>
      </trkpt>
      <trkpt lat="42.643835" lon="0.424081">
        <ele>2947.000000</ele>
        <time>2021-09-04T14:55:38Z</time>
      </trkpt>
      <trkpt lat="42.643840" lon="0.424081">
        <ele>2947.000000</ele>
        <time>2021-09-04T14:55:39Z</time>
      </trkpt>
      <trkpt lat="42.643842" lon="0.424080">
        <ele>2947.000000</ele>
        <time>2021-09-04T14:55:40Z</time>
      </trkpt>
      <trkpt lat="42.643845" lon="0.424076">
        <ele>2947.000000</ele>
        <time>2021-09-04T14:55:41Z</time>
      </trkpt>
      <trkpt lat="42.643850" lon="0.424072">
        <ele>2947.000000</ele>
        <time>2021-09-04T14:55:42Z</time>
      </trkpt>
      <trkpt lat="42.643855" lon="0.424070">
        <ele>2947.000000</ele>
        <time>2021-09-04T14:55:45Z</time>
      </trkpt>
      <trkpt lat="42.643858" lon="0.424069">
        <ele>2947.000000</ele>
        <time>2021-09-04T14:55:46Z</time>
      </trkpt>
      <trkpt lat="42.643860" lon="0.424068">
        <ele>2947.000000</ele>
        <time>2021-09-04T14:55:47Z</time>
      </trkpt>
      <trkpt lat="42.643865" lon="0.424067">
        <ele>2947.000000</ele>
        <time>2021-09-04T14:55:49Z</time>
      </trkpt>
      <trkpt lat="42.643865" lon="0.424067">
        <ele>2947.000000</ele>
        <time>2021-09-04T14:55:50Z</time>
      </trkpt>
      <trkpt lat="42.643868" lon="0.424065">
        <ele>2947.000000</ele>
        <time>2021-09-04T14:55:51Z</time>
      </trkpt>
      <trkpt lat="42.643870" lon="0.424064">
        <ele>2947.000000</ele>
        <time>2021-09-04T14:55:52Z</time>
      </trkpt>
      <trkpt lat="42.643873" lon="0.424065">
        <ele>2947.000000</ele>
        <time>2021-09-04T14:55:54Z</time>
      </trkpt>
      <trkpt lat="42.643872" lon="0.424067">
        <ele>2947.000000</ele>
        <time>2021-09-04T14:55:55Z</time>
      </trkpt>
      <trkpt lat="42.643868" lon="0.424069">
        <ele>2947.000000</ele>
        <time>2021-09-04T14:55:56Z</time>
      </trkpt>
      <trkpt lat="42.643958" lon="0.424020">
        <ele>2955.000000</ele>
        <time>2021-09-04T14:56:21Z</time>
      </trkpt>
      <trkpt lat="42.643962" lon="0.424020">
        <ele>2956.000000</ele>
        <time>2021-09-04T14:56:22Z</time>
      </trkpt>
      <trkpt lat="42.643965" lon="0.424019">
        <ele>2956.000000</ele>
        <time>2021-09-04T14:56:23Z</time>
      </trkpt>
      <trkpt lat="42.643968" lon="0.424019">
        <ele>2956.000000</ele>
        <time>2021-09-04T14:56:26Z</time>
      </trkpt>
      <trkpt lat="42.643973" lon="0.424021">
        <ele>2957.000000</ele>
        <time>2021-09-04T14:56:28Z</time>
      </trkpt>
      <trkpt lat="42.643975" lon="0.424023">
        <ele>2957.000000</ele>
        <time>2021-09-04T14:56:29Z</time>
      </trkpt>
      <trkpt lat="42.643977" lon="0.424023">
        <ele>2957.000000</ele>
        <time>2021-09-04T14:56:30Z</time>
      </trkpt>
      <trkpt lat="42.643978" lon="0.424023">
        <ele>2957.000000</ele>
        <time>2021-09-04T14:56:31Z</time>
      </trkpt>
      <trkpt lat="42.643980" lon="0.424021">
        <ele>2957.000000</ele>
        <time>2021-09-04T14:56:32Z</time>
      </trkpt>
      <trkpt lat="42.643985" lon="0.424018">
        <ele>2957.000000</ele>
        <time>2021-09-04T14:56:33Z</time>
      </trkpt>
      <trkpt lat="42.643993" lon="0.424011">
        <ele>2958.000000</ele>
        <time>2021-09-04T14:56:34Z</time>
      </trkpt>
      <trkpt lat="42.643998" lon="0.424004">
        <ele>2958.000000</ele>
        <time>2021-09-04T14:56:35Z</time>
      </trkpt>
      <trkpt lat="42.644010" lon="0.423995">
        <ele>2958.000000</ele>
        <time>2021-09-04T14:56:36Z</time>
      </trkpt>
      <trkpt lat="42.644017" lon="0.423994">
        <ele>2958.000000</ele>
        <time>2021-09-04T14:56:37Z</time>
      </trkpt>
      <trkpt lat="42.644023" lon="0.423992">
        <ele>2958.000000</ele>
        <time>2021-09-04T14:56:38Z</time>
      </trkpt>
      <trkpt lat="42.644028" lon="0.423990">
        <ele>2958.000000</ele>
        <time>2021-09-04T14:56:39Z</time>
      </trkpt>
      <trkpt lat="42.644030" lon="0.423990">
        <ele>2958.000000</ele>
        <time>2021-09-04T14:56:40Z</time>
      </trkpt>
      <trkpt lat="42.644037" lon="0.423988">
        <ele>2958.000000</ele>
        <time>2021-09-04T14:56:42Z</time>
      </trkpt>
      <trkpt lat="42.644043" lon="0.423987">
        <ele>2959.000000</ele>
        <time>2021-09-04T14:56:43Z</time>
      </trkpt>
      <trkpt lat="42.644045" lon="0.423981">
        <ele>2959.000000</ele>
        <time>2021-09-04T14:56:44Z</time>
      </trkpt>
      <trkpt lat="42.644052" lon="0.423974">
        <ele>2959.000000</ele>
        <time>2021-09-04T14:56:45Z</time>
      </trkpt>
      <trkpt lat="42.644052" lon="0.423972">
        <ele>2959.000000</ele>
        <time>2021-09-04T14:56:46Z</time>
      </trkpt>
      <trkpt lat="42.644053" lon="0.423972">
        <ele>2960.000000</ele>
        <time>2021-09-04T14:56:49Z</time>
      </trkpt>
      <trkpt lat="42.644055" lon="0.423975">
        <ele>2960.000000</ele>
        <time>2021-09-04T14:56:50Z</time>
      </trkpt>
      <trkpt lat="42.644057" lon="0.423977">
        <ele>2960.000000</ele>
        <time>2021-09-04T14:56:52Z</time>
      </trkpt>
      <trkpt lat="42.644052" lon="0.423972">
        <ele>2960.000000</ele>
        <time>2021-09-04T14:56:53Z</time>
      </trkpt>
      <trkpt lat="42.644142" lon="0.423927">
        <ele>2957.000000</ele>
        <time>2021-09-04T14:57:25Z</time>
      </trkpt>
      <trkpt lat="42.644148" lon="0.423920">
        <ele>2957.000000</ele>
        <time>2021-09-04T14:57:26Z</time>
      </trkpt>
      <trkpt lat="42.644157" lon="0.423917">
        <ele>2956.000000</ele>
        <time>2021-09-04T14:57:27Z</time>
      </trkpt>
      <trkpt lat="42.644170" lon="0.423918">
        <ele>2956.000000</ele>
        <time>2021-09-04T14:57:28Z</time>
      </trkpt>
      <trkpt lat="42.644180" lon="0.423923">
        <ele>2956.000000</ele>
        <time>2021-09-04T14:57:29Z</time>
      </trkpt>
      <trkpt lat="42.644190" lon="0.423925">
        <ele>2956.000000</ele>
        <time>2021-09-04T14:57:30Z</time>
      </trkpt>
      <trkpt lat="42.644193" lon="0.423925">
        <ele>2956.000000</ele>
        <time>2021-09-04T14:57:31Z</time>
      </trkpt>
      <trkpt lat="42.644198" lon="0.423922">
        <ele>2956.000000</ele>
        <time>2021-09-04T14:57:32Z</time>
      </trkpt>
      <trkpt lat="42.644202" lon="0.423916">
        <ele>2956.000000</ele>
        <time>2021-09-04T14:57:33Z</time>
      </trkpt>
      <trkpt lat="42.644202" lon="0.423910">
        <ele>2956.000000</ele>
        <time>2021-09-04T14:57:33Z</time>
      </trkpt>
      <trkpt lat="42.644205" lon="0.423907">
        <ele>2955.000000</ele>
        <time>2021-09-04T14:57:34Z</time>
      </trkpt>
      <trkpt lat="42.644207" lon="0.423905">
        <ele>2955.000000</ele>
        <time>2021-09-04T14:57:35Z</time>
      </trkpt>
      <trkpt lat="42.644205" lon="0.423905">
        <ele>2955.000000</ele>
        <time>2021-09-04T14:57:36Z</time>
      </trkpt>
      <trkpt lat="42.644203" lon="0.423900">
        <ele>2955.000000</ele>
        <time>2021-09-04T14:57:37Z</time>
      </trkpt>
      <trkpt lat="42.644212" lon="0.423900">
        <ele>2955.000000</ele>
        <time>2021-09-04T14:57:38Z</time>
      </trkpt>
      <trkpt lat="42.644217" lon="0.423895">
        <ele>2955.000000</ele>
        <time>2021-09-04T14:57:39Z</time>
      </trkpt>
      <trkpt lat="42.644222" lon="0.423897">
        <ele>2955.000000</ele>
        <time>2021-09-04T14:57:40Z</time>
      </trkpt>
      <trkpt lat="42.644225" lon="0.423898">
        <ele>2954.000000</ele>
        <time>2021-09-04T14:57:41Z</time>
      </trkpt>
      <trkpt lat="42.644227" lon="0.423897">
        <ele>2954.000000</ele>
        <time>2021-09-04T14:57:43Z</time>
      </trkpt>
      <trkpt lat="42.644230" lon="0.423898">
        <ele>2954.000000</ele>
        <time>2021-09-04T14:57:44Z</time>
      </trkpt>
      <trkpt lat="42.644222" lon="0.423898">
        <ele>2954.000000</ele>
        <time>2021-09-04T14:57:45Z</time>
      </trkpt>
      <trkpt lat="42.644265" lon="0.423887">
        <ele>2953.000000</ele>
        <time>2021-09-04T14:57:52Z</time>
      </trkpt>
      <trkpt lat="42.644275" lon="0.423887">
        <ele>2953.000000</ele>
        <time>2021-09-04T14:57:53Z</time>
      </trkpt>
      <trkpt lat="42.644282" lon="0.423885">
        <ele>2953.000000</ele>
        <time>2021-09-04T14:57:54Z</time>
      </trkpt>
      <trkpt lat="42.644290" lon="0.423886">
        <ele>2953.000000</ele>
        <time>2021-09-04T14:57:55Z</time>
      </trkpt>
      <trkpt lat="42.644297" lon="0.423885">
        <ele>2953.000000</ele>
        <time>2021-09-04T14:57:56Z</time>
      </trkpt>
      <trkpt lat="42.644307" lon="0.423884">
        <ele>2953.000000</ele>
        <time>2021-09-04T14:57:57Z</time>
      </trkpt>
      <trkpt lat="42.644315" lon="0.423883">
        <ele>2953.000000</ele>
        <time>2021-09-04T14:57:58Z</time>
      </trkpt>
      <trkpt lat="42.644317" lon="0.423882">
        <ele>2953.000000</ele>
        <time>2021-09-04T14:57:59Z</time>
      </trkpt>
      <trkpt lat="42.644323" lon="0.423880">
        <ele>2953.000000</ele>
        <time>2021-09-04T14:58:00Z</time>
      </trkpt>
      <trkpt lat="42.644328" lon="0.423878">
        <ele>2953.000000</ele>
        <time>2021-09-04T14:58:01Z</time>
      </trkpt>
      <trkpt lat="42.644333" lon="0.423875">
        <ele>2953.000000</ele>
        <time>2021-09-04T14:58:02Z</time>
      </trkpt>
      <trkpt lat="42.644340" lon="0.423872">
        <ele>2953.000000</ele>
        <time>2021-09-04T14:58:03Z</time>
      </trkpt>
      <trkpt lat="42.644342" lon="0.423872">
        <ele>2953.000000</ele>
        <time>2021-09-04T14:58:04Z</time>
      </trkpt>
      <trkpt lat="42.644343" lon="0.423870">
        <ele>2953.000000</ele>
        <time>2021-09-04T14:58:06Z</time>
      </trkpt>
      <trkpt lat="42.644345" lon="0.423869">
        <ele>2954.000000</ele>
        <time>2021-09-04T14:58:07Z</time>
      </trkpt>
      <trkpt lat="42.644347" lon="0.423867">
        <ele>2954.000000</ele>
        <time>2021-09-04T14:58:08Z</time>
      </trkpt>
      <trkpt lat="42.644348" lon="0.423867">
        <ele>2954.000000</ele>
        <time>2021-09-04T14:58:09Z</time>
      </trkpt>
      <trkpt lat="42.644350" lon="0.423867">
        <ele>2955.000000</ele>
        <time>2021-09-04T14:58:10Z</time>
      </trkpt>
      <trkpt lat="42.644353" lon="0.423867">
        <ele>2955.000000</ele>
        <time>2021-09-04T14:58:11Z</time>
      </trkpt>
      <trkpt lat="42.644358" lon="0.423866">
        <ele>2955.000000</ele>
        <time>2021-09-04T14:58:12Z</time>
      </trkpt>
      <trkpt lat="42.644347" lon="0.423869">
        <ele>2956.000000</ele>
        <time>2021-09-04T14:58:13Z</time>
      </trkpt>
      <trkpt lat="42.644417" lon="0.423875">
        <ele>2959.000000</ele>
        <time>2021-09-04T14:58:35Z</time>
      </trkpt>
      <trkpt lat="42.644425" lon="0.423877">
        <ele>2959.000000</ele>
        <time>2021-09-04T14:58:36Z</time>
      </trkpt>
      <trkpt lat="42.644432" lon="0.423875">
        <ele>2959.000000</ele>
        <time>2021-09-04T14:58:37Z</time>
      </trkpt>
      <trkpt lat="42.644440" lon="0.423875">
        <ele>2959.000000</ele>
        <time>2021-09-04T14:58:38Z</time>
      </trkpt>
      <trkpt lat="42.644447" lon="0.423874">
        <ele>2959.000000</ele>
        <time>2021-09-04T14:58:39Z</time>
      </trkpt>
      <trkpt lat="42.644452" lon="0.423872">
        <ele>2959.000000</ele>
        <time>2021-09-04T14:58:40Z</time>
      </trkpt>
      <trkpt lat="42.644458" lon="0.423868">
        <ele>2959.000000</ele>
        <time>2021-09-04T14:58:41Z</time>
      </trkpt>
      <trkpt lat="42.644465" lon="0.423862">
        <ele>2959.000000</ele>
        <time>2021-09-04T14:58:42Z</time>
      </trkpt>
      <trkpt lat="42.644470" lon="0.423858">
        <ele>2959.000000</ele>
        <time>2021-09-04T14:58:43Z</time>
      </trkpt>
      <trkpt lat="42.644478" lon="0.423855">
        <ele>2959.000000</ele>
        <time>2021-09-04T14:58:44Z</time>
      </trkpt>
      <trkpt lat="42.644485" lon="0.423852">
        <ele>2959.000000</ele>
        <time>2021-09-04T14:58:45Z</time>
      </trkpt>
      <trkpt lat="42.644490" lon="0.423849">
        <ele>2959.000000</ele>
        <time>2021-09-04T14:58:46Z</time>
      </trkpt>
      <trkpt lat="42.644497" lon="0.423844">
        <ele>2959.000000</ele>
        <time>2021-09-04T14:58:47Z</time>
      </trkpt>
      <trkpt lat="42.644500" lon="0.423840">
        <ele>2959.000000</ele>
        <time>2021-09-04T14:58:48Z</time>
      </trkpt>
      <trkpt lat="42.644503" lon="0.423837">
        <ele>2959.000000</ele>
        <time>2021-09-04T14:58:49Z</time>
      </trkpt>
      <trkpt lat="42.644513" lon="0.423838">
        <ele>2959.000000</ele>
        <time>2021-09-04T14:58:50Z</time>
      </trkpt>
      <trkpt lat="42.644518" lon="0.423836">
        <ele>2959.000000</ele>
        <time>2021-09-04T14:58:51Z</time>
      </trkpt>
      <trkpt lat="42.644523" lon="0.423834">
        <ele>2959.000000</ele>
        <time>2021-09-04T14:58:52Z</time>
      </trkpt>
      <trkpt lat="42.644525" lon="0.423831">
        <ele>2959.000000</ele>
        <time>2021-09-04T14:58:53Z</time>
      </trkpt>
      <trkpt lat="42.644530" lon="0.423829">
        <ele>2959.000000</ele>
        <time>2021-09-04T14:58:54Z</time>
      </trkpt>
      <trkpt lat="42.644537" lon="0.423826">
        <ele>2959.000000</ele>
        <time>2021-09-04T14:58:55Z</time>
      </trkpt>
      <trkpt lat="42.644543" lon="0.423825">
        <ele>2959.000000</ele>
        <time>2021-09-04T14:58:56Z</time>
      </trkpt>
      <trkpt lat="42.644548" lon="0.423824">
        <ele>2959.000000</ele>
        <time>2021-09-04T14:58:57Z</time>
      </trkpt>
      <trkpt lat="42.644553" lon="0.423824">
        <ele>2959.000000</ele>
        <time>2021-09-04T14:58:58Z</time>
      </trkpt>
      <trkpt lat="42.644560" lon="0.423825">
        <ele>2959.000000</ele>
        <time>2021-09-04T14:58:59Z</time>
      </trkpt>
      <trkpt lat="42.644563" lon="0.423838">
        <ele>2959.000000</ele>
        <time>2021-09-04T14:59:00Z</time>
      </trkpt>
      <trkpt lat="42.644567" lon="0.423847">
        <ele>2960.000000</ele>
        <time>2021-09-04T14:59:01Z</time>
      </trkpt>
      <trkpt lat="42.644577" lon="0.423852">
        <ele>2960.000000</ele>
        <time>2021-09-04T14:59:02Z</time>
      </trkpt>
      <trkpt lat="42.644585" lon="0.423860">
        <ele>2960.000000</ele>
        <time>2021-09-04T14:59:03Z</time>
      </trkpt>
      <trkpt lat="42.644597" lon="0.423866">
        <ele>2960.000000</ele>
        <time>2021-09-04T14:59:04Z</time>
      </trkpt>
      <trkpt lat="42.644602" lon="0.423868">
        <ele>2960.000000</ele>
        <time>2021-09-04T14:59:05Z</time>
      </trkpt>
      <trkpt lat="42.644607" lon="0.423873">
        <ele>2960.000000</ele>
        <time>2021-09-04T14:59:06Z</time>
      </trkpt>
      <trkpt lat="42.644613" lon="0.423878">
        <ele>2960.000000</ele>
        <time>2021-09-04T14:59:07Z</time>
      </trkpt>
      <trkpt lat="42.644623" lon="0.423887">
        <ele>2960.000000</ele>
        <time>2021-09-04T14:59:08Z</time>
      </trkpt>
      <trkpt lat="42.644632" lon="0.423897">
        <ele>2960.000000</ele>
        <time>2021-09-04T14:59:09Z</time>
      </trkpt>
      <trkpt lat="42.644638" lon="0.423908">
        <ele>2960.000000</ele>
        <time>2021-09-04T14:59:10Z</time>
      </trkpt>
      <trkpt lat="42.644645" lon="0.423912">
        <ele>2960.000000</ele>
        <time>2021-09-04T14:59:11Z</time>
      </trkpt>
      <trkpt lat="42.644655" lon="0.423906">
        <ele>2960.000000</ele>
        <time>2021-09-04T14:59:12Z</time>
      </trkpt>
      <trkpt lat="42.644663" lon="0.423907">
        <ele>2960.000000</ele>
        <time>2021-09-04T14:59:13Z</time>
      </trkpt>
      <trkpt lat="42.644670" lon="0.423907">
        <ele>2960.000000</ele>
        <time>2021-09-04T14:59:14Z</time>
      </trkpt>
      <trkpt lat="42.644678" lon="0.423909">
        <ele>2960.000000</ele>
        <time>2021-09-04T14:59:15Z</time>
      </trkpt>
      <trkpt lat="42.644692" lon="0.423916">
        <ele>2960.000000</ele>
        <time>2021-09-04T14:59:16Z</time>
      </trkpt>
      <trkpt lat="42.644700" lon="0.423923">
        <ele>2960.000000</ele>
        <time>2021-09-04T14:59:17Z</time>
      </trkpt>
      <trkpt lat="42.644712" lon="0.423929">
        <ele>2960.000000</ele>
        <time>2021-09-04T14:59:18Z</time>
      </trkpt>
      <trkpt lat="42.644725" lon="0.423938">
        <ele>2960.000000</ele>
        <time>2021-09-04T14:59:19Z</time>
      </trkpt>
      <trkpt lat="42.644738" lon="0.423947">
        <ele>2960.000000</ele>
        <time>2021-09-04T14:59:20Z</time>
      </trkpt>
      <trkpt lat="42.644745" lon="0.423954">
        <ele>2961.000000</ele>
        <time>2021-09-04T14:59:21Z</time>
      </trkpt>
      <trkpt lat="42.644752" lon="0.423960">
        <ele>2961.000000</ele>
        <time>2021-09-04T14:59:22Z</time>
      </trkpt>
      <trkpt lat="42.644757" lon="0.423966">
        <ele>2961.000000</ele>
        <time>2021-09-04T14:59:23Z</time>
      </trkpt>
      <trkpt lat="42.644765" lon="0.423973">
        <ele>2961.000000</ele>
        <time>2021-09-04T14:59:24Z</time>
      </trkpt>
      <trkpt lat="42.644765" lon="0.423975">
        <ele>2961.000000</ele>
        <time>2021-09-04T14:59:25Z</time>
      </trkpt>
      <trkpt lat="42.644770" lon="0.423980">
        <ele>2961.000000</ele>
        <time>2021-09-04T14:59:26Z</time>
      </trkpt>
      <trkpt lat="42.644782" lon="0.423988">
        <ele>2961.000000</ele>
        <time>2021-09-04T14:59:28Z</time>
      </trkpt>
      <trkpt lat="42.644787" lon="0.423991">
        <ele>2961.000000</ele>
        <time>2021-09-04T14:59:29Z</time>
      </trkpt>
      <trkpt lat="42.644795" lon="0.423995">
        <ele>2961.000000</ele>
        <time>2021-09-04T14:59:31Z</time>
      </trkpt>
      <trkpt lat="42.644798" lon="0.423996">
        <ele>2961.000000</ele>
        <time>2021-09-04T14:59:31Z</time>
      </trkpt>
      <trkpt lat="42.644805" lon="0.423998">
        <ele>2961.000000</ele>
        <time>2021-09-04T14:59:32Z</time>
      </trkpt>
      <trkpt lat="42.644810" lon="0.423998">
        <ele>2961.000000</ele>
        <time>2021-09-04T14:59:33Z</time>
      </trkpt>
      <trkpt lat="42.644815" lon="0.423999">
        <ele>2961.000000</ele>
        <time>2021-09-04T14:59:34Z</time>
      </trkpt>
      <trkpt lat="42.644825" lon="0.424001">
        <ele>2961.000000</ele>
        <time>2021-09-04T14:59:35Z</time>
      </trkpt>
      <trkpt lat="42.644832" lon="0.424001">
        <ele>2961.000000</ele>
        <time>2021-09-04T14:59:36Z</time>
      </trkpt>
      <trkpt lat="42.644840" lon="0.424001">
        <ele>2961.000000</ele>
        <time>2021-09-04T14:59:37Z</time>
      </trkpt>
      <trkpt lat="42.644845" lon="0.423999">
        <ele>2961.000000</ele>
        <time>2021-09-04T14:59:38Z</time>
      </trkpt>
      <trkpt lat="42.644850" lon="0.423997">
        <ele>2961.000000</ele>
        <time>2021-09-04T14:59:39Z</time>
      </trkpt>
      <trkpt lat="42.644855" lon="0.423995">
        <ele>2960.000000</ele>
        <time>2021-09-04T14:59:40Z</time>
      </trkpt>
      <trkpt lat="42.644858" lon="0.423992">
        <ele>2960.000000</ele>
        <time>2021-09-04T14:59:41Z</time>
      </trkpt>
      <trkpt lat="42.644860" lon="0.423989">
        <ele>2960.000000</ele>
        <time>2021-09-04T14:59:42Z</time>
      </trkpt>
      <trkpt lat="42.644862" lon="0.423986">
        <ele>2960.000000</ele>
        <time>2021-09-04T14:59:43Z</time>
      </trkpt>
      <trkpt lat="42.644865" lon="0.423983">
        <ele>2960.000000</ele>
        <time>2021-09-04T14:59:44Z</time>
      </trkpt>
      <trkpt lat="42.644862" lon="0.423980">
        <ele>2960.000000</ele>
        <time>2021-09-04T14:59:45Z</time>
      </trkpt>
      <trkpt lat="42.644860" lon="0.423976">
        <ele>2960.000000</ele>
        <time>2021-09-04T14:59:46Z</time>
      </trkpt>
      <trkpt lat="42.644857" lon="0.423973">
        <ele>2960.000000</ele>
        <time>2021-09-04T14:59:47Z</time>
      </trkpt>
      <trkpt lat="42.644858" lon="0.423972">
        <ele>2960.000000</ele>
        <time>2021-09-04T14:59:48Z</time>
      </trkpt>
      <trkpt lat="42.644860" lon="0.423971">
        <ele>2960.000000</ele>
        <time>2021-09-04T14:59:49Z</time>
      </trkpt>
      <trkpt lat="42.644855" lon="0.423969">
        <ele>2961.000000</ele>
        <time>2021-09-04T14:59:51Z</time>
      </trkpt>
      <trkpt lat="42.644853" lon="0.423968">
        <ele>2961.000000</ele>
        <time>2021-09-04T14:59:52Z</time>
      </trkpt>
      <trkpt lat="42.644850" lon="0.423967">
        <ele>2962.000000</ele>
        <time>2021-09-04T14:59:54Z</time>
      </trkpt>
      <trkpt lat="42.644850" lon="0.423967">
        <ele>2962.000000</ele>
        <time>2021-09-04T14:59:56Z</time>
      </trkpt>
      <trkpt lat="42.644852" lon="0.423966">
        <ele>2963.000000</ele>
        <time>2021-09-04T14:59:57Z</time>
      </trkpt>
      <trkpt lat="42.644855" lon="0.423967">
        <ele>2963.000000</ele>
        <time>2021-09-04T14:59:59Z</time>
      </trkpt>
      <trkpt lat="42.644853" lon="0.423966">
        <ele>2963.000000</ele>
        <time>2021-09-04T15:00:00Z</time>
      </trkpt>
      <trkpt lat="42.644973" lon="0.423958">
        <ele>2966.000000</ele>
        <time>2021-09-04T15:00:32Z</time>
      </trkpt>
      <trkpt lat="42.644978" lon="0.423958">
        <ele>2966.000000</ele>
        <time>2021-09-04T15:00:33Z</time>
      </trkpt>
      <trkpt lat="42.644987" lon="0.423958">
        <ele>2966.000000</ele>
        <time>2021-09-04T15:00:34Z</time>
      </trkpt>
      <trkpt lat="42.644992" lon="0.423957">
        <ele>2966.000000</ele>
        <time>2021-09-04T15:00:35Z</time>
      </trkpt>
      <trkpt lat="42.644998" lon="0.423957">
        <ele>2967.000000</ele>
        <time>2021-09-04T15:00:36Z</time>
      </trkpt>
      <trkpt lat="42.645002" lon="0.423955">
        <ele>2967.000000</ele>
        <time>2021-09-04T15:00:37Z</time>
      </trkpt>
      <trkpt lat="42.645008" lon="0.423956">
        <ele>2967.000000</ele>
        <time>2021-09-04T15:00:38Z</time>
      </trkpt>
      <trkpt lat="42.645013" lon="0.423956">
        <ele>2967.000000</ele>
        <time>2021-09-04T15:00:39Z</time>
      </trkpt>
      <trkpt lat="42.645015" lon="0.423955">
        <ele>2967.000000</ele>
        <time>2021-09-04T15:00:40Z</time>
      </trkpt>
      <trkpt lat="42.645018" lon="0.423955">
        <ele>2967.000000</ele>
        <time>2021-09-04T15:00:41Z</time>
      </trkpt>
      <trkpt lat="42.645023" lon="0.423955">
        <ele>2967.000000</ele>
        <time>2021-09-04T15:00:42Z</time>
      </trkpt>
      <trkpt lat="42.645028" lon="0.423957">
        <ele>2967.000000</ele>
        <time>2021-09-04T15:00:44Z</time>
      </trkpt>
      <trkpt lat="42.645038" lon="0.423957">
        <ele>2968.000000</ele>
        <time>2021-09-04T15:00:47Z</time>
      </trkpt>
      <trkpt lat="42.645043" lon="0.423958">
        <ele>2968.000000</ele>
        <time>2021-09-04T15:00:48Z</time>
      </trkpt>
      <trkpt lat="42.645047" lon="0.423959">
        <ele>2968.000000</ele>
        <time>2021-09-04T15:00:49Z</time>
      </trkpt>
      <trkpt lat="42.645048" lon="0.423960">
        <ele>2969.000000</ele>
        <time>2021-09-04T15:00:50Z</time>
      </trkpt>
      <trkpt lat="42.645050" lon="0.423962">
        <ele>2969.000000</ele>
        <time>2021-09-04T15:00:51Z</time>
      </trkpt>
      <trkpt lat="42.645048" lon="0.423962">
        <ele>2969.000000</ele>
        <time>2021-09-04T15:00:52Z</time>
      </trkpt>
      <trkpt lat="42.645052" lon="0.423961">
        <ele>2969.000000</ele>
        <time>2021-09-04T15:00:53Z</time>
      </trkpt>
      <trkpt lat="42.645055" lon="0.423961">
        <ele>2969.000000</ele>
        <time>2021-09-04T15:00:54Z</time>
      </trkpt>
      <trkpt lat="42.645055" lon="0.423953">
        <ele>2969.000000</ele>
        <time>2021-09-04T15:00:55Z</time>
      </trkpt>
      <trkpt lat="42.645055" lon="0.423950">
        <ele>2969.000000</ele>
        <time>2021-09-04T15:00:56Z</time>
      </trkpt>
      <trkpt lat="42.645053" lon="0.423948">
        <ele>2969.000000</ele>
        <time>2021-09-04T15:00:57Z</time>
      </trkpt>
      <trkpt lat="42.645057" lon="0.423943">
        <ele>2969.000000</ele>
        <time>2021-09-04T15:01:01Z</time>
      </trkpt>
      <trkpt lat="42.645059" lon="0.423942">
        <ele>2969.000000</ele>
        <time>2021-09-04T15:01:01Z</time>
      </trkpt>
      <trkpt lat="42.645063" lon="0.423940">
        <ele>2969.000000</ele>
        <time>2021-09-04T15:01:03Z</time>
      </trkpt>
      <trkpt lat="42.645060" lon="0.423940">
        <ele>2969.000000</ele>
        <time>2021-09-04T15:01:04Z</time>
      </trkpt>
      <trkpt lat="42.645058" lon="0.423939">
        <ele>2969.000000</ele>
        <time>2021-09-04T15:01:05Z</time>
      </trkpt>
      <trkpt lat="42.645058" lon="0.423932">
        <ele>2969.000000</ele>
        <time>2021-09-04T15:01:07Z</time>
      </trkpt>
      <trkpt lat="42.645058" lon="0.423927">
        <ele>2969.000000</ele>
        <time>2021-09-04T15:01:08Z</time>
      </trkpt>
      <trkpt lat="42.645059" lon="0.423928">
        <ele>2970.000000</ele>
        <time>2021-09-04T15:01:09Z</time>
      </trkpt>
      <trkpt lat="42.645061" lon="0.423927">
        <ele>2970.000000</ele>
        <time>2021-09-04T15:01:10Z</time>
      </trkpt>
      <trkpt lat="42.645064" lon="0.423923">
        <ele>2970.000000</ele>
        <time>2021-09-04T15:01:11Z</time>
      </trkpt>
      <trkpt lat="42.645066" lon="0.423918">
        <ele>2970.000000</ele>
        <time>2021-09-04T15:01:12Z</time>
      </trkpt>
      <trkpt lat="42.645067" lon="0.423917">
        <ele>2970.000000</ele>
        <time>2021-09-04T15:01:13Z</time>
      </trkpt>
      <trkpt lat="42.645066" lon="0.423918">
        <ele>2970.000000</ele>
        <time>2021-09-04T15:01:14Z</time>
      </trkpt>
      <trkpt lat="42.645065" lon="0.423920">
        <ele>2970.000000</ele>
        <time>2021-09-04T15:01:15Z</time>
      </trkpt>
      <trkpt lat="42.645064" lon="0.423923">
        <ele>2971.000000</ele>
        <time>2021-09-04T15:01:16Z</time>
      </trkpt>
      <trkpt lat="42.645127" lon="0.423927">
        <ele>2971.000000</ele>
        <time>2021-09-04T15:02:49Z</time>
      </trkpt>
      <trkpt lat="42.645133" lon="0.423932">
        <ele>2971.000000</ele>
        <time>2021-09-04T15:02:50Z</time>
      </trkpt>
      <trkpt lat="42.645138" lon="0.423935">
        <ele>2971.000000</ele>
        <time>2021-09-04T15:02:51Z</time>
      </trkpt>
      <trkpt lat="42.645150" lon="0.423940">
        <ele>2971.000000</ele>
        <time>2021-09-04T15:02:52Z</time>
      </trkpt>
      <trkpt lat="42.645158" lon="0.423946">
        <ele>2971.000000</ele>
        <time>2021-09-04T15:02:53Z</time>
      </trkpt>
      <trkpt lat="42.645163" lon="0.423951">
        <ele>2971.000000</ele>
        <time>2021-09-04T15:02:54Z</time>
      </trkpt>
      <trkpt lat="42.645168" lon="0.423955">
        <ele>2971.000000</ele>
        <time>2021-09-04T15:02:55Z</time>
      </trkpt>
      <trkpt lat="42.645173" lon="0.423956">
        <ele>2971.000000</ele>
        <time>2021-09-04T15:02:56Z</time>
      </trkpt>
      <trkpt lat="42.645182" lon="0.423959">
        <ele>2971.000000</ele>
        <time>2021-09-04T15:02:57Z</time>
      </trkpt>
      <trkpt lat="42.645185" lon="0.423959">
        <ele>2971.000000</ele>
        <time>2021-09-04T15:02:58Z</time>
      </trkpt>
      <trkpt lat="42.645190" lon="0.423961">
        <ele>2971.000000</ele>
        <time>2021-09-04T15:02:59Z</time>
      </trkpt>
      <trkpt lat="42.645198" lon="0.423963">
        <ele>2971.000000</ele>
        <time>2021-09-04T15:03:00Z</time>
      </trkpt>
      <trkpt lat="42.645203" lon="0.423965">
        <ele>2971.000000</ele>
        <time>2021-09-04T15:03:01Z</time>
      </trkpt>
      <trkpt lat="42.645210" lon="0.423966">
        <ele>2971.000000</ele>
        <time>2021-09-04T15:03:02Z</time>
      </trkpt>
      <trkpt lat="42.645217" lon="0.423968">
        <ele>2971.000000</ele>
        <time>2021-09-04T15:03:03Z</time>
      </trkpt>
      <trkpt lat="42.645225" lon="0.423969">
        <ele>2971.000000</ele>
        <time>2021-09-04T15:03:04Z</time>
      </trkpt>
      <trkpt lat="42.645228" lon="0.423969">
        <ele>2971.000000</ele>
        <time>2021-09-04T15:03:05Z</time>
      </trkpt>
      <trkpt lat="42.645233" lon="0.423963">
        <ele>2971.000000</ele>
        <time>2021-09-04T15:03:06Z</time>
      </trkpt>
      <trkpt lat="42.645238" lon="0.423963">
        <ele>2971.000000</ele>
        <time>2021-09-04T15:03:07Z</time>
      </trkpt>
      <trkpt lat="42.645242" lon="0.423967">
        <ele>2971.000000</ele>
        <time>2021-09-04T15:03:08Z</time>
      </trkpt>
      <trkpt lat="42.645243" lon="0.423970">
        <ele>2971.000000</ele>
        <time>2021-09-04T15:03:09Z</time>
      </trkpt>
      <trkpt lat="42.645247" lon="0.423970">
        <ele>2971.000000</ele>
        <time>2021-09-04T15:03:10Z</time>
      </trkpt>
      <trkpt lat="42.645252" lon="0.423970">
        <ele>2971.000000</ele>
        <time>2021-09-04T15:03:11Z</time>
      </trkpt>
      <trkpt lat="42.645258" lon="0.423969">
        <ele>2971.000000</ele>
        <time>2021-09-04T15:03:12Z</time>
      </trkpt>
      <trkpt lat="42.645263" lon="0.423970">
        <ele>2971.000000</ele>
        <time>2021-09-04T15:03:13Z</time>
      </trkpt>
      <trkpt lat="42.645268" lon="0.423971">
        <ele>2971.000000</ele>
        <time>2021-09-04T15:03:14Z</time>
      </trkpt>
      <trkpt lat="42.645272" lon="0.423972">
        <ele>2971.000000</ele>
        <time>2021-09-04T15:03:15Z</time>
      </trkpt>
      <trkpt lat="42.645280" lon="0.423974">
        <ele>2971.000000</ele>
        <time>2021-09-04T15:03:16Z</time>
      </trkpt>
      <trkpt lat="42.645290" lon="0.423978">
        <ele>2971.000000</ele>
        <time>2021-09-04T15:03:17Z</time>
      </trkpt>
      <trkpt lat="42.645300" lon="0.423987">
        <ele>2971.000000</ele>
        <time>2021-09-04T15:03:18Z</time>
      </trkpt>
      <trkpt lat="42.645305" lon="0.423992">
        <ele>2971.000000</ele>
        <time>2021-09-04T15:03:19Z</time>
      </trkpt>
      <trkpt lat="42.645307" lon="0.423997">
        <ele>2971.000000</ele>
        <time>2021-09-04T15:03:20Z</time>
      </trkpt>
      <trkpt lat="42.645312" lon="0.424003">
        <ele>2971.000000</ele>
        <time>2021-09-04T15:03:21Z</time>
      </trkpt>
      <trkpt lat="42.645315" lon="0.424008">
        <ele>2971.000000</ele>
        <time>2021-09-04T15:03:22Z</time>
      </trkpt>
      <trkpt lat="42.645317" lon="0.424013">
        <ele>2971.000000</ele>
        <time>2021-09-04T15:03:23Z</time>
      </trkpt>
      <trkpt lat="42.645318" lon="0.424038">
        <ele>2971.000000</ele>
        <time>2021-09-04T15:03:24Z</time>
      </trkpt>
      <trkpt lat="42.645323" lon="0.424048">
        <ele>2971.000000</ele>
        <time>2021-09-04T15:03:25Z</time>
      </trkpt>
      <trkpt lat="42.645325" lon="0.424055">
        <ele>2971.000000</ele>
        <time>2021-09-04T15:03:26Z</time>
      </trkpt>
      <trkpt lat="42.645323" lon="0.424062">
        <ele>2971.000000</ele>
        <time>2021-09-04T15:03:27Z</time>
      </trkpt>
      <trkpt lat="42.645323" lon="0.424067">
        <ele>2971.000000</ele>
        <time>2021-09-04T15:03:28Z</time>
      </trkpt>
      <trkpt lat="42.645328" lon="0.424077">
        <ele>2971.000000</ele>
        <time>2021-09-04T15:03:29Z</time>
      </trkpt>
      <trkpt lat="42.645329" lon="0.424080">
        <ele>2971.000000</ele>
        <time>2021-09-04T15:03:30Z</time>
      </trkpt>
      <trkpt lat="42.645333" lon="0.424088">
        <ele>2971.000000</ele>
        <time>2021-09-04T15:03:31Z</time>
      </trkpt>
      <trkpt lat="42.645336" lon="0.424093">
        <ele>2971.000000</ele>
        <time>2021-09-04T15:03:32Z</time>
      </trkpt>
      <trkpt lat="42.645339" lon="0.424098">
        <ele>2971.000000</ele>
        <time>2021-09-04T15:03:33Z</time>
      </trkpt>
      <trkpt lat="42.645343" lon="0.424103">
        <ele>2971.000000</ele>
        <time>2021-09-04T15:03:34Z</time>
      </trkpt>
      <trkpt lat="42.645343" lon="0.424103">
        <ele>2971.000000</ele>
        <time>2021-09-04T15:03:37Z</time>
      </trkpt>
      <trkpt lat="42.645342" lon="0.424108">
        <ele>2971.000000</ele>
        <time>2021-09-04T15:03:39Z</time>
      </trkpt>
      <trkpt lat="42.645340" lon="0.424113">
        <ele>2971.000000</ele>
        <time>2021-09-04T15:03:40Z</time>
      </trkpt>
      <trkpt lat="42.645339" lon="0.424115">
        <ele>2971.000000</ele>
        <time>2021-09-04T15:03:41Z</time>
      </trkpt>
      <trkpt lat="42.645340" lon="0.424113">
        <ele>2971.000000</ele>
        <time>2021-09-04T15:03:42Z</time>
      </trkpt>
      <trkpt lat="42.645343" lon="0.424113">
        <ele>2971.000000</ele>
        <time>2021-09-04T15:03:43Z</time>
      </trkpt>
      <trkpt lat="42.645350" lon="0.424113">
        <ele>2971.000000</ele>
        <time>2021-09-04T15:03:44Z</time>
      </trkpt>
      <trkpt lat="42.645355" lon="0.424114">
        <ele>2971.000000</ele>
        <time>2021-09-04T15:03:45Z</time>
      </trkpt>
      <trkpt lat="42.645357" lon="0.424117">
        <ele>2971.000000</ele>
        <time>2021-09-04T15:03:46Z</time>
      </trkpt>
      <trkpt lat="42.645360" lon="0.424118">
        <ele>2971.000000</ele>
        <time>2021-09-04T15:03:47Z</time>
      </trkpt>
      <trkpt lat="42.645358" lon="0.424119">
        <ele>2971.000000</ele>
        <time>2021-09-04T15:03:50Z</time>
      </trkpt>
      <trkpt lat="42.645358" lon="0.424119">
        <ele>2971.000000</ele>
        <time>2021-09-04T15:03:52Z</time>
      </trkpt>
      <trkpt lat="42.645385" lon="0.424147">
        <ele>2987.000000</ele>
        <time>2021-09-04T15:06:45Z</time>
      </trkpt>
      <trkpt lat="42.645702" lon="0.424387">
        <ele>2990.000000</ele>
        <time>2021-09-04T15:06:52Z</time>
      </trkpt>
      <trkpt lat="42.645705" lon="0.424392">
        <ele>2990.000000</ele>
        <time>2021-09-04T15:06:53Z</time>
      </trkpt>
      <trkpt lat="42.645712" lon="0.424398">
        <ele>2990.000000</ele>
        <time>2021-09-04T15:06:54Z</time>
      </trkpt>
      <trkpt lat="42.645715" lon="0.424403">
        <ele>2990.000000</ele>
        <time>2021-09-04T15:06:55Z</time>
      </trkpt>
      <trkpt lat="42.645720" lon="0.424408">
        <ele>2991.000000</ele>
        <time>2021-09-04T15:06:56Z</time>
      </trkpt>
      <trkpt lat="42.645723" lon="0.424410">
        <ele>2991.000000</ele>
        <time>2021-09-04T15:06:57Z</time>
      </trkpt>
      <trkpt lat="42.645727" lon="0.424412">
        <ele>2991.000000</ele>
        <time>2021-09-04T15:06:58Z</time>
      </trkpt>
      <trkpt lat="42.645730" lon="0.424414">
        <ele>2991.000000</ele>
        <time>2021-09-04T15:06:59Z</time>
      </trkpt>
      <trkpt lat="42.645733" lon="0.424416">
        <ele>2991.000000</ele>
        <time>2021-09-04T15:07:00Z</time>
      </trkpt>
      <trkpt lat="42.645740" lon="0.424418">
        <ele>2992.000000</ele>
        <time>2021-09-04T15:07:01Z</time>
      </trkpt>
      <trkpt lat="42.645745" lon="0.424421">
        <ele>2992.000000</ele>
        <time>2021-09-04T15:07:02Z</time>
      </trkpt>
      <trkpt lat="42.645747" lon="0.424422">
        <ele>2992.000000</ele>
        <time>2021-09-04T15:07:03Z</time>
      </trkpt>
      <trkpt lat="42.645748" lon="0.424425">
        <ele>2992.000000</ele>
        <time>2021-09-04T15:07:04Z</time>
      </trkpt>
      <trkpt lat="42.645750" lon="0.424435">
        <ele>2993.000000</ele>
        <time>2021-09-04T15:07:05Z</time>
      </trkpt>
      <trkpt lat="42.645755" lon="0.424437">
        <ele>2993.000000</ele>
        <time>2021-09-04T15:07:06Z</time>
      </trkpt>
      <trkpt lat="42.645760" lon="0.424438">
        <ele>2993.000000</ele>
        <time>2021-09-04T15:07:07Z</time>
      </trkpt>
      <trkpt lat="42.645767" lon="0.424440">
        <ele>2993.000000</ele>
        <time>2021-09-04T15:07:08Z</time>
      </trkpt>
      <trkpt lat="42.645768" lon="0.424444">
        <ele>2993.000000</ele>
        <time>2021-09-04T15:07:09Z</time>
      </trkpt>
      <trkpt lat="42.645770" lon="0.424445">
        <ele>2994.000000</ele>
        <time>2021-09-04T15:07:10Z</time>
      </trkpt>
      <trkpt lat="42.645772" lon="0.424451">
        <ele>2994.000000</ele>
        <time>2021-09-04T15:07:12Z</time>
      </trkpt>
      <trkpt lat="42.645775" lon="0.424455">
        <ele>2994.000000</ele>
        <time>2021-09-04T15:07:13Z</time>
      </trkpt>
      <trkpt lat="42.645778" lon="0.424457">
        <ele>2995.000000</ele>
        <time>2021-09-04T15:07:14Z</time>
      </trkpt>
      <trkpt lat="42.645783" lon="0.424458">
        <ele>2995.000000</ele>
        <time>2021-09-04T15:07:15Z</time>
      </trkpt>
      <trkpt lat="42.645785" lon="0.424459">
        <ele>2995.000000</ele>
        <time>2021-09-04T15:07:16Z</time>
      </trkpt>
      <trkpt lat="42.645788" lon="0.424461">
        <ele>2995.000000</ele>
        <time>2021-09-04T15:07:17Z</time>
      </trkpt>
      <trkpt lat="42.645793" lon="0.424464">
        <ele>2995.000000</ele>
        <time>2021-09-04T15:07:18Z</time>
      </trkpt>
      <trkpt lat="42.645797" lon="0.424467">
        <ele>2995.000000</ele>
        <time>2021-09-04T15:07:19Z</time>
      </trkpt>
      <trkpt lat="42.645800" lon="0.424468">
        <ele>2995.000000</ele>
        <time>2021-09-04T15:07:20Z</time>
      </trkpt>
      <trkpt lat="42.645803" lon="0.424470">
        <ele>2995.000000</ele>
        <time>2021-09-04T15:07:21Z</time>
      </trkpt>
      <trkpt lat="42.645808" lon="0.424472">
        <ele>2995.000000</ele>
        <time>2021-09-04T15:07:22Z</time>
      </trkpt>
      <trkpt lat="42.645817" lon="0.424476">
        <ele>2995.000000</ele>
        <time>2021-09-04T15:07:23Z</time>
      </trkpt>
      <trkpt lat="42.645825" lon="0.424479">
        <ele>2995.000000</ele>
        <time>2021-09-04T15:07:24Z</time>
      </trkpt>
      <trkpt lat="42.645828" lon="0.424480">
        <ele>2996.000000</ele>
        <time>2021-09-04T15:07:25Z</time>
      </trkpt>
      <trkpt lat="42.645832" lon="0.424480">
        <ele>2996.000000</ele>
        <time>2021-09-04T15:07:26Z</time>
      </trkpt>
      <trkpt lat="42.645837" lon="0.424483">
        <ele>2996.000000</ele>
        <time>2021-09-04T15:07:27Z</time>
      </trkpt>
      <trkpt lat="42.645842" lon="0.424487">
        <ele>2997.000000</ele>
        <time>2021-09-04T15:07:28Z</time>
      </trkpt>
      <trkpt lat="42.645850" lon="0.424492">
        <ele>2997.000000</ele>
        <time>2021-09-04T15:07:29Z</time>
      </trkpt>
      <trkpt lat="42.645853" lon="0.424494">
        <ele>2997.000000</ele>
        <time>2021-09-04T15:07:30Z</time>
      </trkpt>
      <trkpt lat="42.645857" lon="0.424496">
        <ele>2997.000000</ele>
        <time>2021-09-04T15:07:31Z</time>
      </trkpt>
      <trkpt lat="42.645860" lon="0.424503">
        <ele>2998.000000</ele>
        <time>2021-09-04T15:07:35Z</time>
      </trkpt>
      <trkpt lat="42.645862" lon="0.424507">
        <ele>2998.000000</ele>
        <time>2021-09-04T15:07:37Z</time>
      </trkpt>
      <trkpt lat="42.645862" lon="0.424509">
        <ele>2999.000000</ele>
        <time>2021-09-04T15:07:40Z</time>
      </trkpt>
      <trkpt lat="42.645860" lon="0.424504">
        <ele>3000.000000</ele>
        <time>2021-09-04T15:07:41Z</time>
      </trkpt>
      <trkpt lat="42.645978" lon="0.424623">
        <ele>3003.000000</ele>
        <time>2021-09-04T15:08:13Z</time>
      </trkpt>
      <trkpt lat="42.645980" lon="0.424631">
        <ele>3003.000000</ele>
        <time>2021-09-04T15:08:14Z</time>
      </trkpt>
      <trkpt lat="42.645982" lon="0.424638">
        <ele>3003.000000</ele>
        <time>2021-09-04T15:08:15Z</time>
      </trkpt>
      <trkpt lat="42.645982" lon="0.424642">
        <ele>3003.000000</ele>
        <time>2021-09-04T15:08:16Z</time>
      </trkpt>
      <trkpt lat="42.645980" lon="0.424648">
        <ele>3003.000000</ele>
        <time>2021-09-04T15:08:17Z</time>
      </trkpt>
      <trkpt lat="42.645983" lon="0.424655">
        <ele>3003.000000</ele>
        <time>2021-09-04T15:08:18Z</time>
      </trkpt>
      <trkpt lat="42.645987" lon="0.424660">
        <ele>3003.000000</ele>
        <time>2021-09-04T15:08:19Z</time>
      </trkpt>
      <trkpt lat="42.645988" lon="0.424662">
        <ele>3003.000000</ele>
        <time>2021-09-04T15:08:20Z</time>
      </trkpt>
      <trkpt lat="42.645993" lon="0.424667">
        <ele>3003.000000</ele>
        <time>2021-09-04T15:08:21Z</time>
      </trkpt>
      <trkpt lat="42.645997" lon="0.424675">
        <ele>3003.000000</ele>
        <time>2021-09-04T15:08:22Z</time>
      </trkpt>
      <trkpt lat="42.645998" lon="0.424680">
        <ele>3003.000000</ele>
        <time>2021-09-04T15:08:23Z</time>
      </trkpt>
      <trkpt lat="42.645999" lon="0.424687">
        <ele>3003.000000</ele>
        <time>2021-09-04T15:08:24Z</time>
      </trkpt>
      <trkpt lat="42.646000" lon="0.424693">
        <ele>3003.000000</ele>
        <time>2021-09-04T15:08:25Z</time>
      </trkpt>
      <trkpt lat="42.646002" lon="0.424695">
        <ele>3003.000000</ele>
        <time>2021-09-04T15:08:26Z</time>
      </trkpt>
      <trkpt lat="42.646002" lon="0.424698">
        <ele>3003.000000</ele>
        <time>2021-09-04T15:08:27Z</time>
      </trkpt>
      <trkpt lat="42.646002" lon="0.424702">
        <ele>3003.000000</ele>
        <time>2021-09-04T15:08:28Z</time>
      </trkpt>
      <trkpt lat="42.646001" lon="0.424705">
        <ele>3003.000000</ele>
        <time>2021-09-04T15:08:30Z</time>
      </trkpt>
      <trkpt lat="42.646003" lon="0.424708">
        <ele>3003.000000</ele>
        <time>2021-09-04T15:08:31Z</time>
      </trkpt>
      <trkpt lat="42.646005" lon="0.424712">
        <ele>3003.000000</ele>
        <time>2021-09-04T15:08:32Z</time>
      </trkpt>
      <trkpt lat="42.646007" lon="0.424717">
        <ele>3003.000000</ele>
        <time>2021-09-04T15:08:33Z</time>
      </trkpt>
      <trkpt lat="42.646009" lon="0.424722">
        <ele>3003.000000</ele>
        <time>2021-09-04T15:08:34Z</time>
      </trkpt>
      <trkpt lat="42.646011" lon="0.424723">
        <ele>3005.000000</ele>
        <time>2021-09-04T15:08:35Z</time>
      </trkpt>
      <trkpt lat="42.646013" lon="0.424723">
        <ele>3005.000000</ele>
        <time>2021-09-04T15:08:36Z</time>
      </trkpt>
      <trkpt lat="42.646020" lon="0.424722">
        <ele>3005.000000</ele>
        <time>2021-09-04T15:08:37Z</time>
      </trkpt>
      <trkpt lat="42.646022" lon="0.424717">
        <ele>3005.000000</ele>
        <time>2021-09-04T15:08:38Z</time>
      </trkpt>
      <trkpt lat="42.646025" lon="0.424715">
        <ele>3005.000000</ele>
        <time>2021-09-04T15:08:40Z</time>
      </trkpt>
      <trkpt lat="42.646028" lon="0.424713">
        <ele>3005.000000</ele>
        <time>2021-09-04T15:08:41Z</time>
      </trkpt>
      <trkpt lat="42.646032" lon="0.424718">
        <ele>3005.000000</ele>
        <time>2021-09-04T15:08:43Z</time>
      </trkpt>
      <trkpt lat="42.646037" lon="0.424717">
        <ele>3005.000000</ele>
        <time>2021-09-04T15:08:44Z</time>
      </trkpt>
      <trkpt lat="42.646042" lon="0.424713">
        <ele>3005.000000</ele>
        <time>2021-09-04T15:08:46Z</time>
      </trkpt>
      <trkpt lat="42.646043" lon="0.424711">
        <ele>3006.000000</ele>
        <time>2021-09-04T15:08:47Z</time>
      </trkpt>
      <trkpt lat="42.646050" lon="0.424708">
        <ele>3006.000000</ele>
        <time>2021-09-04T15:08:48Z</time>
      </trkpt>
      <trkpt lat="42.646058" lon="0.424705">
        <ele>3006.000000</ele>
        <time>2021-09-04T15:08:49Z</time>
      </trkpt>
      <trkpt lat="42.646067" lon="0.424708">
        <ele>3006.000000</ele>
        <time>2021-09-04T15:08:50Z</time>
      </trkpt>
      <trkpt lat="42.646072" lon="0.424710">
        <ele>3006.000000</ele>
        <time>2021-09-04T15:08:51Z</time>
      </trkpt>
      <trkpt lat="42.646082" lon="0.424711">
        <ele>3006.000000</ele>
        <time>2021-09-04T15:08:52Z</time>
      </trkpt>
      <trkpt lat="42.646087" lon="0.424711">
        <ele>3006.000000</ele>
        <time>2021-09-04T15:08:53Z</time>
      </trkpt>
      <trkpt lat="42.646090" lon="0.424712">
        <ele>3006.000000</ele>
        <time>2021-09-04T15:08:54Z</time>
      </trkpt>
      <trkpt lat="42.646097" lon="0.424716">
        <ele>3006.000000</ele>
        <time>2021-09-04T15:08:56Z</time>
      </trkpt>
      <trkpt lat="42.646102" lon="0.424717">
        <ele>3006.000000</ele>
        <time>2021-09-04T15:08:57Z</time>
      </trkpt>
      <trkpt lat="42.646105" lon="0.424719">
        <ele>3006.000000</ele>
        <time>2021-09-04T15:08:58Z</time>
      </trkpt>
      <trkpt lat="42.646107" lon="0.424719">
        <ele>3006.000000</ele>
        <time>2021-09-04T15:08:59Z</time>
      </trkpt>
      <trkpt lat="42.646108" lon="0.424718">
        <ele>3007.000000</ele>
        <time>2021-09-04T15:09:00Z</time>
      </trkpt>
      <trkpt lat="42.646110" lon="0.424717">
        <ele>3007.000000</ele>
        <time>2021-09-04T15:09:01Z</time>
      </trkpt>
      <trkpt lat="42.646112" lon="0.424717">
        <ele>3007.000000</ele>
        <time>2021-09-04T15:09:02Z</time>
      </trkpt>
      <trkpt lat="42.646115" lon="0.424716">
        <ele>3007.000000</ele>
        <time>2021-09-04T15:09:03Z</time>
      </trkpt>
      <trkpt lat="42.646118" lon="0.424716">
        <ele>3007.000000</ele>
        <time>2021-09-04T15:09:04Z</time>
      </trkpt>
      <trkpt lat="42.646120" lon="0.424717">
        <ele>3007.000000</ele>
        <time>2021-09-04T15:09:05Z</time>
      </trkpt>
      <trkpt lat="42.646118" lon="0.424728">
        <ele>3007.000000</ele>
        <time>2021-09-04T15:09:06Z</time>
      </trkpt>
      <trkpt lat="42.646115" lon="0.424733">
        <ele>3007.000000</ele>
        <time>2021-09-04T15:09:07Z</time>
      </trkpt>
      <trkpt lat="42.646117" lon="0.424738">
        <ele>3008.000000</ele>
        <time>2021-09-04T15:09:08Z</time>
      </trkpt>
      <trkpt lat="42.646120" lon="0.424740">
        <ele>3008.000000</ele>
        <time>2021-09-04T15:09:09Z</time>
      </trkpt>
      <trkpt lat="42.646125" lon="0.424742">
        <ele>3008.000000</ele>
        <time>2021-09-04T15:09:10Z</time>
      </trkpt>
      <trkpt lat="42.646130" lon="0.424743">
        <ele>3008.000000</ele>
        <time>2021-09-04T15:09:11Z</time>
      </trkpt>
      <trkpt lat="42.646137" lon="0.424743">
        <ele>3008.000000</ele>
        <time>2021-09-04T15:09:12Z</time>
      </trkpt>
      <trkpt lat="42.646143" lon="0.424743">
        <ele>3008.000000</ele>
        <time>2021-09-04T15:09:13Z</time>
      </trkpt>
      <trkpt lat="42.646150" lon="0.424745">
        <ele>3008.000000</ele>
        <time>2021-09-04T15:09:14Z</time>
      </trkpt>
      <trkpt lat="42.646158" lon="0.424743">
        <ele>3008.000000</ele>
        <time>2021-09-04T15:09:15Z</time>
      </trkpt>
      <trkpt lat="42.646165" lon="0.424743">
        <ele>3009.000000</ele>
        <time>2021-09-04T15:09:16Z</time>
      </trkpt>
      <trkpt lat="42.646170" lon="0.424747">
        <ele>3009.000000</ele>
        <time>2021-09-04T15:09:17Z</time>
      </trkpt>
      <trkpt lat="42.646175" lon="0.424754">
        <ele>3009.000000</ele>
        <time>2021-09-04T15:09:18Z</time>
      </trkpt>
      <trkpt lat="42.646180" lon="0.424757">
        <ele>3009.000000</ele>
        <time>2021-09-04T15:09:20Z</time>
      </trkpt>
      <trkpt lat="42.646182" lon="0.424755">
        <ele>3010.000000</ele>
        <time>2021-09-04T15:09:21Z</time>
      </trkpt>
      <trkpt lat="42.646188" lon="0.424751">
        <ele>3010.000000</ele>
        <time>2021-09-04T15:09:22Z</time>
      </trkpt>
      <trkpt lat="42.646195" lon="0.424750">
        <ele>3010.000000</ele>
        <time>2021-09-04T15:09:23Z</time>
      </trkpt>
      <trkpt lat="42.646203" lon="0.424745">
        <ele>3010.000000</ele>
        <time>2021-09-04T15:09:24Z</time>
      </trkpt>
      <trkpt lat="42.646208" lon="0.424737">
        <ele>3010.000000</ele>
        <time>2021-09-04T15:09:25Z</time>
      </trkpt>
      <trkpt lat="42.646213" lon="0.424730">
        <ele>3010.000000</ele>
        <time>2021-09-04T15:09:26Z</time>
      </trkpt>
      <trkpt lat="42.646215" lon="0.424723">
        <ele>3011.000000</ele>
        <time>2021-09-04T15:09:27Z</time>
      </trkpt>
      <trkpt lat="42.646222" lon="0.424718">
        <ele>3011.000000</ele>
        <time>2021-09-04T15:09:28Z</time>
      </trkpt>
      <trkpt lat="42.646228" lon="0.424713">
        <ele>3011.000000</ele>
        <time>2021-09-04T15:09:29Z</time>
      </trkpt>
      <trkpt lat="42.646235" lon="0.424708">
        <ele>3011.000000</ele>
        <time>2021-09-04T15:09:30Z</time>
      </trkpt>
      <trkpt lat="42.646238" lon="0.424706">
        <ele>3011.000000</ele>
        <time>2021-09-04T15:09:31Z</time>
      </trkpt>
      <trkpt lat="42.646243" lon="0.424700">
        <ele>3011.000000</ele>
        <time>2021-09-04T15:09:32Z</time>
      </trkpt>
      <trkpt lat="42.646248" lon="0.424694">
        <ele>3011.000000</ele>
        <time>2021-09-04T15:09:33Z</time>
      </trkpt>
      <trkpt lat="42.646255" lon="0.424687">
        <ele>3011.000000</ele>
        <time>2021-09-04T15:09:34Z</time>
      </trkpt>
      <trkpt lat="42.646263" lon="0.424681">
        <ele>3011.000000</ele>
        <time>2021-09-04T15:09:35Z</time>
      </trkpt>
      <trkpt lat="42.646268" lon="0.424680">
        <ele>3011.000000</ele>
        <time>2021-09-04T15:09:36Z</time>
      </trkpt>
      <trkpt lat="42.646272" lon="0.424678">
        <ele>3011.000000</ele>
        <time>2021-09-04T15:09:37Z</time>
      </trkpt>
      <trkpt lat="42.646275" lon="0.424674">
        <ele>3011.000000</ele>
        <time>2021-09-04T15:09:38Z</time>
      </trkpt>
      <trkpt lat="42.646280" lon="0.424669">
        <ele>3011.000000</ele>
        <time>2021-09-04T15:09:39Z</time>
      </trkpt>
      <trkpt lat="42.646283" lon="0.424664">
        <ele>3011.000000</ele>
        <time>2021-09-04T15:09:40Z</time>
      </trkpt>
      <trkpt lat="42.646290" lon="0.424657">
        <ele>3011.000000</ele>
        <time>2021-09-04T15:09:41Z</time>
      </trkpt>
      <trkpt lat="42.646302" lon="0.424647">
        <ele>3011.000000</ele>
        <time>2021-09-04T15:09:42Z</time>
      </trkpt>
      <trkpt lat="42.646312" lon="0.424640">
        <ele>3011.000000</ele>
        <time>2021-09-04T15:09:43Z</time>
      </trkpt>
      <trkpt lat="42.646322" lon="0.424638">
        <ele>3011.000000</ele>
        <time>2021-09-04T15:09:44Z</time>
      </trkpt>
      <trkpt lat="42.646332" lon="0.424633">
        <ele>3011.000000</ele>
        <time>2021-09-04T15:09:45Z</time>
      </trkpt>
      <trkpt lat="42.646338" lon="0.424632">
        <ele>3011.000000</ele>
        <time>2021-09-04T15:09:46Z</time>
      </trkpt>
      <trkpt lat="42.646343" lon="0.424625">
        <ele>3011.000000</ele>
        <time>2021-09-04T15:09:47Z</time>
      </trkpt>
      <trkpt lat="42.646348" lon="0.424620">
        <ele>3011.000000</ele>
        <time>2021-09-04T15:09:48Z</time>
      </trkpt>
      <trkpt lat="42.646352" lon="0.424616">
        <ele>3011.000000</ele>
        <time>2021-09-04T15:09:49Z</time>
      </trkpt>
      <trkpt lat="42.646358" lon="0.424612">
        <ele>3011.000000</ele>
        <time>2021-09-04T15:09:50Z</time>
      </trkpt>
      <trkpt lat="42.646365" lon="0.424607">
        <ele>3011.000000</ele>
        <time>2021-09-04T15:09:51Z</time>
      </trkpt>
      <trkpt lat="42.646372" lon="0.424602">
        <ele>3011.000000</ele>
        <time>2021-09-04T15:09:52Z</time>
      </trkpt>
      <trkpt lat="42.646380" lon="0.424599">
        <ele>3011.000000</ele>
        <time>2021-09-04T15:09:53Z</time>
      </trkpt>
      <trkpt lat="42.646387" lon="0.424597">
        <ele>3011.000000</ele>
        <time>2021-09-04T15:09:54Z</time>
      </trkpt>
      <trkpt lat="42.646393" lon="0.424595">
        <ele>3011.000000</ele>
        <time>2021-09-04T15:09:55Z</time>
      </trkpt>
      <trkpt lat="42.646400" lon="0.424594">
        <ele>3011.000000</ele>
        <time>2021-09-04T15:09:56Z</time>
      </trkpt>
      <trkpt lat="42.646407" lon="0.424593">
        <ele>3011.000000</ele>
        <time>2021-09-04T15:09:57Z</time>
      </trkpt>
      <trkpt lat="42.646415" lon="0.424591">
        <ele>3011.000000</ele>
        <time>2021-09-04T15:09:58Z</time>
      </trkpt>
      <trkpt lat="42.646422" lon="0.424590">
        <ele>3011.000000</ele>
        <time>2021-09-04T15:09:59Z</time>
      </trkpt>
      <trkpt lat="42.646428" lon="0.424589">
        <ele>3011.000000</ele>
        <time>2021-09-04T15:10:00Z</time>
      </trkpt>
      <trkpt lat="42.646433" lon="0.424588">
        <ele>3011.000000</ele>
        <time>2021-09-04T15:10:01Z</time>
      </trkpt>
      <trkpt lat="42.646437" lon="0.424587">
        <ele>3011.000000</ele>
        <time>2021-09-04T15:10:02Z</time>
      </trkpt>
      <trkpt lat="42.646440" lon="0.424586">
        <ele>3011.000000</ele>
        <time>2021-09-04T15:10:03Z</time>
      </trkpt>
      <trkpt lat="42.646442" lon="0.424587">
        <ele>3011.000000</ele>
        <time>2021-09-04T15:10:04Z</time>
      </trkpt>
      <trkpt lat="42.646440" lon="0.424588">
        <ele>3011.000000</ele>
        <time>2021-09-04T15:10:06Z</time>
      </trkpt>
      <trkpt lat="42.646440" lon="0.424588">
        <ele>3011.000000</ele>
        <time>2021-09-04T15:10:10Z</time>
      </trkpt>
      <trkpt lat="42.646442" lon="0.424588">
        <ele>3011.000000</ele>
        <time>2021-09-04T15:10:11Z</time>
      </trkpt>
      <trkpt lat="42.646447" lon="0.424586">
        <ele>3011.000000</ele>
        <time>2021-09-04T15:10:12Z</time>
      </trkpt>
      <trkpt lat="42.646448" lon="0.424586">
        <ele>3011.000000</ele>
        <time>2021-09-04T15:10:13Z</time>
      </trkpt>
      <trkpt lat="42.646453" lon="0.424585">
        <ele>3011.000000</ele>
        <time>2021-09-04T15:10:14Z</time>
      </trkpt>
      <trkpt lat="42.646457" lon="0.424584">
        <ele>3011.000000</ele>
        <time>2021-09-04T15:10:15Z</time>
      </trkpt>
      <trkpt lat="42.646462" lon="0.424583">
        <ele>3011.000000</ele>
        <time>2021-09-04T15:10:15Z</time>
      </trkpt>
      <trkpt lat="42.646467" lon="0.424581">
        <ele>3011.000000</ele>
        <time>2021-09-04T15:10:16Z</time>
      </trkpt>
      <trkpt lat="42.646472" lon="0.424580">
        <ele>3011.000000</ele>
        <time>2021-09-04T15:10:17Z</time>
      </trkpt>
      <trkpt lat="42.646478" lon="0.424579">
        <ele>3011.000000</ele>
        <time>2021-09-04T15:10:19Z</time>
      </trkpt>
      <trkpt lat="42.646480" lon="0.424579">
        <ele>3011.000000</ele>
        <time>2021-09-04T15:10:20Z</time>
      </trkpt>
      <trkpt lat="42.646482" lon="0.424579">
        <ele>3011.000000</ele>
        <time>2021-09-04T15:10:22Z</time>
      </trkpt>
      <trkpt lat="42.646482" lon="0.424580">
        <ele>3011.000000</ele>
        <time>2021-09-04T15:10:23Z</time>
      </trkpt>
      <trkpt lat="42.646482" lon="0.424579">
        <ele>3011.000000</ele>
        <time>2021-09-04T15:10:24Z</time>
      </trkpt>
      <trkpt lat="42.646480" lon="0.424570">
        <ele>3011.000000</ele>
        <time>2021-09-04T15:10:25Z</time>
      </trkpt>
      <trkpt lat="42.646482" lon="0.424572">
        <ele>3011.000000</ele>
        <time>2021-09-04T15:10:26Z</time>
      </trkpt>
      <trkpt lat="42.646483" lon="0.424570">
        <ele>3009.000000</ele>
        <time>2021-09-04T15:10:27Z</time>
      </trkpt>
      <trkpt lat="42.646485" lon="0.424567">
        <ele>3009.000000</ele>
        <time>2021-09-04T15:10:29Z</time>
      </trkpt>
      <trkpt lat="42.646490" lon="0.424563">
        <ele>3008.000000</ele>
        <time>2021-09-04T15:10:31Z</time>
      </trkpt>
      <trkpt lat="42.646493" lon="0.424563">
        <ele>3008.000000</ele>
        <time>2021-09-04T15:10:32Z</time>
      </trkpt>
      <trkpt lat="42.646495" lon="0.424562">
        <ele>3008.000000</ele>
        <time>2021-09-04T15:10:33Z</time>
      </trkpt>
      <trkpt lat="42.646497" lon="0.424560">
        <ele>3007.000000</ele>
        <time>2021-09-04T15:10:34Z</time>
      </trkpt>
      <trkpt lat="42.646502" lon="0.424557">
        <ele>3007.000000</ele>
        <time>2021-09-04T15:10:35Z</time>
      </trkpt>
      <trkpt lat="42.646507" lon="0.424557">
        <ele>3007.000000</ele>
        <time>2021-09-04T15:10:36Z</time>
      </trkpt>
      <trkpt lat="42.646508" lon="0.424558">
        <ele>3007.000000</ele>
        <time>2021-09-04T15:10:37Z</time>
      </trkpt>
      <trkpt lat="42.646512" lon="0.424555">
        <ele>3007.000000</ele>
        <time>2021-09-04T15:10:38Z</time>
      </trkpt>
      <trkpt lat="42.646517" lon="0.424557">
        <ele>3006.000000</ele>
        <time>2021-09-04T15:10:39Z</time>
      </trkpt>
      <trkpt lat="42.646520" lon="0.424555">
        <ele>3006.000000</ele>
        <time>2021-09-04T15:10:40Z</time>
      </trkpt>
      <trkpt lat="42.646525" lon="0.424553">
        <ele>3006.000000</ele>
        <time>2021-09-04T15:10:41Z</time>
      </trkpt>
      <trkpt lat="42.646530" lon="0.424549">
        <ele>3005.000000</ele>
        <time>2021-09-04T15:10:42Z</time>
      </trkpt>
      <trkpt lat="42.646533" lon="0.424545">
        <ele>3005.000000</ele>
        <time>2021-09-04T15:10:43Z</time>
      </trkpt>
      <trkpt lat="42.646538" lon="0.424541">
        <ele>3005.000000</ele>
        <time>2021-09-04T15:10:44Z</time>
      </trkpt>
      <trkpt lat="42.646542" lon="0.424538">
        <ele>3004.000000</ele>
        <time>2021-09-04T15:10:45Z</time>
      </trkpt>
      <trkpt lat="42.646548" lon="0.424538">
        <ele>3004.000000</ele>
        <time>2021-09-04T15:10:46Z</time>
      </trkpt>
      <trkpt lat="42.646553" lon="0.424540">
        <ele>3004.000000</ele>
        <time>2021-09-04T15:10:47Z</time>
      </trkpt>
      <trkpt lat="42.646557" lon="0.424548">
        <ele>3004.000000</ele>
        <time>2021-09-04T15:10:48Z</time>
      </trkpt>
      <trkpt lat="42.646565" lon="0.424555">
        <ele>3004.000000</ele>
        <time>2021-09-04T15:10:49Z</time>
      </trkpt>
      <trkpt lat="42.646570" lon="0.424558">
        <ele>3004.000000</ele>
        <time>2021-09-04T15:10:50Z</time>
      </trkpt>
      <trkpt lat="42.646578" lon="0.424562">
        <ele>3003.000000</ele>
        <time>2021-09-04T15:10:51Z</time>
      </trkpt>
      <trkpt lat="42.646585" lon="0.424562">
        <ele>3003.000000</ele>
        <time>2021-09-04T15:10:52Z</time>
      </trkpt>
      <trkpt lat="42.646590" lon="0.424563">
        <ele>3003.000000</ele>
        <time>2021-09-04T15:10:53Z</time>
      </trkpt>
      <trkpt lat="42.646597" lon="0.424566">
        <ele>3003.000000</ele>
        <time>2021-09-04T15:10:54Z</time>
      </trkpt>
      <trkpt lat="42.646607" lon="0.424571">
        <ele>3003.000000</ele>
        <time>2021-09-04T15:10:55Z</time>
      </trkpt>
      <trkpt lat="42.646613" lon="0.424573">
        <ele>3003.000000</ele>
        <time>2021-09-04T15:10:56Z</time>
      </trkpt>
      <trkpt lat="42.646620" lon="0.424578">
        <ele>3003.000000</ele>
        <time>2021-09-04T15:10:57Z</time>
      </trkpt>
      <trkpt lat="42.646625" lon="0.424582">
        <ele>3003.000000</ele>
        <time>2021-09-04T15:10:58Z</time>
      </trkpt>
      <trkpt lat="42.646628" lon="0.424584">
        <ele>3003.000000</ele>
        <time>2021-09-04T15:10:59Z</time>
      </trkpt>
      <trkpt lat="42.646635" lon="0.424587">
        <ele>3003.000000</ele>
        <time>2021-09-04T15:11:00Z</time>
      </trkpt>
      <trkpt lat="42.646635" lon="0.424585">
        <ele>3003.000000</ele>
        <time>2021-09-04T15:11:01Z</time>
      </trkpt>
      <trkpt lat="42.646630" lon="0.424583">
        <ele>3003.000000</ele>
        <time>2021-09-04T15:11:03Z</time>
      </trkpt>
      <trkpt lat="42.646627" lon="0.424582">
        <ele>3003.000000</ele>
        <time>2021-09-04T15:11:04Z</time>
      </trkpt>
      <trkpt lat="42.646628" lon="0.424584">
        <ele>3003.000000</ele>
        <time>2021-09-04T15:11:05Z</time>
      </trkpt>
      <trkpt lat="42.646630" lon="0.424585">
        <ele>3003.000000</ele>
        <time>2021-09-04T15:11:06Z</time>
      </trkpt>
      <trkpt lat="42.646633" lon="0.424588">
        <ele>3003.000000</ele>
        <time>2021-09-04T15:11:07Z</time>
      </trkpt>
      <trkpt lat="42.646633" lon="0.424588">
        <ele>3003.000000</ele>
        <time>2021-09-04T15:11:10Z</time>
      </trkpt>
      <trkpt lat="42.646822" lon="0.424587">
        <ele>2999.000000</ele>
        <time>2021-09-04T15:13:26Z</time>
      </trkpt>
      <trkpt lat="42.646827" lon="0.424585">
        <ele>2999.000000</ele>
        <time>2021-09-04T15:13:27Z</time>
      </trkpt>
      <trkpt lat="42.646833" lon="0.424584">
        <ele>2999.000000</ele>
        <time>2021-09-04T15:13:28Z</time>
      </trkpt>
      <trkpt lat="42.646840" lon="0.424586">
        <ele>2999.000000</ele>
        <time>2021-09-04T15:13:29Z</time>
      </trkpt>
      <trkpt lat="42.646845" lon="0.424588">
        <ele>2999.000000</ele>
        <time>2021-09-04T15:13:30Z</time>
      </trkpt>
      <trkpt lat="42.646850" lon="0.424591">
        <ele>3000.000000</ele>
        <time>2021-09-04T15:13:31Z</time>
      </trkpt>
      <trkpt lat="42.646853" lon="0.424593">
        <ele>3000.000000</ele>
        <time>2021-09-04T15:13:32Z</time>
      </trkpt>
      <trkpt lat="42.646857" lon="0.424595">
        <ele>3000.000000</ele>
        <time>2021-09-04T15:13:33Z</time>
      </trkpt>
      <trkpt lat="42.646860" lon="0.424596">
        <ele>3000.000000</ele>
        <time>2021-09-04T15:13:34Z</time>
      </trkpt>
      <trkpt lat="42.646863" lon="0.424602">
        <ele>3001.000000</ele>
        <time>2021-09-04T15:13:36Z</time>
      </trkpt>
      <trkpt lat="42.646867" lon="0.424603">
        <ele>3001.000000</ele>
        <time>2021-09-04T15:13:38Z</time>
      </trkpt>
      <trkpt lat="42.646870" lon="0.424607">
        <ele>3001.000000</ele>
        <time>2021-09-04T15:13:39Z</time>
      </trkpt>
      <trkpt lat="42.646873" lon="0.424605">
        <ele>3001.000000</ele>
        <time>2021-09-04T15:13:40Z</time>
      </trkpt>
      <trkpt lat="42.646882" lon="0.424605">
        <ele>3002.000000</ele>
        <time>2021-09-04T15:13:42Z</time>
      </trkpt>
      <trkpt lat="42.646882" lon="0.424607">
        <ele>3002.000000</ele>
        <time>2021-09-04T15:13:43Z</time>
      </trkpt>
      <trkpt lat="42.646885" lon="0.424605">
        <ele>3002.000000</ele>
        <time>2021-09-04T15:13:44Z</time>
      </trkpt>
      <trkpt lat="42.646887" lon="0.424603">
        <ele>3002.000000</ele>
        <time>2021-09-04T15:13:45Z</time>
      </trkpt>
      <trkpt lat="42.646882" lon="0.424606">
        <ele>3002.000000</ele>
        <time>2021-09-04T15:13:47Z</time>
      </trkpt>
      <trkpt lat="42.646885" lon="0.424608">
        <ele>3011.000000</ele>
        <time>2021-09-04T15:14:45Z</time>
      </trkpt>
      <trkpt lat="42.646898" lon="0.424622">
        <ele>3016.000000</ele>
        <time>2021-09-04T15:15:52Z</time>
      </trkpt>
      <trkpt lat="42.646907" lon="0.424628">
        <ele>3016.000000</ele>
        <time>2021-09-04T15:16:18Z</time>
      </trkpt>
      <trkpt lat="42.646913" lon="0.424633">
        <ele>3016.000000</ele>
        <time>2021-09-04T15:16:37Z</time>
      </trkpt>
      <trkpt lat="42.647215" lon="0.424797">
        <ele>3016.000000</ele>
        <time>2021-09-04T15:16:58Z</time>
      </trkpt>
      <trkpt lat="42.647223" lon="0.424792">
        <ele>3016.000000</ele>
        <time>2021-09-04T15:16:59Z</time>
      </trkpt>
      <trkpt lat="42.647230" lon="0.424788">
        <ele>3016.000000</ele>
        <time>2021-09-04T15:17:00Z</time>
      </trkpt>
      <trkpt lat="42.647237" lon="0.424785">
        <ele>3016.000000</ele>
        <time>2021-09-04T15:17:01Z</time>
      </trkpt>
      <trkpt lat="42.647243" lon="0.424782">
        <ele>3016.000000</ele>
        <time>2021-09-04T15:17:02Z</time>
      </trkpt>
      <trkpt lat="42.647245" lon="0.424780">
        <ele>3016.000000</ele>
        <time>2021-09-04T15:17:03Z</time>
      </trkpt>
      <trkpt lat="42.647248" lon="0.424779">
        <ele>3016.000000</ele>
        <time>2021-09-04T15:17:04Z</time>
      </trkpt>
      <trkpt lat="42.647250" lon="0.424778">
        <ele>3016.000000</ele>
        <time>2021-09-04T15:17:05Z</time>
      </trkpt>
      <trkpt lat="42.647250" lon="0.424777">
        <ele>3016.000000</ele>
        <time>2021-09-04T15:17:08Z</time>
      </trkpt>
      <trkpt lat="42.647253" lon="0.424777">
        <ele>3016.000000</ele>
        <time>2021-09-04T15:17:10Z</time>
      </trkpt>
      <trkpt lat="42.647255" lon="0.424778">
        <ele>3016.000000</ele>
        <time>2021-09-04T15:17:11Z</time>
      </trkpt>
      <trkpt lat="42.647260" lon="0.424782">
        <ele>3016.000000</ele>
        <time>2021-09-04T15:17:12Z</time>
      </trkpt>
      <trkpt lat="42.647268" lon="0.424780">
        <ele>3016.000000</ele>
        <time>2021-09-04T15:17:13Z</time>
      </trkpt>
      <trkpt lat="42.647275" lon="0.424775">
        <ele>3016.000000</ele>
        <time>2021-09-04T15:17:14Z</time>
      </trkpt>
      <trkpt lat="42.647280" lon="0.424771">
        <ele>3016.000000</ele>
        <time>2021-09-04T15:17:15Z</time>
      </trkpt>
      <trkpt lat="42.647285" lon="0.424766">
        <ele>3016.000000</ele>
        <time>2021-09-04T15:17:16Z</time>
      </trkpt>
      <trkpt lat="42.647287" lon="0.424758">
        <ele>3016.000000</ele>
        <time>2021-09-04T15:17:17Z</time>
      </trkpt>
      <trkpt lat="42.647292" lon="0.424755">
        <ele>3016.000000</ele>
        <time>2021-09-04T15:17:18Z</time>
      </trkpt>
      <trkpt lat="42.647295" lon="0.424752">
        <ele>3016.000000</ele>
        <time>2021-09-04T15:17:19Z</time>
      </trkpt>
      <trkpt lat="42.647298" lon="0.424745">
        <ele>3016.000000</ele>
        <time>2021-09-04T15:17:20Z</time>
      </trkpt>
      <trkpt lat="42.647302" lon="0.424740">
        <ele>3016.000000</ele>
        <time>2021-09-04T15:17:21Z</time>
      </trkpt>
      <trkpt lat="42.647307" lon="0.424734">
        <ele>3016.000000</ele>
        <time>2021-09-04T15:17:22Z</time>
      </trkpt>
      <trkpt lat="42.647312" lon="0.424727">
        <ele>3016.000000</ele>
        <time>2021-09-04T15:17:24Z</time>
      </trkpt>
      <trkpt lat="42.647317" lon="0.424722">
        <ele>3016.000000</ele>
        <time>2021-09-04T15:17:24Z</time>
      </trkpt>
      <trkpt lat="42.647323" lon="0.424716">
        <ele>3016.000000</ele>
        <time>2021-09-04T15:17:25Z</time>
      </trkpt>
      <trkpt lat="42.647330" lon="0.424711">
        <ele>3021.000000</ele>
        <time>2021-09-04T15:17:26Z</time>
      </trkpt>
      <trkpt lat="42.647333" lon="0.424711">
        <ele>3021.000000</ele>
        <time>2021-09-04T15:17:27Z</time>
      </trkpt>
      <trkpt lat="42.647337" lon="0.424715">
        <ele>3021.000000</ele>
        <time>2021-09-04T15:17:28Z</time>
      </trkpt>
      <trkpt lat="42.647340" lon="0.424715">
        <ele>3021.000000</ele>
        <time>2021-09-04T15:17:29Z</time>
      </trkpt>
      <trkpt lat="42.647342" lon="0.424713">
        <ele>3021.000000</ele>
        <time>2021-09-04T15:17:30Z</time>
      </trkpt>
      <trkpt lat="42.647343" lon="0.424710">
        <ele>3022.000000</ele>
        <time>2021-09-04T15:17:31Z</time>
      </trkpt>
      <trkpt lat="42.647342" lon="0.424713">
        <ele>3022.000000</ele>
        <time>2021-09-04T15:17:32Z</time>
      </trkpt>
      <trkpt lat="42.647343" lon="0.424713">
        <ele>3022.000000</ele>
        <time>2021-09-04T15:17:33Z</time>
      </trkpt>
      <trkpt lat="42.647347" lon="0.424718">
        <ele>3022.000000</ele>
        <time>2021-09-04T15:17:34Z</time>
      </trkpt>
      <trkpt lat="42.647347" lon="0.424717">
        <ele>3023.000000</ele>
        <time>2021-09-04T15:17:37Z</time>
      </trkpt>
      <trkpt lat="42.647343" lon="0.424715">
        <ele>3023.000000</ele>
        <time>2021-09-04T15:17:39Z</time>
      </trkpt>
      <trkpt lat="42.647347" lon="0.424717">
        <ele>3023.000000</ele>
        <time>2021-09-04T15:17:41Z</time>
      </trkpt>
      <trkpt lat="42.647367" lon="0.424697">
        <ele>3026.000000</ele>
        <time>2021-09-04T15:18:43Z</time>
      </trkpt>
      <trkpt lat="42.647372" lon="0.424691">
        <ele>3026.000000</ele>
        <time>2021-09-04T15:18:44Z</time>
      </trkpt>
      <trkpt lat="42.647387" lon="0.424689">
        <ele>3026.000000</ele>
        <time>2021-09-04T15:18:45Z</time>
      </trkpt>
      <trkpt lat="42.647397" lon="0.424690">
        <ele>3026.000000</ele>
        <time>2021-09-04T15:18:46Z</time>
      </trkpt>
      <trkpt lat="42.647403" lon="0.424690">
        <ele>3026.000000</ele>
        <time>2021-09-04T15:18:47Z</time>
      </trkpt>
      <trkpt lat="42.647410" lon="0.424688">
        <ele>3026.000000</ele>
        <time>2021-09-04T15:18:48Z</time>
      </trkpt>
      <trkpt lat="42.647420" lon="0.424686">
        <ele>3026.000000</ele>
        <time>2021-09-04T15:18:49Z</time>
      </trkpt>
      <trkpt lat="42.647433" lon="0.424687">
        <ele>3026.000000</ele>
        <time>2021-09-04T15:18:50Z</time>
      </trkpt>
      <trkpt lat="42.647448" lon="0.424690">
        <ele>3026.000000</ele>
        <time>2021-09-04T15:18:51Z</time>
      </trkpt>
      <trkpt lat="42.647462" lon="0.424700">
        <ele>3027.000000</ele>
        <time>2021-09-04T15:18:52Z</time>
      </trkpt>
      <trkpt lat="42.647473" lon="0.424703">
        <ele>3027.000000</ele>
        <time>2021-09-04T15:18:53Z</time>
      </trkpt>
      <trkpt lat="42.647483" lon="0.424705">
        <ele>3027.000000</ele>
        <time>2021-09-04T15:18:54Z</time>
      </trkpt>
      <trkpt lat="42.647488" lon="0.424706">
        <ele>3027.000000</ele>
        <time>2021-09-04T15:18:55Z</time>
      </trkpt>
      <trkpt lat="42.647497" lon="0.424706">
        <ele>3027.000000</ele>
        <time>2021-09-04T15:18:56Z</time>
      </trkpt>
      <trkpt lat="42.647508" lon="0.424706">
        <ele>3027.000000</ele>
        <time>2021-09-04T15:18:57Z</time>
      </trkpt>
      <trkpt lat="42.647518" lon="0.424708">
        <ele>3027.000000</ele>
        <time>2021-09-04T15:18:58Z</time>
      </trkpt>
      <trkpt lat="42.647527" lon="0.424709">
        <ele>3027.000000</ele>
        <time>2021-09-04T15:18:59Z</time>
      </trkpt>
      <trkpt lat="42.647538" lon="0.424710">
        <ele>3027.000000</ele>
        <time>2021-09-04T15:19:00Z</time>
      </trkpt>
      <trkpt lat="42.647547" lon="0.424711">
        <ele>3027.000000</ele>
        <time>2021-09-04T15:19:01Z</time>
      </trkpt>
      <trkpt lat="42.647555" lon="0.424713">
        <ele>3027.000000</ele>
        <time>2021-09-04T15:19:02Z</time>
      </trkpt>
      <trkpt lat="42.647567" lon="0.424715">
        <ele>3027.000000</ele>
        <time>2021-09-04T15:19:03Z</time>
      </trkpt>
      <trkpt lat="42.647575" lon="0.424718">
        <ele>3026.000000</ele>
        <time>2021-09-04T15:19:04Z</time>
      </trkpt>
      <trkpt lat="42.647583" lon="0.424721">
        <ele>3026.000000</ele>
        <time>2021-09-04T15:19:05Z</time>
      </trkpt>
      <trkpt lat="42.647595" lon="0.424726">
        <ele>3026.000000</ele>
        <time>2021-09-04T15:19:06Z</time>
      </trkpt>
      <trkpt lat="42.647603" lon="0.424730">
        <ele>3026.000000</ele>
        <time>2021-09-04T15:19:07Z</time>
      </trkpt>
      <trkpt lat="42.647612" lon="0.424735">
        <ele>3026.000000</ele>
        <time>2021-09-04T15:19:08Z</time>
      </trkpt>
      <trkpt lat="42.647620" lon="0.424741">
        <ele>3026.000000</ele>
        <time>2021-09-04T15:19:09Z</time>
      </trkpt>
      <trkpt lat="42.647628" lon="0.424746">
        <ele>3026.000000</ele>
        <time>2021-09-04T15:19:10Z</time>
      </trkpt>
      <trkpt lat="42.647637" lon="0.424751">
        <ele>3026.000000</ele>
        <time>2021-09-04T15:19:11Z</time>
      </trkpt>
      <trkpt lat="42.647645" lon="0.424755">
        <ele>3026.000000</ele>
        <time>2021-09-04T15:19:12Z</time>
      </trkpt>
      <trkpt lat="42.647648" lon="0.424758">
        <ele>3026.000000</ele>
        <time>2021-09-04T15:19:13Z</time>
      </trkpt>
      <trkpt lat="42.647652" lon="0.424760">
        <ele>3026.000000</ele>
        <time>2021-09-04T15:19:14Z</time>
      </trkpt>
      <trkpt lat="42.647658" lon="0.424763">
        <ele>3026.000000</ele>
        <time>2021-09-04T15:19:15Z</time>
      </trkpt>
      <trkpt lat="42.647663" lon="0.424766">
        <ele>3026.000000</ele>
        <time>2021-09-04T15:19:16Z</time>
      </trkpt>
      <trkpt lat="42.647668" lon="0.424768">
        <ele>3026.000000</ele>
        <time>2021-09-04T15:19:17Z</time>
      </trkpt>
      <trkpt lat="42.647673" lon="0.424771">
        <ele>3026.000000</ele>
        <time>2021-09-04T15:19:19Z</time>
      </trkpt>
      <trkpt lat="42.647672" lon="0.424771">
        <ele>3026.000000</ele>
        <time>2021-09-04T15:19:21Z</time>
      </trkpt>
      <trkpt lat="42.647675" lon="0.424785">
        <ele>3026.000000</ele>
        <time>2021-09-04T15:19:22Z</time>
      </trkpt>
      <trkpt lat="42.647678" lon="0.424787">
        <ele>3025.000000</ele>
        <time>2021-09-04T15:19:23Z</time>
      </trkpt>
      <trkpt lat="42.647683" lon="0.424790">
        <ele>3025.000000</ele>
        <time>2021-09-04T15:19:24Z</time>
      </trkpt>
      <trkpt lat="42.647693" lon="0.424794">
        <ele>3025.000000</ele>
        <time>2021-09-04T15:19:25Z</time>
      </trkpt>
      <trkpt lat="42.647702" lon="0.424797">
        <ele>3025.000000</ele>
        <time>2021-09-04T15:19:26Z</time>
      </trkpt>
      <trkpt lat="42.647705" lon="0.424797">
        <ele>3025.000000</ele>
        <time>2021-09-04T15:19:27Z</time>
      </trkpt>
      <trkpt lat="42.647707" lon="0.424795">
        <ele>3024.000000</ele>
        <time>2021-09-04T15:19:30Z</time>
      </trkpt>
      <trkpt lat="42.647712" lon="0.424797">
        <ele>3024.000000</ele>
        <time>2021-09-04T15:19:31Z</time>
      </trkpt>
      <trkpt lat="42.647717" lon="0.424797">
        <ele>3024.000000</ele>
        <time>2021-09-04T15:19:32Z</time>
      </trkpt>
      <trkpt lat="42.647722" lon="0.424798">
        <ele>3024.000000</ele>
        <time>2021-09-04T15:19:33Z</time>
      </trkpt>
      <trkpt lat="42.647727" lon="0.424800">
        <ele>3024.000000</ele>
        <time>2021-09-04T15:19:34Z</time>
      </trkpt>
      <trkpt lat="42.647730" lon="0.424801">
        <ele>3024.000000</ele>
        <time>2021-09-04T15:19:35Z</time>
      </trkpt>
      <trkpt lat="42.647735" lon="0.424804">
        <ele>3023.000000</ele>
        <time>2021-09-04T15:19:36Z</time>
      </trkpt>
      <trkpt lat="42.647737" lon="0.424805">
        <ele>3023.000000</ele>
        <time>2021-09-04T15:19:37Z</time>
      </trkpt>
      <trkpt lat="42.647740" lon="0.424812">
        <ele>3023.000000</ele>
        <time>2021-09-04T15:19:38Z</time>
      </trkpt>
      <trkpt lat="42.647745" lon="0.424812">
        <ele>3022.000000</ele>
        <time>2021-09-04T15:19:40Z</time>
      </trkpt>
      <trkpt lat="42.647750" lon="0.424812">
        <ele>3022.000000</ele>
        <time>2021-09-04T15:19:41Z</time>
      </trkpt>
      <trkpt lat="42.647753" lon="0.424812">
        <ele>3022.000000</ele>
        <time>2021-09-04T15:19:42Z</time>
      </trkpt>
      <trkpt lat="42.647755" lon="0.424810">
        <ele>3022.000000</ele>
        <time>2021-09-04T15:19:43Z</time>
      </trkpt>
      <trkpt lat="42.647760" lon="0.424814">
        <ele>3021.000000</ele>
        <time>2021-09-04T15:19:44Z</time>
      </trkpt>
      <trkpt lat="42.647765" lon="0.424820">
        <ele>3021.000000</ele>
        <time>2021-09-04T15:19:45Z</time>
      </trkpt>
      <trkpt lat="42.647772" lon="0.424828">
        <ele>3021.000000</ele>
        <time>2021-09-04T15:19:46Z</time>
      </trkpt>
      <trkpt lat="42.647778" lon="0.424835">
        <ele>3021.000000</ele>
        <time>2021-09-04T15:19:47Z</time>
      </trkpt>
      <trkpt lat="42.647785" lon="0.424839">
        <ele>3020.000000</ele>
        <time>2021-09-04T15:19:48Z</time>
      </trkpt>
      <trkpt lat="42.647790" lon="0.424841">
        <ele>3020.000000</ele>
        <time>2021-09-04T15:19:49Z</time>
      </trkpt>
      <trkpt lat="42.647797" lon="0.424845">
        <ele>3020.000000</ele>
        <time>2021-09-04T15:19:50Z</time>
      </trkpt>
      <trkpt lat="42.647800" lon="0.424849">
        <ele>3019.000000</ele>
        <time>2021-09-04T15:19:51Z</time>
      </trkpt>
      <trkpt lat="42.647805" lon="0.424853">
        <ele>3019.000000</ele>
        <time>2021-09-04T15:19:52Z</time>
      </trkpt>
      <trkpt lat="42.647803" lon="0.424858">
        <ele>3019.000000</ele>
        <time>2021-09-04T15:19:56Z</time>
      </trkpt>
      <trkpt lat="42.647805" lon="0.424862">
        <ele>3019.000000</ele>
        <time>2021-09-04T15:19:57Z</time>
      </trkpt>
      <trkpt lat="42.647812" lon="0.424863">
        <ele>3019.000000</ele>
        <time>2021-09-04T15:19:59Z</time>
      </trkpt>
      <trkpt lat="42.647813" lon="0.424865">
        <ele>3019.000000</ele>
        <time>2021-09-04T15:20:00Z</time>
      </trkpt>
      <trkpt lat="42.647817" lon="0.424872">
        <ele>3018.000000</ele>
        <time>2021-09-04T15:20:04Z</time>
      </trkpt>
      <trkpt lat="42.647820" lon="0.424877">
        <ele>3018.000000</ele>
        <time>2021-09-04T15:20:05Z</time>
      </trkpt>
      <trkpt lat="42.647822" lon="0.424878">
        <ele>3018.000000</ele>
        <time>2021-09-04T15:20:06Z</time>
      </trkpt>
      <trkpt lat="42.647822" lon="0.424880">
        <ele>3018.000000</ele>
        <time>2021-09-04T15:20:07Z</time>
      </trkpt>
      <trkpt lat="42.647820" lon="0.424878">
        <ele>3018.000000</ele>
        <time>2021-09-04T15:20:10Z</time>
      </trkpt>
      <trkpt lat="42.647833" lon="0.424895">
        <ele>3022.000000</ele>
        <time>2021-09-04T15:22:31Z</time>
      </trkpt>
      <trkpt lat="42.647838" lon="0.424898">
        <ele>3022.000000</ele>
        <time>2021-09-04T15:22:52Z</time>
      </trkpt>
      <trkpt lat="42.647855" lon="0.424908">
        <ele>3026.000000</ele>
        <time>2021-09-04T15:23:51Z</time>
      </trkpt>
      <trkpt lat="42.647865" lon="0.424913">
        <ele>3026.000000</ele>
        <time>2021-09-04T15:24:18Z</time>
      </trkpt>
      <trkpt lat="42.647880" lon="0.424920">
        <ele>3032.000000</ele>
        <time>2021-09-04T15:24:53Z</time>
      </trkpt>
      <trkpt lat="42.647888" lon="0.424923">
        <ele>3034.000000</ele>
        <time>2021-09-04T15:25:09Z</time>
      </trkpt>
      <trkpt lat="42.647897" lon="0.424927">
        <ele>3034.000000</ele>
        <time>2021-09-04T15:25:24Z</time>
      </trkpt>
      <trkpt lat="42.647902" lon="0.424928">
        <ele>3035.000000</ele>
        <time>2021-09-04T15:25:32Z</time>
      </trkpt>
      <trkpt lat="42.647910" lon="0.424932">
        <ele>3035.000000</ele>
        <time>2021-09-04T15:25:46Z</time>
      </trkpt>
      <trkpt lat="42.647918" lon="0.424935">
        <ele>3035.000000</ele>
        <time>2021-09-04T15:25:59Z</time>
      </trkpt>
      <trkpt lat="42.647933" lon="0.424942">
        <ele>3038.000000</ele>
        <time>2021-09-04T15:26:22Z</time>
      </trkpt>
      <trkpt lat="42.647950" lon="0.424948">
        <ele>3040.000000</ele>
        <time>2021-09-04T15:26:45Z</time>
      </trkpt>
      <trkpt lat="42.647958" lon="0.424952">
        <ele>3041.000000</ele>
        <time>2021-09-04T15:26:57Z</time>
      </trkpt>
      <trkpt lat="42.647963" lon="0.424953">
        <ele>3042.000000</ele>
        <time>2021-09-04T15:27:03Z</time>
      </trkpt>
      <trkpt lat="42.647967" lon="0.424955">
        <ele>3043.000000</ele>
        <time>2021-09-04T15:27:08Z</time>
      </trkpt>
      <trkpt lat="42.647972" lon="0.424957">
        <ele>3044.000000</ele>
        <time>2021-09-04T15:27:12Z</time>
      </trkpt>
      <trkpt lat="42.647980" lon="0.424960">
        <ele>3046.000000</ele>
        <time>2021-09-04T15:27:22Z</time>
      </trkpt>
      <trkpt lat="42.647983" lon="0.424962">
        <ele>3046.000000</ele>
        <time>2021-09-04T15:27:26Z</time>
      </trkpt>
      <trkpt lat="42.648002" lon="0.424970">
        <ele>3046.000000</ele>
        <time>2021-09-04T15:27:47Z</time>
      </trkpt>
      <trkpt lat="42.648005" lon="0.424972">
        <ele>3046.000000</ele>
        <time>2021-09-04T15:27:51Z</time>
      </trkpt>
      <trkpt lat="42.648013" lon="0.424975">
        <ele>3046.000000</ele>
        <time>2021-09-04T15:28:00Z</time>
      </trkpt>
      <trkpt lat="42.648017" lon="0.424977">
        <ele>3046.000000</ele>
        <time>2021-09-04T15:28:04Z</time>
      </trkpt>
      <trkpt lat="42.648037" lon="0.424985">
        <ele>3048.000000</ele>
        <time>2021-09-04T15:28:24Z</time>
      </trkpt>
      <trkpt lat="42.648040" lon="0.424986">
        <ele>3048.000000</ele>
        <time>2021-09-04T15:28:28Z</time>
      </trkpt>
      <trkpt lat="42.648048" lon="0.424990">
        <ele>3048.000000</ele>
        <time>2021-09-04T15:28:36Z</time>
      </trkpt>
      <trkpt lat="42.648052" lon="0.424992">
        <ele>3049.000000</ele>
        <time>2021-09-04T15:28:40Z</time>
      </trkpt>
      <trkpt lat="42.648060" lon="0.424995">
        <ele>3050.000000</ele>
        <time>2021-09-04T15:28:48Z</time>
      </trkpt>
      <trkpt lat="42.648693" lon="0.425270">
        <ele>3050.000000</ele>
        <time>2021-09-04T15:28:51Z</time>
      </trkpt>
      <trkpt lat="42.648697" lon="0.425269">
        <ele>3050.000000</ele>
        <time>2021-09-04T15:28:52Z</time>
      </trkpt>
      <trkpt lat="42.648698" lon="0.425273">
        <ele>3050.000000</ele>
        <time>2021-09-04T15:28:53Z</time>
      </trkpt>
      <trkpt lat="42.648698" lon="0.425275">
        <ele>3050.000000</ele>
        <time>2021-09-04T15:28:54Z</time>
      </trkpt>
      <trkpt lat="42.648703" lon="0.425278">
        <ele>3050.000000</ele>
        <time>2021-09-04T15:28:56Z</time>
      </trkpt>
      <trkpt lat="42.648707" lon="0.425279">
        <ele>3050.000000</ele>
        <time>2021-09-04T15:28:57Z</time>
      </trkpt>
      <trkpt lat="42.648698" lon="0.425276">
        <ele>3050.000000</ele>
        <time>2021-09-04T15:29:00Z</time>
      </trkpt>
      <trkpt lat="42.648745" lon="0.425268">
        <ele>3051.000000</ele>
        <time>2021-09-04T15:29:12Z</time>
      </trkpt>
      <trkpt lat="42.648750" lon="0.425268">
        <ele>3051.000000</ele>
        <time>2021-09-04T15:29:13Z</time>
      </trkpt>
      <trkpt lat="42.648750" lon="0.425271">
        <ele>3051.000000</ele>
        <time>2021-09-04T15:29:14Z</time>
      </trkpt>
      <trkpt lat="42.648753" lon="0.425278">
        <ele>3051.000000</ele>
        <time>2021-09-04T15:29:15Z</time>
      </trkpt>
      <trkpt lat="42.648757" lon="0.425283">
        <ele>3051.000000</ele>
        <time>2021-09-04T15:29:16Z</time>
      </trkpt>
      <trkpt lat="42.648763" lon="0.425285">
        <ele>3051.000000</ele>
        <time>2021-09-04T15:29:17Z</time>
      </trkpt>
      <trkpt lat="42.648767" lon="0.425287">
        <ele>3051.000000</ele>
        <time>2021-09-04T15:29:18Z</time>
      </trkpt>
      <trkpt lat="42.648772" lon="0.425287">
        <ele>3051.000000</ele>
        <time>2021-09-04T15:29:20Z</time>
      </trkpt>
      <trkpt lat="42.648773" lon="0.425284">
        <ele>3051.000000</ele>
        <time>2021-09-04T15:29:21Z</time>
      </trkpt>
      <trkpt lat="42.648777" lon="0.425282">
        <ele>3051.000000</ele>
        <time>2021-09-04T15:29:23Z</time>
      </trkpt>
      <trkpt lat="42.648778" lon="0.425280">
        <ele>3051.000000</ele>
        <time>2021-09-04T15:29:24Z</time>
      </trkpt>
      <trkpt lat="42.648778" lon="0.425278">
        <ele>3054.000000</ele>
        <time>2021-09-04T15:29:59Z</time>
      </trkpt>
      <trkpt lat="42.648808" lon="0.425298">
        <ele>3070.000000</ele>
        <time>2021-09-04T15:32:45Z</time>
      </trkpt>
      <trkpt lat="42.648812" lon="0.425300">
        <ele>3071.000000</ele>
        <time>2021-09-04T15:32:56Z</time>
      </trkpt>
      <trkpt lat="42.648815" lon="0.425302">
        <ele>3072.000000</ele>
        <time>2021-09-04T15:33:06Z</time>
      </trkpt>
      <trkpt lat="42.649143" lon="0.425402">
        <ele>3074.000000</ele>
        <time>2021-09-04T15:33:24Z</time>
      </trkpt>
      <trkpt lat="42.649152" lon="0.425405">
        <ele>3074.000000</ele>
        <time>2021-09-04T15:33:25Z</time>
      </trkpt>
      <trkpt lat="42.649160" lon="0.425407">
        <ele>3074.000000</ele>
        <time>2021-09-04T15:33:26Z</time>
      </trkpt>
      <trkpt lat="42.649168" lon="0.425411">
        <ele>3074.000000</ele>
        <time>2021-09-04T15:33:27Z</time>
      </trkpt>
      <trkpt lat="42.649175" lon="0.425417">
        <ele>3074.000000</ele>
        <time>2021-09-04T15:33:28Z</time>
      </trkpt>
      <trkpt lat="42.649177" lon="0.425423">
        <ele>3074.000000</ele>
        <time>2021-09-04T15:33:29Z</time>
      </trkpt>
      <trkpt lat="42.649182" lon="0.425423">
        <ele>3074.000000</ele>
        <time>2021-09-04T15:33:30Z</time>
      </trkpt>
      <trkpt lat="42.649185" lon="0.425421">
        <ele>3075.000000</ele>
        <time>2021-09-04T15:33:31Z</time>
      </trkpt>
      <trkpt lat="42.649193" lon="0.425415">
        <ele>3075.000000</ele>
        <time>2021-09-04T15:33:32Z</time>
      </trkpt>
      <trkpt lat="42.649198" lon="0.425410">
        <ele>3075.000000</ele>
        <time>2021-09-04T15:33:33Z</time>
      </trkpt>
      <trkpt lat="42.649205" lon="0.425408">
        <ele>3075.000000</ele>
        <time>2021-09-04T15:33:34Z</time>
      </trkpt>
      <trkpt lat="42.649208" lon="0.425408">
        <ele>3075.000000</ele>
        <time>2021-09-04T15:33:35Z</time>
      </trkpt>
      <trkpt lat="42.649213" lon="0.425405">
        <ele>3075.000000</ele>
        <time>2021-09-04T15:33:36Z</time>
      </trkpt>
      <trkpt lat="42.649218" lon="0.425402">
        <ele>3075.000000</ele>
        <time>2021-09-04T15:33:37Z</time>
      </trkpt>
      <trkpt lat="42.649222" lon="0.425397">
        <ele>3075.000000</ele>
        <time>2021-09-04T15:33:38Z</time>
      </trkpt>
      <trkpt lat="42.649227" lon="0.425394">
        <ele>3076.000000</ele>
        <time>2021-09-04T15:33:39Z</time>
      </trkpt>
      <trkpt lat="42.649232" lon="0.425391">
        <ele>3076.000000</ele>
        <time>2021-09-04T15:33:40Z</time>
      </trkpt>
      <trkpt lat="42.649237" lon="0.425388">
        <ele>3076.000000</ele>
        <time>2021-09-04T15:33:41Z</time>
      </trkpt>
      <trkpt lat="42.649242" lon="0.425385">
        <ele>3076.000000</ele>
        <time>2021-09-04T15:33:42Z</time>
      </trkpt>
      <trkpt lat="42.649248" lon="0.425382">
        <ele>3076.000000</ele>
        <time>2021-09-04T15:33:43Z</time>
      </trkpt>
      <trkpt lat="42.649258" lon="0.425376">
        <ele>3076.000000</ele>
        <time>2021-09-04T15:33:44Z</time>
      </trkpt>
      <trkpt lat="42.649267" lon="0.425371">
        <ele>3076.000000</ele>
        <time>2021-09-04T15:33:45Z</time>
      </trkpt>
      <trkpt lat="42.649275" lon="0.425367">
        <ele>3076.000000</ele>
        <time>2021-09-04T15:33:46Z</time>
      </trkpt>
      <trkpt lat="42.649280" lon="0.425364">
        <ele>3076.000000</ele>
        <time>2021-09-04T15:33:47Z</time>
      </trkpt>
      <trkpt lat="42.649287" lon="0.425359">
        <ele>3076.000000</ele>
        <time>2021-09-04T15:33:48Z</time>
      </trkpt>
      <trkpt lat="42.649297" lon="0.425353">
        <ele>3076.000000</ele>
        <time>2021-09-04T15:33:49Z</time>
      </trkpt>
      <trkpt lat="42.649307" lon="0.425347">
        <ele>3076.000000</ele>
        <time>2021-09-04T15:33:50Z</time>
      </trkpt>
      <trkpt lat="42.649317" lon="0.425343">
        <ele>3076.000000</ele>
        <time>2021-09-04T15:33:51Z</time>
      </trkpt>
      <trkpt lat="42.649327" lon="0.425340">
        <ele>3076.000000</ele>
        <time>2021-09-04T15:33:52Z</time>
      </trkpt>
      <trkpt lat="42.649335" lon="0.425350">
        <ele>3076.000000</ele>
        <time>2021-09-04T15:33:53Z</time>
      </trkpt>
      <trkpt lat="42.649345" lon="0.425353">
        <ele>3076.000000</ele>
        <time>2021-09-04T15:33:54Z</time>
      </trkpt>
      <trkpt lat="42.649355" lon="0.425355">
        <ele>3076.000000</ele>
        <time>2021-09-04T15:33:55Z</time>
      </trkpt>
      <trkpt lat="42.649365" lon="0.425360">
        <ele>3076.000000</ele>
        <time>2021-09-04T15:33:56Z</time>
      </trkpt>
      <trkpt lat="42.649375" lon="0.425363">
        <ele>3076.000000</ele>
        <time>2021-09-04T15:33:57Z</time>
      </trkpt>
      <trkpt lat="42.649388" lon="0.425367">
        <ele>3076.000000</ele>
        <time>2021-09-04T15:33:58Z</time>
      </trkpt>
      <trkpt lat="42.649398" lon="0.425370">
        <ele>3077.000000</ele>
        <time>2021-09-04T15:33:59Z</time>
      </trkpt>
      <trkpt lat="42.649408" lon="0.425376">
        <ele>3077.000000</ele>
        <time>2021-09-04T15:34:00Z</time>
      </trkpt>
      <trkpt lat="42.649417" lon="0.425383">
        <ele>3077.000000</ele>
        <time>2021-09-04T15:34:01Z</time>
      </trkpt>
      <trkpt lat="42.649425" lon="0.425398">
        <ele>3077.000000</ele>
        <time>2021-09-04T15:34:02Z</time>
      </trkpt>
      <trkpt lat="42.649430" lon="0.425407">
        <ele>3077.000000</ele>
        <time>2021-09-04T15:34:03Z</time>
      </trkpt>
      <trkpt lat="42.649438" lon="0.425415">
        <ele>3077.000000</ele>
        <time>2021-09-04T15:34:04Z</time>
      </trkpt>
      <trkpt lat="42.649448" lon="0.425424">
        <ele>3078.000000</ele>
        <time>2021-09-04T15:34:05Z</time>
      </trkpt>
      <trkpt lat="42.649455" lon="0.425431">
        <ele>3078.000000</ele>
        <time>2021-09-04T15:34:06Z</time>
      </trkpt>
      <trkpt lat="42.649460" lon="0.425445">
        <ele>3078.000000</ele>
        <time>2021-09-04T15:34:07Z</time>
      </trkpt>
      <trkpt lat="42.649463" lon="0.425453">
        <ele>3078.000000</ele>
        <time>2021-09-04T15:34:08Z</time>
      </trkpt>
      <trkpt lat="42.649467" lon="0.425463">
        <ele>3078.000000</ele>
        <time>2021-09-04T15:34:09Z</time>
      </trkpt>
      <trkpt lat="42.649473" lon="0.425475">
        <ele>3078.000000</ele>
        <time>2021-09-04T15:34:10Z</time>
      </trkpt>
      <trkpt lat="42.649476" lon="0.425480">
        <ele>3078.000000</ele>
        <time>2021-09-04T15:34:11Z</time>
      </trkpt>
      <trkpt lat="42.649482" lon="0.425490">
        <ele>3078.000000</ele>
        <time>2021-09-04T15:34:12Z</time>
      </trkpt>
      <trkpt lat="42.649486" lon="0.425497">
        <ele>3078.000000</ele>
        <time>2021-09-04T15:34:13Z</time>
      </trkpt>
      <trkpt lat="42.649490" lon="0.425508">
        <ele>3079.000000</ele>
        <time>2021-09-04T15:34:14Z</time>
      </trkpt>
      <trkpt lat="42.649494" lon="0.425520">
        <ele>3079.000000</ele>
        <time>2021-09-04T15:34:15Z</time>
      </trkpt>
      <trkpt lat="42.649496" lon="0.425525">
        <ele>3079.000000</ele>
        <time>2021-09-04T15:34:16Z</time>
      </trkpt>
      <trkpt lat="42.649500" lon="0.425522">
        <ele>3079.000000</ele>
        <time>2021-09-04T15:34:18Z</time>
      </trkpt>
      <trkpt lat="42.649505" lon="0.425522">
        <ele>3079.000000</ele>
        <time>2021-09-04T15:34:19Z</time>
      </trkpt>
      <trkpt lat="42.649508" lon="0.425527">
        <ele>3079.000000</ele>
        <time>2021-09-04T15:34:20Z</time>
      </trkpt>
      <trkpt lat="42.649513" lon="0.425531">
        <ele>3079.000000</ele>
        <time>2021-09-04T15:34:21Z</time>
      </trkpt>
      <trkpt lat="42.649518" lon="0.425535">
        <ele>3079.000000</ele>
        <time>2021-09-04T15:34:22Z</time>
      </trkpt>
      <trkpt lat="42.649522" lon="0.425537">
        <ele>3079.000000</ele>
        <time>2021-09-04T15:34:23Z</time>
      </trkpt>
      <trkpt lat="42.649525" lon="0.425539">
        <ele>3079.000000</ele>
        <time>2021-09-04T15:34:24Z</time>
      </trkpt>
      <trkpt lat="42.649532" lon="0.425541">
        <ele>3079.000000</ele>
        <time>2021-09-04T15:34:25Z</time>
      </trkpt>
      <trkpt lat="42.649535" lon="0.425542">
        <ele>3079.000000</ele>
        <time>2021-09-04T15:34:26Z</time>
      </trkpt>
      <trkpt lat="42.649535" lon="0.425543">
        <ele>3079.000000</ele>
        <time>2021-09-04T15:34:27Z</time>
      </trkpt>
      <trkpt lat="42.649542" lon="0.425557">
        <ele>3079.000000</ele>
        <time>2021-09-04T15:34:28Z</time>
      </trkpt>
      <trkpt lat="42.649543" lon="0.425562">
        <ele>3079.000000</ele>
        <time>2021-09-04T15:34:29Z</time>
      </trkpt>
      <trkpt lat="42.649547" lon="0.425568">
        <ele>3079.000000</ele>
        <time>2021-09-04T15:34:30Z</time>
      </trkpt>
      <trkpt lat="42.649548" lon="0.425575">
        <ele>3079.000000</ele>
        <time>2021-09-04T15:34:31Z</time>
      </trkpt>
      <trkpt lat="42.649548" lon="0.425580">
        <ele>3079.000000</ele>
        <time>2021-09-04T15:34:32Z</time>
      </trkpt>
      <trkpt lat="42.649548" lon="0.425585">
        <ele>3079.000000</ele>
        <time>2021-09-04T15:34:33Z</time>
      </trkpt>
      <trkpt lat="42.649553" lon="0.425593">
        <ele>3079.000000</ele>
        <time>2021-09-04T15:34:34Z</time>
      </trkpt>
      <trkpt lat="42.649557" lon="0.425600">
        <ele>3079.000000</ele>
        <time>2021-09-04T15:34:35Z</time>
      </trkpt>
      <trkpt lat="42.649560" lon="0.425605">
        <ele>3079.000000</ele>
        <time>2021-09-04T15:34:36Z</time>
      </trkpt>
      <trkpt lat="42.649562" lon="0.425615">
        <ele>3079.000000</ele>
        <time>2021-09-04T15:34:37Z</time>
      </trkpt>
      <trkpt lat="42.649563" lon="0.425620">
        <ele>3079.000000</ele>
        <time>2021-09-04T15:34:38Z</time>
      </trkpt>
      <trkpt lat="42.649565" lon="0.425625">
        <ele>3079.000000</ele>
        <time>2021-09-04T15:34:39Z</time>
      </trkpt>
      <trkpt lat="42.649567" lon="0.425627">
        <ele>3079.000000</ele>
        <time>2021-09-04T15:34:40Z</time>
      </trkpt>
      <trkpt lat="42.649568" lon="0.425628">
        <ele>3079.000000</ele>
        <time>2021-09-04T15:34:41Z</time>
      </trkpt>
      <trkpt lat="42.649570" lon="0.425632">
        <ele>3079.000000</ele>
        <time>2021-09-04T15:34:42Z</time>
      </trkpt>
      <trkpt lat="42.649571" lon="0.425635">
        <ele>3079.000000</ele>
        <time>2021-09-04T15:34:43Z</time>
      </trkpt>
      <trkpt lat="42.649572" lon="0.425642">
        <ele>3079.000000</ele>
        <time>2021-09-04T15:34:44Z</time>
      </trkpt>
      <trkpt lat="42.649575" lon="0.425648">
        <ele>3079.000000</ele>
        <time>2021-09-04T15:34:45Z</time>
      </trkpt>
      <trkpt lat="42.649575" lon="0.425655">
        <ele>3079.000000</ele>
        <time>2021-09-04T15:34:46Z</time>
      </trkpt>
      <trkpt lat="42.649574" lon="0.425662">
        <ele>3079.000000</ele>
        <time>2021-09-04T15:34:47Z</time>
      </trkpt>
      <trkpt lat="42.649572" lon="0.425667">
        <ele>3079.000000</ele>
        <time>2021-09-04T15:34:48Z</time>
      </trkpt>
      <trkpt lat="42.649572" lon="0.425675">
        <ele>3079.000000</ele>
        <time>2021-09-04T15:34:49Z</time>
      </trkpt>
      <trkpt lat="42.649573" lon="0.425680">
        <ele>3079.000000</ele>
        <time>2021-09-04T15:34:50Z</time>
      </trkpt>
      <trkpt lat="42.649575" lon="0.425688">
        <ele>3077.000000</ele>
        <time>2021-09-04T15:34:51Z</time>
      </trkpt>
      <trkpt lat="42.649574" lon="0.425695">
        <ele>3077.000000</ele>
        <time>2021-09-04T15:34:52Z</time>
      </trkpt>
      <trkpt lat="42.649573" lon="0.425703">
        <ele>3077.000000</ele>
        <time>2021-09-04T15:34:53Z</time>
      </trkpt>
      <trkpt lat="42.649574" lon="0.425707">
        <ele>3077.000000</ele>
        <time>2021-09-04T15:34:54Z</time>
      </trkpt>
      <trkpt lat="42.649575" lon="0.425710">
        <ele>3077.000000</ele>
        <time>2021-09-04T15:34:55Z</time>
      </trkpt>
      <trkpt lat="42.649577" lon="0.425722">
        <ele>3077.000000</ele>
        <time>2021-09-04T15:34:56Z</time>
      </trkpt>
      <trkpt lat="42.649578" lon="0.425732">
        <ele>3077.000000</ele>
        <time>2021-09-04T15:34:57Z</time>
      </trkpt>
      <trkpt lat="42.649579" lon="0.425743">
        <ele>3076.000000</ele>
        <time>2021-09-04T15:34:58Z</time>
      </trkpt>
      <trkpt lat="42.649581" lon="0.425753">
        <ele>3076.000000</ele>
        <time>2021-09-04T15:34:59Z</time>
      </trkpt>
      <trkpt lat="42.649585" lon="0.425763">
        <ele>3076.000000</ele>
        <time>2021-09-04T15:35:00Z</time>
      </trkpt>
      <trkpt lat="42.649587" lon="0.425772">
        <ele>3076.000000</ele>
        <time>2021-09-04T15:35:01Z</time>
      </trkpt>
      <trkpt lat="42.649588" lon="0.425783">
        <ele>3076.000000</ele>
        <time>2021-09-04T15:35:02Z</time>
      </trkpt>
      <trkpt lat="42.649592" lon="0.425793">
        <ele>3076.000000</ele>
        <time>2021-09-04T15:35:03Z</time>
      </trkpt>
      <trkpt lat="42.649596" lon="0.425805">
        <ele>3076.000000</ele>
        <time>2021-09-04T15:35:04Z</time>
      </trkpt>
      <trkpt lat="42.649602" lon="0.425815">
        <ele>3076.000000</ele>
        <time>2021-09-04T15:35:05Z</time>
      </trkpt>
      <trkpt lat="42.649608" lon="0.425825">
        <ele>3076.000000</ele>
        <time>2021-09-04T15:35:06Z</time>
      </trkpt>
      <trkpt lat="42.649612" lon="0.425835">
        <ele>3076.000000</ele>
        <time>2021-09-04T15:35:07Z</time>
      </trkpt>
      <trkpt lat="42.649614" lon="0.425842">
        <ele>3076.000000</ele>
        <time>2021-09-04T15:35:08Z</time>
      </trkpt>
      <trkpt lat="42.649615" lon="0.425853">
        <ele>3076.000000</ele>
        <time>2021-09-04T15:35:09Z</time>
      </trkpt>
      <trkpt lat="42.649616" lon="0.425863">
        <ele>3076.000000</ele>
        <time>2021-09-04T15:35:10Z</time>
      </trkpt>
      <trkpt lat="42.649618" lon="0.425870">
        <ele>3076.000000</ele>
        <time>2021-09-04T15:35:11Z</time>
      </trkpt>
      <trkpt lat="42.649619" lon="0.425873">
        <ele>3075.000000</ele>
        <time>2021-09-04T15:35:12Z</time>
      </trkpt>
      <trkpt lat="42.649621" lon="0.425877">
        <ele>3075.000000</ele>
        <time>2021-09-04T15:35:13Z</time>
      </trkpt>
      <trkpt lat="42.649622" lon="0.425880">
        <ele>3075.000000</ele>
        <time>2021-09-04T15:35:14Z</time>
      </trkpt>
      <trkpt lat="42.649627" lon="0.425885">
        <ele>3075.000000</ele>
        <time>2021-09-04T15:35:15Z</time>
      </trkpt>
      <trkpt lat="42.649629" lon="0.425888">
        <ele>3075.000000</ele>
        <time>2021-09-04T15:35:16Z</time>
      </trkpt>
      <trkpt lat="42.649631" lon="0.425890">
        <ele>3075.000000</ele>
        <time>2021-09-04T15:35:17Z</time>
      </trkpt>
      <trkpt lat="42.649633" lon="0.425892">
        <ele>3075.000000</ele>
        <time>2021-09-04T15:35:18Z</time>
      </trkpt>
      <trkpt lat="42.649635" lon="0.425895">
        <ele>3075.000000</ele>
        <time>2021-09-04T15:35:19Z</time>
      </trkpt>
      <trkpt lat="42.649641" lon="0.425905">
        <ele>3075.000000</ele>
        <time>2021-09-04T15:35:20Z</time>
      </trkpt>
      <trkpt lat="42.649643" lon="0.425912">
        <ele>3075.000000</ele>
        <time>2021-09-04T15:35:21Z</time>
      </trkpt>
      <trkpt lat="42.649646" lon="0.425918">
        <ele>3075.000000</ele>
        <time>2021-09-04T15:35:22Z</time>
      </trkpt>
      <trkpt lat="42.649650" lon="0.425928">
        <ele>3075.000000</ele>
        <time>2021-09-04T15:35:23Z</time>
      </trkpt>
      <trkpt lat="42.649651" lon="0.425935">
        <ele>3075.000000</ele>
        <time>2021-09-04T15:35:24Z</time>
      </trkpt>
      <trkpt lat="42.649651" lon="0.425942">
        <ele>3076.000000</ele>
        <time>2021-09-04T15:35:25Z</time>
      </trkpt>
      <trkpt lat="42.649653" lon="0.425948">
        <ele>3076.000000</ele>
        <time>2021-09-04T15:35:26Z</time>
      </trkpt>
      <trkpt lat="42.649656" lon="0.425953">
        <ele>3076.000000</ele>
        <time>2021-09-04T15:35:27Z</time>
      </trkpt>
      <trkpt lat="42.649665" lon="0.425960">
        <ele>3076.000000</ele>
        <time>2021-09-04T15:35:28Z</time>
      </trkpt>
      <trkpt lat="42.649670" lon="0.425970">
        <ele>3076.000000</ele>
        <time>2021-09-04T15:35:29Z</time>
      </trkpt>
      <trkpt lat="42.649672" lon="0.425978">
        <ele>3076.000000</ele>
        <time>2021-09-04T15:35:30Z</time>
      </trkpt>
      <trkpt lat="42.649673" lon="0.425987">
        <ele>3077.000000</ele>
        <time>2021-09-04T15:35:31Z</time>
      </trkpt>
      <trkpt lat="42.649673" lon="0.426000">
        <ele>3077.000000</ele>
        <time>2021-09-04T15:35:32Z</time>
      </trkpt>
      <trkpt lat="42.649677" lon="0.426012">
        <ele>3077.000000</ele>
        <time>2021-09-04T15:35:33Z</time>
      </trkpt>
      <trkpt lat="42.649680" lon="0.426020">
        <ele>3077.000000</ele>
        <time>2021-09-04T15:35:34Z</time>
      </trkpt>
      <trkpt lat="42.649682" lon="0.426027">
        <ele>3078.000000</ele>
        <time>2021-09-04T15:35:35Z</time>
      </trkpt>
      <trkpt lat="42.649685" lon="0.426035">
        <ele>3078.000000</ele>
        <time>2021-09-04T15:35:36Z</time>
      </trkpt>
      <trkpt lat="42.649686" lon="0.426045">
        <ele>3078.000000</ele>
        <time>2021-09-04T15:35:36Z</time>
      </trkpt>
      <trkpt lat="42.649687" lon="0.426050">
        <ele>3078.000000</ele>
        <time>2021-09-04T15:35:37Z</time>
      </trkpt>
      <trkpt lat="42.649683" lon="0.426062">
        <ele>3079.000000</ele>
        <time>2021-09-04T15:35:38Z</time>
      </trkpt>
      <trkpt lat="42.649682" lon="0.426065">
        <ele>3079.000000</ele>
        <time>2021-09-04T15:35:39Z</time>
      </trkpt>
      <trkpt lat="42.649680" lon="0.426068">
        <ele>3079.000000</ele>
        <time>2021-09-04T15:35:40Z</time>
      </trkpt>
      <trkpt lat="42.649677" lon="0.426073">
        <ele>3079.000000</ele>
        <time>2021-09-04T15:35:41Z</time>
      </trkpt>
      <trkpt lat="42.649676" lon="0.426080">
        <ele>3080.000000</ele>
        <time>2021-09-04T15:35:42Z</time>
      </trkpt>
      <trkpt lat="42.649676" lon="0.426087">
        <ele>3080.000000</ele>
        <time>2021-09-04T15:35:43Z</time>
      </trkpt>
      <trkpt lat="42.649676" lon="0.426093">
        <ele>3080.000000</ele>
        <time>2021-09-04T15:35:44Z</time>
      </trkpt>
      <trkpt lat="42.649682" lon="0.426098">
        <ele>3080.000000</ele>
        <time>2021-09-04T15:35:45Z</time>
      </trkpt>
      <trkpt lat="42.649687" lon="0.426107">
        <ele>3081.000000</ele>
        <time>2021-09-04T15:35:46Z</time>
      </trkpt>
      <trkpt lat="42.649688" lon="0.426115">
        <ele>3081.000000</ele>
        <time>2021-09-04T15:35:47Z</time>
      </trkpt>
      <trkpt lat="42.649691" lon="0.426122">
        <ele>3081.000000</ele>
        <time>2021-09-04T15:35:48Z</time>
      </trkpt>
      <trkpt lat="42.649696" lon="0.426130">
        <ele>3081.000000</ele>
        <time>2021-09-04T15:35:49Z</time>
      </trkpt>
      <trkpt lat="42.649701" lon="0.426138">
        <ele>3081.000000</ele>
        <time>2021-09-04T15:35:50Z</time>
      </trkpt>
      <trkpt lat="42.649707" lon="0.426148">
        <ele>3081.000000</ele>
        <time>2021-09-04T15:35:51Z</time>
      </trkpt>
      <trkpt lat="42.649715" lon="0.426157">
        <ele>3081.000000</ele>
        <time>2021-09-04T15:35:52Z</time>
      </trkpt>
      <trkpt lat="42.649715" lon="0.426165">
        <ele>3082.000000</ele>
        <time>2021-09-04T15:35:53Z</time>
      </trkpt>
      <trkpt lat="42.649716" lon="0.426172">
        <ele>3082.000000</ele>
        <time>2021-09-04T15:35:54Z</time>
      </trkpt>
      <trkpt lat="42.649719" lon="0.426178">
        <ele>3082.000000</ele>
        <time>2021-09-04T15:35:55Z</time>
      </trkpt>
      <trkpt lat="42.649722" lon="0.426185">
        <ele>3082.000000</ele>
        <time>2021-09-04T15:35:56Z</time>
      </trkpt>
      <trkpt lat="42.649725" lon="0.426190">
        <ele>3082.000000</ele>
        <time>2021-09-04T15:35:57Z</time>
      </trkpt>
      <trkpt lat="42.649727" lon="0.426192">
        <ele>3082.000000</ele>
        <time>2021-09-04T15:35:58Z</time>
      </trkpt>
      <trkpt lat="42.649729" lon="0.426195">
        <ele>3082.000000</ele>
        <time>2021-09-04T15:36:00Z</time>
      </trkpt>
      <trkpt lat="42.649731" lon="0.426197">
        <ele>3082.000000</ele>
        <time>2021-09-04T15:36:01Z</time>
      </trkpt>
      <trkpt lat="42.649730" lon="0.426192">
        <ele>3082.000000</ele>
        <time>2021-09-04T15:36:05Z</time>
      </trkpt>
      <trkpt lat="42.649732" lon="0.426195">
        <ele>3082.000000</ele>
        <time>2021-09-04T15:36:06Z</time>
      </trkpt>
      <trkpt lat="42.649733" lon="0.426195">
        <ele>3082.000000</ele>
        <time>2021-09-04T15:36:07Z</time>
      </trkpt>
      <trkpt lat="42.649747" lon="0.426298">
        <ele>3083.000000</ele>
        <time>2021-09-04T15:36:23Z</time>
      </trkpt>
      <trkpt lat="42.649743" lon="0.426308">
        <ele>3083.000000</ele>
        <time>2021-09-04T15:36:24Z</time>
      </trkpt>
      <trkpt lat="42.649741" lon="0.426317">
        <ele>3083.000000</ele>
        <time>2021-09-04T15:36:25Z</time>
      </trkpt>
      <trkpt lat="42.649741" lon="0.426327">
        <ele>3083.000000</ele>
        <time>2021-09-04T15:36:26Z</time>
      </trkpt>
      <trkpt lat="42.649742" lon="0.426335">
        <ele>3083.000000</ele>
        <time>2021-09-04T15:36:27Z</time>
      </trkpt>
      <trkpt lat="42.649746" lon="0.426342">
        <ele>3083.000000</ele>
        <time>2021-09-04T15:36:28Z</time>
      </trkpt>
      <trkpt lat="42.649750" lon="0.426347">
        <ele>3083.000000</ele>
        <time>2021-09-04T15:36:29Z</time>
      </trkpt>
      <trkpt lat="42.649750" lon="0.426352">
        <ele>3083.000000</ele>
        <time>2021-09-04T15:36:30Z</time>
      </trkpt>
      <trkpt lat="42.649746" lon="0.426357">
        <ele>3083.000000</ele>
        <time>2021-09-04T15:36:31Z</time>
      </trkpt>
      <trkpt lat="42.649740" lon="0.426360">
        <ele>3083.000000</ele>
        <time>2021-09-04T15:36:32Z</time>
      </trkpt>
      <trkpt lat="42.649733" lon="0.426368">
        <ele>3083.000000</ele>
        <time>2021-09-04T15:36:33Z</time>
      </trkpt>
      <trkpt lat="42.649728" lon="0.426375">
        <ele>3083.000000</ele>
        <time>2021-09-04T15:36:34Z</time>
      </trkpt>
      <trkpt lat="42.649723" lon="0.426380">
        <ele>3083.000000</ele>
        <time>2021-09-04T15:36:35Z</time>
      </trkpt>
      <trkpt lat="42.649720" lon="0.426385">
        <ele>3083.000000</ele>
        <time>2021-09-04T15:36:36Z</time>
      </trkpt>
      <trkpt lat="42.649718" lon="0.426387">
        <ele>3083.000000</ele>
        <time>2021-09-04T15:36:37Z</time>
      </trkpt>
      <trkpt lat="42.649717" lon="0.426390">
        <ele>3083.000000</ele>
        <time>2021-09-04T15:36:38Z</time>
      </trkpt>
      <trkpt lat="42.649720" lon="0.426392">
        <ele>3083.000000</ele>
        <time>2021-09-04T15:36:39Z</time>
      </trkpt>
      <trkpt lat="42.649723" lon="0.426397">
        <ele>3083.000000</ele>
        <time>2021-09-04T15:36:40Z</time>
      </trkpt>
      <trkpt lat="42.649725" lon="0.426402">
        <ele>3083.000000</ele>
        <time>2021-09-04T15:36:41Z</time>
      </trkpt>
      <trkpt lat="42.649725" lon="0.426410">
        <ele>3083.000000</ele>
        <time>2021-09-04T15:36:42Z</time>
      </trkpt>
      <trkpt lat="42.649722" lon="0.426418">
        <ele>3083.000000</ele>
        <time>2021-09-04T15:36:43Z</time>
      </trkpt>
      <trkpt lat="42.649720" lon="0.426430">
        <ele>3083.000000</ele>
        <time>2021-09-04T15:36:44Z</time>
      </trkpt>
      <trkpt lat="42.649720" lon="0.426437">
        <ele>3083.000000</ele>
        <time>2021-09-04T15:36:45Z</time>
      </trkpt>
      <trkpt lat="42.649721" lon="0.426450">
        <ele>3083.000000</ele>
        <time>2021-09-04T15:36:46Z</time>
      </trkpt>
      <trkpt lat="42.649723" lon="0.426460">
        <ele>3083.000000</ele>
        <time>2021-09-04T15:36:47Z</time>
      </trkpt>
      <trkpt lat="42.649724" lon="0.426467">
        <ele>3083.000000</ele>
        <time>2021-09-04T15:36:48Z</time>
      </trkpt>
      <trkpt lat="42.649727" lon="0.426472">
        <ele>3083.000000</ele>
        <time>2021-09-04T15:36:49Z</time>
      </trkpt>
      <trkpt lat="42.649743" lon="0.426483">
        <ele>3083.000000</ele>
        <time>2021-09-04T15:36:50Z</time>
      </trkpt>
      <trkpt lat="42.649752" lon="0.426493">
        <ele>3083.000000</ele>
        <time>2021-09-04T15:36:51Z</time>
      </trkpt>
      <trkpt lat="42.649758" lon="0.426507">
        <ele>3085.000000</ele>
        <time>2021-09-04T15:36:52Z</time>
      </trkpt>
      <trkpt lat="42.649761" lon="0.426522">
        <ele>3085.000000</ele>
        <time>2021-09-04T15:36:53Z</time>
      </trkpt>
      <trkpt lat="42.649764" lon="0.426535">
        <ele>3085.000000</ele>
        <time>2021-09-04T15:36:54Z</time>
      </trkpt>
      <trkpt lat="42.649767" lon="0.426550">
        <ele>3085.000000</ele>
        <time>2021-09-04T15:36:55Z</time>
      </trkpt>
      <trkpt lat="42.649769" lon="0.426560">
        <ele>3085.000000</ele>
        <time>2021-09-04T15:36:56Z</time>
      </trkpt>
      <trkpt lat="42.649773" lon="0.426573">
        <ele>3085.000000</ele>
        <time>2021-09-04T15:36:57Z</time>
      </trkpt>
      <trkpt lat="42.649775" lon="0.426583">
        <ele>3085.000000</ele>
        <time>2021-09-04T15:36:58Z</time>
      </trkpt>
      <trkpt lat="42.649779" lon="0.426592">
        <ele>3085.000000</ele>
        <time>2021-09-04T15:36:59Z</time>
      </trkpt>
      <trkpt lat="42.649784" lon="0.426602">
        <ele>3086.000000</ele>
        <time>2021-09-04T15:37:00Z</time>
      </trkpt>
      <trkpt lat="42.649790" lon="0.426612">
        <ele>3086.000000</ele>
        <time>2021-09-04T15:37:01Z</time>
      </trkpt>
      <trkpt lat="42.649803" lon="0.426615">
        <ele>3086.000000</ele>
        <time>2021-09-04T15:37:02Z</time>
      </trkpt>
      <trkpt lat="42.649810" lon="0.426622">
        <ele>3086.000000</ele>
        <time>2021-09-04T15:37:03Z</time>
      </trkpt>
      <trkpt lat="42.649820" lon="0.426630">
        <ele>3086.000000</ele>
        <time>2021-09-04T15:37:04Z</time>
      </trkpt>
      <trkpt lat="42.649830" lon="0.426640">
        <ele>3086.000000</ele>
        <time>2021-09-04T15:37:05Z</time>
      </trkpt>
      <trkpt lat="42.649838" lon="0.426644">
        <ele>3086.000000</ele>
        <time>2021-09-04T15:37:06Z</time>
      </trkpt>
      <trkpt lat="42.649847" lon="0.426649">
        <ele>3086.000000</ele>
        <time>2021-09-04T15:37:07Z</time>
      </trkpt>
      <trkpt lat="42.649857" lon="0.426653">
        <ele>3086.000000</ele>
        <time>2021-09-04T15:37:08Z</time>
      </trkpt>
      <trkpt lat="42.649867" lon="0.426657">
        <ele>3086.000000</ele>
        <time>2021-09-04T15:37:09Z</time>
      </trkpt>
      <trkpt lat="42.649877" lon="0.426657">
        <ele>3086.000000</ele>
        <time>2021-09-04T15:37:10Z</time>
      </trkpt>
      <trkpt lat="42.649887" lon="0.426663">
        <ele>3086.000000</ele>
        <time>2021-09-04T15:37:11Z</time>
      </trkpt>
      <trkpt lat="42.649895" lon="0.426670">
        <ele>3086.000000</ele>
        <time>2021-09-04T15:37:12Z</time>
      </trkpt>
      <trkpt lat="42.649905" lon="0.426675">
        <ele>3087.000000</ele>
        <time>2021-09-04T15:37:13Z</time>
      </trkpt>
      <trkpt lat="42.649915" lon="0.426678">
        <ele>3087.000000</ele>
        <time>2021-09-04T15:37:14Z</time>
      </trkpt>
      <trkpt lat="42.649920" lon="0.426680">
        <ele>3087.000000</ele>
        <time>2021-09-04T15:37:15Z</time>
      </trkpt>
      <trkpt lat="42.649925" lon="0.426683">
        <ele>3087.000000</ele>
        <time>2021-09-04T15:37:16Z</time>
      </trkpt>
      <trkpt lat="42.649930" lon="0.426686">
        <ele>3087.000000</ele>
        <time>2021-09-04T15:37:17Z</time>
      </trkpt>
      <trkpt lat="42.649933" lon="0.426687">
        <ele>3087.000000</ele>
        <time>2021-09-04T15:37:18Z</time>
      </trkpt>
      <trkpt lat="42.649943" lon="0.426691">
        <ele>3087.000000</ele>
        <time>2021-09-04T15:37:19Z</time>
      </trkpt>
      <trkpt lat="42.649955" lon="0.426695">
        <ele>3087.000000</ele>
        <time>2021-09-04T15:37:20Z</time>
      </trkpt>
      <trkpt lat="42.649965" lon="0.426698">
        <ele>3086.000000</ele>
        <time>2021-09-04T15:37:21Z</time>
      </trkpt>
      <trkpt lat="42.649975" lon="0.426703">
        <ele>3086.000000</ele>
        <time>2021-09-04T15:37:22Z</time>
      </trkpt>
      <trkpt lat="42.649987" lon="0.426709">
        <ele>3086.000000</ele>
        <time>2021-09-04T15:37:23Z</time>
      </trkpt>
      <trkpt lat="42.649998" lon="0.426717">
        <ele>3086.000000</ele>
        <time>2021-09-04T15:37:24Z</time>
      </trkpt>
      <trkpt lat="42.650008" lon="0.426733">
        <ele>3086.000000</ele>
        <time>2021-09-04T15:37:25Z</time>
      </trkpt>
      <trkpt lat="42.650017" lon="0.426740">
        <ele>3086.000000</ele>
        <time>2021-09-04T15:37:26Z</time>
      </trkpt>
      <trkpt lat="42.650028" lon="0.426747">
        <ele>3086.000000</ele>
        <time>2021-09-04T15:37:27Z</time>
      </trkpt>
      <trkpt lat="42.650040" lon="0.426755">
        <ele>3085.000000</ele>
        <time>2021-09-04T15:37:28Z</time>
      </trkpt>
      <trkpt lat="42.650050" lon="0.426762">
        <ele>3085.000000</ele>
        <time>2021-09-04T15:37:29Z</time>
      </trkpt>
      <trkpt lat="42.650060" lon="0.426769">
        <ele>3085.000000</ele>
        <time>2021-09-04T15:37:30Z</time>
      </trkpt>
      <trkpt lat="42.650068" lon="0.426777">
        <ele>3085.000000</ele>
        <time>2021-09-04T15:37:31Z</time>
      </trkpt>
      <trkpt lat="42.650075" lon="0.426784">
        <ele>3085.000000</ele>
        <time>2021-09-04T15:37:32Z</time>
      </trkpt>
      <trkpt lat="42.650083" lon="0.426792">
        <ele>3085.000000</ele>
        <time>2021-09-04T15:37:33Z</time>
      </trkpt>
      <trkpt lat="42.650093" lon="0.426800">
        <ele>3085.000000</ele>
        <time>2021-09-04T15:37:34Z</time>
      </trkpt>
      <trkpt lat="42.650098" lon="0.426806">
        <ele>3085.000000</ele>
        <time>2021-09-04T15:37:35Z</time>
      </trkpt>
      <trkpt lat="42.650103" lon="0.426813">
        <ele>3085.000000</ele>
        <time>2021-09-04T15:37:36Z</time>
      </trkpt>
      <trkpt lat="42.650108" lon="0.426820">
        <ele>3085.000000</ele>
        <time>2021-09-04T15:37:37Z</time>
      </trkpt>
      <trkpt lat="42.650115" lon="0.426828">
        <ele>3085.000000</ele>
        <time>2021-09-04T15:37:38Z</time>
      </trkpt>
      <trkpt lat="42.650123" lon="0.426838">
        <ele>3085.000000</ele>
        <time>2021-09-04T15:37:39Z</time>
      </trkpt>
      <trkpt lat="42.650132" lon="0.426849">
        <ele>3085.000000</ele>
        <time>2021-09-04T15:37:40Z</time>
      </trkpt>
      <trkpt lat="42.650142" lon="0.426860">
        <ele>3085.000000</ele>
        <time>2021-09-04T15:37:41Z</time>
      </trkpt>
      <trkpt lat="42.650150" lon="0.426870">
        <ele>3085.000000</ele>
        <time>2021-09-04T15:37:42Z</time>
      </trkpt>
      <trkpt lat="42.650158" lon="0.426879">
        <ele>3085.000000</ele>
        <time>2021-09-04T15:37:43Z</time>
      </trkpt>
      <trkpt lat="42.650163" lon="0.426886">
        <ele>3085.000000</ele>
        <time>2021-09-04T15:37:44Z</time>
      </trkpt>
      <trkpt lat="42.650170" lon="0.426895">
        <ele>3085.000000</ele>
        <time>2021-09-04T15:37:45Z</time>
      </trkpt>
      <trkpt lat="42.650178" lon="0.426903">
        <ele>3085.000000</ele>
        <time>2021-09-04T15:37:46Z</time>
      </trkpt>
      <trkpt lat="42.650187" lon="0.426912">
        <ele>3085.000000</ele>
        <time>2021-09-04T15:37:47Z</time>
      </trkpt>
      <trkpt lat="42.650192" lon="0.426917">
        <ele>3085.000000</ele>
        <time>2021-09-04T15:37:48Z</time>
      </trkpt>
      <trkpt lat="42.650202" lon="0.426926">
        <ele>3085.000000</ele>
        <time>2021-09-04T15:37:49Z</time>
      </trkpt>
      <trkpt lat="42.650210" lon="0.426934">
        <ele>3085.000000</ele>
        <time>2021-09-04T15:37:50Z</time>
      </trkpt>
      <trkpt lat="42.650217" lon="0.426939">
        <ele>3085.000000</ele>
        <time>2021-09-04T15:37:51Z</time>
      </trkpt>
      <trkpt lat="42.650227" lon="0.426947">
        <ele>3085.000000</ele>
        <time>2021-09-04T15:37:52Z</time>
      </trkpt>
      <trkpt lat="42.650232" lon="0.426950">
        <ele>3085.000000</ele>
        <time>2021-09-04T15:37:53Z</time>
      </trkpt>
      <trkpt lat="42.650230" lon="0.426947">
        <ele>3085.000000</ele>
        <time>2021-09-04T15:37:54Z</time>
      </trkpt>
      <trkpt lat="42.650228" lon="0.426942">
        <ele>3085.000000</ele>
        <time>2021-09-04T15:37:57Z</time>
      </trkpt>
      <trkpt lat="42.650227" lon="0.426943">
        <ele>3085.000000</ele>
        <time>2021-09-04T15:37:58Z</time>
      </trkpt>
      <trkpt lat="42.650225" lon="0.426941">
        <ele>3085.000000</ele>
        <time>2021-09-04T15:37:59Z</time>
      </trkpt>
      <trkpt lat="42.650230" lon="0.426943">
        <ele>3085.000000</ele>
        <time>2021-09-04T15:38:02Z</time>
      </trkpt>
      <trkpt lat="42.650228" lon="0.426942">
        <ele>3085.000000</ele>
        <time>2021-09-04T15:38:04Z</time>
      </trkpt>
      <trkpt lat="42.650257" lon="0.426957">
        <ele>3085.000000</ele>
        <time>2021-09-04T15:39:11Z</time>
      </trkpt>
      <trkpt lat="42.650263" lon="0.426963">
        <ele>3085.000000</ele>
        <time>2021-09-04T15:39:12Z</time>
      </trkpt>
      <trkpt lat="42.650270" lon="0.426970">
        <ele>3085.000000</ele>
        <time>2021-09-04T15:39:13Z</time>
      </trkpt>
      <trkpt lat="42.650273" lon="0.426971">
        <ele>3085.000000</ele>
        <time>2021-09-04T15:39:14Z</time>
      </trkpt>
      <trkpt lat="42.650275" lon="0.426972">
        <ele>3085.000000</ele>
        <time>2021-09-04T15:39:15Z</time>
      </trkpt>
      <trkpt lat="42.650277" lon="0.426972">
        <ele>3085.000000</ele>
        <time>2021-09-04T15:39:16Z</time>
      </trkpt>
      <trkpt lat="42.650275" lon="0.426970">
        <ele>3085.000000</ele>
        <time>2021-09-04T15:39:17Z</time>
      </trkpt>
      <trkpt lat="42.650273" lon="0.426968">
        <ele>3085.000000</ele>
        <time>2021-09-04T15:39:18Z</time>
      </trkpt>
      <trkpt lat="42.650275" lon="0.426968">
        <ele>3085.000000</ele>
        <time>2021-09-04T15:39:19Z</time>
      </trkpt>
      <trkpt lat="42.650280" lon="0.426969">
        <ele>3085.000000</ele>
        <time>2021-09-04T15:39:21Z</time>
      </trkpt>
      <trkpt lat="42.650285" lon="0.426969">
        <ele>3085.000000</ele>
        <time>2021-09-04T15:39:22Z</time>
      </trkpt>
      <trkpt lat="42.650292" lon="0.426971">
        <ele>3085.000000</ele>
        <time>2021-09-04T15:39:23Z</time>
      </trkpt>
      <trkpt lat="42.650300" lon="0.426973">
        <ele>3085.000000</ele>
        <time>2021-09-04T15:39:24Z</time>
      </trkpt>
      <trkpt lat="42.650305" lon="0.426974">
        <ele>3085.000000</ele>
        <time>2021-09-04T15:39:25Z</time>
      </trkpt>
      <trkpt lat="42.650308" lon="0.426975">
        <ele>3085.000000</ele>
        <time>2021-09-04T15:39:26Z</time>
      </trkpt>
      <trkpt lat="42.650313" lon="0.426975">
        <ele>3085.000000</ele>
        <time>2021-09-04T15:39:27Z</time>
      </trkpt>
      <trkpt lat="42.650317" lon="0.426976">
        <ele>3085.000000</ele>
        <time>2021-09-04T15:39:28Z</time>
      </trkpt>
      <trkpt lat="42.650325" lon="0.426977">
        <ele>3085.000000</ele>
        <time>2021-09-04T15:39:29Z</time>
      </trkpt>
      <trkpt lat="42.650337" lon="0.426980">
        <ele>3085.000000</ele>
        <time>2021-09-04T15:39:30Z</time>
      </trkpt>
      <trkpt lat="42.650345" lon="0.426983">
        <ele>3085.000000</ele>
        <time>2021-09-04T15:39:31Z</time>
      </trkpt>
      <trkpt lat="42.650348" lon="0.426986">
        <ele>3085.000000</ele>
        <time>2021-09-04T15:39:32Z</time>
      </trkpt>
      <trkpt lat="42.650358" lon="0.426990">
        <ele>3085.000000</ele>
        <time>2021-09-04T15:39:33Z</time>
      </trkpt>
      <trkpt lat="42.650365" lon="0.426993">
        <ele>3085.000000</ele>
        <time>2021-09-04T15:39:34Z</time>
      </trkpt>
      <trkpt lat="42.650372" lon="0.426995">
        <ele>3085.000000</ele>
        <time>2021-09-04T15:39:35Z</time>
      </trkpt>
      <trkpt lat="42.650380" lon="0.426998">
        <ele>3085.000000</ele>
        <time>2021-09-04T15:39:36Z</time>
      </trkpt>
      <trkpt lat="42.650390" lon="0.427002">
        <ele>3085.000000</ele>
        <time>2021-09-04T15:39:37Z</time>
      </trkpt>
      <trkpt lat="42.650400" lon="0.427006">
        <ele>3085.000000</ele>
        <time>2021-09-04T15:39:38Z</time>
      </trkpt>
      <trkpt lat="42.650412" lon="0.427010">
        <ele>3085.000000</ele>
        <time>2021-09-04T15:39:39Z</time>
      </trkpt>
      <trkpt lat="42.650423" lon="0.427015">
        <ele>3085.000000</ele>
        <time>2021-09-04T15:39:40Z</time>
      </trkpt>
      <trkpt lat="42.650433" lon="0.427019">
        <ele>3085.000000</ele>
        <time>2021-09-04T15:39:41Z</time>
      </trkpt>
      <trkpt lat="42.650443" lon="0.427023">
        <ele>3085.000000</ele>
        <time>2021-09-04T15:39:42Z</time>
      </trkpt>
      <trkpt lat="42.650457" lon="0.427028">
        <ele>3083.000000</ele>
        <time>2021-09-04T15:39:43Z</time>
      </trkpt>
      <trkpt lat="42.650468" lon="0.427034">
        <ele>3083.000000</ele>
        <time>2021-09-04T15:39:44Z</time>
      </trkpt>
      <trkpt lat="42.650475" lon="0.427038">
        <ele>3083.000000</ele>
        <time>2021-09-04T15:39:45Z</time>
      </trkpt>
      <trkpt lat="42.650483" lon="0.427042">
        <ele>3083.000000</ele>
        <time>2021-09-04T15:39:46Z</time>
      </trkpt>
      <trkpt lat="42.650492" lon="0.427046">
        <ele>3083.000000</ele>
        <time>2021-09-04T15:39:47Z</time>
      </trkpt>
      <trkpt lat="42.650502" lon="0.427050">
        <ele>3083.000000</ele>
        <time>2021-09-04T15:39:48Z</time>
      </trkpt>
      <trkpt lat="42.650513" lon="0.427055">
        <ele>3083.000000</ele>
        <time>2021-09-04T15:39:49Z</time>
      </trkpt>
      <trkpt lat="42.650525" lon="0.427060">
        <ele>3083.000000</ele>
        <time>2021-09-04T15:39:50Z</time>
      </trkpt>
      <trkpt lat="42.650533" lon="0.427064">
        <ele>3082.000000</ele>
        <time>2021-09-04T15:39:51Z</time>
      </trkpt>
      <trkpt lat="42.650538" lon="0.427068">
        <ele>3082.000000</ele>
        <time>2021-09-04T15:39:51Z</time>
      </trkpt>
      <trkpt lat="42.650540" lon="0.427069">
        <ele>3082.000000</ele>
        <time>2021-09-04T15:39:52Z</time>
      </trkpt>
      <trkpt lat="42.650545" lon="0.427073">
        <ele>3082.000000</ele>
        <time>2021-09-04T15:39:53Z</time>
      </trkpt>
      <trkpt lat="42.650550" lon="0.427076">
        <ele>3082.000000</ele>
        <time>2021-09-04T15:39:54Z</time>
      </trkpt>
      <trkpt lat="42.650555" lon="0.427079">
        <ele>3081.000000</ele>
        <time>2021-09-04T15:39:57Z</time>
      </trkpt>
      <trkpt lat="42.650558" lon="0.427081">
        <ele>3081.000000</ele>
        <time>2021-09-04T15:40:00Z</time>
      </trkpt>
      <trkpt lat="42.650565" lon="0.427087">
        <ele>3081.000000</ele>
        <time>2021-09-04T15:40:02Z</time>
      </trkpt>
      <trkpt lat="42.650568" lon="0.427087">
        <ele>3081.000000</ele>
        <time>2021-09-04T15:40:03Z</time>
      </trkpt>
      <trkpt lat="42.650573" lon="0.427087">
        <ele>3080.000000</ele>
        <time>2021-09-04T15:40:04Z</time>
      </trkpt>
      <trkpt lat="42.650578" lon="0.427088">
        <ele>3080.000000</ele>
        <time>2021-09-04T15:40:05Z</time>
      </trkpt>
      <trkpt lat="42.650587" lon="0.427093">
        <ele>3080.000000</ele>
        <time>2021-09-04T15:40:06Z</time>
      </trkpt>
      <trkpt lat="42.650597" lon="0.427102">
        <ele>3080.000000</ele>
        <time>2021-09-04T15:40:07Z</time>
      </trkpt>
      <trkpt lat="42.650605" lon="0.427117">
        <ele>3079.000000</ele>
        <time>2021-09-04T15:40:08Z</time>
      </trkpt>
      <trkpt lat="42.650613" lon="0.427120">
        <ele>3079.000000</ele>
        <time>2021-09-04T15:40:09Z</time>
      </trkpt>
      <trkpt lat="42.650622" lon="0.427129">
        <ele>3079.000000</ele>
        <time>2021-09-04T15:40:10Z</time>
      </trkpt>
      <trkpt lat="42.650630" lon="0.427140">
        <ele>3079.000000</ele>
        <time>2021-09-04T15:40:11Z</time>
      </trkpt>
      <trkpt lat="42.650635" lon="0.427148">
        <ele>3079.000000</ele>
        <time>2021-09-04T15:40:12Z</time>
      </trkpt>
      <trkpt lat="42.650638" lon="0.427148">
        <ele>3079.000000</ele>
        <time>2021-09-04T15:40:13Z</time>
      </trkpt>
      <trkpt lat="42.650643" lon="0.427147">
        <ele>3079.000000</ele>
        <time>2021-09-04T15:40:14Z</time>
      </trkpt>
      <trkpt lat="42.650650" lon="0.427145">
        <ele>3079.000000</ele>
        <time>2021-09-04T15:40:15Z</time>
      </trkpt>
      <trkpt lat="42.650658" lon="0.427145">
        <ele>3079.000000</ele>
        <time>2021-09-04T15:40:16Z</time>
      </trkpt>
      <trkpt lat="42.650665" lon="0.427148">
        <ele>3079.000000</ele>
        <time>2021-09-04T15:40:17Z</time>
      </trkpt>
      <trkpt lat="42.650670" lon="0.427152">
        <ele>3079.000000</ele>
        <time>2021-09-04T15:40:18Z</time>
      </trkpt>
      <trkpt lat="42.650675" lon="0.427153">
        <ele>3079.000000</ele>
        <time>2021-09-04T15:40:19Z</time>
      </trkpt>
      <trkpt lat="42.650678" lon="0.427154">
        <ele>3078.000000</ele>
        <time>2021-09-04T15:40:20Z</time>
      </trkpt>
      <trkpt lat="42.650682" lon="0.427157">
        <ele>3078.000000</ele>
        <time>2021-09-04T15:40:21Z</time>
      </trkpt>
      <trkpt lat="42.650688" lon="0.427160">
        <ele>3078.000000</ele>
        <time>2021-09-04T15:40:22Z</time>
      </trkpt>
      <trkpt lat="42.650692" lon="0.427160">
        <ele>3078.000000</ele>
        <time>2021-09-04T15:40:23Z</time>
      </trkpt>
      <trkpt lat="42.650695" lon="0.427162">
        <ele>3078.000000</ele>
        <time>2021-09-04T15:40:24Z</time>
      </trkpt>
      <trkpt lat="42.650700" lon="0.427165">
        <ele>3078.000000</ele>
        <time>2021-09-04T15:40:25Z</time>
      </trkpt>
      <trkpt lat="42.650707" lon="0.427170">
        <ele>3078.000000</ele>
        <time>2021-09-04T15:40:26Z</time>
      </trkpt>
      <trkpt lat="42.650712" lon="0.427177">
        <ele>3078.000000</ele>
        <time>2021-09-04T15:40:27Z</time>
      </trkpt>
      <trkpt lat="42.650713" lon="0.427188">
        <ele>3078.000000</ele>
        <time>2021-09-04T15:40:28Z</time>
      </trkpt>
      <trkpt lat="42.650713" lon="0.427193">
        <ele>3078.000000</ele>
        <time>2021-09-04T15:40:29Z</time>
      </trkpt>
      <trkpt lat="42.650715" lon="0.427198">
        <ele>3078.000000</ele>
        <time>2021-09-04T15:40:30Z</time>
      </trkpt>
      <trkpt lat="42.650718" lon="0.427202">
        <ele>3078.000000</ele>
        <time>2021-09-04T15:40:31Z</time>
      </trkpt>
      <trkpt lat="42.650720" lon="0.427205">
        <ele>3078.000000</ele>
        <time>2021-09-04T15:40:33Z</time>
      </trkpt>
      <trkpt lat="42.650725" lon="0.427208">
        <ele>3078.000000</ele>
        <time>2021-09-04T15:40:34Z</time>
      </trkpt>
      <trkpt lat="42.650724" lon="0.427212">
        <ele>3078.000000</ele>
        <time>2021-09-04T15:40:35Z</time>
      </trkpt>
      <trkpt lat="42.650726" lon="0.427213">
        <ele>3078.000000</ele>
        <time>2021-09-04T15:40:37Z</time>
      </trkpt>
      <trkpt lat="42.650729" lon="0.427215">
        <ele>3078.000000</ele>
        <time>2021-09-04T15:40:38Z</time>
      </trkpt>
      <trkpt lat="42.650733" lon="0.427220">
        <ele>3078.000000</ele>
        <time>2021-09-04T15:40:39Z</time>
      </trkpt>
      <trkpt lat="42.650727" lon="0.427213">
        <ele>3078.000000</ele>
        <time>2021-09-04T15:40:42Z</time>
      </trkpt>
      <trkpt lat="42.650888" lon="0.427337">
        <ele>3078.000000</ele>
        <time>2021-09-04T15:41:26Z</time>
      </trkpt>
      <trkpt lat="42.650892" lon="0.427340">
        <ele>3078.000000</ele>
        <time>2021-09-04T15:41:27Z</time>
      </trkpt>
      <trkpt lat="42.650897" lon="0.427342">
        <ele>3078.000000</ele>
        <time>2021-09-04T15:41:28Z</time>
      </trkpt>
      <trkpt lat="42.650905" lon="0.427344">
        <ele>3078.000000</ele>
        <time>2021-09-04T15:41:29Z</time>
      </trkpt>
      <trkpt lat="42.650915" lon="0.427348">
        <ele>3078.000000</ele>
        <time>2021-09-04T15:41:30Z</time>
      </trkpt>
      <trkpt lat="42.650927" lon="0.427353">
        <ele>3078.000000</ele>
        <time>2021-09-04T15:41:31Z</time>
      </trkpt>
      <trkpt lat="42.650937" lon="0.427359">
        <ele>3078.000000</ele>
        <time>2021-09-04T15:41:32Z</time>
      </trkpt>
      <trkpt lat="42.650947" lon="0.427364">
        <ele>3078.000000</ele>
        <time>2021-09-04T15:41:33Z</time>
      </trkpt>
      <trkpt lat="42.650953" lon="0.427368">
        <ele>3078.000000</ele>
        <time>2021-09-04T15:41:34Z</time>
      </trkpt>
      <trkpt lat="42.650960" lon="0.427371">
        <ele>3078.000000</ele>
        <time>2021-09-04T15:41:35Z</time>
      </trkpt>
      <trkpt lat="42.650965" lon="0.427373">
        <ele>3078.000000</ele>
        <time>2021-09-04T15:41:36Z</time>
      </trkpt>
      <trkpt lat="42.650968" lon="0.427375">
        <ele>3078.000000</ele>
        <time>2021-09-04T15:41:37Z</time>
      </trkpt>
      <trkpt lat="42.650973" lon="0.427378">
        <ele>3078.000000</ele>
        <time>2021-09-04T15:41:38Z</time>
      </trkpt>
      <trkpt lat="42.650980" lon="0.427382">
        <ele>3078.000000</ele>
        <time>2021-09-04T15:41:39Z</time>
      </trkpt>
      <trkpt lat="42.650985" lon="0.427385">
        <ele>3078.000000</ele>
        <time>2021-09-04T15:41:40Z</time>
      </trkpt>
      <trkpt lat="42.650990" lon="0.427393">
        <ele>3078.000000</ele>
        <time>2021-09-04T15:41:41Z</time>
      </trkpt>
      <trkpt lat="42.650998" lon="0.427402">
        <ele>3078.000000</ele>
        <time>2021-09-04T15:41:42Z</time>
      </trkpt>
      <trkpt lat="42.651003" lon="0.427410">
        <ele>3078.000000</ele>
        <time>2021-09-04T15:41:43Z</time>
      </trkpt>
      <trkpt lat="42.651008" lon="0.427420">
        <ele>3078.000000</ele>
        <time>2021-09-04T15:41:44Z</time>
      </trkpt>
      <trkpt lat="42.651012" lon="0.427427">
        <ele>3078.000000</ele>
        <time>2021-09-04T15:41:45Z</time>
      </trkpt>
      <trkpt lat="42.651018" lon="0.427433">
        <ele>3078.000000</ele>
        <time>2021-09-04T15:41:46Z</time>
      </trkpt>
      <trkpt lat="42.651025" lon="0.427442">
        <ele>3078.000000</ele>
        <time>2021-09-04T15:41:47Z</time>
      </trkpt>
      <trkpt lat="42.651029" lon="0.427445">
        <ele>3078.000000</ele>
        <time>2021-09-04T15:41:48Z</time>
      </trkpt>
      <trkpt lat="42.651034" lon="0.427452">
        <ele>3078.000000</ele>
        <time>2021-09-04T15:41:49Z</time>
      </trkpt>
      <trkpt lat="42.651038" lon="0.427455">
        <ele>3078.000000</ele>
        <time>2021-09-04T15:41:50Z</time>
      </trkpt>
      <trkpt lat="42.651042" lon="0.427460">
        <ele>3078.000000</ele>
        <time>2021-09-04T15:41:51Z</time>
      </trkpt>
      <trkpt lat="42.651045" lon="0.427465">
        <ele>3078.000000</ele>
        <time>2021-09-04T15:41:52Z</time>
      </trkpt>
      <trkpt lat="42.651047" lon="0.427468">
        <ele>3078.000000</ele>
        <time>2021-09-04T15:41:53Z</time>
      </trkpt>
      <trkpt lat="42.651050" lon="0.427467">
        <ele>3078.000000</ele>
        <time>2021-09-04T15:41:56Z</time>
      </trkpt>
      <trkpt lat="42.651053" lon="0.427462">
        <ele>3078.000000</ele>
        <time>2021-09-04T15:41:57Z</time>
      </trkpt>
      <trkpt lat="42.651057" lon="0.427460">
        <ele>3078.000000</ele>
        <time>2021-09-04T15:41:58Z</time>
      </trkpt>
      <trkpt lat="42.651060" lon="0.427460">
        <ele>3078.000000</ele>
        <time>2021-09-04T15:41:59Z</time>
      </trkpt>
      <trkpt lat="42.651065" lon="0.427457">
        <ele>3078.000000</ele>
        <time>2021-09-04T15:42:00Z</time>
      </trkpt>
      <trkpt lat="42.651070" lon="0.427455">
        <ele>3077.000000</ele>
        <time>2021-09-04T15:42:01Z</time>
      </trkpt>
      <trkpt lat="42.651075" lon="0.427454">
        <ele>3077.000000</ele>
        <time>2021-09-04T15:42:02Z</time>
      </trkpt>
      <trkpt lat="42.651082" lon="0.427456">
        <ele>3077.000000</ele>
        <time>2021-09-04T15:42:03Z</time>
      </trkpt>
      <trkpt lat="42.651088" lon="0.427458">
        <ele>3077.000000</ele>
        <time>2021-09-04T15:42:04Z</time>
      </trkpt>
      <trkpt lat="42.651093" lon="0.427467">
        <ele>3077.000000</ele>
        <time>2021-09-04T15:42:05Z</time>
      </trkpt>
      <trkpt lat="42.651095" lon="0.427468">
        <ele>3077.000000</ele>
        <time>2021-09-04T15:42:06Z</time>
      </trkpt>
      <trkpt lat="42.651098" lon="0.427473">
        <ele>3076.000000</ele>
        <time>2021-09-04T15:42:07Z</time>
      </trkpt>
      <trkpt lat="42.651103" lon="0.427473">
        <ele>3076.000000</ele>
        <time>2021-09-04T15:42:08Z</time>
      </trkpt>
      <trkpt lat="42.651105" lon="0.427475">
        <ele>3076.000000</ele>
        <time>2021-09-04T15:42:09Z</time>
      </trkpt>
      <trkpt lat="42.651110" lon="0.427480">
        <ele>3076.000000</ele>
        <time>2021-09-04T15:42:13Z</time>
      </trkpt>
      <trkpt lat="42.651115" lon="0.427484">
        <ele>3076.000000</ele>
        <time>2021-09-04T15:42:14Z</time>
      </trkpt>
      <trkpt lat="42.651118" lon="0.427485">
        <ele>3076.000000</ele>
        <time>2021-09-04T15:42:15Z</time>
      </trkpt>
      <trkpt lat="42.651117" lon="0.427490">
        <ele>3075.000000</ele>
        <time>2021-09-04T15:42:16Z</time>
      </trkpt>
      <trkpt lat="42.651114" lon="0.427490">
        <ele>3075.000000</ele>
        <time>2021-09-04T15:42:17Z</time>
      </trkpt>
      <trkpt lat="42.651113" lon="0.427495">
        <ele>3075.000000</ele>
        <time>2021-09-04T15:42:19Z</time>
      </trkpt>
      <trkpt lat="42.651117" lon="0.427497">
        <ele>3075.000000</ele>
        <time>2021-09-04T15:42:20Z</time>
      </trkpt>
      <trkpt lat="42.651120" lon="0.427497">
        <ele>3075.000000</ele>
        <time>2021-09-04T15:42:21Z</time>
      </trkpt>
      <trkpt lat="42.651123" lon="0.427497">
        <ele>3075.000000</ele>
        <time>2021-09-04T15:42:22Z</time>
      </trkpt>
      <trkpt lat="42.651125" lon="0.427500">
        <ele>3075.000000</ele>
        <time>2021-09-04T15:42:25Z</time>
      </trkpt>
      <trkpt lat="42.651127" lon="0.427498">
        <ele>3074.000000</ele>
        <time>2021-09-04T15:42:26Z</time>
      </trkpt>
      <trkpt lat="42.651135" lon="0.427495">
        <ele>3074.000000</ele>
        <time>2021-09-04T15:42:28Z</time>
      </trkpt>
      <trkpt lat="42.651138" lon="0.427493">
        <ele>3074.000000</ele>
        <time>2021-09-04T15:42:29Z</time>
      </trkpt>
      <trkpt lat="42.651142" lon="0.427494">
        <ele>3074.000000</ele>
        <time>2021-09-04T15:42:30Z</time>
      </trkpt>
      <trkpt lat="42.651147" lon="0.427492">
        <ele>3074.000000</ele>
        <time>2021-09-04T15:42:31Z</time>
      </trkpt>
      <trkpt lat="42.651148" lon="0.427493">
        <ele>3074.000000</ele>
        <time>2021-09-04T15:42:32Z</time>
      </trkpt>
      <trkpt lat="42.651152" lon="0.427493">
        <ele>3074.000000</ele>
        <time>2021-09-04T15:42:34Z</time>
      </trkpt>
      <trkpt lat="42.651155" lon="0.427493">
        <ele>3073.000000</ele>
        <time>2021-09-04T15:42:36Z</time>
      </trkpt>
      <trkpt lat="42.651155" lon="0.427492">
        <ele>3073.000000</ele>
        <time>2021-09-04T15:42:38Z</time>
      </trkpt>
      <trkpt lat="42.651157" lon="0.427490">
        <ele>3073.000000</ele>
        <time>2021-09-04T15:42:39Z</time>
      </trkpt>
      <trkpt lat="42.651163" lon="0.427482">
        <ele>3073.000000</ele>
        <time>2021-09-04T15:42:41Z</time>
      </trkpt>
      <trkpt lat="42.651168" lon="0.427483">
        <ele>3072.000000</ele>
        <time>2021-09-04T15:42:42Z</time>
      </trkpt>
      <trkpt lat="42.651172" lon="0.427485">
        <ele>3072.000000</ele>
        <time>2021-09-04T15:42:43Z</time>
      </trkpt>
      <trkpt lat="42.651177" lon="0.427487">
        <ele>3072.000000</ele>
        <time>2021-09-04T15:42:44Z</time>
      </trkpt>
      <trkpt lat="42.651182" lon="0.427490">
        <ele>3072.000000</ele>
        <time>2021-09-04T15:42:45Z</time>
      </trkpt>
      <trkpt lat="42.651187" lon="0.427495">
        <ele>3072.000000</ele>
        <time>2021-09-04T15:42:47Z</time>
      </trkpt>
      <trkpt lat="42.651188" lon="0.427498">
        <ele>3072.000000</ele>
        <time>2021-09-04T15:42:48Z</time>
      </trkpt>
      <trkpt lat="42.651190" lon="0.427503">
        <ele>3072.000000</ele>
        <time>2021-09-04T15:42:49Z</time>
      </trkpt>
      <trkpt lat="42.651192" lon="0.427512">
        <ele>3072.000000</ele>
        <time>2021-09-04T15:42:50Z</time>
      </trkpt>
      <trkpt lat="42.651190" lon="0.427517">
        <ele>3071.000000</ele>
        <time>2021-09-04T15:42:52Z</time>
      </trkpt>
      <trkpt lat="42.651190" lon="0.427513">
        <ele>3071.000000</ele>
        <time>2021-09-04T15:42:56Z</time>
      </trkpt>
      <trkpt lat="42.651313" lon="0.427788">
        <ele>3057.000000</ele>
        <time>2021-09-04T15:44:37Z</time>
      </trkpt>
      <trkpt lat="42.651323" lon="0.427800">
        <ele>3057.000000</ele>
        <time>2021-09-04T15:44:38Z</time>
      </trkpt>
      <trkpt lat="42.651330" lon="0.427812">
        <ele>3057.000000</ele>
        <time>2021-09-04T15:44:39Z</time>
      </trkpt>
      <trkpt lat="42.651336" lon="0.427822">
        <ele>3057.000000</ele>
        <time>2021-09-04T15:44:40Z</time>
      </trkpt>
      <trkpt lat="42.651341" lon="0.427833">
        <ele>3057.000000</ele>
        <time>2021-09-04T15:44:41Z</time>
      </trkpt>
      <trkpt lat="42.651348" lon="0.427842">
        <ele>3056.000000</ele>
        <time>2021-09-04T15:44:42Z</time>
      </trkpt>
      <trkpt lat="42.651350" lon="0.427843">
        <ele>3056.000000</ele>
        <time>2021-09-04T15:44:43Z</time>
      </trkpt>
      <trkpt lat="42.651357" lon="0.427845">
        <ele>3055.000000</ele>
        <time>2021-09-04T15:44:46Z</time>
      </trkpt>
      <trkpt lat="42.651358" lon="0.427849">
        <ele>3055.000000</ele>
        <time>2021-09-04T15:44:47Z</time>
      </trkpt>
      <trkpt lat="42.651357" lon="0.427846">
        <ele>3055.000000</ele>
        <time>2021-09-04T15:44:48Z</time>
      </trkpt>
      <trkpt lat="42.651353" lon="0.427843">
        <ele>3055.000000</ele>
        <time>2021-09-04T15:44:50Z</time>
      </trkpt>
      <trkpt lat="42.651352" lon="0.427842">
        <ele>3055.000000</ele>
        <time>2021-09-04T15:44:51Z</time>
      </trkpt>
      <trkpt lat="42.651353" lon="0.427842">
        <ele>3055.000000</ele>
        <time>2021-09-04T15:44:52Z</time>
      </trkpt>
      <trkpt lat="42.651353" lon="0.427843">
        <ele>3055.000000</ele>
        <time>2021-09-04T15:44:54Z</time>
      </trkpt>
      <trkpt lat="42.651353" lon="0.427922">
        <ele>3054.000000</ele>
        <time>2021-09-04T15:45:20Z</time>
      </trkpt>
      <trkpt lat="42.651357" lon="0.427932">
        <ele>3054.000000</ele>
        <time>2021-09-04T15:45:21Z</time>
      </trkpt>
      <trkpt lat="42.651357" lon="0.427940">
        <ele>3054.000000</ele>
        <time>2021-09-04T15:45:22Z</time>
      </trkpt>
      <trkpt lat="42.651357" lon="0.427947">
        <ele>3054.000000</ele>
        <time>2021-09-04T15:45:23Z</time>
      </trkpt>
      <trkpt lat="42.651357" lon="0.427952">
        <ele>3054.000000</ele>
        <time>2021-09-04T15:45:24Z</time>
      </trkpt>
      <trkpt lat="42.651356" lon="0.427957">
        <ele>3054.000000</ele>
        <time>2021-09-04T15:45:25Z</time>
      </trkpt>
      <trkpt lat="42.651355" lon="0.427960">
        <ele>3054.000000</ele>
        <time>2021-09-04T15:45:26Z</time>
      </trkpt>
      <trkpt lat="42.651355" lon="0.427963">
        <ele>3054.000000</ele>
        <time>2021-09-04T15:45:28Z</time>
      </trkpt>
      <trkpt lat="42.651355" lon="0.427967">
        <ele>3054.000000</ele>
        <time>2021-09-04T15:45:29Z</time>
      </trkpt>
      <trkpt lat="42.651355" lon="0.427972">
        <ele>3054.000000</ele>
        <time>2021-09-04T15:45:30Z</time>
      </trkpt>
      <trkpt lat="42.651355" lon="0.427978">
        <ele>3054.000000</ele>
        <time>2021-09-04T15:45:31Z</time>
      </trkpt>
      <trkpt lat="42.651356" lon="0.427983">
        <ele>3054.000000</ele>
        <time>2021-09-04T15:45:32Z</time>
      </trkpt>
      <trkpt lat="42.651357" lon="0.427983">
        <ele>3054.000000</ele>
        <time>2021-09-04T15:45:33Z</time>
      </trkpt>
      <trkpt lat="42.651358" lon="0.427987">
        <ele>3054.000000</ele>
        <time>2021-09-04T15:45:34Z</time>
      </trkpt>
      <trkpt lat="42.651358" lon="0.427988">
        <ele>3054.000000</ele>
        <time>2021-09-04T15:45:35Z</time>
      </trkpt>
      <trkpt lat="42.651355" lon="0.427987">
        <ele>3054.000000</ele>
        <time>2021-09-04T15:45:36Z</time>
      </trkpt>
      <trkpt lat="42.651353" lon="0.427990">
        <ele>3054.000000</ele>
        <time>2021-09-04T15:45:37Z</time>
      </trkpt>
      <trkpt lat="42.651353" lon="0.427993">
        <ele>3054.000000</ele>
        <time>2021-09-04T15:45:38Z</time>
      </trkpt>
      <trkpt lat="42.651354" lon="0.427995">
        <ele>3054.000000</ele>
        <time>2021-09-04T15:45:39Z</time>
      </trkpt>
      <trkpt lat="42.651354" lon="0.427988">
        <ele>3054.000000</ele>
        <time>2021-09-04T15:45:41Z</time>
      </trkpt>
      <trkpt lat="42.651380" lon="0.428087">
        <ele>3049.000000</ele>
        <time>2021-09-04T15:46:21Z</time>
      </trkpt>
      <trkpt lat="42.651383" lon="0.428097">
        <ele>3049.000000</ele>
        <time>2021-09-04T15:46:22Z</time>
      </trkpt>
      <trkpt lat="42.651389" lon="0.428103">
        <ele>3049.000000</ele>
        <time>2021-09-04T15:46:23Z</time>
      </trkpt>
      <trkpt lat="42.651396" lon="0.428108">
        <ele>3049.000000</ele>
        <time>2021-09-04T15:46:24Z</time>
      </trkpt>
      <trkpt lat="42.651406" lon="0.428118">
        <ele>3049.000000</ele>
        <time>2021-09-04T15:46:25Z</time>
      </trkpt>
      <trkpt lat="42.651415" lon="0.428128">
        <ele>3049.000000</ele>
        <time>2021-09-04T15:46:26Z</time>
      </trkpt>
      <trkpt lat="42.651422" lon="0.428140">
        <ele>3049.000000</ele>
        <time>2021-09-04T15:46:27Z</time>
      </trkpt>
      <trkpt lat="42.651427" lon="0.428153">
        <ele>3049.000000</ele>
        <time>2021-09-04T15:46:28Z</time>
      </trkpt>
      <trkpt lat="42.651428" lon="0.428163">
        <ele>3049.000000</ele>
        <time>2021-09-04T15:46:29Z</time>
      </trkpt>
      <trkpt lat="42.651423" lon="0.428173">
        <ele>3049.000000</ele>
        <time>2021-09-04T15:46:30Z</time>
      </trkpt>
      <trkpt lat="42.651427" lon="0.428180">
        <ele>3049.000000</ele>
        <time>2021-09-04T15:46:31Z</time>
      </trkpt>
      <trkpt lat="42.651430" lon="0.428190">
        <ele>3049.000000</ele>
        <time>2021-09-04T15:46:32Z</time>
      </trkpt>
      <trkpt lat="42.651432" lon="0.428203">
        <ele>3049.000000</ele>
        <time>2021-09-04T15:46:33Z</time>
      </trkpt>
      <trkpt lat="42.651434" lon="0.428215">
        <ele>3049.000000</ele>
        <time>2021-09-04T15:46:34Z</time>
      </trkpt>
      <trkpt lat="42.651434" lon="0.428227">
        <ele>3049.000000</ele>
        <time>2021-09-04T15:46:35Z</time>
      </trkpt>
      <trkpt lat="42.651437" lon="0.428242">
        <ele>3049.000000</ele>
        <time>2021-09-04T15:46:36Z</time>
      </trkpt>
      <trkpt lat="42.651440" lon="0.428252">
        <ele>3049.000000</ele>
        <time>2021-09-04T15:46:37Z</time>
      </trkpt>
      <trkpt lat="42.651445" lon="0.428257">
        <ele>3049.000000</ele>
        <time>2021-09-04T15:46:38Z</time>
      </trkpt>
      <trkpt lat="42.651448" lon="0.428258">
        <ele>3049.000000</ele>
        <time>2021-09-04T15:46:39Z</time>
      </trkpt>
      <trkpt lat="42.651455" lon="0.428267">
        <ele>3049.000000</ele>
        <time>2021-09-04T15:46:42Z</time>
      </trkpt>
      <trkpt lat="42.651457" lon="0.428270">
        <ele>3049.000000</ele>
        <time>2021-09-04T15:46:43Z</time>
      </trkpt>
      <trkpt lat="42.651459" lon="0.428273">
        <ele>3049.000000</ele>
        <time>2021-09-04T15:46:44Z</time>
      </trkpt>
      <trkpt lat="42.651461" lon="0.428277">
        <ele>3049.000000</ele>
        <time>2021-09-04T15:46:45Z</time>
      </trkpt>
      <trkpt lat="42.651462" lon="0.428278">
        <ele>3049.000000</ele>
        <time>2021-09-04T15:46:47Z</time>
      </trkpt>
      <trkpt lat="42.651463" lon="0.428282">
        <ele>3049.000000</ele>
        <time>2021-09-04T15:46:49Z</time>
      </trkpt>
      <trkpt lat="42.651465" lon="0.428285">
        <ele>3049.000000</ele>
        <time>2021-09-04T15:46:50Z</time>
      </trkpt>
      <trkpt lat="42.651461" lon="0.428278">
        <ele>3049.000000</ele>
        <time>2021-09-04T15:46:51Z</time>
      </trkpt>
      <trkpt lat="42.651468" lon="0.428322">
        <ele>3050.000000</ele>
        <time>2021-09-04T15:49:10Z</time>
      </trkpt>
      <trkpt lat="42.651473" lon="0.428383">
        <ele>3050.000000</ele>
        <time>2021-09-04T15:51:18Z</time>
      </trkpt>
      <trkpt lat="42.651478" lon="0.428440">
        <ele>3050.000000</ele>
        <time>2021-09-04T15:52:41Z</time>
      </trkpt>
      <trkpt lat="42.651498" lon="0.428878">
        <ele>3050.000000</ele>
        <time>2021-09-04T15:53:20Z</time>
      </trkpt>
      <trkpt lat="42.651497" lon="0.428877">
        <ele>3050.000000</ele>
        <time>2021-09-04T15:53:21Z</time>
      </trkpt>
      <trkpt lat="42.651495" lon="0.428882">
        <ele>3050.000000</ele>
        <time>2021-09-04T15:53:22Z</time>
      </trkpt>
      <trkpt lat="42.651492" lon="0.428883">
        <ele>3050.000000</ele>
        <time>2021-09-04T15:53:23Z</time>
      </trkpt>
      <trkpt lat="42.651493" lon="0.428883">
        <ele>3050.000000</ele>
        <time>2021-09-04T15:53:25Z</time>
      </trkpt>
      <trkpt lat="42.651495" lon="0.428883">
        <ele>3050.000000</ele>
        <time>2021-09-04T15:53:26Z</time>
      </trkpt>
      <trkpt lat="42.651495" lon="0.428882">
        <ele>3050.000000</ele>
        <time>2021-09-04T15:53:27Z</time>
      </trkpt>
      <trkpt lat="42.651485" lon="0.428877">
        <ele>3050.000000</ele>
        <time>2021-09-04T15:53:32Z</time>
      </trkpt>
      <trkpt lat="42.651483" lon="0.428867">
        <ele>3050.000000</ele>
        <time>2021-09-04T15:53:33Z</time>
      </trkpt>
      <trkpt lat="42.651480" lon="0.428870">
        <ele>3050.000000</ele>
        <time>2021-09-04T15:53:34Z</time>
      </trkpt>
      <trkpt lat="42.651479" lon="0.428878">
        <ele>3050.000000</ele>
        <time>2021-09-04T15:53:35Z</time>
      </trkpt>
      <trkpt lat="42.651481" lon="0.428887">
        <ele>3050.000000</ele>
        <time>2021-09-04T15:53:36Z</time>
      </trkpt>
      <trkpt lat="42.651485" lon="0.428892">
        <ele>3050.000000</ele>
        <time>2021-09-04T15:53:37Z</time>
      </trkpt>
      <trkpt lat="42.651497" lon="0.428893">
        <ele>3050.000000</ele>
        <time>2021-09-04T15:53:38Z</time>
      </trkpt>
      <trkpt lat="42.651500" lon="0.428897">
        <ele>3050.000000</ele>
        <time>2021-09-04T15:53:39Z</time>
      </trkpt>
      <trkpt lat="42.651503" lon="0.428870">
        <ele>3050.000000</ele>
        <time>2021-09-04T15:53:40Z</time>
      </trkpt>
      <trkpt lat="42.651503" lon="0.428865">
        <ele>3050.000000</ele>
        <time>2021-09-04T15:53:41Z</time>
      </trkpt>
      <trkpt lat="42.651502" lon="0.428845">
        <ele>3050.000000</ele>
        <time>2021-09-04T15:53:42Z</time>
      </trkpt>
      <trkpt lat="42.651503" lon="0.428857">
        <ele>3050.000000</ele>
        <time>2021-09-04T15:53:43Z</time>
      </trkpt>
      <trkpt lat="42.651503" lon="0.428885">
        <ele>3050.000000</ele>
        <time>2021-09-04T15:53:44Z</time>
      </trkpt>
      <trkpt lat="42.651504" lon="0.428903">
        <ele>3051.000000</ele>
        <time>2021-09-04T15:53:45Z</time>
      </trkpt>
      <trkpt lat="42.651504" lon="0.428908">
        <ele>3051.000000</ele>
        <time>2021-09-04T15:53:46Z</time>
      </trkpt>
      <trkpt lat="42.651501" lon="0.428908">
        <ele>3051.000000</ele>
        <time>2021-09-04T15:53:47Z</time>
      </trkpt>
      <trkpt lat="42.651500" lon="0.428905">
        <ele>3051.000000</ele>
        <time>2021-09-04T15:53:48Z</time>
      </trkpt>
      <trkpt lat="42.651501" lon="0.428882">
        <ele>3051.000000</ele>
        <time>2021-09-04T15:53:49Z</time>
      </trkpt>
      <trkpt lat="42.651501" lon="0.428873">
        <ele>3051.000000</ele>
        <time>2021-09-04T15:53:50Z</time>
      </trkpt>
      <trkpt lat="42.651499" lon="0.428863">
        <ele>3051.000000</ele>
        <time>2021-09-04T15:53:51Z</time>
      </trkpt>
      <trkpt lat="42.651496" lon="0.428850">
        <ele>3051.000000</ele>
        <time>2021-09-04T15:53:52Z</time>
      </trkpt>
      <trkpt lat="42.651496" lon="0.428872">
        <ele>3051.000000</ele>
        <time>2021-09-04T15:53:53Z</time>
      </trkpt>
      <trkpt lat="42.651495" lon="0.428870">
        <ele>3051.000000</ele>
        <time>2021-09-04T15:53:54Z</time>
      </trkpt>
      <trkpt lat="42.651493" lon="0.428865">
        <ele>3051.000000</ele>
        <time>2021-09-04T15:53:56Z</time>
      </trkpt>
      <trkpt lat="42.651488" lon="0.428880">
        <ele>3051.000000</ele>
        <time>2021-09-04T15:53:58Z</time>
      </trkpt>
      <trkpt lat="42.651475" lon="0.428877">
        <ele>3051.000000</ele>
        <time>2021-09-04T15:53:59Z</time>
      </trkpt>
      <trkpt lat="42.651472" lon="0.428865">
        <ele>3051.000000</ele>
        <time>2021-09-04T15:54:00Z</time>
      </trkpt>
      <trkpt lat="42.651467" lon="0.428850">
        <ele>3051.000000</ele>
        <time>2021-09-04T15:54:01Z</time>
      </trkpt>
      <trkpt lat="42.651478" lon="0.428868">
        <ele>3051.000000</ele>
        <time>2021-09-04T15:54:02Z</time>
      </trkpt>
      <trkpt lat="42.651480" lon="0.428872">
        <ele>3051.000000</ele>
        <time>2021-09-04T15:54:19Z</time>
      </trkpt>
      <trkpt lat="42.651477" lon="0.428870">
        <ele>3051.000000</ele>
        <time>2021-09-04T15:54:20Z</time>
      </trkpt>
      <trkpt lat="42.651472" lon="0.428868">
        <ele>3051.000000</ele>
        <time>2021-09-04T15:54:21Z</time>
      </trkpt>
      <trkpt lat="42.651473" lon="0.428870">
        <ele>3051.000000</ele>
        <time>2021-09-04T15:54:22Z</time>
      </trkpt>
      <trkpt lat="42.651474" lon="0.428872">
        <ele>3051.000000</ele>
        <time>2021-09-04T15:54:23Z</time>
      </trkpt>
      <trkpt lat="42.651478" lon="0.428877">
        <ele>3051.000000</ele>
        <time>2021-09-04T15:54:24Z</time>
      </trkpt>
      <trkpt lat="42.651481" lon="0.428878">
        <ele>3051.000000</ele>
        <time>2021-09-04T15:54:26Z</time>
      </trkpt>
      <trkpt lat="42.651484" lon="0.428880">
        <ele>3051.000000</ele>
        <time>2021-09-04T15:54:28Z</time>
      </trkpt>
      <trkpt lat="42.651480" lon="0.428877">
        <ele>3051.000000</ele>
        <time>2021-09-04T15:54:29Z</time>
      </trkpt>
      <trkpt lat="42.651520" lon="0.428940">
        <ele>3051.000000</ele>
        <time>2021-09-04T15:54:52Z</time>
      </trkpt>
      <trkpt lat="42.651523" lon="0.428943">
        <ele>3051.000000</ele>
        <time>2021-09-04T15:54:53Z</time>
      </trkpt>
      <trkpt lat="42.651522" lon="0.428943">
        <ele>3051.000000</ele>
        <time>2021-09-04T15:54:54Z</time>
      </trkpt>
      <trkpt lat="42.651523" lon="0.428946">
        <ele>3051.000000</ele>
        <time>2021-09-04T15:54:55Z</time>
      </trkpt>
      <trkpt lat="42.651522" lon="0.428946">
        <ele>3051.000000</ele>
        <time>2021-09-04T15:54:56Z</time>
      </trkpt>
      <trkpt lat="42.651523" lon="0.428947">
        <ele>3051.000000</ele>
        <time>2021-09-04T15:54:58Z</time>
      </trkpt>
      <trkpt lat="42.651523" lon="0.428949">
        <ele>3054.000000</ele>
        <time>2021-09-04T15:55:01Z</time>
      </trkpt>
      <trkpt lat="42.651525" lon="0.428953">
        <ele>3054.000000</ele>
        <time>2021-09-04T15:55:02Z</time>
      </trkpt>
      <trkpt lat="42.651523" lon="0.428950">
        <ele>3054.000000</ele>
        <time>2021-09-04T15:55:04Z</time>
      </trkpt>
      <trkpt lat="42.651567" lon="0.428995">
        <ele>3055.000000</ele>
        <time>2021-09-04T15:55:14Z</time>
      </trkpt>
      <trkpt lat="42.651572" lon="0.429000">
        <ele>3055.000000</ele>
        <time>2021-09-04T15:55:15Z</time>
      </trkpt>
      <trkpt lat="42.651582" lon="0.429008">
        <ele>3055.000000</ele>
        <time>2021-09-04T15:55:16Z</time>
      </trkpt>
      <trkpt lat="42.651588" lon="0.429013">
        <ele>3055.000000</ele>
        <time>2021-09-04T15:55:17Z</time>
      </trkpt>
      <trkpt lat="42.651593" lon="0.429018">
        <ele>3055.000000</ele>
        <time>2021-09-04T15:55:18Z</time>
      </trkpt>
      <trkpt lat="42.651597" lon="0.429022">
        <ele>3055.000000</ele>
        <time>2021-09-04T15:55:19Z</time>
      </trkpt>
      <trkpt lat="42.651603" lon="0.429030">
        <ele>3056.000000</ele>
        <time>2021-09-04T15:55:20Z</time>
      </trkpt>
      <trkpt lat="42.651610" lon="0.429037">
        <ele>3056.000000</ele>
        <time>2021-09-04T15:55:21Z</time>
      </trkpt>
      <trkpt lat="42.651618" lon="0.429045">
        <ele>3056.000000</ele>
        <time>2021-09-04T15:55:22Z</time>
      </trkpt>
      <trkpt lat="42.651627" lon="0.429053">
        <ele>3056.000000</ele>
        <time>2021-09-04T15:55:23Z</time>
      </trkpt>
      <trkpt lat="42.651632" lon="0.429057">
        <ele>3056.000000</ele>
        <time>2021-09-04T15:55:24Z</time>
      </trkpt>
      <trkpt lat="42.651633" lon="0.429058">
        <ele>3056.000000</ele>
        <time>2021-09-04T15:55:25Z</time>
      </trkpt>
      <trkpt lat="42.651638" lon="0.429062">
        <ele>3056.000000</ele>
        <time>2021-09-04T15:55:26Z</time>
      </trkpt>
      <trkpt lat="42.651640" lon="0.429063">
        <ele>3056.000000</ele>
        <time>2021-09-04T15:55:27Z</time>
      </trkpt>
      <trkpt lat="42.651643" lon="0.429066">
        <ele>3056.000000</ele>
        <time>2021-09-04T15:55:28Z</time>
      </trkpt>
      <trkpt lat="42.651645" lon="0.429067">
        <ele>3056.000000</ele>
        <time>2021-09-04T15:55:29Z</time>
      </trkpt>
      <trkpt lat="42.651648" lon="0.429068">
        <ele>3056.000000</ele>
        <time>2021-09-04T15:55:30Z</time>
      </trkpt>
      <trkpt lat="42.651650" lon="0.429073">
        <ele>3056.000000</ele>
        <time>2021-09-04T15:55:31Z</time>
      </trkpt>
      <trkpt lat="42.651652" lon="0.429080">
        <ele>3056.000000</ele>
        <time>2021-09-04T15:55:32Z</time>
      </trkpt>
      <trkpt lat="42.651654" lon="0.429085">
        <ele>3056.000000</ele>
        <time>2021-09-04T15:55:33Z</time>
      </trkpt>
      <trkpt lat="42.651658" lon="0.429090">
        <ele>3056.000000</ele>
        <time>2021-09-04T15:55:34Z</time>
      </trkpt>
      <trkpt lat="42.651662" lon="0.429092">
        <ele>3056.000000</ele>
        <time>2021-09-04T15:55:35Z</time>
      </trkpt>
      <trkpt lat="42.651670" lon="0.429095">
        <ele>3056.000000</ele>
        <time>2021-09-04T15:55:36Z</time>
      </trkpt>
      <trkpt lat="42.651678" lon="0.429100">
        <ele>3056.000000</ele>
        <time>2021-09-04T15:55:37Z</time>
      </trkpt>
      <trkpt lat="42.651683" lon="0.429103">
        <ele>3056.000000</ele>
        <time>2021-09-04T15:55:38Z</time>
      </trkpt>
      <trkpt lat="42.651688" lon="0.429104">
        <ele>3056.000000</ele>
        <time>2021-09-04T15:55:39Z</time>
      </trkpt>
      <trkpt lat="42.651693" lon="0.429106">
        <ele>3056.000000</ele>
        <time>2021-09-04T15:55:40Z</time>
      </trkpt>
      <trkpt lat="42.651698" lon="0.429109">
        <ele>3056.000000</ele>
        <time>2021-09-04T15:55:41Z</time>
      </trkpt>
      <trkpt lat="42.651698" lon="0.429111">
        <ele>3056.000000</ele>
        <time>2021-09-04T15:55:42Z</time>
      </trkpt>
      <trkpt lat="42.651702" lon="0.429114">
        <ele>3056.000000</ele>
        <time>2021-09-04T15:55:43Z</time>
      </trkpt>
      <trkpt lat="42.651707" lon="0.429117">
        <ele>3056.000000</ele>
        <time>2021-09-04T15:55:44Z</time>
      </trkpt>
      <trkpt lat="42.651710" lon="0.429118">
        <ele>3056.000000</ele>
        <time>2021-09-04T15:55:45Z</time>
      </trkpt>
      <trkpt lat="42.651713" lon="0.429120">
        <ele>3056.000000</ele>
        <time>2021-09-04T15:55:46Z</time>
      </trkpt>
      <trkpt lat="42.651718" lon="0.429122">
        <ele>3056.000000</ele>
        <time>2021-09-04T15:55:47Z</time>
      </trkpt>
      <trkpt lat="42.651718" lon="0.429123">
        <ele>3056.000000</ele>
        <time>2021-09-04T15:55:48Z</time>
      </trkpt>
      <trkpt lat="42.651720" lon="0.429127">
        <ele>3056.000000</ele>
        <time>2021-09-04T15:55:49Z</time>
      </trkpt>
      <trkpt lat="42.651720" lon="0.429132">
        <ele>3054.000000</ele>
        <time>2021-09-04T15:55:50Z</time>
      </trkpt>
      <trkpt lat="42.651722" lon="0.429135">
        <ele>3054.000000</ele>
        <time>2021-09-04T15:55:51Z</time>
      </trkpt>
      <trkpt lat="42.651727" lon="0.429135">
        <ele>3054.000000</ele>
        <time>2021-09-04T15:55:52Z</time>
      </trkpt>
      <trkpt lat="42.651732" lon="0.429140">
        <ele>3054.000000</ele>
        <time>2021-09-04T15:55:53Z</time>
      </trkpt>
      <trkpt lat="42.651735" lon="0.429147">
        <ele>3054.000000</ele>
        <time>2021-09-04T15:55:54Z</time>
      </trkpt>
      <trkpt lat="42.651740" lon="0.429152">
        <ele>3054.000000</ele>
        <time>2021-09-04T15:55:55Z</time>
      </trkpt>
      <trkpt lat="42.651747" lon="0.429158">
        <ele>3054.000000</ele>
        <time>2021-09-04T15:55:56Z</time>
      </trkpt>
      <trkpt lat="42.651753" lon="0.429163">
        <ele>3054.000000</ele>
        <time>2021-09-04T15:55:57Z</time>
      </trkpt>
      <trkpt lat="42.651762" lon="0.429169">
        <ele>3054.000000</ele>
        <time>2021-09-04T15:55:58Z</time>
      </trkpt>
      <trkpt lat="42.651770" lon="0.429177">
        <ele>3054.000000</ele>
        <time>2021-09-04T15:55:59Z</time>
      </trkpt>
      <trkpt lat="42.651778" lon="0.429186">
        <ele>3054.000000</ele>
        <time>2021-09-04T15:56:00Z</time>
      </trkpt>
      <trkpt lat="42.651785" lon="0.429193">
        <ele>3054.000000</ele>
        <time>2021-09-04T15:56:01Z</time>
      </trkpt>
      <trkpt lat="42.651792" lon="0.429200">
        <ele>3054.000000</ele>
        <time>2021-09-04T15:56:02Z</time>
      </trkpt>
      <trkpt lat="42.651798" lon="0.429207">
        <ele>3054.000000</ele>
        <time>2021-09-04T15:56:03Z</time>
      </trkpt>
      <trkpt lat="42.651803" lon="0.429218">
        <ele>3054.000000</ele>
        <time>2021-09-04T15:56:04Z</time>
      </trkpt>
      <trkpt lat="42.651807" lon="0.429225">
        <ele>3054.000000</ele>
        <time>2021-09-04T15:56:05Z</time>
      </trkpt>
      <trkpt lat="42.651813" lon="0.429233">
        <ele>3054.000000</ele>
        <time>2021-09-04T15:56:06Z</time>
      </trkpt>
      <trkpt lat="42.651817" lon="0.429240">
        <ele>3054.000000</ele>
        <time>2021-09-04T15:56:07Z</time>
      </trkpt>
      <trkpt lat="42.651820" lon="0.429243">
        <ele>3054.000000</ele>
        <time>2021-09-04T15:56:08Z</time>
      </trkpt>
      <trkpt lat="42.651822" lon="0.429247">
        <ele>3054.000000</ele>
        <time>2021-09-04T15:56:09Z</time>
      </trkpt>
      <trkpt lat="42.651826" lon="0.429252">
        <ele>3054.000000</ele>
        <time>2021-09-04T15:56:10Z</time>
      </trkpt>
      <trkpt lat="42.651833" lon="0.429253">
        <ele>3054.000000</ele>
        <time>2021-09-04T15:56:11Z</time>
      </trkpt>
      <trkpt lat="42.651838" lon="0.429262">
        <ele>3054.000000</ele>
        <time>2021-09-04T15:56:12Z</time>
      </trkpt>
      <trkpt lat="42.651848" lon="0.429272">
        <ele>3054.000000</ele>
        <time>2021-09-04T15:56:13Z</time>
      </trkpt>
      <trkpt lat="42.651857" lon="0.429279">
        <ele>3054.000000</ele>
        <time>2021-09-04T15:56:14Z</time>
      </trkpt>
      <trkpt lat="42.651858" lon="0.429290">
        <ele>3054.000000</ele>
        <time>2021-09-04T15:56:15Z</time>
      </trkpt>
      <trkpt lat="42.651862" lon="0.429295">
        <ele>3054.000000</ele>
        <time>2021-09-04T15:56:16Z</time>
      </trkpt>
      <trkpt lat="42.651863" lon="0.429303">
        <ele>3054.000000</ele>
        <time>2021-09-04T15:56:17Z</time>
      </trkpt>
      <trkpt lat="42.651863" lon="0.429310">
        <ele>3054.000000</ele>
        <time>2021-09-04T15:56:18Z</time>
      </trkpt>
      <trkpt lat="42.651867" lon="0.429313">
        <ele>3054.000000</ele>
        <time>2021-09-04T15:56:19Z</time>
      </trkpt>
      <trkpt lat="42.651870" lon="0.429323">
        <ele>3054.000000</ele>
        <time>2021-09-04T15:56:20Z</time>
      </trkpt>
      <trkpt lat="42.651872" lon="0.429333">
        <ele>3054.000000</ele>
        <time>2021-09-04T15:56:21Z</time>
      </trkpt>
      <trkpt lat="42.651872" lon="0.429343">
        <ele>3054.000000</ele>
        <time>2021-09-04T15:56:22Z</time>
      </trkpt>
      <trkpt lat="42.651871" lon="0.429352">
        <ele>3054.000000</ele>
        <time>2021-09-04T15:56:23Z</time>
      </trkpt>
      <trkpt lat="42.651870" lon="0.429357">
        <ele>3054.000000</ele>
        <time>2021-09-04T15:56:24Z</time>
      </trkpt>
      <trkpt lat="42.651870" lon="0.429362">
        <ele>3054.000000</ele>
        <time>2021-09-04T15:56:25Z</time>
      </trkpt>
      <trkpt lat="42.651870" lon="0.429370">
        <ele>3054.000000</ele>
        <time>2021-09-04T15:56:26Z</time>
      </trkpt>
      <trkpt lat="42.651872" lon="0.429375">
        <ele>3054.000000</ele>
        <time>2021-09-04T15:56:27Z</time>
      </trkpt>
      <trkpt lat="42.651873" lon="0.429382">
        <ele>3054.000000</ele>
        <time>2021-09-04T15:56:28Z</time>
      </trkpt>
      <trkpt lat="42.651875" lon="0.429387">
        <ele>3054.000000</ele>
        <time>2021-09-04T15:56:29Z</time>
      </trkpt>
      <trkpt lat="42.651875" lon="0.429390">
        <ele>3054.000000</ele>
        <time>2021-09-04T15:56:30Z</time>
      </trkpt>
      <trkpt lat="42.651876" lon="0.429395">
        <ele>3054.000000</ele>
        <time>2021-09-04T15:56:31Z</time>
      </trkpt>
      <trkpt lat="42.651875" lon="0.429400">
        <ele>3054.000000</ele>
        <time>2021-09-04T15:56:32Z</time>
      </trkpt>
      <trkpt lat="42.651877" lon="0.429403">
        <ele>3054.000000</ele>
        <time>2021-09-04T15:56:33Z</time>
      </trkpt>
      <trkpt lat="42.651879" lon="0.429408">
        <ele>3054.000000</ele>
        <time>2021-09-04T15:56:34Z</time>
      </trkpt>
      <trkpt lat="42.651880" lon="0.429410">
        <ele>3054.000000</ele>
        <time>2021-09-04T15:56:35Z</time>
      </trkpt>
      <trkpt lat="42.651880" lon="0.429413">
        <ele>3052.000000</ele>
        <time>2021-09-04T15:56:37Z</time>
      </trkpt>
      <trkpt lat="42.651874" lon="0.429425">
        <ele>3052.000000</ele>
        <time>2021-09-04T15:56:38Z</time>
      </trkpt>
      <trkpt lat="42.651867" lon="0.429428">
        <ele>3052.000000</ele>
        <time>2021-09-04T15:56:39Z</time>
      </trkpt>
      <trkpt lat="42.651860" lon="0.429428">
        <ele>3052.000000</ele>
        <time>2021-09-04T15:56:40Z</time>
      </trkpt>
      <trkpt lat="42.651858" lon="0.429425">
        <ele>3053.000000</ele>
        <time>2021-09-04T15:56:41Z</time>
      </trkpt>
      <trkpt lat="42.651859" lon="0.429423">
        <ele>3053.000000</ele>
        <time>2021-09-04T15:56:42Z</time>
      </trkpt>
      <trkpt lat="42.651858" lon="0.429420">
        <ele>3053.000000</ele>
        <time>2021-09-04T15:56:43Z</time>
      </trkpt>
      <trkpt lat="42.651859" lon="0.429422">
        <ele>3053.000000</ele>
        <time>2021-09-04T15:56:43Z</time>
      </trkpt>
      <trkpt lat="42.651922" lon="0.429607">
        <ele>3050.000000</ele>
        <time>2021-09-04T15:57:25Z</time>
      </trkpt>
      <trkpt lat="42.651922" lon="0.429612">
        <ele>3050.000000</ele>
        <time>2021-09-04T15:57:26Z</time>
      </trkpt>
      <trkpt lat="42.651922" lon="0.429615">
        <ele>3050.000000</ele>
        <time>2021-09-04T15:57:27Z</time>
      </trkpt>
      <trkpt lat="42.651923" lon="0.429620">
        <ele>3050.000000</ele>
        <time>2021-09-04T15:57:28Z</time>
      </trkpt>
      <trkpt lat="42.651925" lon="0.429625">
        <ele>3049.000000</ele>
        <time>2021-09-04T15:57:29Z</time>
      </trkpt>
      <trkpt lat="42.651927" lon="0.429627">
        <ele>3049.000000</ele>
        <time>2021-09-04T15:57:30Z</time>
      </trkpt>
      <trkpt lat="42.651933" lon="0.429638">
        <ele>3049.000000</ele>
        <time>2021-09-04T15:57:32Z</time>
      </trkpt>
      <trkpt lat="42.651938" lon="0.429650">
        <ele>3049.000000</ele>
        <time>2021-09-04T15:57:33Z</time>
      </trkpt>
      <trkpt lat="42.651943" lon="0.429658">
        <ele>3049.000000</ele>
        <time>2021-09-04T15:57:34Z</time>
      </trkpt>
      <trkpt lat="42.651947" lon="0.429668">
        <ele>3049.000000</ele>
        <time>2021-09-04T15:57:35Z</time>
      </trkpt>
      <trkpt lat="42.651950" lon="0.429680">
        <ele>3049.000000</ele>
        <time>2021-09-04T15:57:36Z</time>
      </trkpt>
      <trkpt lat="42.651953" lon="0.429685">
        <ele>3049.000000</ele>
        <time>2021-09-04T15:57:37Z</time>
      </trkpt>
      <trkpt lat="42.651956" lon="0.429693">
        <ele>3049.000000</ele>
        <time>2021-09-04T15:57:38Z</time>
      </trkpt>
      <trkpt lat="42.651958" lon="0.429698">
        <ele>3049.000000</ele>
        <time>2021-09-04T15:57:39Z</time>
      </trkpt>
      <trkpt lat="42.651962" lon="0.429705">
        <ele>3049.000000</ele>
        <time>2021-09-04T15:57:40Z</time>
      </trkpt>
      <trkpt lat="42.651965" lon="0.429712">
        <ele>3049.000000</ele>
        <time>2021-09-04T15:57:41Z</time>
      </trkpt>
      <trkpt lat="42.651967" lon="0.429718">
        <ele>3049.000000</ele>
        <time>2021-09-04T15:57:42Z</time>
      </trkpt>
      <trkpt lat="42.651970" lon="0.429728">
        <ele>3049.000000</ele>
        <time>2021-09-04T15:57:43Z</time>
      </trkpt>
      <trkpt lat="42.651981" lon="0.429738">
        <ele>3049.000000</ele>
        <time>2021-09-04T15:57:44Z</time>
      </trkpt>
      <trkpt lat="42.651989" lon="0.429745">
        <ele>3049.000000</ele>
        <time>2021-09-04T15:57:45Z</time>
      </trkpt>
      <trkpt lat="42.651997" lon="0.429758">
        <ele>3049.000000</ele>
        <time>2021-09-04T15:57:46Z</time>
      </trkpt>
      <trkpt lat="42.652002" lon="0.429772">
        <ele>3049.000000</ele>
        <time>2021-09-04T15:57:47Z</time>
      </trkpt>
      <trkpt lat="42.652006" lon="0.429780">
        <ele>3049.000000</ele>
        <time>2021-09-04T15:57:48Z</time>
      </trkpt>
      <trkpt lat="42.652011" lon="0.429792">
        <ele>3049.000000</ele>
        <time>2021-09-04T15:57:49Z</time>
      </trkpt>
      <trkpt lat="42.652016" lon="0.429803">
        <ele>3049.000000</ele>
        <time>2021-09-04T15:57:50Z</time>
      </trkpt>
      <trkpt lat="42.652023" lon="0.429815">
        <ele>3049.000000</ele>
        <time>2021-09-04T15:57:51Z</time>
      </trkpt>
      <trkpt lat="42.652028" lon="0.429828">
        <ele>3049.000000</ele>
        <time>2021-09-04T15:57:52Z</time>
      </trkpt>
      <trkpt lat="42.652034" lon="0.429842">
        <ele>3049.000000</ele>
        <time>2021-09-04T15:57:53Z</time>
      </trkpt>
      <trkpt lat="42.652040" lon="0.429853">
        <ele>3049.000000</ele>
        <time>2021-09-04T15:57:54Z</time>
      </trkpt>
      <trkpt lat="42.652046" lon="0.429868">
        <ele>3049.000000</ele>
        <time>2021-09-04T15:57:55Z</time>
      </trkpt>
      <trkpt lat="42.652049" lon="0.429877">
        <ele>3049.000000</ele>
        <time>2021-09-04T15:57:56Z</time>
      </trkpt>
      <trkpt lat="42.652051" lon="0.429880">
        <ele>3049.000000</ele>
        <time>2021-09-04T15:57:57Z</time>
      </trkpt>
      <trkpt lat="42.652054" lon="0.429887">
        <ele>3049.000000</ele>
        <time>2021-09-04T15:57:58Z</time>
      </trkpt>
      <trkpt lat="42.652058" lon="0.429895">
        <ele>3049.000000</ele>
        <time>2021-09-04T15:57:59Z</time>
      </trkpt>
      <trkpt lat="42.652060" lon="0.429900">
        <ele>3049.000000</ele>
        <time>2021-09-04T15:58:00Z</time>
      </trkpt>
      <trkpt lat="42.652063" lon="0.429905">
        <ele>3049.000000</ele>
        <time>2021-09-04T15:58:01Z</time>
      </trkpt>
      <trkpt lat="42.652067" lon="0.429912">
        <ele>3049.000000</ele>
        <time>2021-09-04T15:58:02Z</time>
      </trkpt>
      <trkpt lat="42.652072" lon="0.429920">
        <ele>3049.000000</ele>
        <time>2021-09-04T15:58:03Z</time>
      </trkpt>
      <trkpt lat="42.652077" lon="0.429930">
        <ele>3049.000000</ele>
        <time>2021-09-04T15:58:04Z</time>
      </trkpt>
      <trkpt lat="42.652082" lon="0.429940">
        <ele>3049.000000</ele>
        <time>2021-09-04T15:58:05Z</time>
      </trkpt>
      <trkpt lat="42.652088" lon="0.429950">
        <ele>3049.000000</ele>
        <time>2021-09-04T15:58:06Z</time>
      </trkpt>
      <trkpt lat="42.652094" lon="0.429962">
        <ele>3049.000000</ele>
        <time>2021-09-04T15:58:07Z</time>
      </trkpt>
      <trkpt lat="42.652099" lon="0.429973">
        <ele>3049.000000</ele>
        <time>2021-09-04T15:58:08Z</time>
      </trkpt>
      <trkpt lat="42.652097" lon="0.429980">
        <ele>3049.000000</ele>
        <time>2021-09-04T15:58:09Z</time>
      </trkpt>
      <trkpt lat="42.652097" lon="0.429983">
        <ele>3049.000000</ele>
        <time>2021-09-04T15:58:10Z</time>
      </trkpt>
      <trkpt lat="42.652097" lon="0.429988">
        <ele>3049.000000</ele>
        <time>2021-09-04T15:58:11Z</time>
      </trkpt>
      <trkpt lat="42.652098" lon="0.429993">
        <ele>3049.000000</ele>
        <time>2021-09-04T15:58:12Z</time>
      </trkpt>
      <trkpt lat="42.652102" lon="0.430002">
        <ele>3049.000000</ele>
        <time>2021-09-04T15:58:13Z</time>
      </trkpt>
      <trkpt lat="42.652108" lon="0.430012">
        <ele>3049.000000</ele>
        <time>2021-09-04T15:58:14Z</time>
      </trkpt>
      <trkpt lat="42.652113" lon="0.430022">
        <ele>3049.000000</ele>
        <time>2021-09-04T15:58:15Z</time>
      </trkpt>
      <trkpt lat="42.652117" lon="0.430030">
        <ele>3049.000000</ele>
        <time>2021-09-04T15:58:16Z</time>
      </trkpt>
      <trkpt lat="42.652120" lon="0.430038">
        <ele>3049.000000</ele>
        <time>2021-09-04T15:58:17Z</time>
      </trkpt>
      <trkpt lat="42.652124" lon="0.430048">
        <ele>3049.000000</ele>
        <time>2021-09-04T15:58:18Z</time>
      </trkpt>
      <trkpt lat="42.652129" lon="0.430062">
        <ele>3049.000000</ele>
        <time>2021-09-04T15:58:19Z</time>
      </trkpt>
      <trkpt lat="42.652130" lon="0.430068">
        <ele>3049.000000</ele>
        <time>2021-09-04T15:58:20Z</time>
      </trkpt>
      <trkpt lat="42.652133" lon="0.430080">
        <ele>3049.000000</ele>
        <time>2021-09-04T15:58:21Z</time>
      </trkpt>
      <trkpt lat="42.652135" lon="0.430087">
        <ele>3049.000000</ele>
        <time>2021-09-04T15:58:22Z</time>
      </trkpt>
      <trkpt lat="42.652137" lon="0.430095">
        <ele>3049.000000</ele>
        <time>2021-09-04T15:58:23Z</time>
      </trkpt>
      <trkpt lat="42.652139" lon="0.430107">
        <ele>3049.000000</ele>
        <time>2021-09-04T15:58:24Z</time>
      </trkpt>
      <trkpt lat="42.652141" lon="0.430118">
        <ele>3049.000000</ele>
        <time>2021-09-04T15:58:25Z</time>
      </trkpt>
      <trkpt lat="42.652142" lon="0.430127">
        <ele>3049.000000</ele>
        <time>2021-09-04T15:58:26Z</time>
      </trkpt>
      <trkpt lat="42.652144" lon="0.430138">
        <ele>3049.000000</ele>
        <time>2021-09-04T15:58:27Z</time>
      </trkpt>
      <trkpt lat="42.652146" lon="0.430148">
        <ele>3049.000000</ele>
        <time>2021-09-04T15:58:28Z</time>
      </trkpt>
      <trkpt lat="42.652147" lon="0.430155">
        <ele>3049.000000</ele>
        <time>2021-09-04T15:58:29Z</time>
      </trkpt>
      <trkpt lat="42.652148" lon="0.430162">
        <ele>3049.000000</ele>
        <time>2021-09-04T15:58:30Z</time>
      </trkpt>
      <trkpt lat="42.652148" lon="0.430165">
        <ele>3049.000000</ele>
        <time>2021-09-04T15:58:31Z</time>
      </trkpt>
      <trkpt lat="42.652149" lon="0.430168">
        <ele>3049.000000</ele>
        <time>2021-09-04T15:58:32Z</time>
      </trkpt>
      <trkpt lat="42.652148" lon="0.430168">
        <ele>3049.000000</ele>
        <time>2021-09-04T15:58:33Z</time>
      </trkpt>
      <trkpt lat="42.652142" lon="0.430172">
        <ele>3049.000000</ele>
        <time>2021-09-04T15:58:38Z</time>
      </trkpt>
      <trkpt lat="42.652320" lon="0.430413">
        <ele>3055.000000</ele>
        <time>2021-09-04T16:00:06Z</time>
      </trkpt>
      <trkpt lat="42.652323" lon="0.430422">
        <ele>3055.000000</ele>
        <time>2021-09-04T16:00:07Z</time>
      </trkpt>
      <trkpt lat="42.652328" lon="0.430428">
        <ele>3055.000000</ele>
        <time>2021-09-04T16:00:08Z</time>
      </trkpt>
      <trkpt lat="42.652328" lon="0.430435">
        <ele>3055.000000</ele>
        <time>2021-09-04T16:00:09Z</time>
      </trkpt>
      <trkpt lat="42.652332" lon="0.430437">
        <ele>3055.000000</ele>
        <time>2021-09-04T16:00:10Z</time>
      </trkpt>
      <trkpt lat="42.652332" lon="0.430435">
        <ele>3055.000000</ele>
        <time>2021-09-04T16:00:11Z</time>
      </trkpt>
      <trkpt lat="42.652341" lon="0.430442">
        <ele>3055.000000</ele>
        <time>2021-09-04T16:00:12Z</time>
      </trkpt>
      <trkpt lat="42.652346" lon="0.430448">
        <ele>3056.000000</ele>
        <time>2021-09-04T16:00:13Z</time>
      </trkpt>
      <trkpt lat="42.652346" lon="0.430453">
        <ele>3056.000000</ele>
        <time>2021-09-04T16:00:14Z</time>
      </trkpt>
      <trkpt lat="42.652344" lon="0.430452">
        <ele>3056.000000</ele>
        <time>2021-09-04T16:00:15Z</time>
      </trkpt>
      <trkpt lat="42.652341" lon="0.430448">
        <ele>3056.000000</ele>
        <time>2021-09-04T16:00:16Z</time>
      </trkpt>
      <trkpt lat="42.652343" lon="0.430452">
        <ele>3056.000000</ele>
        <time>2021-09-04T16:00:17Z</time>
      </trkpt>
      <trkpt lat="42.652343" lon="0.430457">
        <ele>3056.000000</ele>
        <time>2021-09-04T16:00:18Z</time>
      </trkpt>
      <trkpt lat="42.652337" lon="0.430458">
        <ele>3056.000000</ele>
        <time>2021-09-04T16:00:20Z</time>
      </trkpt>
      <trkpt lat="42.652342" lon="0.430463">
        <ele>3056.000000</ele>
        <time>2021-09-04T16:00:21Z</time>
      </trkpt>
      <trkpt lat="42.652347" lon="0.430473">
        <ele>3056.000000</ele>
        <time>2021-09-04T16:00:22Z</time>
      </trkpt>
      <trkpt lat="42.652353" lon="0.430483">
        <ele>3056.000000</ele>
        <time>2021-09-04T16:00:23Z</time>
      </trkpt>
      <trkpt lat="42.652358" lon="0.430490">
        <ele>3056.000000</ele>
        <time>2021-09-04T16:00:24Z</time>
      </trkpt>
      <trkpt lat="42.652362" lon="0.430493">
        <ele>3056.000000</ele>
        <time>2021-09-04T16:00:25Z</time>
      </trkpt>
      <trkpt lat="42.652368" lon="0.430497">
        <ele>3056.000000</ele>
        <time>2021-09-04T16:00:26Z</time>
      </trkpt>
      <trkpt lat="42.652372" lon="0.430498">
        <ele>3056.000000</ele>
        <time>2021-09-04T16:00:27Z</time>
      </trkpt>
      <trkpt lat="42.652380" lon="0.430497">
        <ele>3056.000000</ele>
        <time>2021-09-04T16:00:28Z</time>
      </trkpt>
      <trkpt lat="42.652385" lon="0.430500">
        <ele>3056.000000</ele>
        <time>2021-09-04T16:00:29Z</time>
      </trkpt>
      <trkpt lat="42.652392" lon="0.430502">
        <ele>3056.000000</ele>
        <time>2021-09-04T16:00:30Z</time>
      </trkpt>
      <trkpt lat="42.652397" lon="0.430503">
        <ele>3056.000000</ele>
        <time>2021-09-04T16:00:31Z</time>
      </trkpt>
      <trkpt lat="42.652402" lon="0.430503">
        <ele>3056.000000</ele>
        <time>2021-09-04T16:00:33Z</time>
      </trkpt>
      <trkpt lat="42.652407" lon="0.430502">
        <ele>3056.000000</ele>
        <time>2021-09-04T16:00:34Z</time>
      </trkpt>
      <trkpt lat="42.652412" lon="0.430504">
        <ele>3056.000000</ele>
        <time>2021-09-04T16:00:35Z</time>
      </trkpt>
      <trkpt lat="42.652420" lon="0.430508">
        <ele>3056.000000</ele>
        <time>2021-09-04T16:00:36Z</time>
      </trkpt>
      <trkpt lat="42.652427" lon="0.430513">
        <ele>3056.000000</ele>
        <time>2021-09-04T16:00:37Z</time>
      </trkpt>
      <trkpt lat="42.652433" lon="0.430523">
        <ele>3056.000000</ele>
        <time>2021-09-04T16:00:38Z</time>
      </trkpt>
      <trkpt lat="42.652440" lon="0.430530">
        <ele>3056.000000</ele>
        <time>2021-09-04T16:00:39Z</time>
      </trkpt>
      <trkpt lat="42.652445" lon="0.430534">
        <ele>3056.000000</ele>
        <time>2021-09-04T16:00:40Z</time>
      </trkpt>
      <trkpt lat="42.652448" lon="0.430536">
        <ele>3056.000000</ele>
        <time>2021-09-04T16:00:41Z</time>
      </trkpt>
      <trkpt lat="42.652452" lon="0.430537">
        <ele>3056.000000</ele>
        <time>2021-09-04T16:00:42Z</time>
      </trkpt>
      <trkpt lat="42.652457" lon="0.430542">
        <ele>3056.000000</ele>
        <time>2021-09-04T16:00:43Z</time>
      </trkpt>
      <trkpt lat="42.652462" lon="0.430548">
        <ele>3056.000000</ele>
        <time>2021-09-04T16:00:44Z</time>
      </trkpt>
      <trkpt lat="42.652467" lon="0.430554">
        <ele>3056.000000</ele>
        <time>2021-09-04T16:00:45Z</time>
      </trkpt>
      <trkpt lat="42.652473" lon="0.430561">
        <ele>3056.000000</ele>
        <time>2021-09-04T16:00:46Z</time>
      </trkpt>
      <trkpt lat="42.652477" lon="0.430570">
        <ele>3056.000000</ele>
        <time>2021-09-04T16:00:47Z</time>
      </trkpt>
      <trkpt lat="42.652480" lon="0.430580">
        <ele>3056.000000</ele>
        <time>2021-09-04T16:00:48Z</time>
      </trkpt>
      <trkpt lat="42.652482" lon="0.430590">
        <ele>3056.000000</ele>
        <time>2021-09-04T16:00:49Z</time>
      </trkpt>
      <trkpt lat="42.652483" lon="0.430600">
        <ele>3056.000000</ele>
        <time>2021-09-04T16:00:50Z</time>
      </trkpt>
      <trkpt lat="42.652485" lon="0.430607">
        <ele>3056.000000</ele>
        <time>2021-09-04T16:00:51Z</time>
      </trkpt>
      <trkpt lat="42.652488" lon="0.430615">
        <ele>3056.000000</ele>
        <time>2021-09-04T16:00:52Z</time>
      </trkpt>
      <trkpt lat="42.652492" lon="0.430622">
        <ele>3056.000000</ele>
        <time>2021-09-04T16:00:53Z</time>
      </trkpt>
      <trkpt lat="42.652500" lon="0.430630">
        <ele>3056.000000</ele>
        <time>2021-09-04T16:00:54Z</time>
      </trkpt>
      <trkpt lat="42.652503" lon="0.430632">
        <ele>3056.000000</ele>
        <time>2021-09-04T16:00:55Z</time>
      </trkpt>
      <trkpt lat="42.652500" lon="0.430637">
        <ele>3056.000000</ele>
        <time>2021-09-04T16:00:58Z</time>
      </trkpt>
      <trkpt lat="42.652503" lon="0.430633">
        <ele>3056.000000</ele>
        <time>2021-09-04T16:00:59Z</time>
      </trkpt>
      <trkpt lat="42.652504" lon="0.430633">
        <ele>3056.000000</ele>
        <time>2021-09-04T16:01:00Z</time>
      </trkpt>
      <trkpt lat="42.652522" lon="0.430628">
        <ele>3056.000000</ele>
        <time>2021-09-04T16:01:05Z</time>
      </trkpt>
      <trkpt lat="42.652517" lon="0.430630">
        <ele>3056.000000</ele>
        <time>2021-09-04T16:01:08Z</time>
      </trkpt>
      <trkpt lat="42.652525" lon="0.430653">
        <ele>3056.000000</ele>
        <time>2021-09-04T16:02:06Z</time>
      </trkpt>
      <trkpt lat="42.652527" lon="0.430665">
        <ele>3056.000000</ele>
        <time>2021-09-04T16:02:07Z</time>
      </trkpt>
      <trkpt lat="42.652528" lon="0.430673">
        <ele>3056.000000</ele>
        <time>2021-09-04T16:02:08Z</time>
      </trkpt>
      <trkpt lat="42.652530" lon="0.430683">
        <ele>3056.000000</ele>
        <time>2021-09-04T16:02:09Z</time>
      </trkpt>
      <trkpt lat="42.652535" lon="0.430698">
        <ele>3056.000000</ele>
        <time>2021-09-04T16:02:10Z</time>
      </trkpt>
      <trkpt lat="42.652536" lon="0.430710">
        <ele>3056.000000</ele>
        <time>2021-09-04T16:02:11Z</time>
      </trkpt>
      <trkpt lat="42.652535" lon="0.430718">
        <ele>3056.000000</ele>
        <time>2021-09-04T16:02:12Z</time>
      </trkpt>
      <trkpt lat="42.652528" lon="0.430727">
        <ele>3056.000000</ele>
        <time>2021-09-04T16:02:13Z</time>
      </trkpt>
      <trkpt lat="42.652528" lon="0.430733">
        <ele>3056.000000</ele>
        <time>2021-09-04T16:02:14Z</time>
      </trkpt>
      <trkpt lat="42.652527" lon="0.430745">
        <ele>3056.000000</ele>
        <time>2021-09-04T16:02:15Z</time>
      </trkpt>
      <trkpt lat="42.652525" lon="0.430755">
        <ele>3056.000000</ele>
        <time>2021-09-04T16:02:16Z</time>
      </trkpt>
      <trkpt lat="42.652525" lon="0.430765">
        <ele>3056.000000</ele>
        <time>2021-09-04T16:02:17Z</time>
      </trkpt>
      <trkpt lat="42.652523" lon="0.430773">
        <ele>3056.000000</ele>
        <time>2021-09-04T16:02:18Z</time>
      </trkpt>
      <trkpt lat="42.652522" lon="0.430782">
        <ele>3056.000000</ele>
        <time>2021-09-04T16:02:19Z</time>
      </trkpt>
      <trkpt lat="42.652520" lon="0.430783">
        <ele>3056.000000</ele>
        <time>2021-09-04T16:02:20Z</time>
      </trkpt>
      <trkpt lat="42.652517" lon="0.430792">
        <ele>3056.000000</ele>
        <time>2021-09-04T16:02:29Z</time>
      </trkpt>
      <trkpt lat="42.652518" lon="0.430787">
        <ele>3056.000000</ele>
        <time>2021-09-04T16:02:30Z</time>
      </trkpt>
      <trkpt lat="42.652519" lon="0.430783">
        <ele>3056.000000</ele>
        <time>2021-09-04T16:02:31Z</time>
      </trkpt>
      <trkpt lat="42.652520" lon="0.430782">
        <ele>3056.000000</ele>
        <time>2021-09-04T16:02:32Z</time>
      </trkpt>
      <trkpt lat="42.652518" lon="0.430787">
        <ele>3056.000000</ele>
        <time>2021-09-04T16:02:33Z</time>
      </trkpt>
      <trkpt lat="42.652545" lon="0.431170">
        <ele>3044.000000</ele>
        <time>2021-09-04T16:04:57Z</time>
      </trkpt>
      <trkpt lat="42.652540" lon="0.431177">
        <ele>3044.000000</ele>
        <time>2021-09-04T16:04:58Z</time>
      </trkpt>
      <trkpt lat="42.652537" lon="0.431175">
        <ele>3044.000000</ele>
        <time>2021-09-04T16:04:59Z</time>
      </trkpt>
      <trkpt lat="42.652532" lon="0.431178">
        <ele>3044.000000</ele>
        <time>2021-09-04T16:05:01Z</time>
      </trkpt>
      <trkpt lat="42.652530" lon="0.431181">
        <ele>3043.000000</ele>
        <time>2021-09-04T16:05:03Z</time>
      </trkpt>
      <trkpt lat="42.652537" lon="0.431176">
        <ele>3043.000000</ele>
        <time>2021-09-04T16:05:04Z</time>
      </trkpt>
      <trkpt lat="42.652535" lon="0.431313">
        <ele>3033.000000</ele>
        <time>2021-09-04T16:06:26Z</time>
      </trkpt>
      <trkpt lat="42.652535" lon="0.431317">
        <ele>3033.000000</ele>
        <time>2021-09-04T16:06:27Z</time>
      </trkpt>
      <trkpt lat="42.652538" lon="0.431317">
        <ele>3033.000000</ele>
        <time>2021-09-04T16:06:28Z</time>
      </trkpt>
      <trkpt lat="42.652544" lon="0.431320">
        <ele>3033.000000</ele>
        <time>2021-09-04T16:06:29Z</time>
      </trkpt>
      <trkpt lat="42.652545" lon="0.431325">
        <ele>3033.000000</ele>
        <time>2021-09-04T16:06:30Z</time>
      </trkpt>
      <trkpt lat="42.652546" lon="0.431330">
        <ele>3033.000000</ele>
        <time>2021-09-04T16:06:31Z</time>
      </trkpt>
      <trkpt lat="42.652548" lon="0.431335">
        <ele>3033.000000</ele>
        <time>2021-09-04T16:06:32Z</time>
      </trkpt>
      <trkpt lat="42.652549" lon="0.431338">
        <ele>3033.000000</ele>
        <time>2021-09-04T16:06:33Z</time>
      </trkpt>
      <trkpt lat="42.652550" lon="0.431340">
        <ele>3033.000000</ele>
        <time>2021-09-04T16:06:34Z</time>
      </trkpt>
      <trkpt lat="42.652551" lon="0.431342">
        <ele>3032.000000</ele>
        <time>2021-09-04T16:06:38Z</time>
      </trkpt>
      <trkpt lat="42.652553" lon="0.431345">
        <ele>3032.000000</ele>
        <time>2021-09-04T16:06:39Z</time>
      </trkpt>
      <trkpt lat="42.652555" lon="0.431350">
        <ele>3032.000000</ele>
        <time>2021-09-04T16:06:40Z</time>
      </trkpt>
      <trkpt lat="42.652558" lon="0.431355">
        <ele>3032.000000</ele>
        <time>2021-09-04T16:06:41Z</time>
      </trkpt>
      <trkpt lat="42.652560" lon="0.431358">
        <ele>3032.000000</ele>
        <time>2021-09-04T16:06:42Z</time>
      </trkpt>
      <trkpt lat="42.652562" lon="0.431360">
        <ele>3032.000000</ele>
        <time>2021-09-04T16:06:43Z</time>
      </trkpt>
      <trkpt lat="42.652570" lon="0.431360">
        <ele>3032.000000</ele>
        <time>2021-09-04T16:06:44Z</time>
      </trkpt>
      <trkpt lat="42.652573" lon="0.431363">
        <ele>3032.000000</ele>
        <time>2021-09-04T16:06:45Z</time>
      </trkpt>
      <trkpt lat="42.652572" lon="0.431365">
        <ele>3031.000000</ele>
        <time>2021-09-04T16:06:46Z</time>
      </trkpt>
      <trkpt lat="42.652567" lon="0.431360">
        <ele>3031.000000</ele>
        <time>2021-09-04T16:06:48Z</time>
      </trkpt>
      <trkpt lat="42.652575" lon="0.431538">
        <ele>3027.000000</ele>
        <time>2021-09-04T16:07:19Z</time>
      </trkpt>
      <trkpt lat="42.652580" lon="0.431553">
        <ele>3027.000000</ele>
        <time>2021-09-04T16:07:20Z</time>
      </trkpt>
      <trkpt lat="42.652584" lon="0.431562">
        <ele>3026.000000</ele>
        <time>2021-09-04T16:07:21Z</time>
      </trkpt>
      <trkpt lat="42.652590" lon="0.431573">
        <ele>3026.000000</ele>
        <time>2021-09-04T16:07:22Z</time>
      </trkpt>
      <trkpt lat="42.652592" lon="0.431577">
        <ele>3025.000000</ele>
        <time>2021-09-04T16:07:23Z</time>
      </trkpt>
      <trkpt lat="42.652594" lon="0.431577">
        <ele>3025.000000</ele>
        <time>2021-09-04T16:07:24Z</time>
      </trkpt>
      <trkpt lat="42.652597" lon="0.431580">
        <ele>3025.000000</ele>
        <time>2021-09-04T16:07:26Z</time>
      </trkpt>
      <trkpt lat="42.652600" lon="0.431583">
        <ele>3025.000000</ele>
        <time>2021-09-04T16:07:27Z</time>
      </trkpt>
      <trkpt lat="42.652603" lon="0.431592">
        <ele>3025.000000</ele>
        <time>2021-09-04T16:07:28Z</time>
      </trkpt>
      <trkpt lat="42.652595" lon="0.431600">
        <ele>3025.000000</ele>
        <time>2021-09-04T16:07:29Z</time>
      </trkpt>
      <trkpt lat="42.652597" lon="0.431608">
        <ele>3025.000000</ele>
        <time>2021-09-04T16:07:30Z</time>
      </trkpt>
      <trkpt lat="42.652600" lon="0.431622">
        <ele>3025.000000</ele>
        <time>2021-09-04T16:07:31Z</time>
      </trkpt>
      <trkpt lat="42.652600" lon="0.431633">
        <ele>3025.000000</ele>
        <time>2021-09-04T16:07:32Z</time>
      </trkpt>
      <trkpt lat="42.652603" lon="0.431643">
        <ele>3025.000000</ele>
        <time>2021-09-04T16:07:33Z</time>
      </trkpt>
      <trkpt lat="42.652610" lon="0.431657">
        <ele>3025.000000</ele>
        <time>2021-09-04T16:07:34Z</time>
      </trkpt>
      <trkpt lat="42.652615" lon="0.431670">
        <ele>3025.000000</ele>
        <time>2021-09-04T16:07:35Z</time>
      </trkpt>
      <trkpt lat="42.652618" lon="0.431682">
        <ele>3025.000000</ele>
        <time>2021-09-04T16:07:36Z</time>
      </trkpt>
      <trkpt lat="42.652623" lon="0.431697">
        <ele>3025.000000</ele>
        <time>2021-09-04T16:07:37Z</time>
      </trkpt>
      <trkpt lat="42.652625" lon="0.431712">
        <ele>3025.000000</ele>
        <time>2021-09-04T16:07:38Z</time>
      </trkpt>
      <trkpt lat="42.652627" lon="0.431723">
        <ele>3024.000000</ele>
        <time>2021-09-04T16:07:39Z</time>
      </trkpt>
      <trkpt lat="42.652629" lon="0.431737">
        <ele>3024.000000</ele>
        <time>2021-09-04T16:07:40Z</time>
      </trkpt>
      <trkpt lat="42.652630" lon="0.431747">
        <ele>3024.000000</ele>
        <time>2021-09-04T16:07:41Z</time>
      </trkpt>
      <trkpt lat="42.652632" lon="0.431763">
        <ele>3024.000000</ele>
        <time>2021-09-04T16:07:42Z</time>
      </trkpt>
      <trkpt lat="42.652634" lon="0.431773">
        <ele>3024.000000</ele>
        <time>2021-09-04T16:07:43Z</time>
      </trkpt>
      <trkpt lat="42.652636" lon="0.431788">
        <ele>3024.000000</ele>
        <time>2021-09-04T16:07:44Z</time>
      </trkpt>
      <trkpt lat="42.652636" lon="0.431798">
        <ele>3024.000000</ele>
        <time>2021-09-04T16:07:45Z</time>
      </trkpt>
      <trkpt lat="42.652637" lon="0.431805">
        <ele>3024.000000</ele>
        <time>2021-09-04T16:07:46Z</time>
      </trkpt>
      <trkpt lat="42.652638" lon="0.431813">
        <ele>3024.000000</ele>
        <time>2021-09-04T16:07:47Z</time>
      </trkpt>
      <trkpt lat="42.652639" lon="0.431818">
        <ele>3024.000000</ele>
        <time>2021-09-04T16:07:48Z</time>
      </trkpt>
      <trkpt lat="42.652640" lon="0.431828">
        <ele>3024.000000</ele>
        <time>2021-09-04T16:07:49Z</time>
      </trkpt>
      <trkpt lat="42.652641" lon="0.431835">
        <ele>3025.000000</ele>
        <time>2021-09-04T16:07:50Z</time>
      </trkpt>
      <trkpt lat="42.652642" lon="0.431843">
        <ele>3025.000000</ele>
        <time>2021-09-04T16:07:51Z</time>
      </trkpt>
      <trkpt lat="42.652643" lon="0.431855">
        <ele>3025.000000</ele>
        <time>2021-09-04T16:07:52Z</time>
      </trkpt>
      <trkpt lat="42.652644" lon="0.431865">
        <ele>3025.000000</ele>
        <time>2021-09-04T16:07:53Z</time>
      </trkpt>
      <trkpt lat="42.652644" lon="0.431873">
        <ele>3025.000000</ele>
        <time>2021-09-04T16:07:54Z</time>
      </trkpt>
      <trkpt lat="42.652645" lon="0.431882">
        <ele>3025.000000</ele>
        <time>2021-09-04T16:07:55Z</time>
      </trkpt>
      <trkpt lat="42.652646" lon="0.431890">
        <ele>3025.000000</ele>
        <time>2021-09-04T16:07:56Z</time>
      </trkpt>
      <trkpt lat="42.652647" lon="0.431897">
        <ele>3025.000000</ele>
        <time>2021-09-04T16:07:57Z</time>
      </trkpt>
      <trkpt lat="42.652649" lon="0.431905">
        <ele>3025.000000</ele>
        <time>2021-09-04T16:07:58Z</time>
      </trkpt>
      <trkpt lat="42.652649" lon="0.431905">
        <ele>3025.000000</ele>
        <time>2021-09-04T16:08:00Z</time>
      </trkpt>
      <trkpt lat="42.652649" lon="0.431900">
        <ele>3025.000000</ele>
        <time>2021-09-04T16:08:04Z</time>
      </trkpt>
      <trkpt lat="42.652650" lon="0.431900">
        <ele>3025.000000</ele>
        <time>2021-09-04T16:08:07Z</time>
      </trkpt>
      <trkpt lat="42.652650" lon="0.431900">
        <ele>3025.000000</ele>
        <time>2021-09-04T16:08:09Z</time>
      </trkpt>
      <trkpt lat="42.652652" lon="0.431907">
        <ele>3025.000000</ele>
        <time>2021-09-04T16:08:10Z</time>
      </trkpt>
      <trkpt lat="42.652654" lon="0.431913">
        <ele>3025.000000</ele>
        <time>2021-09-04T16:08:11Z</time>
      </trkpt>
      <trkpt lat="42.652657" lon="0.431927">
        <ele>3025.000000</ele>
        <time>2021-09-04T16:08:12Z</time>
      </trkpt>
      <trkpt lat="42.652659" lon="0.431935">
        <ele>3025.000000</ele>
        <time>2021-09-04T16:08:13Z</time>
      </trkpt>
      <trkpt lat="42.652662" lon="0.431945">
        <ele>3025.000000</ele>
        <time>2021-09-04T16:08:14Z</time>
      </trkpt>
      <trkpt lat="42.652664" lon="0.431953">
        <ele>3025.000000</ele>
        <time>2021-09-04T16:08:15Z</time>
      </trkpt>
      <trkpt lat="42.652667" lon="0.431960">
        <ele>3025.000000</ele>
        <time>2021-09-04T16:08:16Z</time>
      </trkpt>
      <trkpt lat="42.652669" lon="0.431968">
        <ele>3025.000000</ele>
        <time>2021-09-04T16:08:17Z</time>
      </trkpt>
      <trkpt lat="42.652671" lon="0.431975">
        <ele>3025.000000</ele>
        <time>2021-09-04T16:08:18Z</time>
      </trkpt>
      <trkpt lat="42.652672" lon="0.431980">
        <ele>3025.000000</ele>
        <time>2021-09-04T16:08:19Z</time>
      </trkpt>
      <trkpt lat="42.652674" lon="0.431987">
        <ele>3025.000000</ele>
        <time>2021-09-04T16:08:20Z</time>
      </trkpt>
      <trkpt lat="42.652674" lon="0.431985">
        <ele>3025.000000</ele>
        <time>2021-09-04T16:08:22Z</time>
      </trkpt>
      <trkpt lat="42.652673" lon="0.431983">
        <ele>3025.000000</ele>
        <time>2021-09-04T16:08:26Z</time>
      </trkpt>
      <trkpt lat="42.652674" lon="0.431988">
        <ele>3025.000000</ele>
        <time>2021-09-04T16:08:27Z</time>
      </trkpt>
      <trkpt lat="42.652675" lon="0.431993">
        <ele>3025.000000</ele>
        <time>2021-09-04T16:08:28Z</time>
      </trkpt>
      <trkpt lat="42.652670" lon="0.431998">
        <ele>3025.000000</ele>
        <time>2021-09-04T16:08:30Z</time>
      </trkpt>
      <trkpt lat="42.652672" lon="0.431998">
        <ele>3025.000000</ele>
        <time>2021-09-04T16:08:31Z</time>
      </trkpt>
      <trkpt lat="42.652675" lon="0.431997">
        <ele>3025.000000</ele>
        <time>2021-09-04T16:08:32Z</time>
      </trkpt>
      <trkpt lat="42.652703" lon="0.432068">
        <ele>3025.000000</ele>
        <time>2021-09-04T16:08:53Z</time>
      </trkpt>
      <trkpt lat="42.652708" lon="0.432077">
        <ele>3025.000000</ele>
        <time>2021-09-04T16:08:54Z</time>
      </trkpt>
      <trkpt lat="42.652712" lon="0.432087">
        <ele>3025.000000</ele>
        <time>2021-09-04T16:08:55Z</time>
      </trkpt>
      <trkpt lat="42.652712" lon="0.432097">
        <ele>3025.000000</ele>
        <time>2021-09-04T16:08:56Z</time>
      </trkpt>
      <trkpt lat="42.652711" lon="0.432108">
        <ele>3025.000000</ele>
        <time>2021-09-04T16:08:57Z</time>
      </trkpt>
      <trkpt lat="42.652708" lon="0.432120">
        <ele>3025.000000</ele>
        <time>2021-09-04T16:08:58Z</time>
      </trkpt>
      <trkpt lat="42.652708" lon="0.432130">
        <ele>3025.000000</ele>
        <time>2021-09-04T16:08:59Z</time>
      </trkpt>
      <trkpt lat="42.652712" lon="0.432137">
        <ele>3025.000000</ele>
        <time>2021-09-04T16:09:00Z</time>
      </trkpt>
      <trkpt lat="42.652716" lon="0.432147">
        <ele>3025.000000</ele>
        <time>2021-09-04T16:09:01Z</time>
      </trkpt>
      <trkpt lat="42.652721" lon="0.432158">
        <ele>3025.000000</ele>
        <time>2021-09-04T16:09:02Z</time>
      </trkpt>
      <trkpt lat="42.652725" lon="0.432168">
        <ele>3025.000000</ele>
        <time>2021-09-04T16:09:03Z</time>
      </trkpt>
      <trkpt lat="42.652727" lon="0.432177">
        <ele>3025.000000</ele>
        <time>2021-09-04T16:09:04Z</time>
      </trkpt>
      <trkpt lat="42.652729" lon="0.432178">
        <ele>3025.000000</ele>
        <time>2021-09-04T16:09:05Z</time>
      </trkpt>
      <trkpt lat="42.652730" lon="0.432177">
        <ele>3025.000000</ele>
        <time>2021-09-04T16:09:06Z</time>
      </trkpt>
      <trkpt lat="42.652731" lon="0.432178">
        <ele>3025.000000</ele>
        <time>2021-09-04T16:09:07Z</time>
      </trkpt>
      <trkpt lat="42.652731" lon="0.432180">
        <ele>3025.000000</ele>
        <time>2021-09-04T16:09:08Z</time>
      </trkpt>
      <trkpt lat="42.652732" lon="0.432187">
        <ele>3025.000000</ele>
        <time>2021-09-04T16:09:12Z</time>
      </trkpt>
      <trkpt lat="42.652729" lon="0.432180">
        <ele>3025.000000</ele>
        <time>2021-09-04T16:09:15Z</time>
      </trkpt>
      <trkpt lat="42.652733" lon="0.432227">
        <ele>3025.000000</ele>
        <time>2021-09-04T16:09:22Z</time>
      </trkpt>
      <trkpt lat="42.652738" lon="0.432235">
        <ele>3025.000000</ele>
        <time>2021-09-04T16:09:23Z</time>
      </trkpt>
      <trkpt lat="42.652744" lon="0.432247">
        <ele>3025.000000</ele>
        <time>2021-09-04T16:09:24Z</time>
      </trkpt>
      <trkpt lat="42.652744" lon="0.432252">
        <ele>3025.000000</ele>
        <time>2021-09-04T16:09:25Z</time>
      </trkpt>
      <trkpt lat="42.652746" lon="0.432257">
        <ele>3025.000000</ele>
        <time>2021-09-04T16:09:26Z</time>
      </trkpt>
      <trkpt lat="42.652745" lon="0.432258">
        <ele>3025.000000</ele>
        <time>2021-09-04T16:09:28Z</time>
      </trkpt>
      <trkpt lat="42.652745" lon="0.432257">
        <ele>3025.000000</ele>
        <time>2021-09-04T16:09:30Z</time>
      </trkpt>
      <trkpt lat="42.652744" lon="0.432255">
        <ele>3025.000000</ele>
        <time>2021-09-04T16:09:33Z</time>
      </trkpt>
      <trkpt lat="42.652748" lon="0.432253">
        <ele>3025.000000</ele>
        <time>2021-09-04T16:09:34Z</time>
      </trkpt>
      <trkpt lat="42.652748" lon="0.432252">
        <ele>3025.000000</ele>
        <time>2021-09-04T16:09:35Z</time>
      </trkpt>
      <trkpt lat="42.652747" lon="0.432247">
        <ele>3025.000000</ele>
        <time>2021-09-04T16:09:36Z</time>
      </trkpt>
      <trkpt lat="42.652743" lon="0.432249">
        <ele>3025.000000</ele>
        <time>2021-09-04T16:09:37Z</time>
      </trkpt>
      <trkpt lat="42.652742" lon="0.432248">
        <ele>3025.000000</ele>
        <time>2021-09-04T16:09:38Z</time>
      </trkpt>
      <trkpt lat="42.652728" lon="0.432255">
        <ele>3025.000000</ele>
        <time>2021-09-04T16:09:44Z</time>
      </trkpt>
      <trkpt lat="42.652723" lon="0.432258">
        <ele>3025.000000</ele>
        <time>2021-09-04T16:09:45Z</time>
      </trkpt>
      <trkpt lat="42.652722" lon="0.432260">
        <ele>3025.000000</ele>
        <time>2021-09-04T16:09:46Z</time>
      </trkpt>
      <trkpt lat="42.652733" lon="0.432251">
        <ele>3025.000000</ele>
        <time>2021-09-04T16:09:48Z</time>
      </trkpt>
      <trkpt lat="42.652720" lon="0.432323">
        <ele>3025.000000</ele>
        <time>2021-09-04T16:10:07Z</time>
      </trkpt>
      <trkpt lat="42.652725" lon="0.432327">
        <ele>3025.000000</ele>
        <time>2021-09-04T16:10:08Z</time>
      </trkpt>
      <trkpt lat="42.652727" lon="0.432332">
        <ele>3025.000000</ele>
        <time>2021-09-04T16:10:09Z</time>
      </trkpt>
      <trkpt lat="42.652728" lon="0.432335">
        <ele>3025.000000</ele>
        <time>2021-09-04T16:10:10Z</time>
      </trkpt>
      <trkpt lat="42.652733" lon="0.432337">
        <ele>3025.000000</ele>
        <time>2021-09-04T16:10:11Z</time>
      </trkpt>
      <trkpt lat="42.652738" lon="0.432338">
        <ele>3025.000000</ele>
        <time>2021-09-04T16:10:12Z</time>
      </trkpt>
      <trkpt lat="42.652742" lon="0.432347">
        <ele>3025.000000</ele>
        <time>2021-09-04T16:10:13Z</time>
      </trkpt>
      <trkpt lat="42.652748" lon="0.432348">
        <ele>3025.000000</ele>
        <time>2021-09-04T16:10:14Z</time>
      </trkpt>
      <trkpt lat="42.652747" lon="0.432348">
        <ele>3025.000000</ele>
        <time>2021-09-04T16:10:17Z</time>
      </trkpt>
      <trkpt lat="42.652745" lon="0.432347">
        <ele>3025.000000</ele>
        <time>2021-09-04T16:10:18Z</time>
      </trkpt>
      <trkpt lat="42.652748" lon="0.432342">
        <ele>3025.000000</ele>
        <time>2021-09-04T16:10:19Z</time>
      </trkpt>
      <trkpt lat="42.652752" lon="0.432337">
        <ele>3025.000000</ele>
        <time>2021-09-04T16:10:20Z</time>
      </trkpt>
      <trkpt lat="42.652755" lon="0.432335">
        <ele>3025.000000</ele>
        <time>2021-09-04T16:10:21Z</time>
      </trkpt>
      <trkpt lat="42.652757" lon="0.432331">
        <ele>3025.000000</ele>
        <time>2021-09-04T16:10:22Z</time>
      </trkpt>
      <trkpt lat="42.652758" lon="0.432328">
        <ele>3025.000000</ele>
        <time>2021-09-04T16:10:23Z</time>
      </trkpt>
      <trkpt lat="42.652762" lon="0.432328">
        <ele>3025.000000</ele>
        <time>2021-09-04T16:10:24Z</time>
      </trkpt>
      <trkpt lat="42.652765" lon="0.432330">
        <ele>3025.000000</ele>
        <time>2021-09-04T16:10:25Z</time>
      </trkpt>
      <trkpt lat="42.652768" lon="0.432332">
        <ele>3025.000000</ele>
        <time>2021-09-04T16:10:26Z</time>
      </trkpt>
      <trkpt lat="42.652765" lon="0.432333">
        <ele>3025.000000</ele>
        <time>2021-09-04T16:10:28Z</time>
      </trkpt>
      <trkpt lat="42.652762" lon="0.432333">
        <ele>3025.000000</ele>
        <time>2021-09-04T16:10:29Z</time>
      </trkpt>
      <trkpt lat="42.652762" lon="0.432334">
        <ele>3025.000000</ele>
        <time>2021-09-04T16:10:30Z</time>
      </trkpt>
      <trkpt lat="42.652758" lon="0.432335">
        <ele>3025.000000</ele>
        <time>2021-09-04T16:10:31Z</time>
      </trkpt>
      <trkpt lat="42.652758" lon="0.432352">
        <ele>3025.000000</ele>
        <time>2021-09-04T16:10:33Z</time>
      </trkpt>
      <trkpt lat="42.652758" lon="0.432357">
        <ele>3025.000000</ele>
        <time>2021-09-04T16:10:34Z</time>
      </trkpt>
      <trkpt lat="42.652762" lon="0.432362">
        <ele>3025.000000</ele>
        <time>2021-09-04T16:10:36Z</time>
      </trkpt>
      <trkpt lat="42.652765" lon="0.432367">
        <ele>3025.000000</ele>
        <time>2021-09-04T16:10:37Z</time>
      </trkpt>
      <trkpt lat="42.652768" lon="0.432365">
        <ele>3025.000000</ele>
        <time>2021-09-04T16:10:39Z</time>
      </trkpt>
      <trkpt lat="42.652763" lon="0.432362">
        <ele>3025.000000</ele>
        <time>2021-09-04T16:10:41Z</time>
      </trkpt>
      <trkpt lat="42.652935" lon="0.432615">
        <ele>3034.000000</ele>
        <time>2021-09-04T16:12:05Z</time>
      </trkpt>
      <trkpt lat="42.652943" lon="0.432618">
        <ele>3035.000000</ele>
        <time>2021-09-04T16:12:06Z</time>
      </trkpt>
      <trkpt lat="42.652953" lon="0.432620">
        <ele>3035.000000</ele>
        <time>2021-09-04T16:12:07Z</time>
      </trkpt>
      <trkpt lat="42.652958" lon="0.432630">
        <ele>3035.000000</ele>
        <time>2021-09-04T16:12:08Z</time>
      </trkpt>
      <trkpt lat="42.652958" lon="0.432635">
        <ele>3035.000000</ele>
        <time>2021-09-04T16:12:10Z</time>
      </trkpt>
      <trkpt lat="42.652964" lon="0.432637">
        <ele>3035.000000</ele>
        <time>2021-09-04T16:12:11Z</time>
      </trkpt>
      <trkpt lat="42.652960" lon="0.432643">
        <ele>3035.000000</ele>
        <time>2021-09-04T16:12:17Z</time>
      </trkpt>
      <trkpt lat="42.652961" lon="0.432655">
        <ele>3035.000000</ele>
        <time>2021-09-04T16:12:18Z</time>
      </trkpt>
      <trkpt lat="42.652964" lon="0.432665">
        <ele>3035.000000</ele>
        <time>2021-09-04T16:12:19Z</time>
      </trkpt>
      <trkpt lat="42.652967" lon="0.432678">
        <ele>3035.000000</ele>
        <time>2021-09-04T16:12:20Z</time>
      </trkpt>
      <trkpt lat="42.652971" lon="0.432695">
        <ele>3035.000000</ele>
        <time>2021-09-04T16:12:21Z</time>
      </trkpt>
      <trkpt lat="42.652975" lon="0.432713">
        <ele>3035.000000</ele>
        <time>2021-09-04T16:12:22Z</time>
      </trkpt>
      <trkpt lat="42.652978" lon="0.432723">
        <ele>3035.000000</ele>
        <time>2021-09-04T16:12:23Z</time>
      </trkpt>
      <trkpt lat="42.652981" lon="0.432730">
        <ele>3035.000000</ele>
        <time>2021-09-04T16:12:24Z</time>
      </trkpt>
      <trkpt lat="42.652983" lon="0.432735">
        <ele>3035.000000</ele>
        <time>2021-09-04T16:12:25Z</time>
      </trkpt>
      <trkpt lat="42.652989" lon="0.432743">
        <ele>3035.000000</ele>
        <time>2021-09-04T16:12:26Z</time>
      </trkpt>
      <trkpt lat="42.653002" lon="0.432745">
        <ele>3035.000000</ele>
        <time>2021-09-04T16:12:27Z</time>
      </trkpt>
      <trkpt lat="42.653007" lon="0.432745">
        <ele>3035.000000</ele>
        <time>2021-09-04T16:12:29Z</time>
      </trkpt>
      <trkpt lat="42.653012" lon="0.432742">
        <ele>3035.000000</ele>
        <time>2021-09-04T16:12:31Z</time>
      </trkpt>
      <trkpt lat="42.653010" lon="0.432745">
        <ele>3035.000000</ele>
        <time>2021-09-04T16:12:33Z</time>
      </trkpt>
      <trkpt lat="42.653007" lon="0.432745">
        <ele>3035.000000</ele>
        <time>2021-09-04T16:12:34Z</time>
      </trkpt>
      <trkpt lat="42.653007" lon="0.432741">
        <ele>3035.000000</ele>
        <time>2021-09-04T16:12:37Z</time>
      </trkpt>
      <trkpt lat="42.653008" lon="0.432740">
        <ele>3035.000000</ele>
        <time>2021-09-04T16:12:38Z</time>
      </trkpt>
      <trkpt lat="42.653008" lon="0.432738">
        <ele>3035.000000</ele>
        <time>2021-09-04T16:12:39Z</time>
      </trkpt>
      <trkpt lat="42.653005" lon="0.432733">
        <ele>3035.000000</ele>
        <time>2021-09-04T16:12:40Z</time>
      </trkpt>
      <trkpt lat="42.653007" lon="0.432736">
        <ele>3035.000000</ele>
        <time>2021-09-04T16:12:42Z</time>
      </trkpt>
      <trkpt lat="42.653058" lon="0.432805">
        <ele>3035.000000</ele>
        <time>2021-09-04T16:22:08Z</time>
      </trkpt>
      <trkpt lat="42.653062" lon="0.432810">
        <ele>3035.000000</ele>
        <time>2021-09-04T16:22:09Z</time>
      </trkpt>
      <trkpt lat="42.653063" lon="0.432813">
        <ele>3035.000000</ele>
        <time>2021-09-04T16:22:10Z</time>
      </trkpt>
      <trkpt lat="42.653067" lon="0.432814">
        <ele>3035.000000</ele>
        <time>2021-09-04T16:22:11Z</time>
      </trkpt>
      <trkpt lat="42.653070" lon="0.432815">
        <ele>3035.000000</ele>
        <time>2021-09-04T16:22:12Z</time>
      </trkpt>
      <trkpt lat="42.653068" lon="0.432815">
        <ele>3035.000000</ele>
        <time>2021-09-04T16:22:13Z</time>
      </trkpt>
      <trkpt lat="42.653070" lon="0.432816">
        <ele>3035.000000</ele>
        <time>2021-09-04T16:22:14Z</time>
      </trkpt>
      <trkpt lat="42.653073" lon="0.432816">
        <ele>3035.000000</ele>
        <time>2021-09-04T16:22:15Z</time>
      </trkpt>
      <trkpt lat="42.653080" lon="0.432817">
        <ele>3035.000000</ele>
        <time>2021-09-04T16:22:16Z</time>
      </trkpt>
      <trkpt lat="42.653080" lon="0.432817">
        <ele>3035.000000</ele>
        <time>2021-09-04T16:22:18Z</time>
      </trkpt>
      <trkpt lat="42.653080" lon="0.432818">
        <ele>3035.000000</ele>
        <time>2021-09-04T16:22:19Z</time>
      </trkpt>
      <trkpt lat="42.653083" lon="0.432821">
        <ele>3035.000000</ele>
        <time>2021-09-04T16:22:20Z</time>
      </trkpt>
      <trkpt lat="42.653088" lon="0.432823">
        <ele>3035.000000</ele>
        <time>2021-09-04T16:22:21Z</time>
      </trkpt>
      <trkpt lat="42.653095" lon="0.432825">
        <ele>3035.000000</ele>
        <time>2021-09-04T16:22:22Z</time>
      </trkpt>
      <trkpt lat="42.653100" lon="0.432823">
        <ele>3035.000000</ele>
        <time>2021-09-04T16:22:23Z</time>
      </trkpt>
      <trkpt lat="42.653105" lon="0.432825">
        <ele>3035.000000</ele>
        <time>2021-09-04T16:22:24Z</time>
      </trkpt>
      <trkpt lat="42.653113" lon="0.432824">
        <ele>3035.000000</ele>
        <time>2021-09-04T16:22:25Z</time>
      </trkpt>
      <trkpt lat="42.653123" lon="0.432826">
        <ele>3035.000000</ele>
        <time>2021-09-04T16:22:26Z</time>
      </trkpt>
      <trkpt lat="42.653133" lon="0.432829">
        <ele>3035.000000</ele>
        <time>2021-09-04T16:22:27Z</time>
      </trkpt>
      <trkpt lat="42.653142" lon="0.432834">
        <ele>3035.000000</ele>
        <time>2021-09-04T16:22:28Z</time>
      </trkpt>
      <trkpt lat="42.653152" lon="0.432843">
        <ele>3035.000000</ele>
        <time>2021-09-04T16:22:29Z</time>
      </trkpt>
      <trkpt lat="42.653157" lon="0.432847">
        <ele>3035.000000</ele>
        <time>2021-09-04T16:22:30Z</time>
      </trkpt>
      <trkpt lat="42.653168" lon="0.432846">
        <ele>3035.000000</ele>
        <time>2021-09-04T16:22:31Z</time>
      </trkpt>
      <trkpt lat="42.653178" lon="0.432846">
        <ele>3035.000000</ele>
        <time>2021-09-04T16:22:32Z</time>
      </trkpt>
      <trkpt lat="42.653187" lon="0.432851">
        <ele>3035.000000</ele>
        <time>2021-09-04T16:22:33Z</time>
      </trkpt>
      <trkpt lat="42.653192" lon="0.432855">
        <ele>3035.000000</ele>
        <time>2021-09-04T16:22:34Z</time>
      </trkpt>
      <trkpt lat="42.653193" lon="0.432865">
        <ele>3035.000000</ele>
        <time>2021-09-04T16:22:35Z</time>
      </trkpt>
      <trkpt lat="42.653195" lon="0.432868">
        <ele>3035.000000</ele>
        <time>2021-09-04T16:22:36Z</time>
      </trkpt>
      <trkpt lat="42.653197" lon="0.432873">
        <ele>3035.000000</ele>
        <time>2021-09-04T16:22:37Z</time>
      </trkpt>
      <trkpt lat="42.653202" lon="0.432878">
        <ele>3035.000000</ele>
        <time>2021-09-04T16:22:38Z</time>
      </trkpt>
      <trkpt lat="42.653210" lon="0.432880">
        <ele>3035.000000</ele>
        <time>2021-09-04T16:22:39Z</time>
      </trkpt>
      <trkpt lat="42.653217" lon="0.432882">
        <ele>3035.000000</ele>
        <time>2021-09-04T16:22:40Z</time>
      </trkpt>
      <trkpt lat="42.653225" lon="0.432883">
        <ele>3035.000000</ele>
        <time>2021-09-04T16:22:41Z</time>
      </trkpt>
      <trkpt lat="42.653232" lon="0.432888">
        <ele>3035.000000</ele>
        <time>2021-09-04T16:22:42Z</time>
      </trkpt>
      <trkpt lat="42.653235" lon="0.432894">
        <ele>3035.000000</ele>
        <time>2021-09-04T16:22:43Z</time>
      </trkpt>
      <trkpt lat="42.653242" lon="0.432901">
        <ele>3035.000000</ele>
        <time>2021-09-04T16:22:44Z</time>
      </trkpt>
      <trkpt lat="42.653245" lon="0.432910">
        <ele>3035.000000</ele>
        <time>2021-09-04T16:22:45Z</time>
      </trkpt>
      <trkpt lat="42.653255" lon="0.432918">
        <ele>3035.000000</ele>
        <time>2021-09-04T16:22:46Z</time>
      </trkpt>
      <trkpt lat="42.653265" lon="0.432927">
        <ele>3035.000000</ele>
        <time>2021-09-04T16:22:47Z</time>
      </trkpt>
      <trkpt lat="42.653270" lon="0.432936">
        <ele>3035.000000</ele>
        <time>2021-09-04T16:22:48Z</time>
      </trkpt>
      <trkpt lat="42.653270" lon="0.432950">
        <ele>3035.000000</ele>
        <time>2021-09-04T16:22:49Z</time>
      </trkpt>
      <trkpt lat="42.653267" lon="0.432962">
        <ele>3035.000000</ele>
        <time>2021-09-04T16:22:50Z</time>
      </trkpt>
      <trkpt lat="42.653263" lon="0.432975">
        <ele>3035.000000</ele>
        <time>2021-09-04T16:22:51Z</time>
      </trkpt>
      <trkpt lat="42.653258" lon="0.432987">
        <ele>3035.000000</ele>
        <time>2021-09-04T16:22:52Z</time>
      </trkpt>
      <trkpt lat="42.653255" lon="0.432997">
        <ele>3035.000000</ele>
        <time>2021-09-04T16:22:53Z</time>
      </trkpt>
      <trkpt lat="42.653250" lon="0.433003">
        <ele>3035.000000</ele>
        <time>2021-09-04T16:22:54Z</time>
      </trkpt>
      <trkpt lat="42.653247" lon="0.433015">
        <ele>3035.000000</ele>
        <time>2021-09-04T16:22:55Z</time>
      </trkpt>
      <trkpt lat="42.653247" lon="0.433025">
        <ele>3035.000000</ele>
        <time>2021-09-04T16:22:56Z</time>
      </trkpt>
      <trkpt lat="42.653247" lon="0.433035">
        <ele>3035.000000</ele>
        <time>2021-09-04T16:22:57Z</time>
      </trkpt>
      <trkpt lat="42.653250" lon="0.433043">
        <ele>3035.000000</ele>
        <time>2021-09-04T16:22:58Z</time>
      </trkpt>
      <trkpt lat="42.653257" lon="0.433052">
        <ele>3035.000000</ele>
        <time>2021-09-04T16:22:59Z</time>
      </trkpt>
      <trkpt lat="42.653260" lon="0.433062">
        <ele>3034.000000</ele>
        <time>2021-09-04T16:23:00Z</time>
      </trkpt>
      <trkpt lat="42.653265" lon="0.433072">
        <ele>3034.000000</ele>
        <time>2021-09-04T16:23:01Z</time>
      </trkpt>
      <trkpt lat="42.653267" lon="0.433083">
        <ele>3034.000000</ele>
        <time>2021-09-04T16:23:02Z</time>
      </trkpt>
      <trkpt lat="42.653265" lon="0.433092">
        <ele>3034.000000</ele>
        <time>2021-09-04T16:23:03Z</time>
      </trkpt>
      <trkpt lat="42.653266" lon="0.433095">
        <ele>3034.000000</ele>
        <time>2021-09-04T16:23:04Z</time>
      </trkpt>
      <trkpt lat="42.653266" lon="0.433098">
        <ele>3033.000000</ele>
        <time>2021-09-04T16:23:05Z</time>
      </trkpt>
      <trkpt lat="42.653266" lon="0.433097">
        <ele>3033.000000</ele>
        <time>2021-09-04T16:23:06Z</time>
      </trkpt>
      <trkpt lat="42.653267" lon="0.433100">
        <ele>3033.000000</ele>
        <time>2021-09-04T16:23:07Z</time>
      </trkpt>
      <trkpt lat="42.653269" lon="0.433107">
        <ele>3032.000000</ele>
        <time>2021-09-04T16:23:08Z</time>
      </trkpt>
      <trkpt lat="42.653273" lon="0.433110">
        <ele>3032.000000</ele>
        <time>2021-09-04T16:23:09Z</time>
      </trkpt>
      <trkpt lat="42.653275" lon="0.433113">
        <ele>3032.000000</ele>
        <time>2021-09-04T16:23:10Z</time>
      </trkpt>
      <trkpt lat="42.653277" lon="0.433117">
        <ele>3032.000000</ele>
        <time>2021-09-04T16:23:11Z</time>
      </trkpt>
      <trkpt lat="42.653278" lon="0.433120">
        <ele>3032.000000</ele>
        <time>2021-09-04T16:23:13Z</time>
      </trkpt>
      <trkpt lat="42.653277" lon="0.433120">
        <ele>3032.000000</ele>
        <time>2021-09-04T16:23:14Z</time>
      </trkpt>
      <trkpt lat="42.653276" lon="0.433120">
        <ele>3032.000000</ele>
        <time>2021-09-04T16:23:15Z</time>
      </trkpt>
      <trkpt lat="42.653274" lon="0.433118">
        <ele>3032.000000</ele>
        <time>2021-09-04T16:23:16Z</time>
      </trkpt>
      <trkpt lat="42.653274" lon="0.433118">
        <ele>3031.000000</ele>
        <time>2021-09-04T16:23:17Z</time>
      </trkpt>
      <trkpt lat="42.653270" lon="0.433180">
        <ele>3031.000000</ele>
        <time>2021-09-04T16:24:10Z</time>
      </trkpt>
      <trkpt lat="42.653275" lon="0.433197">
        <ele>3031.000000</ele>
        <time>2021-09-04T16:24:11Z</time>
      </trkpt>
      <trkpt lat="42.653279" lon="0.433217">
        <ele>3031.000000</ele>
        <time>2021-09-04T16:24:12Z</time>
      </trkpt>
      <trkpt lat="42.653279" lon="0.433235">
        <ele>3031.000000</ele>
        <time>2021-09-04T16:24:13Z</time>
      </trkpt>
      <trkpt lat="42.653282" lon="0.433252">
        <ele>3031.000000</ele>
        <time>2021-09-04T16:24:14Z</time>
      </trkpt>
      <trkpt lat="42.653285" lon="0.433267">
        <ele>3031.000000</ele>
        <time>2021-09-04T16:24:15Z</time>
      </trkpt>
      <trkpt lat="42.653289" lon="0.433282">
        <ele>3031.000000</ele>
        <time>2021-09-04T16:24:16Z</time>
      </trkpt>
      <trkpt lat="42.653293" lon="0.433295">
        <ele>3031.000000</ele>
        <time>2021-09-04T16:24:17Z</time>
      </trkpt>
      <trkpt lat="42.653298" lon="0.433305">
        <ele>3031.000000</ele>
        <time>2021-09-04T16:24:18Z</time>
      </trkpt>
      <trkpt lat="42.653303" lon="0.433317">
        <ele>3031.000000</ele>
        <time>2021-09-04T16:24:19Z</time>
      </trkpt>
      <trkpt lat="42.653307" lon="0.433327">
        <ele>3031.000000</ele>
        <time>2021-09-04T16:24:20Z</time>
      </trkpt>
      <trkpt lat="42.653312" lon="0.433338">
        <ele>3031.000000</ele>
        <time>2021-09-04T16:24:21Z</time>
      </trkpt>
      <trkpt lat="42.653315" lon="0.433347">
        <ele>3031.000000</ele>
        <time>2021-09-04T16:24:22Z</time>
      </trkpt>
      <trkpt lat="42.653318" lon="0.433355">
        <ele>3031.000000</ele>
        <time>2021-09-04T16:24:23Z</time>
      </trkpt>
      <trkpt lat="42.653322" lon="0.433360">
        <ele>3031.000000</ele>
        <time>2021-09-04T16:24:24Z</time>
      </trkpt>
      <trkpt lat="42.653324" lon="0.433363">
        <ele>3031.000000</ele>
        <time>2021-09-04T16:24:25Z</time>
      </trkpt>
      <trkpt lat="42.653327" lon="0.433367">
        <ele>3031.000000</ele>
        <time>2021-09-04T16:24:26Z</time>
      </trkpt>
      <trkpt lat="42.653342" lon="0.433368">
        <ele>3031.000000</ele>
        <time>2021-09-04T16:24:27Z</time>
      </trkpt>
      <trkpt lat="42.653350" lon="0.433370">
        <ele>3031.000000</ele>
        <time>2021-09-04T16:24:28Z</time>
      </trkpt>
      <trkpt lat="42.653357" lon="0.433375">
        <ele>3031.000000</ele>
        <time>2021-09-04T16:24:29Z</time>
      </trkpt>
      <trkpt lat="42.653365" lon="0.433382">
        <ele>3031.000000</ele>
        <time>2021-09-04T16:24:30Z</time>
      </trkpt>
      <trkpt lat="42.653370" lon="0.433388">
        <ele>3031.000000</ele>
        <time>2021-09-04T16:24:31Z</time>
      </trkpt>
      <trkpt lat="42.653373" lon="0.433394">
        <ele>3034.000000</ele>
        <time>2021-09-04T16:24:32Z</time>
      </trkpt>
      <trkpt lat="42.653377" lon="0.433400">
        <ele>3034.000000</ele>
        <time>2021-09-04T16:24:33Z</time>
      </trkpt>
      <trkpt lat="42.653378" lon="0.433412">
        <ele>3034.000000</ele>
        <time>2021-09-04T16:24:34Z</time>
      </trkpt>
      <trkpt lat="42.653377" lon="0.433418">
        <ele>3034.000000</ele>
        <time>2021-09-04T16:24:35Z</time>
      </trkpt>
      <trkpt lat="42.653377" lon="0.433423">
        <ele>3035.000000</ele>
        <time>2021-09-04T16:24:36Z</time>
      </trkpt>
      <trkpt lat="42.653375" lon="0.433428">
        <ele>3035.000000</ele>
        <time>2021-09-04T16:24:37Z</time>
      </trkpt>
      <trkpt lat="42.653375" lon="0.433438">
        <ele>3035.000000</ele>
        <time>2021-09-04T16:24:38Z</time>
      </trkpt>
      <trkpt lat="42.653375" lon="0.433447">
        <ele>3036.000000</ele>
        <time>2021-09-04T16:24:39Z</time>
      </trkpt>
      <trkpt lat="42.653375" lon="0.433453">
        <ele>3036.000000</ele>
        <time>2021-09-04T16:24:40Z</time>
      </trkpt>
      <trkpt lat="42.653376" lon="0.433465">
        <ele>3036.000000</ele>
        <time>2021-09-04T16:24:41Z</time>
      </trkpt>
      <trkpt lat="42.653377" lon="0.433475">
        <ele>3036.000000</ele>
        <time>2021-09-04T16:24:42Z</time>
      </trkpt>
      <trkpt lat="42.653379" lon="0.433482">
        <ele>3036.000000</ele>
        <time>2021-09-04T16:24:43Z</time>
      </trkpt>
      <trkpt lat="42.653380" lon="0.433488">
        <ele>3037.000000</ele>
        <time>2021-09-04T16:24:44Z</time>
      </trkpt>
      <trkpt lat="42.653381" lon="0.433493">
        <ele>3037.000000</ele>
        <time>2021-09-04T16:24:45Z</time>
      </trkpt>
      <trkpt lat="42.653381" lon="0.433503">
        <ele>3037.000000</ele>
        <time>2021-09-04T16:24:46Z</time>
      </trkpt>
      <trkpt lat="42.653383" lon="0.433512">
        <ele>3037.000000</ele>
        <time>2021-09-04T16:24:47Z</time>
      </trkpt>
      <trkpt lat="42.653384" lon="0.433518">
        <ele>3037.000000</ele>
        <time>2021-09-04T16:24:48Z</time>
      </trkpt>
      <trkpt lat="42.653386" lon="0.433527">
        <ele>3037.000000</ele>
        <time>2021-09-04T16:24:49Z</time>
      </trkpt>
      <trkpt lat="42.653387" lon="0.433530">
        <ele>3037.000000</ele>
        <time>2021-09-04T16:24:50Z</time>
      </trkpt>
      <trkpt lat="42.653389" lon="0.433538">
        <ele>3038.000000</ele>
        <time>2021-09-04T16:24:51Z</time>
      </trkpt>
      <trkpt lat="42.653390" lon="0.433548">
        <ele>3038.000000</ele>
        <time>2021-09-04T16:24:52Z</time>
      </trkpt>
      <trkpt lat="42.653392" lon="0.433558">
        <ele>3038.000000</ele>
        <time>2021-09-04T16:24:53Z</time>
      </trkpt>
      <trkpt lat="42.653393" lon="0.433563">
        <ele>3038.000000</ele>
        <time>2021-09-04T16:24:54Z</time>
      </trkpt>
      <trkpt lat="42.653394" lon="0.433565">
        <ele>3038.000000</ele>
        <time>2021-09-04T16:24:55Z</time>
      </trkpt>
      <trkpt lat="42.653395" lon="0.433567">
        <ele>3038.000000</ele>
        <time>2021-09-04T16:24:56Z</time>
      </trkpt>
      <trkpt lat="42.653402" lon="0.433568">
        <ele>3038.000000</ele>
        <time>2021-09-04T16:24:57Z</time>
      </trkpt>
      <trkpt lat="42.653405" lon="0.433563">
        <ele>3038.000000</ele>
        <time>2021-09-04T16:24:59Z</time>
      </trkpt>
      <trkpt lat="42.653410" lon="0.433560">
        <ele>3038.000000</ele>
        <time>2021-09-04T16:25:00Z</time>
      </trkpt>
      <trkpt lat="42.653413" lon="0.433557">
        <ele>3038.000000</ele>
        <time>2021-09-04T16:25:01Z</time>
      </trkpt>
      <trkpt lat="42.653417" lon="0.433558">
        <ele>3038.000000</ele>
        <time>2021-09-04T16:25:02Z</time>
      </trkpt>
      <trkpt lat="42.653422" lon="0.433565">
        <ele>3038.000000</ele>
        <time>2021-09-04T16:25:03Z</time>
      </trkpt>
      <trkpt lat="42.653425" lon="0.433569">
        <ele>3038.000000</ele>
        <time>2021-09-04T16:25:04Z</time>
      </trkpt>
      <trkpt lat="42.653428" lon="0.433575">
        <ele>3038.000000</ele>
        <time>2021-09-04T16:25:05Z</time>
      </trkpt>
      <trkpt lat="42.653428" lon="0.433580">
        <ele>3038.000000</ele>
        <time>2021-09-04T16:25:06Z</time>
      </trkpt>
      <trkpt lat="42.653427" lon="0.433583">
        <ele>3038.000000</ele>
        <time>2021-09-04T16:25:07Z</time>
      </trkpt>
      <trkpt lat="42.653428" lon="0.433588">
        <ele>3038.000000</ele>
        <time>2021-09-04T16:25:09Z</time>
      </trkpt>
      <trkpt lat="42.653427" lon="0.433580">
        <ele>3038.000000</ele>
        <time>2021-09-04T16:25:11Z</time>
      </trkpt>
      <trkpt lat="42.653647" lon="0.433628">
        <ele>3043.000000</ele>
        <time>2021-09-04T16:27:25Z</time>
      </trkpt>
      <trkpt lat="42.653655" lon="0.433628">
        <ele>3043.000000</ele>
        <time>2021-09-04T16:27:26Z</time>
      </trkpt>
      <trkpt lat="42.653663" lon="0.433629">
        <ele>3043.000000</ele>
        <time>2021-09-04T16:27:27Z</time>
      </trkpt>
      <trkpt lat="42.653667" lon="0.433633">
        <ele>3045.000000</ele>
        <time>2021-09-04T16:27:28Z</time>
      </trkpt>
      <trkpt lat="42.653668" lon="0.433643">
        <ele>3045.000000</ele>
        <time>2021-09-04T16:27:29Z</time>
      </trkpt>
      <trkpt lat="42.653670" lon="0.433653">
        <ele>3045.000000</ele>
        <time>2021-09-04T16:27:30Z</time>
      </trkpt>
      <trkpt lat="42.653672" lon="0.433662">
        <ele>3045.000000</ele>
        <time>2021-09-04T16:27:31Z</time>
      </trkpt>
      <trkpt lat="42.653672" lon="0.433668">
        <ele>3045.000000</ele>
        <time>2021-09-04T16:27:32Z</time>
      </trkpt>
      <trkpt lat="42.653672" lon="0.433677">
        <ele>3045.000000</ele>
        <time>2021-09-04T16:27:33Z</time>
      </trkpt>
      <trkpt lat="42.653672" lon="0.433687">
        <ele>3045.000000</ele>
        <time>2021-09-04T16:27:34Z</time>
      </trkpt>
      <trkpt lat="42.653672" lon="0.433693">
        <ele>3045.000000</ele>
        <time>2021-09-04T16:27:35Z</time>
      </trkpt>
      <trkpt lat="42.653675" lon="0.433703">
        <ele>3045.000000</ele>
        <time>2021-09-04T16:27:36Z</time>
      </trkpt>
      <trkpt lat="42.653678" lon="0.433715">
        <ele>3045.000000</ele>
        <time>2021-09-04T16:27:37Z</time>
      </trkpt>
      <trkpt lat="42.653679" lon="0.433727">
        <ele>3046.000000</ele>
        <time>2021-09-04T16:27:39Z</time>
      </trkpt>
      <trkpt lat="42.653679" lon="0.433733">
        <ele>3046.000000</ele>
        <time>2021-09-04T16:27:39Z</time>
      </trkpt>
      <trkpt lat="42.653679" lon="0.433743">
        <ele>3046.000000</ele>
        <time>2021-09-04T16:27:40Z</time>
      </trkpt>
      <trkpt lat="42.653677" lon="0.433755">
        <ele>3046.000000</ele>
        <time>2021-09-04T16:27:41Z</time>
      </trkpt>
      <trkpt lat="42.653677" lon="0.433762">
        <ele>3046.000000</ele>
        <time>2021-09-04T16:27:42Z</time>
      </trkpt>
      <trkpt lat="42.653676" lon="0.433768">
        <ele>3046.000000</ele>
        <time>2021-09-04T16:27:43Z</time>
      </trkpt>
      <trkpt lat="42.653677" lon="0.433772">
        <ele>3046.000000</ele>
        <time>2021-09-04T16:27:44Z</time>
      </trkpt>
      <trkpt lat="42.653677" lon="0.433777">
        <ele>3046.000000</ele>
        <time>2021-09-04T16:27:45Z</time>
      </trkpt>
      <trkpt lat="42.653680" lon="0.433780">
        <ele>3046.000000</ele>
        <time>2021-09-04T16:27:46Z</time>
      </trkpt>
      <trkpt lat="42.653685" lon="0.433783">
        <ele>3046.000000</ele>
        <time>2021-09-04T16:27:48Z</time>
      </trkpt>
      <trkpt lat="42.653688" lon="0.433790">
        <ele>3046.000000</ele>
        <time>2021-09-04T16:27:49Z</time>
      </trkpt>
      <trkpt lat="42.653690" lon="0.433793">
        <ele>3046.000000</ele>
        <time>2021-09-04T16:27:50Z</time>
      </trkpt>
      <trkpt lat="42.653692" lon="0.433797">
        <ele>3047.000000</ele>
        <time>2021-09-04T16:27:51Z</time>
      </trkpt>
      <trkpt lat="42.653692" lon="0.433800">
        <ele>3047.000000</ele>
        <time>2021-09-04T16:27:52Z</time>
      </trkpt>
      <trkpt lat="42.653694" lon="0.433805">
        <ele>3047.000000</ele>
        <time>2021-09-04T16:27:53Z</time>
      </trkpt>
      <trkpt lat="42.653693" lon="0.433812">
        <ele>3047.000000</ele>
        <time>2021-09-04T16:27:54Z</time>
      </trkpt>
      <trkpt lat="42.653693" lon="0.433818">
        <ele>3047.000000</ele>
        <time>2021-09-04T16:27:55Z</time>
      </trkpt>
      <trkpt lat="42.653692" lon="0.433823">
        <ele>3047.000000</ele>
        <time>2021-09-04T16:27:56Z</time>
      </trkpt>
      <trkpt lat="42.653693" lon="0.433830">
        <ele>3047.000000</ele>
        <time>2021-09-04T16:27:57Z</time>
      </trkpt>
      <trkpt lat="42.653695" lon="0.433833">
        <ele>3047.000000</ele>
        <time>2021-09-04T16:27:58Z</time>
      </trkpt>
      <trkpt lat="42.653696" lon="0.433838">
        <ele>3047.000000</ele>
        <time>2021-09-04T16:27:59Z</time>
      </trkpt>
      <trkpt lat="42.653697" lon="0.433842">
        <ele>3047.000000</ele>
        <time>2021-09-04T16:28:01Z</time>
      </trkpt>
      <trkpt lat="42.653698" lon="0.433847">
        <ele>3047.000000</ele>
        <time>2021-09-04T16:28:02Z</time>
      </trkpt>
      <trkpt lat="42.653700" lon="0.433852">
        <ele>3047.000000</ele>
        <time>2021-09-04T16:28:03Z</time>
      </trkpt>
      <trkpt lat="42.653705" lon="0.433852">
        <ele>3047.000000</ele>
        <time>2021-09-04T16:28:05Z</time>
      </trkpt>
      <trkpt lat="42.653708" lon="0.433852">
        <ele>3048.000000</ele>
        <time>2021-09-04T16:28:06Z</time>
      </trkpt>
      <trkpt lat="42.653712" lon="0.433852">
        <ele>3048.000000</ele>
        <time>2021-09-04T16:28:07Z</time>
      </trkpt>
      <trkpt lat="42.653713" lon="0.433853">
        <ele>3048.000000</ele>
        <time>2021-09-04T16:28:08Z</time>
      </trkpt>
      <trkpt lat="42.653717" lon="0.433852">
        <ele>3048.000000</ele>
        <time>2021-09-04T16:28:09Z</time>
      </trkpt>
      <trkpt lat="42.653705" lon="0.433852">
        <ele>3048.000000</ele>
        <time>2021-09-04T16:28:10Z</time>
      </trkpt>
      <trkpt lat="42.653710" lon="0.433862">
        <ele>3061.000000</ele>
        <time>2021-09-04T16:30:05Z</time>
      </trkpt>
      <trkpt lat="42.653722" lon="0.433882">
        <ele>3062.000000</ele>
        <time>2021-09-04T16:31:03Z</time>
      </trkpt>
      <trkpt lat="42.653733" lon="0.433900">
        <ele>3062.000000</ele>
        <time>2021-09-04T16:31:47Z</time>
      </trkpt>
      <trkpt lat="42.653738" lon="0.433907">
        <ele>3062.000000</ele>
        <time>2021-09-04T16:32:02Z</time>
      </trkpt>
      <trkpt lat="42.653742" lon="0.433912">
        <ele>3062.000000</ele>
        <time>2021-09-04T16:32:13Z</time>
      </trkpt>
      <trkpt lat="42.653750" lon="0.433925">
        <ele>3069.000000</ele>
        <time>2021-09-04T16:32:39Z</time>
      </trkpt>
      <trkpt lat="42.653752" lon="0.433928">
        <ele>3069.000000</ele>
        <time>2021-09-04T16:32:45Z</time>
      </trkpt>
      <trkpt lat="42.653753" lon="0.433932">
        <ele>3069.000000</ele>
        <time>2021-09-04T16:32:50Z</time>
      </trkpt>
      <trkpt lat="42.653760" lon="0.433943">
        <ele>3069.000000</ele>
        <time>2021-09-04T16:33:10Z</time>
      </trkpt>
      <trkpt lat="42.653762" lon="0.433947">
        <ele>3069.000000</ele>
        <time>2021-09-04T16:33:15Z</time>
      </trkpt>
      <trkpt lat="42.653773" lon="0.433970">
        <ele>3069.000000</ele>
        <time>2021-09-04T16:33:51Z</time>
      </trkpt>
      <trkpt lat="42.653782" lon="0.433983">
        <ele>3069.000000</ele>
        <time>2021-09-04T16:34:11Z</time>
      </trkpt>
      <trkpt lat="42.653785" lon="0.433988">
        <ele>3069.000000</ele>
        <time>2021-09-04T16:34:19Z</time>
      </trkpt>
      <trkpt lat="42.653790" lon="0.433997">
        <ele>3074.000000</ele>
        <time>2021-09-04T16:34:31Z</time>
      </trkpt>
      <trkpt lat="42.653795" lon="0.434003">
        <ele>3076.000000</ele>
        <time>2021-09-04T16:34:42Z</time>
      </trkpt>
      <trkpt lat="42.653800" lon="0.434010">
        <ele>3077.000000</ele>
        <time>2021-09-04T16:34:51Z</time>
      </trkpt>
      <trkpt lat="42.653808" lon="0.434022">
        <ele>3077.000000</ele>
        <time>2021-09-04T16:35:07Z</time>
      </trkpt>
      <trkpt lat="42.653813" lon="0.434028">
        <ele>3077.000000</ele>
        <time>2021-09-04T16:35:16Z</time>
      </trkpt>
      <trkpt lat="42.653818" lon="0.434035">
        <ele>3077.000000</ele>
        <time>2021-09-04T16:35:25Z</time>
      </trkpt>
      <trkpt lat="42.653823" lon="0.434042">
        <ele>3079.000000</ele>
        <time>2021-09-04T16:35:34Z</time>
      </trkpt>
      <trkpt lat="42.653828" lon="0.434050">
        <ele>3079.000000</ele>
        <time>2021-09-04T16:35:44Z</time>
      </trkpt>
      <trkpt lat="42.653832" lon="0.434055">
        <ele>3079.000000</ele>
        <time>2021-09-04T16:35:50Z</time>
      </trkpt>
      <trkpt lat="42.653835" lon="0.434060">
        <ele>3080.000000</ele>
        <time>2021-09-04T16:35:56Z</time>
      </trkpt>
      <trkpt lat="42.653838" lon="0.434067">
        <ele>3080.000000</ele>
        <time>2021-09-04T16:36:03Z</time>
      </trkpt>
      <trkpt lat="42.653842" lon="0.434072">
        <ele>3081.000000</ele>
        <time>2021-09-04T16:36:09Z</time>
      </trkpt>
      <trkpt lat="42.653847" lon="0.434078">
        <ele>3082.000000</ele>
        <time>2021-09-04T16:36:17Z</time>
      </trkpt>
      <trkpt lat="42.653855" lon="0.434090">
        <ele>3083.000000</ele>
        <time>2021-09-04T16:36:31Z</time>
      </trkpt>
      <trkpt lat="42.653858" lon="0.434095">
        <ele>3083.000000</ele>
        <time>2021-09-04T16:36:37Z</time>
      </trkpt>
      <trkpt lat="42.653862" lon="0.434100">
        <ele>3084.000000</ele>
        <time>2021-09-04T16:36:43Z</time>
      </trkpt>
      <trkpt lat="42.653867" lon="0.434107">
        <ele>3084.000000</ele>
        <time>2021-09-04T16:36:52Z</time>
      </trkpt>
      <trkpt lat="42.653870" lon="0.434112">
        <ele>3085.000000</ele>
        <time>2021-09-04T16:36:58Z</time>
      </trkpt>
      <trkpt lat="42.653873" lon="0.434117">
        <ele>3086.000000</ele>
        <time>2021-09-04T16:37:04Z</time>
      </trkpt>
      <trkpt lat="42.653875" lon="0.434118">
        <ele>3086.000000</ele>
        <time>2021-09-04T16:37:06Z</time>
      </trkpt>
      <trkpt lat="42.653878" lon="0.434123">
        <ele>3086.000000</ele>
        <time>2021-09-04T16:37:12Z</time>
      </trkpt>
      <trkpt lat="42.653882" lon="0.434128">
        <ele>3087.000000</ele>
        <time>2021-09-04T16:37:18Z</time>
      </trkpt>
      <trkpt lat="42.653883" lon="0.434130">
        <ele>3088.000000</ele>
        <time>2021-09-04T16:37:20Z</time>
      </trkpt>
      <trkpt lat="42.653887" lon="0.434135">
        <ele>3088.000000</ele>
        <time>2021-09-04T16:37:26Z</time>
      </trkpt>
      <trkpt lat="42.653888" lon="0.434137">
        <ele>3089.000000</ele>
        <time>2021-09-04T16:37:28Z</time>
      </trkpt>
      <trkpt lat="42.653890" lon="0.434140">
        <ele>3089.000000</ele>
        <time>2021-09-04T16:37:31Z</time>
      </trkpt>
      <trkpt lat="42.653900" lon="0.434155">
        <ele>3089.000000</ele>
        <time>2021-09-04T16:37:47Z</time>
      </trkpt>
      <trkpt lat="42.653903" lon="0.434160">
        <ele>3090.000000</ele>
        <time>2021-09-04T16:37:52Z</time>
      </trkpt>
      <trkpt lat="42.653907" lon="0.434165">
        <ele>3090.000000</ele>
        <time>2021-09-04T16:37:57Z</time>
      </trkpt>
      <trkpt lat="42.653910" lon="0.434170">
        <ele>3091.000000</ele>
        <time>2021-09-04T16:38:02Z</time>
      </trkpt>
      <trkpt lat="42.653913" lon="0.434175">
        <ele>3092.000000</ele>
        <time>2021-09-04T16:38:06Z</time>
      </trkpt>
      <trkpt lat="42.653918" lon="0.434183">
        <ele>3093.000000</ele>
        <time>2021-09-04T16:38:14Z</time>
      </trkpt>
      <trkpt lat="42.653920" lon="0.434185">
        <ele>3094.000000</ele>
        <time>2021-09-04T16:38:16Z</time>
      </trkpt>
      <trkpt lat="42.653922" lon="0.434188">
        <ele>3094.000000</ele>
        <time>2021-09-04T16:38:19Z</time>
      </trkpt>
      <trkpt lat="42.653927" lon="0.434197">
        <ele>3094.000000</ele>
        <time>2021-09-04T16:38:26Z</time>
      </trkpt>
      <trkpt lat="42.653928" lon="0.434200">
        <ele>3094.000000</ele>
        <time>2021-09-04T16:38:29Z</time>
      </trkpt>
      <trkpt lat="42.653930" lon="0.434202">
        <ele>3094.000000</ele>
        <time>2021-09-04T16:38:31Z</time>
      </trkpt>
      <trkpt lat="42.653932" lon="0.434205">
        <ele>3094.000000</ele>
        <time>2021-09-04T16:38:34Z</time>
      </trkpt>
      <trkpt lat="42.653933" lon="0.434207">
        <ele>3095.000000</ele>
        <time>2021-09-04T16:38:36Z</time>
      </trkpt>
      <trkpt lat="42.653935" lon="0.434210">
        <ele>3095.000000</ele>
        <time>2021-09-04T16:38:39Z</time>
      </trkpt>
      <trkpt lat="42.653940" lon="0.434218">
        <ele>3095.000000</ele>
        <time>2021-09-04T16:38:46Z</time>
      </trkpt>
      <trkpt lat="42.653942" lon="0.434222">
        <ele>3095.000000</ele>
        <time>2021-09-04T16:38:49Z</time>
      </trkpt>
      <trkpt lat="42.653943" lon="0.434223">
        <ele>3095.000000</ele>
        <time>2021-09-04T16:38:51Z</time>
      </trkpt>
      <trkpt lat="42.653945" lon="0.434227">
        <ele>3095.000000</ele>
        <time>2021-09-04T16:38:54Z</time>
      </trkpt>
      <trkpt lat="42.653948" lon="0.434233">
        <ele>3095.000000</ele>
        <time>2021-09-04T16:38:59Z</time>
      </trkpt>
      <trkpt lat="42.653950" lon="0.434235">
        <ele>3096.000000</ele>
        <time>2021-09-04T16:39:00Z</time>
      </trkpt>
      <trkpt lat="42.653952" lon="0.434238">
        <ele>3096.000000</ele>
        <time>2021-09-04T16:39:03Z</time>
      </trkpt>
      <trkpt lat="42.653957" lon="0.434247">
        <ele>3096.000000</ele>
        <time>2021-09-04T16:39:10Z</time>
      </trkpt>
      <trkpt lat="42.653958" lon="0.434248">
        <ele>3097.000000</ele>
        <time>2021-09-04T16:39:12Z</time>
      </trkpt>
      <trkpt lat="42.653960" lon="0.434251">
        <ele>3097.000000</ele>
        <time>2021-09-04T16:39:15Z</time>
      </trkpt>
      <trkpt lat="42.653965" lon="0.434260">
        <ele>3098.000000</ele>
        <time>2021-09-04T16:39:22Z</time>
      </trkpt>
      <trkpt lat="42.653967" lon="0.434262">
        <ele>3099.000000</ele>
        <time>2021-09-04T16:39:24Z</time>
      </trkpt>
      <trkpt lat="42.653968" lon="0.434265">
        <ele>3099.000000</ele>
        <time>2021-09-04T16:39:27Z</time>
      </trkpt>
      <trkpt lat="42.653972" lon="0.434270">
        <ele>3100.000000</ele>
        <time>2021-09-04T16:39:31Z</time>
      </trkpt>
      <trkpt lat="42.653973" lon="0.434272">
        <ele>3100.000000</ele>
        <time>2021-09-04T16:39:33Z</time>
      </trkpt>
      <trkpt lat="42.653975" lon="0.434275">
        <ele>3101.000000</ele>
        <time>2021-09-04T16:39:36Z</time>
      </trkpt>
      <trkpt lat="42.653978" lon="0.434280">
        <ele>3101.000000</ele>
        <time>2021-09-04T16:39:40Z</time>
      </trkpt>
      <trkpt lat="42.653980" lon="0.434283">
        <ele>3101.000000</ele>
        <time>2021-09-04T16:39:43Z</time>
      </trkpt>
      <trkpt lat="42.653981" lon="0.434285">
        <ele>3101.000000</ele>
        <time>2021-09-04T16:39:45Z</time>
      </trkpt>
      <trkpt lat="42.653987" lon="0.434293">
        <ele>3102.000000</ele>
        <time>2021-09-04T16:39:52Z</time>
      </trkpt>
      <trkpt lat="42.653988" lon="0.434295">
        <ele>3102.000000</ele>
        <time>2021-09-04T16:39:54Z</time>
      </trkpt>
      <trkpt lat="42.653990" lon="0.434298">
        <ele>3102.000000</ele>
        <time>2021-09-04T16:39:57Z</time>
      </trkpt>
      <trkpt lat="42.653995" lon="0.434307">
        <ele>3104.000000</ele>
        <time>2021-09-04T16:40:04Z</time>
      </trkpt>
      <trkpt lat="42.653997" lon="0.434308">
        <ele>3104.000000</ele>
        <time>2021-09-04T16:40:06Z</time>
      </trkpt>
      <trkpt lat="42.653999" lon="0.434312">
        <ele>3104.000000</ele>
        <time>2021-09-04T16:40:09Z</time>
      </trkpt>
      <trkpt lat="42.654002" lon="0.434317">
        <ele>3105.000000</ele>
        <time>2021-09-04T16:40:13Z</time>
      </trkpt>
      <trkpt lat="42.654003" lon="0.434320">
        <ele>3106.000000</ele>
        <time>2021-09-04T16:40:16Z</time>
      </trkpt>
      <trkpt lat="42.654007" lon="0.434325">
        <ele>3106.000000</ele>
        <time>2021-09-04T16:40:20Z</time>
      </trkpt>
      <trkpt lat="42.654008" lon="0.434328">
        <ele>3106.000000</ele>
        <time>2021-09-04T16:40:23Z</time>
      </trkpt>
      <trkpt lat="42.654011" lon="0.434333">
        <ele>3107.000000</ele>
        <time>2021-09-04T16:40:27Z</time>
      </trkpt>
      <trkpt lat="42.654013" lon="0.434337">
        <ele>3107.000000</ele>
        <time>2021-09-04T16:40:30Z</time>
      </trkpt>
      <trkpt lat="42.654017" lon="0.434342">
        <ele>3108.000000</ele>
        <time>2021-09-04T16:40:34Z</time>
      </trkpt>
      <trkpt lat="42.654018" lon="0.434345">
        <ele>3108.000000</ele>
        <time>2021-09-04T16:40:37Z</time>
      </trkpt>
      <trkpt lat="42.654022" lon="0.434350">
        <ele>3109.000000</ele>
        <time>2021-09-04T16:40:41Z</time>
      </trkpt>
      <trkpt lat="42.654023" lon="0.434353">
        <ele>3110.000000</ele>
        <time>2021-09-04T16:40:44Z</time>
      </trkpt>
      <trkpt lat="42.654027" lon="0.434360">
        <ele>3110.000000</ele>
        <time>2021-09-04T16:40:49Z</time>
      </trkpt>
      <trkpt lat="42.654028" lon="0.434362">
        <ele>3110.000000</ele>
        <time>2021-09-04T16:40:51Z</time>
      </trkpt>
      <trkpt lat="42.654030" lon="0.434365">
        <ele>3110.000000</ele>
        <time>2021-09-04T16:40:53Z</time>
      </trkpt>
      <trkpt lat="42.654032" lon="0.434368">
        <ele>3110.000000</ele>
        <time>2021-09-04T16:40:56Z</time>
      </trkpt>
      <trkpt lat="42.654035" lon="0.434373">
        <ele>3110.000000</ele>
        <time>2021-09-04T16:41:00Z</time>
      </trkpt>
      <trkpt lat="42.654038" lon="0.434380">
        <ele>3108.000000</ele>
        <time>2021-09-04T16:41:05Z</time>
      </trkpt>
      <trkpt lat="42.654040" lon="0.434382">
        <ele>3107.000000</ele>
        <time>2021-09-04T16:41:07Z</time>
      </trkpt>
      <trkpt lat="42.654042" lon="0.434385">
        <ele>3106.000000</ele>
        <time>2021-09-04T16:41:09Z</time>
      </trkpt>
      <trkpt lat="42.654043" lon="0.434387">
        <ele>3106.000000</ele>
        <time>2021-09-04T16:41:11Z</time>
      </trkpt>
      <trkpt lat="42.654047" lon="0.434393">
        <ele>3104.000000</ele>
        <time>2021-09-04T16:41:16Z</time>
      </trkpt>
      <trkpt lat="42.654050" lon="0.434398">
        <ele>3104.000000</ele>
        <time>2021-09-04T16:41:20Z</time>
      </trkpt>
      <trkpt lat="42.654053" lon="0.434404">
        <ele>3103.000000</ele>
        <time>2021-09-04T16:41:24Z</time>
      </trkpt>
      <trkpt lat="42.654057" lon="0.434409">
        <ele>3102.000000</ele>
        <time>2021-09-04T16:41:28Z</time>
      </trkpt>
      <trkpt lat="42.654060" lon="0.434413">
        <ele>3102.000000</ele>
        <time>2021-09-04T16:41:33Z</time>
      </trkpt>
      <trkpt lat="42.654063" lon="0.434418">
        <ele>3103.000000</ele>
        <time>2021-09-04T16:41:36Z</time>
      </trkpt>
      <trkpt lat="42.654065" lon="0.434422">
        <ele>3104.000000</ele>
        <time>2021-09-04T16:41:39Z</time>
      </trkpt>
      <trkpt lat="42.654068" lon="0.434427">
        <ele>3105.000000</ele>
        <time>2021-09-04T16:41:43Z</time>
      </trkpt>
      <trkpt lat="42.654072" lon="0.434432">
        <ele>3107.000000</ele>
        <time>2021-09-04T16:41:47Z</time>
      </trkpt>
      <trkpt lat="42.654075" lon="0.434437">
        <ele>3107.000000</ele>
        <time>2021-09-04T16:41:51Z</time>
      </trkpt>
      <trkpt lat="42.654078" lon="0.434442">
        <ele>3107.000000</ele>
        <time>2021-09-04T16:41:55Z</time>
      </trkpt>
      <trkpt lat="42.654082" lon="0.434447">
        <ele>3107.000000</ele>
        <time>2021-09-04T16:41:59Z</time>
      </trkpt>
      <trkpt lat="42.654083" lon="0.434450">
        <ele>3107.000000</ele>
        <time>2021-09-04T16:42:01Z</time>
      </trkpt>
      <trkpt lat="42.654085" lon="0.434452">
        <ele>3107.000000</ele>
        <time>2021-09-04T16:42:03Z</time>
      </trkpt>
      <trkpt lat="42.654087" lon="0.434455">
        <ele>3107.000000</ele>
        <time>2021-09-04T16:42:05Z</time>
      </trkpt>
      <trkpt lat="42.654088" lon="0.434458">
        <ele>3109.000000</ele>
        <time>2021-09-04T16:42:08Z</time>
      </trkpt>
      <trkpt lat="42.654090" lon="0.434462">
        <ele>3110.000000</ele>
        <time>2021-09-04T16:42:10Z</time>
      </trkpt>
      <trkpt lat="42.654091" lon="0.434463">
        <ele>3111.000000</ele>
        <time>2021-09-04T16:42:11Z</time>
      </trkpt>
      <trkpt lat="42.654095" lon="0.434468">
        <ele>3112.000000</ele>
        <time>2021-09-04T16:42:15Z</time>
      </trkpt>
      <trkpt lat="42.654097" lon="0.434472">
        <ele>3112.000000</ele>
        <time>2021-09-04T16:42:17Z</time>
      </trkpt>
      <trkpt lat="42.654098" lon="0.434473">
        <ele>3112.000000</ele>
        <time>2021-09-04T16:42:19Z</time>
      </trkpt>
      <trkpt lat="42.654100" lon="0.434477">
        <ele>3112.000000</ele>
        <time>2021-09-04T16:42:21Z</time>
      </trkpt>
      <trkpt lat="42.654102" lon="0.434480">
        <ele>3112.000000</ele>
        <time>2021-09-04T16:42:23Z</time>
      </trkpt>
      <trkpt lat="42.654103" lon="0.434482">
        <ele>3112.000000</ele>
        <time>2021-09-04T16:42:25Z</time>
      </trkpt>
      <trkpt lat="42.654105" lon="0.434485">
        <ele>3110.000000</ele>
        <time>2021-09-04T16:42:27Z</time>
      </trkpt>
      <trkpt lat="42.654109" lon="0.434492">
        <ele>3113.000000</ele>
        <time>2021-09-04T16:42:32Z</time>
      </trkpt>
      <trkpt lat="42.654112" lon="0.434497">
        <ele>3114.000000</ele>
        <time>2021-09-04T16:42:36Z</time>
      </trkpt>
      <trkpt lat="42.654115" lon="0.434502">
        <ele>3114.000000</ele>
        <time>2021-09-04T16:42:40Z</time>
      </trkpt>
      <trkpt lat="42.654117" lon="0.434505">
        <ele>3114.000000</ele>
        <time>2021-09-04T16:42:42Z</time>
      </trkpt>
      <trkpt lat="42.654118" lon="0.434507">
        <ele>3114.000000</ele>
        <time>2021-09-04T16:42:44Z</time>
      </trkpt>
      <trkpt lat="42.654120" lon="0.434510">
        <ele>3114.000000</ele>
        <time>2021-09-04T16:42:46Z</time>
      </trkpt>
      <trkpt lat="42.654123" lon="0.434515">
        <ele>3114.000000</ele>
        <time>2021-09-04T16:42:50Z</time>
      </trkpt>
      <trkpt lat="42.654130" lon="0.434525">
        <ele>3114.000000</ele>
        <time>2021-09-04T16:42:58Z</time>
      </trkpt>
      <trkpt lat="42.654133" lon="0.434532">
        <ele>3114.000000</ele>
        <time>2021-09-04T16:43:03Z</time>
      </trkpt>
      <trkpt lat="42.654137" lon="0.434537">
        <ele>3114.000000</ele>
        <time>2021-09-04T16:43:07Z</time>
      </trkpt>
      <trkpt lat="42.654140" lon="0.434542">
        <ele>3114.000000</ele>
        <time>2021-09-04T16:43:11Z</time>
      </trkpt>
      <trkpt lat="42.654143" lon="0.434547">
        <ele>3114.000000</ele>
        <time>2021-09-04T16:43:12Z</time>
      </trkpt>
      <trkpt lat="42.654147" lon="0.434553">
        <ele>3116.000000</ele>
        <time>2021-09-04T16:43:17Z</time>
      </trkpt>
      <trkpt lat="42.654148" lon="0.434555">
        <ele>3116.000000</ele>
        <time>2021-09-04T16:43:19Z</time>
      </trkpt>
      <trkpt lat="42.654150" lon="0.434558">
        <ele>3116.000000</ele>
        <time>2021-09-04T16:43:21Z</time>
      </trkpt>
      <trkpt lat="42.654151" lon="0.434560">
        <ele>3116.000000</ele>
        <time>2021-09-04T16:43:23Z</time>
      </trkpt>
      <trkpt lat="42.654153" lon="0.434563">
        <ele>3116.000000</ele>
        <time>2021-09-04T16:43:25Z</time>
      </trkpt>
      <trkpt lat="42.654154" lon="0.434565">
        <ele>3116.000000</ele>
        <time>2021-09-04T16:43:27Z</time>
      </trkpt>
      <trkpt lat="42.654158" lon="0.434572">
        <ele>3116.000000</ele>
        <time>2021-09-04T16:43:32Z</time>
      </trkpt>
      <trkpt lat="42.654160" lon="0.434573">
        <ele>3116.000000</ele>
        <time>2021-09-04T16:43:34Z</time>
      </trkpt>
      <trkpt lat="42.654162" lon="0.434577">
        <ele>3116.000000</ele>
        <time>2021-09-04T16:43:36Z</time>
      </trkpt>
      <trkpt lat="42.654163" lon="0.434578">
        <ele>3116.000000</ele>
        <time>2021-09-04T16:43:38Z</time>
      </trkpt>
      <trkpt lat="42.654168" lon="0.434587">
        <ele>3116.000000</ele>
        <time>2021-09-04T16:43:45Z</time>
      </trkpt>
      <trkpt lat="42.654171" lon="0.434592">
        <ele>3116.000000</ele>
        <time>2021-09-04T16:43:49Z</time>
      </trkpt>
      <trkpt lat="42.654173" lon="0.434595">
        <ele>3116.000000</ele>
        <time>2021-09-04T16:43:52Z</time>
      </trkpt>
      <trkpt lat="42.654175" lon="0.434597">
        <ele>3116.000000</ele>
        <time>2021-09-04T16:43:54Z</time>
      </trkpt>
      <trkpt lat="42.654177" lon="0.434600">
        <ele>3116.000000</ele>
        <time>2021-09-04T16:43:56Z</time>
      </trkpt>
      <trkpt lat="42.654178" lon="0.434602">
        <ele>3116.000000</ele>
        <time>2021-09-04T16:43:58Z</time>
      </trkpt>
      <trkpt lat="42.654180" lon="0.434605">
        <ele>3116.000000</ele>
        <time>2021-09-04T16:44:01Z</time>
      </trkpt>
      <trkpt lat="42.654183" lon="0.434610">
        <ele>3116.000000</ele>
        <time>2021-09-04T16:44:05Z</time>
      </trkpt>
      <trkpt lat="42.654185" lon="0.434612">
        <ele>3116.000000</ele>
        <time>2021-09-04T16:44:07Z</time>
      </trkpt>
      <trkpt lat="42.654187" lon="0.434615">
        <ele>3116.000000</ele>
        <time>2021-09-04T16:44:10Z</time>
      </trkpt>
      <trkpt lat="42.654190" lon="0.434620">
        <ele>3116.000000</ele>
        <time>2021-09-04T16:44:14Z</time>
      </trkpt>
      <trkpt lat="42.654192" lon="0.434623">
        <ele>3118.000000</ele>
        <time>2021-09-04T16:44:17Z</time>
      </trkpt>
      <trkpt lat="42.654193" lon="0.434625">
        <ele>3118.000000</ele>
        <time>2021-09-04T16:44:19Z</time>
      </trkpt>
      <trkpt lat="42.654196" lon="0.434630">
        <ele>3118.000000</ele>
        <time>2021-09-04T16:44:24Z</time>
      </trkpt>
      <trkpt lat="42.654200" lon="0.434635">
        <ele>3118.000000</ele>
        <time>2021-09-04T16:44:28Z</time>
      </trkpt>
      <trkpt lat="42.654203" lon="0.434640">
        <ele>3118.000000</ele>
        <time>2021-09-04T16:44:33Z</time>
      </trkpt>
      <trkpt lat="42.654204" lon="0.434642">
        <ele>3117.000000</ele>
        <time>2021-09-04T16:44:35Z</time>
      </trkpt>
      <trkpt lat="42.654208" lon="0.434647">
        <ele>3117.000000</ele>
        <time>2021-09-04T16:44:40Z</time>
      </trkpt>
      <trkpt lat="42.654210" lon="0.434650">
        <ele>3116.000000</ele>
        <time>2021-09-04T16:44:43Z</time>
      </trkpt>
      <trkpt lat="42.654211" lon="0.434652">
        <ele>3116.000000</ele>
        <time>2021-09-04T16:44:45Z</time>
      </trkpt>
      <trkpt lat="42.654218" lon="0.434662">
        <ele>3116.000000</ele>
        <time>2021-09-04T16:44:55Z</time>
      </trkpt>
      <trkpt lat="42.654220" lon="0.434663">
        <ele>3116.000000</ele>
        <time>2021-09-04T16:44:57Z</time>
      </trkpt>
      <trkpt lat="42.654222" lon="0.434667">
        <ele>3116.000000</ele>
        <time>2021-09-04T16:45:00Z</time>
      </trkpt>
      <trkpt lat="42.654223" lon="0.434670">
        <ele>3116.000000</ele>
        <time>2021-09-04T16:45:03Z</time>
      </trkpt>
      <trkpt lat="42.654228" lon="0.434677">
        <ele>3115.000000</ele>
        <time>2021-09-04T16:45:10Z</time>
      </trkpt>
      <trkpt lat="42.654233" lon="0.434684">
        <ele>3115.000000</ele>
        <time>2021-09-04T16:45:18Z</time>
      </trkpt>
      <trkpt lat="42.654235" lon="0.434686">
        <ele>3115.000000</ele>
        <time>2021-09-04T16:45:21Z</time>
      </trkpt>
      <trkpt lat="42.654238" lon="0.434691">
        <ele>3115.000000</ele>
        <time>2021-09-04T16:45:26Z</time>
      </trkpt>
      <trkpt lat="42.654242" lon="0.434697">
        <ele>3115.000000</ele>
        <time>2021-09-04T16:45:32Z</time>
      </trkpt>
      <trkpt lat="42.654243" lon="0.434699">
        <ele>3115.000000</ele>
        <time>2021-09-04T16:45:35Z</time>
      </trkpt>
      <trkpt lat="42.654245" lon="0.434702">
        <ele>3115.000000</ele>
        <time>2021-09-04T16:45:37Z</time>
      </trkpt>
      <trkpt lat="42.654250" lon="0.434710">
        <ele>3115.000000</ele>
        <time>2021-09-04T16:45:46Z</time>
      </trkpt>
      <trkpt lat="42.654258" lon="0.434723">
        <ele>3115.000000</ele>
        <time>2021-09-04T16:46:00Z</time>
      </trkpt>
      <trkpt lat="42.654262" lon="0.434728">
        <ele>3115.000000</ele>
        <time>2021-09-04T16:46:06Z</time>
      </trkpt>
      <trkpt lat="42.654267" lon="0.434737">
        <ele>3115.000000</ele>
        <time>2021-09-04T16:46:15Z</time>
      </trkpt>
      <trkpt lat="42.654270" lon="0.434742">
        <ele>3115.000000</ele>
        <time>2021-09-04T16:46:21Z</time>
      </trkpt>
      <trkpt lat="42.654272" lon="0.434743">
        <ele>3115.000000</ele>
        <time>2021-09-04T16:46:23Z</time>
      </trkpt>
      <trkpt lat="42.654645" lon="0.435415">
        <ele>3367.000000</ele>
        <time>2021-09-05T07:35:00Z</time>
      </trkpt>
      <trkpt lat="42.654643" lon="0.435405">
        <ele>3367.000000</ele>
        <time>2021-09-05T07:35:01Z</time>
      </trkpt>
      <trkpt lat="42.654640" lon="0.435400">
        <ele>3367.000000</ele>
        <time>2021-09-05T07:35:02Z</time>
      </trkpt>
      <trkpt lat="42.654637" lon="0.435392">
        <ele>3367.000000</ele>
        <time>2021-09-05T07:35:04Z</time>
      </trkpt>
      <trkpt lat="42.654633" lon="0.435387">
        <ele>3367.000000</ele>
        <time>2021-09-05T07:35:05Z</time>
      </trkpt>
      <trkpt lat="42.654633" lon="0.435383">
        <ele>3367.000000</ele>
        <time>2021-09-05T07:35:06Z</time>
      </trkpt>
      <trkpt lat="42.654630" lon="0.435380">
        <ele>3367.000000</ele>
        <time>2021-09-05T07:35:07Z</time>
      </trkpt>
      <trkpt lat="42.654628" lon="0.435377">
        <ele>3367.000000</ele>
        <time>2021-09-05T07:35:09Z</time>
      </trkpt>
      <trkpt lat="42.654627" lon="0.435375">
        <ele>3368.000000</ele>
        <time>2021-09-05T07:35:10Z</time>
      </trkpt>
      <trkpt lat="42.654628" lon="0.435377">
        <ele>3368.000000</ele>
        <time>2021-09-05T07:35:11Z</time>
      </trkpt>
      <trkpt lat="42.654625" lon="0.435377">
        <ele>3368.000000</ele>
        <time>2021-09-05T07:35:12Z</time>
      </trkpt>
      <trkpt lat="42.654622" lon="0.435373">
        <ele>3368.000000</ele>
        <time>2021-09-05T07:35:13Z</time>
      </trkpt>
      <trkpt lat="42.654620" lon="0.435368">
        <ele>3368.000000</ele>
        <time>2021-09-05T07:35:15Z</time>
      </trkpt>
      <trkpt lat="42.654617" lon="0.435363">
        <ele>3368.000000</ele>
        <time>2021-09-05T07:35:16Z</time>
      </trkpt>
      <trkpt lat="42.654625" lon="0.435375">
        <ele>3368.000000</ele>
        <time>2021-09-05T07:35:17Z</time>
      </trkpt>
      <trkpt lat="42.654643" lon="0.435405">
        <ele>3368.000000</ele>
        <time>2021-09-05T07:35:18Z</time>
      </trkpt>
      <trkpt lat="42.654640" lon="0.435400">
        <ele>3368.000000</ele>
        <time>2021-09-05T07:35:20Z</time>
      </trkpt>
      <trkpt lat="42.654637" lon="0.435392">
        <ele>3368.000000</ele>
        <time>2021-09-05T07:35:21Z</time>
      </trkpt>
      <trkpt lat="42.654633" lon="0.435387">
        <ele>3368.000000</ele>
        <time>2021-09-05T07:35:22Z</time>
      </trkpt>
      <trkpt lat="42.654633" lon="0.435383">
        <ele>3368.000000</ele>
        <time>2021-09-05T07:35:23Z</time>
      </trkpt>
      <trkpt lat="42.654632" lon="0.435380">
        <ele>3368.000000</ele>
        <time>2021-09-05T07:35:25Z</time>
      </trkpt>
      <trkpt lat="42.654628" lon="0.435377">
        <ele>3368.000000</ele>
        <time>2021-09-05T07:35:26Z</time>
      </trkpt>
      <trkpt lat="42.654625" lon="0.435375">
        <ele>3367.000000</ele>
        <time>2021-09-05T07:35:27Z</time>
      </trkpt>
      <trkpt lat="42.654623" lon="0.435373">
        <ele>3366.000000</ele>
        <time>2021-09-05T07:35:28Z</time>
      </trkpt>
      <trkpt lat="42.654620" lon="0.435368">
        <ele>3366.000000</ele>
        <time>2021-09-05T07:35:29Z</time>
      </trkpt>
      <trkpt lat="42.654618" lon="0.435363">
        <ele>3365.000000</ele>
        <time>2021-09-05T07:35:31Z</time>
      </trkpt>
      <trkpt lat="42.654615" lon="0.435362">
        <ele>3365.000000</ele>
        <time>2021-09-05T07:35:32Z</time>
      </trkpt>
      <trkpt lat="42.654615" lon="0.435357">
        <ele>3365.000000</ele>
        <time>2021-09-05T07:35:33Z</time>
      </trkpt>
      <trkpt lat="42.654613" lon="0.435355">
        <ele>3364.000000</ele>
        <time>2021-09-05T07:35:34Z</time>
      </trkpt>
      <trkpt lat="42.654613" lon="0.435350">
        <ele>3364.000000</ele>
        <time>2021-09-05T07:35:36Z</time>
      </trkpt>
      <trkpt lat="42.654612" lon="0.435348">
        <ele>3364.000000</ele>
        <time>2021-09-05T07:35:37Z</time>
      </trkpt>
      <trkpt lat="42.654612" lon="0.435345">
        <ele>3364.000000</ele>
        <time>2021-09-05T07:35:38Z</time>
      </trkpt>
      <trkpt lat="42.654610" lon="0.435338">
        <ele>3363.000000</ele>
        <time>2021-09-05T07:35:40Z</time>
      </trkpt>
      <trkpt lat="42.654610" lon="0.435335">
        <ele>3363.000000</ele>
        <time>2021-09-05T07:35:41Z</time>
      </trkpt>
      <trkpt lat="42.654610" lon="0.435330">
        <ele>3363.000000</ele>
        <time>2021-09-05T07:35:43Z</time>
      </trkpt>
      <trkpt lat="42.654610" lon="0.435325">
        <ele>3364.000000</ele>
        <time>2021-09-05T07:35:44Z</time>
      </trkpt>
      <trkpt lat="42.654610" lon="0.435320">
        <ele>3366.000000</ele>
        <time>2021-09-05T07:35:49Z</time>
      </trkpt>
      <trkpt lat="42.654610" lon="0.435317">
        <ele>3366.000000</ele>
        <time>2021-09-05T07:35:50Z</time>
      </trkpt>
      <trkpt lat="42.654610" lon="0.435314">
        <ele>3366.000000</ele>
        <time>2021-09-05T07:35:51Z</time>
      </trkpt>
      <trkpt lat="42.654610" lon="0.435311">
        <ele>3367.000000</ele>
        <time>2021-09-05T07:35:52Z</time>
      </trkpt>
      <trkpt lat="42.654610" lon="0.435308">
        <ele>3367.000000</ele>
        <time>2021-09-05T07:35:55Z</time>
      </trkpt>
      <trkpt lat="42.654612" lon="0.435285">
        <ele>3368.000000</ele>
        <time>2021-09-05T07:35:57Z</time>
      </trkpt>
      <trkpt lat="42.654612" lon="0.435285">
        <ele>3368.000000</ele>
        <time>2021-09-05T07:35:59Z</time>
      </trkpt>
      <trkpt lat="42.654615" lon="0.435272">
        <ele>3368.000000</ele>
        <time>2021-09-05T07:35:59Z</time>
      </trkpt>
      <trkpt lat="42.654617" lon="0.435269">
        <ele>3368.000000</ele>
        <time>2021-09-05T07:36:00Z</time>
      </trkpt>
      <trkpt lat="42.654620" lon="0.435263">
        <ele>3368.000000</ele>
        <time>2021-09-05T07:36:01Z</time>
      </trkpt>
      <trkpt lat="42.654632" lon="0.435258">
        <ele>3368.000000</ele>
        <time>2021-09-05T07:36:07Z</time>
      </trkpt>
      <trkpt lat="42.654632" lon="0.435257">
        <ele>3368.000000</ele>
        <time>2021-09-05T07:36:08Z</time>
      </trkpt>
      <trkpt lat="42.654605" lon="0.435283">
        <ele>3363.000000</ele>
        <time>2021-09-05T07:38:53Z</time>
      </trkpt>
      <trkpt lat="42.654597" lon="0.435290">
        <ele>3363.000000</ele>
        <time>2021-09-05T07:38:54Z</time>
      </trkpt>
      <trkpt lat="42.654590" lon="0.435288">
        <ele>3363.000000</ele>
        <time>2021-09-05T07:38:55Z</time>
      </trkpt>
      <trkpt lat="42.654585" lon="0.435293">
        <ele>3363.000000</ele>
        <time>2021-09-05T07:38:57Z</time>
      </trkpt>
      <trkpt lat="42.654577" lon="0.435297">
        <ele>3363.000000</ele>
        <time>2021-09-05T07:38:58Z</time>
      </trkpt>
      <trkpt lat="42.654568" lon="0.435303">
        <ele>3363.000000</ele>
        <time>2021-09-05T07:38:59Z</time>
      </trkpt>
      <trkpt lat="42.654558" lon="0.435311">
        <ele>3362.000000</ele>
        <time>2021-09-05T07:39:00Z</time>
      </trkpt>
      <trkpt lat="42.654552" lon="0.435318">
        <ele>3362.000000</ele>
        <time>2021-09-05T07:39:01Z</time>
      </trkpt>
      <trkpt lat="42.654545" lon="0.435324">
        <ele>3362.000000</ele>
        <time>2021-09-05T07:39:02Z</time>
      </trkpt>
      <trkpt lat="42.654540" lon="0.435330">
        <ele>3362.000000</ele>
        <time>2021-09-05T07:39:03Z</time>
      </trkpt>
      <trkpt lat="42.654530" lon="0.435341">
        <ele>3362.000000</ele>
        <time>2021-09-05T07:39:04Z</time>
      </trkpt>
      <trkpt lat="42.654517" lon="0.435356">
        <ele>3361.000000</ele>
        <time>2021-09-05T07:39:05Z</time>
      </trkpt>
      <trkpt lat="42.654503" lon="0.435372">
        <ele>3361.000000</ele>
        <time>2021-09-05T07:39:06Z</time>
      </trkpt>
      <trkpt lat="42.654488" lon="0.435385">
        <ele>3361.000000</ele>
        <time>2021-09-05T07:39:07Z</time>
      </trkpt>
      <trkpt lat="42.654477" lon="0.435393">
        <ele>3361.000000</ele>
        <time>2021-09-05T07:39:08Z</time>
      </trkpt>
      <trkpt lat="42.654467" lon="0.435400">
        <ele>3361.000000</ele>
        <time>2021-09-05T07:39:09Z</time>
      </trkpt>
      <trkpt lat="42.654455" lon="0.435398">
        <ele>3361.000000</ele>
        <time>2021-09-05T07:39:10Z</time>
      </trkpt>
      <trkpt lat="42.654445" lon="0.435405">
        <ele>3361.000000</ele>
        <time>2021-09-05T07:39:11Z</time>
      </trkpt>
      <trkpt lat="42.654438" lon="0.435410">
        <ele>3361.000000</ele>
        <time>2021-09-05T07:39:12Z</time>
      </trkpt>
      <trkpt lat="42.654430" lon="0.435417">
        <ele>3360.000000</ele>
        <time>2021-09-05T07:39:13Z</time>
      </trkpt>
      <trkpt lat="42.654422" lon="0.435426">
        <ele>3360.000000</ele>
        <time>2021-09-05T07:39:14Z</time>
      </trkpt>
      <trkpt lat="42.654413" lon="0.435433">
        <ele>3360.000000</ele>
        <time>2021-09-05T07:39:15Z</time>
      </trkpt>
      <trkpt lat="42.654410" lon="0.435435">
        <ele>3360.000000</ele>
        <time>2021-09-05T07:39:15Z</time>
      </trkpt>
      <trkpt lat="42.654408" lon="0.435437">
        <ele>3360.000000</ele>
        <time>2021-09-05T07:39:16Z</time>
      </trkpt>
      <trkpt lat="42.654405" lon="0.435439">
        <ele>3359.000000</ele>
        <time>2021-09-05T07:39:18Z</time>
      </trkpt>
      <trkpt lat="42.654402" lon="0.435440">
        <ele>3359.000000</ele>
        <time>2021-09-05T07:39:19Z</time>
      </trkpt>
      <trkpt lat="42.654403" lon="0.435438">
        <ele>3359.000000</ele>
        <time>2021-09-05T07:39:21Z</time>
      </trkpt>
      <trkpt lat="42.654402" lon="0.435438">
        <ele>3358.000000</ele>
        <time>2021-09-05T07:39:23Z</time>
      </trkpt>
      <trkpt lat="42.654398" lon="0.435440">
        <ele>3358.000000</ele>
        <time>2021-09-05T07:39:24Z</time>
      </trkpt>
      <trkpt lat="42.654395" lon="0.435442">
        <ele>3358.000000</ele>
        <time>2021-09-05T07:39:25Z</time>
      </trkpt>
      <trkpt lat="42.654392" lon="0.435445">
        <ele>3358.000000</ele>
        <time>2021-09-05T07:39:26Z</time>
      </trkpt>
      <trkpt lat="42.654387" lon="0.435450">
        <ele>3358.000000</ele>
        <time>2021-09-05T07:39:27Z</time>
      </trkpt>
      <trkpt lat="42.654380" lon="0.435456">
        <ele>3357.000000</ele>
        <time>2021-09-05T07:39:28Z</time>
      </trkpt>
      <trkpt lat="42.654373" lon="0.435464">
        <ele>3357.000000</ele>
        <time>2021-09-05T07:39:29Z</time>
      </trkpt>
      <trkpt lat="42.654370" lon="0.435483">
        <ele>3357.000000</ele>
        <time>2021-09-05T07:39:30Z</time>
      </trkpt>
      <trkpt lat="42.654365" lon="0.435495">
        <ele>3357.000000</ele>
        <time>2021-09-05T07:39:31Z</time>
      </trkpt>
      <trkpt lat="42.654360" lon="0.435508">
        <ele>3357.000000</ele>
        <time>2021-09-05T07:39:32Z</time>
      </trkpt>
      <trkpt lat="42.654353" lon="0.435513">
        <ele>3357.000000</ele>
        <time>2021-09-05T07:39:33Z</time>
      </trkpt>
      <trkpt lat="42.654347" lon="0.435517">
        <ele>3357.000000</ele>
        <time>2021-09-05T07:39:34Z</time>
      </trkpt>
      <trkpt lat="42.654343" lon="0.435517">
        <ele>3357.000000</ele>
        <time>2021-09-05T07:39:35Z</time>
      </trkpt>
      <trkpt lat="42.654338" lon="0.435518">
        <ele>3356.000000</ele>
        <time>2021-09-05T07:39:36Z</time>
      </trkpt>
      <trkpt lat="42.654333" lon="0.435520">
        <ele>3356.000000</ele>
        <time>2021-09-05T07:39:37Z</time>
      </trkpt>
      <trkpt lat="42.654328" lon="0.435521">
        <ele>3356.000000</ele>
        <time>2021-09-05T07:39:38Z</time>
      </trkpt>
      <trkpt lat="42.654323" lon="0.435526">
        <ele>3356.000000</ele>
        <time>2021-09-05T07:39:39Z</time>
      </trkpt>
      <trkpt lat="42.654320" lon="0.435530">
        <ele>3356.000000</ele>
        <time>2021-09-05T07:39:40Z</time>
      </trkpt>
      <trkpt lat="42.654312" lon="0.435539">
        <ele>3355.000000</ele>
        <time>2021-09-05T07:39:41Z</time>
      </trkpt>
      <trkpt lat="42.654307" lon="0.435544">
        <ele>3355.000000</ele>
        <time>2021-09-05T07:39:42Z</time>
      </trkpt>
      <trkpt lat="42.654300" lon="0.435552">
        <ele>3355.000000</ele>
        <time>2021-09-05T07:39:43Z</time>
      </trkpt>
      <trkpt lat="42.654298" lon="0.435554">
        <ele>3355.000000</ele>
        <time>2021-09-05T07:39:44Z</time>
      </trkpt>
      <trkpt lat="42.654295" lon="0.435558">
        <ele>3355.000000</ele>
        <time>2021-09-05T07:39:45Z</time>
      </trkpt>
      <trkpt lat="42.654293" lon="0.435561">
        <ele>3355.000000</ele>
        <time>2021-09-05T07:39:46Z</time>
      </trkpt>
      <trkpt lat="42.654292" lon="0.435562">
        <ele>3355.000000</ele>
        <time>2021-09-05T07:39:47Z</time>
      </trkpt>
      <trkpt lat="42.654293" lon="0.435561">
        <ele>3355.000000</ele>
        <time>2021-09-05T07:39:48Z</time>
      </trkpt>
      <trkpt lat="42.654297" lon="0.435557">
        <ele>3355.000000</ele>
        <time>2021-09-05T07:39:49Z</time>
      </trkpt>
      <trkpt lat="42.654298" lon="0.435556">
        <ele>3355.000000</ele>
        <time>2021-09-05T07:39:54Z</time>
      </trkpt>
      <trkpt lat="42.654300" lon="0.435554">
        <ele>3355.000000</ele>
        <time>2021-09-05T07:39:55Z</time>
      </trkpt>
      <trkpt lat="42.654297" lon="0.435558">
        <ele>3355.000000</ele>
        <time>2021-09-05T07:39:56Z</time>
      </trkpt>
      <trkpt lat="42.654275" lon="0.435603">
        <ele>3359.000000</ele>
        <time>2021-09-05T07:40:33Z</time>
      </trkpt>
      <trkpt lat="42.654265" lon="0.435605">
        <ele>3359.000000</ele>
        <time>2021-09-05T07:40:34Z</time>
      </trkpt>
      <trkpt lat="42.654260" lon="0.435607">
        <ele>3358.000000</ele>
        <time>2021-09-05T07:40:35Z</time>
      </trkpt>
      <trkpt lat="42.654253" lon="0.435613">
        <ele>3358.000000</ele>
        <time>2021-09-05T07:40:36Z</time>
      </trkpt>
      <trkpt lat="42.654245" lon="0.435618">
        <ele>3358.000000</ele>
        <time>2021-09-05T07:40:37Z</time>
      </trkpt>
      <trkpt lat="42.654240" lon="0.435619">
        <ele>3357.000000</ele>
        <time>2021-09-05T07:40:38Z</time>
      </trkpt>
      <trkpt lat="42.654233" lon="0.435619">
        <ele>3357.000000</ele>
        <time>2021-09-05T07:40:39Z</time>
      </trkpt>
      <trkpt lat="42.654227" lon="0.435623">
        <ele>3357.000000</ele>
        <time>2021-09-05T07:40:40Z</time>
      </trkpt>
      <trkpt lat="42.654223" lon="0.435627">
        <ele>3357.000000</ele>
        <time>2021-09-05T07:40:41Z</time>
      </trkpt>
      <trkpt lat="42.654220" lon="0.435640">
        <ele>3356.000000</ele>
        <time>2021-09-05T07:40:42Z</time>
      </trkpt>
      <trkpt lat="42.654213" lon="0.435642">
        <ele>3356.000000</ele>
        <time>2021-09-05T07:40:43Z</time>
      </trkpt>
      <trkpt lat="42.654205" lon="0.435643">
        <ele>3356.000000</ele>
        <time>2021-09-05T07:40:44Z</time>
      </trkpt>
      <trkpt lat="42.654200" lon="0.435645">
        <ele>3356.000000</ele>
        <time>2021-09-05T07:40:45Z</time>
      </trkpt>
      <trkpt lat="42.654198" lon="0.435649">
        <ele>3356.000000</ele>
        <time>2021-09-05T07:40:46Z</time>
      </trkpt>
      <trkpt lat="42.654192" lon="0.435662">
        <ele>3356.000000</ele>
        <time>2021-09-05T07:40:47Z</time>
      </trkpt>
      <trkpt lat="42.654182" lon="0.435680">
        <ele>3355.000000</ele>
        <time>2021-09-05T07:40:48Z</time>
      </trkpt>
      <trkpt lat="42.654167" lon="0.435703">
        <ele>3355.000000</ele>
        <time>2021-09-05T07:40:49Z</time>
      </trkpt>
      <trkpt lat="42.654153" lon="0.435720">
        <ele>3355.000000</ele>
        <time>2021-09-05T07:40:50Z</time>
      </trkpt>
      <trkpt lat="42.654142" lon="0.435732">
        <ele>3354.000000</ele>
        <time>2021-09-05T07:40:51Z</time>
      </trkpt>
      <trkpt lat="42.654132" lon="0.435741">
        <ele>3354.000000</ele>
        <time>2021-09-05T07:40:52Z</time>
      </trkpt>
      <trkpt lat="42.654122" lon="0.435750">
        <ele>3354.000000</ele>
        <time>2021-09-05T07:40:54Z</time>
      </trkpt>
      <trkpt lat="42.654110" lon="0.435758">
        <ele>3353.000000</ele>
        <time>2021-09-05T07:40:54Z</time>
      </trkpt>
      <trkpt lat="42.654102" lon="0.435762">
        <ele>3353.000000</ele>
        <time>2021-09-05T07:40:55Z</time>
      </trkpt>
      <trkpt lat="42.654095" lon="0.435767">
        <ele>3353.000000</ele>
        <time>2021-09-05T07:40:56Z</time>
      </trkpt>
      <trkpt lat="42.654092" lon="0.435770">
        <ele>3352.000000</ele>
        <time>2021-09-05T07:40:57Z</time>
      </trkpt>
      <trkpt lat="42.654092" lon="0.435772">
        <ele>3352.000000</ele>
        <time>2021-09-05T07:40:58Z</time>
      </trkpt>
      <trkpt lat="42.654087" lon="0.435778">
        <ele>3352.000000</ele>
        <time>2021-09-05T07:40:59Z</time>
      </trkpt>
      <trkpt lat="42.654083" lon="0.435797">
        <ele>3352.000000</ele>
        <time>2021-09-05T07:41:00Z</time>
      </trkpt>
      <trkpt lat="42.654073" lon="0.435803">
        <ele>3351.000000</ele>
        <time>2021-09-05T07:41:01Z</time>
      </trkpt>
      <trkpt lat="42.654063" lon="0.435811">
        <ele>3351.000000</ele>
        <time>2021-09-05T07:41:02Z</time>
      </trkpt>
      <trkpt lat="42.654053" lon="0.435819">
        <ele>3351.000000</ele>
        <time>2021-09-05T07:41:03Z</time>
      </trkpt>
      <trkpt lat="42.654038" lon="0.435835">
        <ele>3351.000000</ele>
        <time>2021-09-05T07:41:04Z</time>
      </trkpt>
      <trkpt lat="42.654025" lon="0.435847">
        <ele>3350.000000</ele>
        <time>2021-09-05T07:41:05Z</time>
      </trkpt>
      <trkpt lat="42.654012" lon="0.435856">
        <ele>3350.000000</ele>
        <time>2021-09-05T07:41:06Z</time>
      </trkpt>
      <trkpt lat="42.654000" lon="0.435863">
        <ele>3350.000000</ele>
        <time>2021-09-05T07:41:07Z</time>
      </trkpt>
      <trkpt lat="42.653988" lon="0.435872">
        <ele>3349.000000</ele>
        <time>2021-09-05T07:41:08Z</time>
      </trkpt>
      <trkpt lat="42.653980" lon="0.435878">
        <ele>3349.000000</ele>
        <time>2021-09-05T07:41:09Z</time>
      </trkpt>
      <trkpt lat="42.653977" lon="0.435880">
        <ele>3349.000000</ele>
        <time>2021-09-05T07:41:10Z</time>
      </trkpt>
      <trkpt lat="42.653972" lon="0.435884">
        <ele>3349.000000</ele>
        <time>2021-09-05T07:41:11Z</time>
      </trkpt>
      <trkpt lat="42.653965" lon="0.435890">
        <ele>3349.000000</ele>
        <time>2021-09-05T07:41:12Z</time>
      </trkpt>
      <trkpt lat="42.653960" lon="0.435895">
        <ele>3349.000000</ele>
        <time>2021-09-05T07:41:14Z</time>
      </trkpt>
      <trkpt lat="42.653952" lon="0.435902">
        <ele>3349.000000</ele>
        <time>2021-09-05T07:41:14Z</time>
      </trkpt>
      <trkpt lat="42.653945" lon="0.435908">
        <ele>3349.000000</ele>
        <time>2021-09-05T07:41:15Z</time>
      </trkpt>
      <trkpt lat="42.653940" lon="0.435913">
        <ele>3349.000000</ele>
        <time>2021-09-05T07:41:16Z</time>
      </trkpt>
      <trkpt lat="42.653937" lon="0.435930">
        <ele>3349.000000</ele>
        <time>2021-09-05T07:41:17Z</time>
      </trkpt>
      <trkpt lat="42.653932" lon="0.435940">
        <ele>3349.000000</ele>
        <time>2021-09-05T07:41:18Z</time>
      </trkpt>
      <trkpt lat="42.653927" lon="0.435950">
        <ele>3349.000000</ele>
        <time>2021-09-05T07:41:19Z</time>
      </trkpt>
      <trkpt lat="42.653922" lon="0.435958">
        <ele>3349.000000</ele>
        <time>2021-09-05T07:41:20Z</time>
      </trkpt>
      <trkpt lat="42.653915" lon="0.435960">
        <ele>3348.000000</ele>
        <time>2021-09-05T07:41:21Z</time>
      </trkpt>
      <trkpt lat="42.653910" lon="0.435960">
        <ele>3348.000000</ele>
        <time>2021-09-05T07:41:22Z</time>
      </trkpt>
      <trkpt lat="42.653903" lon="0.435957">
        <ele>3348.000000</ele>
        <time>2021-09-05T07:41:23Z</time>
      </trkpt>
      <trkpt lat="42.653898" lon="0.435952">
        <ele>3348.000000</ele>
        <time>2021-09-05T07:41:24Z</time>
      </trkpt>
      <trkpt lat="42.653893" lon="0.435955">
        <ele>3348.000000</ele>
        <time>2021-09-05T07:41:25Z</time>
      </trkpt>
      <trkpt lat="42.653885" lon="0.435966">
        <ele>3348.000000</ele>
        <time>2021-09-05T07:41:26Z</time>
      </trkpt>
      <trkpt lat="42.653873" lon="0.435974">
        <ele>3348.000000</ele>
        <time>2021-09-05T07:41:27Z</time>
      </trkpt>
      <trkpt lat="42.653868" lon="0.435978">
        <ele>3348.000000</ele>
        <time>2021-09-05T07:41:28Z</time>
      </trkpt>
      <trkpt lat="42.653865" lon="0.435980">
        <ele>3348.000000</ele>
        <time>2021-09-05T07:41:29Z</time>
      </trkpt>
      <trkpt lat="42.653860" lon="0.435984">
        <ele>3348.000000</ele>
        <time>2021-09-05T07:41:30Z</time>
      </trkpt>
      <trkpt lat="42.653855" lon="0.435988">
        <ele>3348.000000</ele>
        <time>2021-09-05T07:41:31Z</time>
      </trkpt>
      <trkpt lat="42.653848" lon="0.435991">
        <ele>3347.000000</ele>
        <time>2021-09-05T07:41:32Z</time>
      </trkpt>
      <trkpt lat="42.653843" lon="0.435992">
        <ele>3347.000000</ele>
        <time>2021-09-05T07:41:33Z</time>
      </trkpt>
      <trkpt lat="42.653838" lon="0.435993">
        <ele>3347.000000</ele>
        <time>2021-09-05T07:41:34Z</time>
      </trkpt>
      <trkpt lat="42.653835" lon="0.435994">
        <ele>3346.000000</ele>
        <time>2021-09-05T07:41:35Z</time>
      </trkpt>
      <trkpt lat="42.653830" lon="0.435996">
        <ele>3346.000000</ele>
        <time>2021-09-05T07:41:36Z</time>
      </trkpt>
      <trkpt lat="42.653827" lon="0.435998">
        <ele>3346.000000</ele>
        <time>2021-09-05T07:41:37Z</time>
      </trkpt>
      <trkpt lat="42.653820" lon="0.436001">
        <ele>3345.000000</ele>
        <time>2021-09-05T07:41:39Z</time>
      </trkpt>
      <trkpt lat="42.653815" lon="0.436004">
        <ele>3345.000000</ele>
        <time>2021-09-05T07:41:39Z</time>
      </trkpt>
      <trkpt lat="42.653808" lon="0.436008">
        <ele>3345.000000</ele>
        <time>2021-09-05T07:41:40Z</time>
      </trkpt>
      <trkpt lat="42.653802" lon="0.436012">
        <ele>3344.000000</ele>
        <time>2021-09-05T07:41:41Z</time>
      </trkpt>
      <trkpt lat="42.653797" lon="0.436014">
        <ele>3344.000000</ele>
        <time>2021-09-05T07:41:42Z</time>
      </trkpt>
      <trkpt lat="42.653793" lon="0.436017">
        <ele>3344.000000</ele>
        <time>2021-09-05T07:41:43Z</time>
      </trkpt>
      <trkpt lat="42.653790" lon="0.436021">
        <ele>3344.000000</ele>
        <time>2021-09-05T07:41:44Z</time>
      </trkpt>
      <trkpt lat="42.653788" lon="0.436048">
        <ele>3343.000000</ele>
        <time>2021-09-05T07:41:45Z</time>
      </trkpt>
      <trkpt lat="42.653782" lon="0.436063">
        <ele>3343.000000</ele>
        <time>2021-09-05T07:41:46Z</time>
      </trkpt>
      <trkpt lat="42.653773" lon="0.436072">
        <ele>3343.000000</ele>
        <time>2021-09-05T07:41:47Z</time>
      </trkpt>
      <trkpt lat="42.653764" lon="0.436080">
        <ele>3343.000000</ele>
        <time>2021-09-05T07:41:48Z</time>
      </trkpt>
      <trkpt lat="42.653753" lon="0.436083">
        <ele>3342.000000</ele>
        <time>2021-09-05T07:41:49Z</time>
      </trkpt>
      <trkpt lat="42.653748" lon="0.436083">
        <ele>3342.000000</ele>
        <time>2021-09-05T07:41:50Z</time>
      </trkpt>
      <trkpt lat="42.653750" lon="0.436090">
        <ele>3342.000000</ele>
        <time>2021-09-05T07:41:53Z</time>
      </trkpt>
      <trkpt lat="42.653750" lon="0.436095">
        <ele>3342.000000</ele>
        <time>2021-09-05T07:41:54Z</time>
      </trkpt>
      <trkpt lat="42.653750" lon="0.436102">
        <ele>3342.000000</ele>
        <time>2021-09-05T07:41:55Z</time>
      </trkpt>
      <trkpt lat="42.653753" lon="0.436112">
        <ele>3342.000000</ele>
        <time>2021-09-05T07:41:56Z</time>
      </trkpt>
      <trkpt lat="42.653757" lon="0.436120">
        <ele>3342.000000</ele>
        <time>2021-09-05T07:41:57Z</time>
      </trkpt>
      <trkpt lat="42.653760" lon="0.436128">
        <ele>3342.000000</ele>
        <time>2021-09-05T07:41:58Z</time>
      </trkpt>
      <trkpt lat="42.653763" lon="0.436133">
        <ele>3342.000000</ele>
        <time>2021-09-05T07:42:00Z</time>
      </trkpt>
      <trkpt lat="42.653762" lon="0.436137">
        <ele>3342.000000</ele>
        <time>2021-09-05T07:42:00Z</time>
      </trkpt>
      <trkpt lat="42.653763" lon="0.436135">
        <ele>3342.000000</ele>
        <time>2021-09-05T07:42:01Z</time>
      </trkpt>
      <trkpt lat="42.653764" lon="0.436137">
        <ele>3342.000000</ele>
        <time>2021-09-05T07:42:02Z</time>
      </trkpt>
      <trkpt lat="42.653766" lon="0.436142">
        <ele>3342.000000</ele>
        <time>2021-09-05T07:42:03Z</time>
      </trkpt>
      <trkpt lat="42.653764" lon="0.436150">
        <ele>3342.000000</ele>
        <time>2021-09-05T07:42:04Z</time>
      </trkpt>
      <trkpt lat="42.653760" lon="0.436158">
        <ele>3343.000000</ele>
        <time>2021-09-05T07:42:05Z</time>
      </trkpt>
      <trkpt lat="42.653757" lon="0.436165">
        <ele>3343.000000</ele>
        <time>2021-09-05T07:42:06Z</time>
      </trkpt>
      <trkpt lat="42.653748" lon="0.436168">
        <ele>3343.000000</ele>
        <time>2021-09-05T07:42:07Z</time>
      </trkpt>
      <trkpt lat="42.653743" lon="0.436173">
        <ele>3343.000000</ele>
        <time>2021-09-05T07:42:08Z</time>
      </trkpt>
      <trkpt lat="42.653737" lon="0.436182">
        <ele>3343.000000</ele>
        <time>2021-09-05T07:42:09Z</time>
      </trkpt>
      <trkpt lat="42.653732" lon="0.436187">
        <ele>3343.000000</ele>
        <time>2021-09-05T07:42:10Z</time>
      </trkpt>
      <trkpt lat="42.653725" lon="0.436190">
        <ele>3343.000000</ele>
        <time>2021-09-05T07:42:11Z</time>
      </trkpt>
      <trkpt lat="42.653720" lon="0.436187">
        <ele>3343.000000</ele>
        <time>2021-09-05T07:42:12Z</time>
      </trkpt>
      <trkpt lat="42.653713" lon="0.436187">
        <ele>3343.000000</ele>
        <time>2021-09-05T07:42:13Z</time>
      </trkpt>
      <trkpt lat="42.653710" lon="0.436192">
        <ele>3343.000000</ele>
        <time>2021-09-05T07:42:15Z</time>
      </trkpt>
      <trkpt lat="42.653708" lon="0.436196">
        <ele>3343.000000</ele>
        <time>2021-09-05T07:42:16Z</time>
      </trkpt>
      <trkpt lat="42.653700" lon="0.436207">
        <ele>3342.000000</ele>
        <time>2021-09-05T07:42:17Z</time>
      </trkpt>
      <trkpt lat="42.653692" lon="0.436211">
        <ele>3342.000000</ele>
        <time>2021-09-05T07:42:18Z</time>
      </trkpt>
      <trkpt lat="42.653683" lon="0.436212">
        <ele>3342.000000</ele>
        <time>2021-09-05T07:42:19Z</time>
      </trkpt>
      <trkpt lat="42.653677" lon="0.436213">
        <ele>3342.000000</ele>
        <time>2021-09-05T07:42:20Z</time>
      </trkpt>
      <trkpt lat="42.653667" lon="0.436215">
        <ele>3342.000000</ele>
        <time>2021-09-05T07:42:21Z</time>
      </trkpt>
      <trkpt lat="42.653660" lon="0.436215">
        <ele>3341.000000</ele>
        <time>2021-09-05T07:42:22Z</time>
      </trkpt>
      <trkpt lat="42.653655" lon="0.436219">
        <ele>3341.000000</ele>
        <time>2021-09-05T07:42:24Z</time>
      </trkpt>
      <trkpt lat="42.653643" lon="0.436227">
        <ele>3341.000000</ele>
        <time>2021-09-05T07:42:24Z</time>
      </trkpt>
      <trkpt lat="42.653635" lon="0.436233">
        <ele>3341.000000</ele>
        <time>2021-09-05T07:42:25Z</time>
      </trkpt>
      <trkpt lat="42.653628" lon="0.436242">
        <ele>3340.000000</ele>
        <time>2021-09-05T07:42:26Z</time>
      </trkpt>
      <trkpt lat="42.653622" lon="0.436252">
        <ele>3340.000000</ele>
        <time>2021-09-05T07:42:27Z</time>
      </trkpt>
      <trkpt lat="42.653617" lon="0.436257">
        <ele>3340.000000</ele>
        <time>2021-09-05T07:42:28Z</time>
      </trkpt>
      <trkpt lat="42.653607" lon="0.436263">
        <ele>3340.000000</ele>
        <time>2021-09-05T07:42:29Z</time>
      </trkpt>
      <trkpt lat="42.653600" lon="0.436264">
        <ele>3339.000000</ele>
        <time>2021-09-05T07:42:30Z</time>
      </trkpt>
      <trkpt lat="42.653590" lon="0.436266">
        <ele>3339.000000</ele>
        <time>2021-09-05T07:42:31Z</time>
      </trkpt>
      <trkpt lat="42.653583" lon="0.436263">
        <ele>3339.000000</ele>
        <time>2021-09-05T07:42:32Z</time>
      </trkpt>
      <trkpt lat="42.653575" lon="0.436263">
        <ele>3339.000000</ele>
        <time>2021-09-05T07:42:33Z</time>
      </trkpt>
      <trkpt lat="42.653570" lon="0.436258">
        <ele>3339.000000</ele>
        <time>2021-09-05T07:42:34Z</time>
      </trkpt>
      <trkpt lat="42.653563" lon="0.436258">
        <ele>3338.000000</ele>
        <time>2021-09-05T07:42:35Z</time>
      </trkpt>
      <trkpt lat="42.653557" lon="0.436254">
        <ele>3338.000000</ele>
        <time>2021-09-05T07:42:36Z</time>
      </trkpt>
      <trkpt lat="42.653552" lon="0.436252">
        <ele>3338.000000</ele>
        <time>2021-09-05T07:42:37Z</time>
      </trkpt>
      <trkpt lat="42.653547" lon="0.436253">
        <ele>3338.000000</ele>
        <time>2021-09-05T07:42:38Z</time>
      </trkpt>
      <trkpt lat="42.653542" lon="0.436252">
        <ele>3338.000000</ele>
        <time>2021-09-05T07:42:39Z</time>
      </trkpt>
      <trkpt lat="42.653535" lon="0.436253">
        <ele>3338.000000</ele>
        <time>2021-09-05T07:42:40Z</time>
      </trkpt>
      <trkpt lat="42.653533" lon="0.436253">
        <ele>3338.000000</ele>
        <time>2021-09-05T07:42:41Z</time>
      </trkpt>
      <trkpt lat="42.653528" lon="0.436252">
        <ele>3338.000000</ele>
        <time>2021-09-05T07:42:42Z</time>
      </trkpt>
      <trkpt lat="42.653525" lon="0.436252">
        <ele>3338.000000</ele>
        <time>2021-09-05T07:42:43Z</time>
      </trkpt>
      <trkpt lat="42.653518" lon="0.436250">
        <ele>3337.000000</ele>
        <time>2021-09-05T07:42:44Z</time>
      </trkpt>
      <trkpt lat="42.653508" lon="0.436248">
        <ele>3337.000000</ele>
        <time>2021-09-05T07:42:45Z</time>
      </trkpt>
      <trkpt lat="42.653500" lon="0.436248">
        <ele>3337.000000</ele>
        <time>2021-09-05T07:42:46Z</time>
      </trkpt>
      <trkpt lat="42.653490" lon="0.436246">
        <ele>3337.000000</ele>
        <time>2021-09-05T07:42:47Z</time>
      </trkpt>
      <trkpt lat="42.653480" lon="0.436244">
        <ele>3337.000000</ele>
        <time>2021-09-05T07:42:49Z</time>
      </trkpt>
      <trkpt lat="42.653473" lon="0.436238">
        <ele>3336.000000</ele>
        <time>2021-09-05T07:42:49Z</time>
      </trkpt>
      <trkpt lat="42.653468" lon="0.436233">
        <ele>3336.000000</ele>
        <time>2021-09-05T07:42:50Z</time>
      </trkpt>
      <trkpt lat="42.653458" lon="0.436229">
        <ele>3336.000000</ele>
        <time>2021-09-05T07:42:51Z</time>
      </trkpt>
      <trkpt lat="42.653453" lon="0.436227">
        <ele>3336.000000</ele>
        <time>2021-09-05T07:42:52Z</time>
      </trkpt>
      <trkpt lat="42.653448" lon="0.436225">
        <ele>3336.000000</ele>
        <time>2021-09-05T07:42:53Z</time>
      </trkpt>
      <trkpt lat="42.653440" lon="0.436221">
        <ele>3335.000000</ele>
        <time>2021-09-05T07:42:54Z</time>
      </trkpt>
      <trkpt lat="42.653435" lon="0.436218">
        <ele>3335.000000</ele>
        <time>2021-09-05T07:42:55Z</time>
      </trkpt>
      <trkpt lat="42.653428" lon="0.436213">
        <ele>3335.000000</ele>
        <time>2021-09-05T07:42:56Z</time>
      </trkpt>
      <trkpt lat="42.653425" lon="0.436209">
        <ele>3335.000000</ele>
        <time>2021-09-05T07:42:57Z</time>
      </trkpt>
      <trkpt lat="42.653420" lon="0.436206">
        <ele>3335.000000</ele>
        <time>2021-09-05T07:42:58Z</time>
      </trkpt>
      <trkpt lat="42.653415" lon="0.436204">
        <ele>3335.000000</ele>
        <time>2021-09-05T07:42:59Z</time>
      </trkpt>
      <trkpt lat="42.653410" lon="0.436204">
        <ele>3334.000000</ele>
        <time>2021-09-05T07:43:01Z</time>
      </trkpt>
      <trkpt lat="42.653408" lon="0.436205">
        <ele>3334.000000</ele>
        <time>2021-09-05T07:43:02Z</time>
      </trkpt>
      <trkpt lat="42.653405" lon="0.436205">
        <ele>3334.000000</ele>
        <time>2021-09-05T07:43:03Z</time>
      </trkpt>
      <trkpt lat="42.653403" lon="0.436207">
        <ele>3334.000000</ele>
        <time>2021-09-05T07:43:04Z</time>
      </trkpt>
      <trkpt lat="42.653398" lon="0.436208">
        <ele>3334.000000</ele>
        <time>2021-09-05T07:43:05Z</time>
      </trkpt>
      <trkpt lat="42.653395" lon="0.436209">
        <ele>3334.000000</ele>
        <time>2021-09-05T07:43:06Z</time>
      </trkpt>
      <trkpt lat="42.653390" lon="0.436210">
        <ele>3333.000000</ele>
        <time>2021-09-05T07:43:07Z</time>
      </trkpt>
      <trkpt lat="42.653388" lon="0.436212">
        <ele>3333.000000</ele>
        <time>2021-09-05T07:43:09Z</time>
      </trkpt>
      <trkpt lat="42.653383" lon="0.436214">
        <ele>3333.000000</ele>
        <time>2021-09-05T07:43:09Z</time>
      </trkpt>
      <trkpt lat="42.653382" lon="0.436215">
        <ele>3333.000000</ele>
        <time>2021-09-05T07:43:11Z</time>
      </trkpt>
      <trkpt lat="42.653377" lon="0.436217">
        <ele>3332.000000</ele>
        <time>2021-09-05T07:43:13Z</time>
      </trkpt>
      <trkpt lat="42.653372" lon="0.436219">
        <ele>3332.000000</ele>
        <time>2021-09-05T07:43:14Z</time>
      </trkpt>
      <trkpt lat="42.653363" lon="0.436221">
        <ele>3332.000000</ele>
        <time>2021-09-05T07:43:15Z</time>
      </trkpt>
      <trkpt lat="42.653355" lon="0.436224">
        <ele>3332.000000</ele>
        <time>2021-09-05T07:43:16Z</time>
      </trkpt>
      <trkpt lat="42.653345" lon="0.436227">
        <ele>3332.000000</ele>
        <time>2021-09-05T07:43:17Z</time>
      </trkpt>
      <trkpt lat="42.653337" lon="0.436229">
        <ele>3331.000000</ele>
        <time>2021-09-05T07:43:18Z</time>
      </trkpt>
      <trkpt lat="42.653327" lon="0.436233">
        <ele>3331.000000</ele>
        <time>2021-09-05T07:43:19Z</time>
      </trkpt>
      <trkpt lat="42.653318" lon="0.436233">
        <ele>3331.000000</ele>
        <time>2021-09-05T07:43:20Z</time>
      </trkpt>
      <trkpt lat="42.653310" lon="0.436234">
        <ele>3331.000000</ele>
        <time>2021-09-05T07:43:21Z</time>
      </trkpt>
      <trkpt lat="42.653303" lon="0.436236">
        <ele>3331.000000</ele>
        <time>2021-09-05T07:43:22Z</time>
      </trkpt>
      <trkpt lat="42.653300" lon="0.436236">
        <ele>3331.000000</ele>
        <time>2021-09-05T07:43:23Z</time>
      </trkpt>
      <trkpt lat="42.653297" lon="0.436236">
        <ele>3331.000000</ele>
        <time>2021-09-05T07:43:24Z</time>
      </trkpt>
      <trkpt lat="42.653293" lon="0.436237">
        <ele>3331.000000</ele>
        <time>2021-09-05T07:43:25Z</time>
      </trkpt>
      <trkpt lat="42.653288" lon="0.436237">
        <ele>3330.000000</ele>
        <time>2021-09-05T07:43:27Z</time>
      </trkpt>
      <trkpt lat="42.653285" lon="0.436238">
        <ele>3330.000000</ele>
        <time>2021-09-05T07:43:28Z</time>
      </trkpt>
      <trkpt lat="42.653282" lon="0.436237">
        <ele>3330.000000</ele>
        <time>2021-09-05T07:43:29Z</time>
      </trkpt>
      <trkpt lat="42.653275" lon="0.436230">
        <ele>3330.000000</ele>
        <time>2021-09-05T07:43:30Z</time>
      </trkpt>
      <trkpt lat="42.653268" lon="0.436227">
        <ele>3330.000000</ele>
        <time>2021-09-05T07:43:30Z</time>
      </trkpt>
      <trkpt lat="42.653263" lon="0.436225">
        <ele>3330.000000</ele>
        <time>2021-09-05T07:43:31Z</time>
      </trkpt>
      <trkpt lat="42.653258" lon="0.436220">
        <ele>3329.000000</ele>
        <time>2021-09-05T07:43:33Z</time>
      </trkpt>
      <trkpt lat="42.653253" lon="0.436219">
        <ele>3329.000000</ele>
        <time>2021-09-05T07:43:33Z</time>
      </trkpt>
      <trkpt lat="42.653252" lon="0.436218">
        <ele>3329.000000</ele>
        <time>2021-09-05T07:43:34Z</time>
      </trkpt>
      <trkpt lat="42.653247" lon="0.436215">
        <ele>3329.000000</ele>
        <time>2021-09-05T07:43:35Z</time>
      </trkpt>
      <trkpt lat="42.653245" lon="0.436214">
        <ele>3329.000000</ele>
        <time>2021-09-05T07:43:36Z</time>
      </trkpt>
      <trkpt lat="42.653238" lon="0.436211">
        <ele>3329.000000</ele>
        <time>2021-09-05T07:43:37Z</time>
      </trkpt>
      <trkpt lat="42.653232" lon="0.436208">
        <ele>3329.000000</ele>
        <time>2021-09-05T07:43:38Z</time>
      </trkpt>
      <trkpt lat="42.653225" lon="0.436206">
        <ele>3329.000000</ele>
        <time>2021-09-05T07:43:39Z</time>
      </trkpt>
      <trkpt lat="42.653218" lon="0.436204">
        <ele>3329.000000</ele>
        <time>2021-09-05T07:43:40Z</time>
      </trkpt>
      <trkpt lat="42.653213" lon="0.436204">
        <ele>3328.000000</ele>
        <time>2021-09-05T07:43:41Z</time>
      </trkpt>
      <trkpt lat="42.653207" lon="0.436202">
        <ele>3328.000000</ele>
        <time>2021-09-05T07:43:42Z</time>
      </trkpt>
      <trkpt lat="42.653200" lon="0.436201">
        <ele>3328.000000</ele>
        <time>2021-09-05T07:43:43Z</time>
      </trkpt>
      <trkpt lat="42.653190" lon="0.436199">
        <ele>3328.000000</ele>
        <time>2021-09-05T07:43:44Z</time>
      </trkpt>
      <trkpt lat="42.653183" lon="0.436198">
        <ele>3328.000000</ele>
        <time>2021-09-05T07:43:45Z</time>
      </trkpt>
      <trkpt lat="42.653177" lon="0.436197">
        <ele>3328.000000</ele>
        <time>2021-09-05T07:43:46Z</time>
      </trkpt>
      <trkpt lat="42.653172" lon="0.436196">
        <ele>3328.000000</ele>
        <time>2021-09-05T07:43:47Z</time>
      </trkpt>
      <trkpt lat="42.653167" lon="0.436195">
        <ele>3328.000000</ele>
        <time>2021-09-05T07:43:48Z</time>
      </trkpt>
      <trkpt lat="42.653160" lon="0.436193">
        <ele>3327.000000</ele>
        <time>2021-09-05T07:43:49Z</time>
      </trkpt>
      <trkpt lat="42.653153" lon="0.436190">
        <ele>3327.000000</ele>
        <time>2021-09-05T07:43:50Z</time>
      </trkpt>
      <trkpt lat="42.653150" lon="0.436187">
        <ele>3327.000000</ele>
        <time>2021-09-05T07:43:51Z</time>
      </trkpt>
      <trkpt lat="42.653147" lon="0.436186">
        <ele>3327.000000</ele>
        <time>2021-09-05T07:43:52Z</time>
      </trkpt>
      <trkpt lat="42.653145" lon="0.436186">
        <ele>3327.000000</ele>
        <time>2021-09-05T07:43:53Z</time>
      </trkpt>
      <trkpt lat="42.653142" lon="0.436187">
        <ele>3327.000000</ele>
        <time>2021-09-05T07:43:54Z</time>
      </trkpt>
      <trkpt lat="42.653137" lon="0.436190">
        <ele>3327.000000</ele>
        <time>2021-09-05T07:43:55Z</time>
      </trkpt>
      <trkpt lat="42.653130" lon="0.436197">
        <ele>3327.000000</ele>
        <time>2021-09-05T07:43:56Z</time>
      </trkpt>
      <trkpt lat="42.653125" lon="0.436202">
        <ele>3327.000000</ele>
        <time>2021-09-05T07:43:57Z</time>
      </trkpt>
      <trkpt lat="42.653120" lon="0.436208">
        <ele>3327.000000</ele>
        <time>2021-09-05T07:43:58Z</time>
      </trkpt>
      <trkpt lat="42.653115" lon="0.436213">
        <ele>3327.000000</ele>
        <time>2021-09-05T07:43:59Z</time>
      </trkpt>
      <trkpt lat="42.653112" lon="0.436218">
        <ele>3327.000000</ele>
        <time>2021-09-05T07:44:00Z</time>
      </trkpt>
      <trkpt lat="42.653108" lon="0.436221">
        <ele>3327.000000</ele>
        <time>2021-09-05T07:44:01Z</time>
      </trkpt>
      <trkpt lat="42.653103" lon="0.436223">
        <ele>3326.000000</ele>
        <time>2021-09-05T07:44:02Z</time>
      </trkpt>
      <trkpt lat="42.653102" lon="0.436225">
        <ele>3326.000000</ele>
        <time>2021-09-05T07:44:03Z</time>
      </trkpt>
      <trkpt lat="42.653100" lon="0.436226">
        <ele>3326.000000</ele>
        <time>2021-09-05T07:44:04Z</time>
      </trkpt>
      <trkpt lat="42.653098" lon="0.436228">
        <ele>3326.000000</ele>
        <time>2021-09-05T07:44:05Z</time>
      </trkpt>
      <trkpt lat="42.653097" lon="0.436232">
        <ele>3325.000000</ele>
        <time>2021-09-05T07:44:06Z</time>
      </trkpt>
      <trkpt lat="42.653092" lon="0.436238">
        <ele>3325.000000</ele>
        <time>2021-09-05T07:44:07Z</time>
      </trkpt>
      <trkpt lat="42.653085" lon="0.436243">
        <ele>3325.000000</ele>
        <time>2021-09-05T07:44:08Z</time>
      </trkpt>
      <trkpt lat="42.653080" lon="0.436244">
        <ele>3325.000000</ele>
        <time>2021-09-05T07:44:09Z</time>
      </trkpt>
      <trkpt lat="42.653075" lon="0.436245">
        <ele>3324.000000</ele>
        <time>2021-09-05T07:44:10Z</time>
      </trkpt>
      <trkpt lat="42.653070" lon="0.436247">
        <ele>3324.000000</ele>
        <time>2021-09-05T07:44:11Z</time>
      </trkpt>
      <trkpt lat="42.653068" lon="0.436248">
        <ele>3324.000000</ele>
        <time>2021-09-05T07:44:12Z</time>
      </trkpt>
      <trkpt lat="42.653065" lon="0.436250">
        <ele>3324.000000</ele>
        <time>2021-09-05T07:44:13Z</time>
      </trkpt>
      <trkpt lat="42.653062" lon="0.436252">
        <ele>3323.000000</ele>
        <time>2021-09-05T07:44:14Z</time>
      </trkpt>
      <trkpt lat="42.653057" lon="0.436255">
        <ele>3323.000000</ele>
        <time>2021-09-05T07:44:15Z</time>
      </trkpt>
      <trkpt lat="42.653050" lon="0.436257">
        <ele>3323.000000</ele>
        <time>2021-09-05T07:44:16Z</time>
      </trkpt>
      <trkpt lat="42.653042" lon="0.436260">
        <ele>3323.000000</ele>
        <time>2021-09-05T07:44:18Z</time>
      </trkpt>
      <trkpt lat="42.653033" lon="0.436248">
        <ele>3322.000000</ele>
        <time>2021-09-05T07:44:18Z</time>
      </trkpt>
      <trkpt lat="42.653027" lon="0.436245">
        <ele>3322.000000</ele>
        <time>2021-09-05T07:44:19Z</time>
      </trkpt>
      <trkpt lat="42.653020" lon="0.436238">
        <ele>3322.000000</ele>
        <time>2021-09-05T07:44:20Z</time>
      </trkpt>
      <trkpt lat="42.653012" lon="0.436232">
        <ele>3322.000000</ele>
        <time>2021-09-05T07:44:21Z</time>
      </trkpt>
      <trkpt lat="42.653005" lon="0.436227">
        <ele>3321.000000</ele>
        <time>2021-09-05T07:44:22Z</time>
      </trkpt>
      <trkpt lat="42.652997" lon="0.436223">
        <ele>3321.000000</ele>
        <time>2021-09-05T07:44:23Z</time>
      </trkpt>
      <trkpt lat="42.652987" lon="0.436228">
        <ele>3321.000000</ele>
        <time>2021-09-05T07:44:24Z</time>
      </trkpt>
      <trkpt lat="42.652973" lon="0.436236">
        <ele>3321.000000</ele>
        <time>2021-09-05T07:44:25Z</time>
      </trkpt>
      <trkpt lat="42.652960" lon="0.436239">
        <ele>3321.000000</ele>
        <time>2021-09-05T07:44:26Z</time>
      </trkpt>
      <trkpt lat="42.652945" lon="0.436239">
        <ele>3321.000000</ele>
        <time>2021-09-05T07:44:27Z</time>
      </trkpt>
      <trkpt lat="42.652932" lon="0.436239">
        <ele>3321.000000</ele>
        <time>2021-09-05T07:44:28Z</time>
      </trkpt>
      <trkpt lat="42.652922" lon="0.436237">
        <ele>3321.000000</ele>
        <time>2021-09-05T07:44:29Z</time>
      </trkpt>
      <trkpt lat="42.652917" lon="0.436236">
        <ele>3321.000000</ele>
        <time>2021-09-05T07:44:30Z</time>
      </trkpt>
      <trkpt lat="42.652910" lon="0.436236">
        <ele>3321.000000</ele>
        <time>2021-09-05T07:44:31Z</time>
      </trkpt>
      <trkpt lat="42.652905" lon="0.436235">
        <ele>3321.000000</ele>
        <time>2021-09-05T07:44:32Z</time>
      </trkpt>
      <trkpt lat="42.652895" lon="0.436234">
        <ele>3321.000000</ele>
        <time>2021-09-05T07:44:33Z</time>
      </trkpt>
      <trkpt lat="42.652890" lon="0.436233">
        <ele>3321.000000</ele>
        <time>2021-09-05T07:44:34Z</time>
      </trkpt>
      <trkpt lat="42.652883" lon="0.436223">
        <ele>3320.000000</ele>
        <time>2021-09-05T07:44:35Z</time>
      </trkpt>
      <trkpt lat="42.652875" lon="0.436218">
        <ele>3320.000000</ele>
        <time>2021-09-05T07:44:36Z</time>
      </trkpt>
      <trkpt lat="42.652868" lon="0.436215">
        <ele>3320.000000</ele>
        <time>2021-09-05T07:44:37Z</time>
      </trkpt>
      <trkpt lat="42.652858" lon="0.436211">
        <ele>3320.000000</ele>
        <time>2021-09-05T07:44:38Z</time>
      </trkpt>
      <trkpt lat="42.652852" lon="0.436210">
        <ele>3320.000000</ele>
        <time>2021-09-05T07:44:39Z</time>
      </trkpt>
      <trkpt lat="42.652843" lon="0.436209">
        <ele>3320.000000</ele>
        <time>2021-09-05T07:44:40Z</time>
      </trkpt>
      <trkpt lat="42.652833" lon="0.436207">
        <ele>3320.000000</ele>
        <time>2021-09-05T07:44:42Z</time>
      </trkpt>
      <trkpt lat="42.652827" lon="0.436206">
        <ele>3320.000000</ele>
        <time>2021-09-05T07:44:42Z</time>
      </trkpt>
      <trkpt lat="42.652818" lon="0.436206">
        <ele>3319.000000</ele>
        <time>2021-09-05T07:44:43Z</time>
      </trkpt>
      <trkpt lat="42.652813" lon="0.436206">
        <ele>3319.000000</ele>
        <time>2021-09-05T07:44:44Z</time>
      </trkpt>
      <trkpt lat="42.652805" lon="0.436207">
        <ele>3319.000000</ele>
        <time>2021-09-05T07:44:45Z</time>
      </trkpt>
      <trkpt lat="42.652800" lon="0.436206">
        <ele>3319.000000</ele>
        <time>2021-09-05T07:44:46Z</time>
      </trkpt>
      <trkpt lat="42.652793" lon="0.436205">
        <ele>3319.000000</ele>
        <time>2021-09-05T07:44:47Z</time>
      </trkpt>
      <trkpt lat="42.652785" lon="0.436204">
        <ele>3319.000000</ele>
        <time>2021-09-05T07:44:48Z</time>
      </trkpt>
      <trkpt lat="42.652778" lon="0.436205">
        <ele>3318.000000</ele>
        <time>2021-09-05T07:44:49Z</time>
      </trkpt>
      <trkpt lat="42.652773" lon="0.436206">
        <ele>3318.000000</ele>
        <time>2021-09-05T07:44:50Z</time>
      </trkpt>
      <trkpt lat="42.652770" lon="0.436217">
        <ele>3318.000000</ele>
        <time>2021-09-05T07:44:51Z</time>
      </trkpt>
      <trkpt lat="42.652772" lon="0.436209">
        <ele>3318.000000</ele>
        <time>2021-09-05T07:44:52Z</time>
      </trkpt>
      <trkpt lat="42.652768" lon="0.436209">
        <ele>3318.000000</ele>
        <time>2021-09-05T07:44:57Z</time>
      </trkpt>
      <trkpt lat="42.652768" lon="0.436208">
        <ele>3318.000000</ele>
        <time>2021-09-05T07:44:59Z</time>
      </trkpt>
      <trkpt lat="42.652770" lon="0.436210">
        <ele>3318.000000</ele>
        <time>2021-09-05T07:45:00Z</time>
      </trkpt>
      <trkpt lat="42.652772" lon="0.436208">
        <ele>3318.000000</ele>
        <time>2021-09-05T07:45:40Z</time>
      </trkpt>
      <trkpt lat="42.652645" lon="0.436247">
        <ele>3315.000000</ele>
        <time>2021-09-05T07:45:59Z</time>
      </trkpt>
      <trkpt lat="42.652640" lon="0.436255">
        <ele>3315.000000</ele>
        <time>2021-09-05T07:46:00Z</time>
      </trkpt>
      <trkpt lat="42.652637" lon="0.436262">
        <ele>3315.000000</ele>
        <time>2021-09-05T07:46:01Z</time>
      </trkpt>
      <trkpt lat="42.652630" lon="0.436271">
        <ele>3314.000000</ele>
        <time>2021-09-05T07:46:02Z</time>
      </trkpt>
      <trkpt lat="42.652625" lon="0.436277">
        <ele>3314.000000</ele>
        <time>2021-09-05T07:46:03Z</time>
      </trkpt>
      <trkpt lat="42.652622" lon="0.436278">
        <ele>3314.000000</ele>
        <time>2021-09-05T07:46:04Z</time>
      </trkpt>
      <trkpt lat="42.652618" lon="0.436280">
        <ele>3314.000000</ele>
        <time>2021-09-05T07:46:05Z</time>
      </trkpt>
      <trkpt lat="42.652615" lon="0.436283">
        <ele>3314.000000</ele>
        <time>2021-09-05T07:46:06Z</time>
      </trkpt>
      <trkpt lat="42.652613" lon="0.436285">
        <ele>3313.000000</ele>
        <time>2021-09-05T07:46:07Z</time>
      </trkpt>
      <trkpt lat="42.652610" lon="0.436287">
        <ele>3313.000000</ele>
        <time>2021-09-05T07:46:08Z</time>
      </trkpt>
      <trkpt lat="42.652608" lon="0.436288">
        <ele>3313.000000</ele>
        <time>2021-09-05T07:46:10Z</time>
      </trkpt>
      <trkpt lat="42.652600" lon="0.436293">
        <ele>3312.000000</ele>
        <time>2021-09-05T07:46:12Z</time>
      </trkpt>
      <trkpt lat="42.652593" lon="0.436295">
        <ele>3312.000000</ele>
        <time>2021-09-05T07:46:13Z</time>
      </trkpt>
      <trkpt lat="42.652588" lon="0.436282">
        <ele>3312.000000</ele>
        <time>2021-09-05T07:46:14Z</time>
      </trkpt>
      <trkpt lat="42.652582" lon="0.436278">
        <ele>3311.000000</ele>
        <time>2021-09-05T07:46:15Z</time>
      </trkpt>
      <trkpt lat="42.652577" lon="0.436283">
        <ele>3311.000000</ele>
        <time>2021-09-05T07:46:16Z</time>
      </trkpt>
      <trkpt lat="42.652572" lon="0.436278">
        <ele>3311.000000</ele>
        <time>2021-09-05T07:46:17Z</time>
      </trkpt>
      <trkpt lat="42.652568" lon="0.436272">
        <ele>3311.000000</ele>
        <time>2021-09-05T07:46:18Z</time>
      </trkpt>
      <trkpt lat="42.652565" lon="0.436270">
        <ele>3310.000000</ele>
        <time>2021-09-05T07:46:19Z</time>
      </trkpt>
      <trkpt lat="42.652562" lon="0.436263">
        <ele>3310.000000</ele>
        <time>2021-09-05T07:46:20Z</time>
      </trkpt>
      <trkpt lat="42.652558" lon="0.436257">
        <ele>3310.000000</ele>
        <time>2021-09-05T07:46:21Z</time>
      </trkpt>
      <trkpt lat="42.652558" lon="0.436247">
        <ele>3310.000000</ele>
        <time>2021-09-05T07:46:22Z</time>
      </trkpt>
      <trkpt lat="42.652557" lon="0.436240">
        <ele>3310.000000</ele>
        <time>2021-09-05T07:46:23Z</time>
      </trkpt>
      <trkpt lat="42.652558" lon="0.436238">
        <ele>3309.000000</ele>
        <time>2021-09-05T07:46:24Z</time>
      </trkpt>
      <trkpt lat="42.652556" lon="0.436238">
        <ele>3309.000000</ele>
        <time>2021-09-05T07:46:25Z</time>
      </trkpt>
      <trkpt lat="42.652548" lon="0.436237">
        <ele>3309.000000</ele>
        <time>2021-09-05T07:46:26Z</time>
      </trkpt>
      <trkpt lat="42.652545" lon="0.436240">
        <ele>3309.000000</ele>
        <time>2021-09-05T07:46:27Z</time>
      </trkpt>
      <trkpt lat="42.652538" lon="0.436243">
        <ele>3309.000000</ele>
        <time>2021-09-05T07:46:28Z</time>
      </trkpt>
      <trkpt lat="42.652533" lon="0.436243">
        <ele>3309.000000</ele>
        <time>2021-09-05T07:46:29Z</time>
      </trkpt>
      <trkpt lat="42.652528" lon="0.436243">
        <ele>3309.000000</ele>
        <time>2021-09-05T07:46:30Z</time>
      </trkpt>
      <trkpt lat="42.652530" lon="0.436243">
        <ele>3308.000000</ele>
        <time>2021-09-05T07:46:31Z</time>
      </trkpt>
      <trkpt lat="42.652527" lon="0.436242">
        <ele>3308.000000</ele>
        <time>2021-09-05T07:46:32Z</time>
      </trkpt>
      <trkpt lat="42.652523" lon="0.436238">
        <ele>3308.000000</ele>
        <time>2021-09-05T07:46:33Z</time>
      </trkpt>
      <trkpt lat="42.652520" lon="0.436235">
        <ele>3308.000000</ele>
        <time>2021-09-05T07:46:34Z</time>
      </trkpt>
      <trkpt lat="42.652517" lon="0.436227">
        <ele>3308.000000</ele>
        <time>2021-09-05T07:46:35Z</time>
      </trkpt>
      <trkpt lat="42.652515" lon="0.436220">
        <ele>3308.000000</ele>
        <time>2021-09-05T07:46:37Z</time>
      </trkpt>
      <trkpt lat="42.652512" lon="0.436215">
        <ele>3308.000000</ele>
        <time>2021-09-05T07:46:37Z</time>
      </trkpt>
      <trkpt lat="42.652510" lon="0.436208">
        <ele>3308.000000</ele>
        <time>2021-09-05T07:46:38Z</time>
      </trkpt>
      <trkpt lat="42.652508" lon="0.436207">
        <ele>3308.000000</ele>
        <time>2021-09-05T07:46:39Z</time>
      </trkpt>
      <trkpt lat="42.652503" lon="0.436198">
        <ele>3308.000000</ele>
        <time>2021-09-05T07:46:42Z</time>
      </trkpt>
      <trkpt lat="42.652501" lon="0.436195">
        <ele>3307.000000</ele>
        <time>2021-09-05T07:46:43Z</time>
      </trkpt>
      <trkpt lat="42.652501" lon="0.436192">
        <ele>3307.000000</ele>
        <time>2021-09-05T07:46:44Z</time>
      </trkpt>
      <trkpt lat="42.652499" lon="0.436190">
        <ele>3307.000000</ele>
        <time>2021-09-05T07:46:45Z</time>
      </trkpt>
      <trkpt lat="42.652493" lon="0.436190">
        <ele>3307.000000</ele>
        <time>2021-09-05T07:46:46Z</time>
      </trkpt>
      <trkpt lat="42.652487" lon="0.436193">
        <ele>3307.000000</ele>
        <time>2021-09-05T07:46:47Z</time>
      </trkpt>
      <trkpt lat="42.652478" lon="0.436202">
        <ele>3307.000000</ele>
        <time>2021-09-05T07:46:48Z</time>
      </trkpt>
      <trkpt lat="42.652472" lon="0.436208">
        <ele>3307.000000</ele>
        <time>2021-09-05T07:46:49Z</time>
      </trkpt>
      <trkpt lat="42.652463" lon="0.436213">
        <ele>3307.000000</ele>
        <time>2021-09-05T07:46:50Z</time>
      </trkpt>
      <trkpt lat="42.652455" lon="0.436218">
        <ele>3306.000000</ele>
        <time>2021-09-05T07:46:51Z</time>
      </trkpt>
      <trkpt lat="42.652447" lon="0.436222">
        <ele>3306.000000</ele>
        <time>2021-09-05T07:46:52Z</time>
      </trkpt>
      <trkpt lat="42.652437" lon="0.436226">
        <ele>3306.000000</ele>
        <time>2021-09-05T07:46:53Z</time>
      </trkpt>
      <trkpt lat="42.652430" lon="0.436229">
        <ele>3306.000000</ele>
        <time>2021-09-05T07:46:54Z</time>
      </trkpt>
      <trkpt lat="42.652418" lon="0.436232">
        <ele>3306.000000</ele>
        <time>2021-09-05T07:46:55Z</time>
      </trkpt>
      <trkpt lat="42.652413" lon="0.436234">
        <ele>3306.000000</ele>
        <time>2021-09-05T07:46:57Z</time>
      </trkpt>
      <trkpt lat="42.652410" lon="0.436235">
        <ele>3306.000000</ele>
        <time>2021-09-05T07:46:57Z</time>
      </trkpt>
      <trkpt lat="42.652405" lon="0.436238">
        <ele>3306.000000</ele>
        <time>2021-09-05T07:46:58Z</time>
      </trkpt>
      <trkpt lat="42.652403" lon="0.436238">
        <ele>3306.000000</ele>
        <time>2021-09-05T07:46:59Z</time>
      </trkpt>
      <trkpt lat="42.652402" lon="0.436237">
        <ele>3306.000000</ele>
        <time>2021-09-05T07:47:00Z</time>
      </trkpt>
      <trkpt lat="42.652403" lon="0.436234">
        <ele>3306.000000</ele>
        <time>2021-09-05T07:47:01Z</time>
      </trkpt>
      <trkpt lat="42.652403" lon="0.436232">
        <ele>3306.000000</ele>
        <time>2021-09-05T07:47:03Z</time>
      </trkpt>
      <trkpt lat="42.652405" lon="0.436229">
        <ele>3306.000000</ele>
        <time>2021-09-05T07:47:04Z</time>
      </trkpt>
      <trkpt lat="42.652407" lon="0.436203">
        <ele>3306.000000</ele>
        <time>2021-09-05T07:47:05Z</time>
      </trkpt>
      <trkpt lat="42.652410" lon="0.436195">
        <ele>3306.000000</ele>
        <time>2021-09-05T07:47:06Z</time>
      </trkpt>
      <trkpt lat="42.652413" lon="0.436187">
        <ele>3306.000000</ele>
        <time>2021-09-05T07:47:07Z</time>
      </trkpt>
      <trkpt lat="42.652414" lon="0.436182">
        <ele>3306.000000</ele>
        <time>2021-09-05T07:47:08Z</time>
      </trkpt>
      <trkpt lat="42.652414" lon="0.436178">
        <ele>3306.000000</ele>
        <time>2021-09-05T07:47:09Z</time>
      </trkpt>
      <trkpt lat="42.652412" lon="0.436177">
        <ele>3306.000000</ele>
        <time>2021-09-05T07:47:10Z</time>
      </trkpt>
      <trkpt lat="42.652402" lon="0.436173">
        <ele>3306.000000</ele>
        <time>2021-09-05T07:47:12Z</time>
      </trkpt>
      <trkpt lat="42.652398" lon="0.436170">
        <ele>3306.000000</ele>
        <time>2021-09-05T07:47:13Z</time>
      </trkpt>
      <trkpt lat="42.652398" lon="0.436167">
        <ele>3306.000000</ele>
        <time>2021-09-05T07:47:14Z</time>
      </trkpt>
      <trkpt lat="42.652400" lon="0.436158">
        <ele>3306.000000</ele>
        <time>2021-09-05T07:47:15Z</time>
      </trkpt>
      <trkpt lat="42.652400" lon="0.436153">
        <ele>3306.000000</ele>
        <time>2021-09-05T07:47:16Z</time>
      </trkpt>
      <trkpt lat="42.652400" lon="0.436143">
        <ele>3306.000000</ele>
        <time>2021-09-05T07:47:17Z</time>
      </trkpt>
      <trkpt lat="42.652400" lon="0.436135">
        <ele>3305.000000</ele>
        <time>2021-09-05T07:47:18Z</time>
      </trkpt>
      <trkpt lat="42.652399" lon="0.436132">
        <ele>3305.000000</ele>
        <time>2021-09-05T07:47:19Z</time>
      </trkpt>
      <trkpt lat="42.652397" lon="0.436133">
        <ele>3305.000000</ele>
        <time>2021-09-05T07:47:20Z</time>
      </trkpt>
      <trkpt lat="42.652385" lon="0.436138">
        <ele>3305.000000</ele>
        <time>2021-09-05T07:47:22Z</time>
      </trkpt>
      <trkpt lat="42.652377" lon="0.436140">
        <ele>3304.000000</ele>
        <time>2021-09-05T07:47:22Z</time>
      </trkpt>
      <trkpt lat="42.652367" lon="0.436143">
        <ele>3304.000000</ele>
        <time>2021-09-05T07:47:23Z</time>
      </trkpt>
      <trkpt lat="42.652358" lon="0.436143">
        <ele>3304.000000</ele>
        <time>2021-09-05T07:47:24Z</time>
      </trkpt>
      <trkpt lat="42.652348" lon="0.436140">
        <ele>3303.000000</ele>
        <time>2021-09-05T07:47:25Z</time>
      </trkpt>
      <trkpt lat="42.652343" lon="0.436138">
        <ele>3303.000000</ele>
        <time>2021-09-05T07:47:26Z</time>
      </trkpt>
      <trkpt lat="42.652340" lon="0.436138">
        <ele>3303.000000</ele>
        <time>2021-09-05T07:47:27Z</time>
      </trkpt>
      <trkpt lat="42.652337" lon="0.436138">
        <ele>3302.000000</ele>
        <time>2021-09-05T07:47:28Z</time>
      </trkpt>
      <trkpt lat="42.652330" lon="0.436139">
        <ele>3302.000000</ele>
        <time>2021-09-05T07:47:29Z</time>
      </trkpt>
      <trkpt lat="42.652322" lon="0.436139">
        <ele>3302.000000</ele>
        <time>2021-09-05T07:47:30Z</time>
      </trkpt>
      <trkpt lat="42.652312" lon="0.436141">
        <ele>3302.000000</ele>
        <time>2021-09-05T07:47:31Z</time>
      </trkpt>
      <trkpt lat="42.652305" lon="0.436148">
        <ele>3301.000000</ele>
        <time>2021-09-05T07:47:32Z</time>
      </trkpt>
      <trkpt lat="42.652300" lon="0.436152">
        <ele>3301.000000</ele>
        <time>2021-09-05T07:47:33Z</time>
      </trkpt>
      <trkpt lat="42.652290" lon="0.436157">
        <ele>3301.000000</ele>
        <time>2021-09-05T07:47:34Z</time>
      </trkpt>
      <trkpt lat="42.652282" lon="0.436161">
        <ele>3300.000000</ele>
        <time>2021-09-05T07:47:35Z</time>
      </trkpt>
      <trkpt lat="42.652272" lon="0.436165">
        <ele>3300.000000</ele>
        <time>2021-09-05T07:47:36Z</time>
      </trkpt>
      <trkpt lat="42.652265" lon="0.436165">
        <ele>3300.000000</ele>
        <time>2021-09-05T07:47:37Z</time>
      </trkpt>
      <trkpt lat="42.652258" lon="0.436165">
        <ele>3300.000000</ele>
        <time>2021-09-05T07:47:38Z</time>
      </trkpt>
      <trkpt lat="42.652247" lon="0.436170">
        <ele>3299.000000</ele>
        <time>2021-09-05T07:47:39Z</time>
      </trkpt>
      <trkpt lat="42.652235" lon="0.436174">
        <ele>3299.000000</ele>
        <time>2021-09-05T07:47:40Z</time>
      </trkpt>
      <trkpt lat="42.652228" lon="0.436174">
        <ele>3299.000000</ele>
        <time>2021-09-05T07:47:41Z</time>
      </trkpt>
      <trkpt lat="42.652217" lon="0.436176">
        <ele>3299.000000</ele>
        <time>2021-09-05T07:47:42Z</time>
      </trkpt>
      <trkpt lat="42.652207" lon="0.436176">
        <ele>3299.000000</ele>
        <time>2021-09-05T07:47:43Z</time>
      </trkpt>
      <trkpt lat="42.652198" lon="0.436176">
        <ele>3299.000000</ele>
        <time>2021-09-05T07:47:44Z</time>
      </trkpt>
      <trkpt lat="42.652190" lon="0.436177">
        <ele>3298.000000</ele>
        <time>2021-09-05T07:47:44Z</time>
      </trkpt>
      <trkpt lat="42.652182" lon="0.436179">
        <ele>3298.000000</ele>
        <time>2021-09-05T07:47:44Z</time>
      </trkpt>
      <trkpt lat="42.652172" lon="0.436183">
        <ele>3298.000000</ele>
        <time>2021-09-05T07:47:45Z</time>
      </trkpt>
      <trkpt lat="42.652165" lon="0.436195">
        <ele>3297.000000</ele>
        <time>2021-09-05T07:47:46Z</time>
      </trkpt>
      <trkpt lat="42.652157" lon="0.436200">
        <ele>3297.000000</ele>
        <time>2021-09-05T07:47:47Z</time>
      </trkpt>
      <trkpt lat="42.652150" lon="0.436203">
        <ele>3297.000000</ele>
        <time>2021-09-05T07:47:48Z</time>
      </trkpt>
      <trkpt lat="42.652140" lon="0.436207">
        <ele>3296.000000</ele>
        <time>2021-09-05T07:47:49Z</time>
      </trkpt>
      <trkpt lat="42.652135" lon="0.436207">
        <ele>3296.000000</ele>
        <time>2021-09-05T07:47:50Z</time>
      </trkpt>
      <trkpt lat="42.652130" lon="0.436210">
        <ele>3296.000000</ele>
        <time>2021-09-05T07:47:52Z</time>
      </trkpt>
      <trkpt lat="42.652125" lon="0.436212">
        <ele>3296.000000</ele>
        <time>2021-09-05T07:47:53Z</time>
      </trkpt>
      <trkpt lat="42.652122" lon="0.436213">
        <ele>3295.000000</ele>
        <time>2021-09-05T07:47:54Z</time>
      </trkpt>
      <trkpt lat="42.652117" lon="0.436213">
        <ele>3295.000000</ele>
        <time>2021-09-05T07:47:55Z</time>
      </trkpt>
      <trkpt lat="42.652110" lon="0.436212">
        <ele>3295.000000</ele>
        <time>2021-09-05T07:47:56Z</time>
      </trkpt>
      <trkpt lat="42.652107" lon="0.436203">
        <ele>3295.000000</ele>
        <time>2021-09-05T07:47:57Z</time>
      </trkpt>
      <trkpt lat="42.652103" lon="0.436202">
        <ele>3295.000000</ele>
        <time>2021-09-05T07:47:58Z</time>
      </trkpt>
      <trkpt lat="42.652100" lon="0.436195">
        <ele>3294.000000</ele>
        <time>2021-09-05T07:47:59Z</time>
      </trkpt>
      <trkpt lat="42.652097" lon="0.436193">
        <ele>3294.000000</ele>
        <time>2021-09-05T07:48:00Z</time>
      </trkpt>
      <trkpt lat="42.652093" lon="0.436195">
        <ele>3294.000000</ele>
        <time>2021-09-05T07:48:01Z</time>
      </trkpt>
      <trkpt lat="42.652090" lon="0.436197">
        <ele>3294.000000</ele>
        <time>2021-09-05T07:48:02Z</time>
      </trkpt>
      <trkpt lat="42.652085" lon="0.436198">
        <ele>3294.000000</ele>
        <time>2021-09-05T07:48:03Z</time>
      </trkpt>
      <trkpt lat="42.652078" lon="0.436200">
        <ele>3293.000000</ele>
        <time>2021-09-05T07:48:05Z</time>
      </trkpt>
      <trkpt lat="42.652077" lon="0.436201">
        <ele>3293.000000</ele>
        <time>2021-09-05T07:48:05Z</time>
      </trkpt>
      <trkpt lat="42.652073" lon="0.436199">
        <ele>3293.000000</ele>
        <time>2021-09-05T07:48:06Z</time>
      </trkpt>
      <trkpt lat="42.652070" lon="0.436196">
        <ele>3293.000000</ele>
        <time>2021-09-05T07:48:07Z</time>
      </trkpt>
      <trkpt lat="42.652068" lon="0.436190">
        <ele>3293.000000</ele>
        <time>2021-09-05T07:48:08Z</time>
      </trkpt>
      <trkpt lat="42.652063" lon="0.436185">
        <ele>3293.000000</ele>
        <time>2021-09-05T07:48:09Z</time>
      </trkpt>
      <trkpt lat="42.652062" lon="0.436182">
        <ele>3293.000000</ele>
        <time>2021-09-05T07:48:10Z</time>
      </trkpt>
      <trkpt lat="42.652060" lon="0.436177">
        <ele>3293.000000</ele>
        <time>2021-09-05T07:48:11Z</time>
      </trkpt>
      <trkpt lat="42.652057" lon="0.436172">
        <ele>3293.000000</ele>
        <time>2021-09-05T07:48:12Z</time>
      </trkpt>
      <trkpt lat="42.652055" lon="0.436168">
        <ele>3293.000000</ele>
        <time>2021-09-05T07:48:13Z</time>
      </trkpt>
      <trkpt lat="42.652053" lon="0.436165">
        <ele>3292.000000</ele>
        <time>2021-09-05T07:48:14Z</time>
      </trkpt>
      <trkpt lat="42.652053" lon="0.436160">
        <ele>3292.000000</ele>
        <time>2021-09-05T07:48:15Z</time>
      </trkpt>
      <trkpt lat="42.652051" lon="0.436158">
        <ele>3292.000000</ele>
        <time>2021-09-05T07:48:16Z</time>
      </trkpt>
      <trkpt lat="42.652050" lon="0.436155">
        <ele>3292.000000</ele>
        <time>2021-09-05T07:48:17Z</time>
      </trkpt>
      <trkpt lat="42.652048" lon="0.436153">
        <ele>3292.000000</ele>
        <time>2021-09-05T07:48:18Z</time>
      </trkpt>
      <trkpt lat="42.652040" lon="0.436152">
        <ele>3291.000000</ele>
        <time>2021-09-05T07:48:19Z</time>
      </trkpt>
      <trkpt lat="42.652037" lon="0.436148">
        <ele>3291.000000</ele>
        <time>2021-09-05T07:48:20Z</time>
      </trkpt>
      <trkpt lat="42.652033" lon="0.436140">
        <ele>3291.000000</ele>
        <time>2021-09-05T07:48:21Z</time>
      </trkpt>
      <trkpt lat="42.652031" lon="0.436132">
        <ele>3291.000000</ele>
        <time>2021-09-05T07:48:22Z</time>
      </trkpt>
      <trkpt lat="42.652029" lon="0.436123">
        <ele>3290.000000</ele>
        <time>2021-09-05T07:48:23Z</time>
      </trkpt>
      <trkpt lat="42.652022" lon="0.436118">
        <ele>3290.000000</ele>
        <time>2021-09-05T07:48:24Z</time>
      </trkpt>
      <trkpt lat="42.652017" lon="0.436118">
        <ele>3290.000000</ele>
        <time>2021-09-05T07:48:25Z</time>
      </trkpt>
      <trkpt lat="42.652012" lon="0.436122">
        <ele>3289.000000</ele>
        <time>2021-09-05T07:48:26Z</time>
      </trkpt>
      <trkpt lat="42.652007" lon="0.436123">
        <ele>3289.000000</ele>
        <time>2021-09-05T07:48:27Z</time>
      </trkpt>
      <trkpt lat="42.652002" lon="0.436128">
        <ele>3289.000000</ele>
        <time>2021-09-05T07:48:29Z</time>
      </trkpt>
      <trkpt lat="42.651998" lon="0.436125">
        <ele>3288.000000</ele>
        <time>2021-09-05T07:48:29Z</time>
      </trkpt>
      <trkpt lat="42.651993" lon="0.436124">
        <ele>3288.000000</ele>
        <time>2021-09-05T07:48:30Z</time>
      </trkpt>
      <trkpt lat="42.651990" lon="0.436123">
        <ele>3288.000000</ele>
        <time>2021-09-05T07:48:31Z</time>
      </trkpt>
      <trkpt lat="42.651985" lon="0.436123">
        <ele>3288.000000</ele>
        <time>2021-09-05T07:48:32Z</time>
      </trkpt>
      <trkpt lat="42.651983" lon="0.436120">
        <ele>3287.000000</ele>
        <time>2021-09-05T07:48:33Z</time>
      </trkpt>
      <trkpt lat="42.651978" lon="0.436120">
        <ele>3287.000000</ele>
        <time>2021-09-05T07:48:34Z</time>
      </trkpt>
      <trkpt lat="42.651975" lon="0.436122">
        <ele>3287.000000</ele>
        <time>2021-09-05T07:48:35Z</time>
      </trkpt>
      <trkpt lat="42.651972" lon="0.436118">
        <ele>3287.000000</ele>
        <time>2021-09-05T07:48:36Z</time>
      </trkpt>
      <trkpt lat="42.651970" lon="0.436114">
        <ele>3287.000000</ele>
        <time>2021-09-05T07:48:37Z</time>
      </trkpt>
      <trkpt lat="42.651967" lon="0.436111">
        <ele>3286.000000</ele>
        <time>2021-09-05T07:48:38Z</time>
      </trkpt>
      <trkpt lat="42.651963" lon="0.436107">
        <ele>3286.000000</ele>
        <time>2021-09-05T07:48:40Z</time>
      </trkpt>
      <trkpt lat="42.651960" lon="0.436102">
        <ele>3286.000000</ele>
        <time>2021-09-05T07:48:41Z</time>
      </trkpt>
      <trkpt lat="42.651957" lon="0.436093">
        <ele>3286.000000</ele>
        <time>2021-09-05T07:48:43Z</time>
      </trkpt>
      <trkpt lat="42.651955" lon="0.436088">
        <ele>3286.000000</ele>
        <time>2021-09-05T07:48:44Z</time>
      </trkpt>
      <trkpt lat="42.651953" lon="0.436083">
        <ele>3286.000000</ele>
        <time>2021-09-05T07:48:45Z</time>
      </trkpt>
      <trkpt lat="42.651951" lon="0.436077">
        <ele>3286.000000</ele>
        <time>2021-09-05T07:48:46Z</time>
      </trkpt>
      <trkpt lat="42.651948" lon="0.436070">
        <ele>3285.000000</ele>
        <time>2021-09-05T07:48:47Z</time>
      </trkpt>
      <trkpt lat="42.651946" lon="0.436067">
        <ele>3285.000000</ele>
        <time>2021-09-05T07:48:48Z</time>
      </trkpt>
      <trkpt lat="42.651943" lon="0.436062">
        <ele>3285.000000</ele>
        <time>2021-09-05T07:48:49Z</time>
      </trkpt>
      <trkpt lat="42.651940" lon="0.436055">
        <ele>3285.000000</ele>
        <time>2021-09-05T07:48:50Z</time>
      </trkpt>
      <trkpt lat="42.651938" lon="0.436052">
        <ele>3284.000000</ele>
        <time>2021-09-05T07:48:51Z</time>
      </trkpt>
      <trkpt lat="42.651936" lon="0.436043">
        <ele>3284.000000</ele>
        <time>2021-09-05T07:48:52Z</time>
      </trkpt>
      <trkpt lat="42.651934" lon="0.436037">
        <ele>3284.000000</ele>
        <time>2021-09-05T07:48:54Z</time>
      </trkpt>
      <trkpt lat="42.651933" lon="0.436033">
        <ele>3283.000000</ele>
        <time>2021-09-05T07:48:54Z</time>
      </trkpt>
      <trkpt lat="42.651930" lon="0.436025">
        <ele>3283.000000</ele>
        <time>2021-09-05T07:48:55Z</time>
      </trkpt>
      <trkpt lat="42.651928" lon="0.436022">
        <ele>3283.000000</ele>
        <time>2021-09-05T07:48:56Z</time>
      </trkpt>
      <trkpt lat="42.651927" lon="0.436018">
        <ele>3282.000000</ele>
        <time>2021-09-05T07:48:57Z</time>
      </trkpt>
      <trkpt lat="42.651922" lon="0.436020">
        <ele>3282.000000</ele>
        <time>2021-09-05T07:48:58Z</time>
      </trkpt>
      <trkpt lat="42.651917" lon="0.436020">
        <ele>3282.000000</ele>
        <time>2021-09-05T07:48:59Z</time>
      </trkpt>
      <trkpt lat="42.651912" lon="0.436020">
        <ele>3282.000000</ele>
        <time>2021-09-05T07:49:00Z</time>
      </trkpt>
      <trkpt lat="42.651905" lon="0.436022">
        <ele>3281.000000</ele>
        <time>2021-09-05T07:49:02Z</time>
      </trkpt>
      <trkpt lat="42.651902" lon="0.436022">
        <ele>3281.000000</ele>
        <time>2021-09-05T07:49:03Z</time>
      </trkpt>
      <trkpt lat="42.651897" lon="0.436024">
        <ele>3281.000000</ele>
        <time>2021-09-05T07:49:04Z</time>
      </trkpt>
      <trkpt lat="42.651890" lon="0.436028">
        <ele>3280.000000</ele>
        <time>2021-09-05T07:49:05Z</time>
      </trkpt>
      <trkpt lat="42.651882" lon="0.436031">
        <ele>3280.000000</ele>
        <time>2021-09-05T07:49:06Z</time>
      </trkpt>
      <trkpt lat="42.651878" lon="0.436029">
        <ele>3280.000000</ele>
        <time>2021-09-05T07:49:07Z</time>
      </trkpt>
      <trkpt lat="42.651875" lon="0.436029">
        <ele>3280.000000</ele>
        <time>2021-09-05T07:49:08Z</time>
      </trkpt>
      <trkpt lat="42.651870" lon="0.436023">
        <ele>3280.000000</ele>
        <time>2021-09-05T07:49:10Z</time>
      </trkpt>
      <trkpt lat="42.651865" lon="0.436025">
        <ele>3280.000000</ele>
        <time>2021-09-05T07:49:11Z</time>
      </trkpt>
      <trkpt lat="42.651862" lon="0.436025">
        <ele>3280.000000</ele>
        <time>2021-09-05T07:49:12Z</time>
      </trkpt>
      <trkpt lat="42.651857" lon="0.436025">
        <ele>3280.000000</ele>
        <time>2021-09-05T07:49:14Z</time>
      </trkpt>
      <trkpt lat="42.651853" lon="0.436028">
        <ele>3280.000000</ele>
        <time>2021-09-05T07:49:14Z</time>
      </trkpt>
      <trkpt lat="42.651848" lon="0.436031">
        <ele>3279.000000</ele>
        <time>2021-09-05T07:49:15Z</time>
      </trkpt>
      <trkpt lat="42.651840" lon="0.436033">
        <ele>3279.000000</ele>
        <time>2021-09-05T07:49:16Z</time>
      </trkpt>
      <trkpt lat="42.651835" lon="0.436032">
        <ele>3279.000000</ele>
        <time>2021-09-05T07:49:17Z</time>
      </trkpt>
      <trkpt lat="42.651828" lon="0.436032">
        <ele>3279.000000</ele>
        <time>2021-09-05T07:49:18Z</time>
      </trkpt>
      <trkpt lat="42.651825" lon="0.436032">
        <ele>3279.000000</ele>
        <time>2021-09-05T07:49:19Z</time>
      </trkpt>
      <trkpt lat="42.651823" lon="0.436033">
        <ele>3278.000000</ele>
        <time>2021-09-05T07:49:20Z</time>
      </trkpt>
      <trkpt lat="42.651817" lon="0.436042">
        <ele>3278.000000</ele>
        <time>2021-09-05T07:49:21Z</time>
      </trkpt>
      <trkpt lat="42.651808" lon="0.436046">
        <ele>3278.000000</ele>
        <time>2021-09-05T07:49:22Z</time>
      </trkpt>
      <trkpt lat="42.651802" lon="0.436051">
        <ele>3278.000000</ele>
        <time>2021-09-05T07:49:23Z</time>
      </trkpt>
      <trkpt lat="42.651798" lon="0.436055">
        <ele>3278.000000</ele>
        <time>2021-09-05T07:49:24Z</time>
      </trkpt>
      <trkpt lat="42.651795" lon="0.436059">
        <ele>3278.000000</ele>
        <time>2021-09-05T07:49:25Z</time>
      </trkpt>
      <trkpt lat="42.651790" lon="0.436065">
        <ele>3278.000000</ele>
        <time>2021-09-05T07:49:26Z</time>
      </trkpt>
      <trkpt lat="42.651783" lon="0.436072">
        <ele>3277.000000</ele>
        <time>2021-09-05T07:49:27Z</time>
      </trkpt>
      <trkpt lat="42.651775" lon="0.436085">
        <ele>3277.000000</ele>
        <time>2021-09-05T07:49:28Z</time>
      </trkpt>
      <trkpt lat="42.651765" lon="0.436096">
        <ele>3277.000000</ele>
        <time>2021-09-05T07:49:29Z</time>
      </trkpt>
      <trkpt lat="42.651758" lon="0.436101">
        <ele>3277.000000</ele>
        <time>2021-09-05T07:49:30Z</time>
      </trkpt>
      <trkpt lat="42.651750" lon="0.436100">
        <ele>3276.000000</ele>
        <time>2021-09-05T07:49:31Z</time>
      </trkpt>
      <trkpt lat="42.651745" lon="0.436098">
        <ele>3276.000000</ele>
        <time>2021-09-05T07:49:32Z</time>
      </trkpt>
      <trkpt lat="42.651743" lon="0.436088">
        <ele>3276.000000</ele>
        <time>2021-09-05T07:49:33Z</time>
      </trkpt>
      <trkpt lat="42.651742" lon="0.436082">
        <ele>3275.000000</ele>
        <time>2021-09-05T07:49:34Z</time>
      </trkpt>
      <trkpt lat="42.651740" lon="0.436075">
        <ele>3275.000000</ele>
        <time>2021-09-05T07:49:35Z</time>
      </trkpt>
      <trkpt lat="42.651733" lon="0.436072">
        <ele>3275.000000</ele>
        <time>2021-09-05T07:49:36Z</time>
      </trkpt>
      <trkpt lat="42.651732" lon="0.436063">
        <ele>3274.000000</ele>
        <time>2021-09-05T07:49:37Z</time>
      </trkpt>
      <trkpt lat="42.651727" lon="0.436057">
        <ele>3274.000000</ele>
        <time>2021-09-05T07:49:39Z</time>
      </trkpt>
      <trkpt lat="42.651722" lon="0.436050">
        <ele>3274.000000</ele>
        <time>2021-09-05T07:49:39Z</time>
      </trkpt>
      <trkpt lat="42.651720" lon="0.436040">
        <ele>3273.000000</ele>
        <time>2021-09-05T07:49:40Z</time>
      </trkpt>
      <trkpt lat="42.651717" lon="0.436028">
        <ele>3273.000000</ele>
        <time>2021-09-05T07:49:41Z</time>
      </trkpt>
      <trkpt lat="42.651715" lon="0.436018">
        <ele>3273.000000</ele>
        <time>2021-09-05T07:49:42Z</time>
      </trkpt>
      <trkpt lat="42.651712" lon="0.436010">
        <ele>3272.000000</ele>
        <time>2021-09-05T07:49:43Z</time>
      </trkpt>
      <trkpt lat="42.651710" lon="0.436000">
        <ele>3272.000000</ele>
        <time>2021-09-05T07:49:44Z</time>
      </trkpt>
      <trkpt lat="42.651709" lon="0.435992">
        <ele>3272.000000</ele>
        <time>2021-09-05T07:49:45Z</time>
      </trkpt>
      <trkpt lat="42.651709" lon="0.435983">
        <ele>3271.000000</ele>
        <time>2021-09-05T07:49:46Z</time>
      </trkpt>
      <trkpt lat="42.651708" lon="0.435978">
        <ele>3271.000000</ele>
        <time>2021-09-05T07:49:47Z</time>
      </trkpt>
      <trkpt lat="42.651707" lon="0.435973">
        <ele>3270.000000</ele>
        <time>2021-09-05T07:49:48Z</time>
      </trkpt>
      <trkpt lat="42.651704" lon="0.435967">
        <ele>3270.000000</ele>
        <time>2021-09-05T07:49:49Z</time>
      </trkpt>
      <trkpt lat="42.651698" lon="0.435962">
        <ele>3270.000000</ele>
        <time>2021-09-05T07:49:50Z</time>
      </trkpt>
      <trkpt lat="42.651693" lon="0.435955">
        <ele>3269.000000</ele>
        <time>2021-09-05T07:49:51Z</time>
      </trkpt>
      <trkpt lat="42.651692" lon="0.435950">
        <ele>3269.000000</ele>
        <time>2021-09-05T07:49:52Z</time>
      </trkpt>
      <trkpt lat="42.651687" lon="0.435945">
        <ele>3269.000000</ele>
        <time>2021-09-05T07:49:53Z</time>
      </trkpt>
      <trkpt lat="42.651688" lon="0.435935">
        <ele>3269.000000</ele>
        <time>2021-09-05T07:49:54Z</time>
      </trkpt>
      <trkpt lat="42.651686" lon="0.435932">
        <ele>3268.000000</ele>
        <time>2021-09-05T07:49:55Z</time>
      </trkpt>
      <trkpt lat="42.651684" lon="0.435928">
        <ele>3268.000000</ele>
        <time>2021-09-05T07:49:56Z</time>
      </trkpt>
      <trkpt lat="42.651683" lon="0.435927">
        <ele>3268.000000</ele>
        <time>2021-09-05T07:49:57Z</time>
      </trkpt>
      <trkpt lat="42.651680" lon="0.435922">
        <ele>3267.000000</ele>
        <time>2021-09-05T07:49:59Z</time>
      </trkpt>
      <trkpt lat="42.651677" lon="0.435917">
        <ele>3267.000000</ele>
        <time>2021-09-05T07:49:59Z</time>
      </trkpt>
      <trkpt lat="42.651673" lon="0.435908">
        <ele>3267.000000</ele>
        <time>2021-09-05T07:50:00Z</time>
      </trkpt>
      <trkpt lat="42.651671" lon="0.435903">
        <ele>3267.000000</ele>
        <time>2021-09-05T07:50:01Z</time>
      </trkpt>
      <trkpt lat="42.651667" lon="0.435893">
        <ele>3266.000000</ele>
        <time>2021-09-05T07:50:02Z</time>
      </trkpt>
      <trkpt lat="42.651662" lon="0.435883">
        <ele>3266.000000</ele>
        <time>2021-09-05T07:50:03Z</time>
      </trkpt>
      <trkpt lat="42.651658" lon="0.435872">
        <ele>3266.000000</ele>
        <time>2021-09-05T07:50:04Z</time>
      </trkpt>
      <trkpt lat="42.651656" lon="0.435860">
        <ele>3266.000000</ele>
        <time>2021-09-05T07:50:05Z</time>
      </trkpt>
      <trkpt lat="42.651654" lon="0.435848">
        <ele>3265.000000</ele>
        <time>2021-09-05T07:50:06Z</time>
      </trkpt>
      <trkpt lat="42.651653" lon="0.435838">
        <ele>3265.000000</ele>
        <time>2021-09-05T07:50:07Z</time>
      </trkpt>
      <trkpt lat="42.651652" lon="0.435832">
        <ele>3265.000000</ele>
        <time>2021-09-05T07:50:08Z</time>
      </trkpt>
      <trkpt lat="42.651652" lon="0.435832">
        <ele>3265.000000</ele>
        <time>2021-09-05T07:50:09Z</time>
      </trkpt>
      <trkpt lat="42.651647" lon="0.435835">
        <ele>3264.000000</ele>
        <time>2021-09-05T07:50:10Z</time>
      </trkpt>
      <trkpt lat="42.651642" lon="0.435842">
        <ele>3264.000000</ele>
        <time>2021-09-05T07:50:11Z</time>
      </trkpt>
      <trkpt lat="42.651637" lon="0.435845">
        <ele>3264.000000</ele>
        <time>2021-09-05T07:50:12Z</time>
      </trkpt>
      <trkpt lat="42.651628" lon="0.435852">
        <ele>3264.000000</ele>
        <time>2021-09-05T07:50:13Z</time>
      </trkpt>
      <trkpt lat="42.651622" lon="0.435858">
        <ele>3263.000000</ele>
        <time>2021-09-05T07:50:14Z</time>
      </trkpt>
      <trkpt lat="42.651612" lon="0.435863">
        <ele>3263.000000</ele>
        <time>2021-09-05T07:50:15Z</time>
      </trkpt>
      <trkpt lat="42.651607" lon="0.435868">
        <ele>3263.000000</ele>
        <time>2021-09-05T07:50:16Z</time>
      </trkpt>
      <trkpt lat="42.651600" lon="0.435870">
        <ele>3263.000000</ele>
        <time>2021-09-05T07:50:17Z</time>
      </trkpt>
      <trkpt lat="42.651595" lon="0.435873">
        <ele>3263.000000</ele>
        <time>2021-09-05T07:50:18Z</time>
      </trkpt>
      <trkpt lat="42.651593" lon="0.435877">
        <ele>3263.000000</ele>
        <time>2021-09-05T07:50:19Z</time>
      </trkpt>
      <trkpt lat="42.651588" lon="0.435887">
        <ele>3263.000000</ele>
        <time>2021-09-05T07:50:20Z</time>
      </trkpt>
      <trkpt lat="42.651582" lon="0.435900">
        <ele>3262.000000</ele>
        <time>2021-09-05T07:50:21Z</time>
      </trkpt>
      <trkpt lat="42.651575" lon="0.435912">
        <ele>3262.000000</ele>
        <time>2021-09-05T07:50:22Z</time>
      </trkpt>
      <trkpt lat="42.651570" lon="0.435923">
        <ele>3262.000000</ele>
        <time>2021-09-05T07:50:24Z</time>
      </trkpt>
      <trkpt lat="42.651562" lon="0.435933">
        <ele>3262.000000</ele>
        <time>2021-09-05T07:50:24Z</time>
      </trkpt>
      <trkpt lat="42.651560" lon="0.435945">
        <ele>3261.000000</ele>
        <time>2021-09-05T07:50:25Z</time>
      </trkpt>
      <trkpt lat="42.651557" lon="0.435952">
        <ele>3261.000000</ele>
        <time>2021-09-05T07:50:26Z</time>
      </trkpt>
      <trkpt lat="42.651553" lon="0.435957">
        <ele>3261.000000</ele>
        <time>2021-09-05T07:50:27Z</time>
      </trkpt>
      <trkpt lat="42.651540" lon="0.435957">
        <ele>3261.000000</ele>
        <time>2021-09-05T07:50:28Z</time>
      </trkpt>
      <trkpt lat="42.651530" lon="0.435952">
        <ele>3261.000000</ele>
        <time>2021-09-05T07:50:29Z</time>
      </trkpt>
      <trkpt lat="42.651527" lon="0.435945">
        <ele>3260.000000</ele>
        <time>2021-09-05T07:50:30Z</time>
      </trkpt>
      <trkpt lat="42.651523" lon="0.435940">
        <ele>3260.000000</ele>
        <time>2021-09-05T07:50:31Z</time>
      </trkpt>
      <trkpt lat="42.651520" lon="0.435930">
        <ele>3260.000000</ele>
        <time>2021-09-05T07:50:32Z</time>
      </trkpt>
      <trkpt lat="42.651518" lon="0.435922">
        <ele>3260.000000</ele>
        <time>2021-09-05T07:50:33Z</time>
      </trkpt>
      <trkpt lat="42.651515" lon="0.435903">
        <ele>3260.000000</ele>
        <time>2021-09-05T07:50:34Z</time>
      </trkpt>
      <trkpt lat="42.651515" lon="0.435890">
        <ele>3259.000000</ele>
        <time>2021-09-05T07:50:35Z</time>
      </trkpt>
      <trkpt lat="42.651517" lon="0.435877">
        <ele>3259.000000</ele>
        <time>2021-09-05T07:50:36Z</time>
      </trkpt>
      <trkpt lat="42.651517" lon="0.435863">
        <ele>3259.000000</ele>
        <time>2021-09-05T07:50:37Z</time>
      </trkpt>
      <trkpt lat="42.651512" lon="0.435852">
        <ele>3259.000000</ele>
        <time>2021-09-05T07:50:38Z</time>
      </trkpt>
      <trkpt lat="42.651507" lon="0.435843">
        <ele>3259.000000</ele>
        <time>2021-09-05T07:50:39Z</time>
      </trkpt>
      <trkpt lat="42.651504" lon="0.435835">
        <ele>3258.000000</ele>
        <time>2021-09-05T07:50:40Z</time>
      </trkpt>
      <trkpt lat="42.651501" lon="0.435825">
        <ele>3258.000000</ele>
        <time>2021-09-05T07:50:41Z</time>
      </trkpt>
      <trkpt lat="42.651498" lon="0.435813">
        <ele>3258.000000</ele>
        <time>2021-09-05T07:50:42Z</time>
      </trkpt>
      <trkpt lat="42.651497" lon="0.435805">
        <ele>3258.000000</ele>
        <time>2021-09-05T07:50:43Z</time>
      </trkpt>
      <trkpt lat="42.651494" lon="0.435802">
        <ele>3257.000000</ele>
        <time>2021-09-05T07:50:44Z</time>
      </trkpt>
      <trkpt lat="42.651491" lon="0.435797">
        <ele>3257.000000</ele>
        <time>2021-09-05T07:50:45Z</time>
      </trkpt>
      <trkpt lat="42.651480" lon="0.435798">
        <ele>3257.000000</ele>
        <time>2021-09-05T07:50:46Z</time>
      </trkpt>
      <trkpt lat="42.651470" lon="0.435798">
        <ele>3256.000000</ele>
        <time>2021-09-05T07:50:47Z</time>
      </trkpt>
      <trkpt lat="42.651460" lon="0.435797">
        <ele>3256.000000</ele>
        <time>2021-09-05T07:50:49Z</time>
      </trkpt>
      <trkpt lat="42.651452" lon="0.435798">
        <ele>3256.000000</ele>
        <time>2021-09-05T07:50:49Z</time>
      </trkpt>
      <trkpt lat="42.651443" lon="0.435803">
        <ele>3256.000000</ele>
        <time>2021-09-05T07:50:50Z</time>
      </trkpt>
      <trkpt lat="42.651433" lon="0.435808">
        <ele>3256.000000</ele>
        <time>2021-09-05T07:50:51Z</time>
      </trkpt>
      <trkpt lat="42.651423" lon="0.435815">
        <ele>3256.000000</ele>
        <time>2021-09-05T07:50:52Z</time>
      </trkpt>
      <trkpt lat="42.651417" lon="0.435820">
        <ele>3256.000000</ele>
        <time>2021-09-05T07:50:53Z</time>
      </trkpt>
      <trkpt lat="42.651407" lon="0.435823">
        <ele>3255.000000</ele>
        <time>2021-09-05T07:50:54Z</time>
      </trkpt>
      <trkpt lat="42.651398" lon="0.435826">
        <ele>3255.000000</ele>
        <time>2021-09-05T07:50:55Z</time>
      </trkpt>
      <trkpt lat="42.651390" lon="0.435831">
        <ele>3255.000000</ele>
        <time>2021-09-05T07:50:56Z</time>
      </trkpt>
      <trkpt lat="42.651380" lon="0.435838">
        <ele>3255.000000</ele>
        <time>2021-09-05T07:50:57Z</time>
      </trkpt>
      <trkpt lat="42.651373" lon="0.435845">
        <ele>3254.000000</ele>
        <time>2021-09-05T07:50:58Z</time>
      </trkpt>
      <trkpt lat="42.651367" lon="0.435856">
        <ele>3254.000000</ele>
        <time>2021-09-05T07:50:59Z</time>
      </trkpt>
      <trkpt lat="42.651362" lon="0.435878">
        <ele>3254.000000</ele>
        <time>2021-09-05T07:51:00Z</time>
      </trkpt>
      <trkpt lat="42.651353" lon="0.435886">
        <ele>3254.000000</ele>
        <time>2021-09-05T07:51:01Z</time>
      </trkpt>
      <trkpt lat="42.651347" lon="0.435890">
        <ele>3253.000000</ele>
        <time>2021-09-05T07:51:02Z</time>
      </trkpt>
      <trkpt lat="42.651342" lon="0.435889">
        <ele>3253.000000</ele>
        <time>2021-09-05T07:51:03Z</time>
      </trkpt>
      <trkpt lat="42.651335" lon="0.435880">
        <ele>3253.000000</ele>
        <time>2021-09-05T07:51:04Z</time>
      </trkpt>
      <trkpt lat="42.651330" lon="0.435872">
        <ele>3253.000000</ele>
        <time>2021-09-05T07:51:05Z</time>
      </trkpt>
      <trkpt lat="42.651323" lon="0.435863">
        <ele>3253.000000</ele>
        <time>2021-09-05T07:51:06Z</time>
      </trkpt>
      <trkpt lat="42.651315" lon="0.435857">
        <ele>3252.000000</ele>
        <time>2021-09-05T07:51:07Z</time>
      </trkpt>
      <trkpt lat="42.651310" lon="0.435848">
        <ele>3252.000000</ele>
        <time>2021-09-05T07:51:09Z</time>
      </trkpt>
      <trkpt lat="42.651305" lon="0.435842">
        <ele>3252.000000</ele>
        <time>2021-09-05T07:51:09Z</time>
      </trkpt>
      <trkpt lat="42.651298" lon="0.435838">
        <ele>3252.000000</ele>
        <time>2021-09-05T07:51:10Z</time>
      </trkpt>
      <trkpt lat="42.651295" lon="0.435831">
        <ele>3251.000000</ele>
        <time>2021-09-05T07:51:11Z</time>
      </trkpt>
      <trkpt lat="42.651290" lon="0.435820">
        <ele>3251.000000</ele>
        <time>2021-09-05T07:51:12Z</time>
      </trkpt>
      <trkpt lat="42.651285" lon="0.435805">
        <ele>3251.000000</ele>
        <time>2021-09-05T07:51:13Z</time>
      </trkpt>
      <trkpt lat="42.651278" lon="0.435792">
        <ele>3250.000000</ele>
        <time>2021-09-05T07:51:14Z</time>
      </trkpt>
      <trkpt lat="42.651272" lon="0.435787">
        <ele>3250.000000</ele>
        <time>2021-09-05T07:51:15Z</time>
      </trkpt>
      <trkpt lat="42.651265" lon="0.435782">
        <ele>3250.000000</ele>
        <time>2021-09-05T07:51:16Z</time>
      </trkpt>
      <trkpt lat="42.651262" lon="0.435782">
        <ele>3249.000000</ele>
        <time>2021-09-05T07:51:17Z</time>
      </trkpt>
      <trkpt lat="42.651260" lon="0.435783">
        <ele>3249.000000</ele>
        <time>2021-09-05T07:51:18Z</time>
      </trkpt>
      <trkpt lat="42.651257" lon="0.435785">
        <ele>3248.000000</ele>
        <time>2021-09-05T07:51:20Z</time>
      </trkpt>
      <trkpt lat="42.651255" lon="0.435783">
        <ele>3248.000000</ele>
        <time>2021-09-05T07:51:21Z</time>
      </trkpt>
      <trkpt lat="42.651253" lon="0.435786">
        <ele>3247.000000</ele>
        <time>2021-09-05T07:51:23Z</time>
      </trkpt>
      <trkpt lat="42.651255" lon="0.435785">
        <ele>3247.000000</ele>
        <time>2021-09-05T07:51:24Z</time>
      </trkpt>
      <trkpt lat="42.651257" lon="0.435786">
        <ele>3247.000000</ele>
        <time>2021-09-05T07:51:25Z</time>
      </trkpt>
      <trkpt lat="42.651257" lon="0.435785">
        <ele>3247.000000</ele>
        <time>2021-09-05T07:51:28Z</time>
      </trkpt>
      <trkpt lat="42.651262" lon="0.435810">
        <ele>3248.000000</ele>
        <time>2021-09-05T07:55:01Z</time>
      </trkpt>
      <trkpt lat="42.651255" lon="0.435820">
        <ele>3248.000000</ele>
        <time>2021-09-05T07:55:02Z</time>
      </trkpt>
      <trkpt lat="42.651250" lon="0.435830">
        <ele>3248.000000</ele>
        <time>2021-09-05T07:55:03Z</time>
      </trkpt>
      <trkpt lat="42.651246" lon="0.435840">
        <ele>3248.000000</ele>
        <time>2021-09-05T07:55:04Z</time>
      </trkpt>
      <trkpt lat="42.651240" lon="0.435858">
        <ele>3248.000000</ele>
        <time>2021-09-05T07:55:05Z</time>
      </trkpt>
      <trkpt lat="42.651236" lon="0.435870">
        <ele>3248.000000</ele>
        <time>2021-09-05T07:55:06Z</time>
      </trkpt>
      <trkpt lat="42.651230" lon="0.435885">
        <ele>3248.000000</ele>
        <time>2021-09-05T07:55:07Z</time>
      </trkpt>
      <trkpt lat="42.651223" lon="0.435900">
        <ele>3248.000000</ele>
        <time>2021-09-05T07:55:08Z</time>
      </trkpt>
      <trkpt lat="42.651217" lon="0.435910">
        <ele>3248.000000</ele>
        <time>2021-09-05T07:55:09Z</time>
      </trkpt>
      <trkpt lat="42.651213" lon="0.435917">
        <ele>3248.000000</ele>
        <time>2021-09-05T07:55:10Z</time>
      </trkpt>
      <trkpt lat="42.651209" lon="0.435923">
        <ele>3247.000000</ele>
        <time>2021-09-05T07:55:11Z</time>
      </trkpt>
      <trkpt lat="42.651206" lon="0.435928">
        <ele>3247.000000</ele>
        <time>2021-09-05T07:55:12Z</time>
      </trkpt>
      <trkpt lat="42.651201" lon="0.435937">
        <ele>3247.000000</ele>
        <time>2021-09-05T07:55:14Z</time>
      </trkpt>
      <trkpt lat="42.651197" lon="0.435945">
        <ele>3247.000000</ele>
        <time>2021-09-05T07:55:14Z</time>
      </trkpt>
      <trkpt lat="42.651189" lon="0.435962">
        <ele>3246.000000</ele>
        <time>2021-09-05T07:55:15Z</time>
      </trkpt>
      <trkpt lat="42.651183" lon="0.435975">
        <ele>3246.000000</ele>
        <time>2021-09-05T07:55:16Z</time>
      </trkpt>
      <trkpt lat="42.651178" lon="0.435987">
        <ele>3246.000000</ele>
        <time>2021-09-05T07:55:17Z</time>
      </trkpt>
      <trkpt lat="42.651174" lon="0.435997">
        <ele>3246.000000</ele>
        <time>2021-09-05T07:55:18Z</time>
      </trkpt>
      <trkpt lat="42.651168" lon="0.436005">
        <ele>3245.000000</ele>
        <time>2021-09-05T07:55:19Z</time>
      </trkpt>
      <trkpt lat="42.651153" lon="0.436005">
        <ele>3245.000000</ele>
        <time>2021-09-05T07:55:20Z</time>
      </trkpt>
      <trkpt lat="42.651145" lon="0.435997">
        <ele>3244.000000</ele>
        <time>2021-09-05T07:55:21Z</time>
      </trkpt>
      <trkpt lat="42.651140" lon="0.435988">
        <ele>3244.000000</ele>
        <time>2021-09-05T07:55:22Z</time>
      </trkpt>
      <trkpt lat="42.651135" lon="0.435978">
        <ele>3243.000000</ele>
        <time>2021-09-05T07:55:23Z</time>
      </trkpt>
      <trkpt lat="42.651127" lon="0.435965">
        <ele>3243.000000</ele>
        <time>2021-09-05T07:55:24Z</time>
      </trkpt>
      <trkpt lat="42.651118" lon="0.435958">
        <ele>3242.000000</ele>
        <time>2021-09-05T07:55:25Z</time>
      </trkpt>
      <trkpt lat="42.651115" lon="0.435958">
        <ele>3242.000000</ele>
        <time>2021-09-05T07:55:26Z</time>
      </trkpt>
      <trkpt lat="42.651113" lon="0.435963">
        <ele>3241.000000</ele>
        <time>2021-09-05T07:55:27Z</time>
      </trkpt>
      <trkpt lat="42.651110" lon="0.435977">
        <ele>3241.000000</ele>
        <time>2021-09-05T07:55:28Z</time>
      </trkpt>
      <trkpt lat="42.651102" lon="0.435992">
        <ele>3241.000000</ele>
        <time>2021-09-05T07:55:29Z</time>
      </trkpt>
      <trkpt lat="42.651093" lon="0.435996">
        <ele>3241.000000</ele>
        <time>2021-09-05T07:55:30Z</time>
      </trkpt>
      <trkpt lat="42.651085" lon="0.436003">
        <ele>3241.000000</ele>
        <time>2021-09-05T07:55:31Z</time>
      </trkpt>
      <trkpt lat="42.651077" lon="0.436008">
        <ele>3241.000000</ele>
        <time>2021-09-05T07:55:32Z</time>
      </trkpt>
      <trkpt lat="42.651072" lon="0.436017">
        <ele>3240.000000</ele>
        <time>2021-09-05T07:55:33Z</time>
      </trkpt>
      <trkpt lat="42.651067" lon="0.436040">
        <ele>3240.000000</ele>
        <time>2021-09-05T07:55:34Z</time>
      </trkpt>
      <trkpt lat="42.651063" lon="0.436057">
        <ele>3240.000000</ele>
        <time>2021-09-05T07:55:35Z</time>
      </trkpt>
      <trkpt lat="42.651057" lon="0.436075">
        <ele>3239.000000</ele>
        <time>2021-09-05T07:55:36Z</time>
      </trkpt>
      <trkpt lat="42.651050" lon="0.436083">
        <ele>3239.000000</ele>
        <time>2021-09-05T07:55:37Z</time>
      </trkpt>
      <trkpt lat="42.651040" lon="0.436095">
        <ele>3238.000000</ele>
        <time>2021-09-05T07:55:39Z</time>
      </trkpt>
      <trkpt lat="42.651030" lon="0.436097">
        <ele>3238.000000</ele>
        <time>2021-09-05T07:55:39Z</time>
      </trkpt>
      <trkpt lat="42.651022" lon="0.436088">
        <ele>3237.000000</ele>
        <time>2021-09-05T07:55:40Z</time>
      </trkpt>
      <trkpt lat="42.651012" lon="0.436082">
        <ele>3237.000000</ele>
        <time>2021-09-05T07:55:41Z</time>
      </trkpt>
      <trkpt lat="42.651005" lon="0.436068">
        <ele>3236.000000</ele>
        <time>2021-09-05T07:55:42Z</time>
      </trkpt>
      <trkpt lat="42.650998" lon="0.436058">
        <ele>3236.000000</ele>
        <time>2021-09-05T07:55:43Z</time>
      </trkpt>
      <trkpt lat="42.650990" lon="0.436045">
        <ele>3235.000000</ele>
        <time>2021-09-05T07:55:44Z</time>
      </trkpt>
      <trkpt lat="42.650985" lon="0.436038">
        <ele>3235.000000</ele>
        <time>2021-09-05T07:55:45Z</time>
      </trkpt>
      <trkpt lat="42.650978" lon="0.436028">
        <ele>3234.000000</ele>
        <time>2021-09-05T07:55:46Z</time>
      </trkpt>
      <trkpt lat="42.650973" lon="0.436023">
        <ele>3234.000000</ele>
        <time>2021-09-05T07:55:47Z</time>
      </trkpt>
      <trkpt lat="42.650968" lon="0.436021">
        <ele>3233.000000</ele>
        <time>2021-09-05T07:55:48Z</time>
      </trkpt>
      <trkpt lat="42.650962" lon="0.436018">
        <ele>3233.000000</ele>
        <time>2021-09-05T07:55:49Z</time>
      </trkpt>
      <trkpt lat="42.650953" lon="0.436015">
        <ele>3232.000000</ele>
        <time>2021-09-05T07:55:50Z</time>
      </trkpt>
      <trkpt lat="42.650947" lon="0.436013">
        <ele>3232.000000</ele>
        <time>2021-09-05T07:55:51Z</time>
      </trkpt>
      <trkpt lat="42.650935" lon="0.436012">
        <ele>3231.000000</ele>
        <time>2021-09-05T07:55:52Z</time>
      </trkpt>
      <trkpt lat="42.650923" lon="0.436015">
        <ele>3231.000000</ele>
        <time>2021-09-05T07:55:53Z</time>
      </trkpt>
      <trkpt lat="42.650915" lon="0.436010">
        <ele>3230.000000</ele>
        <time>2021-09-05T07:55:54Z</time>
      </trkpt>
      <trkpt lat="42.650905" lon="0.436009">
        <ele>3230.000000</ele>
        <time>2021-09-05T07:55:55Z</time>
      </trkpt>
      <trkpt lat="42.650900" lon="0.436013">
        <ele>3230.000000</ele>
        <time>2021-09-05T07:55:56Z</time>
      </trkpt>
      <trkpt lat="42.650893" lon="0.436021">
        <ele>3230.000000</ele>
        <time>2021-09-05T07:55:57Z</time>
      </trkpt>
      <trkpt lat="42.650892" lon="0.436038">
        <ele>3230.000000</ele>
        <time>2021-09-05T07:55:59Z</time>
      </trkpt>
      <trkpt lat="42.650887" lon="0.436053">
        <ele>3229.000000</ele>
        <time>2021-09-05T07:55:59Z</time>
      </trkpt>
      <trkpt lat="42.650883" lon="0.436067">
        <ele>3229.000000</ele>
        <time>2021-09-05T07:56:00Z</time>
      </trkpt>
      <trkpt lat="42.650878" lon="0.436073">
        <ele>3229.000000</ele>
        <time>2021-09-05T07:56:01Z</time>
      </trkpt>
      <trkpt lat="42.650877" lon="0.436075">
        <ele>3229.000000</ele>
        <time>2021-09-05T07:56:02Z</time>
      </trkpt>
      <trkpt lat="42.650873" lon="0.436078">
        <ele>3228.000000</ele>
        <time>2021-09-05T07:56:03Z</time>
      </trkpt>
      <trkpt lat="42.650870" lon="0.436078">
        <ele>3228.000000</ele>
        <time>2021-09-05T07:56:04Z</time>
      </trkpt>
      <trkpt lat="42.650863" lon="0.436080">
        <ele>3227.000000</ele>
        <time>2021-09-05T07:56:06Z</time>
      </trkpt>
      <trkpt lat="42.650858" lon="0.436081">
        <ele>3227.000000</ele>
        <time>2021-09-05T07:56:07Z</time>
      </trkpt>
      <trkpt lat="42.650852" lon="0.436080">
        <ele>3226.000000</ele>
        <time>2021-09-05T07:56:08Z</time>
      </trkpt>
      <trkpt lat="42.650845" lon="0.436077">
        <ele>3226.000000</ele>
        <time>2021-09-05T07:56:09Z</time>
      </trkpt>
      <trkpt lat="42.650838" lon="0.436070">
        <ele>3225.000000</ele>
        <time>2021-09-05T07:56:10Z</time>
      </trkpt>
      <trkpt lat="42.650830" lon="0.436063">
        <ele>3225.000000</ele>
        <time>2021-09-05T07:56:10Z</time>
      </trkpt>
      <trkpt lat="42.650825" lon="0.436057">
        <ele>3225.000000</ele>
        <time>2021-09-05T07:56:11Z</time>
      </trkpt>
      <trkpt lat="42.650818" lon="0.436055">
        <ele>3225.000000</ele>
        <time>2021-09-05T07:56:12Z</time>
      </trkpt>
      <trkpt lat="42.650815" lon="0.436055">
        <ele>3225.000000</ele>
        <time>2021-09-05T07:56:13Z</time>
      </trkpt>
      <trkpt lat="42.650813" lon="0.436054">
        <ele>3225.000000</ele>
        <time>2021-09-05T07:56:14Z</time>
      </trkpt>
      <trkpt lat="42.650812" lon="0.436055">
        <ele>3225.000000</ele>
        <time>2021-09-05T07:56:15Z</time>
      </trkpt>
      <trkpt lat="42.650808" lon="0.436056">
        <ele>3225.000000</ele>
        <time>2021-09-05T07:56:17Z</time>
      </trkpt>
      <trkpt lat="42.650808" lon="0.436058">
        <ele>3225.000000</ele>
        <time>2021-09-05T07:56:18Z</time>
      </trkpt>
      <trkpt lat="42.650807" lon="0.436060">
        <ele>3225.000000</ele>
        <time>2021-09-05T07:56:19Z</time>
      </trkpt>
      <trkpt lat="42.650805" lon="0.436064">
        <ele>3225.000000</ele>
        <time>2021-09-05T07:56:20Z</time>
      </trkpt>
      <trkpt lat="42.650802" lon="0.436080">
        <ele>3225.000000</ele>
        <time>2021-09-05T07:56:22Z</time>
      </trkpt>
      <trkpt lat="42.650798" lon="0.436090">
        <ele>3225.000000</ele>
        <time>2021-09-05T07:56:22Z</time>
      </trkpt>
      <trkpt lat="42.650796" lon="0.436097">
        <ele>3225.000000</ele>
        <time>2021-09-05T07:56:23Z</time>
      </trkpt>
      <trkpt lat="42.650793" lon="0.436105">
        <ele>3225.000000</ele>
        <time>2021-09-05T07:56:24Z</time>
      </trkpt>
      <trkpt lat="42.650789" lon="0.436115">
        <ele>3225.000000</ele>
        <time>2021-09-05T07:56:25Z</time>
      </trkpt>
      <trkpt lat="42.650783" lon="0.436128">
        <ele>3225.000000</ele>
        <time>2021-09-05T07:56:26Z</time>
      </trkpt>
      <trkpt lat="42.650778" lon="0.436137">
        <ele>3225.000000</ele>
        <time>2021-09-05T07:56:27Z</time>
      </trkpt>
      <trkpt lat="42.650773" lon="0.436143">
        <ele>3224.000000</ele>
        <time>2021-09-05T07:56:28Z</time>
      </trkpt>
      <trkpt lat="42.650763" lon="0.436147">
        <ele>3224.000000</ele>
        <time>2021-09-05T07:56:29Z</time>
      </trkpt>
      <trkpt lat="42.650760" lon="0.436145">
        <ele>3224.000000</ele>
        <time>2021-09-05T07:56:30Z</time>
      </trkpt>
      <trkpt lat="42.650757" lon="0.436142">
        <ele>3223.000000</ele>
        <time>2021-09-05T07:56:31Z</time>
      </trkpt>
      <trkpt lat="42.650753" lon="0.436137">
        <ele>3223.000000</ele>
        <time>2021-09-05T07:56:32Z</time>
      </trkpt>
      <trkpt lat="42.650748" lon="0.436133">
        <ele>3222.000000</ele>
        <time>2021-09-05T07:56:33Z</time>
      </trkpt>
      <trkpt lat="42.650745" lon="0.436125">
        <ele>3222.000000</ele>
        <time>2021-09-05T07:56:34Z</time>
      </trkpt>
      <trkpt lat="42.650740" lon="0.436122">
        <ele>3221.000000</ele>
        <time>2021-09-05T07:56:35Z</time>
      </trkpt>
      <trkpt lat="42.650733" lon="0.436115">
        <ele>3221.000000</ele>
        <time>2021-09-05T07:56:36Z</time>
      </trkpt>
      <trkpt lat="42.650728" lon="0.436112">
        <ele>3220.000000</ele>
        <time>2021-09-05T07:56:37Z</time>
      </trkpt>
      <trkpt lat="42.650725" lon="0.436110">
        <ele>3220.000000</ele>
        <time>2021-09-05T07:56:38Z</time>
      </trkpt>
      <trkpt lat="42.650723" lon="0.436112">
        <ele>3220.000000</ele>
        <time>2021-09-05T07:56:39Z</time>
      </trkpt>
      <trkpt lat="42.650722" lon="0.436119">
        <ele>3219.000000</ele>
        <time>2021-09-05T07:56:40Z</time>
      </trkpt>
      <trkpt lat="42.650723" lon="0.436137">
        <ele>3219.000000</ele>
        <time>2021-09-05T07:56:41Z</time>
      </trkpt>
      <trkpt lat="42.650717" lon="0.436148">
        <ele>3219.000000</ele>
        <time>2021-09-05T07:56:42Z</time>
      </trkpt>
      <trkpt lat="42.650708" lon="0.436152">
        <ele>3219.000000</ele>
        <time>2021-09-05T07:56:43Z</time>
      </trkpt>
      <trkpt lat="42.650700" lon="0.436153">
        <ele>3218.000000</ele>
        <time>2021-09-05T07:56:44Z</time>
      </trkpt>
      <trkpt lat="42.650693" lon="0.436152">
        <ele>3218.000000</ele>
        <time>2021-09-05T07:56:45Z</time>
      </trkpt>
      <trkpt lat="42.650688" lon="0.436150">
        <ele>3218.000000</ele>
        <time>2021-09-05T07:56:47Z</time>
      </trkpt>
      <trkpt lat="42.650685" lon="0.436155">
        <ele>3218.000000</ele>
        <time>2021-09-05T07:56:47Z</time>
      </trkpt>
      <trkpt lat="42.650680" lon="0.436163">
        <ele>3218.000000</ele>
        <time>2021-09-05T07:56:48Z</time>
      </trkpt>
      <trkpt lat="42.650677" lon="0.436177">
        <ele>3218.000000</ele>
        <time>2021-09-05T07:56:49Z</time>
      </trkpt>
      <trkpt lat="42.650672" lon="0.436187">
        <ele>3218.000000</ele>
        <time>2021-09-05T07:56:50Z</time>
      </trkpt>
      <trkpt lat="42.650667" lon="0.436203">
        <ele>3218.000000</ele>
        <time>2021-09-05T07:56:51Z</time>
      </trkpt>
      <trkpt lat="42.650665" lon="0.436218">
        <ele>3217.000000</ele>
        <time>2021-09-05T07:56:52Z</time>
      </trkpt>
      <trkpt lat="42.650662" lon="0.436233">
        <ele>3217.000000</ele>
        <time>2021-09-05T07:56:53Z</time>
      </trkpt>
      <trkpt lat="42.650653" lon="0.436245">
        <ele>3217.000000</ele>
        <time>2021-09-05T07:56:54Z</time>
      </trkpt>
      <trkpt lat="42.650650" lon="0.436243">
        <ele>3216.000000</ele>
        <time>2021-09-05T07:56:55Z</time>
      </trkpt>
      <trkpt lat="42.650635" lon="0.436242">
        <ele>3216.000000</ele>
        <time>2021-09-05T07:56:56Z</time>
      </trkpt>
      <trkpt lat="42.650630" lon="0.436233">
        <ele>3215.000000</ele>
        <time>2021-09-05T07:56:57Z</time>
      </trkpt>
      <trkpt lat="42.650625" lon="0.436225">
        <ele>3215.000000</ele>
        <time>2021-09-05T07:56:58Z</time>
      </trkpt>
      <trkpt lat="42.650622" lon="0.436215">
        <ele>3215.000000</ele>
        <time>2021-09-05T07:56:59Z</time>
      </trkpt>
      <trkpt lat="42.650618" lon="0.436207">
        <ele>3214.000000</ele>
        <time>2021-09-05T07:57:00Z</time>
      </trkpt>
      <trkpt lat="42.650615" lon="0.436203">
        <ele>3214.000000</ele>
        <time>2021-09-05T07:57:01Z</time>
      </trkpt>
      <trkpt lat="42.650608" lon="0.436198">
        <ele>3213.000000</ele>
        <time>2021-09-05T07:57:02Z</time>
      </trkpt>
      <trkpt lat="42.650603" lon="0.436191">
        <ele>3213.000000</ele>
        <time>2021-09-05T07:57:03Z</time>
      </trkpt>
      <trkpt lat="42.650598" lon="0.436185">
        <ele>3213.000000</ele>
        <time>2021-09-05T07:57:04Z</time>
      </trkpt>
      <trkpt lat="42.650592" lon="0.436177">
        <ele>3212.000000</ele>
        <time>2021-09-05T07:57:05Z</time>
      </trkpt>
      <trkpt lat="42.650588" lon="0.436172">
        <ele>3212.000000</ele>
        <time>2021-09-05T07:57:07Z</time>
      </trkpt>
      <trkpt lat="42.650582" lon="0.436165">
        <ele>3212.000000</ele>
        <time>2021-09-05T07:57:07Z</time>
      </trkpt>
      <trkpt lat="42.650578" lon="0.436165">
        <ele>3211.000000</ele>
        <time>2021-09-05T07:57:08Z</time>
      </trkpt>
      <trkpt lat="42.650578" lon="0.436178">
        <ele>3211.000000</ele>
        <time>2021-09-05T07:57:09Z</time>
      </trkpt>
      <trkpt lat="42.650575" lon="0.436183">
        <ele>3211.000000</ele>
        <time>2021-09-05T07:57:10Z</time>
      </trkpt>
      <trkpt lat="42.650572" lon="0.436193">
        <ele>3211.000000</ele>
        <time>2021-09-05T07:57:11Z</time>
      </trkpt>
      <trkpt lat="42.650570" lon="0.436200">
        <ele>3211.000000</ele>
        <time>2021-09-05T07:57:12Z</time>
      </trkpt>
      <trkpt lat="42.650567" lon="0.436212">
        <ele>3210.000000</ele>
        <time>2021-09-05T07:57:13Z</time>
      </trkpt>
      <trkpt lat="42.650558" lon="0.436222">
        <ele>3210.000000</ele>
        <time>2021-09-05T07:57:14Z</time>
      </trkpt>
      <trkpt lat="42.650552" lon="0.436222">
        <ele>3210.000000</ele>
        <time>2021-09-05T07:57:15Z</time>
      </trkpt>
      <trkpt lat="42.650545" lon="0.436218">
        <ele>3209.000000</ele>
        <time>2021-09-05T07:57:16Z</time>
      </trkpt>
      <trkpt lat="42.650537" lon="0.436210">
        <ele>3209.000000</ele>
        <time>2021-09-05T07:57:17Z</time>
      </trkpt>
      <trkpt lat="42.650532" lon="0.436207">
        <ele>3209.000000</ele>
        <time>2021-09-05T07:57:18Z</time>
      </trkpt>
      <trkpt lat="42.650527" lon="0.436207">
        <ele>3208.000000</ele>
        <time>2021-09-05T07:57:19Z</time>
      </trkpt>
      <trkpt lat="42.650525" lon="0.436205">
        <ele>3208.000000</ele>
        <time>2021-09-05T07:57:20Z</time>
      </trkpt>
      <trkpt lat="42.650520" lon="0.436211">
        <ele>3208.000000</ele>
        <time>2021-09-05T07:57:21Z</time>
      </trkpt>
      <trkpt lat="42.650518" lon="0.436220">
        <ele>3208.000000</ele>
        <time>2021-09-05T07:57:22Z</time>
      </trkpt>
      <trkpt lat="42.650517" lon="0.436230">
        <ele>3208.000000</ele>
        <time>2021-09-05T07:57:23Z</time>
      </trkpt>
      <trkpt lat="42.650515" lon="0.436242">
        <ele>3208.000000</ele>
        <time>2021-09-05T07:57:24Z</time>
      </trkpt>
      <trkpt lat="42.650508" lon="0.436255">
        <ele>3208.000000</ele>
        <time>2021-09-05T07:57:25Z</time>
      </trkpt>
      <trkpt lat="42.650503" lon="0.436263">
        <ele>3207.000000</ele>
        <time>2021-09-05T07:57:26Z</time>
      </trkpt>
      <trkpt lat="42.650499" lon="0.436273">
        <ele>3207.000000</ele>
        <time>2021-09-05T07:57:27Z</time>
      </trkpt>
      <trkpt lat="42.650495" lon="0.436282">
        <ele>3207.000000</ele>
        <time>2021-09-05T07:57:28Z</time>
      </trkpt>
      <trkpt lat="42.650490" lon="0.436288">
        <ele>3207.000000</ele>
        <time>2021-09-05T07:57:29Z</time>
      </trkpt>
      <trkpt lat="42.650483" lon="0.436288">
        <ele>3207.000000</ele>
        <time>2021-09-05T07:57:31Z</time>
      </trkpt>
      <trkpt lat="42.650483" lon="0.436285">
        <ele>3207.000000</ele>
        <time>2021-09-05T07:57:31Z</time>
      </trkpt>
      <trkpt lat="42.650482" lon="0.436283">
        <ele>3207.000000</ele>
        <time>2021-09-05T07:57:32Z</time>
      </trkpt>
      <trkpt lat="42.650478" lon="0.436282">
        <ele>3207.000000</ele>
        <time>2021-09-05T07:57:33Z</time>
      </trkpt>
      <trkpt lat="42.650475" lon="0.436280">
        <ele>3207.000000</ele>
        <time>2021-09-05T07:57:34Z</time>
      </trkpt>
      <trkpt lat="42.650473" lon="0.436273">
        <ele>3206.000000</ele>
        <time>2021-09-05T07:57:35Z</time>
      </trkpt>
      <trkpt lat="42.650467" lon="0.436267">
        <ele>3206.000000</ele>
        <time>2021-09-05T07:57:36Z</time>
      </trkpt>
      <trkpt lat="42.650462" lon="0.436260">
        <ele>3206.000000</ele>
        <time>2021-09-05T07:57:37Z</time>
      </trkpt>
      <trkpt lat="42.650458" lon="0.436255">
        <ele>3206.000000</ele>
        <time>2021-09-05T07:57:38Z</time>
      </trkpt>
      <trkpt lat="42.650450" lon="0.436248">
        <ele>3205.000000</ele>
        <time>2021-09-05T07:57:39Z</time>
      </trkpt>
      <trkpt lat="42.650443" lon="0.436239">
        <ele>3205.000000</ele>
        <time>2021-09-05T07:57:40Z</time>
      </trkpt>
      <trkpt lat="42.650438" lon="0.436231">
        <ele>3205.000000</ele>
        <time>2021-09-05T07:57:41Z</time>
      </trkpt>
      <trkpt lat="42.650433" lon="0.436226">
        <ele>3204.000000</ele>
        <time>2021-09-05T07:57:42Z</time>
      </trkpt>
      <trkpt lat="42.650428" lon="0.436222">
        <ele>3204.000000</ele>
        <time>2021-09-05T07:57:43Z</time>
      </trkpt>
      <trkpt lat="42.650428" lon="0.436227">
        <ele>3204.000000</ele>
        <time>2021-09-05T07:57:44Z</time>
      </trkpt>
      <trkpt lat="42.650428" lon="0.436228">
        <ele>3203.000000</ele>
        <time>2021-09-05T07:57:45Z</time>
      </trkpt>
      <trkpt lat="42.650427" lon="0.436237">
        <ele>3203.000000</ele>
        <time>2021-09-05T07:57:46Z</time>
      </trkpt>
      <trkpt lat="42.650425" lon="0.436242">
        <ele>3203.000000</ele>
        <time>2021-09-05T07:57:47Z</time>
      </trkpt>
      <trkpt lat="42.650422" lon="0.436247">
        <ele>3203.000000</ele>
        <time>2021-09-05T07:57:49Z</time>
      </trkpt>
      <trkpt lat="42.650420" lon="0.436257">
        <ele>3202.000000</ele>
        <time>2021-09-05T07:57:49Z</time>
      </trkpt>
      <trkpt lat="42.650417" lon="0.436265">
        <ele>3202.000000</ele>
        <time>2021-09-05T07:57:51Z</time>
      </trkpt>
      <trkpt lat="42.650412" lon="0.436270">
        <ele>3202.000000</ele>
        <time>2021-09-05T07:57:51Z</time>
      </trkpt>
      <trkpt lat="42.650408" lon="0.436273">
        <ele>3201.000000</ele>
        <time>2021-09-05T07:57:53Z</time>
      </trkpt>
      <trkpt lat="42.650411" lon="0.436270">
        <ele>3201.000000</ele>
        <time>2021-09-05T07:57:54Z</time>
      </trkpt>
      <trkpt lat="42.650408" lon="0.436272">
        <ele>3201.000000</ele>
        <time>2021-09-05T07:57:55Z</time>
      </trkpt>
      <trkpt lat="42.650400" lon="0.436278">
        <ele>3201.000000</ele>
        <time>2021-09-05T07:57:56Z</time>
      </trkpt>
      <trkpt lat="42.650393" lon="0.436278">
        <ele>3200.000000</ele>
        <time>2021-09-05T07:57:57Z</time>
      </trkpt>
      <trkpt lat="42.650383" lon="0.436278">
        <ele>3200.000000</ele>
        <time>2021-09-05T07:57:58Z</time>
      </trkpt>
      <trkpt lat="42.650377" lon="0.436278">
        <ele>3200.000000</ele>
        <time>2021-09-05T07:57:59Z</time>
      </trkpt>
      <trkpt lat="42.650373" lon="0.436273">
        <ele>3200.000000</ele>
        <time>2021-09-05T07:58:00Z</time>
      </trkpt>
      <trkpt lat="42.650368" lon="0.436265">
        <ele>3200.000000</ele>
        <time>2021-09-05T07:58:01Z</time>
      </trkpt>
      <trkpt lat="42.650362" lon="0.436258">
        <ele>3200.000000</ele>
        <time>2021-09-05T07:58:02Z</time>
      </trkpt>
      <trkpt lat="42.650357" lon="0.436250">
        <ele>3200.000000</ele>
        <time>2021-09-05T07:58:03Z</time>
      </trkpt>
      <trkpt lat="42.650352" lon="0.436243">
        <ele>3199.000000</ele>
        <time>2021-09-05T07:58:04Z</time>
      </trkpt>
      <trkpt lat="42.650350" lon="0.436237">
        <ele>3199.000000</ele>
        <time>2021-09-05T07:58:05Z</time>
      </trkpt>
      <trkpt lat="42.650343" lon="0.436232">
        <ele>3199.000000</ele>
        <time>2021-09-05T07:58:06Z</time>
      </trkpt>
      <trkpt lat="42.650340" lon="0.436226">
        <ele>3198.000000</ele>
        <time>2021-09-05T07:58:07Z</time>
      </trkpt>
      <trkpt lat="42.650335" lon="0.436221">
        <ele>3198.000000</ele>
        <time>2021-09-05T07:58:08Z</time>
      </trkpt>
      <trkpt lat="42.650332" lon="0.436218">
        <ele>3198.000000</ele>
        <time>2021-09-05T07:58:09Z</time>
      </trkpt>
      <trkpt lat="42.650327" lon="0.436213">
        <ele>3197.000000</ele>
        <time>2021-09-05T07:58:10Z</time>
      </trkpt>
      <trkpt lat="42.650322" lon="0.436208">
        <ele>3197.000000</ele>
        <time>2021-09-05T07:58:11Z</time>
      </trkpt>
      <trkpt lat="42.650318" lon="0.436205">
        <ele>3197.000000</ele>
        <time>2021-09-05T07:58:12Z</time>
      </trkpt>
      <trkpt lat="42.650315" lon="0.436202">
        <ele>3197.000000</ele>
        <time>2021-09-05T07:58:13Z</time>
      </trkpt>
      <trkpt lat="42.650312" lon="0.436200">
        <ele>3197.000000</ele>
        <time>2021-09-05T07:58:15Z</time>
      </trkpt>
      <trkpt lat="42.650307" lon="0.436205">
        <ele>3196.000000</ele>
        <time>2021-09-05T07:58:15Z</time>
      </trkpt>
      <trkpt lat="42.650302" lon="0.436210">
        <ele>3196.000000</ele>
        <time>2021-09-05T07:58:16Z</time>
      </trkpt>
      <trkpt lat="42.650298" lon="0.436212">
        <ele>3196.000000</ele>
        <time>2021-09-05T07:58:17Z</time>
      </trkpt>
      <trkpt lat="42.650297" lon="0.436220">
        <ele>3196.000000</ele>
        <time>2021-09-05T07:58:18Z</time>
      </trkpt>
      <trkpt lat="42.650290" lon="0.436225">
        <ele>3196.000000</ele>
        <time>2021-09-05T07:58:19Z</time>
      </trkpt>
      <trkpt lat="42.650288" lon="0.436232">
        <ele>3196.000000</ele>
        <time>2021-09-05T07:58:20Z</time>
      </trkpt>
      <trkpt lat="42.650283" lon="0.436238">
        <ele>3196.000000</ele>
        <time>2021-09-05T07:58:21Z</time>
      </trkpt>
      <trkpt lat="42.650278" lon="0.436246">
        <ele>3196.000000</ele>
        <time>2021-09-05T07:58:22Z</time>
      </trkpt>
      <trkpt lat="42.650277" lon="0.436250">
        <ele>3196.000000</ele>
        <time>2021-09-05T07:58:23Z</time>
      </trkpt>
      <trkpt lat="42.650272" lon="0.436255">
        <ele>3196.000000</ele>
        <time>2021-09-05T07:58:24Z</time>
      </trkpt>
      <trkpt lat="42.650268" lon="0.436260">
        <ele>3196.000000</ele>
        <time>2021-09-05T07:58:25Z</time>
      </trkpt>
      <trkpt lat="42.650263" lon="0.436264">
        <ele>3196.000000</ele>
        <time>2021-09-05T07:58:26Z</time>
      </trkpt>
      <trkpt lat="42.650255" lon="0.436269">
        <ele>3196.000000</ele>
        <time>2021-09-05T07:58:27Z</time>
      </trkpt>
      <trkpt lat="42.650248" lon="0.436265">
        <ele>3196.000000</ele>
        <time>2021-09-05T07:58:28Z</time>
      </trkpt>
      <trkpt lat="42.650245" lon="0.436260">
        <ele>3196.000000</ele>
        <time>2021-09-05T07:58:29Z</time>
      </trkpt>
      <trkpt lat="42.650243" lon="0.436255">
        <ele>3196.000000</ele>
        <time>2021-09-05T07:58:30Z</time>
      </trkpt>
      <trkpt lat="42.650238" lon="0.436250">
        <ele>3196.000000</ele>
        <time>2021-09-05T07:58:31Z</time>
      </trkpt>
      <trkpt lat="42.650233" lon="0.436255">
        <ele>3196.000000</ele>
        <time>2021-09-05T07:58:33Z</time>
      </trkpt>
      <trkpt lat="42.650232" lon="0.436258">
        <ele>3195.000000</ele>
        <time>2021-09-05T07:58:34Z</time>
      </trkpt>
      <trkpt lat="42.650232" lon="0.436267">
        <ele>3195.000000</ele>
        <time>2021-09-05T07:58:35Z</time>
      </trkpt>
      <trkpt lat="42.650228" lon="0.436275">
        <ele>3195.000000</ele>
        <time>2021-09-05T07:58:36Z</time>
      </trkpt>
      <trkpt lat="42.650222" lon="0.436283">
        <ele>3195.000000</ele>
        <time>2021-09-05T07:58:37Z</time>
      </trkpt>
      <trkpt lat="42.650217" lon="0.436287">
        <ele>3195.000000</ele>
        <time>2021-09-05T07:58:38Z</time>
      </trkpt>
      <trkpt lat="42.650207" lon="0.436290">
        <ele>3195.000000</ele>
        <time>2021-09-05T07:58:40Z</time>
      </trkpt>
      <trkpt lat="42.650202" lon="0.436290">
        <ele>3195.000000</ele>
        <time>2021-09-05T07:58:40Z</time>
      </trkpt>
      <trkpt lat="42.650197" lon="0.436290">
        <ele>3195.000000</ele>
        <time>2021-09-05T07:58:41Z</time>
      </trkpt>
      <trkpt lat="42.650192" lon="0.436288">
        <ele>3195.000000</ele>
        <time>2021-09-05T07:58:42Z</time>
      </trkpt>
      <trkpt lat="42.650188" lon="0.436288">
        <ele>3195.000000</ele>
        <time>2021-09-05T07:58:43Z</time>
      </trkpt>
      <trkpt lat="42.650187" lon="0.436291">
        <ele>3194.000000</ele>
        <time>2021-09-05T07:58:44Z</time>
      </trkpt>
      <trkpt lat="42.650185" lon="0.436296">
        <ele>3194.000000</ele>
        <time>2021-09-05T07:58:45Z</time>
      </trkpt>
      <trkpt lat="42.650183" lon="0.436302">
        <ele>3194.000000</ele>
        <time>2021-09-05T07:58:46Z</time>
      </trkpt>
      <trkpt lat="42.650182" lon="0.436312">
        <ele>3194.000000</ele>
        <time>2021-09-05T07:58:47Z</time>
      </trkpt>
      <trkpt lat="42.650178" lon="0.436320">
        <ele>3194.000000</ele>
        <time>2021-09-05T07:58:48Z</time>
      </trkpt>
      <trkpt lat="42.650177" lon="0.436330">
        <ele>3194.000000</ele>
        <time>2021-09-05T07:58:49Z</time>
      </trkpt>
      <trkpt lat="42.650173" lon="0.436337">
        <ele>3194.000000</ele>
        <time>2021-09-05T07:58:50Z</time>
      </trkpt>
      <trkpt lat="42.650165" lon="0.436345">
        <ele>3193.000000</ele>
        <time>2021-09-05T07:58:51Z</time>
      </trkpt>
      <trkpt lat="42.650158" lon="0.436348">
        <ele>3193.000000</ele>
        <time>2021-09-05T07:58:52Z</time>
      </trkpt>
      <trkpt lat="42.650152" lon="0.436350">
        <ele>3193.000000</ele>
        <time>2021-09-05T07:58:53Z</time>
      </trkpt>
      <trkpt lat="42.650145" lon="0.436347">
        <ele>3193.000000</ele>
        <time>2021-09-05T07:58:54Z</time>
      </trkpt>
      <trkpt lat="42.650142" lon="0.436338">
        <ele>3192.000000</ele>
        <time>2021-09-05T07:58:55Z</time>
      </trkpt>
      <trkpt lat="42.650137" lon="0.436332">
        <ele>3192.000000</ele>
        <time>2021-09-05T07:58:56Z</time>
      </trkpt>
      <trkpt lat="42.650133" lon="0.436328">
        <ele>3192.000000</ele>
        <time>2021-09-05T07:58:57Z</time>
      </trkpt>
      <trkpt lat="42.650128" lon="0.436325">
        <ele>3192.000000</ele>
        <time>2021-09-05T07:58:58Z</time>
      </trkpt>
      <trkpt lat="42.650125" lon="0.436322">
        <ele>3191.000000</ele>
        <time>2021-09-05T07:59:00Z</time>
      </trkpt>
      <trkpt lat="42.650120" lon="0.436318">
        <ele>3191.000000</ele>
        <time>2021-09-05T07:59:00Z</time>
      </trkpt>
      <trkpt lat="42.650117" lon="0.436318">
        <ele>3191.000000</ele>
        <time>2021-09-05T07:59:01Z</time>
      </trkpt>
      <trkpt lat="42.650113" lon="0.436323">
        <ele>3191.000000</ele>
        <time>2021-09-05T07:59:02Z</time>
      </trkpt>
      <trkpt lat="42.650113" lon="0.436330">
        <ele>3191.000000</ele>
        <time>2021-09-05T07:59:03Z</time>
      </trkpt>
      <trkpt lat="42.650113" lon="0.436337">
        <ele>3191.000000</ele>
        <time>2021-09-05T07:59:04Z</time>
      </trkpt>
      <trkpt lat="42.650108" lon="0.436347">
        <ele>3191.000000</ele>
        <time>2021-09-05T07:59:05Z</time>
      </trkpt>
      <trkpt lat="42.650102" lon="0.436350">
        <ele>3191.000000</ele>
        <time>2021-09-05T07:59:06Z</time>
      </trkpt>
      <trkpt lat="42.650097" lon="0.436353">
        <ele>3191.000000</ele>
        <time>2021-09-05T07:59:07Z</time>
      </trkpt>
      <trkpt lat="42.650092" lon="0.436357">
        <ele>3190.000000</ele>
        <time>2021-09-05T07:59:08Z</time>
      </trkpt>
      <trkpt lat="42.650088" lon="0.436359">
        <ele>3190.000000</ele>
        <time>2021-09-05T07:59:09Z</time>
      </trkpt>
      <trkpt lat="42.650085" lon="0.436360">
        <ele>3190.000000</ele>
        <time>2021-09-05T07:59:10Z</time>
      </trkpt>
      <trkpt lat="42.650080" lon="0.436355">
        <ele>3190.000000</ele>
        <time>2021-09-05T07:59:11Z</time>
      </trkpt>
      <trkpt lat="42.650077" lon="0.436347">
        <ele>3190.000000</ele>
        <time>2021-09-05T07:59:12Z</time>
      </trkpt>
      <trkpt lat="42.650073" lon="0.436343">
        <ele>3190.000000</ele>
        <time>2021-09-05T07:59:13Z</time>
      </trkpt>
      <trkpt lat="42.650068" lon="0.436338">
        <ele>3190.000000</ele>
        <time>2021-09-05T07:59:14Z</time>
      </trkpt>
      <trkpt lat="42.650063" lon="0.436332">
        <ele>3190.000000</ele>
        <time>2021-09-05T07:59:15Z</time>
      </trkpt>
      <trkpt lat="42.650057" lon="0.436325">
        <ele>3190.000000</ele>
        <time>2021-09-05T07:59:16Z</time>
      </trkpt>
      <trkpt lat="42.650053" lon="0.436328">
        <ele>3190.000000</ele>
        <time>2021-09-05T07:59:17Z</time>
      </trkpt>
      <trkpt lat="42.650052" lon="0.436330">
        <ele>3190.000000</ele>
        <time>2021-09-05T07:59:18Z</time>
      </trkpt>
      <trkpt lat="42.650050" lon="0.436333">
        <ele>3190.000000</ele>
        <time>2021-09-05T07:59:19Z</time>
      </trkpt>
      <trkpt lat="42.650043" lon="0.436343">
        <ele>3189.000000</ele>
        <time>2021-09-05T07:59:20Z</time>
      </trkpt>
      <trkpt lat="42.650038" lon="0.436340">
        <ele>3189.000000</ele>
        <time>2021-09-05T07:59:21Z</time>
      </trkpt>
      <trkpt lat="42.650030" lon="0.436337">
        <ele>3189.000000</ele>
        <time>2021-09-05T07:59:22Z</time>
      </trkpt>
      <trkpt lat="42.650025" lon="0.436332">
        <ele>3189.000000</ele>
        <time>2021-09-05T07:59:24Z</time>
      </trkpt>
      <trkpt lat="42.650017" lon="0.436337">
        <ele>3189.000000</ele>
        <time>2021-09-05T07:59:24Z</time>
      </trkpt>
      <trkpt lat="42.650013" lon="0.436342">
        <ele>3189.000000</ele>
        <time>2021-09-05T07:59:25Z</time>
      </trkpt>
      <trkpt lat="42.650012" lon="0.436346">
        <ele>3188.000000</ele>
        <time>2021-09-05T07:59:26Z</time>
      </trkpt>
      <trkpt lat="42.650015" lon="0.436353">
        <ele>3188.000000</ele>
        <time>2021-09-05T07:59:27Z</time>
      </trkpt>
      <trkpt lat="42.650017" lon="0.436362">
        <ele>3188.000000</ele>
        <time>2021-09-05T07:59:28Z</time>
      </trkpt>
      <trkpt lat="42.650017" lon="0.436370">
        <ele>3188.000000</ele>
        <time>2021-09-05T07:59:29Z</time>
      </trkpt>
      <trkpt lat="42.650010" lon="0.436373">
        <ele>3188.000000</ele>
        <time>2021-09-05T07:59:30Z</time>
      </trkpt>
      <trkpt lat="42.650003" lon="0.436372">
        <ele>3188.000000</ele>
        <time>2021-09-05T07:59:31Z</time>
      </trkpt>
      <trkpt lat="42.650000" lon="0.436373">
        <ele>3188.000000</ele>
        <time>2021-09-05T07:59:32Z</time>
      </trkpt>
      <trkpt lat="42.650000" lon="0.436370">
        <ele>3188.000000</ele>
        <time>2021-09-05T07:59:33Z</time>
      </trkpt>
      <trkpt lat="42.650000" lon="0.436367">
        <ele>3188.000000</ele>
        <time>2021-09-05T07:59:34Z</time>
      </trkpt>
      <trkpt lat="42.649997" lon="0.436364">
        <ele>3187.000000</ele>
        <time>2021-09-05T07:59:35Z</time>
      </trkpt>
      <trkpt lat="42.649993" lon="0.436360">
        <ele>3187.000000</ele>
        <time>2021-09-05T07:59:36Z</time>
      </trkpt>
      <trkpt lat="42.649988" lon="0.436355">
        <ele>3187.000000</ele>
        <time>2021-09-05T07:59:37Z</time>
      </trkpt>
      <trkpt lat="42.649987" lon="0.436352">
        <ele>3187.000000</ele>
        <time>2021-09-05T07:59:38Z</time>
      </trkpt>
      <trkpt lat="42.649980" lon="0.436347">
        <ele>3187.000000</ele>
        <time>2021-09-05T07:59:39Z</time>
      </trkpt>
      <trkpt lat="42.649980" lon="0.436344">
        <ele>3186.000000</ele>
        <time>2021-09-05T07:59:40Z</time>
      </trkpt>
      <trkpt lat="42.649975" lon="0.436340">
        <ele>3186.000000</ele>
        <time>2021-09-05T07:59:41Z</time>
      </trkpt>
      <trkpt lat="42.649970" lon="0.436339">
        <ele>3186.000000</ele>
        <time>2021-09-05T07:59:42Z</time>
      </trkpt>
      <trkpt lat="42.649963" lon="0.436338">
        <ele>3186.000000</ele>
        <time>2021-09-05T07:59:43Z</time>
      </trkpt>
      <trkpt lat="42.649957" lon="0.436337">
        <ele>3186.000000</ele>
        <time>2021-09-05T07:59:44Z</time>
      </trkpt>
      <trkpt lat="42.649952" lon="0.436336">
        <ele>3185.000000</ele>
        <time>2021-09-05T07:59:45Z</time>
      </trkpt>
      <trkpt lat="42.649948" lon="0.436333">
        <ele>3185.000000</ele>
        <time>2021-09-05T07:59:46Z</time>
      </trkpt>
      <trkpt lat="42.649943" lon="0.436327">
        <ele>3185.000000</ele>
        <time>2021-09-05T07:59:48Z</time>
      </trkpt>
      <trkpt lat="42.649940" lon="0.436323">
        <ele>3185.000000</ele>
        <time>2021-09-05T07:59:48Z</time>
      </trkpt>
      <trkpt lat="42.649937" lon="0.436319">
        <ele>3185.000000</ele>
        <time>2021-09-05T07:59:49Z</time>
      </trkpt>
      <trkpt lat="42.649935" lon="0.436317">
        <ele>3185.000000</ele>
        <time>2021-09-05T07:59:50Z</time>
      </trkpt>
      <trkpt lat="42.649930" lon="0.436311">
        <ele>3185.000000</ele>
        <time>2021-09-05T07:59:51Z</time>
      </trkpt>
      <trkpt lat="42.649925" lon="0.436307">
        <ele>3185.000000</ele>
        <time>2021-09-05T07:59:52Z</time>
      </trkpt>
      <trkpt lat="42.649925" lon="0.436306">
        <ele>3185.000000</ele>
        <time>2021-09-05T07:59:53Z</time>
      </trkpt>
      <trkpt lat="42.649922" lon="0.436303">
        <ele>3185.000000</ele>
        <time>2021-09-05T07:59:54Z</time>
      </trkpt>
      <trkpt lat="42.649918" lon="0.436300">
        <ele>3184.000000</ele>
        <time>2021-09-05T07:59:57Z</time>
      </trkpt>
      <trkpt lat="42.649915" lon="0.436297">
        <ele>3184.000000</ele>
        <time>2021-09-05T07:59:58Z</time>
      </trkpt>
      <trkpt lat="42.649910" lon="0.436300">
        <ele>3184.000000</ele>
        <time>2021-09-05T07:59:59Z</time>
      </trkpt>
      <trkpt lat="42.649907" lon="0.436302">
        <ele>3184.000000</ele>
        <time>2021-09-05T08:00:00Z</time>
      </trkpt>
      <trkpt lat="42.649902" lon="0.436303">
        <ele>3184.000000</ele>
        <time>2021-09-05T08:00:01Z</time>
      </trkpt>
      <trkpt lat="42.649897" lon="0.436307">
        <ele>3184.000000</ele>
        <time>2021-09-05T08:00:02Z</time>
      </trkpt>
      <trkpt lat="42.649893" lon="0.436310">
        <ele>3184.000000</ele>
        <time>2021-09-05T08:00:03Z</time>
      </trkpt>
      <trkpt lat="42.649888" lon="0.436315">
        <ele>3184.000000</ele>
        <time>2021-09-05T08:00:04Z</time>
      </trkpt>
      <trkpt lat="42.649887" lon="0.436320">
        <ele>3184.000000</ele>
        <time>2021-09-05T08:00:05Z</time>
      </trkpt>
      <trkpt lat="42.649885" lon="0.436330">
        <ele>3184.000000</ele>
        <time>2021-09-05T08:00:06Z</time>
      </trkpt>
      <trkpt lat="42.649883" lon="0.436340">
        <ele>3184.000000</ele>
        <time>2021-09-05T08:00:08Z</time>
      </trkpt>
      <trkpt lat="42.649878" lon="0.436350">
        <ele>3184.000000</ele>
        <time>2021-09-05T08:00:08Z</time>
      </trkpt>
      <trkpt lat="42.649877" lon="0.436360">
        <ele>3184.000000</ele>
        <time>2021-09-05T08:00:09Z</time>
      </trkpt>
      <trkpt lat="42.649872" lon="0.436367">
        <ele>3184.000000</ele>
        <time>2021-09-05T08:00:10Z</time>
      </trkpt>
      <trkpt lat="42.649869" lon="0.436373">
        <ele>3184.000000</ele>
        <time>2021-09-05T08:00:11Z</time>
      </trkpt>
      <trkpt lat="42.649864" lon="0.436382">
        <ele>3185.000000</ele>
        <time>2021-09-05T08:00:12Z</time>
      </trkpt>
      <trkpt lat="42.649860" lon="0.436387">
        <ele>3185.000000</ele>
        <time>2021-09-05T08:00:13Z</time>
      </trkpt>
      <trkpt lat="42.649857" lon="0.436390">
        <ele>3185.000000</ele>
        <time>2021-09-05T08:00:15Z</time>
      </trkpt>
      <trkpt lat="42.649856" lon="0.436392">
        <ele>3185.000000</ele>
        <time>2021-09-05T08:00:16Z</time>
      </trkpt>
      <trkpt lat="42.649853" lon="0.436397">
        <ele>3185.000000</ele>
        <time>2021-09-05T08:00:17Z</time>
      </trkpt>
      <trkpt lat="42.649850" lon="0.436400">
        <ele>3185.000000</ele>
        <time>2021-09-05T08:00:18Z</time>
      </trkpt>
      <trkpt lat="42.649840" lon="0.436403">
        <ele>3184.000000</ele>
        <time>2021-09-05T08:00:19Z</time>
      </trkpt>
      <trkpt lat="42.649833" lon="0.436398">
        <ele>3184.000000</ele>
        <time>2021-09-05T08:00:20Z</time>
      </trkpt>
      <trkpt lat="42.649830" lon="0.436390">
        <ele>3184.000000</ele>
        <time>2021-09-05T08:00:21Z</time>
      </trkpt>
      <trkpt lat="42.649827" lon="0.436380">
        <ele>3184.000000</ele>
        <time>2021-09-05T08:00:22Z</time>
      </trkpt>
      <trkpt lat="42.649827" lon="0.436372">
        <ele>3184.000000</ele>
        <time>2021-09-05T08:00:23Z</time>
      </trkpt>
      <trkpt lat="42.649825" lon="0.436363">
        <ele>3184.000000</ele>
        <time>2021-09-05T08:00:24Z</time>
      </trkpt>
      <trkpt lat="42.649827" lon="0.436353">
        <ele>3183.000000</ele>
        <time>2021-09-05T08:00:25Z</time>
      </trkpt>
      <trkpt lat="42.649825" lon="0.436343">
        <ele>3183.000000</ele>
        <time>2021-09-05T08:00:25Z</time>
      </trkpt>
      <trkpt lat="42.649822" lon="0.436340">
        <ele>3183.000000</ele>
        <time>2021-09-05T08:00:26Z</time>
      </trkpt>
      <trkpt lat="42.649820" lon="0.436333">
        <ele>3183.000000</ele>
        <time>2021-09-05T08:00:27Z</time>
      </trkpt>
      <trkpt lat="42.649822" lon="0.436338">
        <ele>3182.000000</ele>
        <time>2021-09-05T08:00:29Z</time>
      </trkpt>
      <trkpt lat="42.649823" lon="0.436343">
        <ele>3182.000000</ele>
        <time>2021-09-05T08:00:30Z</time>
      </trkpt>
      <trkpt lat="42.649815" lon="0.436345">
        <ele>3182.000000</ele>
        <time>2021-09-05T08:00:32Z</time>
      </trkpt>
      <trkpt lat="42.649808" lon="0.436348">
        <ele>3182.000000</ele>
        <time>2021-09-05T08:00:32Z</time>
      </trkpt>
      <trkpt lat="42.649802" lon="0.436348">
        <ele>3181.000000</ele>
        <time>2021-09-05T08:00:33Z</time>
      </trkpt>
      <trkpt lat="42.649797" lon="0.436348">
        <ele>3181.000000</ele>
        <time>2021-09-05T08:00:34Z</time>
      </trkpt>
      <trkpt lat="42.649793" lon="0.436353">
        <ele>3181.000000</ele>
        <time>2021-09-05T08:00:35Z</time>
      </trkpt>
      <trkpt lat="42.649793" lon="0.436360">
        <ele>3180.000000</ele>
        <time>2021-09-05T08:00:36Z</time>
      </trkpt>
      <trkpt lat="42.649788" lon="0.436360">
        <ele>3180.000000</ele>
        <time>2021-09-05T08:00:37Z</time>
      </trkpt>
      <trkpt lat="42.649785" lon="0.436356">
        <ele>3180.000000</ele>
        <time>2021-09-05T08:00:38Z</time>
      </trkpt>
      <trkpt lat="42.649780" lon="0.436354">
        <ele>3180.000000</ele>
        <time>2021-09-05T08:00:39Z</time>
      </trkpt>
      <trkpt lat="42.649775" lon="0.436356">
        <ele>3179.000000</ele>
        <time>2021-09-05T08:00:40Z</time>
      </trkpt>
      <trkpt lat="42.649770" lon="0.436359">
        <ele>3179.000000</ele>
        <time>2021-09-05T08:00:41Z</time>
      </trkpt>
      <trkpt lat="42.649772" lon="0.436358">
        <ele>3179.000000</ele>
        <time>2021-09-05T08:00:43Z</time>
      </trkpt>
      <trkpt lat="42.649773" lon="0.436357">
        <ele>3179.000000</ele>
        <time>2021-09-05T08:00:44Z</time>
      </trkpt>
      <trkpt lat="42.649770" lon="0.436353">
        <ele>3179.000000</ele>
        <time>2021-09-05T08:00:46Z</time>
      </trkpt>
      <trkpt lat="42.649767" lon="0.436338">
        <ele>3179.000000</ele>
        <time>2021-09-05T08:00:47Z</time>
      </trkpt>
      <trkpt lat="42.649763" lon="0.436335">
        <ele>3179.000000</ele>
        <time>2021-09-05T08:00:48Z</time>
      </trkpt>
      <trkpt lat="42.649757" lon="0.436332">
        <ele>3179.000000</ele>
        <time>2021-09-05T08:00:49Z</time>
      </trkpt>
      <trkpt lat="42.649755" lon="0.436329">
        <ele>3179.000000</ele>
        <time>2021-09-05T08:00:50Z</time>
      </trkpt>
      <trkpt lat="42.649752" lon="0.436333">
        <ele>3179.000000</ele>
        <time>2021-09-05T08:00:52Z</time>
      </trkpt>
      <trkpt lat="42.649747" lon="0.436342">
        <ele>3179.000000</ele>
        <time>2021-09-05T08:00:52Z</time>
      </trkpt>
      <trkpt lat="42.649742" lon="0.436347">
        <ele>3179.000000</ele>
        <time>2021-09-05T08:00:53Z</time>
      </trkpt>
      <trkpt lat="42.649738" lon="0.436350">
        <ele>3179.000000</ele>
        <time>2021-09-05T08:00:54Z</time>
      </trkpt>
      <trkpt lat="42.649730" lon="0.436351">
        <ele>3179.000000</ele>
        <time>2021-09-05T08:00:55Z</time>
      </trkpt>
      <trkpt lat="42.649725" lon="0.436348">
        <ele>3178.000000</ele>
        <time>2021-09-05T08:00:56Z</time>
      </trkpt>
      <trkpt lat="42.649720" lon="0.436343">
        <ele>3178.000000</ele>
        <time>2021-09-05T08:00:57Z</time>
      </trkpt>
      <trkpt lat="42.649715" lon="0.436343">
        <ele>3178.000000</ele>
        <time>2021-09-05T08:00:58Z</time>
      </trkpt>
      <trkpt lat="42.649708" lon="0.436343">
        <ele>3178.000000</ele>
        <time>2021-09-05T08:00:59Z</time>
      </trkpt>
      <trkpt lat="42.649707" lon="0.436345">
        <ele>3177.000000</ele>
        <time>2021-09-05T08:01:00Z</time>
      </trkpt>
      <trkpt lat="42.649707" lon="0.436350">
        <ele>3177.000000</ele>
        <time>2021-09-05T08:01:01Z</time>
      </trkpt>
      <trkpt lat="42.649700" lon="0.436355">
        <ele>3177.000000</ele>
        <time>2021-09-05T08:01:02Z</time>
      </trkpt>
      <trkpt lat="42.649697" lon="0.436358">
        <ele>3177.000000</ele>
        <time>2021-09-05T08:01:03Z</time>
      </trkpt>
      <trkpt lat="42.649693" lon="0.436365">
        <ele>3177.000000</ele>
        <time>2021-09-05T08:01:04Z</time>
      </trkpt>
      <trkpt lat="42.649683" lon="0.436372">
        <ele>3177.000000</ele>
        <time>2021-09-05T08:01:05Z</time>
      </trkpt>
      <trkpt lat="42.649673" lon="0.436374">
        <ele>3177.000000</ele>
        <time>2021-09-05T08:01:06Z</time>
      </trkpt>
      <trkpt lat="42.649668" lon="0.436372">
        <ele>3177.000000</ele>
        <time>2021-09-05T08:01:07Z</time>
      </trkpt>
      <trkpt lat="42.649665" lon="0.436365">
        <ele>3176.000000</ele>
        <time>2021-09-05T08:01:08Z</time>
      </trkpt>
      <trkpt lat="42.649660" lon="0.436358">
        <ele>3176.000000</ele>
        <time>2021-09-05T08:01:09Z</time>
      </trkpt>
      <trkpt lat="42.649658" lon="0.436357">
        <ele>3176.000000</ele>
        <time>2021-09-05T08:01:10Z</time>
      </trkpt>
      <trkpt lat="42.649655" lon="0.436357">
        <ele>3176.000000</ele>
        <time>2021-09-05T08:01:11Z</time>
      </trkpt>
      <trkpt lat="42.649652" lon="0.436361">
        <ele>3176.000000</ele>
        <time>2021-09-05T08:01:12Z</time>
      </trkpt>
      <trkpt lat="42.649648" lon="0.436367">
        <ele>3175.000000</ele>
        <time>2021-09-05T08:01:13Z</time>
      </trkpt>
      <trkpt lat="42.649643" lon="0.436372">
        <ele>3175.000000</ele>
        <time>2021-09-05T08:01:14Z</time>
      </trkpt>
      <trkpt lat="42.649638" lon="0.436378">
        <ele>3175.000000</ele>
        <time>2021-09-05T08:01:16Z</time>
      </trkpt>
      <trkpt lat="42.649633" lon="0.436383">
        <ele>3175.000000</ele>
        <time>2021-09-05T08:01:16Z</time>
      </trkpt>
      <trkpt lat="42.649630" lon="0.436390">
        <ele>3175.000000</ele>
        <time>2021-09-05T08:01:17Z</time>
      </trkpt>
      <trkpt lat="42.649625" lon="0.436398">
        <ele>3175.000000</ele>
        <time>2021-09-05T08:01:18Z</time>
      </trkpt>
      <trkpt lat="42.649623" lon="0.436402">
        <ele>3174.000000</ele>
        <time>2021-09-05T08:01:19Z</time>
      </trkpt>
      <trkpt lat="42.649622" lon="0.436405">
        <ele>3174.000000</ele>
        <time>2021-09-05T08:01:20Z</time>
      </trkpt>
      <trkpt lat="42.649623" lon="0.436403">
        <ele>3173.000000</ele>
        <time>2021-09-05T08:01:23Z</time>
      </trkpt>
      <trkpt lat="42.649627" lon="0.436397">
        <ele>3173.000000</ele>
        <time>2021-09-05T08:01:26Z</time>
      </trkpt>
      <trkpt lat="42.649623" lon="0.436403">
        <ele>3172.000000</ele>
        <time>2021-09-05T08:01:28Z</time>
      </trkpt>
      <trkpt lat="42.649487" lon="0.436340">
        <ele>3171.000000</ele>
        <time>2021-09-05T08:02:15Z</time>
      </trkpt>
      <trkpt lat="42.649482" lon="0.436341">
        <ele>3171.000000</ele>
        <time>2021-09-05T08:02:16Z</time>
      </trkpt>
      <trkpt lat="42.649475" lon="0.436343">
        <ele>3170.000000</ele>
        <time>2021-09-05T08:02:17Z</time>
      </trkpt>
      <trkpt lat="42.649470" lon="0.436343">
        <ele>3170.000000</ele>
        <time>2021-09-05T08:02:18Z</time>
      </trkpt>
      <trkpt lat="42.649465" lon="0.436342">
        <ele>3170.000000</ele>
        <time>2021-09-05T08:02:19Z</time>
      </trkpt>
      <trkpt lat="42.649460" lon="0.436341">
        <ele>3170.000000</ele>
        <time>2021-09-05T08:02:20Z</time>
      </trkpt>
      <trkpt lat="42.649453" lon="0.436342">
        <ele>3170.000000</ele>
        <time>2021-09-05T08:02:21Z</time>
      </trkpt>
      <trkpt lat="42.649448" lon="0.436343">
        <ele>3170.000000</ele>
        <time>2021-09-05T08:02:22Z</time>
      </trkpt>
      <trkpt lat="42.649445" lon="0.436343">
        <ele>3169.000000</ele>
        <time>2021-09-05T08:02:23Z</time>
      </trkpt>
      <trkpt lat="42.649440" lon="0.436344">
        <ele>3169.000000</ele>
        <time>2021-09-05T08:02:25Z</time>
      </trkpt>
      <trkpt lat="42.649433" lon="0.436350">
        <ele>3169.000000</ele>
        <time>2021-09-05T08:02:25Z</time>
      </trkpt>
      <trkpt lat="42.649428" lon="0.436357">
        <ele>3169.000000</ele>
        <time>2021-09-05T08:02:26Z</time>
      </trkpt>
      <trkpt lat="42.649422" lon="0.436362">
        <ele>3169.000000</ele>
        <time>2021-09-05T08:02:27Z</time>
      </trkpt>
      <trkpt lat="42.649417" lon="0.436361">
        <ele>3169.000000</ele>
        <time>2021-09-05T08:02:28Z</time>
      </trkpt>
      <trkpt lat="42.649410" lon="0.436360">
        <ele>3168.000000</ele>
        <time>2021-09-05T08:02:29Z</time>
      </trkpt>
      <trkpt lat="42.649403" lon="0.436358">
        <ele>3168.000000</ele>
        <time>2021-09-05T08:02:30Z</time>
      </trkpt>
      <trkpt lat="42.649405" lon="0.436357">
        <ele>3168.000000</ele>
        <time>2021-09-05T08:02:31Z</time>
      </trkpt>
      <trkpt lat="42.649402" lon="0.436353">
        <ele>3168.000000</ele>
        <time>2021-09-05T08:02:32Z</time>
      </trkpt>
      <trkpt lat="42.649398" lon="0.436354">
        <ele>3168.000000</ele>
        <time>2021-09-05T08:02:33Z</time>
      </trkpt>
      <trkpt lat="42.649393" lon="0.436357">
        <ele>3168.000000</ele>
        <time>2021-09-05T08:02:36Z</time>
      </trkpt>
      <trkpt lat="42.649392" lon="0.436360">
        <ele>3168.000000</ele>
        <time>2021-09-05T08:02:37Z</time>
      </trkpt>
      <trkpt lat="42.649388" lon="0.436356">
        <ele>3167.000000</ele>
        <time>2021-09-05T08:02:40Z</time>
      </trkpt>
      <trkpt lat="42.649385" lon="0.436353">
        <ele>3167.000000</ele>
        <time>2021-09-05T08:02:41Z</time>
      </trkpt>
      <trkpt lat="42.649382" lon="0.436357">
        <ele>3167.000000</ele>
        <time>2021-09-05T08:02:42Z</time>
      </trkpt>
      <trkpt lat="42.649378" lon="0.436353">
        <ele>3167.000000</ele>
        <time>2021-09-05T08:02:43Z</time>
      </trkpt>
      <trkpt lat="42.649377" lon="0.436350">
        <ele>3167.000000</ele>
        <time>2021-09-05T08:02:44Z</time>
      </trkpt>
      <trkpt lat="42.649378" lon="0.436343">
        <ele>3167.000000</ele>
        <time>2021-09-05T08:02:45Z</time>
      </trkpt>
      <trkpt lat="42.649382" lon="0.436338">
        <ele>3167.000000</ele>
        <time>2021-09-05T08:02:46Z</time>
      </trkpt>
      <trkpt lat="42.649380" lon="0.436337">
        <ele>3166.000000</ele>
        <time>2021-09-05T08:02:48Z</time>
      </trkpt>
      <trkpt lat="42.649377" lon="0.436335">
        <ele>3166.000000</ele>
        <time>2021-09-05T08:02:49Z</time>
      </trkpt>
      <trkpt lat="42.649372" lon="0.436337">
        <ele>3166.000000</ele>
        <time>2021-09-05T08:02:50Z</time>
      </trkpt>
      <trkpt lat="42.649367" lon="0.436333">
        <ele>3165.000000</ele>
        <time>2021-09-05T08:02:51Z</time>
      </trkpt>
      <trkpt lat="42.649362" lon="0.436332">
        <ele>3165.000000</ele>
        <time>2021-09-05T08:02:52Z</time>
      </trkpt>
      <trkpt lat="42.649360" lon="0.436333">
        <ele>3165.000000</ele>
        <time>2021-09-05T08:02:53Z</time>
      </trkpt>
      <trkpt lat="42.649353" lon="0.436338">
        <ele>3164.000000</ele>
        <time>2021-09-05T08:02:54Z</time>
      </trkpt>
      <trkpt lat="42.649347" lon="0.436343">
        <ele>3164.000000</ele>
        <time>2021-09-05T08:02:55Z</time>
      </trkpt>
      <trkpt lat="42.649342" lon="0.436347">
        <ele>3163.000000</ele>
        <time>2021-09-05T08:02:56Z</time>
      </trkpt>
      <trkpt lat="42.649340" lon="0.436348">
        <ele>3163.000000</ele>
        <time>2021-09-05T08:02:57Z</time>
      </trkpt>
      <trkpt lat="42.649333" lon="0.436357">
        <ele>3163.000000</ele>
        <time>2021-09-05T08:02:58Z</time>
      </trkpt>
      <trkpt lat="42.649330" lon="0.436363">
        <ele>3163.000000</ele>
        <time>2021-09-05T08:02:59Z</time>
      </trkpt>
      <trkpt lat="42.649328" lon="0.436367">
        <ele>3163.000000</ele>
        <time>2021-09-05T08:03:00Z</time>
      </trkpt>
      <trkpt lat="42.649327" lon="0.436365">
        <ele>3163.000000</ele>
        <time>2021-09-05T08:03:01Z</time>
      </trkpt>
      <trkpt lat="42.649325" lon="0.436363">
        <ele>3163.000000</ele>
        <time>2021-09-05T08:03:02Z</time>
      </trkpt>
      <trkpt lat="42.649320" lon="0.436357">
        <ele>3163.000000</ele>
        <time>2021-09-05T08:03:03Z</time>
      </trkpt>
      <trkpt lat="42.649318" lon="0.436358">
        <ele>3163.000000</ele>
        <time>2021-09-05T08:03:04Z</time>
      </trkpt>
      <trkpt lat="42.649317" lon="0.436355">
        <ele>3162.000000</ele>
        <time>2021-09-05T08:03:05Z</time>
      </trkpt>
      <trkpt lat="42.649315" lon="0.436352">
        <ele>3162.000000</ele>
        <time>2021-09-05T08:03:07Z</time>
      </trkpt>
      <trkpt lat="42.649313" lon="0.436347">
        <ele>3162.000000</ele>
        <time>2021-09-05T08:03:08Z</time>
      </trkpt>
      <trkpt lat="42.649315" lon="0.436348">
        <ele>3161.000000</ele>
        <time>2021-09-05T08:03:10Z</time>
      </trkpt>
      <trkpt lat="42.649317" lon="0.436347">
        <ele>3161.000000</ele>
        <time>2021-09-05T08:03:10Z</time>
      </trkpt>
      <trkpt lat="42.649320" lon="0.436348">
        <ele>3161.000000</ele>
        <time>2021-09-05T08:03:11Z</time>
      </trkpt>
      <trkpt lat="42.649318" lon="0.436348">
        <ele>3161.000000</ele>
        <time>2021-09-05T08:03:12Z</time>
      </trkpt>
      <trkpt lat="42.649318" lon="0.436348">
        <ele>3160.000000</ele>
        <time>2021-09-05T08:03:14Z</time>
      </trkpt>
      <trkpt lat="42.649313" lon="0.436347">
        <ele>3160.000000</ele>
        <time>2021-09-05T08:03:15Z</time>
      </trkpt>
      <trkpt lat="42.649310" lon="0.436349">
        <ele>3160.000000</ele>
        <time>2021-09-05T08:03:17Z</time>
      </trkpt>
      <trkpt lat="42.649308" lon="0.436348">
        <ele>3159.000000</ele>
        <time>2021-09-05T08:03:19Z</time>
      </trkpt>
      <trkpt lat="42.649307" lon="0.436346">
        <ele>3159.000000</ele>
        <time>2021-09-05T08:03:20Z</time>
      </trkpt>
      <trkpt lat="42.649305" lon="0.436344">
        <ele>3159.000000</ele>
        <time>2021-09-05T08:03:21Z</time>
      </trkpt>
      <trkpt lat="42.649303" lon="0.436342">
        <ele>3159.000000</ele>
        <time>2021-09-05T08:03:22Z</time>
      </trkpt>
      <trkpt lat="42.649302" lon="0.436341">
        <ele>3159.000000</ele>
        <time>2021-09-05T08:03:23Z</time>
      </trkpt>
      <trkpt lat="42.649297" lon="0.436337">
        <ele>3159.000000</ele>
        <time>2021-09-05T08:03:25Z</time>
      </trkpt>
      <trkpt lat="42.649293" lon="0.436336">
        <ele>3159.000000</ele>
        <time>2021-09-05T08:03:26Z</time>
      </trkpt>
      <trkpt lat="42.649288" lon="0.436334">
        <ele>3159.000000</ele>
        <time>2021-09-05T08:03:27Z</time>
      </trkpt>
      <trkpt lat="42.649285" lon="0.436332">
        <ele>3159.000000</ele>
        <time>2021-09-05T08:03:28Z</time>
      </trkpt>
      <trkpt lat="42.649285" lon="0.436331">
        <ele>3159.000000</ele>
        <time>2021-09-05T08:03:29Z</time>
      </trkpt>
      <trkpt lat="42.649288" lon="0.436325">
        <ele>3159.000000</ele>
        <time>2021-09-05T08:03:30Z</time>
      </trkpt>
      <trkpt lat="42.649290" lon="0.436317">
        <ele>3159.000000</ele>
        <time>2021-09-05T08:03:31Z</time>
      </trkpt>
      <trkpt lat="42.649285" lon="0.436318">
        <ele>3159.000000</ele>
        <time>2021-09-05T08:03:33Z</time>
      </trkpt>
      <trkpt lat="42.649282" lon="0.436325">
        <ele>3158.000000</ele>
        <time>2021-09-05T08:03:34Z</time>
      </trkpt>
      <trkpt lat="42.649277" lon="0.436328">
        <ele>3158.000000</ele>
        <time>2021-09-05T08:03:35Z</time>
      </trkpt>
      <trkpt lat="42.649270" lon="0.436330">
        <ele>3158.000000</ele>
        <time>2021-09-05T08:03:36Z</time>
      </trkpt>
      <trkpt lat="42.649267" lon="0.436332">
        <ele>3158.000000</ele>
        <time>2021-09-05T08:03:37Z</time>
      </trkpt>
      <trkpt lat="42.649260" lon="0.436332">
        <ele>3157.000000</ele>
        <time>2021-09-05T08:03:38Z</time>
      </trkpt>
      <trkpt lat="42.649250" lon="0.436332">
        <ele>3157.000000</ele>
        <time>2021-09-05T08:03:39Z</time>
      </trkpt>
      <trkpt lat="42.649243" lon="0.436331">
        <ele>3157.000000</ele>
        <time>2021-09-05T08:03:40Z</time>
      </trkpt>
      <trkpt lat="42.649233" lon="0.436330">
        <ele>3157.000000</ele>
        <time>2021-09-05T08:03:41Z</time>
      </trkpt>
      <trkpt lat="42.649225" lon="0.436329">
        <ele>3157.000000</ele>
        <time>2021-09-05T08:03:42Z</time>
      </trkpt>
      <trkpt lat="42.649220" lon="0.436327">
        <ele>3156.000000</ele>
        <time>2021-09-05T08:03:43Z</time>
      </trkpt>
      <trkpt lat="42.649217" lon="0.436325">
        <ele>3156.000000</ele>
        <time>2021-09-05T08:03:44Z</time>
      </trkpt>
      <trkpt lat="42.649210" lon="0.436322">
        <ele>3156.000000</ele>
        <time>2021-09-05T08:03:45Z</time>
      </trkpt>
      <trkpt lat="42.649208" lon="0.436321">
        <ele>3155.000000</ele>
        <time>2021-09-05T08:03:46Z</time>
      </trkpt>
      <trkpt lat="42.649203" lon="0.436320">
        <ele>3155.000000</ele>
        <time>2021-09-05T08:03:47Z</time>
      </trkpt>
      <trkpt lat="42.649195" lon="0.436320">
        <ele>3154.000000</ele>
        <time>2021-09-05T08:03:48Z</time>
      </trkpt>
      <trkpt lat="42.649188" lon="0.436319">
        <ele>3154.000000</ele>
        <time>2021-09-05T08:03:49Z</time>
      </trkpt>
      <trkpt lat="42.649185" lon="0.436318">
        <ele>3154.000000</ele>
        <time>2021-09-05T08:03:50Z</time>
      </trkpt>
      <trkpt lat="42.649182" lon="0.436316">
        <ele>3154.000000</ele>
        <time>2021-09-05T08:03:51Z</time>
      </trkpt>
      <trkpt lat="42.649178" lon="0.436305">
        <ele>3154.000000</ele>
        <time>2021-09-05T08:03:52Z</time>
      </trkpt>
      <trkpt lat="42.649177" lon="0.436300">
        <ele>3154.000000</ele>
        <time>2021-09-05T08:03:54Z</time>
      </trkpt>
      <trkpt lat="42.649173" lon="0.436298">
        <ele>3153.000000</ele>
        <time>2021-09-05T08:03:54Z</time>
      </trkpt>
      <trkpt lat="42.649170" lon="0.436299">
        <ele>3153.000000</ele>
        <time>2021-09-05T08:03:55Z</time>
      </trkpt>
      <trkpt lat="42.649167" lon="0.436300">
        <ele>3153.000000</ele>
        <time>2021-09-05T08:03:56Z</time>
      </trkpt>
      <trkpt lat="42.649163" lon="0.436303">
        <ele>3153.000000</ele>
        <time>2021-09-05T08:03:57Z</time>
      </trkpt>
      <trkpt lat="42.649162" lon="0.436308">
        <ele>3153.000000</ele>
        <time>2021-09-05T08:03:58Z</time>
      </trkpt>
      <trkpt lat="42.649160" lon="0.436313">
        <ele>3152.000000</ele>
        <time>2021-09-05T08:03:59Z</time>
      </trkpt>
      <trkpt lat="42.649157" lon="0.436318">
        <ele>3152.000000</ele>
        <time>2021-09-05T08:04:00Z</time>
      </trkpt>
      <trkpt lat="42.649148" lon="0.436322">
        <ele>3152.000000</ele>
        <time>2021-09-05T08:04:01Z</time>
      </trkpt>
      <trkpt lat="42.649143" lon="0.436321">
        <ele>3152.000000</ele>
        <time>2021-09-05T08:04:02Z</time>
      </trkpt>
      <trkpt lat="42.649137" lon="0.436321">
        <ele>3151.000000</ele>
        <time>2021-09-05T08:04:03Z</time>
      </trkpt>
      <trkpt lat="42.649132" lon="0.436317">
        <ele>3151.000000</ele>
        <time>2021-09-05T08:04:04Z</time>
      </trkpt>
      <trkpt lat="42.649128" lon="0.436313">
        <ele>3151.000000</ele>
        <time>2021-09-05T08:04:05Z</time>
      </trkpt>
      <trkpt lat="42.649123" lon="0.436317">
        <ele>3151.000000</ele>
        <time>2021-09-05T08:04:06Z</time>
      </trkpt>
      <trkpt lat="42.649118" lon="0.436320">
        <ele>3150.000000</ele>
        <time>2021-09-05T08:04:07Z</time>
      </trkpt>
      <trkpt lat="42.649115" lon="0.436320">
        <ele>3150.000000</ele>
        <time>2021-09-05T08:04:08Z</time>
      </trkpt>
      <trkpt lat="42.649112" lon="0.436322">
        <ele>3150.000000</ele>
        <time>2021-09-05T08:04:09Z</time>
      </trkpt>
      <trkpt lat="42.649103" lon="0.436327">
        <ele>3150.000000</ele>
        <time>2021-09-05T08:04:10Z</time>
      </trkpt>
      <trkpt lat="42.649098" lon="0.436327">
        <ele>3149.000000</ele>
        <time>2021-09-05T08:04:11Z</time>
      </trkpt>
      <trkpt lat="42.649093" lon="0.436328">
        <ele>3149.000000</ele>
        <time>2021-09-05T08:04:12Z</time>
      </trkpt>
      <trkpt lat="42.649092" lon="0.436327">
        <ele>3149.000000</ele>
        <time>2021-09-05T08:04:13Z</time>
      </trkpt>
      <trkpt lat="42.649090" lon="0.436328">
        <ele>3148.000000</ele>
        <time>2021-09-05T08:04:14Z</time>
      </trkpt>
      <trkpt lat="42.649085" lon="0.436329">
        <ele>3148.000000</ele>
        <time>2021-09-05T08:04:15Z</time>
      </trkpt>
      <trkpt lat="42.649080" lon="0.436329">
        <ele>3148.000000</ele>
        <time>2021-09-05T08:04:16Z</time>
      </trkpt>
      <trkpt lat="42.649077" lon="0.436330">
        <ele>3147.000000</ele>
        <time>2021-09-05T08:04:18Z</time>
      </trkpt>
      <trkpt lat="42.649072" lon="0.436330">
        <ele>3147.000000</ele>
        <time>2021-09-05T08:04:19Z</time>
      </trkpt>
      <trkpt lat="42.649070" lon="0.436331">
        <ele>3147.000000</ele>
        <time>2021-09-05T08:04:20Z</time>
      </trkpt>
      <trkpt lat="42.649067" lon="0.436333">
        <ele>3147.000000</ele>
        <time>2021-09-05T08:04:21Z</time>
      </trkpt>
      <trkpt lat="42.649063" lon="0.436334">
        <ele>3146.000000</ele>
        <time>2021-09-05T08:04:22Z</time>
      </trkpt>
      <trkpt lat="42.649058" lon="0.436336">
        <ele>3146.000000</ele>
        <time>2021-09-05T08:04:23Z</time>
      </trkpt>
      <trkpt lat="42.649055" lon="0.436337">
        <ele>3146.000000</ele>
        <time>2021-09-05T08:04:24Z</time>
      </trkpt>
      <trkpt lat="42.649048" lon="0.436337">
        <ele>3146.000000</ele>
        <time>2021-09-05T08:04:25Z</time>
      </trkpt>
      <trkpt lat="42.649043" lon="0.436336">
        <ele>3146.000000</ele>
        <time>2021-09-05T08:04:26Z</time>
      </trkpt>
      <trkpt lat="42.649038" lon="0.436330">
        <ele>3145.000000</ele>
        <time>2021-09-05T08:04:27Z</time>
      </trkpt>
      <trkpt lat="42.649033" lon="0.436331">
        <ele>3145.000000</ele>
        <time>2021-09-05T08:04:28Z</time>
      </trkpt>
      <trkpt lat="42.649027" lon="0.436330">
        <ele>3145.000000</ele>
        <time>2021-09-05T08:04:29Z</time>
      </trkpt>
      <trkpt lat="42.649023" lon="0.436331">
        <ele>3145.000000</ele>
        <time>2021-09-05T08:04:30Z</time>
      </trkpt>
      <trkpt lat="42.649018" lon="0.436334">
        <ele>3145.000000</ele>
        <time>2021-09-05T08:04:31Z</time>
      </trkpt>
      <trkpt lat="42.649013" lon="0.436343">
        <ele>3145.000000</ele>
        <time>2021-09-05T08:04:32Z</time>
      </trkpt>
      <trkpt lat="42.649010" lon="0.436342">
        <ele>3145.000000</ele>
        <time>2021-09-05T08:04:33Z</time>
      </trkpt>
      <trkpt lat="42.649002" lon="0.436341">
        <ele>3145.000000</ele>
        <time>2021-09-05T08:04:34Z</time>
      </trkpt>
      <trkpt lat="42.648997" lon="0.436339">
        <ele>3145.000000</ele>
        <time>2021-09-05T08:04:35Z</time>
      </trkpt>
      <trkpt lat="42.648993" lon="0.436342">
        <ele>3145.000000</ele>
        <time>2021-09-05T08:04:36Z</time>
      </trkpt>
      <trkpt lat="42.648990" lon="0.436343">
        <ele>3145.000000</ele>
        <time>2021-09-05T08:04:37Z</time>
      </trkpt>
      <trkpt lat="42.648985" lon="0.436343">
        <ele>3145.000000</ele>
        <time>2021-09-05T08:04:38Z</time>
      </trkpt>
      <trkpt lat="42.648982" lon="0.436342">
        <ele>3144.000000</ele>
        <time>2021-09-05T08:04:39Z</time>
      </trkpt>
      <trkpt lat="42.648977" lon="0.436342">
        <ele>3144.000000</ele>
        <time>2021-09-05T08:04:40Z</time>
      </trkpt>
      <trkpt lat="42.648977" lon="0.436340">
        <ele>3144.000000</ele>
        <time>2021-09-05T08:04:41Z</time>
      </trkpt>
      <trkpt lat="42.648973" lon="0.436336">
        <ele>3143.000000</ele>
        <time>2021-09-05T08:04:42Z</time>
      </trkpt>
      <trkpt lat="42.648972" lon="0.436325">
        <ele>3143.000000</ele>
        <time>2021-09-05T08:04:43Z</time>
      </trkpt>
      <trkpt lat="42.648972" lon="0.436322">
        <ele>3143.000000</ele>
        <time>2021-09-05T08:04:44Z</time>
      </trkpt>
      <trkpt lat="42.648973" lon="0.436318">
        <ele>3143.000000</ele>
        <time>2021-09-05T08:04:45Z</time>
      </trkpt>
      <trkpt lat="42.648977" lon="0.436313">
        <ele>3143.000000</ele>
        <time>2021-09-05T08:04:46Z</time>
      </trkpt>
      <trkpt lat="42.648978" lon="0.436303">
        <ele>3143.000000</ele>
        <time>2021-09-05T08:04:47Z</time>
      </trkpt>
      <trkpt lat="42.648977" lon="0.436298">
        <ele>3143.000000</ele>
        <time>2021-09-05T08:04:48Z</time>
      </trkpt>
      <trkpt lat="42.648975" lon="0.436295">
        <ele>3143.000000</ele>
        <time>2021-09-05T08:04:49Z</time>
      </trkpt>
      <trkpt lat="42.648972" lon="0.436287">
        <ele>3143.000000</ele>
        <time>2021-09-05T08:04:50Z</time>
      </trkpt>
      <trkpt lat="42.648970" lon="0.436278">
        <ele>3143.000000</ele>
        <time>2021-09-05T08:04:51Z</time>
      </trkpt>
      <trkpt lat="42.648968" lon="0.436268">
        <ele>3143.000000</ele>
        <time>2021-09-05T08:04:52Z</time>
      </trkpt>
      <trkpt lat="42.648969" lon="0.436263">
        <ele>3143.000000</ele>
        <time>2021-09-05T08:04:53Z</time>
      </trkpt>
      <trkpt lat="42.648968" lon="0.436257">
        <ele>3143.000000</ele>
        <time>2021-09-05T08:04:54Z</time>
      </trkpt>
      <trkpt lat="42.648967" lon="0.436248">
        <ele>3143.000000</ele>
        <time>2021-09-05T08:04:55Z</time>
      </trkpt>
      <trkpt lat="42.648967" lon="0.436245">
        <ele>3143.000000</ele>
        <time>2021-09-05T08:04:56Z</time>
      </trkpt>
      <trkpt lat="42.648965" lon="0.436242">
        <ele>3143.000000</ele>
        <time>2021-09-05T08:04:57Z</time>
      </trkpt>
      <trkpt lat="42.648958" lon="0.436243">
        <ele>3143.000000</ele>
        <time>2021-09-05T08:04:58Z</time>
      </trkpt>
      <trkpt lat="42.648952" lon="0.436245">
        <ele>3143.000000</ele>
        <time>2021-09-05T08:04:59Z</time>
      </trkpt>
      <trkpt lat="42.648947" lon="0.436247">
        <ele>3143.000000</ele>
        <time>2021-09-05T08:05:01Z</time>
      </trkpt>
      <trkpt lat="42.648940" lon="0.436248">
        <ele>3142.000000</ele>
        <time>2021-09-05T08:05:01Z</time>
      </trkpt>
      <trkpt lat="42.648935" lon="0.436253">
        <ele>3142.000000</ele>
        <time>2021-09-05T08:05:02Z</time>
      </trkpt>
      <trkpt lat="42.648930" lon="0.436258">
        <ele>3142.000000</ele>
        <time>2021-09-05T08:05:03Z</time>
      </trkpt>
      <trkpt lat="42.648927" lon="0.436262">
        <ele>3142.000000</ele>
        <time>2021-09-05T08:05:04Z</time>
      </trkpt>
      <trkpt lat="42.648923" lon="0.436263">
        <ele>3141.000000</ele>
        <time>2021-09-05T08:05:05Z</time>
      </trkpt>
      <trkpt lat="42.648922" lon="0.436265">
        <ele>3141.000000</ele>
        <time>2021-09-05T08:05:06Z</time>
      </trkpt>
      <trkpt lat="42.648922" lon="0.436267">
        <ele>3141.000000</ele>
        <time>2021-09-05T08:05:07Z</time>
      </trkpt>
      <trkpt lat="42.648922" lon="0.436268">
        <ele>3141.000000</ele>
        <time>2021-09-05T08:05:08Z</time>
      </trkpt>
      <trkpt lat="42.648920" lon="0.436272">
        <ele>3140.000000</ele>
        <time>2021-09-05T08:05:09Z</time>
      </trkpt>
      <trkpt lat="42.648915" lon="0.436274">
        <ele>3140.000000</ele>
        <time>2021-09-05T08:05:10Z</time>
      </trkpt>
      <trkpt lat="42.648908" lon="0.436269">
        <ele>3140.000000</ele>
        <time>2021-09-05T08:05:11Z</time>
      </trkpt>
      <trkpt lat="42.648905" lon="0.436262">
        <ele>3140.000000</ele>
        <time>2021-09-05T08:05:12Z</time>
      </trkpt>
      <trkpt lat="42.648900" lon="0.436255">
        <ele>3140.000000</ele>
        <time>2021-09-05T08:05:13Z</time>
      </trkpt>
      <trkpt lat="42.648895" lon="0.436252">
        <ele>3140.000000</ele>
        <time>2021-09-05T08:05:14Z</time>
      </trkpt>
      <trkpt lat="42.648890" lon="0.436248">
        <ele>3139.000000</ele>
        <time>2021-09-05T08:05:15Z</time>
      </trkpt>
      <trkpt lat="42.648883" lon="0.436242">
        <ele>3139.000000</ele>
        <time>2021-09-05T08:05:16Z</time>
      </trkpt>
      <trkpt lat="42.648883" lon="0.436233">
        <ele>3139.000000</ele>
        <time>2021-09-05T08:05:17Z</time>
      </trkpt>
      <trkpt lat="42.648887" lon="0.436220">
        <ele>3139.000000</ele>
        <time>2021-09-05T08:05:18Z</time>
      </trkpt>
      <trkpt lat="42.648888" lon="0.436210">
        <ele>3139.000000</ele>
        <time>2021-09-05T08:05:19Z</time>
      </trkpt>
      <trkpt lat="42.648892" lon="0.436202">
        <ele>3139.000000</ele>
        <time>2021-09-05T08:05:20Z</time>
      </trkpt>
      <trkpt lat="42.648895" lon="0.436192">
        <ele>3139.000000</ele>
        <time>2021-09-05T08:05:21Z</time>
      </trkpt>
      <trkpt lat="42.648893" lon="0.436180">
        <ele>3139.000000</ele>
        <time>2021-09-05T08:05:22Z</time>
      </trkpt>
      <trkpt lat="42.648892" lon="0.436165">
        <ele>3139.000000</ele>
        <time>2021-09-05T08:05:23Z</time>
      </trkpt>
      <trkpt lat="42.648889" lon="0.436158">
        <ele>3139.000000</ele>
        <time>2021-09-05T08:05:25Z</time>
      </trkpt>
      <trkpt lat="42.648885" lon="0.436142">
        <ele>3138.000000</ele>
        <time>2021-09-05T08:05:25Z</time>
      </trkpt>
      <trkpt lat="42.648880" lon="0.436138">
        <ele>3138.000000</ele>
        <time>2021-09-05T08:05:26Z</time>
      </trkpt>
      <trkpt lat="42.648873" lon="0.436133">
        <ele>3138.000000</ele>
        <time>2021-09-05T08:05:27Z</time>
      </trkpt>
      <trkpt lat="42.648863" lon="0.436132">
        <ele>3137.000000</ele>
        <time>2021-09-05T08:05:28Z</time>
      </trkpt>
      <trkpt lat="42.648852" lon="0.436133">
        <ele>3137.000000</ele>
        <time>2021-09-05T08:05:29Z</time>
      </trkpt>
      <trkpt lat="42.648845" lon="0.436133">
        <ele>3137.000000</ele>
        <time>2021-09-05T08:05:30Z</time>
      </trkpt>
      <trkpt lat="42.648842" lon="0.436130">
        <ele>3135.000000</ele>
        <time>2021-09-05T08:05:31Z</time>
      </trkpt>
      <trkpt lat="42.648838" lon="0.436132">
        <ele>3135.000000</ele>
        <time>2021-09-05T08:05:32Z</time>
      </trkpt>
      <trkpt lat="42.648830" lon="0.436135">
        <ele>3135.000000</ele>
        <time>2021-09-05T08:05:33Z</time>
      </trkpt>
      <trkpt lat="42.648823" lon="0.436140">
        <ele>3134.000000</ele>
        <time>2021-09-05T08:05:34Z</time>
      </trkpt>
      <trkpt lat="42.648815" lon="0.436137">
        <ele>3134.000000</ele>
        <time>2021-09-05T08:05:35Z</time>
      </trkpt>
      <trkpt lat="42.648813" lon="0.436132">
        <ele>3134.000000</ele>
        <time>2021-09-05T08:05:36Z</time>
      </trkpt>
      <trkpt lat="42.648812" lon="0.436122">
        <ele>3134.000000</ele>
        <time>2021-09-05T08:05:37Z</time>
      </trkpt>
      <trkpt lat="42.648808" lon="0.436115">
        <ele>3134.000000</ele>
        <time>2021-09-05T08:05:38Z</time>
      </trkpt>
      <trkpt lat="42.648805" lon="0.436112">
        <ele>3134.000000</ele>
        <time>2021-09-05T08:05:39Z</time>
      </trkpt>
      <trkpt lat="42.648803" lon="0.436110">
        <ele>3134.000000</ele>
        <time>2021-09-05T08:05:40Z</time>
      </trkpt>
      <trkpt lat="42.648798" lon="0.436113">
        <ele>3134.000000</ele>
        <time>2021-09-05T08:05:41Z</time>
      </trkpt>
      <trkpt lat="42.648797" lon="0.436117">
        <ele>3134.000000</ele>
        <time>2021-09-05T08:05:42Z</time>
      </trkpt>
      <trkpt lat="42.648792" lon="0.436120">
        <ele>3133.000000</ele>
        <time>2021-09-05T08:05:43Z</time>
      </trkpt>
      <trkpt lat="42.648787" lon="0.436127">
        <ele>3133.000000</ele>
        <time>2021-09-05T08:05:44Z</time>
      </trkpt>
      <trkpt lat="42.648782" lon="0.436130">
        <ele>3133.000000</ele>
        <time>2021-09-05T08:05:46Z</time>
      </trkpt>
      <trkpt lat="42.648775" lon="0.436128">
        <ele>3133.000000</ele>
        <time>2021-09-05T08:05:46Z</time>
      </trkpt>
      <trkpt lat="42.648770" lon="0.436122">
        <ele>3133.000000</ele>
        <time>2021-09-05T08:05:47Z</time>
      </trkpt>
      <trkpt lat="42.648767" lon="0.436112">
        <ele>3133.000000</ele>
        <time>2021-09-05T08:05:48Z</time>
      </trkpt>
      <trkpt lat="42.648763" lon="0.436107">
        <ele>3132.000000</ele>
        <time>2021-09-05T08:05:49Z</time>
      </trkpt>
      <trkpt lat="42.648760" lon="0.436103">
        <ele>3132.000000</ele>
        <time>2021-09-05T08:05:50Z</time>
      </trkpt>
      <trkpt lat="42.648753" lon="0.436105">
        <ele>3132.000000</ele>
        <time>2021-09-05T08:05:51Z</time>
      </trkpt>
      <trkpt lat="42.648743" lon="0.436104">
        <ele>3132.000000</ele>
        <time>2021-09-05T08:05:52Z</time>
      </trkpt>
      <trkpt lat="42.648737" lon="0.436104">
        <ele>3132.000000</ele>
        <time>2021-09-05T08:05:53Z</time>
      </trkpt>
      <trkpt lat="42.648728" lon="0.436106">
        <ele>3132.000000</ele>
        <time>2021-09-05T08:05:54Z</time>
      </trkpt>
      <trkpt lat="42.648720" lon="0.436107">
        <ele>3131.000000</ele>
        <time>2021-09-05T08:05:55Z</time>
      </trkpt>
      <trkpt lat="42.648712" lon="0.436107">
        <ele>3131.000000</ele>
        <time>2021-09-05T08:05:56Z</time>
      </trkpt>
      <trkpt lat="42.648705" lon="0.436107">
        <ele>3131.000000</ele>
        <time>2021-09-05T08:05:57Z</time>
      </trkpt>
      <trkpt lat="42.648698" lon="0.436105">
        <ele>3131.000000</ele>
        <time>2021-09-05T08:05:58Z</time>
      </trkpt>
      <trkpt lat="42.648692" lon="0.436104">
        <ele>3131.000000</ele>
        <time>2021-09-05T08:05:59Z</time>
      </trkpt>
      <trkpt lat="42.648690" lon="0.436102">
        <ele>3130.000000</ele>
        <time>2021-09-05T08:06:00Z</time>
      </trkpt>
      <trkpt lat="42.648687" lon="0.436101">
        <ele>3130.000000</ele>
        <time>2021-09-05T08:06:02Z</time>
      </trkpt>
      <trkpt lat="42.648680" lon="0.436100">
        <ele>3130.000000</ele>
        <time>2021-09-05T08:06:03Z</time>
      </trkpt>
      <trkpt lat="42.648673" lon="0.436098">
        <ele>3129.000000</ele>
        <time>2021-09-05T08:06:04Z</time>
      </trkpt>
      <trkpt lat="42.648668" lon="0.436096">
        <ele>3129.000000</ele>
        <time>2021-09-05T08:06:05Z</time>
      </trkpt>
      <trkpt lat="42.648662" lon="0.436092">
        <ele>3129.000000</ele>
        <time>2021-09-05T08:06:06Z</time>
      </trkpt>
      <trkpt lat="42.648653" lon="0.436089">
        <ele>3128.000000</ele>
        <time>2021-09-05T08:06:07Z</time>
      </trkpt>
      <trkpt lat="42.648647" lon="0.436086">
        <ele>3128.000000</ele>
        <time>2021-09-05T08:06:09Z</time>
      </trkpt>
      <trkpt lat="42.648638" lon="0.436085">
        <ele>3128.000000</ele>
        <time>2021-09-05T08:06:09Z</time>
      </trkpt>
      <trkpt lat="42.648628" lon="0.436085">
        <ele>3128.000000</ele>
        <time>2021-09-05T08:06:10Z</time>
      </trkpt>
      <trkpt lat="42.648625" lon="0.436102">
        <ele>3127.000000</ele>
        <time>2021-09-05T08:06:11Z</time>
      </trkpt>
      <trkpt lat="42.648615" lon="0.436108">
        <ele>3127.000000</ele>
        <time>2021-09-05T08:06:12Z</time>
      </trkpt>
      <trkpt lat="42.648607" lon="0.436110">
        <ele>3127.000000</ele>
        <time>2021-09-05T08:06:13Z</time>
      </trkpt>
      <trkpt lat="42.648597" lon="0.436109">
        <ele>3127.000000</ele>
        <time>2021-09-05T08:06:14Z</time>
      </trkpt>
      <trkpt lat="42.648592" lon="0.436104">
        <ele>3126.000000</ele>
        <time>2021-09-05T08:06:15Z</time>
      </trkpt>
      <trkpt lat="42.648587" lon="0.436095">
        <ele>3126.000000</ele>
        <time>2021-09-05T08:06:16Z</time>
      </trkpt>
      <trkpt lat="42.648580" lon="0.436092">
        <ele>3126.000000</ele>
        <time>2021-09-05T08:06:17Z</time>
      </trkpt>
      <trkpt lat="42.648575" lon="0.436088">
        <ele>3126.000000</ele>
        <time>2021-09-05T08:06:18Z</time>
      </trkpt>
      <trkpt lat="42.648567" lon="0.436085">
        <ele>3126.000000</ele>
        <time>2021-09-05T08:06:19Z</time>
      </trkpt>
      <trkpt lat="42.648558" lon="0.436083">
        <ele>3125.000000</ele>
        <time>2021-09-05T08:06:20Z</time>
      </trkpt>
      <trkpt lat="42.648552" lon="0.436081">
        <ele>3125.000000</ele>
        <time>2021-09-05T08:06:21Z</time>
      </trkpt>
      <trkpt lat="42.648547" lon="0.436081">
        <ele>3125.000000</ele>
        <time>2021-09-05T08:06:22Z</time>
      </trkpt>
      <trkpt lat="42.648540" lon="0.436082">
        <ele>3125.000000</ele>
        <time>2021-09-05T08:06:23Z</time>
      </trkpt>
      <trkpt lat="42.648535" lon="0.436084">
        <ele>3125.000000</ele>
        <time>2021-09-05T08:06:24Z</time>
      </trkpt>
      <trkpt lat="42.648527" lon="0.436085">
        <ele>3125.000000</ele>
        <time>2021-09-05T08:06:25Z</time>
      </trkpt>
      <trkpt lat="42.648520" lon="0.436087">
        <ele>3124.000000</ele>
        <time>2021-09-05T08:06:26Z</time>
      </trkpt>
      <trkpt lat="42.648512" lon="0.436087">
        <ele>3124.000000</ele>
        <time>2021-09-05T08:06:27Z</time>
      </trkpt>
      <trkpt lat="42.648503" lon="0.436086">
        <ele>3124.000000</ele>
        <time>2021-09-05T08:06:28Z</time>
      </trkpt>
      <trkpt lat="42.648498" lon="0.436082">
        <ele>3124.000000</ele>
        <time>2021-09-05T08:06:29Z</time>
      </trkpt>
      <trkpt lat="42.648497" lon="0.436078">
        <ele>3124.000000</ele>
        <time>2021-09-05T08:06:30Z</time>
      </trkpt>
      <trkpt lat="42.648497" lon="0.436077">
        <ele>3123.000000</ele>
        <time>2021-09-05T08:06:31Z</time>
      </trkpt>
      <trkpt lat="42.648495" lon="0.436078">
        <ele>3123.000000</ele>
        <time>2021-09-05T08:06:34Z</time>
      </trkpt>
      <trkpt lat="42.648495" lon="0.436080">
        <ele>3123.000000</ele>
        <time>2021-09-05T08:06:35Z</time>
      </trkpt>
      <trkpt lat="42.648495" lon="0.436079">
        <ele>3123.000000</ele>
        <time>2021-09-05T08:06:36Z</time>
      </trkpt>
      <trkpt lat="42.648492" lon="0.436078">
        <ele>3123.000000</ele>
        <time>2021-09-05T08:06:37Z</time>
      </trkpt>
      <trkpt lat="42.648488" lon="0.436077">
        <ele>3123.000000</ele>
        <time>2021-09-05T08:06:38Z</time>
      </trkpt>
      <trkpt lat="42.648483" lon="0.436077">
        <ele>3123.000000</ele>
        <time>2021-09-05T08:06:39Z</time>
      </trkpt>
      <trkpt lat="42.648477" lon="0.436080">
        <ele>3123.000000</ele>
        <time>2021-09-05T08:06:40Z</time>
      </trkpt>
      <trkpt lat="42.648472" lon="0.436080">
        <ele>3123.000000</ele>
        <time>2021-09-05T08:06:41Z</time>
      </trkpt>
      <trkpt lat="42.648467" lon="0.436081">
        <ele>3123.000000</ele>
        <time>2021-09-05T08:06:42Z</time>
      </trkpt>
      <trkpt lat="42.648462" lon="0.436083">
        <ele>3122.000000</ele>
        <time>2021-09-05T08:06:43Z</time>
      </trkpt>
      <trkpt lat="42.648457" lon="0.436084">
        <ele>3122.000000</ele>
        <time>2021-09-05T08:06:44Z</time>
      </trkpt>
      <trkpt lat="42.648453" lon="0.436083">
        <ele>3122.000000</ele>
        <time>2021-09-05T08:06:45Z</time>
      </trkpt>
      <trkpt lat="42.648450" lon="0.436082">
        <ele>3122.000000</ele>
        <time>2021-09-05T08:06:46Z</time>
      </trkpt>
      <trkpt lat="42.648443" lon="0.436081">
        <ele>3121.000000</ele>
        <time>2021-09-05T08:06:47Z</time>
      </trkpt>
      <trkpt lat="42.648442" lon="0.436079">
        <ele>3121.000000</ele>
        <time>2021-09-05T08:06:48Z</time>
      </trkpt>
      <trkpt lat="42.648435" lon="0.436079">
        <ele>3121.000000</ele>
        <time>2021-09-05T08:06:49Z</time>
      </trkpt>
      <trkpt lat="42.648432" lon="0.436082">
        <ele>3121.000000</ele>
        <time>2021-09-05T08:06:50Z</time>
      </trkpt>
      <trkpt lat="42.648427" lon="0.436097">
        <ele>3120.000000</ele>
        <time>2021-09-05T08:06:51Z</time>
      </trkpt>
      <trkpt lat="42.648417" lon="0.436105">
        <ele>3120.000000</ele>
        <time>2021-09-05T08:06:52Z</time>
      </trkpt>
      <trkpt lat="42.648408" lon="0.436111">
        <ele>3120.000000</ele>
        <time>2021-09-05T08:06:54Z</time>
      </trkpt>
      <trkpt lat="42.648397" lon="0.436119">
        <ele>3120.000000</ele>
        <time>2021-09-05T08:06:54Z</time>
      </trkpt>
      <trkpt lat="42.648387" lon="0.436122">
        <ele>3119.000000</ele>
        <time>2021-09-05T08:06:55Z</time>
      </trkpt>
      <trkpt lat="42.648375" lon="0.436125">
        <ele>3119.000000</ele>
        <time>2021-09-05T08:06:56Z</time>
      </trkpt>
      <trkpt lat="42.648362" lon="0.436122">
        <ele>3119.000000</ele>
        <time>2021-09-05T08:06:57Z</time>
      </trkpt>
      <trkpt lat="42.648357" lon="0.436120">
        <ele>3119.000000</ele>
        <time>2021-09-05T08:06:58Z</time>
      </trkpt>
      <trkpt lat="42.648352" lon="0.436120">
        <ele>3119.000000</ele>
        <time>2021-09-05T08:06:59Z</time>
      </trkpt>
      <trkpt lat="42.648350" lon="0.436118">
        <ele>3119.000000</ele>
        <time>2021-09-05T08:07:00Z</time>
      </trkpt>
      <trkpt lat="42.648348" lon="0.436118">
        <ele>3119.000000</ele>
        <time>2021-09-05T08:07:02Z</time>
      </trkpt>
      <trkpt lat="42.648340" lon="0.436113">
        <ele>3119.000000</ele>
        <time>2021-09-05T08:07:07Z</time>
      </trkpt>
      <trkpt lat="42.648340" lon="0.436112">
        <ele>3118.000000</ele>
        <time>2021-09-05T08:07:10Z</time>
      </trkpt>
      <trkpt lat="42.648343" lon="0.436115">
        <ele>3118.000000</ele>
        <time>2021-09-05T08:07:11Z</time>
      </trkpt>
      <trkpt lat="42.648270" lon="0.436088">
        <ele>3117.000000</ele>
        <time>2021-09-05T08:07:38Z</time>
      </trkpt>
      <trkpt lat="42.648267" lon="0.436087">
        <ele>3116.000000</ele>
        <time>2021-09-05T08:07:39Z</time>
      </trkpt>
      <trkpt lat="42.648267" lon="0.436085">
        <ele>3116.000000</ele>
        <time>2021-09-05T08:07:40Z</time>
      </trkpt>
      <trkpt lat="42.648267" lon="0.436080">
        <ele>3116.000000</ele>
        <time>2021-09-05T08:07:42Z</time>
      </trkpt>
      <trkpt lat="42.648265" lon="0.436077">
        <ele>3116.000000</ele>
        <time>2021-09-05T08:07:42Z</time>
      </trkpt>
      <trkpt lat="42.648262" lon="0.436073">
        <ele>3116.000000</ele>
        <time>2021-09-05T08:07:43Z</time>
      </trkpt>
      <trkpt lat="42.648255" lon="0.436072">
        <ele>3116.000000</ele>
        <time>2021-09-05T08:07:44Z</time>
      </trkpt>
      <trkpt lat="42.648248" lon="0.436072">
        <ele>3116.000000</ele>
        <time>2021-09-05T08:07:46Z</time>
      </trkpt>
      <trkpt lat="42.648243" lon="0.436073">
        <ele>3116.000000</ele>
        <time>2021-09-05T08:07:46Z</time>
      </trkpt>
      <trkpt lat="42.648238" lon="0.436077">
        <ele>3115.000000</ele>
        <time>2021-09-05T08:07:47Z</time>
      </trkpt>
      <trkpt lat="42.648228" lon="0.436075">
        <ele>3115.000000</ele>
        <time>2021-09-05T08:07:48Z</time>
      </trkpt>
      <trkpt lat="42.648220" lon="0.436073">
        <ele>3115.000000</ele>
        <time>2021-09-05T08:07:49Z</time>
      </trkpt>
      <trkpt lat="42.648210" lon="0.436074">
        <ele>3115.000000</ele>
        <time>2021-09-05T08:07:50Z</time>
      </trkpt>
      <trkpt lat="42.648197" lon="0.436076">
        <ele>3115.000000</ele>
        <time>2021-09-05T08:07:51Z</time>
      </trkpt>
      <trkpt lat="42.648187" lon="0.436076">
        <ele>3115.000000</ele>
        <time>2021-09-05T08:07:52Z</time>
      </trkpt>
      <trkpt lat="42.648177" lon="0.436074">
        <ele>3114.000000</ele>
        <time>2021-09-05T08:07:53Z</time>
      </trkpt>
      <trkpt lat="42.648162" lon="0.436071">
        <ele>3114.000000</ele>
        <time>2021-09-05T08:07:54Z</time>
      </trkpt>
      <trkpt lat="42.648150" lon="0.436069">
        <ele>3114.000000</ele>
        <time>2021-09-05T08:07:55Z</time>
      </trkpt>
      <trkpt lat="42.648138" lon="0.436067">
        <ele>3113.000000</ele>
        <time>2021-09-05T08:07:56Z</time>
      </trkpt>
      <trkpt lat="42.648125" lon="0.436064">
        <ele>3113.000000</ele>
        <time>2021-09-05T08:07:57Z</time>
      </trkpt>
      <trkpt lat="42.648113" lon="0.436061">
        <ele>3113.000000</ele>
        <time>2021-09-05T08:07:58Z</time>
      </trkpt>
      <trkpt lat="42.648098" lon="0.436059">
        <ele>3113.000000</ele>
        <time>2021-09-05T08:07:59Z</time>
      </trkpt>
      <trkpt lat="42.648085" lon="0.436058">
        <ele>3112.000000</ele>
        <time>2021-09-05T08:08:00Z</time>
      </trkpt>
      <trkpt lat="42.648075" lon="0.436058">
        <ele>3112.000000</ele>
        <time>2021-09-05T08:08:02Z</time>
      </trkpt>
      <trkpt lat="42.648062" lon="0.436058">
        <ele>3112.000000</ele>
        <time>2021-09-05T08:08:02Z</time>
      </trkpt>
      <trkpt lat="42.648047" lon="0.436059">
        <ele>3111.000000</ele>
        <time>2021-09-05T08:08:03Z</time>
      </trkpt>
      <trkpt lat="42.648035" lon="0.436060">
        <ele>3111.000000</ele>
        <time>2021-09-05T08:08:04Z</time>
      </trkpt>
      <trkpt lat="42.648028" lon="0.436061">
        <ele>3111.000000</ele>
        <time>2021-09-05T08:08:05Z</time>
      </trkpt>
      <trkpt lat="42.648023" lon="0.436061">
        <ele>3111.000000</ele>
        <time>2021-09-05T08:08:06Z</time>
      </trkpt>
      <trkpt lat="42.648015" lon="0.436061">
        <ele>3111.000000</ele>
        <time>2021-09-05T08:08:07Z</time>
      </trkpt>
      <trkpt lat="42.648003" lon="0.436061">
        <ele>3111.000000</ele>
        <time>2021-09-05T08:08:08Z</time>
      </trkpt>
      <trkpt lat="42.647993" lon="0.436061">
        <ele>3111.000000</ele>
        <time>2021-09-05T08:08:09Z</time>
      </trkpt>
      <trkpt lat="42.647987" lon="0.436060">
        <ele>3111.000000</ele>
        <time>2021-09-05T08:08:10Z</time>
      </trkpt>
      <trkpt lat="42.647973" lon="0.436059">
        <ele>3111.000000</ele>
        <time>2021-09-05T08:08:11Z</time>
      </trkpt>
      <trkpt lat="42.647963" lon="0.436058">
        <ele>3111.000000</ele>
        <time>2021-09-05T08:08:12Z</time>
      </trkpt>
      <trkpt lat="42.647957" lon="0.436058">
        <ele>3111.000000</ele>
        <time>2021-09-05T08:08:13Z</time>
      </trkpt>
      <trkpt lat="42.647947" lon="0.436058">
        <ele>3111.000000</ele>
        <time>2021-09-05T08:08:14Z</time>
      </trkpt>
      <trkpt lat="42.647940" lon="0.436059">
        <ele>3111.000000</ele>
        <time>2021-09-05T08:08:15Z</time>
      </trkpt>
      <trkpt lat="42.647930" lon="0.436059">
        <ele>3111.000000</ele>
        <time>2021-09-05T08:08:16Z</time>
      </trkpt>
      <trkpt lat="42.647925" lon="0.436060">
        <ele>3111.000000</ele>
        <time>2021-09-05T08:08:17Z</time>
      </trkpt>
      <trkpt lat="42.647920" lon="0.436061">
        <ele>3111.000000</ele>
        <time>2021-09-05T08:08:18Z</time>
      </trkpt>
      <trkpt lat="42.647912" lon="0.436061">
        <ele>3111.000000</ele>
        <time>2021-09-05T08:08:19Z</time>
      </trkpt>
      <trkpt lat="42.647910" lon="0.436061">
        <ele>3111.000000</ele>
        <time>2021-09-05T08:08:20Z</time>
      </trkpt>
      <trkpt lat="42.647905" lon="0.436063">
        <ele>3111.000000</ele>
        <time>2021-09-05T08:08:21Z</time>
      </trkpt>
      <trkpt lat="42.647900" lon="0.436064">
        <ele>3111.000000</ele>
        <time>2021-09-05T08:08:22Z</time>
      </trkpt>
      <trkpt lat="42.647893" lon="0.436088">
        <ele>3111.000000</ele>
        <time>2021-09-05T08:08:23Z</time>
      </trkpt>
      <trkpt lat="42.647885" lon="0.436087">
        <ele>3111.000000</ele>
        <time>2021-09-05T08:08:24Z</time>
      </trkpt>
      <trkpt lat="42.647878" lon="0.436085">
        <ele>3110.000000</ele>
        <time>2021-09-05T08:08:26Z</time>
      </trkpt>
      <trkpt lat="42.647868" lon="0.436088">
        <ele>3110.000000</ele>
        <time>2021-09-05T08:08:26Z</time>
      </trkpt>
      <trkpt lat="42.647863" lon="0.436095">
        <ele>3110.000000</ele>
        <time>2021-09-05T08:08:27Z</time>
      </trkpt>
      <trkpt lat="42.647857" lon="0.436103">
        <ele>3110.000000</ele>
        <time>2021-09-05T08:08:28Z</time>
      </trkpt>
      <trkpt lat="42.647847" lon="0.436112">
        <ele>3110.000000</ele>
        <time>2021-09-05T08:08:29Z</time>
      </trkpt>
      <trkpt lat="42.647838" lon="0.436117">
        <ele>3109.000000</ele>
        <time>2021-09-05T08:08:30Z</time>
      </trkpt>
      <trkpt lat="42.647832" lon="0.436120">
        <ele>3109.000000</ele>
        <time>2021-09-05T08:08:31Z</time>
      </trkpt>
      <trkpt lat="42.647827" lon="0.436123">
        <ele>3109.000000</ele>
        <time>2021-09-05T08:08:32Z</time>
      </trkpt>
      <trkpt lat="42.647822" lon="0.436127">
        <ele>3108.000000</ele>
        <time>2021-09-05T08:08:33Z</time>
      </trkpt>
      <trkpt lat="42.647815" lon="0.436133">
        <ele>3108.000000</ele>
        <time>2021-09-05T08:08:34Z</time>
      </trkpt>
      <trkpt lat="42.647813" lon="0.436140">
        <ele>3108.000000</ele>
        <time>2021-09-05T08:08:36Z</time>
      </trkpt>
      <trkpt lat="42.647810" lon="0.436145">
        <ele>3107.000000</ele>
        <time>2021-09-05T08:08:36Z</time>
      </trkpt>
      <trkpt lat="42.647812" lon="0.436148">
        <ele>3106.000000</ele>
        <time>2021-09-05T08:08:42Z</time>
      </trkpt>
      <trkpt lat="42.647807" lon="0.436150">
        <ele>3105.000000</ele>
        <time>2021-09-05T08:08:45Z</time>
      </trkpt>
      <trkpt lat="42.647795" lon="0.436153">
        <ele>3105.000000</ele>
        <time>2021-09-05T08:08:45Z</time>
      </trkpt>
      <trkpt lat="42.647783" lon="0.436160">
        <ele>3105.000000</ele>
        <time>2021-09-05T08:08:46Z</time>
      </trkpt>
      <trkpt lat="42.647780" lon="0.436169">
        <ele>3105.000000</ele>
        <time>2021-09-05T08:08:47Z</time>
      </trkpt>
      <trkpt lat="42.647770" lon="0.436180">
        <ele>3105.000000</ele>
        <time>2021-09-05T08:08:48Z</time>
      </trkpt>
      <trkpt lat="42.647757" lon="0.436192">
        <ele>3105.000000</ele>
        <time>2021-09-05T08:08:49Z</time>
      </trkpt>
      <trkpt lat="42.647745" lon="0.436200">
        <ele>3105.000000</ele>
        <time>2021-09-05T08:08:50Z</time>
      </trkpt>
      <trkpt lat="42.647733" lon="0.436206">
        <ele>3105.000000</ele>
        <time>2021-09-05T08:08:51Z</time>
      </trkpt>
      <trkpt lat="42.647723" lon="0.436212">
        <ele>3105.000000</ele>
        <time>2021-09-05T08:08:52Z</time>
      </trkpt>
      <trkpt lat="42.647712" lon="0.436218">
        <ele>3105.000000</ele>
        <time>2021-09-05T08:08:53Z</time>
      </trkpt>
      <trkpt lat="42.647700" lon="0.436225">
        <ele>3104.000000</ele>
        <time>2021-09-05T08:08:54Z</time>
      </trkpt>
      <trkpt lat="42.647692" lon="0.436229">
        <ele>3104.000000</ele>
        <time>2021-09-05T08:08:54Z</time>
      </trkpt>
      <trkpt lat="42.647687" lon="0.436233">
        <ele>3104.000000</ele>
        <time>2021-09-05T08:08:55Z</time>
      </trkpt>
      <trkpt lat="42.647682" lon="0.436238">
        <ele>3104.000000</ele>
        <time>2021-09-05T08:08:56Z</time>
      </trkpt>
      <trkpt lat="42.647673" lon="0.436246">
        <ele>3103.000000</ele>
        <time>2021-09-05T08:08:57Z</time>
      </trkpt>
      <trkpt lat="42.647667" lon="0.436251">
        <ele>3103.000000</ele>
        <time>2021-09-05T08:08:58Z</time>
      </trkpt>
      <trkpt lat="42.647660" lon="0.436256">
        <ele>3103.000000</ele>
        <time>2021-09-05T08:08:59Z</time>
      </trkpt>
      <trkpt lat="42.647655" lon="0.436259">
        <ele>3102.000000</ele>
        <time>2021-09-05T08:09:00Z</time>
      </trkpt>
      <trkpt lat="42.647650" lon="0.436262">
        <ele>3102.000000</ele>
        <time>2021-09-05T08:09:01Z</time>
      </trkpt>
      <trkpt lat="42.647650" lon="0.436261">
        <ele>3102.000000</ele>
        <time>2021-09-05T08:09:04Z</time>
      </trkpt>
      <trkpt lat="42.647647" lon="0.436261">
        <ele>3102.000000</ele>
        <time>2021-09-05T08:09:06Z</time>
      </trkpt>
      <trkpt lat="42.647652" lon="0.436258">
        <ele>3102.000000</ele>
        <time>2021-09-05T08:09:08Z</time>
      </trkpt>
      <trkpt lat="42.647653" lon="0.436257">
        <ele>3102.000000</ele>
        <time>2021-09-05T08:09:09Z</time>
      </trkpt>
      <trkpt lat="42.647652" lon="0.436257">
        <ele>3101.000000</ele>
        <time>2021-09-05T08:09:12Z</time>
      </trkpt>
      <trkpt lat="42.647660" lon="0.436202">
        <ele>3100.000000</ele>
        <time>2021-09-05T08:10:12Z</time>
      </trkpt>
      <trkpt lat="42.647663" lon="0.436192">
        <ele>3100.000000</ele>
        <time>2021-09-05T08:10:13Z</time>
      </trkpt>
      <trkpt lat="42.647668" lon="0.436180">
        <ele>3100.000000</ele>
        <time>2021-09-05T08:10:14Z</time>
      </trkpt>
      <trkpt lat="42.647672" lon="0.436170">
        <ele>3100.000000</ele>
        <time>2021-09-05T08:10:15Z</time>
      </trkpt>
      <trkpt lat="42.647674" lon="0.436160">
        <ele>3100.000000</ele>
        <time>2021-09-05T08:10:16Z</time>
      </trkpt>
      <trkpt lat="42.647675" lon="0.436152">
        <ele>3100.000000</ele>
        <time>2021-09-05T08:10:17Z</time>
      </trkpt>
      <trkpt lat="42.647673" lon="0.436140">
        <ele>3100.000000</ele>
        <time>2021-09-05T08:10:18Z</time>
      </trkpt>
      <trkpt lat="42.647670" lon="0.436128">
        <ele>3100.000000</ele>
        <time>2021-09-05T08:10:19Z</time>
      </trkpt>
      <trkpt lat="42.647670" lon="0.436113">
        <ele>3100.000000</ele>
        <time>2021-09-05T08:10:20Z</time>
      </trkpt>
      <trkpt lat="42.647671" lon="0.436103">
        <ele>3100.000000</ele>
        <time>2021-09-05T08:10:21Z</time>
      </trkpt>
      <trkpt lat="42.647674" lon="0.436098">
        <ele>3100.000000</ele>
        <time>2021-09-05T08:10:22Z</time>
      </trkpt>
      <trkpt lat="42.647679" lon="0.436093">
        <ele>3100.000000</ele>
        <time>2021-09-05T08:10:23Z</time>
      </trkpt>
      <trkpt lat="42.647685" lon="0.436088">
        <ele>3100.000000</ele>
        <time>2021-09-05T08:10:24Z</time>
      </trkpt>
      <trkpt lat="42.647685" lon="0.436082">
        <ele>3100.000000</ele>
        <time>2021-09-05T08:10:25Z</time>
      </trkpt>
      <trkpt lat="42.647687" lon="0.436083">
        <ele>3100.000000</ele>
        <time>2021-09-05T08:10:26Z</time>
      </trkpt>
      <trkpt lat="42.647688" lon="0.436080">
        <ele>3100.000000</ele>
        <time>2021-09-05T08:10:27Z</time>
      </trkpt>
      <trkpt lat="42.647689" lon="0.436080">
        <ele>3100.000000</ele>
        <time>2021-09-05T08:10:28Z</time>
      </trkpt>
      <trkpt lat="42.647691" lon="0.436080">
        <ele>3100.000000</ele>
        <time>2021-09-05T08:10:29Z</time>
      </trkpt>
      <trkpt lat="42.647693" lon="0.436080">
        <ele>3100.000000</ele>
        <time>2021-09-05T08:10:30Z</time>
      </trkpt>
      <trkpt lat="42.647694" lon="0.436085">
        <ele>3100.000000</ele>
        <time>2021-09-05T08:10:31Z</time>
      </trkpt>
      <trkpt lat="42.647698" lon="0.436087">
        <ele>3100.000000</ele>
        <time>2021-09-05T08:10:32Z</time>
      </trkpt>
      <trkpt lat="42.647699" lon="0.436088">
        <ele>3100.000000</ele>
        <time>2021-09-05T08:10:33Z</time>
      </trkpt>
      <trkpt lat="42.647699" lon="0.436090">
        <ele>3100.000000</ele>
        <time>2021-09-05T08:10:35Z</time>
      </trkpt>
      <trkpt lat="42.647697" lon="0.436090">
        <ele>3100.000000</ele>
        <time>2021-09-05T08:10:35Z</time>
      </trkpt>
      <trkpt lat="42.647694" lon="0.436085">
        <ele>3100.000000</ele>
        <time>2021-09-05T08:10:36Z</time>
      </trkpt>
      <trkpt lat="42.647732" lon="0.436000">
        <ele>3100.000000</ele>
        <time>2021-09-05T08:11:25Z</time>
      </trkpt>
      <trkpt lat="42.647733" lon="0.435996">
        <ele>3100.000000</ele>
        <time>2021-09-05T08:11:26Z</time>
      </trkpt>
      <trkpt lat="42.647735" lon="0.435993">
        <ele>3100.000000</ele>
        <time>2021-09-05T08:11:27Z</time>
      </trkpt>
      <trkpt lat="42.647737" lon="0.435988">
        <ele>3100.000000</ele>
        <time>2021-09-05T08:11:28Z</time>
      </trkpt>
      <trkpt lat="42.647742" lon="0.435984">
        <ele>3100.000000</ele>
        <time>2021-09-05T08:11:29Z</time>
      </trkpt>
      <trkpt lat="42.647745" lon="0.435981">
        <ele>3100.000000</ele>
        <time>2021-09-05T08:11:30Z</time>
      </trkpt>
      <trkpt lat="42.647748" lon="0.435977">
        <ele>3100.000000</ele>
        <time>2021-09-05T08:11:31Z</time>
      </trkpt>
      <trkpt lat="42.647753" lon="0.435975">
        <ele>3100.000000</ele>
        <time>2021-09-05T08:11:32Z</time>
      </trkpt>
      <trkpt lat="42.647757" lon="0.435976">
        <ele>3100.000000</ele>
        <time>2021-09-05T08:11:33Z</time>
      </trkpt>
      <trkpt lat="42.647758" lon="0.435976">
        <ele>3100.000000</ele>
        <time>2021-09-05T08:11:34Z</time>
      </trkpt>
      <trkpt lat="42.647755" lon="0.435977">
        <ele>3100.000000</ele>
        <time>2021-09-05T08:11:35Z</time>
      </trkpt>
      <trkpt lat="42.647757" lon="0.435976">
        <ele>3100.000000</ele>
        <time>2021-09-05T08:11:36Z</time>
      </trkpt>
      <trkpt lat="42.647752" lon="0.435979">
        <ele>3100.000000</ele>
        <time>2021-09-05T08:11:41Z</time>
      </trkpt>
      <trkpt lat="42.647752" lon="0.435979">
        <ele>3100.000000</ele>
        <time>2021-09-05T08:11:43Z</time>
      </trkpt>
      <trkpt lat="42.647748" lon="0.435981">
        <ele>3100.000000</ele>
        <time>2021-09-05T08:11:43Z</time>
      </trkpt>
      <trkpt lat="42.647747" lon="0.435982">
        <ele>3100.000000</ele>
        <time>2021-09-05T08:11:44Z</time>
      </trkpt>
      <trkpt lat="42.647743" lon="0.435984">
        <ele>3100.000000</ele>
        <time>2021-09-05T08:11:46Z</time>
      </trkpt>
      <trkpt lat="42.647745" lon="0.435973">
        <ele>3100.000000</ele>
        <time>2021-09-05T08:11:47Z</time>
      </trkpt>
      <trkpt lat="42.647746" lon="0.435968">
        <ele>3100.000000</ele>
        <time>2021-09-05T08:11:48Z</time>
      </trkpt>
      <trkpt lat="42.647755" lon="0.435963">
        <ele>3100.000000</ele>
        <time>2021-09-05T08:11:49Z</time>
      </trkpt>
      <trkpt lat="42.647761" lon="0.435960">
        <ele>3100.000000</ele>
        <time>2021-09-05T08:11:50Z</time>
      </trkpt>
      <trkpt lat="42.647768" lon="0.435955">
        <ele>3100.000000</ele>
        <time>2021-09-05T08:11:51Z</time>
      </trkpt>
      <trkpt lat="42.647772" lon="0.435953">
        <ele>3100.000000</ele>
        <time>2021-09-05T08:11:52Z</time>
      </trkpt>
      <trkpt lat="42.647780" lon="0.435950">
        <ele>3100.000000</ele>
        <time>2021-09-05T08:11:53Z</time>
      </trkpt>
      <trkpt lat="42.647785" lon="0.435946">
        <ele>3100.000000</ele>
        <time>2021-09-05T08:11:54Z</time>
      </trkpt>
      <trkpt lat="42.647783" lon="0.435945">
        <ele>3100.000000</ele>
        <time>2021-09-05T08:11:55Z</time>
      </trkpt>
      <trkpt lat="42.647783" lon="0.435943">
        <ele>3100.000000</ele>
        <time>2021-09-05T08:11:56Z</time>
      </trkpt>
      <trkpt lat="42.647785" lon="0.435942">
        <ele>3100.000000</ele>
        <time>2021-09-05T08:11:57Z</time>
      </trkpt>
      <trkpt lat="42.647783" lon="0.435942">
        <ele>3100.000000</ele>
        <time>2021-09-05T08:11:58Z</time>
      </trkpt>
      <trkpt lat="42.647783" lon="0.435942">
        <ele>3100.000000</ele>
        <time>2021-09-05T08:11:59Z</time>
      </trkpt>
      <trkpt lat="42.647813" lon="0.435837">
        <ele>3100.000000</ele>
        <time>2021-09-05T08:12:41Z</time>
      </trkpt>
      <trkpt lat="42.647802" lon="0.435833">
        <ele>3100.000000</ele>
        <time>2021-09-05T08:12:42Z</time>
      </trkpt>
      <trkpt lat="42.647793" lon="0.435830">
        <ele>3100.000000</ele>
        <time>2021-09-05T08:12:43Z</time>
      </trkpt>
      <trkpt lat="42.647787" lon="0.435828">
        <ele>3100.000000</ele>
        <time>2021-09-05T08:12:44Z</time>
      </trkpt>
      <trkpt lat="42.647782" lon="0.435828">
        <ele>3100.000000</ele>
        <time>2021-09-05T08:12:45Z</time>
      </trkpt>
      <trkpt lat="42.647775" lon="0.435827">
        <ele>3100.000000</ele>
        <time>2021-09-05T08:12:47Z</time>
      </trkpt>
      <trkpt lat="42.647773" lon="0.435825">
        <ele>3100.000000</ele>
        <time>2021-09-05T08:12:47Z</time>
      </trkpt>
      <trkpt lat="42.647772" lon="0.435820">
        <ele>3100.000000</ele>
        <time>2021-09-05T08:12:48Z</time>
      </trkpt>
      <trkpt lat="42.647773" lon="0.435817">
        <ele>3100.000000</ele>
        <time>2021-09-05T08:12:49Z</time>
      </trkpt>
      <trkpt lat="42.647782" lon="0.435805">
        <ele>3100.000000</ele>
        <time>2021-09-05T08:12:50Z</time>
      </trkpt>
      <trkpt lat="42.647782" lon="0.435797">
        <ele>3100.000000</ele>
        <time>2021-09-05T08:12:51Z</time>
      </trkpt>
      <trkpt lat="42.647785" lon="0.435787">
        <ele>3100.000000</ele>
        <time>2021-09-05T08:12:52Z</time>
      </trkpt>
      <trkpt lat="42.647782" lon="0.435777">
        <ele>3100.000000</ele>
        <time>2021-09-05T08:12:53Z</time>
      </trkpt>
      <trkpt lat="42.647780" lon="0.435767">
        <ele>3100.000000</ele>
        <time>2021-09-05T08:12:54Z</time>
      </trkpt>
      <trkpt lat="42.647778" lon="0.435760">
        <ele>3100.000000</ele>
        <time>2021-09-05T08:12:55Z</time>
      </trkpt>
      <trkpt lat="42.647775" lon="0.435750">
        <ele>3100.000000</ele>
        <time>2021-09-05T08:12:56Z</time>
      </trkpt>
      <trkpt lat="42.647773" lon="0.435745">
        <ele>3100.000000</ele>
        <time>2021-09-05T08:12:57Z</time>
      </trkpt>
      <trkpt lat="42.647772" lon="0.435738">
        <ele>3100.000000</ele>
        <time>2021-09-05T08:12:58Z</time>
      </trkpt>
      <trkpt lat="42.647770" lon="0.435728">
        <ele>3100.000000</ele>
        <time>2021-09-05T08:12:59Z</time>
      </trkpt>
      <trkpt lat="42.647768" lon="0.435720">
        <ele>3100.000000</ele>
        <time>2021-09-05T08:13:00Z</time>
      </trkpt>
      <trkpt lat="42.647767" lon="0.435712">
        <ele>3100.000000</ele>
        <time>2021-09-05T08:13:01Z</time>
      </trkpt>
      <trkpt lat="42.647764" lon="0.435703">
        <ele>3100.000000</ele>
        <time>2021-09-05T08:13:02Z</time>
      </trkpt>
      <trkpt lat="42.647758" lon="0.435695">
        <ele>3100.000000</ele>
        <time>2021-09-05T08:13:03Z</time>
      </trkpt>
      <trkpt lat="42.647757" lon="0.435685">
        <ele>3100.000000</ele>
        <time>2021-09-05T08:13:04Z</time>
      </trkpt>
      <trkpt lat="42.647756" lon="0.435677">
        <ele>3100.000000</ele>
        <time>2021-09-05T08:13:05Z</time>
      </trkpt>
      <trkpt lat="42.647758" lon="0.435670">
        <ele>3100.000000</ele>
        <time>2021-09-05T08:13:06Z</time>
      </trkpt>
      <trkpt lat="42.647759" lon="0.435663">
        <ele>3100.000000</ele>
        <time>2021-09-05T08:13:07Z</time>
      </trkpt>
      <trkpt lat="42.647758" lon="0.435652">
        <ele>3092.000000</ele>
        <time>2021-09-05T08:13:08Z</time>
      </trkpt>
      <trkpt lat="42.647757" lon="0.435642">
        <ele>3092.000000</ele>
        <time>2021-09-05T08:13:09Z</time>
      </trkpt>
      <trkpt lat="42.647757" lon="0.435635">
        <ele>3092.000000</ele>
        <time>2021-09-05T08:13:10Z</time>
      </trkpt>
      <trkpt lat="42.647758" lon="0.435625">
        <ele>3092.000000</ele>
        <time>2021-09-05T08:13:10Z</time>
      </trkpt>
      <trkpt lat="42.647765" lon="0.435618">
        <ele>3092.000000</ele>
        <time>2021-09-05T08:13:11Z</time>
      </trkpt>
      <trkpt lat="42.647768" lon="0.435617">
        <ele>3092.000000</ele>
        <time>2021-09-05T08:13:12Z</time>
      </trkpt>
      <trkpt lat="42.647770" lon="0.435620">
        <ele>3092.000000</ele>
        <time>2021-09-05T08:13:15Z</time>
      </trkpt>
      <trkpt lat="42.647768" lon="0.435622">
        <ele>3092.000000</ele>
        <time>2021-09-05T08:13:16Z</time>
      </trkpt>
      <trkpt lat="42.647763" lon="0.435623">
        <ele>3092.000000</ele>
        <time>2021-09-05T08:13:20Z</time>
      </trkpt>
      <trkpt lat="42.647767" lon="0.435622">
        <ele>3092.000000</ele>
        <time>2021-09-05T08:13:21Z</time>
      </trkpt>
      <trkpt lat="42.647780" lon="0.435607">
        <ele>3095.000000</ele>
        <time>2021-09-05T08:17:31Z</time>
      </trkpt>
      <trkpt lat="42.647781" lon="0.435598">
        <ele>3095.000000</ele>
        <time>2021-09-05T08:17:32Z</time>
      </trkpt>
      <trkpt lat="42.647785" lon="0.435588">
        <ele>3095.000000</ele>
        <time>2021-09-05T08:17:33Z</time>
      </trkpt>
      <trkpt lat="42.647784" lon="0.435573">
        <ele>3095.000000</ele>
        <time>2021-09-05T08:17:34Z</time>
      </trkpt>
      <trkpt lat="42.647783" lon="0.435557">
        <ele>3095.000000</ele>
        <time>2021-09-05T08:17:35Z</time>
      </trkpt>
      <trkpt lat="42.647781" lon="0.435540">
        <ele>3095.000000</ele>
        <time>2021-09-05T08:17:37Z</time>
      </trkpt>
      <trkpt lat="42.647778" lon="0.435530">
        <ele>3095.000000</ele>
        <time>2021-09-05T08:17:37Z</time>
      </trkpt>
      <trkpt lat="42.647775" lon="0.435517">
        <ele>3095.000000</ele>
        <time>2021-09-05T08:17:38Z</time>
      </trkpt>
      <trkpt lat="42.647774" lon="0.435508">
        <ele>3095.000000</ele>
        <time>2021-09-05T08:17:39Z</time>
      </trkpt>
      <trkpt lat="42.647773" lon="0.435500">
        <ele>3095.000000</ele>
        <time>2021-09-05T08:17:40Z</time>
      </trkpt>
      <trkpt lat="42.647772" lon="0.435497">
        <ele>3095.000000</ele>
        <time>2021-09-05T08:17:41Z</time>
      </trkpt>
      <trkpt lat="42.647771" lon="0.435493">
        <ele>3095.000000</ele>
        <time>2021-09-05T08:17:42Z</time>
      </trkpt>
      <trkpt lat="42.647769" lon="0.435490">
        <ele>3095.000000</ele>
        <time>2021-09-05T08:17:43Z</time>
      </trkpt>
      <trkpt lat="42.647768" lon="0.435488">
        <ele>3095.000000</ele>
        <time>2021-09-05T08:17:44Z</time>
      </trkpt>
      <trkpt lat="42.647765" lon="0.435482">
        <ele>3095.000000</ele>
        <time>2021-09-05T08:17:48Z</time>
      </trkpt>
      <trkpt lat="42.647762" lon="0.435480">
        <ele>3095.000000</ele>
        <time>2021-09-05T08:17:49Z</time>
      </trkpt>
      <trkpt lat="42.647778" lon="0.435503">
        <ele>3095.000000</ele>
        <time>2021-09-05T08:18:42Z</time>
      </trkpt>
      <trkpt lat="42.647782" lon="0.435507">
        <ele>3095.000000</ele>
        <time>2021-09-05T08:18:42Z</time>
      </trkpt>
      <trkpt lat="42.647782" lon="0.435513">
        <ele>3095.000000</ele>
        <time>2021-09-05T08:18:43Z</time>
      </trkpt>
      <trkpt lat="42.647780" lon="0.435515">
        <ele>3095.000000</ele>
        <time>2021-09-05T08:18:44Z</time>
      </trkpt>
      <trkpt lat="42.647779" lon="0.435503">
        <ele>3095.000000</ele>
        <time>2021-09-05T08:18:46Z</time>
      </trkpt>
      <trkpt lat="42.647807" lon="0.435540">
        <ele>3095.000000</ele>
        <time>2021-09-05T08:19:04Z</time>
      </trkpt>
      <trkpt lat="42.647807" lon="0.435555">
        <ele>3095.000000</ele>
        <time>2021-09-05T08:19:06Z</time>
      </trkpt>
      <trkpt lat="42.647804" lon="0.435567">
        <ele>3095.000000</ele>
        <time>2021-09-05T08:19:06Z</time>
      </trkpt>
      <trkpt lat="42.647803" lon="0.435580">
        <ele>3095.000000</ele>
        <time>2021-09-05T08:19:07Z</time>
      </trkpt>
      <trkpt lat="42.647803" lon="0.435590">
        <ele>3095.000000</ele>
        <time>2021-09-05T08:19:08Z</time>
      </trkpt>
      <trkpt lat="42.647802" lon="0.435600">
        <ele>3095.000000</ele>
        <time>2021-09-05T08:19:09Z</time>
      </trkpt>
      <trkpt lat="42.647801" lon="0.435607">
        <ele>3095.000000</ele>
        <time>2021-09-05T08:19:10Z</time>
      </trkpt>
      <trkpt lat="42.647799" lon="0.435612">
        <ele>3095.000000</ele>
        <time>2021-09-05T08:19:11Z</time>
      </trkpt>
      <trkpt lat="42.647798" lon="0.435615">
        <ele>3095.000000</ele>
        <time>2021-09-05T08:19:12Z</time>
      </trkpt>
      <trkpt lat="42.647798" lon="0.435620">
        <ele>3095.000000</ele>
        <time>2021-09-05T08:19:13Z</time>
      </trkpt>
      <trkpt lat="42.647798" lon="0.435617">
        <ele>3095.000000</ele>
        <time>2021-09-05T08:19:14Z</time>
      </trkpt>
      <trkpt lat="42.647797" lon="0.435618">
        <ele>3095.000000</ele>
        <time>2021-09-05T08:19:15Z</time>
      </trkpt>
      <trkpt lat="42.647796" lon="0.435623">
        <ele>3095.000000</ele>
        <time>2021-09-05T08:19:19Z</time>
      </trkpt>
      <trkpt lat="42.647795" lon="0.435627">
        <ele>3095.000000</ele>
        <time>2021-09-05T08:19:20Z</time>
      </trkpt>
      <trkpt lat="42.647793" lon="0.435630">
        <ele>3095.000000</ele>
        <time>2021-09-05T08:19:21Z</time>
      </trkpt>
      <trkpt lat="42.647795" lon="0.435620">
        <ele>3095.000000</ele>
        <time>2021-09-05T08:19:22Z</time>
      </trkpt>
      <trkpt lat="42.647780" lon="0.435640">
        <ele>3095.000000</ele>
        <time>2021-09-05T08:20:21Z</time>
      </trkpt>
      <trkpt lat="42.647772" lon="0.435643">
        <ele>3095.000000</ele>
        <time>2021-09-05T08:20:22Z</time>
      </trkpt>
      <trkpt lat="42.647763" lon="0.435642">
        <ele>3095.000000</ele>
        <time>2021-09-05T08:20:23Z</time>
      </trkpt>
      <trkpt lat="42.647753" lon="0.435645">
        <ele>3095.000000</ele>
        <time>2021-09-05T08:20:24Z</time>
      </trkpt>
      <trkpt lat="42.647745" lon="0.435647">
        <ele>3095.000000</ele>
        <time>2021-09-05T08:20:25Z</time>
      </trkpt>
      <trkpt lat="42.647738" lon="0.435647">
        <ele>3095.000000</ele>
        <time>2021-09-05T08:20:26Z</time>
      </trkpt>
      <trkpt lat="42.647723" lon="0.435648">
        <ele>3095.000000</ele>
        <time>2021-09-05T08:20:27Z</time>
      </trkpt>
      <trkpt lat="42.647712" lon="0.435648">
        <ele>3095.000000</ele>
        <time>2021-09-05T08:20:28Z</time>
      </trkpt>
      <trkpt lat="42.647703" lon="0.435645">
        <ele>3095.000000</ele>
        <time>2021-09-05T08:20:29Z</time>
      </trkpt>
      <trkpt lat="42.647695" lon="0.435650">
        <ele>3095.000000</ele>
        <time>2021-09-05T08:20:30Z</time>
      </trkpt>
      <trkpt lat="42.647687" lon="0.435655">
        <ele>3095.000000</ele>
        <time>2021-09-05T08:20:31Z</time>
      </trkpt>
      <trkpt lat="42.647683" lon="0.435661">
        <ele>3095.000000</ele>
        <time>2021-09-05T08:20:32Z</time>
      </trkpt>
      <trkpt lat="42.647682" lon="0.435675">
        <ele>3095.000000</ele>
        <time>2021-09-05T08:20:33Z</time>
      </trkpt>
      <trkpt lat="42.647685" lon="0.435683">
        <ele>3095.000000</ele>
        <time>2021-09-05T08:20:34Z</time>
      </trkpt>
      <trkpt lat="42.647692" lon="0.435693">
        <ele>3095.000000</ele>
        <time>2021-09-05T08:20:35Z</time>
      </trkpt>
      <trkpt lat="42.647697" lon="0.435705">
        <ele>3095.000000</ele>
        <time>2021-09-05T08:20:36Z</time>
      </trkpt>
      <trkpt lat="42.647703" lon="0.435718">
        <ele>3095.000000</ele>
        <time>2021-09-05T08:20:38Z</time>
      </trkpt>
      <trkpt lat="42.647705" lon="0.435733">
        <ele>3095.000000</ele>
        <time>2021-09-05T08:20:38Z</time>
      </trkpt>
      <trkpt lat="42.647700" lon="0.435742">
        <ele>3095.000000</ele>
        <time>2021-09-05T08:20:39Z</time>
      </trkpt>
      <trkpt lat="42.647696" lon="0.435752">
        <ele>3095.000000</ele>
        <time>2021-09-05T08:20:40Z</time>
      </trkpt>
      <trkpt lat="42.647693" lon="0.435760">
        <ele>3095.000000</ele>
        <time>2021-09-05T08:20:41Z</time>
      </trkpt>
      <trkpt lat="42.647697" lon="0.435772">
        <ele>3095.000000</ele>
        <time>2021-09-05T08:20:42Z</time>
      </trkpt>
      <trkpt lat="42.647696" lon="0.435788">
        <ele>3095.000000</ele>
        <time>2021-09-05T08:20:43Z</time>
      </trkpt>
      <trkpt lat="42.647694" lon="0.435803">
        <ele>3095.000000</ele>
        <time>2021-09-05T08:20:44Z</time>
      </trkpt>
      <trkpt lat="42.647693" lon="0.435818">
        <ele>3095.000000</ele>
        <time>2021-09-05T08:20:45Z</time>
      </trkpt>
      <trkpt lat="42.647690" lon="0.435830">
        <ele>3095.000000</ele>
        <time>2021-09-05T08:20:46Z</time>
      </trkpt>
      <trkpt lat="42.647686" lon="0.435832">
        <ele>3095.000000</ele>
        <time>2021-09-05T08:20:47Z</time>
      </trkpt>
      <trkpt lat="42.647677" lon="0.435833">
        <ele>3095.000000</ele>
        <time>2021-09-05T08:20:48Z</time>
      </trkpt>
      <trkpt lat="42.647670" lon="0.435837">
        <ele>3095.000000</ele>
        <time>2021-09-05T08:20:49Z</time>
      </trkpt>
      <trkpt lat="42.647665" lon="0.435842">
        <ele>3095.000000</ele>
        <time>2021-09-05T08:20:50Z</time>
      </trkpt>
      <trkpt lat="42.647660" lon="0.435845">
        <ele>3095.000000</ele>
        <time>2021-09-05T08:20:51Z</time>
      </trkpt>
      <trkpt lat="42.647653" lon="0.435848">
        <ele>3095.000000</ele>
        <time>2021-09-05T08:20:52Z</time>
      </trkpt>
      <trkpt lat="42.647650" lon="0.435853">
        <ele>3095.000000</ele>
        <time>2021-09-05T08:20:53Z</time>
      </trkpt>
      <trkpt lat="42.647643" lon="0.435857">
        <ele>3095.000000</ele>
        <time>2021-09-05T08:20:54Z</time>
      </trkpt>
      <trkpt lat="42.647638" lon="0.435859">
        <ele>3095.000000</ele>
        <time>2021-09-05T08:20:55Z</time>
      </trkpt>
      <trkpt lat="42.647630" lon="0.435865">
        <ele>3095.000000</ele>
        <time>2021-09-05T08:20:56Z</time>
      </trkpt>
      <trkpt lat="42.647622" lon="0.435869">
        <ele>3095.000000</ele>
        <time>2021-09-05T08:20:57Z</time>
      </trkpt>
      <trkpt lat="42.647613" lon="0.435873">
        <ele>3095.000000</ele>
        <time>2021-09-05T08:20:59Z</time>
      </trkpt>
      <trkpt lat="42.647607" lon="0.435877">
        <ele>3095.000000</ele>
        <time>2021-09-05T08:20:59Z</time>
      </trkpt>
      <trkpt lat="42.647597" lon="0.435887">
        <ele>3095.000000</ele>
        <time>2021-09-05T08:21:00Z</time>
      </trkpt>
      <trkpt lat="42.647588" lon="0.435897">
        <ele>3095.000000</ele>
        <time>2021-09-05T08:21:01Z</time>
      </trkpt>
      <trkpt lat="42.647578" lon="0.435903">
        <ele>3095.000000</ele>
        <time>2021-09-05T08:21:02Z</time>
      </trkpt>
      <trkpt lat="42.647570" lon="0.435906">
        <ele>3095.000000</ele>
        <time>2021-09-05T08:21:03Z</time>
      </trkpt>
      <trkpt lat="42.647562" lon="0.435903">
        <ele>3080.000000</ele>
        <time>2021-09-05T08:21:04Z</time>
      </trkpt>
      <trkpt lat="42.647553" lon="0.435908">
        <ele>3080.000000</ele>
        <time>2021-09-05T08:21:05Z</time>
      </trkpt>
      <trkpt lat="42.647542" lon="0.435916">
        <ele>3079.000000</ele>
        <time>2021-09-05T08:21:06Z</time>
      </trkpt>
      <trkpt lat="42.647532" lon="0.435920">
        <ele>3079.000000</ele>
        <time>2021-09-05T08:21:07Z</time>
      </trkpt>
      <trkpt lat="42.647522" lon="0.435921">
        <ele>3078.000000</ele>
        <time>2021-09-05T08:21:08Z</time>
      </trkpt>
      <trkpt lat="42.647508" lon="0.435924">
        <ele>3078.000000</ele>
        <time>2021-09-05T08:21:09Z</time>
      </trkpt>
      <trkpt lat="42.647497" lon="0.435925">
        <ele>3078.000000</ele>
        <time>2021-09-05T08:21:10Z</time>
      </trkpt>
      <trkpt lat="42.647485" lon="0.435926">
        <ele>3077.000000</ele>
        <time>2021-09-05T08:21:11Z</time>
      </trkpt>
      <trkpt lat="42.647475" lon="0.435928">
        <ele>3077.000000</ele>
        <time>2021-09-05T08:21:12Z</time>
      </trkpt>
      <trkpt lat="42.647468" lon="0.435932">
        <ele>3077.000000</ele>
        <time>2021-09-05T08:21:13Z</time>
      </trkpt>
      <trkpt lat="42.647462" lon="0.435936">
        <ele>3076.000000</ele>
        <time>2021-09-05T08:21:14Z</time>
      </trkpt>
      <trkpt lat="42.647455" lon="0.435939">
        <ele>3076.000000</ele>
        <time>2021-09-05T08:21:15Z</time>
      </trkpt>
      <trkpt lat="42.647447" lon="0.435943">
        <ele>3075.000000</ele>
        <time>2021-09-05T08:21:16Z</time>
      </trkpt>
      <trkpt lat="42.647438" lon="0.435947">
        <ele>3075.000000</ele>
        <time>2021-09-05T08:21:17Z</time>
      </trkpt>
      <trkpt lat="42.647435" lon="0.435948">
        <ele>3073.000000</ele>
        <time>2021-09-05T08:21:18Z</time>
      </trkpt>
      <trkpt lat="42.647427" lon="0.435952">
        <ele>3073.000000</ele>
        <time>2021-09-05T08:21:19Z</time>
      </trkpt>
      <trkpt lat="42.647417" lon="0.435957">
        <ele>3073.000000</ele>
        <time>2021-09-05T08:21:20Z</time>
      </trkpt>
      <trkpt lat="42.647407" lon="0.435962">
        <ele>3072.000000</ele>
        <time>2021-09-05T08:21:21Z</time>
      </trkpt>
      <trkpt lat="42.647395" lon="0.435968">
        <ele>3072.000000</ele>
        <time>2021-09-05T08:21:23Z</time>
      </trkpt>
      <trkpt lat="42.647385" lon="0.435973">
        <ele>3072.000000</ele>
        <time>2021-09-05T08:21:23Z</time>
      </trkpt>
      <trkpt lat="42.647380" lon="0.435977">
        <ele>3071.000000</ele>
        <time>2021-09-05T08:21:24Z</time>
      </trkpt>
      <trkpt lat="42.647373" lon="0.435981">
        <ele>3071.000000</ele>
        <time>2021-09-05T08:21:25Z</time>
      </trkpt>
      <trkpt lat="42.647367" lon="0.435984">
        <ele>3071.000000</ele>
        <time>2021-09-05T08:21:26Z</time>
      </trkpt>
      <trkpt lat="42.647357" lon="0.435988">
        <ele>3070.000000</ele>
        <time>2021-09-05T08:21:27Z</time>
      </trkpt>
      <trkpt lat="42.647350" lon="0.435990">
        <ele>3070.000000</ele>
        <time>2021-09-05T08:21:28Z</time>
      </trkpt>
      <trkpt lat="42.647343" lon="0.435993">
        <ele>3070.000000</ele>
        <time>2021-09-05T08:21:29Z</time>
      </trkpt>
      <trkpt lat="42.647337" lon="0.435995">
        <ele>3069.000000</ele>
        <time>2021-09-05T08:21:30Z</time>
      </trkpt>
      <trkpt lat="42.647330" lon="0.435996">
        <ele>3069.000000</ele>
        <time>2021-09-05T08:21:31Z</time>
      </trkpt>
      <trkpt lat="42.647323" lon="0.435997">
        <ele>3069.000000</ele>
        <time>2021-09-05T08:21:32Z</time>
      </trkpt>
      <trkpt lat="42.647317" lon="0.435980">
        <ele>3069.000000</ele>
        <time>2021-09-05T08:21:33Z</time>
      </trkpt>
      <trkpt lat="42.647312" lon="0.435980">
        <ele>3069.000000</ele>
        <time>2021-09-05T08:21:34Z</time>
      </trkpt>
      <trkpt lat="42.647305" lon="0.435983">
        <ele>3069.000000</ele>
        <time>2021-09-05T08:21:34Z</time>
      </trkpt>
      <trkpt lat="42.647295" lon="0.435985">
        <ele>3069.000000</ele>
        <time>2021-09-05T08:21:35Z</time>
      </trkpt>
      <trkpt lat="42.647290" lon="0.435987">
        <ele>3069.000000</ele>
        <time>2021-09-05T08:21:36Z</time>
      </trkpt>
      <trkpt lat="42.647282" lon="0.435987">
        <ele>3069.000000</ele>
        <time>2021-09-05T08:21:37Z</time>
      </trkpt>
      <trkpt lat="42.647273" lon="0.435991">
        <ele>3069.000000</ele>
        <time>2021-09-05T08:21:38Z</time>
      </trkpt>
      <trkpt lat="42.647267" lon="0.435996">
        <ele>3069.000000</ele>
        <time>2021-09-05T08:21:39Z</time>
      </trkpt>
      <trkpt lat="42.647257" lon="0.436007">
        <ele>3069.000000</ele>
        <time>2021-09-05T08:21:41Z</time>
      </trkpt>
      <trkpt lat="42.647248" lon="0.436013">
        <ele>3068.000000</ele>
        <time>2021-09-05T08:21:41Z</time>
      </trkpt>
      <trkpt lat="42.647237" lon="0.436021">
        <ele>3068.000000</ele>
        <time>2021-09-05T08:21:42Z</time>
      </trkpt>
      <trkpt lat="42.647232" lon="0.436026">
        <ele>3068.000000</ele>
        <time>2021-09-05T08:21:43Z</time>
      </trkpt>
      <trkpt lat="42.647227" lon="0.436031">
        <ele>3068.000000</ele>
        <time>2021-09-05T08:21:44Z</time>
      </trkpt>
      <trkpt lat="42.647217" lon="0.436038">
        <ele>3067.000000</ele>
        <time>2021-09-05T08:21:45Z</time>
      </trkpt>
      <trkpt lat="42.647210" lon="0.436041">
        <ele>3067.000000</ele>
        <time>2021-09-05T08:21:46Z</time>
      </trkpt>
      <trkpt lat="42.647208" lon="0.436040">
        <ele>3067.000000</ele>
        <time>2021-09-05T08:21:47Z</time>
      </trkpt>
      <trkpt lat="42.647202" lon="0.436032">
        <ele>3067.000000</ele>
        <time>2021-09-05T08:21:48Z</time>
      </trkpt>
      <trkpt lat="42.647195" lon="0.436033">
        <ele>3066.000000</ele>
        <time>2021-09-05T08:21:49Z</time>
      </trkpt>
      <trkpt lat="42.647192" lon="0.436037">
        <ele>3066.000000</ele>
        <time>2021-09-05T08:21:50Z</time>
      </trkpt>
      <trkpt lat="42.647187" lon="0.436042">
        <ele>3066.000000</ele>
        <time>2021-09-05T08:21:51Z</time>
      </trkpt>
      <trkpt lat="42.647178" lon="0.436047">
        <ele>3066.000000</ele>
        <time>2021-09-05T08:21:52Z</time>
      </trkpt>
      <trkpt lat="42.647173" lon="0.436048">
        <ele>3065.000000</ele>
        <time>2021-09-05T08:21:53Z</time>
      </trkpt>
      <trkpt lat="42.647172" lon="0.436045">
        <ele>3065.000000</ele>
        <time>2021-09-05T08:21:54Z</time>
      </trkpt>
      <trkpt lat="42.647165" lon="0.436044">
        <ele>3065.000000</ele>
        <time>2021-09-05T08:21:55Z</time>
      </trkpt>
      <trkpt lat="42.647160" lon="0.436046">
        <ele>3065.000000</ele>
        <time>2021-09-05T08:21:56Z</time>
      </trkpt>
      <trkpt lat="42.647153" lon="0.436047">
        <ele>3064.000000</ele>
        <time>2021-09-05T08:21:57Z</time>
      </trkpt>
      <trkpt lat="42.647147" lon="0.436049">
        <ele>3064.000000</ele>
        <time>2021-09-05T08:21:58Z</time>
      </trkpt>
      <trkpt lat="42.647138" lon="0.436050">
        <ele>3064.000000</ele>
        <time>2021-09-05T08:21:59Z</time>
      </trkpt>
      <trkpt lat="42.647135" lon="0.436050">
        <ele>3063.000000</ele>
        <time>2021-09-05T08:22:00Z</time>
      </trkpt>
      <trkpt lat="42.647127" lon="0.436051">
        <ele>3063.000000</ele>
        <time>2021-09-05T08:22:01Z</time>
      </trkpt>
      <trkpt lat="42.647122" lon="0.436053">
        <ele>3062.000000</ele>
        <time>2021-09-05T08:22:02Z</time>
      </trkpt>
      <trkpt lat="42.647115" lon="0.436055">
        <ele>3062.000000</ele>
        <time>2021-09-05T08:22:03Z</time>
      </trkpt>
      <trkpt lat="42.647112" lon="0.436056">
        <ele>3062.000000</ele>
        <time>2021-09-05T08:22:05Z</time>
      </trkpt>
      <trkpt lat="42.647105" lon="0.436059">
        <ele>3061.000000</ele>
        <time>2021-09-05T08:22:05Z</time>
      </trkpt>
      <trkpt lat="42.647102" lon="0.436060">
        <ele>3061.000000</ele>
        <time>2021-09-05T08:22:06Z</time>
      </trkpt>
      <trkpt lat="42.647097" lon="0.436063">
        <ele>3061.000000</ele>
        <time>2021-09-05T08:22:07Z</time>
      </trkpt>
      <trkpt lat="42.647088" lon="0.436077">
        <ele>3061.000000</ele>
        <time>2021-09-05T08:22:08Z</time>
      </trkpt>
      <trkpt lat="42.647082" lon="0.436082">
        <ele>3061.000000</ele>
        <time>2021-09-05T08:22:09Z</time>
      </trkpt>
      <trkpt lat="42.647078" lon="0.436083">
        <ele>3060.000000</ele>
        <time>2021-09-05T08:22:10Z</time>
      </trkpt>
      <trkpt lat="42.647075" lon="0.436085">
        <ele>3060.000000</ele>
        <time>2021-09-05T08:22:11Z</time>
      </trkpt>
      <trkpt lat="42.647072" lon="0.436087">
        <ele>3060.000000</ele>
        <time>2021-09-05T08:22:12Z</time>
      </trkpt>
      <trkpt lat="42.647070" lon="0.436089">
        <ele>3059.000000</ele>
        <time>2021-09-05T08:22:13Z</time>
      </trkpt>
      <trkpt lat="42.647070" lon="0.436090">
        <ele>3059.000000</ele>
        <time>2021-09-05T08:22:14Z</time>
      </trkpt>
      <trkpt lat="42.647068" lon="0.436093">
        <ele>3058.000000</ele>
        <time>2021-09-05T08:22:15Z</time>
      </trkpt>
      <trkpt lat="42.647067" lon="0.436096">
        <ele>3058.000000</ele>
        <time>2021-09-05T08:22:16Z</time>
      </trkpt>
      <trkpt lat="42.647060" lon="0.436098">
        <ele>3058.000000</ele>
        <time>2021-09-05T08:22:17Z</time>
      </trkpt>
      <trkpt lat="42.647053" lon="0.436097">
        <ele>3058.000000</ele>
        <time>2021-09-05T08:22:18Z</time>
      </trkpt>
      <trkpt lat="42.647048" lon="0.436088">
        <ele>3058.000000</ele>
        <time>2021-09-05T08:22:19Z</time>
      </trkpt>
      <trkpt lat="42.647043" lon="0.436093">
        <ele>3057.000000</ele>
        <time>2021-09-05T08:22:22Z</time>
      </trkpt>
      <trkpt lat="42.647035" lon="0.436094">
        <ele>3057.000000</ele>
        <time>2021-09-05T08:22:23Z</time>
      </trkpt>
      <trkpt lat="42.647027" lon="0.436094">
        <ele>3057.000000</ele>
        <time>2021-09-05T08:22:24Z</time>
      </trkpt>
      <trkpt lat="42.647018" lon="0.436094">
        <ele>3057.000000</ele>
        <time>2021-09-05T08:22:25Z</time>
      </trkpt>
      <trkpt lat="42.647013" lon="0.436096">
        <ele>3057.000000</ele>
        <time>2021-09-05T08:22:26Z</time>
      </trkpt>
      <trkpt lat="42.647007" lon="0.436101">
        <ele>3057.000000</ele>
        <time>2021-09-05T08:22:27Z</time>
      </trkpt>
      <trkpt lat="42.647002" lon="0.436110">
        <ele>3057.000000</ele>
        <time>2021-09-05T08:22:29Z</time>
      </trkpt>
      <trkpt lat="42.647000" lon="0.436113">
        <ele>3056.000000</ele>
        <time>2021-09-05T08:22:29Z</time>
      </trkpt>
      <trkpt lat="42.646995" lon="0.436110">
        <ele>3056.000000</ele>
        <time>2021-09-05T08:22:30Z</time>
      </trkpt>
      <trkpt lat="42.646990" lon="0.436106">
        <ele>3056.000000</ele>
        <time>2021-09-05T08:22:31Z</time>
      </trkpt>
      <trkpt lat="42.646985" lon="0.436103">
        <ele>3055.000000</ele>
        <time>2021-09-05T08:22:33Z</time>
      </trkpt>
      <trkpt lat="42.646978" lon="0.436105">
        <ele>3055.000000</ele>
        <time>2021-09-05T08:22:34Z</time>
      </trkpt>
      <trkpt lat="42.646972" lon="0.436107">
        <ele>3055.000000</ele>
        <time>2021-09-05T08:22:35Z</time>
      </trkpt>
      <trkpt lat="42.646967" lon="0.436112">
        <ele>3055.000000</ele>
        <time>2021-09-05T08:22:37Z</time>
      </trkpt>
      <trkpt lat="42.646957" lon="0.436118">
        <ele>3055.000000</ele>
        <time>2021-09-05T08:22:37Z</time>
      </trkpt>
      <trkpt lat="42.646950" lon="0.436128">
        <ele>3055.000000</ele>
        <time>2021-09-05T08:22:38Z</time>
      </trkpt>
      <trkpt lat="42.646942" lon="0.436143">
        <ele>3055.000000</ele>
        <time>2021-09-05T08:22:39Z</time>
      </trkpt>
      <trkpt lat="42.646925" lon="0.436153">
        <ele>3055.000000</ele>
        <time>2021-09-05T08:22:40Z</time>
      </trkpt>
      <trkpt lat="42.646917" lon="0.436157">
        <ele>3055.000000</ele>
        <time>2021-09-05T08:22:41Z</time>
      </trkpt>
      <trkpt lat="42.646907" lon="0.436161">
        <ele>3055.000000</ele>
        <time>2021-09-05T08:22:42Z</time>
      </trkpt>
      <trkpt lat="42.646900" lon="0.436160">
        <ele>3054.000000</ele>
        <time>2021-09-05T08:22:43Z</time>
      </trkpt>
      <trkpt lat="42.646895" lon="0.436161">
        <ele>3054.000000</ele>
        <time>2021-09-05T08:22:44Z</time>
      </trkpt>
      <trkpt lat="42.646888" lon="0.436163">
        <ele>3054.000000</ele>
        <time>2021-09-05T08:22:45Z</time>
      </trkpt>
      <trkpt lat="42.646882" lon="0.436166">
        <ele>3054.000000</ele>
        <time>2021-09-05T08:22:46Z</time>
      </trkpt>
      <trkpt lat="42.646877" lon="0.436168">
        <ele>3054.000000</ele>
        <time>2021-09-05T08:22:47Z</time>
      </trkpt>
      <trkpt lat="42.646870" lon="0.436174">
        <ele>3054.000000</ele>
        <time>2021-09-05T08:22:49Z</time>
      </trkpt>
      <trkpt lat="42.646863" lon="0.436181">
        <ele>3054.000000</ele>
        <time>2021-09-05T08:22:49Z</time>
      </trkpt>
      <trkpt lat="42.646850" lon="0.436187">
        <ele>3054.000000</ele>
        <time>2021-09-05T08:22:50Z</time>
      </trkpt>
      <trkpt lat="42.646843" lon="0.436188">
        <ele>3054.000000</ele>
        <time>2021-09-05T08:22:51Z</time>
      </trkpt>
      <trkpt lat="42.646835" lon="0.436191">
        <ele>3054.000000</ele>
        <time>2021-09-05T08:22:52Z</time>
      </trkpt>
      <trkpt lat="42.646828" lon="0.436193">
        <ele>3054.000000</ele>
        <time>2021-09-05T08:22:53Z</time>
      </trkpt>
      <trkpt lat="42.646818" lon="0.436199">
        <ele>3054.000000</ele>
        <time>2021-09-05T08:22:54Z</time>
      </trkpt>
      <trkpt lat="42.646808" lon="0.436206">
        <ele>3054.000000</ele>
        <time>2021-09-05T08:22:55Z</time>
      </trkpt>
      <trkpt lat="42.646798" lon="0.436213">
        <ele>3054.000000</ele>
        <time>2021-09-05T08:22:56Z</time>
      </trkpt>
      <trkpt lat="42.646788" lon="0.436221">
        <ele>3053.000000</ele>
        <time>2021-09-05T08:22:57Z</time>
      </trkpt>
      <trkpt lat="42.646782" lon="0.436227">
        <ele>3053.000000</ele>
        <time>2021-09-05T08:22:58Z</time>
      </trkpt>
      <trkpt lat="42.646777" lon="0.436231">
        <ele>3053.000000</ele>
        <time>2021-09-05T08:22:59Z</time>
      </trkpt>
      <trkpt lat="42.646775" lon="0.436234">
        <ele>3052.000000</ele>
        <time>2021-09-05T08:23:00Z</time>
      </trkpt>
      <trkpt lat="42.646770" lon="0.436240">
        <ele>3052.000000</ele>
        <time>2021-09-05T08:23:01Z</time>
      </trkpt>
      <trkpt lat="42.646768" lon="0.436243">
        <ele>3052.000000</ele>
        <time>2021-09-05T08:23:02Z</time>
      </trkpt>
      <trkpt lat="42.646763" lon="0.436248">
        <ele>3052.000000</ele>
        <time>2021-09-05T08:23:03Z</time>
      </trkpt>
      <trkpt lat="42.646762" lon="0.436251">
        <ele>3051.000000</ele>
        <time>2021-09-05T08:23:04Z</time>
      </trkpt>
      <trkpt lat="42.646758" lon="0.436272">
        <ele>3051.000000</ele>
        <time>2021-09-05T08:23:05Z</time>
      </trkpt>
      <trkpt lat="42.646748" lon="0.436268">
        <ele>3051.000000</ele>
        <time>2021-09-05T08:23:06Z</time>
      </trkpt>
      <trkpt lat="42.646740" lon="0.436262">
        <ele>3050.000000</ele>
        <time>2021-09-05T08:23:07Z</time>
      </trkpt>
      <trkpt lat="42.646733" lon="0.436262">
        <ele>3050.000000</ele>
        <time>2021-09-05T08:23:08Z</time>
      </trkpt>
      <trkpt lat="42.646725" lon="0.436262">
        <ele>3049.000000</ele>
        <time>2021-09-05T08:23:09Z</time>
      </trkpt>
      <trkpt lat="42.646722" lon="0.436262">
        <ele>3049.000000</ele>
        <time>2021-09-05T08:23:10Z</time>
      </trkpt>
      <trkpt lat="42.646718" lon="0.436263">
        <ele>3049.000000</ele>
        <time>2021-09-05T08:23:11Z</time>
      </trkpt>
      <trkpt lat="42.646712" lon="0.436266">
        <ele>3048.000000</ele>
        <time>2021-09-05T08:23:12Z</time>
      </trkpt>
      <trkpt lat="42.646705" lon="0.436271">
        <ele>3048.000000</ele>
        <time>2021-09-05T08:23:14Z</time>
      </trkpt>
      <trkpt lat="42.646695" lon="0.436276">
        <ele>3048.000000</ele>
        <time>2021-09-05T08:23:14Z</time>
      </trkpt>
      <trkpt lat="42.646688" lon="0.436278">
        <ele>3048.000000</ele>
        <time>2021-09-05T08:23:15Z</time>
      </trkpt>
      <trkpt lat="42.646687" lon="0.436278">
        <ele>3048.000000</ele>
        <time>2021-09-05T08:23:16Z</time>
      </trkpt>
      <trkpt lat="42.646683" lon="0.436276">
        <ele>3047.000000</ele>
        <time>2021-09-05T08:23:17Z</time>
      </trkpt>
      <trkpt lat="42.646677" lon="0.436275">
        <ele>3047.000000</ele>
        <time>2021-09-05T08:23:18Z</time>
      </trkpt>
      <trkpt lat="42.646675" lon="0.436273">
        <ele>3047.000000</ele>
        <time>2021-09-05T08:23:19Z</time>
      </trkpt>
      <trkpt lat="42.646665" lon="0.436273">
        <ele>3046.000000</ele>
        <time>2021-09-05T08:23:20Z</time>
      </trkpt>
      <trkpt lat="42.646657" lon="0.436275">
        <ele>3046.000000</ele>
        <time>2021-09-05T08:23:21Z</time>
      </trkpt>
      <trkpt lat="42.646650" lon="0.436272">
        <ele>3046.000000</ele>
        <time>2021-09-05T08:23:22Z</time>
      </trkpt>
      <trkpt lat="42.646642" lon="0.436270">
        <ele>3045.000000</ele>
        <time>2021-09-05T08:23:23Z</time>
      </trkpt>
      <trkpt lat="42.646637" lon="0.436270">
        <ele>3045.000000</ele>
        <time>2021-09-05T08:23:24Z</time>
      </trkpt>
      <trkpt lat="42.646633" lon="0.436272">
        <ele>3045.000000</ele>
        <time>2021-09-05T08:23:25Z</time>
      </trkpt>
      <trkpt lat="42.646630" lon="0.436280">
        <ele>3045.000000</ele>
        <time>2021-09-05T08:23:26Z</time>
      </trkpt>
      <trkpt lat="42.646623" lon="0.436288">
        <ele>3044.000000</ele>
        <time>2021-09-05T08:23:27Z</time>
      </trkpt>
      <trkpt lat="42.646618" lon="0.436297">
        <ele>3044.000000</ele>
        <time>2021-09-05T08:23:28Z</time>
      </trkpt>
      <trkpt lat="42.646617" lon="0.436308">
        <ele>3044.000000</ele>
        <time>2021-09-05T08:23:29Z</time>
      </trkpt>
      <trkpt lat="42.646612" lon="0.436310">
        <ele>3044.000000</ele>
        <time>2021-09-05T08:23:30Z</time>
      </trkpt>
      <trkpt lat="42.646610" lon="0.436317">
        <ele>3043.000000</ele>
        <time>2021-09-05T08:23:31Z</time>
      </trkpt>
      <trkpt lat="42.646600" lon="0.436322">
        <ele>3043.000000</ele>
        <time>2021-09-05T08:23:32Z</time>
      </trkpt>
      <trkpt lat="42.646593" lon="0.436318">
        <ele>3042.000000</ele>
        <time>2021-09-05T08:23:33Z</time>
      </trkpt>
      <trkpt lat="42.646588" lon="0.436317">
        <ele>3042.000000</ele>
        <time>2021-09-05T08:23:34Z</time>
      </trkpt>
      <trkpt lat="42.646582" lon="0.436317">
        <ele>3042.000000</ele>
        <time>2021-09-05T08:23:35Z</time>
      </trkpt>
      <trkpt lat="42.646578" lon="0.436325">
        <ele>3041.000000</ele>
        <time>2021-09-05T08:23:36Z</time>
      </trkpt>
      <trkpt lat="42.646577" lon="0.436330">
        <ele>3041.000000</ele>
        <time>2021-09-05T08:23:37Z</time>
      </trkpt>
      <trkpt lat="42.646573" lon="0.436340">
        <ele>3041.000000</ele>
        <time>2021-09-05T08:23:38Z</time>
      </trkpt>
      <trkpt lat="42.646570" lon="0.436342">
        <ele>3041.000000</ele>
        <time>2021-09-05T08:23:39Z</time>
      </trkpt>
      <trkpt lat="42.646562" lon="0.436345">
        <ele>3040.000000</ele>
        <time>2021-09-05T08:23:40Z</time>
      </trkpt>
      <trkpt lat="42.646555" lon="0.436337">
        <ele>3040.000000</ele>
        <time>2021-09-05T08:23:41Z</time>
      </trkpt>
      <trkpt lat="42.646547" lon="0.436330">
        <ele>3040.000000</ele>
        <time>2021-09-05T08:23:42Z</time>
      </trkpt>
      <trkpt lat="42.646542" lon="0.436323">
        <ele>3040.000000</ele>
        <time>2021-09-05T08:23:43Z</time>
      </trkpt>
      <trkpt lat="42.646535" lon="0.436315">
        <ele>3039.000000</ele>
        <time>2021-09-05T08:23:44Z</time>
      </trkpt>
      <trkpt lat="42.646525" lon="0.436313">
        <ele>3039.000000</ele>
        <time>2021-09-05T08:23:45Z</time>
      </trkpt>
      <trkpt lat="42.646518" lon="0.436316">
        <ele>3038.000000</ele>
        <time>2021-09-05T08:23:46Z</time>
      </trkpt>
      <trkpt lat="42.646515" lon="0.436321">
        <ele>3038.000000</ele>
        <time>2021-09-05T08:23:47Z</time>
      </trkpt>
      <trkpt lat="42.646513" lon="0.436333">
        <ele>3038.000000</ele>
        <time>2021-09-05T08:23:48Z</time>
      </trkpt>
      <trkpt lat="42.646508" lon="0.436350">
        <ele>3038.000000</ele>
        <time>2021-09-05T08:23:49Z</time>
      </trkpt>
      <trkpt lat="42.646503" lon="0.436358">
        <ele>3038.000000</ele>
        <time>2021-09-05T08:23:50Z</time>
      </trkpt>
      <trkpt lat="42.646505" lon="0.436365">
        <ele>3038.000000</ele>
        <time>2021-09-05T08:23:51Z</time>
      </trkpt>
      <trkpt lat="42.646503" lon="0.436375">
        <ele>3038.000000</ele>
        <time>2021-09-05T08:23:52Z</time>
      </trkpt>
      <trkpt lat="42.646500" lon="0.436390">
        <ele>3037.000000</ele>
        <time>2021-09-05T08:23:53Z</time>
      </trkpt>
      <trkpt lat="42.646491" lon="0.436395">
        <ele>3037.000000</ele>
        <time>2021-09-05T08:23:54Z</time>
      </trkpt>
      <trkpt lat="42.646483" lon="0.436402">
        <ele>3037.000000</ele>
        <time>2021-09-05T08:23:55Z</time>
      </trkpt>
      <trkpt lat="42.646475" lon="0.436405">
        <ele>3037.000000</ele>
        <time>2021-09-05T08:23:57Z</time>
      </trkpt>
      <trkpt lat="42.646470" lon="0.436407">
        <ele>3037.000000</ele>
        <time>2021-09-05T08:23:57Z</time>
      </trkpt>
      <trkpt lat="42.646463" lon="0.436413">
        <ele>3037.000000</ele>
        <time>2021-09-05T08:23:58Z</time>
      </trkpt>
      <trkpt lat="42.646452" lon="0.436420">
        <ele>3036.000000</ele>
        <time>2021-09-05T08:23:59Z</time>
      </trkpt>
      <trkpt lat="42.646443" lon="0.436426">
        <ele>3036.000000</ele>
        <time>2021-09-05T08:24:00Z</time>
      </trkpt>
      <trkpt lat="42.646433" lon="0.436439">
        <ele>3036.000000</ele>
        <time>2021-09-05T08:24:01Z</time>
      </trkpt>
      <trkpt lat="42.646423" lon="0.436448">
        <ele>3035.000000</ele>
        <time>2021-09-05T08:24:02Z</time>
      </trkpt>
      <trkpt lat="42.646410" lon="0.436456">
        <ele>3035.000000</ele>
        <time>2021-09-05T08:24:03Z</time>
      </trkpt>
      <trkpt lat="42.646405" lon="0.436456">
        <ele>3034.000000</ele>
        <time>2021-09-05T08:24:04Z</time>
      </trkpt>
      <trkpt lat="42.646397" lon="0.436447">
        <ele>3034.000000</ele>
        <time>2021-09-05T08:24:05Z</time>
      </trkpt>
      <trkpt lat="42.646387" lon="0.436447">
        <ele>3034.000000</ele>
        <time>2021-09-05T08:24:06Z</time>
      </trkpt>
      <trkpt lat="42.646382" lon="0.436447">
        <ele>3033.000000</ele>
        <time>2021-09-05T08:24:07Z</time>
      </trkpt>
      <trkpt lat="42.646372" lon="0.436452">
        <ele>3033.000000</ele>
        <time>2021-09-05T08:24:09Z</time>
      </trkpt>
      <trkpt lat="42.646372" lon="0.436453">
        <ele>3032.000000</ele>
        <time>2021-09-05T08:24:10Z</time>
      </trkpt>
      <trkpt lat="42.646370" lon="0.436463">
        <ele>3032.000000</ele>
        <time>2021-09-05T08:24:11Z</time>
      </trkpt>
      <trkpt lat="42.646365" lon="0.436472">
        <ele>3032.000000</ele>
        <time>2021-09-05T08:24:12Z</time>
      </trkpt>
      <trkpt lat="42.646357" lon="0.436476">
        <ele>3032.000000</ele>
        <time>2021-09-05T08:24:13Z</time>
      </trkpt>
      <trkpt lat="42.646350" lon="0.436475">
        <ele>3031.000000</ele>
        <time>2021-09-05T08:24:14Z</time>
      </trkpt>
      <trkpt lat="42.646347" lon="0.436473">
        <ele>3031.000000</ele>
        <time>2021-09-05T08:24:15Z</time>
      </trkpt>
      <trkpt lat="42.646337" lon="0.436468">
        <ele>3030.000000</ele>
        <time>2021-09-05T08:24:16Z</time>
      </trkpt>
      <trkpt lat="42.646333" lon="0.436465">
        <ele>3030.000000</ele>
        <time>2021-09-05T08:24:17Z</time>
      </trkpt>
      <trkpt lat="42.646328" lon="0.436465">
        <ele>3030.000000</ele>
        <time>2021-09-05T08:24:18Z</time>
      </trkpt>
      <trkpt lat="42.646325" lon="0.436470">
        <ele>3030.000000</ele>
        <time>2021-09-05T08:24:19Z</time>
      </trkpt>
      <trkpt lat="42.646327" lon="0.436472">
        <ele>3030.000000</ele>
        <time>2021-09-05T08:24:21Z</time>
      </trkpt>
      <trkpt lat="42.646325" lon="0.436488">
        <ele>3030.000000</ele>
        <time>2021-09-05T08:24:21Z</time>
      </trkpt>
      <trkpt lat="42.646323" lon="0.436498">
        <ele>3030.000000</ele>
        <time>2021-09-05T08:24:22Z</time>
      </trkpt>
      <trkpt lat="42.646318" lon="0.436502">
        <ele>3030.000000</ele>
        <time>2021-09-05T08:24:23Z</time>
      </trkpt>
      <trkpt lat="42.646316" lon="0.436505">
        <ele>3028.000000</ele>
        <time>2021-09-05T08:24:28Z</time>
      </trkpt>
      <trkpt lat="42.646319" lon="0.436500">
        <ele>3027.000000</ele>
        <time>2021-09-05T08:24:30Z</time>
      </trkpt>
      <trkpt lat="42.646313" lon="0.436502">
        <ele>3027.000000</ele>
        <time>2021-09-05T08:24:31Z</time>
      </trkpt>
      <trkpt lat="42.646310" lon="0.436498">
        <ele>3027.000000</ele>
        <time>2021-09-05T08:24:32Z</time>
      </trkpt>
      <trkpt lat="42.646302" lon="0.436498">
        <ele>3026.000000</ele>
        <time>2021-09-05T08:24:33Z</time>
      </trkpt>
      <trkpt lat="42.646300" lon="0.436495">
        <ele>3026.000000</ele>
        <time>2021-09-05T08:24:34Z</time>
      </trkpt>
      <trkpt lat="42.646295" lon="0.436496">
        <ele>3026.000000</ele>
        <time>2021-09-05T08:24:35Z</time>
      </trkpt>
      <trkpt lat="42.646290" lon="0.436498">
        <ele>3025.000000</ele>
        <time>2021-09-05T08:24:36Z</time>
      </trkpt>
      <trkpt lat="42.646285" lon="0.436501">
        <ele>3025.000000</ele>
        <time>2021-09-05T08:24:37Z</time>
      </trkpt>
      <trkpt lat="42.646280" lon="0.436500">
        <ele>3025.000000</ele>
        <time>2021-09-05T08:24:38Z</time>
      </trkpt>
      <trkpt lat="42.646275" lon="0.436496">
        <ele>3025.000000</ele>
        <time>2021-09-05T08:24:39Z</time>
      </trkpt>
      <trkpt lat="42.646273" lon="0.436485">
        <ele>3025.000000</ele>
        <time>2021-09-05T08:24:41Z</time>
      </trkpt>
      <trkpt lat="42.646268" lon="0.436480">
        <ele>3025.000000</ele>
        <time>2021-09-05T08:24:41Z</time>
      </trkpt>
      <trkpt lat="42.646262" lon="0.436484">
        <ele>3025.000000</ele>
        <time>2021-09-05T08:24:42Z</time>
      </trkpt>
      <trkpt lat="42.646260" lon="0.436490">
        <ele>3025.000000</ele>
        <time>2021-09-05T08:24:43Z</time>
      </trkpt>
      <trkpt lat="42.646263" lon="0.436495">
        <ele>3025.000000</ele>
        <time>2021-09-05T08:24:47Z</time>
      </trkpt>
      <trkpt lat="42.646267" lon="0.436497">
        <ele>3025.000000</ele>
        <time>2021-09-05T08:24:48Z</time>
      </trkpt>
      <trkpt lat="42.646270" lon="0.436498">
        <ele>3025.000000</ele>
        <time>2021-09-05T08:24:49Z</time>
      </trkpt>
      <trkpt lat="42.646262" lon="0.436494">
        <ele>3025.000000</ele>
        <time>2021-09-05T08:24:50Z</time>
      </trkpt>
      <trkpt lat="42.646257" lon="0.436540">
        <ele>3025.000000</ele>
        <time>2021-09-05T08:24:56Z</time>
      </trkpt>
      <trkpt lat="42.646248" lon="0.436543">
        <ele>3025.000000</ele>
        <time>2021-09-05T08:24:57Z</time>
      </trkpt>
      <trkpt lat="42.646242" lon="0.436545">
        <ele>3024.000000</ele>
        <time>2021-09-05T08:24:58Z</time>
      </trkpt>
      <trkpt lat="42.646238" lon="0.436550">
        <ele>3024.000000</ele>
        <time>2021-09-05T08:24:59Z</time>
      </trkpt>
      <trkpt lat="42.646237" lon="0.436563">
        <ele>3024.000000</ele>
        <time>2021-09-05T08:25:00Z</time>
      </trkpt>
      <trkpt lat="42.646237" lon="0.436575">
        <ele>3024.000000</ele>
        <time>2021-09-05T08:25:01Z</time>
      </trkpt>
      <trkpt lat="42.646235" lon="0.436582">
        <ele>3023.000000</ele>
        <time>2021-09-05T08:25:02Z</time>
      </trkpt>
      <trkpt lat="42.646230" lon="0.436592">
        <ele>3023.000000</ele>
        <time>2021-09-05T08:25:03Z</time>
      </trkpt>
      <trkpt lat="42.646225" lon="0.436607">
        <ele>3023.000000</ele>
        <time>2021-09-05T08:25:05Z</time>
      </trkpt>
      <trkpt lat="42.646219" lon="0.436612">
        <ele>3023.000000</ele>
        <time>2021-09-05T08:25:05Z</time>
      </trkpt>
      <trkpt lat="42.646213" lon="0.436615">
        <ele>3023.000000</ele>
        <time>2021-09-05T08:25:06Z</time>
      </trkpt>
      <trkpt lat="42.646202" lon="0.436610">
        <ele>3022.000000</ele>
        <time>2021-09-05T08:25:07Z</time>
      </trkpt>
      <trkpt lat="42.646195" lon="0.436603">
        <ele>3022.000000</ele>
        <time>2021-09-05T08:25:08Z</time>
      </trkpt>
      <trkpt lat="42.646190" lon="0.436602">
        <ele>3021.000000</ele>
        <time>2021-09-05T08:25:09Z</time>
      </trkpt>
      <trkpt lat="42.646183" lon="0.436593">
        <ele>3021.000000</ele>
        <time>2021-09-05T08:25:10Z</time>
      </trkpt>
      <trkpt lat="42.646178" lon="0.436585">
        <ele>3020.000000</ele>
        <time>2021-09-05T08:25:11Z</time>
      </trkpt>
      <trkpt lat="42.646177" lon="0.436580">
        <ele>3020.000000</ele>
        <time>2021-09-05T08:25:12Z</time>
      </trkpt>
      <trkpt lat="42.646172" lon="0.436583">
        <ele>3019.000000</ele>
        <time>2021-09-05T08:25:13Z</time>
      </trkpt>
      <trkpt lat="42.646167" lon="0.436588">
        <ele>3019.000000</ele>
        <time>2021-09-05T08:25:14Z</time>
      </trkpt>
      <trkpt lat="42.646163" lon="0.436585">
        <ele>3019.000000</ele>
        <time>2021-09-05T08:25:15Z</time>
      </trkpt>
      <trkpt lat="42.646160" lon="0.436588">
        <ele>3018.000000</ele>
        <time>2021-09-05T08:25:18Z</time>
      </trkpt>
      <trkpt lat="42.646157" lon="0.436592">
        <ele>3018.000000</ele>
        <time>2021-09-05T08:25:19Z</time>
      </trkpt>
      <trkpt lat="42.646150" lon="0.436597">
        <ele>3017.000000</ele>
        <time>2021-09-05T08:25:20Z</time>
      </trkpt>
      <trkpt lat="42.646147" lon="0.436596">
        <ele>3017.000000</ele>
        <time>2021-09-05T08:25:21Z</time>
      </trkpt>
      <trkpt lat="42.646143" lon="0.436596">
        <ele>3017.000000</ele>
        <time>2021-09-05T08:25:22Z</time>
      </trkpt>
      <trkpt lat="42.646138" lon="0.436598">
        <ele>3016.000000</ele>
        <time>2021-09-05T08:25:23Z</time>
      </trkpt>
      <trkpt lat="42.646138" lon="0.436605">
        <ele>3016.000000</ele>
        <time>2021-09-05T08:25:25Z</time>
      </trkpt>
      <trkpt lat="42.646135" lon="0.436612">
        <ele>3015.000000</ele>
        <time>2021-09-05T08:25:26Z</time>
      </trkpt>
      <trkpt lat="42.646130" lon="0.436615">
        <ele>3015.000000</ele>
        <time>2021-09-05T08:25:27Z</time>
      </trkpt>
      <trkpt lat="42.646128" lon="0.436618">
        <ele>3015.000000</ele>
        <time>2021-09-05T08:25:29Z</time>
      </trkpt>
      <trkpt lat="42.646130" lon="0.436617">
        <ele>3015.000000</ele>
        <time>2021-09-05T08:25:29Z</time>
      </trkpt>
      <trkpt lat="42.646128" lon="0.436630">
        <ele>3015.000000</ele>
        <time>2021-09-05T08:25:31Z</time>
      </trkpt>
      <trkpt lat="42.646127" lon="0.436642">
        <ele>3015.000000</ele>
        <time>2021-09-05T08:25:32Z</time>
      </trkpt>
      <trkpt lat="42.646124" lon="0.436650">
        <ele>3015.000000</ele>
        <time>2021-09-05T08:25:33Z</time>
      </trkpt>
      <trkpt lat="42.646122" lon="0.436650">
        <ele>3015.000000</ele>
        <time>2021-09-05T08:25:34Z</time>
      </trkpt>
      <trkpt lat="42.646110" lon="0.436647">
        <ele>3015.000000</ele>
        <time>2021-09-05T08:25:35Z</time>
      </trkpt>
      <trkpt lat="42.646105" lon="0.436650">
        <ele>3015.000000</ele>
        <time>2021-09-05T08:25:36Z</time>
      </trkpt>
      <trkpt lat="42.646103" lon="0.436652">
        <ele>3015.000000</ele>
        <time>2021-09-05T08:25:37Z</time>
      </trkpt>
      <trkpt lat="42.646100" lon="0.436655">
        <ele>3015.000000</ele>
        <time>2021-09-05T08:25:38Z</time>
      </trkpt>
      <trkpt lat="42.646095" lon="0.436666">
        <ele>3015.000000</ele>
        <time>2021-09-05T08:25:39Z</time>
      </trkpt>
      <trkpt lat="42.646093" lon="0.436675">
        <ele>3015.000000</ele>
        <time>2021-09-05T08:25:40Z</time>
      </trkpt>
      <trkpt lat="42.646092" lon="0.436680">
        <ele>3015.000000</ele>
        <time>2021-09-05T08:25:41Z</time>
      </trkpt>
      <trkpt lat="42.646088" lon="0.436685">
        <ele>3015.000000</ele>
        <time>2021-09-05T08:25:42Z</time>
      </trkpt>
      <trkpt lat="42.646083" lon="0.436695">
        <ele>3015.000000</ele>
        <time>2021-09-05T08:25:43Z</time>
      </trkpt>
      <trkpt lat="42.646079" lon="0.436700">
        <ele>3015.000000</ele>
        <time>2021-09-05T08:25:44Z</time>
      </trkpt>
      <trkpt lat="42.646075" lon="0.436705">
        <ele>3014.000000</ele>
        <time>2021-09-05T08:25:45Z</time>
      </trkpt>
      <trkpt lat="42.646069" lon="0.436710">
        <ele>3014.000000</ele>
        <time>2021-09-05T08:25:46Z</time>
      </trkpt>
      <trkpt lat="42.646063" lon="0.436710">
        <ele>3014.000000</ele>
        <time>2021-09-05T08:25:47Z</time>
      </trkpt>
      <trkpt lat="42.646060" lon="0.436712">
        <ele>3013.000000</ele>
        <time>2021-09-05T08:25:49Z</time>
      </trkpt>
      <trkpt lat="42.646050" lon="0.436722">
        <ele>3013.000000</ele>
        <time>2021-09-05T08:25:49Z</time>
      </trkpt>
      <trkpt lat="42.646042" lon="0.436723">
        <ele>3013.000000</ele>
        <time>2021-09-05T08:25:49Z</time>
      </trkpt>
      <trkpt lat="42.646037" lon="0.436725">
        <ele>3012.000000</ele>
        <time>2021-09-05T08:25:50Z</time>
      </trkpt>
      <trkpt lat="42.646033" lon="0.436727">
        <ele>3012.000000</ele>
        <time>2021-09-05T08:25:51Z</time>
      </trkpt>
      <trkpt lat="42.646033" lon="0.436723">
        <ele>3011.000000</ele>
        <time>2021-09-05T08:25:53Z</time>
      </trkpt>
      <trkpt lat="42.646035" lon="0.436718">
        <ele>3011.000000</ele>
        <time>2021-09-05T08:25:54Z</time>
      </trkpt>
      <trkpt lat="42.646035" lon="0.436715">
        <ele>3011.000000</ele>
        <time>2021-09-05T08:25:55Z</time>
      </trkpt>
      <trkpt lat="42.646035" lon="0.436711">
        <ele>3010.000000</ele>
        <time>2021-09-05T08:25:56Z</time>
      </trkpt>
      <trkpt lat="42.646027" lon="0.436707">
        <ele>3010.000000</ele>
        <time>2021-09-05T08:25:57Z</time>
      </trkpt>
      <trkpt lat="42.646022" lon="0.436702">
        <ele>3009.000000</ele>
        <time>2021-09-05T08:25:58Z</time>
      </trkpt>
      <trkpt lat="42.646017" lon="0.436705">
        <ele>3009.000000</ele>
        <time>2021-09-05T08:25:59Z</time>
      </trkpt>
      <trkpt lat="42.646012" lon="0.436711">
        <ele>3009.000000</ele>
        <time>2021-09-05T08:26:00Z</time>
      </trkpt>
      <trkpt lat="42.646008" lon="0.436712">
        <ele>3009.000000</ele>
        <time>2021-09-05T08:26:01Z</time>
      </trkpt>
      <trkpt lat="42.646005" lon="0.436715">
        <ele>3008.000000</ele>
        <time>2021-09-05T08:26:02Z</time>
      </trkpt>
      <trkpt lat="42.645997" lon="0.436732">
        <ele>3008.000000</ele>
        <time>2021-09-05T08:26:03Z</time>
      </trkpt>
      <trkpt lat="42.645988" lon="0.436741">
        <ele>3008.000000</ele>
        <time>2021-09-05T08:26:04Z</time>
      </trkpt>
      <trkpt lat="42.645983" lon="0.436747">
        <ele>3008.000000</ele>
        <time>2021-09-05T08:26:05Z</time>
      </trkpt>
      <trkpt lat="42.645973" lon="0.436749">
        <ele>3008.000000</ele>
        <time>2021-09-05T08:26:06Z</time>
      </trkpt>
      <trkpt lat="42.645968" lon="0.436745">
        <ele>3007.000000</ele>
        <time>2021-09-05T08:26:07Z</time>
      </trkpt>
      <trkpt lat="42.645965" lon="0.436737">
        <ele>3007.000000</ele>
        <time>2021-09-05T08:26:08Z</time>
      </trkpt>
      <trkpt lat="42.645957" lon="0.436742">
        <ele>3007.000000</ele>
        <time>2021-09-05T08:26:09Z</time>
      </trkpt>
      <trkpt lat="42.645948" lon="0.436738">
        <ele>3007.000000</ele>
        <time>2021-09-05T08:26:10Z</time>
      </trkpt>
      <trkpt lat="42.645947" lon="0.436735">
        <ele>3006.000000</ele>
        <time>2021-09-05T08:26:12Z</time>
      </trkpt>
      <trkpt lat="42.645943" lon="0.436730">
        <ele>3006.000000</ele>
        <time>2021-09-05T08:26:13Z</time>
      </trkpt>
      <trkpt lat="42.645940" lon="0.436723">
        <ele>3006.000000</ele>
        <time>2021-09-05T08:26:14Z</time>
      </trkpt>
      <trkpt lat="42.645938" lon="0.436718">
        <ele>3006.000000</ele>
        <time>2021-09-05T08:26:15Z</time>
      </trkpt>
      <trkpt lat="42.645935" lon="0.436715">
        <ele>3006.000000</ele>
        <time>2021-09-05T08:26:16Z</time>
      </trkpt>
      <trkpt lat="42.645932" lon="0.436715">
        <ele>3006.000000</ele>
        <time>2021-09-05T08:26:18Z</time>
      </trkpt>
      <trkpt lat="42.645928" lon="0.436715">
        <ele>3006.000000</ele>
        <time>2021-09-05T08:26:19Z</time>
      </trkpt>
      <trkpt lat="42.645925" lon="0.436713">
        <ele>3006.000000</ele>
        <time>2021-09-05T08:26:20Z</time>
      </trkpt>
      <trkpt lat="42.645920" lon="0.436715">
        <ele>3006.000000</ele>
        <time>2021-09-05T08:26:21Z</time>
      </trkpt>
      <trkpt lat="42.645917" lon="0.436717">
        <ele>3006.000000</ele>
        <time>2021-09-05T08:26:22Z</time>
      </trkpt>
      <trkpt lat="42.645912" lon="0.436718">
        <ele>3006.000000</ele>
        <time>2021-09-05T08:26:23Z</time>
      </trkpt>
      <trkpt lat="42.645913" lon="0.436715">
        <ele>3006.000000</ele>
        <time>2021-09-05T08:26:25Z</time>
      </trkpt>
      <trkpt lat="42.645915" lon="0.436714">
        <ele>3006.000000</ele>
        <time>2021-09-05T08:26:26Z</time>
      </trkpt>
      <trkpt lat="42.645918" lon="0.436713">
        <ele>3006.000000</ele>
        <time>2021-09-05T08:26:27Z</time>
      </trkpt>
      <trkpt lat="42.645922" lon="0.436712">
        <ele>3006.000000</ele>
        <time>2021-09-05T08:26:28Z</time>
      </trkpt>
      <trkpt lat="42.645922" lon="0.436711">
        <ele>3006.000000</ele>
        <time>2021-09-05T08:26:30Z</time>
      </trkpt>
      <trkpt lat="42.645920" lon="0.436711">
        <ele>3007.000000</ele>
        <time>2021-09-05T08:26:31Z</time>
      </trkpt>
      <trkpt lat="42.645872" lon="0.436695">
        <ele>3005.000000</ele>
        <time>2021-09-05T08:26:47Z</time>
      </trkpt>
      <trkpt lat="42.645868" lon="0.436697">
        <ele>3005.000000</ele>
        <time>2021-09-05T08:26:48Z</time>
      </trkpt>
      <trkpt lat="42.645870" lon="0.436695">
        <ele>3005.000000</ele>
        <time>2021-09-05T08:26:49Z</time>
      </trkpt>
      <trkpt lat="42.645872" lon="0.436695">
        <ele>3006.000000</ele>
        <time>2021-09-05T08:26:52Z</time>
      </trkpt>
      <trkpt lat="42.645703" lon="0.436843">
        <ele>2997.000000</ele>
        <time>2021-09-05T08:27:52Z</time>
      </trkpt>
      <trkpt lat="42.645700" lon="0.436847">
        <ele>2997.000000</ele>
        <time>2021-09-05T08:27:53Z</time>
      </trkpt>
      <trkpt lat="42.645697" lon="0.436853">
        <ele>2997.000000</ele>
        <time>2021-09-05T08:27:54Z</time>
      </trkpt>
      <trkpt lat="42.645695" lon="0.436858">
        <ele>2997.000000</ele>
        <time>2021-09-05T08:27:55Z</time>
      </trkpt>
      <trkpt lat="42.645687" lon="0.436875">
        <ele>2997.000000</ele>
        <time>2021-09-05T08:27:56Z</time>
      </trkpt>
      <trkpt lat="42.645682" lon="0.436887">
        <ele>2997.000000</ele>
        <time>2021-09-05T08:27:57Z</time>
      </trkpt>
      <trkpt lat="42.645678" lon="0.436895">
        <ele>2996.000000</ele>
        <time>2021-09-05T08:27:58Z</time>
      </trkpt>
      <trkpt lat="42.645673" lon="0.436908">
        <ele>2996.000000</ele>
        <time>2021-09-05T08:27:59Z</time>
      </trkpt>
      <trkpt lat="42.645667" lon="0.436918">
        <ele>2996.000000</ele>
        <time>2021-09-05T08:28:00Z</time>
      </trkpt>
      <trkpt lat="42.645660" lon="0.436920">
        <ele>2996.000000</ele>
        <time>2021-09-05T08:28:01Z</time>
      </trkpt>
      <trkpt lat="42.645657" lon="0.436924">
        <ele>2996.000000</ele>
        <time>2021-09-05T08:28:02Z</time>
      </trkpt>
      <trkpt lat="42.645655" lon="0.436926">
        <ele>2995.000000</ele>
        <time>2021-09-05T08:28:04Z</time>
      </trkpt>
      <trkpt lat="42.645652" lon="0.436927">
        <ele>2995.000000</ele>
        <time>2021-09-05T08:28:05Z</time>
      </trkpt>
      <trkpt lat="42.645647" lon="0.436928">
        <ele>2995.000000</ele>
        <time>2021-09-05T08:28:06Z</time>
      </trkpt>
      <trkpt lat="42.645643" lon="0.436929">
        <ele>2994.000000</ele>
        <time>2021-09-05T08:28:07Z</time>
      </trkpt>
      <trkpt lat="42.645647" lon="0.436926">
        <ele>2994.000000</ele>
        <time>2021-09-05T08:28:08Z</time>
      </trkpt>
      <trkpt lat="42.645648" lon="0.436924">
        <ele>2994.000000</ele>
        <time>2021-09-05T08:28:10Z</time>
      </trkpt>
      <trkpt lat="42.645645" lon="0.436924">
        <ele>2994.000000</ele>
        <time>2021-09-05T08:28:11Z</time>
      </trkpt>
      <trkpt lat="42.645642" lon="0.436913">
        <ele>2993.000000</ele>
        <time>2021-09-05T08:28:12Z</time>
      </trkpt>
      <trkpt lat="42.645643" lon="0.436907">
        <ele>2993.000000</ele>
        <time>2021-09-05T08:28:13Z</time>
      </trkpt>
      <trkpt lat="42.645642" lon="0.436905">
        <ele>2993.000000</ele>
        <time>2021-09-05T08:28:15Z</time>
      </trkpt>
      <trkpt lat="42.645638" lon="0.436902">
        <ele>2993.000000</ele>
        <time>2021-09-05T08:28:17Z</time>
      </trkpt>
      <trkpt lat="42.645637" lon="0.436900">
        <ele>2992.000000</ele>
        <time>2021-09-05T08:28:18Z</time>
      </trkpt>
      <trkpt lat="42.645633" lon="0.436897">
        <ele>2992.000000</ele>
        <time>2021-09-05T08:28:19Z</time>
      </trkpt>
      <trkpt lat="42.645630" lon="0.436892">
        <ele>2992.000000</ele>
        <time>2021-09-05T08:28:20Z</time>
      </trkpt>
      <trkpt lat="42.645627" lon="0.436889">
        <ele>2992.000000</ele>
        <time>2021-09-05T08:28:21Z</time>
      </trkpt>
      <trkpt lat="42.645627" lon="0.436891">
        <ele>2992.000000</ele>
        <time>2021-09-05T08:28:22Z</time>
      </trkpt>
      <trkpt lat="42.645622" lon="0.436893">
        <ele>2991.000000</ele>
        <time>2021-09-05T08:28:23Z</time>
      </trkpt>
      <trkpt lat="42.645620" lon="0.436897">
        <ele>2991.000000</ele>
        <time>2021-09-05T08:28:24Z</time>
      </trkpt>
      <trkpt lat="42.645617" lon="0.436908">
        <ele>2991.000000</ele>
        <time>2021-09-05T08:28:25Z</time>
      </trkpt>
      <trkpt lat="42.645615" lon="0.436915">
        <ele>2991.000000</ele>
        <time>2021-09-05T08:28:26Z</time>
      </trkpt>
      <trkpt lat="42.645613" lon="0.436923">
        <ele>2991.000000</ele>
        <time>2021-09-05T08:28:28Z</time>
      </trkpt>
      <trkpt lat="42.645610" lon="0.436932">
        <ele>2991.000000</ele>
        <time>2021-09-05T08:28:28Z</time>
      </trkpt>
      <trkpt lat="42.645602" lon="0.436940">
        <ele>2991.000000</ele>
        <time>2021-09-05T08:28:29Z</time>
      </trkpt>
      <trkpt lat="42.645595" lon="0.436941">
        <ele>2991.000000</ele>
        <time>2021-09-05T08:28:30Z</time>
      </trkpt>
      <trkpt lat="42.645590" lon="0.436941">
        <ele>2991.000000</ele>
        <time>2021-09-05T08:28:31Z</time>
      </trkpt>
      <trkpt lat="42.645585" lon="0.436933">
        <ele>2991.000000</ele>
        <time>2021-09-05T08:28:32Z</time>
      </trkpt>
      <trkpt lat="42.645582" lon="0.436928">
        <ele>2990.000000</ele>
        <time>2021-09-05T08:28:33Z</time>
      </trkpt>
      <trkpt lat="42.645577" lon="0.436923">
        <ele>2990.000000</ele>
        <time>2021-09-05T08:28:34Z</time>
      </trkpt>
      <trkpt lat="42.645575" lon="0.436917">
        <ele>2990.000000</ele>
        <time>2021-09-05T08:28:35Z</time>
      </trkpt>
      <trkpt lat="42.645572" lon="0.436912">
        <ele>2990.000000</ele>
        <time>2021-09-05T08:28:36Z</time>
      </trkpt>
      <trkpt lat="42.645568" lon="0.436908">
        <ele>2989.000000</ele>
        <time>2021-09-05T08:28:37Z</time>
      </trkpt>
      <trkpt lat="42.645568" lon="0.436903">
        <ele>2989.000000</ele>
        <time>2021-09-05T08:28:38Z</time>
      </trkpt>
      <trkpt lat="42.645565" lon="0.436905">
        <ele>2989.000000</ele>
        <time>2021-09-05T08:28:39Z</time>
      </trkpt>
      <trkpt lat="42.645562" lon="0.436908">
        <ele>2989.000000</ele>
        <time>2021-09-05T08:28:40Z</time>
      </trkpt>
      <trkpt lat="42.645558" lon="0.436913">
        <ele>2989.000000</ele>
        <time>2021-09-05T08:28:41Z</time>
      </trkpt>
      <trkpt lat="42.645555" lon="0.436915">
        <ele>2989.000000</ele>
        <time>2021-09-05T08:28:42Z</time>
      </trkpt>
      <trkpt lat="42.645550" lon="0.436915">
        <ele>2989.000000</ele>
        <time>2021-09-05T08:28:43Z</time>
      </trkpt>
      <trkpt lat="42.645548" lon="0.436920">
        <ele>2989.000000</ele>
        <time>2021-09-05T08:28:44Z</time>
      </trkpt>
      <trkpt lat="42.645548" lon="0.436928">
        <ele>2989.000000</ele>
        <time>2021-09-05T08:28:45Z</time>
      </trkpt>
      <trkpt lat="42.645547" lon="0.436935">
        <ele>2989.000000</ele>
        <time>2021-09-05T08:28:46Z</time>
      </trkpt>
      <trkpt lat="42.645541" lon="0.436937">
        <ele>2988.000000</ele>
        <time>2021-09-05T08:28:48Z</time>
      </trkpt>
      <trkpt lat="42.645537" lon="0.436940">
        <ele>2988.000000</ele>
        <time>2021-09-05T08:28:48Z</time>
      </trkpt>
      <trkpt lat="42.645530" lon="0.436943">
        <ele>2988.000000</ele>
        <time>2021-09-05T08:28:50Z</time>
      </trkpt>
      <trkpt lat="42.645523" lon="0.436937">
        <ele>2987.000000</ele>
        <time>2021-09-05T08:28:51Z</time>
      </trkpt>
      <trkpt lat="42.645515" lon="0.436933">
        <ele>2987.000000</ele>
        <time>2021-09-05T08:28:52Z</time>
      </trkpt>
      <trkpt lat="42.645508" lon="0.436925">
        <ele>2987.000000</ele>
        <time>2021-09-05T08:28:53Z</time>
      </trkpt>
      <trkpt lat="42.645502" lon="0.436920">
        <ele>2987.000000</ele>
        <time>2021-09-05T08:28:54Z</time>
      </trkpt>
      <trkpt lat="42.645495" lon="0.436920">
        <ele>2986.000000</ele>
        <time>2021-09-05T08:28:55Z</time>
      </trkpt>
      <trkpt lat="42.645490" lon="0.436920">
        <ele>2986.000000</ele>
        <time>2021-09-05T08:28:57Z</time>
      </trkpt>
      <trkpt lat="42.645485" lon="0.436917">
        <ele>2986.000000</ele>
        <time>2021-09-05T08:28:57Z</time>
      </trkpt>
      <trkpt lat="42.645478" lon="0.436907">
        <ele>2985.000000</ele>
        <time>2021-09-05T08:28:58Z</time>
      </trkpt>
      <trkpt lat="42.645472" lon="0.436902">
        <ele>2985.000000</ele>
        <time>2021-09-05T08:28:59Z</time>
      </trkpt>
      <trkpt lat="42.645465" lon="0.436898">
        <ele>2985.000000</ele>
        <time>2021-09-05T08:29:00Z</time>
      </trkpt>
      <trkpt lat="42.645460" lon="0.436892">
        <ele>2985.000000</ele>
        <time>2021-09-05T08:29:01Z</time>
      </trkpt>
      <trkpt lat="42.645452" lon="0.436886">
        <ele>2984.000000</ele>
        <time>2021-09-05T08:29:02Z</time>
      </trkpt>
      <trkpt lat="42.645440" lon="0.436879">
        <ele>2984.000000</ele>
        <time>2021-09-05T08:29:03Z</time>
      </trkpt>
      <trkpt lat="42.645430" lon="0.436876">
        <ele>2984.000000</ele>
        <time>2021-09-05T08:29:04Z</time>
      </trkpt>
      <trkpt lat="42.645423" lon="0.436872">
        <ele>2984.000000</ele>
        <time>2021-09-05T08:29:05Z</time>
      </trkpt>
      <trkpt lat="42.645415" lon="0.436868">
        <ele>2984.000000</ele>
        <time>2021-09-05T08:29:06Z</time>
      </trkpt>
      <trkpt lat="42.645407" lon="0.436866">
        <ele>2983.000000</ele>
        <time>2021-09-05T08:29:07Z</time>
      </trkpt>
      <trkpt lat="42.645402" lon="0.436865">
        <ele>2983.000000</ele>
        <time>2021-09-05T08:29:08Z</time>
      </trkpt>
      <trkpt lat="42.645393" lon="0.436864">
        <ele>2983.000000</ele>
        <time>2021-09-05T08:29:09Z</time>
      </trkpt>
      <trkpt lat="42.645388" lon="0.436865">
        <ele>2983.000000</ele>
        <time>2021-09-05T08:29:10Z</time>
      </trkpt>
      <trkpt lat="42.645383" lon="0.436888">
        <ele>2982.000000</ele>
        <time>2021-09-05T08:29:12Z</time>
      </trkpt>
      <trkpt lat="42.645375" lon="0.436888">
        <ele>2982.000000</ele>
        <time>2021-09-05T08:29:12Z</time>
      </trkpt>
      <trkpt lat="42.645365" lon="0.436885">
        <ele>2982.000000</ele>
        <time>2021-09-05T08:29:13Z</time>
      </trkpt>
      <trkpt lat="42.645357" lon="0.436883">
        <ele>2982.000000</ele>
        <time>2021-09-05T08:29:14Z</time>
      </trkpt>
      <trkpt lat="42.645352" lon="0.436880">
        <ele>2981.000000</ele>
        <time>2021-09-05T08:29:15Z</time>
      </trkpt>
      <trkpt lat="42.645345" lon="0.436875">
        <ele>2981.000000</ele>
        <time>2021-09-05T08:29:16Z</time>
      </trkpt>
      <trkpt lat="42.645340" lon="0.436867">
        <ele>2981.000000</ele>
        <time>2021-09-05T08:29:17Z</time>
      </trkpt>
      <trkpt lat="42.645332" lon="0.436863">
        <ele>2981.000000</ele>
        <time>2021-09-05T08:29:18Z</time>
      </trkpt>
      <trkpt lat="42.645323" lon="0.436860">
        <ele>2980.000000</ele>
        <time>2021-09-05T08:29:19Z</time>
      </trkpt>
      <trkpt lat="42.645320" lon="0.436858">
        <ele>2980.000000</ele>
        <time>2021-09-05T08:29:20Z</time>
      </trkpt>
      <trkpt lat="42.645315" lon="0.436856">
        <ele>2980.000000</ele>
        <time>2021-09-05T08:29:21Z</time>
      </trkpt>
      <trkpt lat="42.645308" lon="0.436855">
        <ele>2980.000000</ele>
        <time>2021-09-05T08:29:22Z</time>
      </trkpt>
      <trkpt lat="42.645305" lon="0.436856">
        <ele>2980.000000</ele>
        <time>2021-09-05T08:29:23Z</time>
      </trkpt>
      <trkpt lat="42.645302" lon="0.436858">
        <ele>2980.000000</ele>
        <time>2021-09-05T08:29:24Z</time>
      </trkpt>
      <trkpt lat="42.645298" lon="0.436861">
        <ele>2980.000000</ele>
        <time>2021-09-05T08:29:25Z</time>
      </trkpt>
      <trkpt lat="42.645297" lon="0.436877">
        <ele>2980.000000</ele>
        <time>2021-09-05T08:29:26Z</time>
      </trkpt>
      <trkpt lat="42.645292" lon="0.436882">
        <ele>2980.000000</ele>
        <time>2021-09-05T08:29:27Z</time>
      </trkpt>
      <trkpt lat="42.645283" lon="0.436886">
        <ele>2980.000000</ele>
        <time>2021-09-05T08:29:28Z</time>
      </trkpt>
      <trkpt lat="42.645280" lon="0.436887">
        <ele>2980.000000</ele>
        <time>2021-09-05T08:29:29Z</time>
      </trkpt>
      <trkpt lat="42.645275" lon="0.436888">
        <ele>2980.000000</ele>
        <time>2021-09-05T08:29:30Z</time>
      </trkpt>
      <trkpt lat="42.645270" lon="0.436885">
        <ele>2980.000000</ele>
        <time>2021-09-05T08:29:31Z</time>
      </trkpt>
      <trkpt lat="42.645268" lon="0.436882">
        <ele>2980.000000</ele>
        <time>2021-09-05T08:29:32Z</time>
      </trkpt>
      <trkpt lat="42.645267" lon="0.436884">
        <ele>2980.000000</ele>
        <time>2021-09-05T08:29:33Z</time>
      </trkpt>
      <trkpt lat="42.645263" lon="0.436886">
        <ele>2980.000000</ele>
        <time>2021-09-05T08:29:35Z</time>
      </trkpt>
      <trkpt lat="42.645257" lon="0.436897">
        <ele>2980.000000</ele>
        <time>2021-09-05T08:29:35Z</time>
      </trkpt>
      <trkpt lat="42.645253" lon="0.436897">
        <ele>2980.000000</ele>
        <time>2021-09-05T08:29:36Z</time>
      </trkpt>
      <trkpt lat="42.645248" lon="0.436897">
        <ele>2979.000000</ele>
        <time>2021-09-05T08:29:37Z</time>
      </trkpt>
      <trkpt lat="42.645242" lon="0.436895">
        <ele>2979.000000</ele>
        <time>2021-09-05T08:29:38Z</time>
      </trkpt>
      <trkpt lat="42.645238" lon="0.436896">
        <ele>2979.000000</ele>
        <time>2021-09-05T08:29:39Z</time>
      </trkpt>
      <trkpt lat="42.645232" lon="0.436898">
        <ele>2978.000000</ele>
        <time>2021-09-05T08:29:40Z</time>
      </trkpt>
      <trkpt lat="42.645228" lon="0.436899">
        <ele>2978.000000</ele>
        <time>2021-09-05T08:29:41Z</time>
      </trkpt>
      <trkpt lat="42.645225" lon="0.436901">
        <ele>2978.000000</ele>
        <time>2021-09-05T08:29:42Z</time>
      </trkpt>
      <trkpt lat="42.645218" lon="0.436903">
        <ele>2977.000000</ele>
        <time>2021-09-05T08:29:43Z</time>
      </trkpt>
      <trkpt lat="42.645212" lon="0.436904">
        <ele>2977.000000</ele>
        <time>2021-09-05T08:29:44Z</time>
      </trkpt>
      <trkpt lat="42.645207" lon="0.436905">
        <ele>2977.000000</ele>
        <time>2021-09-05T08:29:45Z</time>
      </trkpt>
      <trkpt lat="42.645205" lon="0.436907">
        <ele>2977.000000</ele>
        <time>2021-09-05T08:29:46Z</time>
      </trkpt>
      <trkpt lat="42.645202" lon="0.436908">
        <ele>2977.000000</ele>
        <time>2021-09-05T08:29:47Z</time>
      </trkpt>
      <trkpt lat="42.645198" lon="0.436909">
        <ele>2977.000000</ele>
        <time>2021-09-05T08:29:48Z</time>
      </trkpt>
      <trkpt lat="42.645197" lon="0.436911">
        <ele>2977.000000</ele>
        <time>2021-09-05T08:29:51Z</time>
      </trkpt>
      <trkpt lat="42.645195" lon="0.436914">
        <ele>2977.000000</ele>
        <time>2021-09-05T08:29:52Z</time>
      </trkpt>
      <trkpt lat="42.645190" lon="0.436933">
        <ele>2977.000000</ele>
        <time>2021-09-05T08:29:53Z</time>
      </trkpt>
      <trkpt lat="42.645185" lon="0.436940">
        <ele>2977.000000</ele>
        <time>2021-09-05T08:29:54Z</time>
      </trkpt>
      <trkpt lat="42.645180" lon="0.436938">
        <ele>2977.000000</ele>
        <time>2021-09-05T08:29:56Z</time>
      </trkpt>
      <trkpt lat="42.645177" lon="0.436938">
        <ele>2977.000000</ele>
        <time>2021-09-05T08:29:56Z</time>
      </trkpt>
      <trkpt lat="42.645173" lon="0.436938">
        <ele>2977.000000</ele>
        <time>2021-09-05T08:29:57Z</time>
      </trkpt>
      <trkpt lat="42.645168" lon="0.436938">
        <ele>2976.000000</ele>
        <time>2021-09-05T08:29:58Z</time>
      </trkpt>
      <trkpt lat="42.645165" lon="0.436937">
        <ele>2976.000000</ele>
        <time>2021-09-05T08:29:59Z</time>
      </trkpt>
      <trkpt lat="42.645160" lon="0.436938">
        <ele>2976.000000</ele>
        <time>2021-09-05T08:30:00Z</time>
      </trkpt>
      <trkpt lat="42.645153" lon="0.436938">
        <ele>2975.000000</ele>
        <time>2021-09-05T08:30:01Z</time>
      </trkpt>
      <trkpt lat="42.645150" lon="0.436938">
        <ele>2975.000000</ele>
        <time>2021-09-05T08:30:02Z</time>
      </trkpt>
      <trkpt lat="42.645143" lon="0.436940">
        <ele>2975.000000</ele>
        <time>2021-09-05T08:30:03Z</time>
      </trkpt>
      <trkpt lat="42.645138" lon="0.436943">
        <ele>2975.000000</ele>
        <time>2021-09-05T08:30:04Z</time>
      </trkpt>
      <trkpt lat="42.645133" lon="0.436946">
        <ele>2974.000000</ele>
        <time>2021-09-05T08:30:04Z</time>
      </trkpt>
      <trkpt lat="42.645130" lon="0.436945">
        <ele>2974.000000</ele>
        <time>2021-09-05T08:30:05Z</time>
      </trkpt>
      <trkpt lat="42.645125" lon="0.436944">
        <ele>2974.000000</ele>
        <time>2021-09-05T08:30:06Z</time>
      </trkpt>
      <trkpt lat="42.645127" lon="0.436935">
        <ele>2974.000000</ele>
        <time>2021-09-05T08:30:07Z</time>
      </trkpt>
      <trkpt lat="42.645123" lon="0.436942">
        <ele>2974.000000</ele>
        <time>2021-09-05T08:30:08Z</time>
      </trkpt>
      <trkpt lat="42.645122" lon="0.436948">
        <ele>2974.000000</ele>
        <time>2021-09-05T08:30:09Z</time>
      </trkpt>
      <trkpt lat="42.645122" lon="0.436957">
        <ele>2974.000000</ele>
        <time>2021-09-05T08:30:10Z</time>
      </trkpt>
      <trkpt lat="42.645122" lon="0.436965">
        <ele>2974.000000</ele>
        <time>2021-09-05T08:30:11Z</time>
      </trkpt>
      <trkpt lat="42.645123" lon="0.436968">
        <ele>2975.000000</ele>
        <time>2021-09-05T08:30:13Z</time>
      </trkpt>
      <trkpt lat="42.645127" lon="0.436973">
        <ele>2975.000000</ele>
        <time>2021-09-05T08:30:14Z</time>
      </trkpt>
      <trkpt lat="42.645130" lon="0.436983">
        <ele>2975.000000</ele>
        <time>2021-09-05T08:30:15Z</time>
      </trkpt>
      <trkpt lat="42.645133" lon="0.436990">
        <ele>2976.000000</ele>
        <time>2021-09-05T08:30:16Z</time>
      </trkpt>
      <trkpt lat="42.645137" lon="0.437005">
        <ele>2976.000000</ele>
        <time>2021-09-05T08:30:17Z</time>
      </trkpt>
      <trkpt lat="42.645132" lon="0.437012">
        <ele>2976.000000</ele>
        <time>2021-09-05T08:30:19Z</time>
      </trkpt>
      <trkpt lat="42.645130" lon="0.437012">
        <ele>2976.000000</ele>
        <time>2021-09-05T08:30:19Z</time>
      </trkpt>
      <trkpt lat="42.645130" lon="0.437008">
        <ele>2975.000000</ele>
        <time>2021-09-05T08:30:21Z</time>
      </trkpt>
      <trkpt lat="42.645125" lon="0.437007">
        <ele>2975.000000</ele>
        <time>2021-09-05T08:30:22Z</time>
      </trkpt>
      <trkpt lat="42.645118" lon="0.437012">
        <ele>2975.000000</ele>
        <time>2021-09-05T08:30:23Z</time>
      </trkpt>
      <trkpt lat="42.645112" lon="0.437018">
        <ele>2975.000000</ele>
        <time>2021-09-05T08:30:24Z</time>
      </trkpt>
      <trkpt lat="42.645108" lon="0.437020">
        <ele>2975.000000</ele>
        <time>2021-09-05T08:30:25Z</time>
      </trkpt>
      <trkpt lat="42.645103" lon="0.437021">
        <ele>2975.000000</ele>
        <time>2021-09-05T08:30:26Z</time>
      </trkpt>
      <trkpt lat="42.645100" lon="0.437018">
        <ele>2975.000000</ele>
        <time>2021-09-05T08:30:27Z</time>
      </trkpt>
      <trkpt lat="42.645098" lon="0.437015">
        <ele>2975.000000</ele>
        <time>2021-09-05T08:30:28Z</time>
      </trkpt>
      <trkpt lat="42.645093" lon="0.437014">
        <ele>2975.000000</ele>
        <time>2021-09-05T08:30:29Z</time>
      </trkpt>
      <trkpt lat="42.645090" lon="0.437018">
        <ele>2974.000000</ele>
        <time>2021-09-05T08:30:30Z</time>
      </trkpt>
      <trkpt lat="42.645088" lon="0.437021">
        <ele>2974.000000</ele>
        <time>2021-09-05T08:30:31Z</time>
      </trkpt>
      <trkpt lat="42.645083" lon="0.437024">
        <ele>2973.000000</ele>
        <time>2021-09-05T08:30:32Z</time>
      </trkpt>
      <trkpt lat="42.645077" lon="0.437028">
        <ele>2973.000000</ele>
        <time>2021-09-05T08:30:33Z</time>
      </trkpt>
      <trkpt lat="42.645072" lon="0.437030">
        <ele>2973.000000</ele>
        <time>2021-09-05T08:30:34Z</time>
      </trkpt>
      <trkpt lat="42.645068" lon="0.437031">
        <ele>2972.000000</ele>
        <time>2021-09-05T08:30:35Z</time>
      </trkpt>
      <trkpt lat="42.645060" lon="0.437034">
        <ele>2972.000000</ele>
        <time>2021-09-05T08:30:36Z</time>
      </trkpt>
      <trkpt lat="42.645055" lon="0.437034">
        <ele>2972.000000</ele>
        <time>2021-09-05T08:30:37Z</time>
      </trkpt>
      <trkpt lat="42.645050" lon="0.437033">
        <ele>2971.000000</ele>
        <time>2021-09-05T08:30:39Z</time>
      </trkpt>
      <trkpt lat="42.645047" lon="0.437031">
        <ele>2971.000000</ele>
        <time>2021-09-05T08:30:39Z</time>
      </trkpt>
      <trkpt lat="42.645042" lon="0.437029">
        <ele>2971.000000</ele>
        <time>2021-09-05T08:30:40Z</time>
      </trkpt>
      <trkpt lat="42.645037" lon="0.437026">
        <ele>2970.000000</ele>
        <time>2021-09-05T08:30:41Z</time>
      </trkpt>
      <trkpt lat="42.645028" lon="0.437025">
        <ele>2970.000000</ele>
        <time>2021-09-05T08:30:42Z</time>
      </trkpt>
      <trkpt lat="42.645023" lon="0.437023">
        <ele>2969.000000</ele>
        <time>2021-09-05T08:30:43Z</time>
      </trkpt>
      <trkpt lat="42.645022" lon="0.437022">
        <ele>2969.000000</ele>
        <time>2021-09-05T08:30:44Z</time>
      </trkpt>
      <trkpt lat="42.645020" lon="0.437023">
        <ele>2969.000000</ele>
        <time>2021-09-05T08:30:45Z</time>
      </trkpt>
      <trkpt lat="42.645020" lon="0.437030">
        <ele>2969.000000</ele>
        <time>2021-09-05T08:30:46Z</time>
      </trkpt>
      <trkpt lat="42.645017" lon="0.437038">
        <ele>2968.000000</ele>
        <time>2021-09-05T08:30:47Z</time>
      </trkpt>
      <trkpt lat="42.645013" lon="0.437043">
        <ele>2968.000000</ele>
        <time>2021-09-05T08:30:48Z</time>
      </trkpt>
      <trkpt lat="42.645010" lon="0.437048">
        <ele>2968.000000</ele>
        <time>2021-09-05T08:30:49Z</time>
      </trkpt>
      <trkpt lat="42.645007" lon="0.437047">
        <ele>2968.000000</ele>
        <time>2021-09-05T08:30:50Z</time>
      </trkpt>
      <trkpt lat="42.645002" lon="0.437042">
        <ele>2967.000000</ele>
        <time>2021-09-05T08:30:51Z</time>
      </trkpt>
      <trkpt lat="42.644998" lon="0.437047">
        <ele>2967.000000</ele>
        <time>2021-09-05T08:30:52Z</time>
      </trkpt>
      <trkpt lat="42.644998" lon="0.437048">
        <ele>2967.000000</ele>
        <time>2021-09-05T08:30:53Z</time>
      </trkpt>
      <trkpt lat="42.644995" lon="0.437047">
        <ele>2966.000000</ele>
        <time>2021-09-05T08:30:54Z</time>
      </trkpt>
      <trkpt lat="42.644992" lon="0.437045">
        <ele>2966.000000</ele>
        <time>2021-09-05T08:30:55Z</time>
      </trkpt>
      <trkpt lat="42.644992" lon="0.437042">
        <ele>2966.000000</ele>
        <time>2021-09-05T08:30:56Z</time>
      </trkpt>
      <trkpt lat="42.644990" lon="0.437048">
        <ele>2966.000000</ele>
        <time>2021-09-05T08:30:58Z</time>
      </trkpt>
      <trkpt lat="42.644992" lon="0.437050">
        <ele>2966.000000</ele>
        <time>2021-09-05T08:30:59Z</time>
      </trkpt>
      <trkpt lat="42.644988" lon="0.437067">
        <ele>2966.000000</ele>
        <time>2021-09-05T08:31:00Z</time>
      </trkpt>
      <trkpt lat="42.644985" lon="0.437070">
        <ele>2966.000000</ele>
        <time>2021-09-05T08:31:01Z</time>
      </trkpt>
      <trkpt lat="42.644980" lon="0.437072">
        <ele>2966.000000</ele>
        <time>2021-09-05T08:31:03Z</time>
      </trkpt>
      <trkpt lat="42.644973" lon="0.437075">
        <ele>2966.000000</ele>
        <time>2021-09-05T08:31:03Z</time>
      </trkpt>
      <trkpt lat="42.644965" lon="0.437079">
        <ele>2966.000000</ele>
        <time>2021-09-05T08:31:04Z</time>
      </trkpt>
      <trkpt lat="42.644957" lon="0.437073">
        <ele>2966.000000</ele>
        <time>2021-09-05T08:31:05Z</time>
      </trkpt>
      <trkpt lat="42.644952" lon="0.437067">
        <ele>2966.000000</ele>
        <time>2021-09-05T08:31:06Z</time>
      </trkpt>
      <trkpt lat="42.644950" lon="0.437070">
        <ele>2965.000000</ele>
        <time>2021-09-05T08:31:07Z</time>
      </trkpt>
      <trkpt lat="42.644945" lon="0.437070">
        <ele>2965.000000</ele>
        <time>2021-09-05T08:31:08Z</time>
      </trkpt>
      <trkpt lat="42.644943" lon="0.437072">
        <ele>2965.000000</ele>
        <time>2021-09-05T08:31:09Z</time>
      </trkpt>
      <trkpt lat="42.644947" lon="0.437073">
        <ele>2965.000000</ele>
        <time>2021-09-05T08:31:10Z</time>
      </trkpt>
      <trkpt lat="42.644948" lon="0.437088">
        <ele>2965.000000</ele>
        <time>2021-09-05T08:31:11Z</time>
      </trkpt>
      <trkpt lat="42.644945" lon="0.437098">
        <ele>2964.000000</ele>
        <time>2021-09-05T08:31:12Z</time>
      </trkpt>
      <trkpt lat="42.644942" lon="0.437097">
        <ele>2964.000000</ele>
        <time>2021-09-05T08:31:13Z</time>
      </trkpt>
      <trkpt lat="42.644937" lon="0.437098">
        <ele>2964.000000</ele>
        <time>2021-09-05T08:31:14Z</time>
      </trkpt>
      <trkpt lat="42.644927" lon="0.437100">
        <ele>2964.000000</ele>
        <time>2021-09-05T08:31:15Z</time>
      </trkpt>
      <trkpt lat="42.644922" lon="0.437098">
        <ele>2963.000000</ele>
        <time>2021-09-05T08:31:16Z</time>
      </trkpt>
      <trkpt lat="42.644917" lon="0.437095">
        <ele>2963.000000</ele>
        <time>2021-09-05T08:31:17Z</time>
      </trkpt>
      <trkpt lat="42.644910" lon="0.437093">
        <ele>2963.000000</ele>
        <time>2021-09-05T08:31:18Z</time>
      </trkpt>
      <trkpt lat="42.644907" lon="0.437093">
        <ele>2962.000000</ele>
        <time>2021-09-05T08:31:19Z</time>
      </trkpt>
      <trkpt lat="42.644903" lon="0.437093">
        <ele>2962.000000</ele>
        <time>2021-09-05T08:31:20Z</time>
      </trkpt>
      <trkpt lat="42.644900" lon="0.437097">
        <ele>2961.000000</ele>
        <time>2021-09-05T08:31:21Z</time>
      </trkpt>
      <trkpt lat="42.644897" lon="0.437099">
        <ele>2961.000000</ele>
        <time>2021-09-05T08:31:22Z</time>
      </trkpt>
      <trkpt lat="42.644892" lon="0.437098">
        <ele>2961.000000</ele>
        <time>2021-09-05T08:31:23Z</time>
      </trkpt>
      <trkpt lat="42.644888" lon="0.437096">
        <ele>2961.000000</ele>
        <time>2021-09-05T08:31:24Z</time>
      </trkpt>
      <trkpt lat="42.644882" lon="0.437095">
        <ele>2961.000000</ele>
        <time>2021-09-05T08:31:25Z</time>
      </trkpt>
      <trkpt lat="42.644878" lon="0.437095">
        <ele>2961.000000</ele>
        <time>2021-09-05T08:31:27Z</time>
      </trkpt>
      <trkpt lat="42.644872" lon="0.437097">
        <ele>2961.000000</ele>
        <time>2021-09-05T08:31:27Z</time>
      </trkpt>
      <trkpt lat="42.644868" lon="0.437096">
        <ele>2961.000000</ele>
        <time>2021-09-05T08:31:28Z</time>
      </trkpt>
      <trkpt lat="42.644872" lon="0.437096">
        <ele>2961.000000</ele>
        <time>2021-09-05T08:31:30Z</time>
      </trkpt>
      <trkpt lat="42.644868" lon="0.437100">
        <ele>2961.000000</ele>
        <time>2021-09-05T08:31:31Z</time>
      </trkpt>
      <trkpt lat="42.644867" lon="0.437102">
        <ele>2961.000000</ele>
        <time>2021-09-05T08:31:32Z</time>
      </trkpt>
      <trkpt lat="42.644867" lon="0.437112">
        <ele>2961.000000</ele>
        <time>2021-09-05T08:31:33Z</time>
      </trkpt>
      <trkpt lat="42.644863" lon="0.437117">
        <ele>2961.000000</ele>
        <time>2021-09-05T08:31:34Z</time>
      </trkpt>
      <trkpt lat="42.644857" lon="0.437117">
        <ele>2961.000000</ele>
        <time>2021-09-05T08:31:35Z</time>
      </trkpt>
      <trkpt lat="42.644848" lon="0.437115">
        <ele>2961.000000</ele>
        <time>2021-09-05T08:31:36Z</time>
      </trkpt>
      <trkpt lat="42.644842" lon="0.437110">
        <ele>2961.000000</ele>
        <time>2021-09-05T08:31:37Z</time>
      </trkpt>
      <trkpt lat="42.644838" lon="0.437102">
        <ele>2960.000000</ele>
        <time>2021-09-05T08:31:38Z</time>
      </trkpt>
      <trkpt lat="42.644835" lon="0.437098">
        <ele>2960.000000</ele>
        <time>2021-09-05T08:31:39Z</time>
      </trkpt>
      <trkpt lat="42.644828" lon="0.437100">
        <ele>2958.000000</ele>
        <time>2021-09-05T08:31:41Z</time>
      </trkpt>
      <trkpt lat="42.644822" lon="0.437102">
        <ele>2958.000000</ele>
        <time>2021-09-05T08:31:42Z</time>
      </trkpt>
      <trkpt lat="42.644815" lon="0.437100">
        <ele>2958.000000</ele>
        <time>2021-09-05T08:31:43Z</time>
      </trkpt>
      <trkpt lat="42.644810" lon="0.437100">
        <ele>2958.000000</ele>
        <time>2021-09-05T08:31:44Z</time>
      </trkpt>
      <trkpt lat="42.644807" lon="0.437102">
        <ele>2958.000000</ele>
        <time>2021-09-05T08:31:46Z</time>
      </trkpt>
      <trkpt lat="42.644808" lon="0.437101">
        <ele>2958.000000</ele>
        <time>2021-09-05T08:31:46Z</time>
      </trkpt>
      <trkpt lat="42.644815" lon="0.437101">
        <ele>2958.000000</ele>
        <time>2021-09-05T08:31:47Z</time>
      </trkpt>
      <trkpt lat="42.644815" lon="0.437102">
        <ele>2958.000000</ele>
        <time>2021-09-05T08:31:48Z</time>
      </trkpt>
      <trkpt lat="42.644812" lon="0.437104">
        <ele>2958.000000</ele>
        <time>2021-09-05T08:31:49Z</time>
      </trkpt>
      <trkpt lat="42.644808" lon="0.437108">
        <ele>2958.000000</ele>
        <time>2021-09-05T08:31:50Z</time>
      </trkpt>
      <trkpt lat="42.644803" lon="0.437114">
        <ele>2958.000000</ele>
        <time>2021-09-05T08:31:51Z</time>
      </trkpt>
      <trkpt lat="42.644798" lon="0.437121">
        <ele>2958.000000</ele>
        <time>2021-09-05T08:31:52Z</time>
      </trkpt>
      <trkpt lat="42.644792" lon="0.437120">
        <ele>2957.000000</ele>
        <time>2021-09-05T08:31:53Z</time>
      </trkpt>
      <trkpt lat="42.644783" lon="0.437117">
        <ele>2957.000000</ele>
        <time>2021-09-05T08:31:54Z</time>
      </trkpt>
      <trkpt lat="42.644778" lon="0.437117">
        <ele>2957.000000</ele>
        <time>2021-09-05T08:31:55Z</time>
      </trkpt>
      <trkpt lat="42.644772" lon="0.437112">
        <ele>2956.000000</ele>
        <time>2021-09-05T08:31:56Z</time>
      </trkpt>
      <trkpt lat="42.644767" lon="0.437115">
        <ele>2956.000000</ele>
        <time>2021-09-05T08:31:57Z</time>
      </trkpt>
      <trkpt lat="42.644760" lon="0.437115">
        <ele>2956.000000</ele>
        <time>2021-09-05T08:31:58Z</time>
      </trkpt>
      <trkpt lat="42.644753" lon="0.437112">
        <ele>2955.000000</ele>
        <time>2021-09-05T08:31:59Z</time>
      </trkpt>
      <trkpt lat="42.644747" lon="0.437109">
        <ele>2955.000000</ele>
        <time>2021-09-05T08:32:00Z</time>
      </trkpt>
      <trkpt lat="42.644743" lon="0.437105">
        <ele>2954.000000</ele>
        <time>2021-09-05T08:32:01Z</time>
      </trkpt>
      <trkpt lat="42.644740" lon="0.437095">
        <ele>2954.000000</ele>
        <time>2021-09-05T08:32:02Z</time>
      </trkpt>
      <trkpt lat="42.644737" lon="0.437093">
        <ele>2954.000000</ele>
        <time>2021-09-05T08:32:03Z</time>
      </trkpt>
      <trkpt lat="42.644735" lon="0.437095">
        <ele>2954.000000</ele>
        <time>2021-09-05T08:32:04Z</time>
      </trkpt>
      <trkpt lat="42.644733" lon="0.437101">
        <ele>2953.000000</ele>
        <time>2021-09-05T08:32:05Z</time>
      </trkpt>
      <trkpt lat="42.644732" lon="0.437113">
        <ele>2953.000000</ele>
        <time>2021-09-05T08:32:06Z</time>
      </trkpt>
      <trkpt lat="42.644730" lon="0.437117">
        <ele>2953.000000</ele>
        <time>2021-09-05T08:32:10Z</time>
      </trkpt>
      <trkpt lat="42.644728" lon="0.437128">
        <ele>2954.000000</ele>
        <time>2021-09-05T08:32:11Z</time>
      </trkpt>
      <trkpt lat="42.644727" lon="0.437135">
        <ele>2954.000000</ele>
        <time>2021-09-05T08:32:12Z</time>
      </trkpt>
      <trkpt lat="42.644718" lon="0.437133">
        <ele>2954.000000</ele>
        <time>2021-09-05T08:32:14Z</time>
      </trkpt>
      <trkpt lat="42.644713" lon="0.437133">
        <ele>2954.000000</ele>
        <time>2021-09-05T08:32:15Z</time>
      </trkpt>
      <trkpt lat="42.644718" lon="0.437137">
        <ele>2954.000000</ele>
        <time>2021-09-05T08:32:17Z</time>
      </trkpt>
      <trkpt lat="42.644725" lon="0.437134">
        <ele>2953.000000</ele>
        <time>2021-09-05T08:32:18Z</time>
      </trkpt>
      <trkpt lat="42.644665" lon="0.437157">
        <ele>2952.000000</ele>
        <time>2021-09-05T08:32:35Z</time>
      </trkpt>
      <trkpt lat="42.644660" lon="0.437160">
        <ele>2952.000000</ele>
        <time>2021-09-05T08:32:36Z</time>
      </trkpt>
      <trkpt lat="42.644652" lon="0.437162">
        <ele>2952.000000</ele>
        <time>2021-09-05T08:32:37Z</time>
      </trkpt>
      <trkpt lat="42.644645" lon="0.437158">
        <ele>2951.000000</ele>
        <time>2021-09-05T08:32:38Z</time>
      </trkpt>
      <trkpt lat="42.644638" lon="0.437160">
        <ele>2951.000000</ele>
        <time>2021-09-05T08:32:39Z</time>
      </trkpt>
      <trkpt lat="42.644627" lon="0.437156">
        <ele>2951.000000</ele>
        <time>2021-09-05T08:32:40Z</time>
      </trkpt>
      <trkpt lat="42.644620" lon="0.437152">
        <ele>2950.000000</ele>
        <time>2021-09-05T08:32:41Z</time>
      </trkpt>
      <trkpt lat="42.644617" lon="0.437155">
        <ele>2950.000000</ele>
        <time>2021-09-05T08:32:43Z</time>
      </trkpt>
      <trkpt lat="42.644613" lon="0.437160">
        <ele>2950.000000</ele>
        <time>2021-09-05T08:32:44Z</time>
      </trkpt>
      <trkpt lat="42.644608" lon="0.437167">
        <ele>2949.000000</ele>
        <time>2021-09-05T08:32:45Z</time>
      </trkpt>
      <trkpt lat="42.644598" lon="0.437172">
        <ele>2949.000000</ele>
        <time>2021-09-05T08:32:46Z</time>
      </trkpt>
      <trkpt lat="42.644590" lon="0.437177">
        <ele>2949.000000</ele>
        <time>2021-09-05T08:32:47Z</time>
      </trkpt>
      <trkpt lat="42.644580" lon="0.437178">
        <ele>2949.000000</ele>
        <time>2021-09-05T08:32:48Z</time>
      </trkpt>
      <trkpt lat="42.644570" lon="0.437178">
        <ele>2948.000000</ele>
        <time>2021-09-05T08:32:49Z</time>
      </trkpt>
      <trkpt lat="42.644558" lon="0.437180">
        <ele>2948.000000</ele>
        <time>2021-09-05T08:32:50Z</time>
      </trkpt>
      <trkpt lat="42.644548" lon="0.437181">
        <ele>2948.000000</ele>
        <time>2021-09-05T08:32:51Z</time>
      </trkpt>
      <trkpt lat="42.644537" lon="0.437178">
        <ele>2948.000000</ele>
        <time>2021-09-05T08:32:52Z</time>
      </trkpt>
      <trkpt lat="42.644532" lon="0.437173">
        <ele>2947.000000</ele>
        <time>2021-09-05T08:32:53Z</time>
      </trkpt>
      <trkpt lat="42.644528" lon="0.437168">
        <ele>2947.000000</ele>
        <time>2021-09-05T08:32:55Z</time>
      </trkpt>
      <trkpt lat="42.644523" lon="0.437172">
        <ele>2947.000000</ele>
        <time>2021-09-05T08:32:55Z</time>
      </trkpt>
      <trkpt lat="42.644518" lon="0.437179">
        <ele>2947.000000</ele>
        <time>2021-09-05T08:32:56Z</time>
      </trkpt>
      <trkpt lat="42.644513" lon="0.437183">
        <ele>2947.000000</ele>
        <time>2021-09-05T08:32:57Z</time>
      </trkpt>
      <trkpt lat="42.644512" lon="0.437188">
        <ele>2947.000000</ele>
        <time>2021-09-05T08:32:58Z</time>
      </trkpt>
      <trkpt lat="42.644507" lon="0.437192">
        <ele>2947.000000</ele>
        <time>2021-09-05T08:32:59Z</time>
      </trkpt>
      <trkpt lat="42.644503" lon="0.437190">
        <ele>2947.000000</ele>
        <time>2021-09-05T08:33:00Z</time>
      </trkpt>
      <trkpt lat="42.644508" lon="0.437195">
        <ele>2947.000000</ele>
        <time>2021-09-05T08:33:01Z</time>
      </trkpt>
      <trkpt lat="42.644507" lon="0.437200">
        <ele>2947.000000</ele>
        <time>2021-09-05T08:33:02Z</time>
      </trkpt>
      <trkpt lat="42.644505" lon="0.437203">
        <ele>2947.000000</ele>
        <time>2021-09-05T08:33:03Z</time>
      </trkpt>
      <trkpt lat="42.644499" lon="0.437207">
        <ele>2947.000000</ele>
        <time>2021-09-05T08:33:04Z</time>
      </trkpt>
      <trkpt lat="42.644492" lon="0.437212">
        <ele>2947.000000</ele>
        <time>2021-09-05T08:33:05Z</time>
      </trkpt>
      <trkpt lat="42.644485" lon="0.437215">
        <ele>2947.000000</ele>
        <time>2021-09-05T08:33:06Z</time>
      </trkpt>
      <trkpt lat="42.644478" lon="0.437217">
        <ele>2947.000000</ele>
        <time>2021-09-05T08:33:07Z</time>
      </trkpt>
      <trkpt lat="42.644472" lon="0.437220">
        <ele>2947.000000</ele>
        <time>2021-09-05T08:33:08Z</time>
      </trkpt>
      <trkpt lat="42.644465" lon="0.437218">
        <ele>2947.000000</ele>
        <time>2021-09-05T08:33:09Z</time>
      </trkpt>
      <trkpt lat="42.644458" lon="0.437220">
        <ele>2946.000000</ele>
        <time>2021-09-05T08:33:10Z</time>
      </trkpt>
      <trkpt lat="42.644450" lon="0.437225">
        <ele>2946.000000</ele>
        <time>2021-09-05T08:33:11Z</time>
      </trkpt>
      <trkpt lat="42.644447" lon="0.437227">
        <ele>2946.000000</ele>
        <time>2021-09-05T08:33:12Z</time>
      </trkpt>
      <trkpt lat="42.644440" lon="0.437225">
        <ele>2946.000000</ele>
        <time>2021-09-05T08:33:13Z</time>
      </trkpt>
      <trkpt lat="42.644437" lon="0.437222">
        <ele>2945.000000</ele>
        <time>2021-09-05T08:33:14Z</time>
      </trkpt>
      <trkpt lat="42.644432" lon="0.437222">
        <ele>2945.000000</ele>
        <time>2021-09-05T08:33:15Z</time>
      </trkpt>
      <trkpt lat="42.644427" lon="0.437220">
        <ele>2945.000000</ele>
        <time>2021-09-05T08:33:16Z</time>
      </trkpt>
      <trkpt lat="42.644420" lon="0.437215">
        <ele>2945.000000</ele>
        <time>2021-09-05T08:33:17Z</time>
      </trkpt>
      <trkpt lat="42.644415" lon="0.437213">
        <ele>2945.000000</ele>
        <time>2021-09-05T08:33:19Z</time>
      </trkpt>
      <trkpt lat="42.644413" lon="0.437213">
        <ele>2945.000000</ele>
        <time>2021-09-05T08:33:19Z</time>
      </trkpt>
      <trkpt lat="42.644412" lon="0.437214">
        <ele>2944.000000</ele>
        <time>2021-09-05T08:33:21Z</time>
      </trkpt>
      <trkpt lat="42.644407" lon="0.437215">
        <ele>2944.000000</ele>
        <time>2021-09-05T08:33:22Z</time>
      </trkpt>
      <trkpt lat="42.644398" lon="0.437217">
        <ele>2944.000000</ele>
        <time>2021-09-05T08:33:23Z</time>
      </trkpt>
      <trkpt lat="42.644397" lon="0.437219">
        <ele>2943.000000</ele>
        <time>2021-09-05T08:33:24Z</time>
      </trkpt>
      <trkpt lat="42.644392" lon="0.437223">
        <ele>2943.000000</ele>
        <time>2021-09-05T08:33:25Z</time>
      </trkpt>
      <trkpt lat="42.644387" lon="0.437226">
        <ele>2943.000000</ele>
        <time>2021-09-05T08:33:26Z</time>
      </trkpt>
      <trkpt lat="42.644380" lon="0.437242">
        <ele>2943.000000</ele>
        <time>2021-09-05T08:33:27Z</time>
      </trkpt>
      <trkpt lat="42.644375" lon="0.437233">
        <ele>2943.000000</ele>
        <time>2021-09-05T08:33:28Z</time>
      </trkpt>
      <trkpt lat="42.644373" lon="0.437230">
        <ele>2943.000000</ele>
        <time>2021-09-05T08:33:29Z</time>
      </trkpt>
      <trkpt lat="42.644368" lon="0.437230">
        <ele>2943.000000</ele>
        <time>2021-09-05T08:33:30Z</time>
      </trkpt>
      <trkpt lat="42.644365" lon="0.437234">
        <ele>2943.000000</ele>
        <time>2021-09-05T08:33:31Z</time>
      </trkpt>
      <trkpt lat="42.644362" lon="0.437241">
        <ele>2943.000000</ele>
        <time>2021-09-05T08:33:32Z</time>
      </trkpt>
      <trkpt lat="42.644360" lon="0.437247">
        <ele>2942.000000</ele>
        <time>2021-09-05T08:33:33Z</time>
      </trkpt>
      <trkpt lat="42.644357" lon="0.437251">
        <ele>2942.000000</ele>
        <time>2021-09-05T08:33:34Z</time>
      </trkpt>
      <trkpt lat="42.644350" lon="0.437257">
        <ele>2942.000000</ele>
        <time>2021-09-05T08:33:36Z</time>
      </trkpt>
      <trkpt lat="42.644347" lon="0.437262">
        <ele>2942.000000</ele>
        <time>2021-09-05T08:33:38Z</time>
      </trkpt>
      <trkpt lat="42.644338" lon="0.437270">
        <ele>2942.000000</ele>
        <time>2021-09-05T08:33:38Z</time>
      </trkpt>
      <trkpt lat="42.644330" lon="0.437274">
        <ele>2942.000000</ele>
        <time>2021-09-05T08:33:39Z</time>
      </trkpt>
      <trkpt lat="42.644327" lon="0.437278">
        <ele>2942.000000</ele>
        <time>2021-09-05T08:33:40Z</time>
      </trkpt>
      <trkpt lat="42.644323" lon="0.437283">
        <ele>2942.000000</ele>
        <time>2021-09-05T08:33:41Z</time>
      </trkpt>
      <trkpt lat="42.644318" lon="0.437290">
        <ele>2941.000000</ele>
        <time>2021-09-05T08:33:42Z</time>
      </trkpt>
      <trkpt lat="42.644313" lon="0.437294">
        <ele>2941.000000</ele>
        <time>2021-09-05T08:33:43Z</time>
      </trkpt>
      <trkpt lat="42.644307" lon="0.437300">
        <ele>2941.000000</ele>
        <time>2021-09-05T08:33:44Z</time>
      </trkpt>
      <trkpt lat="42.644303" lon="0.437302">
        <ele>2941.000000</ele>
        <time>2021-09-05T08:33:45Z</time>
      </trkpt>
      <trkpt lat="42.644293" lon="0.437309">
        <ele>2940.000000</ele>
        <time>2021-09-05T08:33:46Z</time>
      </trkpt>
      <trkpt lat="42.644287" lon="0.437309">
        <ele>2940.000000</ele>
        <time>2021-09-05T08:33:47Z</time>
      </trkpt>
      <trkpt lat="42.644282" lon="0.437311">
        <ele>2940.000000</ele>
        <time>2021-09-05T08:33:48Z</time>
      </trkpt>
      <trkpt lat="42.644277" lon="0.437313">
        <ele>2940.000000</ele>
        <time>2021-09-05T08:33:49Z</time>
      </trkpt>
      <trkpt lat="42.644270" lon="0.437319">
        <ele>2939.000000</ele>
        <time>2021-09-05T08:33:50Z</time>
      </trkpt>
      <trkpt lat="42.644265" lon="0.437323">
        <ele>2939.000000</ele>
        <time>2021-09-05T08:33:51Z</time>
      </trkpt>
      <trkpt lat="42.644262" lon="0.437326">
        <ele>2939.000000</ele>
        <time>2021-09-05T08:33:52Z</time>
      </trkpt>
      <trkpt lat="42.644258" lon="0.437328">
        <ele>2939.000000</ele>
        <time>2021-09-05T08:33:53Z</time>
      </trkpt>
      <trkpt lat="42.644255" lon="0.437331">
        <ele>2938.000000</ele>
        <time>2021-09-05T08:33:54Z</time>
      </trkpt>
      <trkpt lat="42.644253" lon="0.437332">
        <ele>2938.000000</ele>
        <time>2021-09-05T08:33:55Z</time>
      </trkpt>
      <trkpt lat="42.644248" lon="0.437335">
        <ele>2938.000000</ele>
        <time>2021-09-05T08:33:56Z</time>
      </trkpt>
      <trkpt lat="42.644242" lon="0.437340">
        <ele>2938.000000</ele>
        <time>2021-09-05T08:33:57Z</time>
      </trkpt>
      <trkpt lat="42.644233" lon="0.437345">
        <ele>2937.000000</ele>
        <time>2021-09-05T08:33:58Z</time>
      </trkpt>
      <trkpt lat="42.644227" lon="0.437347">
        <ele>2937.000000</ele>
        <time>2021-09-05T08:33:59Z</time>
      </trkpt>
      <trkpt lat="42.644223" lon="0.437348">
        <ele>2937.000000</ele>
        <time>2021-09-05T08:34:00Z</time>
      </trkpt>
      <trkpt lat="42.644220" lon="0.437349">
        <ele>2937.000000</ele>
        <time>2021-09-05T08:34:02Z</time>
      </trkpt>
      <trkpt lat="42.644215" lon="0.437351">
        <ele>2937.000000</ele>
        <time>2021-09-05T08:34:02Z</time>
      </trkpt>
      <trkpt lat="42.644207" lon="0.437355">
        <ele>2936.000000</ele>
        <time>2021-09-05T08:34:03Z</time>
      </trkpt>
      <trkpt lat="42.644198" lon="0.437359">
        <ele>2936.000000</ele>
        <time>2021-09-05T08:34:04Z</time>
      </trkpt>
      <trkpt lat="42.644192" lon="0.437363">
        <ele>2936.000000</ele>
        <time>2021-09-05T08:34:05Z</time>
      </trkpt>
      <trkpt lat="42.644187" lon="0.437365">
        <ele>2936.000000</ele>
        <time>2021-09-05T08:34:06Z</time>
      </trkpt>
      <trkpt lat="42.644178" lon="0.437370">
        <ele>2936.000000</ele>
        <time>2021-09-05T08:34:07Z</time>
      </trkpt>
      <trkpt lat="42.644173" lon="0.437371">
        <ele>2936.000000</ele>
        <time>2021-09-05T08:34:08Z</time>
      </trkpt>
      <trkpt lat="42.644168" lon="0.437363">
        <ele>2936.000000</ele>
        <time>2021-09-05T08:34:10Z</time>
      </trkpt>
      <trkpt lat="42.644163" lon="0.437365">
        <ele>2936.000000</ele>
        <time>2021-09-05T08:34:11Z</time>
      </trkpt>
      <trkpt lat="42.644157" lon="0.437364">
        <ele>2936.000000</ele>
        <time>2021-09-05T08:34:12Z</time>
      </trkpt>
      <trkpt lat="42.644147" lon="0.437365">
        <ele>2935.000000</ele>
        <time>2021-09-05T08:34:13Z</time>
      </trkpt>
      <trkpt lat="42.644140" lon="0.437368">
        <ele>2935.000000</ele>
        <time>2021-09-05T08:34:14Z</time>
      </trkpt>
      <trkpt lat="42.644132" lon="0.437374">
        <ele>2935.000000</ele>
        <time>2021-09-05T08:34:15Z</time>
      </trkpt>
      <trkpt lat="42.644125" lon="0.437380">
        <ele>2935.000000</ele>
        <time>2021-09-05T08:34:16Z</time>
      </trkpt>
      <trkpt lat="42.644118" lon="0.437387">
        <ele>2935.000000</ele>
        <time>2021-09-05T08:34:17Z</time>
      </trkpt>
      <trkpt lat="42.644115" lon="0.437391">
        <ele>2935.000000</ele>
        <time>2021-09-05T08:34:18Z</time>
      </trkpt>
      <trkpt lat="42.644110" lon="0.437396">
        <ele>2935.000000</ele>
        <time>2021-09-05T08:34:19Z</time>
      </trkpt>
      <trkpt lat="42.644105" lon="0.437403">
        <ele>2935.000000</ele>
        <time>2021-09-05T08:34:19Z</time>
      </trkpt>
      <trkpt lat="42.644102" lon="0.437422">
        <ele>2935.000000</ele>
        <time>2021-09-05T08:34:20Z</time>
      </trkpt>
      <trkpt lat="42.644095" lon="0.437423">
        <ele>2935.000000</ele>
        <time>2021-09-05T08:34:21Z</time>
      </trkpt>
      <trkpt lat="42.644092" lon="0.437425">
        <ele>2935.000000</ele>
        <time>2021-09-05T08:34:22Z</time>
      </trkpt>
      <trkpt lat="42.644088" lon="0.437425">
        <ele>2935.000000</ele>
        <time>2021-09-05T08:34:23Z</time>
      </trkpt>
      <trkpt lat="42.644083" lon="0.437429">
        <ele>2935.000000</ele>
        <time>2021-09-05T08:34:25Z</time>
      </trkpt>
      <trkpt lat="42.644080" lon="0.437431">
        <ele>2935.000000</ele>
        <time>2021-09-05T08:34:25Z</time>
      </trkpt>
      <trkpt lat="42.644075" lon="0.437436">
        <ele>2935.000000</ele>
        <time>2021-09-05T08:34:26Z</time>
      </trkpt>
      <trkpt lat="42.644070" lon="0.437442">
        <ele>2935.000000</ele>
        <time>2021-09-05T08:34:27Z</time>
      </trkpt>
      <trkpt lat="42.644063" lon="0.437450">
        <ele>2935.000000</ele>
        <time>2021-09-05T08:34:28Z</time>
      </trkpt>
      <trkpt lat="42.644057" lon="0.437454">
        <ele>2935.000000</ele>
        <time>2021-09-05T08:34:29Z</time>
      </trkpt>
      <trkpt lat="42.644050" lon="0.437459">
        <ele>2935.000000</ele>
        <time>2021-09-05T08:34:30Z</time>
      </trkpt>
      <trkpt lat="42.644047" lon="0.437461">
        <ele>2935.000000</ele>
        <time>2021-09-05T08:34:31Z</time>
      </trkpt>
      <trkpt lat="42.644040" lon="0.437465">
        <ele>2935.000000</ele>
        <time>2021-09-05T08:34:32Z</time>
      </trkpt>
      <trkpt lat="42.644040" lon="0.437465">
        <ele>2935.000000</ele>
        <time>2021-09-05T08:34:33Z</time>
      </trkpt>
      <trkpt lat="42.644037" lon="0.437466">
        <ele>2935.000000</ele>
        <time>2021-09-05T08:34:34Z</time>
      </trkpt>
      <trkpt lat="42.644033" lon="0.437468">
        <ele>2935.000000</ele>
        <time>2021-09-05T08:34:35Z</time>
      </trkpt>
      <trkpt lat="42.644028" lon="0.437467">
        <ele>2935.000000</ele>
        <time>2021-09-05T08:34:37Z</time>
      </trkpt>
      <trkpt lat="42.644018" lon="0.437473">
        <ele>2935.000000</ele>
        <time>2021-09-05T08:34:38Z</time>
      </trkpt>
      <trkpt lat="42.644015" lon="0.437475">
        <ele>2935.000000</ele>
        <time>2021-09-05T08:34:39Z</time>
      </trkpt>
      <trkpt lat="42.644012" lon="0.437472">
        <ele>2934.000000</ele>
        <time>2021-09-05T08:34:40Z</time>
      </trkpt>
      <trkpt lat="42.644008" lon="0.437467">
        <ele>2934.000000</ele>
        <time>2021-09-05T08:34:41Z</time>
      </trkpt>
      <trkpt lat="42.644002" lon="0.437465">
        <ele>2934.000000</ele>
        <time>2021-09-05T08:34:42Z</time>
      </trkpt>
      <trkpt lat="42.643997" lon="0.437460">
        <ele>2934.000000</ele>
        <time>2021-09-05T08:34:43Z</time>
      </trkpt>
      <trkpt lat="42.643992" lon="0.437455">
        <ele>2934.000000</ele>
        <time>2021-09-05T08:34:45Z</time>
      </trkpt>
      <trkpt lat="42.643987" lon="0.437449">
        <ele>2933.000000</ele>
        <time>2021-09-05T08:34:45Z</time>
      </trkpt>
      <trkpt lat="42.643982" lon="0.437443">
        <ele>2933.000000</ele>
        <time>2021-09-05T08:34:46Z</time>
      </trkpt>
      <trkpt lat="42.643978" lon="0.437438">
        <ele>2933.000000</ele>
        <time>2021-09-05T08:34:47Z</time>
      </trkpt>
      <trkpt lat="42.643975" lon="0.437433">
        <ele>2932.000000</ele>
        <time>2021-09-05T08:34:48Z</time>
      </trkpt>
      <trkpt lat="42.643972" lon="0.437431">
        <ele>2932.000000</ele>
        <time>2021-09-05T08:34:49Z</time>
      </trkpt>
      <trkpt lat="42.643970" lon="0.437437">
        <ele>2932.000000</ele>
        <time>2021-09-05T08:34:50Z</time>
      </trkpt>
      <trkpt lat="42.643973" lon="0.437442">
        <ele>2932.000000</ele>
        <time>2021-09-05T08:34:51Z</time>
      </trkpt>
      <trkpt lat="42.643974" lon="0.437448">
        <ele>2931.000000</ele>
        <time>2021-09-05T08:34:52Z</time>
      </trkpt>
      <trkpt lat="42.643973" lon="0.437452">
        <ele>2931.000000</ele>
        <time>2021-09-05T08:34:53Z</time>
      </trkpt>
      <trkpt lat="42.643972" lon="0.437460">
        <ele>2931.000000</ele>
        <time>2021-09-05T08:34:54Z</time>
      </trkpt>
      <trkpt lat="42.643967" lon="0.437467">
        <ele>2931.000000</ele>
        <time>2021-09-05T08:34:55Z</time>
      </trkpt>
      <trkpt lat="42.643963" lon="0.437482">
        <ele>2931.000000</ele>
        <time>2021-09-05T08:34:56Z</time>
      </trkpt>
      <trkpt lat="42.643960" lon="0.437487">
        <ele>2931.000000</ele>
        <time>2021-09-05T08:34:57Z</time>
      </trkpt>
      <trkpt lat="42.643958" lon="0.437495">
        <ele>2931.000000</ele>
        <time>2021-09-05T08:34:58Z</time>
      </trkpt>
      <trkpt lat="42.643962" lon="0.437502">
        <ele>2931.000000</ele>
        <time>2021-09-05T08:34:59Z</time>
      </trkpt>
      <trkpt lat="42.643962" lon="0.437505">
        <ele>2931.000000</ele>
        <time>2021-09-05T08:35:00Z</time>
      </trkpt>
      <trkpt lat="42.643960" lon="0.437515">
        <ele>2931.000000</ele>
        <time>2021-09-05T08:35:01Z</time>
      </trkpt>
      <trkpt lat="42.643959" lon="0.437518">
        <ele>2931.000000</ele>
        <time>2021-09-05T08:35:02Z</time>
      </trkpt>
      <trkpt lat="42.643957" lon="0.437525">
        <ele>2931.000000</ele>
        <time>2021-09-05T08:35:04Z</time>
      </trkpt>
      <trkpt lat="42.643952" lon="0.437533">
        <ele>2931.000000</ele>
        <time>2021-09-05T08:35:05Z</time>
      </trkpt>
      <trkpt lat="42.643942" lon="0.437535">
        <ele>2931.000000</ele>
        <time>2021-09-05T08:35:06Z</time>
      </trkpt>
      <trkpt lat="42.643932" lon="0.437537">
        <ele>2931.000000</ele>
        <time>2021-09-05T08:35:07Z</time>
      </trkpt>
      <trkpt lat="42.643922" lon="0.437537">
        <ele>2931.000000</ele>
        <time>2021-09-05T08:35:09Z</time>
      </trkpt>
      <trkpt lat="42.643912" lon="0.437535">
        <ele>2931.000000</ele>
        <time>2021-09-05T08:35:09Z</time>
      </trkpt>
      <trkpt lat="42.643903" lon="0.437535">
        <ele>2931.000000</ele>
        <time>2021-09-05T08:35:10Z</time>
      </trkpt>
      <trkpt lat="42.643893" lon="0.437538">
        <ele>2931.000000</ele>
        <time>2021-09-05T08:35:11Z</time>
      </trkpt>
      <trkpt lat="42.643890" lon="0.437537">
        <ele>2930.000000</ele>
        <time>2021-09-05T08:35:12Z</time>
      </trkpt>
      <trkpt lat="42.643887" lon="0.437535">
        <ele>2930.000000</ele>
        <time>2021-09-05T08:35:13Z</time>
      </trkpt>
      <trkpt lat="42.643882" lon="0.437538">
        <ele>2930.000000</ele>
        <time>2021-09-05T08:35:14Z</time>
      </trkpt>
      <trkpt lat="42.643873" lon="0.437542">
        <ele>2930.000000</ele>
        <time>2021-09-05T08:35:15Z</time>
      </trkpt>
      <trkpt lat="42.643867" lon="0.437548">
        <ele>2930.000000</ele>
        <time>2021-09-05T08:35:16Z</time>
      </trkpt>
      <trkpt lat="42.643862" lon="0.437555">
        <ele>2930.000000</ele>
        <time>2021-09-05T08:35:17Z</time>
      </trkpt>
      <trkpt lat="42.643857" lon="0.437560">
        <ele>2930.000000</ele>
        <time>2021-09-05T08:35:18Z</time>
      </trkpt>
      <trkpt lat="42.643850" lon="0.437568">
        <ele>2929.000000</ele>
        <time>2021-09-05T08:35:19Z</time>
      </trkpt>
      <trkpt lat="42.643845" lon="0.437565">
        <ele>2929.000000</ele>
        <time>2021-09-05T08:35:20Z</time>
      </trkpt>
      <trkpt lat="42.643838" lon="0.437572">
        <ele>2929.000000</ele>
        <time>2021-09-05T08:35:21Z</time>
      </trkpt>
      <trkpt lat="42.643833" lon="0.437577">
        <ele>2929.000000</ele>
        <time>2021-09-05T08:35:22Z</time>
      </trkpt>
      <trkpt lat="42.643830" lon="0.437576">
        <ele>2929.000000</ele>
        <time>2021-09-05T08:35:23Z</time>
      </trkpt>
      <trkpt lat="42.643823" lon="0.437580">
        <ele>2929.000000</ele>
        <time>2021-09-05T08:35:24Z</time>
      </trkpt>
      <trkpt lat="42.643815" lon="0.437584">
        <ele>2928.000000</ele>
        <time>2021-09-05T08:35:25Z</time>
      </trkpt>
      <trkpt lat="42.643810" lon="0.437586">
        <ele>2928.000000</ele>
        <time>2021-09-05T08:35:26Z</time>
      </trkpt>
      <trkpt lat="42.643807" lon="0.437586">
        <ele>2928.000000</ele>
        <time>2021-09-05T08:35:27Z</time>
      </trkpt>
      <trkpt lat="42.643805" lon="0.437587">
        <ele>2928.000000</ele>
        <time>2021-09-05T08:35:28Z</time>
      </trkpt>
      <trkpt lat="42.643800" lon="0.437588">
        <ele>2927.000000</ele>
        <time>2021-09-05T08:35:29Z</time>
      </trkpt>
      <trkpt lat="42.643795" lon="0.437588">
        <ele>2927.000000</ele>
        <time>2021-09-05T08:35:30Z</time>
      </trkpt>
      <trkpt lat="42.643792" lon="0.437590">
        <ele>2927.000000</ele>
        <time>2021-09-05T08:35:31Z</time>
      </trkpt>
      <trkpt lat="42.643790" lon="0.437590">
        <ele>2927.000000</ele>
        <time>2021-09-05T08:35:32Z</time>
      </trkpt>
      <trkpt lat="42.643792" lon="0.437589">
        <ele>2927.000000</ele>
        <time>2021-09-05T08:35:34Z</time>
      </trkpt>
      <trkpt lat="42.643795" lon="0.437583">
        <ele>2927.000000</ele>
        <time>2021-09-05T08:35:35Z</time>
      </trkpt>
      <trkpt lat="42.643790" lon="0.437592">
        <ele>2927.000000</ele>
        <time>2021-09-05T08:35:36Z</time>
      </trkpt>
      <trkpt lat="42.643788" lon="0.437598">
        <ele>2927.000000</ele>
        <time>2021-09-05T08:35:37Z</time>
      </trkpt>
      <trkpt lat="42.643784" lon="0.437602">
        <ele>2927.000000</ele>
        <time>2021-09-05T08:35:38Z</time>
      </trkpt>
      <trkpt lat="42.643780" lon="0.437608">
        <ele>2927.000000</ele>
        <time>2021-09-05T08:35:39Z</time>
      </trkpt>
      <trkpt lat="42.643775" lon="0.437612">
        <ele>2927.000000</ele>
        <time>2021-09-05T08:35:40Z</time>
      </trkpt>
      <trkpt lat="42.643773" lon="0.437613">
        <ele>2927.000000</ele>
        <time>2021-09-05T08:35:41Z</time>
      </trkpt>
      <trkpt lat="42.643770" lon="0.437616">
        <ele>2927.000000</ele>
        <time>2021-09-05T08:35:43Z</time>
      </trkpt>
      <trkpt lat="42.643765" lon="0.437627">
        <ele>2927.000000</ele>
        <time>2021-09-05T08:35:44Z</time>
      </trkpt>
      <trkpt lat="42.643760" lon="0.437640">
        <ele>2927.000000</ele>
        <time>2021-09-05T08:35:45Z</time>
      </trkpt>
      <trkpt lat="42.643753" lon="0.437648">
        <ele>2927.000000</ele>
        <time>2021-09-05T08:35:46Z</time>
      </trkpt>
      <trkpt lat="42.643750" lon="0.437649">
        <ele>2927.000000</ele>
        <time>2021-09-05T08:35:47Z</time>
      </trkpt>
      <trkpt lat="42.643725" lon="0.437685">
        <ele>2927.000000</ele>
        <time>2021-09-05T08:35:48Z</time>
      </trkpt>
      <trkpt lat="42.643722" lon="0.437689">
        <ele>2927.000000</ele>
        <time>2021-09-05T08:35:49Z</time>
      </trkpt>
      <trkpt lat="42.643718" lon="0.437692">
        <ele>2927.000000</ele>
        <time>2021-09-05T08:35:50Z</time>
      </trkpt>
      <trkpt lat="42.643715" lon="0.437695">
        <ele>2927.000000</ele>
        <time>2021-09-05T08:35:51Z</time>
      </trkpt>
      <trkpt lat="42.643712" lon="0.437698">
        <ele>2927.000000</ele>
        <time>2021-09-05T08:35:53Z</time>
      </trkpt>
      <trkpt lat="42.643710" lon="0.437699">
        <ele>2926.000000</ele>
        <time>2021-09-05T08:35:53Z</time>
      </trkpt>
      <trkpt lat="42.643712" lon="0.437698">
        <ele>2926.000000</ele>
        <time>2021-09-05T08:35:54Z</time>
      </trkpt>
      <trkpt lat="42.643715" lon="0.437694">
        <ele>2926.000000</ele>
        <time>2021-09-05T08:35:55Z</time>
      </trkpt>
      <trkpt lat="42.643722" lon="0.437684">
        <ele>2926.000000</ele>
        <time>2021-09-05T08:35:56Z</time>
      </trkpt>
      <trkpt lat="42.643728" lon="0.437676">
        <ele>2926.000000</ele>
        <time>2021-09-05T08:35:57Z</time>
      </trkpt>
      <trkpt lat="42.643733" lon="0.437671">
        <ele>2926.000000</ele>
        <time>2021-09-05T08:35:58Z</time>
      </trkpt>
      <trkpt lat="42.643740" lon="0.437664">
        <ele>2926.000000</ele>
        <time>2021-09-05T08:35:59Z</time>
      </trkpt>
      <trkpt lat="42.643745" lon="0.437695">
        <ele>2926.000000</ele>
        <time>2021-09-05T08:36:00Z</time>
      </trkpt>
      <trkpt lat="42.643748" lon="0.437700">
        <ele>2926.000000</ele>
        <time>2021-09-05T08:36:01Z</time>
      </trkpt>
      <trkpt lat="42.643748" lon="0.437703">
        <ele>2926.000000</ele>
        <time>2021-09-05T08:36:02Z</time>
      </trkpt>
      <trkpt lat="42.643742" lon="0.437717">
        <ele>2925.000000</ele>
        <time>2021-09-05T08:36:03Z</time>
      </trkpt>
      <trkpt lat="42.643737" lon="0.437727">
        <ele>2925.000000</ele>
        <time>2021-09-05T08:36:04Z</time>
      </trkpt>
      <trkpt lat="42.643732" lon="0.437732">
        <ele>2925.000000</ele>
        <time>2021-09-05T08:36:05Z</time>
      </trkpt>
      <trkpt lat="42.643725" lon="0.437738">
        <ele>2924.000000</ele>
        <time>2021-09-05T08:36:06Z</time>
      </trkpt>
      <trkpt lat="42.643720" lon="0.437745">
        <ele>2924.000000</ele>
        <time>2021-09-05T08:36:07Z</time>
      </trkpt>
      <trkpt lat="42.643713" lon="0.437748">
        <ele>2923.000000</ele>
        <time>2021-09-05T08:36:08Z</time>
      </trkpt>
      <trkpt lat="42.643708" lon="0.437755">
        <ele>2923.000000</ele>
        <time>2021-09-05T08:36:09Z</time>
      </trkpt>
      <trkpt lat="42.643703" lon="0.437762">
        <ele>2922.000000</ele>
        <time>2021-09-05T08:36:10Z</time>
      </trkpt>
      <trkpt lat="42.643700" lon="0.437763">
        <ele>2922.000000</ele>
        <time>2021-09-05T08:36:11Z</time>
      </trkpt>
      <trkpt lat="42.643697" lon="0.437767">
        <ele>2921.000000</ele>
        <time>2021-09-05T08:36:12Z</time>
      </trkpt>
      <trkpt lat="42.643692" lon="0.437767">
        <ele>2921.000000</ele>
        <time>2021-09-05T08:36:13Z</time>
      </trkpt>
      <trkpt lat="42.643688" lon="0.437770">
        <ele>2920.000000</ele>
        <time>2021-09-05T08:36:14Z</time>
      </trkpt>
      <trkpt lat="42.643683" lon="0.437771">
        <ele>2920.000000</ele>
        <time>2021-09-05T08:36:15Z</time>
      </trkpt>
      <trkpt lat="42.643680" lon="0.437773">
        <ele>2919.000000</ele>
        <time>2021-09-05T08:36:17Z</time>
      </trkpt>
      <trkpt lat="42.643678" lon="0.437774">
        <ele>2919.000000</ele>
        <time>2021-09-05T08:36:17Z</time>
      </trkpt>
      <trkpt lat="42.643677" lon="0.437776">
        <ele>2918.000000</ele>
        <time>2021-09-05T08:36:18Z</time>
      </trkpt>
      <trkpt lat="42.643675" lon="0.437777">
        <ele>2918.000000</ele>
        <time>2021-09-05T08:36:21Z</time>
      </trkpt>
      <trkpt lat="42.643673" lon="0.437783">
        <ele>2917.000000</ele>
        <time>2021-09-05T08:36:22Z</time>
      </trkpt>
      <trkpt lat="42.643672" lon="0.437792">
        <ele>2917.000000</ele>
        <time>2021-09-05T08:36:23Z</time>
      </trkpt>
      <trkpt lat="42.643670" lon="0.437799">
        <ele>2916.000000</ele>
        <time>2021-09-05T08:36:26Z</time>
      </trkpt>
      <trkpt lat="42.643665" lon="0.437805">
        <ele>2916.000000</ele>
        <time>2021-09-05T08:36:27Z</time>
      </trkpt>
      <trkpt lat="42.643660" lon="0.437812">
        <ele>2915.000000</ele>
        <time>2021-09-05T08:36:28Z</time>
      </trkpt>
      <trkpt lat="42.643653" lon="0.437816">
        <ele>2915.000000</ele>
        <time>2021-09-05T08:36:29Z</time>
      </trkpt>
      <trkpt lat="42.643648" lon="0.437816">
        <ele>2915.000000</ele>
        <time>2021-09-05T08:36:30Z</time>
      </trkpt>
      <trkpt lat="42.643642" lon="0.437817">
        <ele>2915.000000</ele>
        <time>2021-09-05T08:36:31Z</time>
      </trkpt>
      <trkpt lat="42.643640" lon="0.437812">
        <ele>2914.000000</ele>
        <time>2021-09-05T08:36:32Z</time>
      </trkpt>
      <trkpt lat="42.643638" lon="0.437818">
        <ele>2914.000000</ele>
        <time>2021-09-05T08:36:33Z</time>
      </trkpt>
      <trkpt lat="42.643633" lon="0.437829">
        <ele>2914.000000</ele>
        <time>2021-09-05T08:36:34Z</time>
      </trkpt>
      <trkpt lat="42.643632" lon="0.437834">
        <ele>2914.000000</ele>
        <time>2021-09-05T08:36:35Z</time>
      </trkpt>
      <trkpt lat="42.643628" lon="0.437842">
        <ele>2914.000000</ele>
        <time>2021-09-05T08:36:37Z</time>
      </trkpt>
      <trkpt lat="42.643623" lon="0.437845">
        <ele>2913.000000</ele>
        <time>2021-09-05T08:36:37Z</time>
      </trkpt>
      <trkpt lat="42.643620" lon="0.437847">
        <ele>2913.000000</ele>
        <time>2021-09-05T08:36:38Z</time>
      </trkpt>
      <trkpt lat="42.643617" lon="0.437855">
        <ele>2913.000000</ele>
        <time>2021-09-05T08:36:39Z</time>
      </trkpt>
      <trkpt lat="42.643613" lon="0.437862">
        <ele>2913.000000</ele>
        <time>2021-09-05T08:36:40Z</time>
      </trkpt>
      <trkpt lat="42.643610" lon="0.437868">
        <ele>2913.000000</ele>
        <time>2021-09-05T08:36:42Z</time>
      </trkpt>
      <trkpt lat="42.643605" lon="0.437878">
        <ele>2913.000000</ele>
        <time>2021-09-05T08:36:43Z</time>
      </trkpt>
      <trkpt lat="42.643598" lon="0.437885">
        <ele>2913.000000</ele>
        <time>2021-09-05T08:36:44Z</time>
      </trkpt>
      <trkpt lat="42.643595" lon="0.437889">
        <ele>2913.000000</ele>
        <time>2021-09-05T08:36:45Z</time>
      </trkpt>
      <trkpt lat="42.643597" lon="0.437888">
        <ele>2913.000000</ele>
        <time>2021-09-05T08:36:46Z</time>
      </trkpt>
      <trkpt lat="42.643593" lon="0.437895">
        <ele>2913.000000</ele>
        <time>2021-09-05T08:36:47Z</time>
      </trkpt>
      <trkpt lat="42.643592" lon="0.437899">
        <ele>2913.000000</ele>
        <time>2021-09-05T08:36:48Z</time>
      </trkpt>
      <trkpt lat="42.643590" lon="0.437918">
        <ele>2913.000000</ele>
        <time>2021-09-05T08:36:49Z</time>
      </trkpt>
      <trkpt lat="42.643592" lon="0.437928">
        <ele>2913.000000</ele>
        <time>2021-09-05T08:36:50Z</time>
      </trkpt>
      <trkpt lat="42.643588" lon="0.437940">
        <ele>2913.000000</ele>
        <time>2021-09-05T08:36:51Z</time>
      </trkpt>
      <trkpt lat="42.643588" lon="0.437952">
        <ele>2913.000000</ele>
        <time>2021-09-05T08:36:52Z</time>
      </trkpt>
      <trkpt lat="42.643587" lon="0.437958">
        <ele>2913.000000</ele>
        <time>2021-09-05T08:36:53Z</time>
      </trkpt>
      <trkpt lat="42.643584" lon="0.437963">
        <ele>2913.000000</ele>
        <time>2021-09-05T08:36:54Z</time>
      </trkpt>
      <trkpt lat="42.643577" lon="0.437972">
        <ele>2913.000000</ele>
        <time>2021-09-05T08:36:55Z</time>
      </trkpt>
      <trkpt lat="42.643573" lon="0.437982">
        <ele>2913.000000</ele>
        <time>2021-09-05T08:36:56Z</time>
      </trkpt>
      <trkpt lat="42.643567" lon="0.437983">
        <ele>2913.000000</ele>
        <time>2021-09-05T08:36:57Z</time>
      </trkpt>
      <trkpt lat="42.643565" lon="0.437988">
        <ele>2913.000000</ele>
        <time>2021-09-05T08:36:59Z</time>
      </trkpt>
      <trkpt lat="42.643565" lon="0.437991">
        <ele>2913.000000</ele>
        <time>2021-09-05T08:37:01Z</time>
      </trkpt>
      <trkpt lat="42.643565" lon="0.437993">
        <ele>2913.000000</ele>
        <time>2021-09-05T08:37:01Z</time>
      </trkpt>
      <trkpt lat="42.643565" lon="0.437995">
        <ele>2913.000000</ele>
        <time>2021-09-05T08:37:02Z</time>
      </trkpt>
      <trkpt lat="42.643558" lon="0.438010">
        <ele>2913.000000</ele>
        <time>2021-09-05T08:37:03Z</time>
      </trkpt>
      <trkpt lat="42.643553" lon="0.438016">
        <ele>2913.000000</ele>
        <time>2021-09-05T08:37:04Z</time>
      </trkpt>
      <trkpt lat="42.643548" lon="0.438023">
        <ele>2912.000000</ele>
        <time>2021-09-05T08:37:05Z</time>
      </trkpt>
      <trkpt lat="42.643547" lon="0.438027">
        <ele>2912.000000</ele>
        <time>2021-09-05T08:37:06Z</time>
      </trkpt>
      <trkpt lat="42.643545" lon="0.438032">
        <ele>2912.000000</ele>
        <time>2021-09-05T08:37:07Z</time>
      </trkpt>
      <trkpt lat="42.643543" lon="0.438037">
        <ele>2912.000000</ele>
        <time>2021-09-05T08:37:08Z</time>
      </trkpt>
      <trkpt lat="42.643538" lon="0.438047">
        <ele>2912.000000</ele>
        <time>2021-09-05T08:37:09Z</time>
      </trkpt>
      <trkpt lat="42.643532" lon="0.438055">
        <ele>2912.000000</ele>
        <time>2021-09-05T08:37:10Z</time>
      </trkpt>
      <trkpt lat="42.643528" lon="0.438048">
        <ele>2912.000000</ele>
        <time>2021-09-05T08:37:11Z</time>
      </trkpt>
      <trkpt lat="42.643525" lon="0.438052">
        <ele>2912.000000</ele>
        <time>2021-09-05T08:37:12Z</time>
      </trkpt>
      <trkpt lat="42.643520" lon="0.438051">
        <ele>2912.000000</ele>
        <time>2021-09-05T08:37:13Z</time>
      </trkpt>
      <trkpt lat="42.643517" lon="0.438050">
        <ele>2912.000000</ele>
        <time>2021-09-05T08:37:14Z</time>
      </trkpt>
      <trkpt lat="42.643513" lon="0.438048">
        <ele>2911.000000</ele>
        <time>2021-09-05T08:37:15Z</time>
      </trkpt>
      <trkpt lat="42.643508" lon="0.438049">
        <ele>2911.000000</ele>
        <time>2021-09-05T08:37:16Z</time>
      </trkpt>
      <trkpt lat="42.643500" lon="0.438053">
        <ele>2911.000000</ele>
        <time>2021-09-05T08:37:17Z</time>
      </trkpt>
      <trkpt lat="42.643493" lon="0.438058">
        <ele>2911.000000</ele>
        <time>2021-09-05T08:37:18Z</time>
      </trkpt>
      <trkpt lat="42.643490" lon="0.438060">
        <ele>2910.000000</ele>
        <time>2021-09-05T08:37:19Z</time>
      </trkpt>
      <trkpt lat="42.643483" lon="0.438061">
        <ele>2910.000000</ele>
        <time>2021-09-05T08:37:20Z</time>
      </trkpt>
      <trkpt lat="42.643478" lon="0.438062">
        <ele>2910.000000</ele>
        <time>2021-09-05T08:37:21Z</time>
      </trkpt>
      <trkpt lat="42.643475" lon="0.438063">
        <ele>2910.000000</ele>
        <time>2021-09-05T08:37:22Z</time>
      </trkpt>
      <trkpt lat="42.643472" lon="0.438065">
        <ele>2910.000000</ele>
        <time>2021-09-05T08:37:23Z</time>
      </trkpt>
      <trkpt lat="42.643465" lon="0.438068">
        <ele>2910.000000</ele>
        <time>2021-09-05T08:37:25Z</time>
      </trkpt>
      <trkpt lat="42.643458" lon="0.438072">
        <ele>2909.000000</ele>
        <time>2021-09-05T08:37:25Z</time>
      </trkpt>
      <trkpt lat="42.643453" lon="0.438075">
        <ele>2909.000000</ele>
        <time>2021-09-05T08:37:26Z</time>
      </trkpt>
      <trkpt lat="42.643452" lon="0.438078">
        <ele>2909.000000</ele>
        <time>2021-09-05T08:37:27Z</time>
      </trkpt>
      <trkpt lat="42.643447" lon="0.438082">
        <ele>2909.000000</ele>
        <time>2021-09-05T08:37:28Z</time>
      </trkpt>
      <trkpt lat="42.643445" lon="0.438084">
        <ele>2909.000000</ele>
        <time>2021-09-05T08:37:29Z</time>
      </trkpt>
      <trkpt lat="42.643442" lon="0.438087">
        <ele>2909.000000</ele>
        <time>2021-09-05T08:37:30Z</time>
      </trkpt>
      <trkpt lat="42.643440" lon="0.438090">
        <ele>2908.000000</ele>
        <time>2021-09-05T08:37:31Z</time>
      </trkpt>
      <trkpt lat="42.643438" lon="0.438093">
        <ele>2908.000000</ele>
        <time>2021-09-05T08:37:32Z</time>
      </trkpt>
      <trkpt lat="42.643430" lon="0.438100">
        <ele>2908.000000</ele>
        <time>2021-09-05T08:37:33Z</time>
      </trkpt>
      <trkpt lat="42.643420" lon="0.438109">
        <ele>2908.000000</ele>
        <time>2021-09-05T08:37:34Z</time>
      </trkpt>
      <trkpt lat="42.643415" lon="0.438115">
        <ele>2908.000000</ele>
        <time>2021-09-05T08:37:36Z</time>
      </trkpt>
      <trkpt lat="42.643412" lon="0.438121">
        <ele>2908.000000</ele>
        <time>2021-09-05T08:37:37Z</time>
      </trkpt>
      <trkpt lat="42.643407" lon="0.438127">
        <ele>2908.000000</ele>
        <time>2021-09-05T08:37:38Z</time>
      </trkpt>
      <trkpt lat="42.643402" lon="0.438133">
        <ele>2908.000000</ele>
        <time>2021-09-05T08:37:39Z</time>
      </trkpt>
      <trkpt lat="42.643397" lon="0.438139">
        <ele>2908.000000</ele>
        <time>2021-09-05T08:37:40Z</time>
      </trkpt>
      <trkpt lat="42.643393" lon="0.438153">
        <ele>2908.000000</ele>
        <time>2021-09-05T08:37:41Z</time>
      </trkpt>
      <trkpt lat="42.643387" lon="0.438157">
        <ele>2908.000000</ele>
        <time>2021-09-05T08:37:42Z</time>
      </trkpt>
      <trkpt lat="42.643382" lon="0.438161">
        <ele>2908.000000</ele>
        <time>2021-09-05T08:37:43Z</time>
      </trkpt>
      <trkpt lat="42.643377" lon="0.438169">
        <ele>2908.000000</ele>
        <time>2021-09-05T08:37:45Z</time>
      </trkpt>
      <trkpt lat="42.643370" lon="0.438177">
        <ele>2908.000000</ele>
        <time>2021-09-05T08:37:45Z</time>
      </trkpt>
      <trkpt lat="42.643367" lon="0.438183">
        <ele>2908.000000</ele>
        <time>2021-09-05T08:37:46Z</time>
      </trkpt>
      <trkpt lat="42.643365" lon="0.438188">
        <ele>2908.000000</ele>
        <time>2021-09-05T08:37:47Z</time>
      </trkpt>
      <trkpt lat="42.643362" lon="0.438195">
        <ele>2908.000000</ele>
        <time>2021-09-05T08:37:48Z</time>
      </trkpt>
      <trkpt lat="42.643358" lon="0.438200">
        <ele>2908.000000</ele>
        <time>2021-09-05T08:37:49Z</time>
      </trkpt>
      <trkpt lat="42.643352" lon="0.438205">
        <ele>2908.000000</ele>
        <time>2021-09-05T08:37:50Z</time>
      </trkpt>
      <trkpt lat="42.643345" lon="0.438215">
        <ele>2908.000000</ele>
        <time>2021-09-05T08:37:51Z</time>
      </trkpt>
      <trkpt lat="42.643340" lon="0.438223">
        <ele>2908.000000</ele>
        <time>2021-09-05T08:37:52Z</time>
      </trkpt>
      <trkpt lat="42.643333" lon="0.438232">
        <ele>2907.000000</ele>
        <time>2021-09-05T08:37:53Z</time>
      </trkpt>
      <trkpt lat="42.643328" lon="0.438236">
        <ele>2907.000000</ele>
        <time>2021-09-05T08:37:54Z</time>
      </trkpt>
      <trkpt lat="42.643318" lon="0.438241">
        <ele>2907.000000</ele>
        <time>2021-09-05T08:37:55Z</time>
      </trkpt>
      <trkpt lat="42.643310" lon="0.438240">
        <ele>2907.000000</ele>
        <time>2021-09-05T08:37:56Z</time>
      </trkpt>
      <trkpt lat="42.643303" lon="0.438239">
        <ele>2907.000000</ele>
        <time>2021-09-05T08:37:57Z</time>
      </trkpt>
      <trkpt lat="42.643293" lon="0.438241">
        <ele>2907.000000</ele>
        <time>2021-09-05T08:37:58Z</time>
      </trkpt>
      <trkpt lat="42.643285" lon="0.438243">
        <ele>2907.000000</ele>
        <time>2021-09-05T08:37:59Z</time>
      </trkpt>
      <trkpt lat="42.643277" lon="0.438245">
        <ele>2907.000000</ele>
        <time>2021-09-05T08:38:00Z</time>
      </trkpt>
      <trkpt lat="42.643267" lon="0.438249">
        <ele>2907.000000</ele>
        <time>2021-09-05T08:38:01Z</time>
      </trkpt>
      <trkpt lat="42.643260" lon="0.438252">
        <ele>2907.000000</ele>
        <time>2021-09-05T08:38:02Z</time>
      </trkpt>
      <trkpt lat="42.643255" lon="0.438255">
        <ele>2907.000000</ele>
        <time>2021-09-05T08:38:03Z</time>
      </trkpt>
      <trkpt lat="42.643247" lon="0.438259">
        <ele>2907.000000</ele>
        <time>2021-09-05T08:38:04Z</time>
      </trkpt>
      <trkpt lat="42.643237" lon="0.438263">
        <ele>2907.000000</ele>
        <time>2021-09-05T08:38:05Z</time>
      </trkpt>
      <trkpt lat="42.643230" lon="0.438266">
        <ele>2907.000000</ele>
        <time>2021-09-05T08:38:06Z</time>
      </trkpt>
      <trkpt lat="42.643223" lon="0.438267">
        <ele>2907.000000</ele>
        <time>2021-09-05T08:38:07Z</time>
      </trkpt>
      <trkpt lat="42.643213" lon="0.438267">
        <ele>2907.000000</ele>
        <time>2021-09-05T08:38:09Z</time>
      </trkpt>
      <trkpt lat="42.643207" lon="0.438262">
        <ele>2906.000000</ele>
        <time>2021-09-05T08:38:09Z</time>
      </trkpt>
      <trkpt lat="42.643197" lon="0.438258">
        <ele>2906.000000</ele>
        <time>2021-09-05T08:38:10Z</time>
      </trkpt>
      <trkpt lat="42.643188" lon="0.438255">
        <ele>2906.000000</ele>
        <time>2021-09-05T08:38:11Z</time>
      </trkpt>
      <trkpt lat="42.643193" lon="0.438257">
        <ele>2906.000000</ele>
        <time>2021-09-05T08:38:12Z</time>
      </trkpt>
      <trkpt lat="42.643190" lon="0.438257">
        <ele>2906.000000</ele>
        <time>2021-09-05T08:38:13Z</time>
      </trkpt>
      <trkpt lat="42.643182" lon="0.438257">
        <ele>2906.000000</ele>
        <time>2021-09-05T08:38:14Z</time>
      </trkpt>
      <trkpt lat="42.643177" lon="0.438251">
        <ele>2906.000000</ele>
        <time>2021-09-05T08:38:15Z</time>
      </trkpt>
      <trkpt lat="42.643172" lon="0.438246">
        <ele>2906.000000</ele>
        <time>2021-09-05T08:38:16Z</time>
      </trkpt>
      <trkpt lat="42.643162" lon="0.438241">
        <ele>2906.000000</ele>
        <time>2021-09-05T08:38:17Z</time>
      </trkpt>
      <trkpt lat="42.643153" lon="0.438238">
        <ele>2906.000000</ele>
        <time>2021-09-05T08:38:18Z</time>
      </trkpt>
      <trkpt lat="42.643145" lon="0.438234">
        <ele>2905.000000</ele>
        <time>2021-09-05T08:38:19Z</time>
      </trkpt>
      <trkpt lat="42.643140" lon="0.438231">
        <ele>2905.000000</ele>
        <time>2021-09-05T08:38:20Z</time>
      </trkpt>
      <trkpt lat="42.643132" lon="0.438228">
        <ele>2905.000000</ele>
        <time>2021-09-05T08:38:21Z</time>
      </trkpt>
      <trkpt lat="42.643122" lon="0.438225">
        <ele>2904.000000</ele>
        <time>2021-09-05T08:38:22Z</time>
      </trkpt>
      <trkpt lat="42.643113" lon="0.438223">
        <ele>2904.000000</ele>
        <time>2021-09-05T08:38:23Z</time>
      </trkpt>
      <trkpt lat="42.643105" lon="0.438222">
        <ele>2903.000000</ele>
        <time>2021-09-05T08:38:24Z</time>
      </trkpt>
      <trkpt lat="42.643100" lon="0.438222">
        <ele>2903.000000</ele>
        <time>2021-09-05T08:38:25Z</time>
      </trkpt>
      <trkpt lat="42.643093" lon="0.438221">
        <ele>2903.000000</ele>
        <time>2021-09-05T08:38:26Z</time>
      </trkpt>
      <trkpt lat="42.643088" lon="0.438220">
        <ele>2902.000000</ele>
        <time>2021-09-05T08:38:27Z</time>
      </trkpt>
      <trkpt lat="42.643078" lon="0.438218">
        <ele>2902.000000</ele>
        <time>2021-09-05T08:38:28Z</time>
      </trkpt>
      <trkpt lat="42.643072" lon="0.438218">
        <ele>2901.000000</ele>
        <time>2021-09-05T08:38:29Z</time>
      </trkpt>
      <trkpt lat="42.643063" lon="0.438216">
        <ele>2901.000000</ele>
        <time>2021-09-05T08:38:30Z</time>
      </trkpt>
      <trkpt lat="42.643057" lon="0.438214">
        <ele>2901.000000</ele>
        <time>2021-09-05T08:38:31Z</time>
      </trkpt>
      <trkpt lat="42.643047" lon="0.438213">
        <ele>2901.000000</ele>
        <time>2021-09-05T08:38:33Z</time>
      </trkpt>
      <trkpt lat="42.643037" lon="0.438210">
        <ele>2901.000000</ele>
        <time>2021-09-05T08:38:33Z</time>
      </trkpt>
      <trkpt lat="42.643030" lon="0.438212">
        <ele>2901.000000</ele>
        <time>2021-09-05T08:38:34Z</time>
      </trkpt>
      <trkpt lat="42.643025" lon="0.438213">
        <ele>2901.000000</ele>
        <time>2021-09-05T08:38:34Z</time>
      </trkpt>
      <trkpt lat="42.643013" lon="0.438217">
        <ele>2901.000000</ele>
        <time>2021-09-05T08:38:35Z</time>
      </trkpt>
      <trkpt lat="42.643008" lon="0.438218">
        <ele>2901.000000</ele>
        <time>2021-09-05T08:38:36Z</time>
      </trkpt>
      <trkpt lat="42.643007" lon="0.438220">
        <ele>2900.000000</ele>
        <time>2021-09-05T08:38:37Z</time>
      </trkpt>
      <trkpt lat="42.643007" lon="0.438218">
        <ele>2900.000000</ele>
        <time>2021-09-05T08:38:38Z</time>
      </trkpt>
      <trkpt lat="42.643007" lon="0.438217">
        <ele>2900.000000</ele>
        <time>2021-09-05T08:38:39Z</time>
      </trkpt>
      <trkpt lat="42.643003" lon="0.438218">
        <ele>2900.000000</ele>
        <time>2021-09-05T08:38:41Z</time>
      </trkpt>
      <trkpt lat="42.643002" lon="0.438225">
        <ele>2900.000000</ele>
        <time>2021-09-05T08:38:42Z</time>
      </trkpt>
      <trkpt lat="42.642993" lon="0.438235">
        <ele>2900.000000</ele>
        <time>2021-09-05T08:38:43Z</time>
      </trkpt>
      <trkpt lat="42.642992" lon="0.438242">
        <ele>2900.000000</ele>
        <time>2021-09-05T08:38:44Z</time>
      </trkpt>
      <trkpt lat="42.642985" lon="0.438250">
        <ele>2900.000000</ele>
        <time>2021-09-05T08:38:45Z</time>
      </trkpt>
      <trkpt lat="42.642973" lon="0.438255">
        <ele>2900.000000</ele>
        <time>2021-09-05T08:38:46Z</time>
      </trkpt>
      <trkpt lat="42.642968" lon="0.438260">
        <ele>2900.000000</ele>
        <time>2021-09-05T08:38:47Z</time>
      </trkpt>
      <trkpt lat="42.642960" lon="0.438265">
        <ele>2900.000000</ele>
        <time>2021-09-05T08:38:48Z</time>
      </trkpt>
      <trkpt lat="42.642952" lon="0.438267">
        <ele>2900.000000</ele>
        <time>2021-09-05T08:38:49Z</time>
      </trkpt>
      <trkpt lat="42.642945" lon="0.438265">
        <ele>2900.000000</ele>
        <time>2021-09-05T08:38:50Z</time>
      </trkpt>
      <trkpt lat="42.642938" lon="0.438267">
        <ele>2900.000000</ele>
        <time>2021-09-05T08:38:52Z</time>
      </trkpt>
      <trkpt lat="42.642933" lon="0.438270">
        <ele>2900.000000</ele>
        <time>2021-09-05T08:38:52Z</time>
      </trkpt>
      <trkpt lat="42.642925" lon="0.438272">
        <ele>2899.000000</ele>
        <time>2021-09-05T08:38:53Z</time>
      </trkpt>
      <trkpt lat="42.642922" lon="0.438275">
        <ele>2899.000000</ele>
        <time>2021-09-05T08:38:54Z</time>
      </trkpt>
      <trkpt lat="42.642917" lon="0.438278">
        <ele>2899.000000</ele>
        <time>2021-09-05T08:38:55Z</time>
      </trkpt>
      <trkpt lat="42.642908" lon="0.438282">
        <ele>2899.000000</ele>
        <time>2021-09-05T08:38:56Z</time>
      </trkpt>
      <trkpt lat="42.642903" lon="0.438284">
        <ele>2898.000000</ele>
        <time>2021-09-05T08:38:57Z</time>
      </trkpt>
      <trkpt lat="42.642897" lon="0.438285">
        <ele>2898.000000</ele>
        <time>2021-09-05T08:38:58Z</time>
      </trkpt>
      <trkpt lat="42.642890" lon="0.438286">
        <ele>2898.000000</ele>
        <time>2021-09-05T08:38:59Z</time>
      </trkpt>
      <trkpt lat="42.642883" lon="0.438284">
        <ele>2898.000000</ele>
        <time>2021-09-05T08:39:00Z</time>
      </trkpt>
      <trkpt lat="42.642878" lon="0.438282">
        <ele>2898.000000</ele>
        <time>2021-09-05T08:39:01Z</time>
      </trkpt>
      <trkpt lat="42.642877" lon="0.438280">
        <ele>2897.000000</ele>
        <time>2021-09-05T08:39:03Z</time>
      </trkpt>
      <trkpt lat="42.642873" lon="0.438277">
        <ele>2897.000000</ele>
        <time>2021-09-05T08:39:04Z</time>
      </trkpt>
      <trkpt lat="42.642875" lon="0.438283">
        <ele>2897.000000</ele>
        <time>2021-09-05T08:39:07Z</time>
      </trkpt>
      <trkpt lat="42.642872" lon="0.438290">
        <ele>2897.000000</ele>
        <time>2021-09-05T08:39:08Z</time>
      </trkpt>
      <trkpt lat="42.642865" lon="0.438297">
        <ele>2897.000000</ele>
        <time>2021-09-05T08:39:09Z</time>
      </trkpt>
      <trkpt lat="42.642860" lon="0.438300">
        <ele>2897.000000</ele>
        <time>2021-09-05T08:39:10Z</time>
      </trkpt>
      <trkpt lat="42.642852" lon="0.438297">
        <ele>2896.000000</ele>
        <time>2021-09-05T08:39:11Z</time>
      </trkpt>
      <trkpt lat="42.642845" lon="0.438295">
        <ele>2896.000000</ele>
        <time>2021-09-05T08:39:12Z</time>
      </trkpt>
      <trkpt lat="42.642840" lon="0.438297">
        <ele>2896.000000</ele>
        <time>2021-09-05T08:39:13Z</time>
      </trkpt>
      <trkpt lat="42.642835" lon="0.438298">
        <ele>2896.000000</ele>
        <time>2021-09-05T08:39:14Z</time>
      </trkpt>
      <trkpt lat="42.642835" lon="0.438302">
        <ele>2895.000000</ele>
        <time>2021-09-05T08:39:16Z</time>
      </trkpt>
      <trkpt lat="42.642832" lon="0.438308">
        <ele>2895.000000</ele>
        <time>2021-09-05T08:39:16Z</time>
      </trkpt>
      <trkpt lat="42.642828" lon="0.438318">
        <ele>2895.000000</ele>
        <time>2021-09-05T08:39:17Z</time>
      </trkpt>
      <trkpt lat="42.642827" lon="0.438323">
        <ele>2895.000000</ele>
        <time>2021-09-05T08:39:18Z</time>
      </trkpt>
      <trkpt lat="42.642820" lon="0.438332">
        <ele>2895.000000</ele>
        <time>2021-09-05T08:39:19Z</time>
      </trkpt>
      <trkpt lat="42.642810" lon="0.438333">
        <ele>2895.000000</ele>
        <time>2021-09-05T08:39:20Z</time>
      </trkpt>
      <trkpt lat="42.642802" lon="0.438332">
        <ele>2895.000000</ele>
        <time>2021-09-05T08:39:21Z</time>
      </trkpt>
      <trkpt lat="42.642788" lon="0.438333">
        <ele>2895.000000</ele>
        <time>2021-09-05T08:39:22Z</time>
      </trkpt>
      <trkpt lat="42.642783" lon="0.438335">
        <ele>2895.000000</ele>
        <time>2021-09-05T08:39:23Z</time>
      </trkpt>
      <trkpt lat="42.642775" lon="0.438340">
        <ele>2895.000000</ele>
        <time>2021-09-05T08:39:24Z</time>
      </trkpt>
      <trkpt lat="42.642772" lon="0.438345">
        <ele>2895.000000</ele>
        <time>2021-09-05T08:39:25Z</time>
      </trkpt>
      <trkpt lat="42.642765" lon="0.438353">
        <ele>2895.000000</ele>
        <time>2021-09-05T08:39:26Z</time>
      </trkpt>
      <trkpt lat="42.642762" lon="0.438356">
        <ele>2895.000000</ele>
        <time>2021-09-05T08:39:27Z</time>
      </trkpt>
      <trkpt lat="42.642760" lon="0.438355">
        <ele>2895.000000</ele>
        <time>2021-09-05T08:39:29Z</time>
      </trkpt>
      <trkpt lat="42.642757" lon="0.438355">
        <ele>2895.000000</ele>
        <time>2021-09-05T08:39:30Z</time>
      </trkpt>
      <trkpt lat="42.642753" lon="0.438356">
        <ele>2895.000000</ele>
        <time>2021-09-05T08:39:31Z</time>
      </trkpt>
      <trkpt lat="42.642750" lon="0.438357">
        <ele>2894.000000</ele>
        <time>2021-09-05T08:39:32Z</time>
      </trkpt>
      <trkpt lat="42.642745" lon="0.438358">
        <ele>2894.000000</ele>
        <time>2021-09-05T08:39:33Z</time>
      </trkpt>
      <trkpt lat="42.642743" lon="0.438358">
        <ele>2894.000000</ele>
        <time>2021-09-05T08:39:34Z</time>
      </trkpt>
      <trkpt lat="42.642742" lon="0.438360">
        <ele>2894.000000</ele>
        <time>2021-09-05T08:39:36Z</time>
      </trkpt>
      <trkpt lat="42.642737" lon="0.438364">
        <ele>2894.000000</ele>
        <time>2021-09-05T08:39:36Z</time>
      </trkpt>
      <trkpt lat="42.642727" lon="0.438372">
        <ele>2894.000000</ele>
        <time>2021-09-05T08:39:37Z</time>
      </trkpt>
      <trkpt lat="42.642720" lon="0.438377">
        <ele>2894.000000</ele>
        <time>2021-09-05T08:39:38Z</time>
      </trkpt>
      <trkpt lat="42.642710" lon="0.438382">
        <ele>2894.000000</ele>
        <time>2021-09-05T08:39:39Z</time>
      </trkpt>
      <trkpt lat="42.642713" lon="0.438380">
        <ele>2894.000000</ele>
        <time>2021-09-05T08:39:40Z</time>
      </trkpt>
      <trkpt lat="42.642712" lon="0.438379">
        <ele>2894.000000</ele>
        <time>2021-09-05T08:39:41Z</time>
      </trkpt>
      <trkpt lat="42.642708" lon="0.438379">
        <ele>2894.000000</ele>
        <time>2021-09-05T08:39:43Z</time>
      </trkpt>
      <trkpt lat="42.642708" lon="0.438379">
        <ele>2894.000000</ele>
        <time>2021-09-05T08:39:44Z</time>
      </trkpt>
      <trkpt lat="42.642708" lon="0.438382">
        <ele>2894.000000</ele>
        <time>2021-09-05T08:39:45Z</time>
      </trkpt>
      <trkpt lat="42.642702" lon="0.438390">
        <ele>2894.000000</ele>
        <time>2021-09-05T08:39:46Z</time>
      </trkpt>
      <trkpt lat="42.642695" lon="0.438400">
        <ele>2894.000000</ele>
        <time>2021-09-05T08:39:47Z</time>
      </trkpt>
      <trkpt lat="42.642689" lon="0.438403">
        <ele>2894.000000</ele>
        <time>2021-09-05T08:39:48Z</time>
      </trkpt>
      <trkpt lat="42.642677" lon="0.438407">
        <ele>2894.000000</ele>
        <time>2021-09-05T08:39:49Z</time>
      </trkpt>
      <trkpt lat="42.642667" lon="0.438407">
        <ele>2894.000000</ele>
        <time>2021-09-05T08:39:50Z</time>
      </trkpt>
      <trkpt lat="42.642658" lon="0.438405">
        <ele>2894.000000</ele>
        <time>2021-09-05T08:39:51Z</time>
      </trkpt>
      <trkpt lat="42.642653" lon="0.438402">
        <ele>2894.000000</ele>
        <time>2021-09-05T08:39:52Z</time>
      </trkpt>
      <trkpt lat="42.642650" lon="0.438405">
        <ele>2894.000000</ele>
        <time>2021-09-05T08:39:53Z</time>
      </trkpt>
      <trkpt lat="42.642647" lon="0.438410">
        <ele>2894.000000</ele>
        <time>2021-09-05T08:39:54Z</time>
      </trkpt>
      <trkpt lat="42.642640" lon="0.438415">
        <ele>2894.000000</ele>
        <time>2021-09-05T08:39:55Z</time>
      </trkpt>
      <trkpt lat="42.642630" lon="0.438421">
        <ele>2894.000000</ele>
        <time>2021-09-05T08:39:56Z</time>
      </trkpt>
      <trkpt lat="42.642620" lon="0.438425">
        <ele>2894.000000</ele>
        <time>2021-09-05T08:39:57Z</time>
      </trkpt>
      <trkpt lat="42.642612" lon="0.438426">
        <ele>2894.000000</ele>
        <time>2021-09-05T08:39:58Z</time>
      </trkpt>
      <trkpt lat="42.642603" lon="0.438429">
        <ele>2894.000000</ele>
        <time>2021-09-05T08:40:00Z</time>
      </trkpt>
      <trkpt lat="42.642593" lon="0.438433">
        <ele>2894.000000</ele>
        <time>2021-09-05T08:40:00Z</time>
      </trkpt>
      <trkpt lat="42.642587" lon="0.438440">
        <ele>2894.000000</ele>
        <time>2021-09-05T08:40:01Z</time>
      </trkpt>
      <trkpt lat="42.642577" lon="0.438446">
        <ele>2894.000000</ele>
        <time>2021-09-05T08:40:02Z</time>
      </trkpt>
      <trkpt lat="42.642563" lon="0.438449">
        <ele>2894.000000</ele>
        <time>2021-09-05T08:40:03Z</time>
      </trkpt>
      <trkpt lat="42.642552" lon="0.438449">
        <ele>2894.000000</ele>
        <time>2021-09-05T08:40:04Z</time>
      </trkpt>
      <trkpt lat="42.642537" lon="0.438446">
        <ele>2892.000000</ele>
        <time>2021-09-05T08:40:05Z</time>
      </trkpt>
      <trkpt lat="42.642528" lon="0.438442">
        <ele>2891.000000</ele>
        <time>2021-09-05T08:40:06Z</time>
      </trkpt>
      <trkpt lat="42.642520" lon="0.438439">
        <ele>2891.000000</ele>
        <time>2021-09-05T08:40:07Z</time>
      </trkpt>
      <trkpt lat="42.642508" lon="0.438436">
        <ele>2891.000000</ele>
        <time>2021-09-05T08:40:08Z</time>
      </trkpt>
      <trkpt lat="42.642495" lon="0.438434">
        <ele>2893.000000</ele>
        <time>2021-09-05T08:40:09Z</time>
      </trkpt>
      <trkpt lat="42.642482" lon="0.438433">
        <ele>2893.000000</ele>
        <time>2021-09-05T08:40:10Z</time>
      </trkpt>
      <trkpt lat="42.642472" lon="0.438433">
        <ele>2893.000000</ele>
        <time>2021-09-05T08:40:11Z</time>
      </trkpt>
      <trkpt lat="42.642463" lon="0.438434">
        <ele>2893.000000</ele>
        <time>2021-09-05T08:40:12Z</time>
      </trkpt>
      <trkpt lat="42.642455" lon="0.438435">
        <ele>2893.000000</ele>
        <time>2021-09-05T08:40:13Z</time>
      </trkpt>
      <trkpt lat="42.642447" lon="0.438437">
        <ele>2893.000000</ele>
        <time>2021-09-05T08:40:14Z</time>
      </trkpt>
      <trkpt lat="42.642437" lon="0.438439">
        <ele>2893.000000</ele>
        <time>2021-09-05T08:40:15Z</time>
      </trkpt>
      <trkpt lat="42.642428" lon="0.438439">
        <ele>2893.000000</ele>
        <time>2021-09-05T08:40:16Z</time>
      </trkpt>
      <trkpt lat="42.642418" lon="0.438440">
        <ele>2893.000000</ele>
        <time>2021-09-05T08:40:17Z</time>
      </trkpt>
      <trkpt lat="42.642415" lon="0.438441">
        <ele>2893.000000</ele>
        <time>2021-09-05T08:40:18Z</time>
      </trkpt>
      <trkpt lat="42.642412" lon="0.438442">
        <ele>2893.000000</ele>
        <time>2021-09-05T08:40:19Z</time>
      </trkpt>
      <trkpt lat="42.642403" lon="0.438443">
        <ele>2893.000000</ele>
        <time>2021-09-05T08:40:20Z</time>
      </trkpt>
      <trkpt lat="42.642392" lon="0.438446">
        <ele>2893.000000</ele>
        <time>2021-09-05T08:40:21Z</time>
      </trkpt>
      <trkpt lat="42.642378" lon="0.438448">
        <ele>2893.000000</ele>
        <time>2021-09-05T08:40:22Z</time>
      </trkpt>
      <trkpt lat="42.642368" lon="0.438451">
        <ele>2893.000000</ele>
        <time>2021-09-05T08:40:24Z</time>
      </trkpt>
      <trkpt lat="42.642357" lon="0.438453">
        <ele>2893.000000</ele>
        <time>2021-09-05T08:40:24Z</time>
      </trkpt>
      <trkpt lat="42.642347" lon="0.438456">
        <ele>2893.000000</ele>
        <time>2021-09-05T08:40:25Z</time>
      </trkpt>
      <trkpt lat="42.642342" lon="0.438460">
        <ele>2893.000000</ele>
        <time>2021-09-05T08:40:26Z</time>
      </trkpt>
      <trkpt lat="42.642332" lon="0.438463">
        <ele>2893.000000</ele>
        <time>2021-09-05T08:40:27Z</time>
      </trkpt>
      <trkpt lat="42.642320" lon="0.438467">
        <ele>2893.000000</ele>
        <time>2021-09-05T08:40:28Z</time>
      </trkpt>
      <trkpt lat="42.642313" lon="0.438470">
        <ele>2893.000000</ele>
        <time>2021-09-05T08:40:29Z</time>
      </trkpt>
      <trkpt lat="42.642307" lon="0.438472">
        <ele>2893.000000</ele>
        <time>2021-09-05T08:40:30Z</time>
      </trkpt>
      <trkpt lat="42.642300" lon="0.438474">
        <ele>2893.000000</ele>
        <time>2021-09-05T08:40:31Z</time>
      </trkpt>
      <trkpt lat="42.642295" lon="0.438477">
        <ele>2893.000000</ele>
        <time>2021-09-05T08:40:32Z</time>
      </trkpt>
      <trkpt lat="42.642287" lon="0.438480">
        <ele>2893.000000</ele>
        <time>2021-09-05T08:40:33Z</time>
      </trkpt>
      <trkpt lat="42.642278" lon="0.438482">
        <ele>2892.000000</ele>
        <time>2021-09-05T08:40:34Z</time>
      </trkpt>
      <trkpt lat="42.642272" lon="0.438485">
        <ele>2892.000000</ele>
        <time>2021-09-05T08:40:35Z</time>
      </trkpt>
      <trkpt lat="42.642270" lon="0.438488">
        <ele>2892.000000</ele>
        <time>2021-09-05T08:40:36Z</time>
      </trkpt>
      <trkpt lat="42.642263" lon="0.438491">
        <ele>2891.000000</ele>
        <time>2021-09-05T08:40:37Z</time>
      </trkpt>
      <trkpt lat="42.642252" lon="0.438495">
        <ele>2891.000000</ele>
        <time>2021-09-05T08:40:38Z</time>
      </trkpt>
      <trkpt lat="42.642240" lon="0.438499">
        <ele>2891.000000</ele>
        <time>2021-09-05T08:40:39Z</time>
      </trkpt>
      <trkpt lat="42.642230" lon="0.438503">
        <ele>2890.000000</ele>
        <time>2021-09-05T08:40:40Z</time>
      </trkpt>
      <trkpt lat="42.642223" lon="0.438506">
        <ele>2890.000000</ele>
        <time>2021-09-05T08:40:41Z</time>
      </trkpt>
      <trkpt lat="42.642217" lon="0.438510">
        <ele>2890.000000</ele>
        <time>2021-09-05T08:40:42Z</time>
      </trkpt>
      <trkpt lat="42.642208" lon="0.438514">
        <ele>2890.000000</ele>
        <time>2021-09-05T08:40:44Z</time>
      </trkpt>
      <trkpt lat="42.642200" lon="0.438518">
        <ele>2889.000000</ele>
        <time>2021-09-05T08:40:44Z</time>
      </trkpt>
      <trkpt lat="42.642195" lon="0.438522">
        <ele>2889.000000</ele>
        <time>2021-09-05T08:40:45Z</time>
      </trkpt>
      <trkpt lat="42.642190" lon="0.438526">
        <ele>2889.000000</ele>
        <time>2021-09-05T08:40:46Z</time>
      </trkpt>
      <trkpt lat="42.642183" lon="0.438532">
        <ele>2889.000000</ele>
        <time>2021-09-05T08:40:47Z</time>
      </trkpt>
      <trkpt lat="42.642178" lon="0.438537">
        <ele>2889.000000</ele>
        <time>2021-09-05T08:40:48Z</time>
      </trkpt>
      <trkpt lat="42.642175" lon="0.438542">
        <ele>2889.000000</ele>
        <time>2021-09-05T08:40:49Z</time>
      </trkpt>
      <trkpt lat="42.642170" lon="0.438548">
        <ele>2889.000000</ele>
        <time>2021-09-05T08:40:50Z</time>
      </trkpt>
      <trkpt lat="42.642170" lon="0.438553">
        <ele>2889.000000</ele>
        <time>2021-09-05T08:40:51Z</time>
      </trkpt>
      <trkpt lat="42.642163" lon="0.438560">
        <ele>2889.000000</ele>
        <time>2021-09-05T08:40:52Z</time>
      </trkpt>
      <trkpt lat="42.642158" lon="0.438566">
        <ele>2889.000000</ele>
        <time>2021-09-05T08:40:53Z</time>
      </trkpt>
      <trkpt lat="42.642152" lon="0.438572">
        <ele>2889.000000</ele>
        <time>2021-09-05T08:40:54Z</time>
      </trkpt>
      <trkpt lat="42.642150" lon="0.438590">
        <ele>2889.000000</ele>
        <time>2021-09-05T08:40:55Z</time>
      </trkpt>
      <trkpt lat="42.642147" lon="0.438590">
        <ele>2889.000000</ele>
        <time>2021-09-05T08:40:56Z</time>
      </trkpt>
      <trkpt lat="42.642142" lon="0.438590">
        <ele>2889.000000</ele>
        <time>2021-09-05T08:40:57Z</time>
      </trkpt>
      <trkpt lat="42.642135" lon="0.438591">
        <ele>2889.000000</ele>
        <time>2021-09-05T08:40:58Z</time>
      </trkpt>
      <trkpt lat="42.642132" lon="0.438592">
        <ele>2889.000000</ele>
        <time>2021-09-05T08:40:59Z</time>
      </trkpt>
      <trkpt lat="42.642125" lon="0.438591">
        <ele>2889.000000</ele>
        <time>2021-09-05T08:41:00Z</time>
      </trkpt>
      <trkpt lat="42.642118" lon="0.438591">
        <ele>2889.000000</ele>
        <time>2021-09-05T08:41:01Z</time>
      </trkpt>
      <trkpt lat="42.642110" lon="0.438592">
        <ele>2889.000000</ele>
        <time>2021-09-05T08:41:02Z</time>
      </trkpt>
      <trkpt lat="42.642105" lon="0.438593">
        <ele>2889.000000</ele>
        <time>2021-09-05T08:41:03Z</time>
      </trkpt>
      <trkpt lat="42.642102" lon="0.438593">
        <ele>2889.000000</ele>
        <time>2021-09-05T08:41:04Z</time>
      </trkpt>
      <trkpt lat="42.642102" lon="0.438591">
        <ele>2889.000000</ele>
        <time>2021-09-05T08:41:05Z</time>
      </trkpt>
      <trkpt lat="42.642098" lon="0.438591">
        <ele>2889.000000</ele>
        <time>2021-09-05T08:41:06Z</time>
      </trkpt>
      <trkpt lat="42.642092" lon="0.438591">
        <ele>2889.000000</ele>
        <time>2021-09-05T08:41:08Z</time>
      </trkpt>
      <trkpt lat="42.642087" lon="0.438590">
        <ele>2889.000000</ele>
        <time>2021-09-05T08:41:08Z</time>
      </trkpt>
      <trkpt lat="42.642080" lon="0.438592">
        <ele>2889.000000</ele>
        <time>2021-09-05T08:41:09Z</time>
      </trkpt>
      <trkpt lat="42.642075" lon="0.438597">
        <ele>2888.000000</ele>
        <time>2021-09-05T08:41:10Z</time>
      </trkpt>
      <trkpt lat="42.642072" lon="0.438602">
        <ele>2888.000000</ele>
        <time>2021-09-05T08:41:11Z</time>
      </trkpt>
      <trkpt lat="42.642070" lon="0.438603">
        <ele>2887.000000</ele>
        <time>2021-09-05T08:41:12Z</time>
      </trkpt>
      <trkpt lat="42.642062" lon="0.438600">
        <ele>2887.000000</ele>
        <time>2021-09-05T08:41:13Z</time>
      </trkpt>
      <trkpt lat="42.642057" lon="0.438602">
        <ele>2887.000000</ele>
        <time>2021-09-05T08:41:14Z</time>
      </trkpt>
      <trkpt lat="42.642053" lon="0.438605">
        <ele>2886.000000</ele>
        <time>2021-09-05T08:41:15Z</time>
      </trkpt>
      <trkpt lat="42.642048" lon="0.438611">
        <ele>2886.000000</ele>
        <time>2021-09-05T08:41:16Z</time>
      </trkpt>
      <trkpt lat="42.642043" lon="0.438615">
        <ele>2886.000000</ele>
        <time>2021-09-05T08:41:17Z</time>
      </trkpt>
      <trkpt lat="42.642038" lon="0.438618">
        <ele>2885.000000</ele>
        <time>2021-09-05T08:41:18Z</time>
      </trkpt>
      <trkpt lat="42.642033" lon="0.438620">
        <ele>2885.000000</ele>
        <time>2021-09-05T08:41:19Z</time>
      </trkpt>
      <trkpt lat="42.642030" lon="0.438622">
        <ele>2884.000000</ele>
        <time>2021-09-05T08:41:20Z</time>
      </trkpt>
      <trkpt lat="42.642033" lon="0.438619">
        <ele>2883.000000</ele>
        <time>2021-09-05T08:41:22Z</time>
      </trkpt>
      <trkpt lat="42.642037" lon="0.438617">
        <ele>2883.000000</ele>
        <time>2021-09-05T08:41:23Z</time>
      </trkpt>
      <trkpt lat="42.642043" lon="0.438614">
        <ele>2882.000000</ele>
        <time>2021-09-05T08:41:26Z</time>
      </trkpt>
      <trkpt lat="42.642043" lon="0.438614">
        <ele>2882.000000</ele>
        <time>2021-09-05T08:41:27Z</time>
      </trkpt>
      <trkpt lat="42.642040" lon="0.438617">
        <ele>2881.000000</ele>
        <time>2021-09-05T08:41:28Z</time>
      </trkpt>
      <trkpt lat="42.642038" lon="0.438619">
        <ele>2881.000000</ele>
        <time>2021-09-05T08:41:29Z</time>
      </trkpt>
      <trkpt lat="42.642028" lon="0.438625">
        <ele>2881.000000</ele>
        <time>2021-09-05T08:41:30Z</time>
      </trkpt>
      <trkpt lat="42.642025" lon="0.438628">
        <ele>2880.000000</ele>
        <time>2021-09-05T08:41:32Z</time>
      </trkpt>
      <trkpt lat="42.642017" lon="0.438632">
        <ele>2880.000000</ele>
        <time>2021-09-05T08:41:32Z</time>
      </trkpt>
      <trkpt lat="42.642010" lon="0.438636">
        <ele>2880.000000</ele>
        <time>2021-09-05T08:41:33Z</time>
      </trkpt>
      <trkpt lat="42.642002" lon="0.438640">
        <ele>2880.000000</ele>
        <time>2021-09-05T08:41:34Z</time>
      </trkpt>
      <trkpt lat="42.641993" lon="0.438642">
        <ele>2879.000000</ele>
        <time>2021-09-05T08:41:35Z</time>
      </trkpt>
      <trkpt lat="42.641983" lon="0.438645">
        <ele>2879.000000</ele>
        <time>2021-09-05T08:41:36Z</time>
      </trkpt>
      <trkpt lat="42.641973" lon="0.438647">
        <ele>2879.000000</ele>
        <time>2021-09-05T08:41:37Z</time>
      </trkpt>
      <trkpt lat="42.641968" lon="0.438646">
        <ele>2879.000000</ele>
        <time>2021-09-05T08:41:38Z</time>
      </trkpt>
      <trkpt lat="42.641967" lon="0.438646">
        <ele>2879.000000</ele>
        <time>2021-09-05T08:41:39Z</time>
      </trkpt>
      <trkpt lat="42.641960" lon="0.438648">
        <ele>2879.000000</ele>
        <time>2021-09-05T08:41:40Z</time>
      </trkpt>
      <trkpt lat="42.641957" lon="0.438649">
        <ele>2879.000000</ele>
        <time>2021-09-05T08:41:41Z</time>
      </trkpt>
      <trkpt lat="42.641947" lon="0.438651">
        <ele>2879.000000</ele>
        <time>2021-09-05T08:41:42Z</time>
      </trkpt>
      <trkpt lat="42.641937" lon="0.438653">
        <ele>2879.000000</ele>
        <time>2021-09-05T08:41:43Z</time>
      </trkpt>
      <trkpt lat="42.641932" lon="0.438653">
        <ele>2879.000000</ele>
        <time>2021-09-05T08:41:44Z</time>
      </trkpt>
      <trkpt lat="42.641930" lon="0.438652">
        <ele>2879.000000</ele>
        <time>2021-09-05T08:41:45Z</time>
      </trkpt>
      <trkpt lat="42.641927" lon="0.438653">
        <ele>2879.000000</ele>
        <time>2021-09-05T08:41:46Z</time>
      </trkpt>
      <trkpt lat="42.641927" lon="0.438652">
        <ele>2879.000000</ele>
        <time>2021-09-05T08:41:47Z</time>
      </trkpt>
      <trkpt lat="42.641923" lon="0.438654">
        <ele>2879.000000</ele>
        <time>2021-09-05T08:41:48Z</time>
      </trkpt>
      <trkpt lat="42.641920" lon="0.438655">
        <ele>2879.000000</ele>
        <time>2021-09-05T08:41:49Z</time>
      </trkpt>
      <trkpt lat="42.641915" lon="0.438656">
        <ele>2879.000000</ele>
        <time>2021-09-05T08:41:51Z</time>
      </trkpt>
      <trkpt lat="42.641915" lon="0.438655">
        <ele>2879.000000</ele>
        <time>2021-09-05T08:41:51Z</time>
      </trkpt>
      <trkpt lat="42.641917" lon="0.438653">
        <ele>2879.000000</ele>
        <time>2021-09-05T08:41:52Z</time>
      </trkpt>
      <trkpt lat="42.641913" lon="0.438653">
        <ele>2879.000000</ele>
        <time>2021-09-05T08:41:55Z</time>
      </trkpt>
      <trkpt lat="42.641907" lon="0.438654">
        <ele>2879.000000</ele>
        <time>2021-09-05T08:41:56Z</time>
      </trkpt>
      <trkpt lat="42.641908" lon="0.438651">
        <ele>2879.000000</ele>
        <time>2021-09-05T08:41:57Z</time>
      </trkpt>
      <trkpt lat="42.641907" lon="0.438650">
        <ele>2879.000000</ele>
        <time>2021-09-05T08:41:58Z</time>
      </trkpt>
      <trkpt lat="42.641908" lon="0.438648">
        <ele>2879.000000</ele>
        <time>2021-09-05T08:41:59Z</time>
      </trkpt>
      <trkpt lat="42.641913" lon="0.438646">
        <ele>2879.000000</ele>
        <time>2021-09-05T08:42:00Z</time>
      </trkpt>
      <trkpt lat="42.641910" lon="0.438646">
        <ele>2879.000000</ele>
        <time>2021-09-05T08:42:01Z</time>
      </trkpt>
      <trkpt lat="42.641908" lon="0.438646">
        <ele>2879.000000</ele>
        <time>2021-09-05T08:42:02Z</time>
      </trkpt>
      <trkpt lat="42.641900" lon="0.438645">
        <ele>2879.000000</ele>
        <time>2021-09-05T08:42:03Z</time>
      </trkpt>
      <trkpt lat="42.641895" lon="0.438652">
        <ele>2878.000000</ele>
        <time>2021-09-05T08:42:04Z</time>
      </trkpt>
      <trkpt lat="42.641893" lon="0.438653">
        <ele>2878.000000</ele>
        <time>2021-09-05T08:42:05Z</time>
      </trkpt>
      <trkpt lat="42.641893" lon="0.438650">
        <ele>2878.000000</ele>
        <time>2021-09-05T08:42:06Z</time>
      </trkpt>
      <trkpt lat="42.641893" lon="0.438646">
        <ele>2877.000000</ele>
        <time>2021-09-05T08:42:07Z</time>
      </trkpt>
      <trkpt lat="42.641893" lon="0.438643">
        <ele>2877.000000</ele>
        <time>2021-09-05T08:42:08Z</time>
      </trkpt>
      <trkpt lat="42.641892" lon="0.438623">
        <ele>2877.000000</ele>
        <time>2021-09-05T08:42:09Z</time>
      </trkpt>
      <trkpt lat="42.641892" lon="0.438618">
        <ele>2876.000000</ele>
        <time>2021-09-05T08:42:10Z</time>
      </trkpt>
      <trkpt lat="42.641892" lon="0.438620">
        <ele>2876.000000</ele>
        <time>2021-09-05T08:42:11Z</time>
      </trkpt>
      <trkpt lat="42.641897" lon="0.438618">
        <ele>2876.000000</ele>
        <time>2021-09-05T08:42:13Z</time>
      </trkpt>
      <trkpt lat="42.641898" lon="0.438622">
        <ele>2876.000000</ele>
        <time>2021-09-05T08:42:16Z</time>
      </trkpt>
      <trkpt lat="42.641897" lon="0.438623">
        <ele>2876.000000</ele>
        <time>2021-09-05T08:42:16Z</time>
      </trkpt>
      <trkpt lat="42.641894" lon="0.438628">
        <ele>2875.000000</ele>
        <time>2021-09-05T08:42:17Z</time>
      </trkpt>
      <trkpt lat="42.641895" lon="0.438635">
        <ele>2875.000000</ele>
        <time>2021-09-05T08:42:18Z</time>
      </trkpt>
      <trkpt lat="42.641890" lon="0.438640">
        <ele>2875.000000</ele>
        <time>2021-09-05T08:42:19Z</time>
      </trkpt>
      <trkpt lat="42.641887" lon="0.438642">
        <ele>2875.000000</ele>
        <time>2021-09-05T08:42:20Z</time>
      </trkpt>
      <trkpt lat="42.641883" lon="0.438644">
        <ele>2874.000000</ele>
        <time>2021-09-05T08:42:21Z</time>
      </trkpt>
      <trkpt lat="42.641875" lon="0.438645">
        <ele>2874.000000</ele>
        <time>2021-09-05T08:42:22Z</time>
      </trkpt>
      <trkpt lat="42.641872" lon="0.438645">
        <ele>2874.000000</ele>
        <time>2021-09-05T08:42:23Z</time>
      </trkpt>
      <trkpt lat="42.641868" lon="0.438645">
        <ele>2873.000000</ele>
        <time>2021-09-05T08:42:24Z</time>
      </trkpt>
      <trkpt lat="42.641863" lon="0.438646">
        <ele>2873.000000</ele>
        <time>2021-09-05T08:42:25Z</time>
      </trkpt>
      <trkpt lat="42.641853" lon="0.438651">
        <ele>2873.000000</ele>
        <time>2021-09-05T08:42:26Z</time>
      </trkpt>
      <trkpt lat="42.641853" lon="0.438653">
        <ele>2872.000000</ele>
        <time>2021-09-05T08:42:27Z</time>
      </trkpt>
      <trkpt lat="42.641852" lon="0.438663">
        <ele>2872.000000</ele>
        <time>2021-09-05T08:42:28Z</time>
      </trkpt>
      <trkpt lat="42.641850" lon="0.438672">
        <ele>2872.000000</ele>
        <time>2021-09-05T08:42:29Z</time>
      </trkpt>
      <trkpt lat="42.641848" lon="0.438670">
        <ele>2872.000000</ele>
        <time>2021-09-05T08:42:30Z</time>
      </trkpt>
      <trkpt lat="42.641847" lon="0.438665">
        <ele>2872.000000</ele>
        <time>2021-09-05T08:42:31Z</time>
      </trkpt>
      <trkpt lat="42.641847" lon="0.438667">
        <ele>2872.000000</ele>
        <time>2021-09-05T08:42:33Z</time>
      </trkpt>
      <trkpt lat="42.641843" lon="0.438669">
        <ele>2872.000000</ele>
        <time>2021-09-05T08:42:33Z</time>
      </trkpt>
      <trkpt lat="42.641840" lon="0.438672">
        <ele>2872.000000</ele>
        <time>2021-09-05T08:42:34Z</time>
      </trkpt>
      <trkpt lat="42.641832" lon="0.438672">
        <ele>2872.000000</ele>
        <time>2021-09-05T08:42:37Z</time>
      </trkpt>
      <trkpt lat="42.641828" lon="0.438674">
        <ele>2872.000000</ele>
        <time>2021-09-05T08:42:38Z</time>
      </trkpt>
      <trkpt lat="42.641825" lon="0.438675">
        <ele>2871.000000</ele>
        <time>2021-09-05T08:42:39Z</time>
      </trkpt>
      <trkpt lat="42.641820" lon="0.438676">
        <ele>2871.000000</ele>
        <time>2021-09-05T08:42:40Z</time>
      </trkpt>
      <trkpt lat="42.641815" lon="0.438678">
        <ele>2871.000000</ele>
        <time>2021-09-05T08:42:41Z</time>
      </trkpt>
      <trkpt lat="42.641812" lon="0.438680">
        <ele>2871.000000</ele>
        <time>2021-09-05T08:42:43Z</time>
      </trkpt>
      <trkpt lat="42.641803" lon="0.438684">
        <ele>2871.000000</ele>
        <time>2021-09-05T08:42:44Z</time>
      </trkpt>
      <trkpt lat="42.641797" lon="0.438685">
        <ele>2871.000000</ele>
        <time>2021-09-05T08:42:45Z</time>
      </trkpt>
      <trkpt lat="42.641790" lon="0.438685">
        <ele>2870.000000</ele>
        <time>2021-09-05T08:42:47Z</time>
      </trkpt>
      <trkpt lat="42.641785" lon="0.438683">
        <ele>2870.000000</ele>
        <time>2021-09-05T08:42:48Z</time>
      </trkpt>
      <trkpt lat="42.641783" lon="0.438672">
        <ele>2870.000000</ele>
        <time>2021-09-05T08:42:49Z</time>
      </trkpt>
      <trkpt lat="42.641785" lon="0.438668">
        <ele>2870.000000</ele>
        <time>2021-09-05T08:42:49Z</time>
      </trkpt>
      <trkpt lat="42.641783" lon="0.438673">
        <ele>2870.000000</ele>
        <time>2021-09-05T08:42:51Z</time>
      </trkpt>
      <trkpt lat="42.641777" lon="0.438675">
        <ele>2870.000000</ele>
        <time>2021-09-05T08:42:52Z</time>
      </trkpt>
      <trkpt lat="42.641770" lon="0.438677">
        <ele>2870.000000</ele>
        <time>2021-09-05T08:42:53Z</time>
      </trkpt>
      <trkpt lat="42.641767" lon="0.438677">
        <ele>2869.000000</ele>
        <time>2021-09-05T08:42:54Z</time>
      </trkpt>
      <trkpt lat="42.641758" lon="0.438681">
        <ele>2869.000000</ele>
        <time>2021-09-05T08:42:55Z</time>
      </trkpt>
      <trkpt lat="42.641755" lon="0.438681">
        <ele>2869.000000</ele>
        <time>2021-09-05T08:42:56Z</time>
      </trkpt>
      <trkpt lat="42.641745" lon="0.438678">
        <ele>2869.000000</ele>
        <time>2021-09-05T08:42:57Z</time>
      </trkpt>
      <trkpt lat="42.641738" lon="0.438676">
        <ele>2868.000000</ele>
        <time>2021-09-05T08:42:59Z</time>
      </trkpt>
      <trkpt lat="42.641732" lon="0.438674">
        <ele>2868.000000</ele>
        <time>2021-09-05T08:42:59Z</time>
      </trkpt>
      <trkpt lat="42.641728" lon="0.438674">
        <ele>2868.000000</ele>
        <time>2021-09-05T08:43:00Z</time>
      </trkpt>
      <trkpt lat="42.641725" lon="0.438675">
        <ele>2868.000000</ele>
        <time>2021-09-05T08:43:01Z</time>
      </trkpt>
      <trkpt lat="42.641725" lon="0.438677">
        <ele>2867.000000</ele>
        <time>2021-09-05T08:43:02Z</time>
      </trkpt>
      <trkpt lat="42.641717" lon="0.438687">
        <ele>2867.000000</ele>
        <time>2021-09-05T08:43:04Z</time>
      </trkpt>
      <trkpt lat="42.641708" lon="0.438688">
        <ele>2867.000000</ele>
        <time>2021-09-05T08:43:05Z</time>
      </trkpt>
      <trkpt lat="42.641703" lon="0.438690">
        <ele>2866.000000</ele>
        <time>2021-09-05T08:43:06Z</time>
      </trkpt>
      <trkpt lat="42.641698" lon="0.438690">
        <ele>2866.000000</ele>
        <time>2021-09-05T08:43:07Z</time>
      </trkpt>
      <trkpt lat="42.641690" lon="0.438691">
        <ele>2865.000000</ele>
        <time>2021-09-05T08:43:08Z</time>
      </trkpt>
      <trkpt lat="42.641683" lon="0.438690">
        <ele>2865.000000</ele>
        <time>2021-09-05T08:43:09Z</time>
      </trkpt>
      <trkpt lat="42.641678" lon="0.438689">
        <ele>2864.000000</ele>
        <time>2021-09-05T08:43:11Z</time>
      </trkpt>
      <trkpt lat="42.641673" lon="0.438688">
        <ele>2863.000000</ele>
        <time>2021-09-05T08:43:12Z</time>
      </trkpt>
      <trkpt lat="42.641668" lon="0.438689">
        <ele>2863.000000</ele>
        <time>2021-09-05T08:43:13Z</time>
      </trkpt>
      <trkpt lat="42.641663" lon="0.438689">
        <ele>2862.000000</ele>
        <time>2021-09-05T08:43:14Z</time>
      </trkpt>
      <trkpt lat="42.641652" lon="0.438688">
        <ele>2862.000000</ele>
        <time>2021-09-05T08:43:15Z</time>
      </trkpt>
      <trkpt lat="42.641643" lon="0.438682">
        <ele>2861.000000</ele>
        <time>2021-09-05T08:43:16Z</time>
      </trkpt>
      <trkpt lat="42.641637" lon="0.438677">
        <ele>2861.000000</ele>
        <time>2021-09-05T08:43:17Z</time>
      </trkpt>
      <trkpt lat="42.641632" lon="0.438669">
        <ele>2861.000000</ele>
        <time>2021-09-05T08:43:18Z</time>
      </trkpt>
      <trkpt lat="42.641632" lon="0.438666">
        <ele>2861.000000</ele>
        <time>2021-09-05T08:43:19Z</time>
      </trkpt>
      <trkpt lat="42.641633" lon="0.438658">
        <ele>2861.000000</ele>
        <time>2021-09-05T08:43:20Z</time>
      </trkpt>
      <trkpt lat="42.641635" lon="0.438651">
        <ele>2861.000000</ele>
        <time>2021-09-05T08:43:21Z</time>
      </trkpt>
      <trkpt lat="42.641635" lon="0.438649">
        <ele>2861.000000</ele>
        <time>2021-09-05T08:43:23Z</time>
      </trkpt>
      <trkpt lat="42.641630" lon="0.438647">
        <ele>2861.000000</ele>
        <time>2021-09-05T08:43:24Z</time>
      </trkpt>
      <trkpt lat="42.641633" lon="0.438649">
        <ele>2861.000000</ele>
        <time>2021-09-05T08:43:26Z</time>
      </trkpt>
      <trkpt lat="42.641630" lon="0.438643">
        <ele>2861.000000</ele>
        <time>2021-09-05T08:43:27Z</time>
      </trkpt>
      <trkpt lat="42.641628" lon="0.438647">
        <ele>2861.000000</ele>
        <time>2021-09-05T08:43:28Z</time>
      </trkpt>
      <trkpt lat="42.641626" lon="0.438652">
        <ele>2861.000000</ele>
        <time>2021-09-05T08:43:29Z</time>
      </trkpt>
      <trkpt lat="42.641618" lon="0.438653">
        <ele>2861.000000</ele>
        <time>2021-09-05T08:43:31Z</time>
      </trkpt>
      <trkpt lat="42.641613" lon="0.438655">
        <ele>2860.000000</ele>
        <time>2021-09-05T08:43:32Z</time>
      </trkpt>
      <trkpt lat="42.641607" lon="0.438658">
        <ele>2860.000000</ele>
        <time>2021-09-05T08:43:33Z</time>
      </trkpt>
      <trkpt lat="42.641600" lon="0.438657">
        <ele>2860.000000</ele>
        <time>2021-09-05T08:43:34Z</time>
      </trkpt>
      <trkpt lat="42.641592" lon="0.438655">
        <ele>2859.000000</ele>
        <time>2021-09-05T08:43:35Z</time>
      </trkpt>
      <trkpt lat="42.641585" lon="0.438658">
        <ele>2859.000000</ele>
        <time>2021-09-05T08:43:36Z</time>
      </trkpt>
      <trkpt lat="42.641577" lon="0.438662">
        <ele>2859.000000</ele>
        <time>2021-09-05T08:43:37Z</time>
      </trkpt>
      <trkpt lat="42.641568" lon="0.438660">
        <ele>2859.000000</ele>
        <time>2021-09-05T08:43:38Z</time>
      </trkpt>
      <trkpt lat="42.641570" lon="0.438660">
        <ele>2858.000000</ele>
        <time>2021-09-05T08:43:39Z</time>
      </trkpt>
      <trkpt lat="42.641568" lon="0.438662">
        <ele>2858.000000</ele>
        <time>2021-09-05T08:43:40Z</time>
      </trkpt>
      <trkpt lat="42.641567" lon="0.438665">
        <ele>2858.000000</ele>
        <time>2021-09-05T08:43:41Z</time>
      </trkpt>
      <trkpt lat="42.641563" lon="0.438670">
        <ele>2858.000000</ele>
        <time>2021-09-05T08:43:42Z</time>
      </trkpt>
      <trkpt lat="42.641560" lon="0.438682">
        <ele>2857.000000</ele>
        <time>2021-09-05T08:43:43Z</time>
      </trkpt>
      <trkpt lat="42.641553" lon="0.438685">
        <ele>2857.000000</ele>
        <time>2021-09-05T08:43:44Z</time>
      </trkpt>
      <trkpt lat="42.641545" lon="0.438687">
        <ele>2857.000000</ele>
        <time>2021-09-05T08:43:45Z</time>
      </trkpt>
      <trkpt lat="42.641540" lon="0.438688">
        <ele>2856.000000</ele>
        <time>2021-09-05T08:43:46Z</time>
      </trkpt>
      <trkpt lat="42.641538" lon="0.438687">
        <ele>2856.000000</ele>
        <time>2021-09-05T08:43:47Z</time>
      </trkpt>
      <trkpt lat="42.641535" lon="0.438688">
        <ele>2856.000000</ele>
        <time>2021-09-05T08:43:48Z</time>
      </trkpt>
      <trkpt lat="42.641532" lon="0.438688">
        <ele>2856.000000</ele>
        <time>2021-09-05T08:43:49Z</time>
      </trkpt>
      <trkpt lat="42.641528" lon="0.438694">
        <ele>2856.000000</ele>
        <time>2021-09-05T08:43:50Z</time>
      </trkpt>
      <trkpt lat="42.641525" lon="0.438702">
        <ele>2856.000000</ele>
        <time>2021-09-05T08:43:51Z</time>
      </trkpt>
      <trkpt lat="42.641525" lon="0.438703">
        <ele>2856.000000</ele>
        <time>2021-09-05T08:43:52Z</time>
      </trkpt>
      <trkpt lat="42.641520" lon="0.438705">
        <ele>2856.000000</ele>
        <time>2021-09-05T08:43:53Z</time>
      </trkpt>
      <trkpt lat="42.641513" lon="0.438704">
        <ele>2856.000000</ele>
        <time>2021-09-05T08:43:54Z</time>
      </trkpt>
      <trkpt lat="42.641505" lon="0.438702">
        <ele>2856.000000</ele>
        <time>2021-09-05T08:43:55Z</time>
      </trkpt>
      <trkpt lat="42.641500" lon="0.438700">
        <ele>2856.000000</ele>
        <time>2021-09-05T08:43:56Z</time>
      </trkpt>
      <trkpt lat="42.641497" lon="0.438703">
        <ele>2856.000000</ele>
        <time>2021-09-05T08:43:57Z</time>
      </trkpt>
      <trkpt lat="42.641495" lon="0.438706">
        <ele>2856.000000</ele>
        <time>2021-09-05T08:43:58Z</time>
      </trkpt>
      <trkpt lat="42.641492" lon="0.438710">
        <ele>2856.000000</ele>
        <time>2021-09-05T08:43:59Z</time>
      </trkpt>
      <trkpt lat="42.641490" lon="0.438716">
        <ele>2856.000000</ele>
        <time>2021-09-05T08:44:00Z</time>
      </trkpt>
      <trkpt lat="42.641482" lon="0.438725">
        <ele>2856.000000</ele>
        <time>2021-09-05T08:44:01Z</time>
      </trkpt>
      <trkpt lat="42.641477" lon="0.438735">
        <ele>2856.000000</ele>
        <time>2021-09-05T08:44:02Z</time>
      </trkpt>
      <trkpt lat="42.641472" lon="0.438747">
        <ele>2856.000000</ele>
        <time>2021-09-05T08:44:03Z</time>
      </trkpt>
      <trkpt lat="42.641468" lon="0.438755">
        <ele>2856.000000</ele>
        <time>2021-09-05T08:44:04Z</time>
      </trkpt>
      <trkpt lat="42.641462" lon="0.438766">
        <ele>2855.000000</ele>
        <time>2021-09-05T08:44:06Z</time>
      </trkpt>
      <trkpt lat="42.641455" lon="0.438777">
        <ele>2855.000000</ele>
        <time>2021-09-05T08:44:06Z</time>
      </trkpt>
      <trkpt lat="42.641445" lon="0.438787">
        <ele>2855.000000</ele>
        <time>2021-09-05T08:44:07Z</time>
      </trkpt>
      <trkpt lat="42.641427" lon="0.438795">
        <ele>2855.000000</ele>
        <time>2021-09-05T08:44:08Z</time>
      </trkpt>
      <trkpt lat="42.641415" lon="0.438797">
        <ele>2855.000000</ele>
        <time>2021-09-05T08:44:09Z</time>
      </trkpt>
      <trkpt lat="42.641407" lon="0.438796">
        <ele>2855.000000</ele>
        <time>2021-09-05T08:44:10Z</time>
      </trkpt>
      <trkpt lat="42.641400" lon="0.438792">
        <ele>2855.000000</ele>
        <time>2021-09-05T08:44:11Z</time>
      </trkpt>
      <trkpt lat="42.641392" lon="0.438790">
        <ele>2855.000000</ele>
        <time>2021-09-05T08:44:12Z</time>
      </trkpt>
      <trkpt lat="42.641387" lon="0.438785">
        <ele>2855.000000</ele>
        <time>2021-09-05T08:44:13Z</time>
      </trkpt>
      <trkpt lat="42.641387" lon="0.438782">
        <ele>2855.000000</ele>
        <time>2021-09-05T08:44:14Z</time>
      </trkpt>
      <trkpt lat="42.641388" lon="0.438770">
        <ele>2855.000000</ele>
        <time>2021-09-05T08:44:15Z</time>
      </trkpt>
      <trkpt lat="42.641388" lon="0.438768">
        <ele>2855.000000</ele>
        <time>2021-09-05T08:44:16Z</time>
      </trkpt>
      <trkpt lat="42.641385" lon="0.438773">
        <ele>2855.000000</ele>
        <time>2021-09-05T08:44:17Z</time>
      </trkpt>
      <trkpt lat="42.641383" lon="0.438769">
        <ele>2855.000000</ele>
        <time>2021-09-05T08:44:18Z</time>
      </trkpt>
      <trkpt lat="42.641380" lon="0.438772">
        <ele>2855.000000</ele>
        <time>2021-09-05T08:44:19Z</time>
      </trkpt>
      <trkpt lat="42.641377" lon="0.438779">
        <ele>2855.000000</ele>
        <time>2021-09-05T08:44:20Z</time>
      </trkpt>
      <trkpt lat="42.641372" lon="0.438786">
        <ele>2855.000000</ele>
        <time>2021-09-05T08:44:21Z</time>
      </trkpt>
      <trkpt lat="42.641370" lon="0.438790">
        <ele>2855.000000</ele>
        <time>2021-09-05T08:44:22Z</time>
      </trkpt>
      <trkpt lat="42.641368" lon="0.438794">
        <ele>2855.000000</ele>
        <time>2021-09-05T08:44:23Z</time>
      </trkpt>
      <trkpt lat="42.641360" lon="0.438805">
        <ele>2855.000000</ele>
        <time>2021-09-05T08:44:24Z</time>
      </trkpt>
      <trkpt lat="42.641350" lon="0.438811">
        <ele>2855.000000</ele>
        <time>2021-09-05T08:44:25Z</time>
      </trkpt>
      <trkpt lat="42.641342" lon="0.438813">
        <ele>2855.000000</ele>
        <time>2021-09-05T08:44:26Z</time>
      </trkpt>
      <trkpt lat="42.641330" lon="0.438798">
        <ele>2855.000000</ele>
        <time>2021-09-05T08:44:27Z</time>
      </trkpt>
      <trkpt lat="42.641320" lon="0.438800">
        <ele>2855.000000</ele>
        <time>2021-09-05T08:44:28Z</time>
      </trkpt>
      <trkpt lat="42.641312" lon="0.438803">
        <ele>2855.000000</ele>
        <time>2021-09-05T08:44:30Z</time>
      </trkpt>
      <trkpt lat="42.641302" lon="0.438801">
        <ele>2855.000000</ele>
        <time>2021-09-05T08:44:30Z</time>
      </trkpt>
      <trkpt lat="42.641288" lon="0.438805">
        <ele>2853.000000</ele>
        <time>2021-09-05T08:44:31Z</time>
      </trkpt>
      <trkpt lat="42.641277" lon="0.438807">
        <ele>2853.000000</ele>
        <time>2021-09-05T08:44:32Z</time>
      </trkpt>
      <trkpt lat="42.641268" lon="0.438806">
        <ele>2853.000000</ele>
        <time>2021-09-05T08:44:33Z</time>
      </trkpt>
      <trkpt lat="42.641258" lon="0.438805">
        <ele>2853.000000</ele>
        <time>2021-09-05T08:44:34Z</time>
      </trkpt>
      <trkpt lat="42.641250" lon="0.438806">
        <ele>2853.000000</ele>
        <time>2021-09-05T08:44:35Z</time>
      </trkpt>
      <trkpt lat="42.641252" lon="0.438806">
        <ele>2853.000000</ele>
        <time>2021-09-05T08:44:37Z</time>
      </trkpt>
      <trkpt lat="42.641257" lon="0.438807">
        <ele>2853.000000</ele>
        <time>2021-09-05T08:44:39Z</time>
      </trkpt>
      <trkpt lat="42.641258" lon="0.438809">
        <ele>2853.000000</ele>
        <time>2021-09-05T08:44:40Z</time>
      </trkpt>
      <trkpt lat="42.641253" lon="0.438812">
        <ele>2853.000000</ele>
        <time>2021-09-05T08:44:41Z</time>
      </trkpt>
      <trkpt lat="42.641253" lon="0.438843">
        <ele>2853.000000</ele>
        <time>2021-09-05T08:44:42Z</time>
      </trkpt>
      <trkpt lat="42.641250" lon="0.438857">
        <ele>2853.000000</ele>
        <time>2021-09-05T08:44:43Z</time>
      </trkpt>
      <trkpt lat="42.641247" lon="0.438862">
        <ele>2853.000000</ele>
        <time>2021-09-05T08:44:44Z</time>
      </trkpt>
      <trkpt lat="42.641243" lon="0.438863">
        <ele>2853.000000</ele>
        <time>2021-09-05T08:44:45Z</time>
      </trkpt>
      <trkpt lat="42.641238" lon="0.438861">
        <ele>2852.000000</ele>
        <time>2021-09-05T08:44:46Z</time>
      </trkpt>
      <trkpt lat="42.641237" lon="0.438858">
        <ele>2852.000000</ele>
        <time>2021-09-05T08:44:47Z</time>
      </trkpt>
      <trkpt lat="42.641235" lon="0.438854">
        <ele>2851.000000</ele>
        <time>2021-09-05T08:44:48Z</time>
      </trkpt>
      <trkpt lat="42.641233" lon="0.438845">
        <ele>2851.000000</ele>
        <time>2021-09-05T08:44:49Z</time>
      </trkpt>
      <trkpt lat="42.641232" lon="0.438846">
        <ele>2850.000000</ele>
        <time>2021-09-05T08:44:51Z</time>
      </trkpt>
      <trkpt lat="42.641233" lon="0.438847">
        <ele>2850.000000</ele>
        <time>2021-09-05T08:44:52Z</time>
      </trkpt>
      <trkpt lat="42.641158" lon="0.438957">
        <ele>2849.000000</ele>
        <time>2021-09-05T08:45:15Z</time>
      </trkpt>
      <trkpt lat="42.641150" lon="0.438963">
        <ele>2849.000000</ele>
        <time>2021-09-05T08:45:16Z</time>
      </trkpt>
      <trkpt lat="42.641142" lon="0.438968">
        <ele>2848.000000</ele>
        <time>2021-09-05T08:45:17Z</time>
      </trkpt>
      <trkpt lat="42.641138" lon="0.438972">
        <ele>2848.000000</ele>
        <time>2021-09-05T08:45:18Z</time>
      </trkpt>
      <trkpt lat="42.641138" lon="0.438976">
        <ele>2848.000000</ele>
        <time>2021-09-05T08:45:19Z</time>
      </trkpt>
      <trkpt lat="42.641143" lon="0.438987">
        <ele>2848.000000</ele>
        <time>2021-09-05T08:45:20Z</time>
      </trkpt>
      <trkpt lat="42.641143" lon="0.438993">
        <ele>2847.000000</ele>
        <time>2021-09-05T08:45:21Z</time>
      </trkpt>
      <trkpt lat="42.641145" lon="0.439002">
        <ele>2847.000000</ele>
        <time>2021-09-05T08:45:22Z</time>
      </trkpt>
      <trkpt lat="42.641140" lon="0.439005">
        <ele>2847.000000</ele>
        <time>2021-09-05T08:45:23Z</time>
      </trkpt>
      <trkpt lat="42.641135" lon="0.439008">
        <ele>2847.000000</ele>
        <time>2021-09-05T08:45:24Z</time>
      </trkpt>
      <trkpt lat="42.641138" lon="0.439005">
        <ele>2846.000000</ele>
        <time>2021-09-05T08:45:25Z</time>
      </trkpt>
      <trkpt lat="42.641133" lon="0.439008">
        <ele>2846.000000</ele>
        <time>2021-09-05T08:45:26Z</time>
      </trkpt>
      <trkpt lat="42.641136" lon="0.439005">
        <ele>2846.000000</ele>
        <time>2021-09-05T08:45:27Z</time>
      </trkpt>
      <trkpt lat="42.641131" lon="0.439008">
        <ele>2845.000000</ele>
        <time>2021-09-05T08:45:28Z</time>
      </trkpt>
      <trkpt lat="42.641125" lon="0.439015">
        <ele>2845.000000</ele>
        <time>2021-09-05T08:45:29Z</time>
      </trkpt>
      <trkpt lat="42.641118" lon="0.439023">
        <ele>2845.000000</ele>
        <time>2021-09-05T08:45:30Z</time>
      </trkpt>
      <trkpt lat="42.641113" lon="0.439025">
        <ele>2844.000000</ele>
        <time>2021-09-05T08:45:31Z</time>
      </trkpt>
      <trkpt lat="42.641105" lon="0.439032">
        <ele>2844.000000</ele>
        <time>2021-09-05T08:45:32Z</time>
      </trkpt>
      <trkpt lat="42.641100" lon="0.439038">
        <ele>2844.000000</ele>
        <time>2021-09-05T08:45:33Z</time>
      </trkpt>
      <trkpt lat="42.641093" lon="0.439045">
        <ele>2843.000000</ele>
        <time>2021-09-05T08:45:35Z</time>
      </trkpt>
      <trkpt lat="42.641083" lon="0.439051">
        <ele>2843.000000</ele>
        <time>2021-09-05T08:45:35Z</time>
      </trkpt>
      <trkpt lat="42.641075" lon="0.439052">
        <ele>2843.000000</ele>
        <time>2021-09-05T08:45:36Z</time>
      </trkpt>
      <trkpt lat="42.641068" lon="0.439047">
        <ele>2842.000000</ele>
        <time>2021-09-05T08:45:38Z</time>
      </trkpt>
      <trkpt lat="42.641072" lon="0.439047">
        <ele>2842.000000</ele>
        <time>2021-09-05T08:45:39Z</time>
      </trkpt>
      <trkpt lat="42.641075" lon="0.439048">
        <ele>2841.000000</ele>
        <time>2021-09-05T08:45:40Z</time>
      </trkpt>
      <trkpt lat="42.641075" lon="0.439050">
        <ele>2841.000000</ele>
        <time>2021-09-05T08:45:41Z</time>
      </trkpt>
      <trkpt lat="42.641072" lon="0.439050">
        <ele>2841.000000</ele>
        <time>2021-09-05T08:45:42Z</time>
      </trkpt>
      <trkpt lat="42.641068" lon="0.439063">
        <ele>2841.000000</ele>
        <time>2021-09-05T08:45:43Z</time>
      </trkpt>
      <trkpt lat="42.641067" lon="0.439077">
        <ele>2841.000000</ele>
        <time>2021-09-05T08:45:44Z</time>
      </trkpt>
      <trkpt lat="42.641060" lon="0.439082">
        <ele>2840.000000</ele>
        <time>2021-09-05T08:45:45Z</time>
      </trkpt>
      <trkpt lat="42.641055" lon="0.439087">
        <ele>2840.000000</ele>
        <time>2021-09-05T08:45:46Z</time>
      </trkpt>
      <trkpt lat="42.641048" lon="0.439090">
        <ele>2840.000000</ele>
        <time>2021-09-05T08:45:47Z</time>
      </trkpt>
      <trkpt lat="42.641045" lon="0.439093">
        <ele>2840.000000</ele>
        <time>2021-09-05T08:45:48Z</time>
      </trkpt>
      <trkpt lat="42.641043" lon="0.439096">
        <ele>2840.000000</ele>
        <time>2021-09-05T08:45:49Z</time>
      </trkpt>
      <trkpt lat="42.641040" lon="0.439108">
        <ele>2839.000000</ele>
        <time>2021-09-05T08:45:50Z</time>
      </trkpt>
      <trkpt lat="42.641032" lon="0.439121">
        <ele>2839.000000</ele>
        <time>2021-09-05T08:45:51Z</time>
      </trkpt>
      <trkpt lat="42.641020" lon="0.439133">
        <ele>2839.000000</ele>
        <time>2021-09-05T08:45:52Z</time>
      </trkpt>
      <trkpt lat="42.641012" lon="0.439141">
        <ele>2838.000000</ele>
        <time>2021-09-05T08:45:53Z</time>
      </trkpt>
      <trkpt lat="42.641007" lon="0.439145">
        <ele>2838.000000</ele>
        <time>2021-09-05T08:45:54Z</time>
      </trkpt>
      <trkpt lat="42.640997" lon="0.439152">
        <ele>2838.000000</ele>
        <time>2021-09-05T08:45:55Z</time>
      </trkpt>
      <trkpt lat="42.640987" lon="0.439159">
        <ele>2838.000000</ele>
        <time>2021-09-05T08:45:56Z</time>
      </trkpt>
      <trkpt lat="42.640980" lon="0.439162">
        <ele>2837.000000</ele>
        <time>2021-09-05T08:45:58Z</time>
      </trkpt>
      <trkpt lat="42.640972" lon="0.439167">
        <ele>2837.000000</ele>
        <time>2021-09-05T08:45:58Z</time>
      </trkpt>
      <trkpt lat="42.640960" lon="0.439174">
        <ele>2837.000000</ele>
        <time>2021-09-05T08:45:59Z</time>
      </trkpt>
      <trkpt lat="42.640947" lon="0.439182">
        <ele>2837.000000</ele>
        <time>2021-09-05T08:46:00Z</time>
      </trkpt>
      <trkpt lat="42.640938" lon="0.439184">
        <ele>2837.000000</ele>
        <time>2021-09-05T08:46:01Z</time>
      </trkpt>
      <trkpt lat="42.640927" lon="0.439186">
        <ele>2837.000000</ele>
        <time>2021-09-05T08:46:02Z</time>
      </trkpt>
      <trkpt lat="42.640912" lon="0.439167">
        <ele>2837.000000</ele>
        <time>2021-09-05T08:46:03Z</time>
      </trkpt>
      <trkpt lat="42.640902" lon="0.439168">
        <ele>2837.000000</ele>
        <time>2021-09-05T08:46:04Z</time>
      </trkpt>
      <trkpt lat="42.640890" lon="0.439167">
        <ele>2836.000000</ele>
        <time>2021-09-05T08:46:05Z</time>
      </trkpt>
      <trkpt lat="42.640878" lon="0.439167">
        <ele>2836.000000</ele>
        <time>2021-09-05T08:46:06Z</time>
      </trkpt>
      <trkpt lat="42.640863" lon="0.439169">
        <ele>2836.000000</ele>
        <time>2021-09-05T08:46:07Z</time>
      </trkpt>
      <trkpt lat="42.640847" lon="0.439168">
        <ele>2835.000000</ele>
        <time>2021-09-05T08:46:08Z</time>
      </trkpt>
      <trkpt lat="42.640833" lon="0.439167">
        <ele>2835.000000</ele>
        <time>2021-09-05T08:46:09Z</time>
      </trkpt>
      <trkpt lat="42.640822" lon="0.439168">
        <ele>2835.000000</ele>
        <time>2021-09-05T08:46:10Z</time>
      </trkpt>
      <trkpt lat="42.640810" lon="0.439168">
        <ele>2834.000000</ele>
        <time>2021-09-05T08:46:11Z</time>
      </trkpt>
      <trkpt lat="42.640797" lon="0.439167">
        <ele>2834.000000</ele>
        <time>2021-09-05T08:46:12Z</time>
      </trkpt>
      <trkpt lat="42.640790" lon="0.439166">
        <ele>2834.000000</ele>
        <time>2021-09-05T08:46:13Z</time>
      </trkpt>
      <trkpt lat="42.640782" lon="0.439167">
        <ele>2833.000000</ele>
        <time>2021-09-05T08:46:14Z</time>
      </trkpt>
      <trkpt lat="42.640773" lon="0.439167">
        <ele>2832.000000</ele>
        <time>2021-09-05T08:46:15Z</time>
      </trkpt>
      <trkpt lat="42.640763" lon="0.439167">
        <ele>2831.000000</ele>
        <time>2021-09-05T08:46:16Z</time>
      </trkpt>
      <trkpt lat="42.640760" lon="0.439167">
        <ele>2831.000000</ele>
        <time>2021-09-05T08:46:17Z</time>
      </trkpt>
      <trkpt lat="42.640758" lon="0.439166">
        <ele>2830.000000</ele>
        <time>2021-09-05T08:46:18Z</time>
      </trkpt>
      <trkpt lat="42.640755" lon="0.439165">
        <ele>2830.000000</ele>
        <time>2021-09-05T08:46:19Z</time>
      </trkpt>
      <trkpt lat="42.640757" lon="0.439164">
        <ele>2832.000000</ele>
        <time>2021-09-05T08:46:20Z</time>
      </trkpt>
      <trkpt lat="42.640760" lon="0.439163">
        <ele>2832.000000</ele>
        <time>2021-09-05T08:46:22Z</time>
      </trkpt>
      <trkpt lat="42.640767" lon="0.439152">
        <ele>2834.000000</ele>
        <time>2021-09-05T08:46:26Z</time>
      </trkpt>
      <trkpt lat="42.640773" lon="0.439148">
        <ele>2834.000000</ele>
        <time>2021-09-05T08:46:27Z</time>
      </trkpt>
      <trkpt lat="42.640775" lon="0.439147">
        <ele>2834.000000</ele>
        <time>2021-09-05T08:46:28Z</time>
      </trkpt>
      <trkpt lat="42.640778" lon="0.439147">
        <ele>2834.000000</ele>
        <time>2021-09-05T08:46:29Z</time>
      </trkpt>
      <trkpt lat="42.640785" lon="0.439149">
        <ele>2835.000000</ele>
        <time>2021-09-05T08:46:30Z</time>
      </trkpt>
      <trkpt lat="42.640767" lon="0.439150">
        <ele>2835.000000</ele>
        <time>2021-09-05T08:46:31Z</time>
      </trkpt>
      <trkpt lat="42.640737" lon="0.439157">
        <ele>2832.000000</ele>
        <time>2021-09-05T08:47:00Z</time>
      </trkpt>
      <trkpt lat="42.640727" lon="0.439165">
        <ele>2832.000000</ele>
        <time>2021-09-05T08:47:01Z</time>
      </trkpt>
      <trkpt lat="42.640722" lon="0.439170">
        <ele>2832.000000</ele>
        <time>2021-09-05T08:47:02Z</time>
      </trkpt>
      <trkpt lat="42.640710" lon="0.439177">
        <ele>2831.000000</ele>
        <time>2021-09-05T08:47:03Z</time>
      </trkpt>
      <trkpt lat="42.640703" lon="0.439184">
        <ele>2831.000000</ele>
        <time>2021-09-05T08:47:04Z</time>
      </trkpt>
      <trkpt lat="42.640702" lon="0.439186">
        <ele>2831.000000</ele>
        <time>2021-09-05T08:47:05Z</time>
      </trkpt>
      <trkpt lat="42.640703" lon="0.439186">
        <ele>2831.000000</ele>
        <time>2021-09-05T08:47:05Z</time>
      </trkpt>
      <trkpt lat="42.640703" lon="0.439189">
        <ele>2831.000000</ele>
        <time>2021-09-05T08:47:06Z</time>
      </trkpt>
      <trkpt lat="42.640710" lon="0.439208">
        <ele>2831.000000</ele>
        <time>2021-09-05T08:47:07Z</time>
      </trkpt>
      <trkpt lat="42.640707" lon="0.439217">
        <ele>2831.000000</ele>
        <time>2021-09-05T08:47:08Z</time>
      </trkpt>
      <trkpt lat="42.640702" lon="0.439227">
        <ele>2831.000000</ele>
        <time>2021-09-05T08:47:09Z</time>
      </trkpt>
      <trkpt lat="42.640695" lon="0.439233">
        <ele>2831.000000</ele>
        <time>2021-09-05T08:47:10Z</time>
      </trkpt>
      <trkpt lat="42.640688" lon="0.439243">
        <ele>2831.000000</ele>
        <time>2021-09-05T08:47:11Z</time>
      </trkpt>
      <trkpt lat="42.640681" lon="0.439250">
        <ele>2830.000000</ele>
        <time>2021-09-05T08:47:12Z</time>
      </trkpt>
      <trkpt lat="42.640677" lon="0.439257">
        <ele>2830.000000</ele>
        <time>2021-09-05T08:47:13Z</time>
      </trkpt>
      <trkpt lat="42.640675" lon="0.439263">
        <ele>2830.000000</ele>
        <time>2021-09-05T08:47:14Z</time>
      </trkpt>
      <trkpt lat="42.640670" lon="0.439275">
        <ele>2830.000000</ele>
        <time>2021-09-05T08:47:15Z</time>
      </trkpt>
      <trkpt lat="42.640664" lon="0.439283">
        <ele>2830.000000</ele>
        <time>2021-09-05T08:47:16Z</time>
      </trkpt>
      <trkpt lat="42.640658" lon="0.439288">
        <ele>2830.000000</ele>
        <time>2021-09-05T08:47:17Z</time>
      </trkpt>
      <trkpt lat="42.640651" lon="0.439298">
        <ele>2830.000000</ele>
        <time>2021-09-05T08:47:18Z</time>
      </trkpt>
      <trkpt lat="42.640646" lon="0.439308">
        <ele>2830.000000</ele>
        <time>2021-09-05T08:47:19Z</time>
      </trkpt>
      <trkpt lat="42.640644" lon="0.439318">
        <ele>2830.000000</ele>
        <time>2021-09-05T08:47:20Z</time>
      </trkpt>
      <trkpt lat="42.640650" lon="0.439325">
        <ele>2830.000000</ele>
        <time>2021-09-05T08:47:21Z</time>
      </trkpt>
      <trkpt lat="42.640645" lon="0.439337">
        <ele>2830.000000</ele>
        <time>2021-09-05T08:47:22Z</time>
      </trkpt>
      <trkpt lat="42.640638" lon="0.439345">
        <ele>2830.000000</ele>
        <time>2021-09-05T08:47:23Z</time>
      </trkpt>
      <trkpt lat="42.640633" lon="0.439350">
        <ele>2830.000000</ele>
        <time>2021-09-05T08:47:24Z</time>
      </trkpt>
      <trkpt lat="42.640625" lon="0.439358">
        <ele>2830.000000</ele>
        <time>2021-09-05T08:47:25Z</time>
      </trkpt>
      <trkpt lat="42.640620" lon="0.439362">
        <ele>2830.000000</ele>
        <time>2021-09-05T08:47:26Z</time>
      </trkpt>
      <trkpt lat="42.640610" lon="0.439362">
        <ele>2830.000000</ele>
        <time>2021-09-05T08:47:27Z</time>
      </trkpt>
      <trkpt lat="42.640603" lon="0.439360">
        <ele>2830.000000</ele>
        <time>2021-09-05T08:47:28Z</time>
      </trkpt>
      <trkpt lat="42.640600" lon="0.439358">
        <ele>2829.000000</ele>
        <time>2021-09-05T08:47:30Z</time>
      </trkpt>
      <trkpt lat="42.640597" lon="0.439363">
        <ele>2829.000000</ele>
        <time>2021-09-05T08:47:31Z</time>
      </trkpt>
      <trkpt lat="42.640588" lon="0.439370">
        <ele>2829.000000</ele>
        <time>2021-09-05T08:47:31Z</time>
      </trkpt>
      <trkpt lat="42.640582" lon="0.439377">
        <ele>2829.000000</ele>
        <time>2021-09-05T08:47:32Z</time>
      </trkpt>
      <trkpt lat="42.640573" lon="0.439382">
        <ele>2829.000000</ele>
        <time>2021-09-05T08:47:33Z</time>
      </trkpt>
      <trkpt lat="42.640565" lon="0.439390">
        <ele>2828.000000</ele>
        <time>2021-09-05T08:47:34Z</time>
      </trkpt>
      <trkpt lat="42.640557" lon="0.439398">
        <ele>2828.000000</ele>
        <time>2021-09-05T08:47:35Z</time>
      </trkpt>
      <trkpt lat="42.640548" lon="0.439405">
        <ele>2828.000000</ele>
        <time>2021-09-05T08:47:36Z</time>
      </trkpt>
      <trkpt lat="42.640538" lon="0.439416">
        <ele>2828.000000</ele>
        <time>2021-09-05T08:47:37Z</time>
      </trkpt>
      <trkpt lat="42.640528" lon="0.439423">
        <ele>2828.000000</ele>
        <time>2021-09-05T08:47:38Z</time>
      </trkpt>
      <trkpt lat="42.640515" lon="0.439427">
        <ele>2828.000000</ele>
        <time>2021-09-05T08:47:39Z</time>
      </trkpt>
      <trkpt lat="42.640505" lon="0.439430">
        <ele>2828.000000</ele>
        <time>2021-09-05T08:47:40Z</time>
      </trkpt>
      <trkpt lat="42.640495" lon="0.439432">
        <ele>2827.000000</ele>
        <time>2021-09-05T08:47:41Z</time>
      </trkpt>
      <trkpt lat="42.640485" lon="0.439435">
        <ele>2827.000000</ele>
        <time>2021-09-05T08:47:42Z</time>
      </trkpt>
      <trkpt lat="42.640478" lon="0.439437">
        <ele>2827.000000</ele>
        <time>2021-09-05T08:47:43Z</time>
      </trkpt>
      <trkpt lat="42.640470" lon="0.439441">
        <ele>2827.000000</ele>
        <time>2021-09-05T08:47:44Z</time>
      </trkpt>
      <trkpt lat="42.640462" lon="0.439442">
        <ele>2827.000000</ele>
        <time>2021-09-05T08:47:45Z</time>
      </trkpt>
      <trkpt lat="42.640452" lon="0.439441">
        <ele>2827.000000</ele>
        <time>2021-09-05T08:47:46Z</time>
      </trkpt>
      <trkpt lat="42.640447" lon="0.439440">
        <ele>2827.000000</ele>
        <time>2021-09-05T08:47:47Z</time>
      </trkpt>
      <trkpt lat="42.640440" lon="0.439439">
        <ele>2827.000000</ele>
        <time>2021-09-05T08:47:49Z</time>
      </trkpt>
      <trkpt lat="42.640432" lon="0.439441">
        <ele>2827.000000</ele>
        <time>2021-09-05T08:47:49Z</time>
      </trkpt>
      <trkpt lat="42.640427" lon="0.439442">
        <ele>2824.000000</ele>
        <time>2021-09-05T08:47:50Z</time>
      </trkpt>
      <trkpt lat="42.640422" lon="0.439445">
        <ele>2823.000000</ele>
        <time>2021-09-05T08:47:51Z</time>
      </trkpt>
      <trkpt lat="42.640415" lon="0.439447">
        <ele>2822.000000</ele>
        <time>2021-09-05T08:47:52Z</time>
      </trkpt>
      <trkpt lat="42.640412" lon="0.439448">
        <ele>2821.000000</ele>
        <time>2021-09-05T08:47:53Z</time>
      </trkpt>
      <trkpt lat="42.640405" lon="0.439449">
        <ele>2821.000000</ele>
        <time>2021-09-05T08:47:54Z</time>
      </trkpt>
      <trkpt lat="42.640398" lon="0.439451">
        <ele>2821.000000</ele>
        <time>2021-09-05T08:47:55Z</time>
      </trkpt>
      <trkpt lat="42.640388" lon="0.439454">
        <ele>2821.000000</ele>
        <time>2021-09-05T08:47:56Z</time>
      </trkpt>
      <trkpt lat="42.640382" lon="0.439454">
        <ele>2822.000000</ele>
        <time>2021-09-05T08:47:57Z</time>
      </trkpt>
      <trkpt lat="42.640378" lon="0.439455">
        <ele>2823.000000</ele>
        <time>2021-09-05T08:47:58Z</time>
      </trkpt>
      <trkpt lat="42.640373" lon="0.439455">
        <ele>2824.000000</ele>
        <time>2021-09-05T08:47:59Z</time>
      </trkpt>
      <trkpt lat="42.640372" lon="0.439456">
        <ele>2825.000000</ele>
        <time>2021-09-05T08:48:00Z</time>
      </trkpt>
      <trkpt lat="42.640367" lon="0.439458">
        <ele>2825.000000</ele>
        <time>2021-09-05T08:48:01Z</time>
      </trkpt>
      <trkpt lat="42.640365" lon="0.439462">
        <ele>2827.000000</ele>
        <time>2021-09-05T08:48:02Z</time>
      </trkpt>
      <trkpt lat="42.640363" lon="0.439467">
        <ele>2827.000000</ele>
        <time>2021-09-05T08:48:03Z</time>
      </trkpt>
      <trkpt lat="42.640358" lon="0.439473">
        <ele>2827.000000</ele>
        <time>2021-09-05T08:48:04Z</time>
      </trkpt>
      <trkpt lat="42.640353" lon="0.439478">
        <ele>2827.000000</ele>
        <time>2021-09-05T08:48:05Z</time>
      </trkpt>
      <trkpt lat="42.640347" lon="0.439480">
        <ele>2827.000000</ele>
        <time>2021-09-05T08:48:06Z</time>
      </trkpt>
      <trkpt lat="42.640340" lon="0.439481">
        <ele>2827.000000</ele>
        <time>2021-09-05T08:48:07Z</time>
      </trkpt>
      <trkpt lat="42.640332" lon="0.439478">
        <ele>2827.000000</ele>
        <time>2021-09-05T08:48:08Z</time>
      </trkpt>
      <trkpt lat="42.640323" lon="0.439477">
        <ele>2826.000000</ele>
        <time>2021-09-05T08:48:09Z</time>
      </trkpt>
      <trkpt lat="42.640315" lon="0.439478">
        <ele>2826.000000</ele>
        <time>2021-09-05T08:48:10Z</time>
      </trkpt>
      <trkpt lat="42.640305" lon="0.439481">
        <ele>2825.000000</ele>
        <time>2021-09-05T08:48:11Z</time>
      </trkpt>
      <trkpt lat="42.640297" lon="0.439485">
        <ele>2825.000000</ele>
        <time>2021-09-05T08:48:13Z</time>
      </trkpt>
      <trkpt lat="42.640290" lon="0.439489">
        <ele>2824.000000</ele>
        <time>2021-09-05T08:48:13Z</time>
      </trkpt>
      <trkpt lat="42.640287" lon="0.439490">
        <ele>2824.000000</ele>
        <time>2021-09-05T08:48:14Z</time>
      </trkpt>
      <trkpt lat="42.640278" lon="0.439494">
        <ele>2823.000000</ele>
        <time>2021-09-05T08:48:15Z</time>
      </trkpt>
      <trkpt lat="42.640270" lon="0.439498">
        <ele>2823.000000</ele>
        <time>2021-09-05T08:48:16Z</time>
      </trkpt>
      <trkpt lat="42.640263" lon="0.439501">
        <ele>2822.000000</ele>
        <time>2021-09-05T08:48:17Z</time>
      </trkpt>
      <trkpt lat="42.640255" lon="0.439505">
        <ele>2822.000000</ele>
        <time>2021-09-05T08:48:18Z</time>
      </trkpt>
      <trkpt lat="42.640250" lon="0.439507">
        <ele>2822.000000</ele>
        <time>2021-09-05T08:48:19Z</time>
      </trkpt>
      <trkpt lat="42.640245" lon="0.439509">
        <ele>2822.000000</ele>
        <time>2021-09-05T08:48:20Z</time>
      </trkpt>
      <trkpt lat="42.640242" lon="0.439510">
        <ele>2821.000000</ele>
        <time>2021-09-05T08:48:21Z</time>
      </trkpt>
      <trkpt lat="42.640238" lon="0.439512">
        <ele>2821.000000</ele>
        <time>2021-09-05T08:48:22Z</time>
      </trkpt>
      <trkpt lat="42.640238" lon="0.439513">
        <ele>2821.000000</ele>
        <time>2021-09-05T08:48:23Z</time>
      </trkpt>
      <trkpt lat="42.640232" lon="0.439517">
        <ele>2821.000000</ele>
        <time>2021-09-05T08:48:24Z</time>
      </trkpt>
      <trkpt lat="42.640225" lon="0.439522">
        <ele>2821.000000</ele>
        <time>2021-09-05T08:48:25Z</time>
      </trkpt>
      <trkpt lat="42.640218" lon="0.439526">
        <ele>2821.000000</ele>
        <time>2021-09-05T08:48:26Z</time>
      </trkpt>
      <trkpt lat="42.640212" lon="0.439529">
        <ele>2821.000000</ele>
        <time>2021-09-05T08:48:27Z</time>
      </trkpt>
      <trkpt lat="42.640205" lon="0.439532">
        <ele>2821.000000</ele>
        <time>2021-09-05T08:48:28Z</time>
      </trkpt>
      <trkpt lat="42.640197" lon="0.439536">
        <ele>2821.000000</ele>
        <time>2021-09-05T08:48:29Z</time>
      </trkpt>
      <trkpt lat="42.640192" lon="0.439537">
        <ele>2820.000000</ele>
        <time>2021-09-05T08:48:30Z</time>
      </trkpt>
      <trkpt lat="42.640183" lon="0.439538">
        <ele>2820.000000</ele>
        <time>2021-09-05T08:48:31Z</time>
      </trkpt>
      <trkpt lat="42.640175" lon="0.439538">
        <ele>2820.000000</ele>
        <time>2021-09-05T08:48:33Z</time>
      </trkpt>
      <trkpt lat="42.640170" lon="0.439537">
        <ele>2820.000000</ele>
        <time>2021-09-05T08:48:33Z</time>
      </trkpt>
      <trkpt lat="42.640167" lon="0.439537">
        <ele>2819.000000</ele>
        <time>2021-09-05T08:48:34Z</time>
      </trkpt>
      <trkpt lat="42.640162" lon="0.439535">
        <ele>2819.000000</ele>
        <time>2021-09-05T08:48:35Z</time>
      </trkpt>
      <trkpt lat="42.640158" lon="0.439535">
        <ele>2819.000000</ele>
        <time>2021-09-05T08:48:36Z</time>
      </trkpt>
      <trkpt lat="42.640157" lon="0.439534">
        <ele>2818.000000</ele>
        <time>2021-09-05T08:48:37Z</time>
      </trkpt>
      <trkpt lat="42.640152" lon="0.439534">
        <ele>2818.000000</ele>
        <time>2021-09-05T08:48:38Z</time>
      </trkpt>
      <trkpt lat="42.640148" lon="0.439534">
        <ele>2818.000000</ele>
        <time>2021-09-05T08:48:39Z</time>
      </trkpt>
      <trkpt lat="42.640140" lon="0.439538">
        <ele>2818.000000</ele>
        <time>2021-09-05T08:48:40Z</time>
      </trkpt>
      <trkpt lat="42.640133" lon="0.439542">
        <ele>2818.000000</ele>
        <time>2021-09-05T08:48:41Z</time>
      </trkpt>
      <trkpt lat="42.640127" lon="0.439545">
        <ele>2818.000000</ele>
        <time>2021-09-05T08:48:42Z</time>
      </trkpt>
      <trkpt lat="42.640122" lon="0.439557">
        <ele>2818.000000</ele>
        <time>2021-09-05T08:48:43Z</time>
      </trkpt>
      <trkpt lat="42.640117" lon="0.439567">
        <ele>2818.000000</ele>
        <time>2021-09-05T08:48:44Z</time>
      </trkpt>
      <trkpt lat="42.640112" lon="0.439578">
        <ele>2818.000000</ele>
        <time>2021-09-05T08:48:45Z</time>
      </trkpt>
      <trkpt lat="42.640108" lon="0.439593">
        <ele>2818.000000</ele>
        <time>2021-09-05T08:48:46Z</time>
      </trkpt>
      <trkpt lat="42.640100" lon="0.439607">
        <ele>2818.000000</ele>
        <time>2021-09-05T08:48:47Z</time>
      </trkpt>
      <trkpt lat="42.640095" lon="0.439615">
        <ele>2818.000000</ele>
        <time>2021-09-05T08:48:48Z</time>
      </trkpt>
      <trkpt lat="42.640085" lon="0.439628">
        <ele>2818.000000</ele>
        <time>2021-09-05T08:48:49Z</time>
      </trkpt>
      <trkpt lat="42.640078" lon="0.439637">
        <ele>2818.000000</ele>
        <time>2021-09-05T08:48:50Z</time>
      </trkpt>
      <trkpt lat="42.640068" lon="0.439642">
        <ele>2818.000000</ele>
        <time>2021-09-05T08:48:51Z</time>
      </trkpt>
      <trkpt lat="42.640060" lon="0.439648">
        <ele>2818.000000</ele>
        <time>2021-09-05T08:48:52Z</time>
      </trkpt>
      <trkpt lat="42.640053" lon="0.439650">
        <ele>2818.000000</ele>
        <time>2021-09-05T08:48:53Z</time>
      </trkpt>
      <trkpt lat="42.640047" lon="0.439653">
        <ele>2818.000000</ele>
        <time>2021-09-05T08:48:54Z</time>
      </trkpt>
      <trkpt lat="42.640040" lon="0.439658">
        <ele>2818.000000</ele>
        <time>2021-09-05T08:48:55Z</time>
      </trkpt>
      <trkpt lat="42.640033" lon="0.439658">
        <ele>2818.000000</ele>
        <time>2021-09-05T08:48:57Z</time>
      </trkpt>
      <trkpt lat="42.640023" lon="0.439657">
        <ele>2818.000000</ele>
        <time>2021-09-05T08:48:57Z</time>
      </trkpt>
      <trkpt lat="42.640012" lon="0.439660">
        <ele>2818.000000</ele>
        <time>2021-09-05T08:48:58Z</time>
      </trkpt>
      <trkpt lat="42.640000" lon="0.439662">
        <ele>2818.000000</ele>
        <time>2021-09-05T08:48:59Z</time>
      </trkpt>
      <trkpt lat="42.639995" lon="0.439663">
        <ele>2818.000000</ele>
        <time>2021-09-05T08:49:00Z</time>
      </trkpt>
      <trkpt lat="42.639988" lon="0.439664">
        <ele>2818.000000</ele>
        <time>2021-09-05T08:49:01Z</time>
      </trkpt>
      <trkpt lat="42.639982" lon="0.439667">
        <ele>2818.000000</ele>
        <time>2021-09-05T08:49:02Z</time>
      </trkpt>
      <trkpt lat="42.639975" lon="0.439672">
        <ele>2818.000000</ele>
        <time>2021-09-05T08:49:03Z</time>
      </trkpt>
      <trkpt lat="42.639967" lon="0.439678">
        <ele>2818.000000</ele>
        <time>2021-09-05T08:49:04Z</time>
      </trkpt>
      <trkpt lat="42.639957" lon="0.439683">
        <ele>2818.000000</ele>
        <time>2021-09-05T08:49:05Z</time>
      </trkpt>
      <trkpt lat="42.639947" lon="0.439688">
        <ele>2818.000000</ele>
        <time>2021-09-05T08:49:06Z</time>
      </trkpt>
      <trkpt lat="42.639940" lon="0.439689">
        <ele>2818.000000</ele>
        <time>2021-09-05T08:49:07Z</time>
      </trkpt>
      <trkpt lat="42.639935" lon="0.439680">
        <ele>2816.000000</ele>
        <time>2021-09-05T08:49:08Z</time>
      </trkpt>
      <trkpt lat="42.639930" lon="0.439677">
        <ele>2816.000000</ele>
        <time>2021-09-05T08:49:09Z</time>
      </trkpt>
      <trkpt lat="42.639928" lon="0.439675">
        <ele>2816.000000</ele>
        <time>2021-09-05T08:49:10Z</time>
      </trkpt>
      <trkpt lat="42.639922" lon="0.439678">
        <ele>2816.000000</ele>
        <time>2021-09-05T08:49:11Z</time>
      </trkpt>
      <trkpt lat="42.639915" lon="0.439679">
        <ele>2815.000000</ele>
        <time>2021-09-05T08:49:12Z</time>
      </trkpt>
      <trkpt lat="42.639908" lon="0.439680">
        <ele>2815.000000</ele>
        <time>2021-09-05T08:49:13Z</time>
      </trkpt>
      <trkpt lat="42.639907" lon="0.439678">
        <ele>2815.000000</ele>
        <time>2021-09-05T08:49:14Z</time>
      </trkpt>
      <trkpt lat="42.639903" lon="0.439680">
        <ele>2815.000000</ele>
        <time>2021-09-05T08:49:15Z</time>
      </trkpt>
      <trkpt lat="42.639897" lon="0.439685">
        <ele>2815.000000</ele>
        <time>2021-09-05T08:49:16Z</time>
      </trkpt>
      <trkpt lat="42.639892" lon="0.439682">
        <ele>2815.000000</ele>
        <time>2021-09-05T08:49:17Z</time>
      </trkpt>
      <trkpt lat="42.639888" lon="0.439679">
        <ele>2815.000000</ele>
        <time>2021-09-05T08:49:18Z</time>
      </trkpt>
      <trkpt lat="42.639882" lon="0.439680">
        <ele>2815.000000</ele>
        <time>2021-09-05T08:49:19Z</time>
      </trkpt>
      <trkpt lat="42.639877" lon="0.439683">
        <ele>2815.000000</ele>
        <time>2021-09-05T08:49:21Z</time>
      </trkpt>
      <trkpt lat="42.639867" lon="0.439684">
        <ele>2814.000000</ele>
        <time>2021-09-05T08:49:21Z</time>
      </trkpt>
      <trkpt lat="42.639863" lon="0.439684">
        <ele>2814.000000</ele>
        <time>2021-09-05T08:49:22Z</time>
      </trkpt>
      <trkpt lat="42.639853" lon="0.439685">
        <ele>2814.000000</ele>
        <time>2021-09-05T08:49:23Z</time>
      </trkpt>
      <trkpt lat="42.639845" lon="0.439684">
        <ele>2813.000000</ele>
        <time>2021-09-05T08:49:24Z</time>
      </trkpt>
      <trkpt lat="42.639833" lon="0.439685">
        <ele>2813.000000</ele>
        <time>2021-09-05T08:49:25Z</time>
      </trkpt>
      <trkpt lat="42.639823" lon="0.439685">
        <ele>2813.000000</ele>
        <time>2021-09-05T08:49:26Z</time>
      </trkpt>
      <trkpt lat="42.639815" lon="0.439686">
        <ele>2812.000000</ele>
        <time>2021-09-05T08:49:27Z</time>
      </trkpt>
      <trkpt lat="42.639805" lon="0.439686">
        <ele>2812.000000</ele>
        <time>2021-09-05T08:49:28Z</time>
      </trkpt>
      <trkpt lat="42.639803" lon="0.439685">
        <ele>2812.000000</ele>
        <time>2021-09-05T08:49:29Z</time>
      </trkpt>
      <trkpt lat="42.639800" lon="0.439684">
        <ele>2812.000000</ele>
        <time>2021-09-05T08:49:30Z</time>
      </trkpt>
      <trkpt lat="42.639802" lon="0.439684">
        <ele>2812.000000</ele>
        <time>2021-09-05T08:49:32Z</time>
      </trkpt>
      <trkpt lat="42.639803" lon="0.439683">
        <ele>2811.000000</ele>
        <time>2021-09-05T08:49:33Z</time>
      </trkpt>
      <trkpt lat="42.639805" lon="0.439683">
        <ele>2811.000000</ele>
        <time>2021-09-05T08:49:34Z</time>
      </trkpt>
      <trkpt lat="42.639800" lon="0.439682">
        <ele>2811.000000</ele>
        <time>2021-09-05T08:49:35Z</time>
      </trkpt>
      <trkpt lat="42.639793" lon="0.439683">
        <ele>2811.000000</ele>
        <time>2021-09-05T08:49:36Z</time>
      </trkpt>
      <trkpt lat="42.639787" lon="0.439695">
        <ele>2811.000000</ele>
        <time>2021-09-05T08:49:37Z</time>
      </trkpt>
      <trkpt lat="42.639778" lon="0.439696">
        <ele>2811.000000</ele>
        <time>2021-09-05T08:49:38Z</time>
      </trkpt>
      <trkpt lat="42.639768" lon="0.439698">
        <ele>2810.000000</ele>
        <time>2021-09-05T08:49:39Z</time>
      </trkpt>
      <trkpt lat="42.639758" lon="0.439698">
        <ele>2810.000000</ele>
        <time>2021-09-05T08:49:41Z</time>
      </trkpt>
      <trkpt lat="42.639750" lon="0.439698">
        <ele>2810.000000</ele>
        <time>2021-09-05T08:49:41Z</time>
      </trkpt>
      <trkpt lat="42.639743" lon="0.439698">
        <ele>2810.000000</ele>
        <time>2021-09-05T08:49:42Z</time>
      </trkpt>
      <trkpt lat="42.639743" lon="0.439699">
        <ele>2810.000000</ele>
        <time>2021-09-05T08:49:43Z</time>
      </trkpt>
      <trkpt lat="42.639742" lon="0.439702">
        <ele>2809.000000</ele>
        <time>2021-09-05T08:49:44Z</time>
      </trkpt>
      <trkpt lat="42.639743" lon="0.439713">
        <ele>2809.000000</ele>
        <time>2021-09-05T08:49:45Z</time>
      </trkpt>
      <trkpt lat="42.639743" lon="0.439718">
        <ele>2809.000000</ele>
        <time>2021-09-05T08:49:46Z</time>
      </trkpt>
      <trkpt lat="42.639743" lon="0.439725">
        <ele>2809.000000</ele>
        <time>2021-09-05T08:49:47Z</time>
      </trkpt>
      <trkpt lat="42.639743" lon="0.439730">
        <ele>2809.000000</ele>
        <time>2021-09-05T08:49:48Z</time>
      </trkpt>
      <trkpt lat="42.639745" lon="0.439740">
        <ele>2809.000000</ele>
        <time>2021-09-05T08:49:49Z</time>
      </trkpt>
      <trkpt lat="42.639743" lon="0.439748">
        <ele>2809.000000</ele>
        <time>2021-09-05T08:49:50Z</time>
      </trkpt>
      <trkpt lat="42.639743" lon="0.439755">
        <ele>2809.000000</ele>
        <time>2021-09-05T08:49:51Z</time>
      </trkpt>
      <trkpt lat="42.639744" lon="0.439762">
        <ele>2809.000000</ele>
        <time>2021-09-05T08:49:52Z</time>
      </trkpt>
      <trkpt lat="42.639744" lon="0.439768">
        <ele>2809.000000</ele>
        <time>2021-09-05T08:49:53Z</time>
      </trkpt>
      <trkpt lat="42.639743" lon="0.439772">
        <ele>2809.000000</ele>
        <time>2021-09-05T08:49:54Z</time>
      </trkpt>
      <trkpt lat="42.639741" lon="0.439777">
        <ele>2809.000000</ele>
        <time>2021-09-05T08:49:55Z</time>
      </trkpt>
      <trkpt lat="42.639741" lon="0.439782">
        <ele>2809.000000</ele>
        <time>2021-09-05T08:49:56Z</time>
      </trkpt>
      <trkpt lat="42.639740" lon="0.439788">
        <ele>2809.000000</ele>
        <time>2021-09-05T08:49:57Z</time>
      </trkpt>
      <trkpt lat="42.639738" lon="0.439793">
        <ele>2809.000000</ele>
        <time>2021-09-05T08:49:58Z</time>
      </trkpt>
      <trkpt lat="42.639735" lon="0.439797">
        <ele>2809.000000</ele>
        <time>2021-09-05T08:49:59Z</time>
      </trkpt>
      <trkpt lat="42.639728" lon="0.439800">
        <ele>2809.000000</ele>
        <time>2021-09-05T08:50:00Z</time>
      </trkpt>
      <trkpt lat="42.639730" lon="0.439802">
        <ele>2808.000000</ele>
        <time>2021-09-05T08:50:01Z</time>
      </trkpt>
      <trkpt lat="42.639732" lon="0.439808">
        <ele>2808.000000</ele>
        <time>2021-09-05T08:50:02Z</time>
      </trkpt>
      <trkpt lat="42.639730" lon="0.439812">
        <ele>2808.000000</ele>
        <time>2021-09-05T08:50:03Z</time>
      </trkpt>
      <trkpt lat="42.639727" lon="0.439815">
        <ele>2807.000000</ele>
        <time>2021-09-05T08:50:05Z</time>
      </trkpt>
      <trkpt lat="42.639723" lon="0.439817">
        <ele>2807.000000</ele>
        <time>2021-09-05T08:50:05Z</time>
      </trkpt>
      <trkpt lat="42.639718" lon="0.439820">
        <ele>2807.000000</ele>
        <time>2021-09-05T08:50:06Z</time>
      </trkpt>
      <trkpt lat="42.639713" lon="0.439820">
        <ele>2807.000000</ele>
        <time>2021-09-05T08:50:07Z</time>
      </trkpt>
      <trkpt lat="42.639710" lon="0.439818">
        <ele>2806.000000</ele>
        <time>2021-09-05T08:50:08Z</time>
      </trkpt>
      <trkpt lat="42.639707" lon="0.439820">
        <ele>2806.000000</ele>
        <time>2021-09-05T08:50:09Z</time>
      </trkpt>
      <trkpt lat="42.639705" lon="0.439822">
        <ele>2806.000000</ele>
        <time>2021-09-05T08:50:10Z</time>
      </trkpt>
      <trkpt lat="42.639702" lon="0.439827">
        <ele>2806.000000</ele>
        <time>2021-09-05T08:50:11Z</time>
      </trkpt>
      <trkpt lat="42.639697" lon="0.439833">
        <ele>2806.000000</ele>
        <time>2021-09-05T08:50:12Z</time>
      </trkpt>
      <trkpt lat="42.639690" lon="0.439835">
        <ele>2806.000000</ele>
        <time>2021-09-05T08:50:13Z</time>
      </trkpt>
      <trkpt lat="42.639683" lon="0.439835">
        <ele>2806.000000</ele>
        <time>2021-09-05T08:50:14Z</time>
      </trkpt>
      <trkpt lat="42.639680" lon="0.439833">
        <ele>2806.000000</ele>
        <time>2021-09-05T08:50:15Z</time>
      </trkpt>
      <trkpt lat="42.639675" lon="0.439837">
        <ele>2805.000000</ele>
        <time>2021-09-05T08:50:16Z</time>
      </trkpt>
      <trkpt lat="42.639668" lon="0.439840">
        <ele>2805.000000</ele>
        <time>2021-09-05T08:50:17Z</time>
      </trkpt>
      <trkpt lat="42.639665" lon="0.439841">
        <ele>2805.000000</ele>
        <time>2021-09-05T08:50:18Z</time>
      </trkpt>
      <trkpt lat="42.639667" lon="0.439842">
        <ele>2804.000000</ele>
        <time>2021-09-05T08:50:20Z</time>
      </trkpt>
      <trkpt lat="42.639665" lon="0.439853">
        <ele>2804.000000</ele>
        <time>2021-09-05T08:50:21Z</time>
      </trkpt>
      <trkpt lat="42.639663" lon="0.439865">
        <ele>2804.000000</ele>
        <time>2021-09-05T08:50:22Z</time>
      </trkpt>
      <trkpt lat="42.639662" lon="0.439873">
        <ele>2804.000000</ele>
        <time>2021-09-05T08:50:23Z</time>
      </trkpt>
      <trkpt lat="42.639658" lon="0.439882">
        <ele>2804.000000</ele>
        <time>2021-09-05T08:50:24Z</time>
      </trkpt>
      <trkpt lat="42.639655" lon="0.439885">
        <ele>2804.000000</ele>
        <time>2021-09-05T08:50:25Z</time>
      </trkpt>
      <trkpt lat="42.639651" lon="0.439890">
        <ele>2803.000000</ele>
        <time>2021-09-05T08:50:26Z</time>
      </trkpt>
      <trkpt lat="42.639648" lon="0.439892">
        <ele>2803.000000</ele>
        <time>2021-09-05T08:50:27Z</time>
      </trkpt>
      <trkpt lat="42.639645" lon="0.439893">
        <ele>2802.000000</ele>
        <time>2021-09-05T08:50:29Z</time>
      </trkpt>
      <trkpt lat="42.639643" lon="0.439897">
        <ele>2802.000000</ele>
        <time>2021-09-05T08:50:30Z</time>
      </trkpt>
      <trkpt lat="42.639638" lon="0.439897">
        <ele>2801.000000</ele>
        <time>2021-09-05T08:50:32Z</time>
      </trkpt>
      <trkpt lat="42.639635" lon="0.439897">
        <ele>2801.000000</ele>
        <time>2021-09-05T08:50:33Z</time>
      </trkpt>
      <trkpt lat="42.639627" lon="0.439900">
        <ele>2800.000000</ele>
        <time>2021-09-05T08:50:34Z</time>
      </trkpt>
      <trkpt lat="42.639618" lon="0.439903">
        <ele>2800.000000</ele>
        <time>2021-09-05T08:50:35Z</time>
      </trkpt>
      <trkpt lat="42.639612" lon="0.439908">
        <ele>2800.000000</ele>
        <time>2021-09-05T08:50:36Z</time>
      </trkpt>
      <trkpt lat="42.639612" lon="0.439911">
        <ele>2799.000000</ele>
        <time>2021-09-05T08:50:37Z</time>
      </trkpt>
      <trkpt lat="42.639615" lon="0.439910">
        <ele>2799.000000</ele>
        <time>2021-09-05T08:50:38Z</time>
      </trkpt>
      <trkpt lat="42.639612" lon="0.439930">
        <ele>2799.000000</ele>
        <time>2021-09-05T08:50:39Z</time>
      </trkpt>
      <trkpt lat="42.639608" lon="0.439945">
        <ele>2799.000000</ele>
        <time>2021-09-05T08:50:40Z</time>
      </trkpt>
      <trkpt lat="42.639605" lon="0.439957">
        <ele>2799.000000</ele>
        <time>2021-09-05T08:50:41Z</time>
      </trkpt>
      <trkpt lat="42.639600" lon="0.439968">
        <ele>2799.000000</ele>
        <time>2021-09-05T08:50:42Z</time>
      </trkpt>
      <trkpt lat="42.639599" lon="0.439970">
        <ele>2799.000000</ele>
        <time>2021-09-05T08:50:43Z</time>
      </trkpt>
      <trkpt lat="42.639596" lon="0.439973">
        <ele>2799.000000</ele>
        <time>2021-09-05T08:50:44Z</time>
      </trkpt>
      <trkpt lat="42.639600" lon="0.439978">
        <ele>2798.000000</ele>
        <time>2021-09-05T08:50:49Z</time>
      </trkpt>
      <trkpt lat="42.639595" lon="0.439983">
        <ele>2797.000000</ele>
        <time>2021-09-05T08:50:50Z</time>
      </trkpt>
      <trkpt lat="42.639589" lon="0.439988">
        <ele>2797.000000</ele>
        <time>2021-09-05T08:50:51Z</time>
      </trkpt>
      <trkpt lat="42.639580" lon="0.439990">
        <ele>2797.000000</ele>
        <time>2021-09-05T08:50:52Z</time>
      </trkpt>
      <trkpt lat="42.639573" lon="0.439995">
        <ele>2796.000000</ele>
        <time>2021-09-05T08:50:53Z</time>
      </trkpt>
      <trkpt lat="42.639567" lon="0.440000">
        <ele>2796.000000</ele>
        <time>2021-09-05T08:50:54Z</time>
      </trkpt>
      <trkpt lat="42.639560" lon="0.440009">
        <ele>2796.000000</ele>
        <time>2021-09-05T08:50:55Z</time>
      </trkpt>
      <trkpt lat="42.639553" lon="0.440017">
        <ele>2796.000000</ele>
        <time>2021-09-05T08:50:56Z</time>
      </trkpt>
      <trkpt lat="42.639545" lon="0.440026">
        <ele>2796.000000</ele>
        <time>2021-09-05T08:50:57Z</time>
      </trkpt>
      <trkpt lat="42.639538" lon="0.440035">
        <ele>2796.000000</ele>
        <time>2021-09-05T08:50:58Z</time>
      </trkpt>
      <trkpt lat="42.639533" lon="0.440044">
        <ele>2796.000000</ele>
        <time>2021-09-05T08:50:59Z</time>
      </trkpt>
      <trkpt lat="42.639527" lon="0.440055">
        <ele>2796.000000</ele>
        <time>2021-09-05T08:51:00Z</time>
      </trkpt>
      <trkpt lat="42.639518" lon="0.440067">
        <ele>2796.000000</ele>
        <time>2021-09-05T08:51:01Z</time>
      </trkpt>
      <trkpt lat="42.639507" lon="0.440081">
        <ele>2796.000000</ele>
        <time>2021-09-05T08:51:02Z</time>
      </trkpt>
      <trkpt lat="42.639498" lon="0.440088">
        <ele>2796.000000</ele>
        <time>2021-09-05T08:51:03Z</time>
      </trkpt>
      <trkpt lat="42.639490" lon="0.440095">
        <ele>2796.000000</ele>
        <time>2021-09-05T08:51:04Z</time>
      </trkpt>
      <trkpt lat="42.639487" lon="0.440098">
        <ele>2796.000000</ele>
        <time>2021-09-05T08:51:05Z</time>
      </trkpt>
      <trkpt lat="42.639480" lon="0.440106">
        <ele>2795.000000</ele>
        <time>2021-09-05T08:51:06Z</time>
      </trkpt>
      <trkpt lat="42.639473" lon="0.440116">
        <ele>2795.000000</ele>
        <time>2021-09-05T08:51:07Z</time>
      </trkpt>
      <trkpt lat="42.639467" lon="0.440133">
        <ele>2795.000000</ele>
        <time>2021-09-05T08:51:08Z</time>
      </trkpt>
      <trkpt lat="42.639463" lon="0.440137">
        <ele>2795.000000</ele>
        <time>2021-09-05T08:51:09Z</time>
      </trkpt>
      <trkpt lat="42.639460" lon="0.440143">
        <ele>2795.000000</ele>
        <time>2021-09-05T08:51:10Z</time>
      </trkpt>
      <trkpt lat="42.639458" lon="0.440152">
        <ele>2795.000000</ele>
        <time>2021-09-05T08:51:11Z</time>
      </trkpt>
      <trkpt lat="42.639455" lon="0.440162">
        <ele>2795.000000</ele>
        <time>2021-09-05T08:51:13Z</time>
      </trkpt>
      <trkpt lat="42.639453" lon="0.440168">
        <ele>2795.000000</ele>
        <time>2021-09-05T08:51:13Z</time>
      </trkpt>
      <trkpt lat="42.639452" lon="0.440175">
        <ele>2795.000000</ele>
        <time>2021-09-05T08:51:14Z</time>
      </trkpt>
      <trkpt lat="42.639451" lon="0.440180">
        <ele>2795.000000</ele>
        <time>2021-09-05T08:51:15Z</time>
      </trkpt>
      <trkpt lat="42.639449" lon="0.440178">
        <ele>2795.000000</ele>
        <time>2021-09-05T08:51:16Z</time>
      </trkpt>
      <trkpt lat="42.639438" lon="0.440177">
        <ele>2795.000000</ele>
        <time>2021-09-05T08:51:17Z</time>
      </trkpt>
      <trkpt lat="42.639433" lon="0.440175">
        <ele>2795.000000</ele>
        <time>2021-09-05T08:51:18Z</time>
      </trkpt>
      <trkpt lat="42.639428" lon="0.440170">
        <ele>2795.000000</ele>
        <time>2021-09-05T08:51:19Z</time>
      </trkpt>
      <trkpt lat="42.639423" lon="0.440168">
        <ele>2794.000000</ele>
        <time>2021-09-05T08:51:19Z</time>
      </trkpt>
      <trkpt lat="42.639413" lon="0.440170">
        <ele>2794.000000</ele>
        <time>2021-09-05T08:51:20Z</time>
      </trkpt>
      <trkpt lat="42.639403" lon="0.440173">
        <ele>2794.000000</ele>
        <time>2021-09-05T08:51:21Z</time>
      </trkpt>
      <trkpt lat="42.639398" lon="0.440175">
        <ele>2794.000000</ele>
        <time>2021-09-05T08:51:22Z</time>
      </trkpt>
      <trkpt lat="42.639385" lon="0.440177">
        <ele>2794.000000</ele>
        <time>2021-09-05T08:51:23Z</time>
      </trkpt>
      <trkpt lat="42.639378" lon="0.440178">
        <ele>2792.000000</ele>
        <time>2021-09-05T08:51:24Z</time>
      </trkpt>
      <trkpt lat="42.639367" lon="0.440182">
        <ele>2792.000000</ele>
        <time>2021-09-05T08:51:25Z</time>
      </trkpt>
      <trkpt lat="42.639358" lon="0.440186">
        <ele>2792.000000</ele>
        <time>2021-09-05T08:51:26Z</time>
      </trkpt>
      <trkpt lat="42.639352" lon="0.440190">
        <ele>2792.000000</ele>
        <time>2021-09-05T08:51:27Z</time>
      </trkpt>
      <trkpt lat="42.639340" lon="0.440196">
        <ele>2792.000000</ele>
        <time>2021-09-05T08:51:28Z</time>
      </trkpt>
      <trkpt lat="42.639330" lon="0.440201">
        <ele>2790.000000</ele>
        <time>2021-09-05T08:51:29Z</time>
      </trkpt>
      <trkpt lat="42.639318" lon="0.440207">
        <ele>2790.000000</ele>
        <time>2021-09-05T08:51:30Z</time>
      </trkpt>
      <trkpt lat="42.639308" lon="0.440210">
        <ele>2790.000000</ele>
        <time>2021-09-05T08:51:32Z</time>
      </trkpt>
      <trkpt lat="42.639303" lon="0.440211">
        <ele>2789.000000</ele>
        <time>2021-09-05T08:51:32Z</time>
      </trkpt>
      <trkpt lat="42.639302" lon="0.440203">
        <ele>2789.000000</ele>
        <time>2021-09-05T08:51:34Z</time>
      </trkpt>
      <trkpt lat="42.639298" lon="0.440197">
        <ele>2789.000000</ele>
        <time>2021-09-05T08:51:35Z</time>
      </trkpt>
      <trkpt lat="42.639297" lon="0.440194">
        <ele>2789.000000</ele>
        <time>2021-09-05T08:51:36Z</time>
      </trkpt>
      <trkpt lat="42.639293" lon="0.440193">
        <ele>2789.000000</ele>
        <time>2021-09-05T08:51:37Z</time>
      </trkpt>
      <trkpt lat="42.639285" lon="0.440194">
        <ele>2789.000000</ele>
        <time>2021-09-05T08:51:38Z</time>
      </trkpt>
      <trkpt lat="42.639273" lon="0.440195">
        <ele>2789.000000</ele>
        <time>2021-09-05T08:51:39Z</time>
      </trkpt>
      <trkpt lat="42.639262" lon="0.440196">
        <ele>2789.000000</ele>
        <time>2021-09-05T08:51:40Z</time>
      </trkpt>
      <trkpt lat="42.639250" lon="0.440199">
        <ele>2789.000000</ele>
        <time>2021-09-05T08:51:41Z</time>
      </trkpt>
      <trkpt lat="42.639240" lon="0.440203">
        <ele>2789.000000</ele>
        <time>2021-09-05T08:51:42Z</time>
      </trkpt>
      <trkpt lat="42.639227" lon="0.440208">
        <ele>2789.000000</ele>
        <time>2021-09-05T08:51:43Z</time>
      </trkpt>
      <trkpt lat="42.639213" lon="0.440216">
        <ele>2789.000000</ele>
        <time>2021-09-05T08:51:44Z</time>
      </trkpt>
      <trkpt lat="42.639203" lon="0.440223">
        <ele>2789.000000</ele>
        <time>2021-09-05T08:51:45Z</time>
      </trkpt>
      <trkpt lat="42.639195" lon="0.440230">
        <ele>2789.000000</ele>
        <time>2021-09-05T08:51:46Z</time>
      </trkpt>
      <trkpt lat="42.639185" lon="0.440239">
        <ele>2788.000000</ele>
        <time>2021-09-05T08:51:47Z</time>
      </trkpt>
      <trkpt lat="42.639177" lon="0.440247">
        <ele>2788.000000</ele>
        <time>2021-09-05T08:51:48Z</time>
      </trkpt>
      <trkpt lat="42.639170" lon="0.440255">
        <ele>2788.000000</ele>
        <time>2021-09-05T08:51:49Z</time>
      </trkpt>
      <trkpt lat="42.639155" lon="0.440268">
        <ele>2788.000000</ele>
        <time>2021-09-05T08:51:50Z</time>
      </trkpt>
      <trkpt lat="42.639143" lon="0.440277">
        <ele>2788.000000</ele>
        <time>2021-09-05T08:51:51Z</time>
      </trkpt>
      <trkpt lat="42.639132" lon="0.440285">
        <ele>2788.000000</ele>
        <time>2021-09-05T08:51:52Z</time>
      </trkpt>
      <trkpt lat="42.639120" lon="0.440291">
        <ele>2787.000000</ele>
        <time>2021-09-05T08:51:53Z</time>
      </trkpt>
      <trkpt lat="42.639112" lon="0.440295">
        <ele>2787.000000</ele>
        <time>2021-09-05T08:51:54Z</time>
      </trkpt>
      <trkpt lat="42.639108" lon="0.440297">
        <ele>2787.000000</ele>
        <time>2021-09-05T08:51:56Z</time>
      </trkpt>
      <trkpt lat="42.639098" lon="0.440303">
        <ele>2787.000000</ele>
        <time>2021-09-05T08:51:56Z</time>
      </trkpt>
      <trkpt lat="42.639092" lon="0.440308">
        <ele>2787.000000</ele>
        <time>2021-09-05T08:51:57Z</time>
      </trkpt>
      <trkpt lat="42.639092" lon="0.440308">
        <ele>2786.000000</ele>
        <time>2021-09-05T08:51:59Z</time>
      </trkpt>
      <trkpt lat="42.639088" lon="0.440311">
        <ele>2786.000000</ele>
        <time>2021-09-05T08:52:00Z</time>
      </trkpt>
      <trkpt lat="42.639082" lon="0.440316">
        <ele>2786.000000</ele>
        <time>2021-09-05T08:52:01Z</time>
      </trkpt>
      <trkpt lat="42.639077" lon="0.440321">
        <ele>2786.000000</ele>
        <time>2021-09-05T08:52:02Z</time>
      </trkpt>
      <trkpt lat="42.639068" lon="0.440327">
        <ele>2786.000000</ele>
        <time>2021-09-05T08:52:03Z</time>
      </trkpt>
      <trkpt lat="42.639058" lon="0.440335">
        <ele>2786.000000</ele>
        <time>2021-09-05T08:52:04Z</time>
      </trkpt>
      <trkpt lat="42.639052" lon="0.440339">
        <ele>2786.000000</ele>
        <time>2021-09-05T08:52:05Z</time>
      </trkpt>
      <trkpt lat="42.639042" lon="0.440347">
        <ele>2786.000000</ele>
        <time>2021-09-05T08:52:06Z</time>
      </trkpt>
      <trkpt lat="42.639032" lon="0.440353">
        <ele>2786.000000</ele>
        <time>2021-09-05T08:52:07Z</time>
      </trkpt>
      <trkpt lat="42.639022" lon="0.440360">
        <ele>2786.000000</ele>
        <time>2021-09-05T08:52:08Z</time>
      </trkpt>
      <trkpt lat="42.639012" lon="0.440367">
        <ele>2786.000000</ele>
        <time>2021-09-05T08:52:09Z</time>
      </trkpt>
      <trkpt lat="42.638998" lon="0.440377">
        <ele>2786.000000</ele>
        <time>2021-09-05T08:52:10Z</time>
      </trkpt>
      <trkpt lat="42.638990" lon="0.440382">
        <ele>2786.000000</ele>
        <time>2021-09-05T08:52:11Z</time>
      </trkpt>
      <trkpt lat="42.638983" lon="0.440386">
        <ele>2786.000000</ele>
        <time>2021-09-05T08:52:12Z</time>
      </trkpt>
      <trkpt lat="42.638980" lon="0.440388">
        <ele>2787.000000</ele>
        <time>2021-09-05T08:52:13Z</time>
      </trkpt>
      <trkpt lat="42.638975" lon="0.440391">
        <ele>2787.000000</ele>
        <time>2021-09-05T08:52:14Z</time>
      </trkpt>
      <trkpt lat="42.638970" lon="0.440394">
        <ele>2788.000000</ele>
        <time>2021-09-05T08:52:15Z</time>
      </trkpt>
      <trkpt lat="42.638963" lon="0.440398">
        <ele>2788.000000</ele>
        <time>2021-09-05T08:52:16Z</time>
      </trkpt>
      <trkpt lat="42.638958" lon="0.440403">
        <ele>2789.000000</ele>
        <time>2021-09-05T08:52:17Z</time>
      </trkpt>
      <trkpt lat="42.638952" lon="0.440427">
        <ele>2789.000000</ele>
        <time>2021-09-05T08:52:18Z</time>
      </trkpt>
      <trkpt lat="42.638943" lon="0.440437">
        <ele>2789.000000</ele>
        <time>2021-09-05T08:52:20Z</time>
      </trkpt>
      <trkpt lat="42.638936" lon="0.440450">
        <ele>2790.000000</ele>
        <time>2021-09-05T08:52:20Z</time>
      </trkpt>
      <trkpt lat="42.638929" lon="0.440465">
        <ele>2790.000000</ele>
        <time>2021-09-05T08:52:21Z</time>
      </trkpt>
      <trkpt lat="42.638924" lon="0.440478">
        <ele>2790.000000</ele>
        <time>2021-09-05T08:52:22Z</time>
      </trkpt>
      <trkpt lat="42.638917" lon="0.440493">
        <ele>2790.000000</ele>
        <time>2021-09-05T08:52:23Z</time>
      </trkpt>
      <trkpt lat="42.638912" lon="0.440508">
        <ele>2790.000000</ele>
        <time>2021-09-05T08:52:24Z</time>
      </trkpt>
      <trkpt lat="42.638907" lon="0.440523">
        <ele>2790.000000</ele>
        <time>2021-09-05T08:52:25Z</time>
      </trkpt>
      <trkpt lat="42.638902" lon="0.440537">
        <ele>2790.000000</ele>
        <time>2021-09-05T08:52:26Z</time>
      </trkpt>
      <trkpt lat="42.638899" lon="0.440550">
        <ele>2791.000000</ele>
        <time>2021-09-05T08:52:27Z</time>
      </trkpt>
      <trkpt lat="42.638900" lon="0.440568">
        <ele>2791.000000</ele>
        <time>2021-09-05T08:52:28Z</time>
      </trkpt>
      <trkpt lat="42.638897" lon="0.440582">
        <ele>2791.000000</ele>
        <time>2021-09-05T08:52:30Z</time>
      </trkpt>
      <trkpt lat="42.638890" lon="0.440595">
        <ele>2791.000000</ele>
        <time>2021-09-05T08:52:30Z</time>
      </trkpt>
      <trkpt lat="42.638886" lon="0.440602">
        <ele>2791.000000</ele>
        <time>2021-09-05T08:52:31Z</time>
      </trkpt>
      <trkpt lat="42.638880" lon="0.440603">
        <ele>2791.000000</ele>
        <time>2021-09-05T08:52:32Z</time>
      </trkpt>
      <trkpt lat="42.638877" lon="0.440605">
        <ele>2791.000000</ele>
        <time>2021-09-05T08:52:33Z</time>
      </trkpt>
      <trkpt lat="42.638875" lon="0.440607">
        <ele>2791.000000</ele>
        <time>2021-09-05T08:52:34Z</time>
      </trkpt>
      <trkpt lat="42.638872" lon="0.440605">
        <ele>2791.000000</ele>
        <time>2021-09-05T08:52:35Z</time>
      </trkpt>
      <trkpt lat="42.638872" lon="0.440608">
        <ele>2791.000000</ele>
        <time>2021-09-05T08:52:36Z</time>
      </trkpt>
      <trkpt lat="42.638873" lon="0.440617">
        <ele>2791.000000</ele>
        <time>2021-09-05T08:52:37Z</time>
      </trkpt>
      <trkpt lat="42.638872" lon="0.440630">
        <ele>2791.000000</ele>
        <time>2021-09-05T08:52:38Z</time>
      </trkpt>
      <trkpt lat="42.638872" lon="0.440640">
        <ele>2791.000000</ele>
        <time>2021-09-05T08:52:40Z</time>
      </trkpt>
      <trkpt lat="42.638873" lon="0.440653">
        <ele>2791.000000</ele>
        <time>2021-09-05T08:52:40Z</time>
      </trkpt>
      <trkpt lat="42.638877" lon="0.440670">
        <ele>2791.000000</ele>
        <time>2021-09-05T08:52:41Z</time>
      </trkpt>
      <trkpt lat="42.638880" lon="0.440685">
        <ele>2791.000000</ele>
        <time>2021-09-05T08:52:42Z</time>
      </trkpt>
      <trkpt lat="42.638880" lon="0.440697">
        <ele>2791.000000</ele>
        <time>2021-09-05T08:52:43Z</time>
      </trkpt>
      <trkpt lat="42.638879" lon="0.440700">
        <ele>2791.000000</ele>
        <time>2021-09-05T08:52:44Z</time>
      </trkpt>
      <trkpt lat="42.638878" lon="0.440703">
        <ele>2791.000000</ele>
        <time>2021-09-05T08:52:45Z</time>
      </trkpt>
      <trkpt lat="42.638877" lon="0.440712">
        <ele>2791.000000</ele>
        <time>2021-09-05T08:52:46Z</time>
      </trkpt>
      <trkpt lat="42.638875" lon="0.440722">
        <ele>2790.000000</ele>
        <time>2021-09-05T08:52:47Z</time>
      </trkpt>
      <trkpt lat="42.638874" lon="0.440737">
        <ele>2790.000000</ele>
        <time>2021-09-05T08:52:48Z</time>
      </trkpt>
      <trkpt lat="42.638875" lon="0.440750">
        <ele>2790.000000</ele>
        <time>2021-09-05T08:52:49Z</time>
      </trkpt>
      <trkpt lat="42.638880" lon="0.440763">
        <ele>2790.000000</ele>
        <time>2021-09-05T08:52:50Z</time>
      </trkpt>
      <trkpt lat="42.638880" lon="0.440778">
        <ele>2790.000000</ele>
        <time>2021-09-05T08:52:51Z</time>
      </trkpt>
      <trkpt lat="42.638876" lon="0.440797">
        <ele>2790.000000</ele>
        <time>2021-09-05T08:52:52Z</time>
      </trkpt>
      <trkpt lat="42.638875" lon="0.440810">
        <ele>2790.000000</ele>
        <time>2021-09-05T08:52:53Z</time>
      </trkpt>
      <trkpt lat="42.638878" lon="0.440827">
        <ele>2790.000000</ele>
        <time>2021-09-05T08:52:54Z</time>
      </trkpt>
      <trkpt lat="42.638878" lon="0.440840">
        <ele>2790.000000</ele>
        <time>2021-09-05T08:52:55Z</time>
      </trkpt>
      <trkpt lat="42.638878" lon="0.440855">
        <ele>2789.000000</ele>
        <time>2021-09-05T08:52:56Z</time>
      </trkpt>
      <trkpt lat="42.638878" lon="0.440868">
        <ele>2789.000000</ele>
        <time>2021-09-05T08:52:57Z</time>
      </trkpt>
      <trkpt lat="42.638878" lon="0.440877">
        <ele>2789.000000</ele>
        <time>2021-09-05T08:52:58Z</time>
      </trkpt>
      <trkpt lat="42.638878" lon="0.440885">
        <ele>2789.000000</ele>
        <time>2021-09-05T08:52:59Z</time>
      </trkpt>
      <trkpt lat="42.638878" lon="0.440895">
        <ele>2789.000000</ele>
        <time>2021-09-05T08:53:00Z</time>
      </trkpt>
      <trkpt lat="42.638879" lon="0.440900">
        <ele>2789.000000</ele>
        <time>2021-09-05T08:53:01Z</time>
      </trkpt>
      <trkpt lat="42.638881" lon="0.440908">
        <ele>2789.000000</ele>
        <time>2021-09-05T08:53:02Z</time>
      </trkpt>
      <trkpt lat="42.638884" lon="0.440922">
        <ele>2788.000000</ele>
        <time>2021-09-05T08:53:04Z</time>
      </trkpt>
      <trkpt lat="42.638885" lon="0.440928">
        <ele>2788.000000</ele>
        <time>2021-09-05T08:53:04Z</time>
      </trkpt>
      <trkpt lat="42.638886" lon="0.440933">
        <ele>2787.000000</ele>
        <time>2021-09-05T08:53:05Z</time>
      </trkpt>
      <trkpt lat="42.638887" lon="0.440938">
        <ele>2787.000000</ele>
        <time>2021-09-05T08:53:07Z</time>
      </trkpt>
      <trkpt lat="42.638888" lon="0.440943">
        <ele>2786.000000</ele>
        <time>2021-09-05T08:53:08Z</time>
      </trkpt>
      <trkpt lat="42.638889" lon="0.440950">
        <ele>2786.000000</ele>
        <time>2021-09-05T08:53:09Z</time>
      </trkpt>
      <trkpt lat="42.638891" lon="0.440963">
        <ele>2786.000000</ele>
        <time>2021-09-05T08:53:10Z</time>
      </trkpt>
      <trkpt lat="42.638892" lon="0.440972">
        <ele>2786.000000</ele>
        <time>2021-09-05T08:53:11Z</time>
      </trkpt>
      <trkpt lat="42.638893" lon="0.440982">
        <ele>2786.000000</ele>
        <time>2021-09-05T08:53:12Z</time>
      </trkpt>
      <trkpt lat="42.638888" lon="0.440990">
        <ele>2786.000000</ele>
        <time>2021-09-05T08:53:13Z</time>
      </trkpt>
      <trkpt lat="42.638882" lon="0.440998">
        <ele>2785.000000</ele>
        <time>2021-09-05T08:53:14Z</time>
      </trkpt>
      <trkpt lat="42.638873" lon="0.441005">
        <ele>2785.000000</ele>
        <time>2021-09-05T08:53:15Z</time>
      </trkpt>
      <trkpt lat="42.638867" lon="0.441008">
        <ele>2785.000000</ele>
        <time>2021-09-05T08:53:16Z</time>
      </trkpt>
      <trkpt lat="42.638862" lon="0.441013">
        <ele>2785.000000</ele>
        <time>2021-09-05T08:53:17Z</time>
      </trkpt>
      <trkpt lat="42.638858" lon="0.441015">
        <ele>2784.000000</ele>
        <time>2021-09-05T08:53:18Z</time>
      </trkpt>
      <trkpt lat="42.638855" lon="0.441018">
        <ele>2784.000000</ele>
        <time>2021-09-05T08:53:19Z</time>
      </trkpt>
      <trkpt lat="42.638857" lon="0.441018">
        <ele>2784.000000</ele>
        <time>2021-09-05T08:53:20Z</time>
      </trkpt>
      <trkpt lat="42.638855" lon="0.441028">
        <ele>2784.000000</ele>
        <time>2021-09-05T08:53:21Z</time>
      </trkpt>
      <trkpt lat="42.638852" lon="0.441040">
        <ele>2784.000000</ele>
        <time>2021-09-05T08:53:22Z</time>
      </trkpt>
      <trkpt lat="42.638848" lon="0.441057">
        <ele>2784.000000</ele>
        <time>2021-09-05T08:53:23Z</time>
      </trkpt>
      <trkpt lat="42.638843" lon="0.441070">
        <ele>2784.000000</ele>
        <time>2021-09-05T08:53:24Z</time>
      </trkpt>
      <trkpt lat="42.638837" lon="0.441085">
        <ele>2784.000000</ele>
        <time>2021-09-05T08:53:25Z</time>
      </trkpt>
      <trkpt lat="42.638831" lon="0.441105">
        <ele>2784.000000</ele>
        <time>2021-09-05T08:53:26Z</time>
      </trkpt>
      <trkpt lat="42.638825" lon="0.441122">
        <ele>2784.000000</ele>
        <time>2021-09-05T08:53:28Z</time>
      </trkpt>
      <trkpt lat="42.638822" lon="0.441130">
        <ele>2784.000000</ele>
        <time>2021-09-05T08:53:28Z</time>
      </trkpt>
      <trkpt lat="42.638819" lon="0.441140">
        <ele>2784.000000</ele>
        <time>2021-09-05T08:53:29Z</time>
      </trkpt>
      <trkpt lat="42.638816" lon="0.441153">
        <ele>2784.000000</ele>
        <time>2021-09-05T08:53:30Z</time>
      </trkpt>
      <trkpt lat="42.638814" lon="0.441167">
        <ele>2784.000000</ele>
        <time>2021-09-05T08:53:31Z</time>
      </trkpt>
      <trkpt lat="42.638812" lon="0.441178">
        <ele>2784.000000</ele>
        <time>2021-09-05T08:53:32Z</time>
      </trkpt>
      <trkpt lat="42.638810" lon="0.441192">
        <ele>2784.000000</ele>
        <time>2021-09-05T08:53:33Z</time>
      </trkpt>
      <trkpt lat="42.638809" lon="0.441203">
        <ele>2784.000000</ele>
        <time>2021-09-05T08:53:34Z</time>
      </trkpt>
      <trkpt lat="42.638808" lon="0.441218">
        <ele>2784.000000</ele>
        <time>2021-09-05T08:53:35Z</time>
      </trkpt>
      <trkpt lat="42.638808" lon="0.441233">
        <ele>2784.000000</ele>
        <time>2021-09-05T08:53:36Z</time>
      </trkpt>
      <trkpt lat="42.638809" lon="0.441253">
        <ele>2784.000000</ele>
        <time>2021-09-05T08:53:37Z</time>
      </trkpt>
      <trkpt lat="42.638811" lon="0.441267">
        <ele>2783.000000</ele>
        <time>2021-09-05T08:53:38Z</time>
      </trkpt>
      <trkpt lat="42.638813" lon="0.441282">
        <ele>2783.000000</ele>
        <time>2021-09-05T08:53:39Z</time>
      </trkpt>
      <trkpt lat="42.638814" lon="0.441295">
        <ele>2783.000000</ele>
        <time>2021-09-05T08:53:40Z</time>
      </trkpt>
      <trkpt lat="42.638816" lon="0.441310">
        <ele>2782.000000</ele>
        <time>2021-09-05T08:53:41Z</time>
      </trkpt>
      <trkpt lat="42.638816" lon="0.441327">
        <ele>2782.000000</ele>
        <time>2021-09-05T08:53:42Z</time>
      </trkpt>
      <trkpt lat="42.638819" lon="0.441342">
        <ele>2782.000000</ele>
        <time>2021-09-05T08:53:43Z</time>
      </trkpt>
      <trkpt lat="42.638820" lon="0.441358">
        <ele>2782.000000</ele>
        <time>2021-09-05T08:53:44Z</time>
      </trkpt>
      <trkpt lat="42.638822" lon="0.441375">
        <ele>2781.000000</ele>
        <time>2021-09-05T08:53:45Z</time>
      </trkpt>
      <trkpt lat="42.638824" lon="0.441390">
        <ele>2781.000000</ele>
        <time>2021-09-05T08:53:46Z</time>
      </trkpt>
      <trkpt lat="42.638826" lon="0.441400">
        <ele>2781.000000</ele>
        <time>2021-09-05T08:53:47Z</time>
      </trkpt>
      <trkpt lat="42.638827" lon="0.441410">
        <ele>2780.000000</ele>
        <time>2021-09-05T08:53:49Z</time>
      </trkpt>
      <trkpt lat="42.638827" lon="0.441418">
        <ele>2780.000000</ele>
        <time>2021-09-05T08:53:49Z</time>
      </trkpt>
      <trkpt lat="42.638827" lon="0.441428">
        <ele>2779.000000</ele>
        <time>2021-09-05T08:53:50Z</time>
      </trkpt>
      <trkpt lat="42.638827" lon="0.441443">
        <ele>2779.000000</ele>
        <time>2021-09-05T08:53:51Z</time>
      </trkpt>
      <trkpt lat="42.638826" lon="0.441455">
        <ele>2779.000000</ele>
        <time>2021-09-05T08:53:52Z</time>
      </trkpt>
      <trkpt lat="42.638826" lon="0.441458">
        <ele>2778.000000</ele>
        <time>2021-09-05T08:53:53Z</time>
      </trkpt>
      <trkpt lat="42.638826" lon="0.441465">
        <ele>2778.000000</ele>
        <time>2021-09-05T08:53:54Z</time>
      </trkpt>
      <trkpt lat="42.638825" lon="0.441468">
        <ele>2777.000000</ele>
        <time>2021-09-05T08:53:55Z</time>
      </trkpt>
      <trkpt lat="42.638825" lon="0.441470">
        <ele>2777.000000</ele>
        <time>2021-09-05T08:53:56Z</time>
      </trkpt>
      <trkpt lat="42.638824" lon="0.441475">
        <ele>2775.000000</ele>
        <time>2021-09-05T08:54:00Z</time>
      </trkpt>
      <trkpt lat="42.638818" lon="0.441483">
        <ele>2774.000000</ele>
        <time>2021-09-05T08:54:02Z</time>
      </trkpt>
      <trkpt lat="42.638818" lon="0.441487">
        <ele>2774.000000</ele>
        <time>2021-09-05T08:54:03Z</time>
      </trkpt>
      <trkpt lat="42.638820" lon="0.441492">
        <ele>2774.000000</ele>
        <time>2021-09-05T08:54:04Z</time>
      </trkpt>
      <trkpt lat="42.638820" lon="0.441493">
        <ele>2774.000000</ele>
        <time>2021-09-05T08:54:06Z</time>
      </trkpt>
      <trkpt lat="42.638820" lon="0.441497">
        <ele>2774.000000</ele>
        <time>2021-09-05T08:54:07Z</time>
      </trkpt>
      <trkpt lat="42.638822" lon="0.441503">
        <ele>2774.000000</ele>
        <time>2021-09-05T08:54:08Z</time>
      </trkpt>
      <trkpt lat="42.638824" lon="0.441510">
        <ele>2774.000000</ele>
        <time>2021-09-05T08:54:09Z</time>
      </trkpt>
      <trkpt lat="42.638825" lon="0.441517">
        <ele>2774.000000</ele>
        <time>2021-09-05T08:54:12Z</time>
      </trkpt>
      <trkpt lat="42.638825" lon="0.441522">
        <ele>2774.000000</ele>
        <time>2021-09-05T08:54:12Z</time>
      </trkpt>
      <trkpt lat="42.638824" lon="0.441527">
        <ele>2774.000000</ele>
        <time>2021-09-05T08:54:13Z</time>
      </trkpt>
      <trkpt lat="42.638820" lon="0.441538">
        <ele>2774.000000</ele>
        <time>2021-09-05T08:54:14Z</time>
      </trkpt>
      <trkpt lat="42.638818" lon="0.441545">
        <ele>2774.000000</ele>
        <time>2021-09-05T08:54:15Z</time>
      </trkpt>
      <trkpt lat="42.638817" lon="0.441553">
        <ele>2774.000000</ele>
        <time>2021-09-05T08:54:16Z</time>
      </trkpt>
      <trkpt lat="42.638815" lon="0.441563">
        <ele>2774.000000</ele>
        <time>2021-09-05T08:54:17Z</time>
      </trkpt>
      <trkpt lat="42.638814" lon="0.441572">
        <ele>2774.000000</ele>
        <time>2021-09-05T08:54:18Z</time>
      </trkpt>
      <trkpt lat="42.638813" lon="0.441583">
        <ele>2774.000000</ele>
        <time>2021-09-05T08:54:19Z</time>
      </trkpt>
      <trkpt lat="42.638812" lon="0.441590">
        <ele>2774.000000</ele>
        <time>2021-09-05T08:54:20Z</time>
      </trkpt>
      <trkpt lat="42.638810" lon="0.441598">
        <ele>2774.000000</ele>
        <time>2021-09-05T08:54:21Z</time>
      </trkpt>
      <trkpt lat="42.638808" lon="0.441608">
        <ele>2774.000000</ele>
        <time>2021-09-05T08:54:22Z</time>
      </trkpt>
      <trkpt lat="42.638807" lon="0.441617">
        <ele>2774.000000</ele>
        <time>2021-09-05T08:54:23Z</time>
      </trkpt>
      <trkpt lat="42.638807" lon="0.441623">
        <ele>2774.000000</ele>
        <time>2021-09-05T08:54:24Z</time>
      </trkpt>
      <trkpt lat="42.638806" lon="0.441635">
        <ele>2774.000000</ele>
        <time>2021-09-05T08:54:25Z</time>
      </trkpt>
      <trkpt lat="42.638805" lon="0.441647">
        <ele>2774.000000</ele>
        <time>2021-09-05T08:54:26Z</time>
      </trkpt>
      <trkpt lat="42.638806" lon="0.441655">
        <ele>2774.000000</ele>
        <time>2021-09-05T08:54:27Z</time>
      </trkpt>
      <trkpt lat="42.638806" lon="0.441663">
        <ele>2774.000000</ele>
        <time>2021-09-05T08:54:28Z</time>
      </trkpt>
      <trkpt lat="42.638806" lon="0.441673">
        <ele>2774.000000</ele>
        <time>2021-09-05T08:54:29Z</time>
      </trkpt>
      <trkpt lat="42.638806" lon="0.441680">
        <ele>2774.000000</ele>
        <time>2021-09-05T08:54:30Z</time>
      </trkpt>
      <trkpt lat="42.638807" lon="0.441685">
        <ele>2773.000000</ele>
        <time>2021-09-05T08:54:32Z</time>
      </trkpt>
      <trkpt lat="42.638805" lon="0.441695">
        <ele>2773.000000</ele>
        <time>2021-09-05T08:54:32Z</time>
      </trkpt>
      <trkpt lat="42.638804" lon="0.441707">
        <ele>2773.000000</ele>
        <time>2021-09-05T08:54:33Z</time>
      </trkpt>
      <trkpt lat="42.638803" lon="0.441718">
        <ele>2773.000000</ele>
        <time>2021-09-05T08:54:34Z</time>
      </trkpt>
      <trkpt lat="42.638802" lon="0.441730">
        <ele>2773.000000</ele>
        <time>2021-09-05T08:54:35Z</time>
      </trkpt>
      <trkpt lat="42.638803" lon="0.441740">
        <ele>2773.000000</ele>
        <time>2021-09-05T08:54:36Z</time>
      </trkpt>
      <trkpt lat="42.638803" lon="0.441752">
        <ele>2772.000000</ele>
        <time>2021-09-05T08:54:37Z</time>
      </trkpt>
      <trkpt lat="42.638804" lon="0.441763">
        <ele>2772.000000</ele>
        <time>2021-09-05T08:54:38Z</time>
      </trkpt>
      <trkpt lat="42.638804" lon="0.441772">
        <ele>2772.000000</ele>
        <time>2021-09-05T08:54:39Z</time>
      </trkpt>
      <trkpt lat="42.638804" lon="0.441785">
        <ele>2772.000000</ele>
        <time>2021-09-05T08:54:40Z</time>
      </trkpt>
      <trkpt lat="42.638804" lon="0.441797">
        <ele>2772.000000</ele>
        <time>2021-09-05T08:54:41Z</time>
      </trkpt>
      <trkpt lat="42.638804" lon="0.441808">
        <ele>2772.000000</ele>
        <time>2021-09-05T08:54:42Z</time>
      </trkpt>
      <trkpt lat="42.638805" lon="0.441820">
        <ele>2772.000000</ele>
        <time>2021-09-05T08:54:43Z</time>
      </trkpt>
      <trkpt lat="42.638807" lon="0.441827">
        <ele>2772.000000</ele>
        <time>2021-09-05T08:54:44Z</time>
      </trkpt>
      <trkpt lat="42.638808" lon="0.441840">
        <ele>2772.000000</ele>
        <time>2021-09-05T08:54:45Z</time>
      </trkpt>
      <trkpt lat="42.638809" lon="0.441850">
        <ele>2772.000000</ele>
        <time>2021-09-05T08:54:46Z</time>
      </trkpt>
      <trkpt lat="42.638809" lon="0.441855">
        <ele>2771.000000</ele>
        <time>2021-09-05T08:54:47Z</time>
      </trkpt>
      <trkpt lat="42.638810" lon="0.441860">
        <ele>2771.000000</ele>
        <time>2021-09-05T08:54:48Z</time>
      </trkpt>
      <trkpt lat="42.638810" lon="0.441865">
        <ele>2771.000000</ele>
        <time>2021-09-05T08:54:49Z</time>
      </trkpt>
      <trkpt lat="42.638810" lon="0.441873">
        <ele>2771.000000</ele>
        <time>2021-09-05T08:54:50Z</time>
      </trkpt>
      <trkpt lat="42.638811" lon="0.441882">
        <ele>2770.000000</ele>
        <time>2021-09-05T08:54:51Z</time>
      </trkpt>
      <trkpt lat="42.638811" lon="0.441892">
        <ele>2770.000000</ele>
        <time>2021-09-05T08:54:52Z</time>
      </trkpt>
      <trkpt lat="42.638811" lon="0.441897">
        <ele>2770.000000</ele>
        <time>2021-09-05T08:54:53Z</time>
      </trkpt>
      <trkpt lat="42.638808" lon="0.441908">
        <ele>2770.000000</ele>
        <time>2021-09-05T08:54:54Z</time>
      </trkpt>
      <trkpt lat="42.638807" lon="0.441918">
        <ele>2769.000000</ele>
        <time>2021-09-05T08:54:55Z</time>
      </trkpt>
      <trkpt lat="42.638803" lon="0.441930">
        <ele>2769.000000</ele>
        <time>2021-09-05T08:54:57Z</time>
      </trkpt>
      <trkpt lat="42.638804" lon="0.441937">
        <ele>2769.000000</ele>
        <time>2021-09-05T08:54:57Z</time>
      </trkpt>
      <trkpt lat="42.638804" lon="0.441945">
        <ele>2769.000000</ele>
        <time>2021-09-05T08:54:58Z</time>
      </trkpt>
      <trkpt lat="42.638805" lon="0.441952">
        <ele>2769.000000</ele>
        <time>2021-09-05T08:54:59Z</time>
      </trkpt>
      <trkpt lat="42.638812" lon="0.441960">
        <ele>2768.000000</ele>
        <time>2021-09-05T08:55:00Z</time>
      </trkpt>
      <trkpt lat="42.638817" lon="0.441970">
        <ele>2768.000000</ele>
        <time>2021-09-05T08:55:01Z</time>
      </trkpt>
      <trkpt lat="42.638823" lon="0.441982">
        <ele>2768.000000</ele>
        <time>2021-09-05T08:55:02Z</time>
      </trkpt>
      <trkpt lat="42.638830" lon="0.441990">
        <ele>2768.000000</ele>
        <time>2021-09-05T08:55:03Z</time>
      </trkpt>
      <trkpt lat="42.638833" lon="0.442003">
        <ele>2767.000000</ele>
        <time>2021-09-05T08:55:04Z</time>
      </trkpt>
      <trkpt lat="42.638834" lon="0.442015">
        <ele>2767.000000</ele>
        <time>2021-09-05T08:55:05Z</time>
      </trkpt>
      <trkpt lat="42.638834" lon="0.442022">
        <ele>2767.000000</ele>
        <time>2021-09-05T08:55:06Z</time>
      </trkpt>
      <trkpt lat="42.638835" lon="0.442030">
        <ele>2767.000000</ele>
        <time>2021-09-05T08:55:07Z</time>
      </trkpt>
      <trkpt lat="42.638836" lon="0.442040">
        <ele>2767.000000</ele>
        <time>2021-09-05T08:55:08Z</time>
      </trkpt>
      <trkpt lat="42.638835" lon="0.442050">
        <ele>2766.000000</ele>
        <time>2021-09-05T08:55:09Z</time>
      </trkpt>
      <trkpt lat="42.638833" lon="0.442053">
        <ele>2766.000000</ele>
        <time>2021-09-05T08:55:10Z</time>
      </trkpt>
      <trkpt lat="42.638832" lon="0.442060">
        <ele>2766.000000</ele>
        <time>2021-09-05T08:55:11Z</time>
      </trkpt>
      <trkpt lat="42.638830" lon="0.442065">
        <ele>2766.000000</ele>
        <time>2021-09-05T08:55:12Z</time>
      </trkpt>
      <trkpt lat="42.638829" lon="0.442070">
        <ele>2766.000000</ele>
        <time>2021-09-05T08:55:13Z</time>
      </trkpt>
      <trkpt lat="42.638831" lon="0.442073">
        <ele>2765.000000</ele>
        <time>2021-09-05T08:55:14Z</time>
      </trkpt>
      <trkpt lat="42.638833" lon="0.442077">
        <ele>2765.000000</ele>
        <time>2021-09-05T08:55:15Z</time>
      </trkpt>
      <trkpt lat="42.638840" lon="0.442078">
        <ele>2765.000000</ele>
        <time>2021-09-05T08:55:16Z</time>
      </trkpt>
      <trkpt lat="42.638848" lon="0.442080">
        <ele>2764.000000</ele>
        <time>2021-09-05T08:55:17Z</time>
      </trkpt>
      <trkpt lat="42.638848" lon="0.442077">
        <ele>2764.000000</ele>
        <time>2021-09-05T08:55:18Z</time>
      </trkpt>
      <trkpt lat="42.638845" lon="0.442080">
        <ele>2764.000000</ele>
        <time>2021-09-05T08:55:21Z</time>
      </trkpt>
      <trkpt lat="42.638843" lon="0.442081">
        <ele>2764.000000</ele>
        <time>2021-09-05T08:55:21Z</time>
      </trkpt>
      <trkpt lat="42.638842" lon="0.442083">
        <ele>2764.000000</ele>
        <time>2021-09-05T08:55:23Z</time>
      </trkpt>
      <trkpt lat="42.638843" lon="0.442081">
        <ele>2764.000000</ele>
        <time>2021-09-05T08:55:24Z</time>
      </trkpt>
      <trkpt lat="42.638785" lon="0.442135">
        <ele>2761.000000</ele>
        <time>2021-09-05T08:58:01Z</time>
      </trkpt>
      <trkpt lat="42.638778" lon="0.442140">
        <ele>2761.000000</ele>
        <time>2021-09-05T08:58:02Z</time>
      </trkpt>
      <trkpt lat="42.638772" lon="0.442148">
        <ele>2761.000000</ele>
        <time>2021-09-05T08:58:03Z</time>
      </trkpt>
      <trkpt lat="42.638767" lon="0.442153">
        <ele>2761.000000</ele>
        <time>2021-09-05T08:58:04Z</time>
      </trkpt>
      <trkpt lat="42.638762" lon="0.442158">
        <ele>2761.000000</ele>
        <time>2021-09-05T08:58:05Z</time>
      </trkpt>
      <trkpt lat="42.638757" lon="0.442162">
        <ele>2761.000000</ele>
        <time>2021-09-05T08:58:06Z</time>
      </trkpt>
      <trkpt lat="42.638752" lon="0.442165">
        <ele>2761.000000</ele>
        <time>2021-09-05T08:58:07Z</time>
      </trkpt>
      <trkpt lat="42.638753" lon="0.442163">
        <ele>2761.000000</ele>
        <time>2021-09-05T08:58:09Z</time>
      </trkpt>
      <trkpt lat="42.638748" lon="0.442167">
        <ele>2761.000000</ele>
        <time>2021-09-05T08:58:11Z</time>
      </trkpt>
      <trkpt lat="42.638746" lon="0.442172">
        <ele>2761.000000</ele>
        <time>2021-09-05T08:58:12Z</time>
      </trkpt>
      <trkpt lat="42.638745" lon="0.442177">
        <ele>2761.000000</ele>
        <time>2021-09-05T08:58:13Z</time>
      </trkpt>
      <trkpt lat="42.638739" lon="0.442182">
        <ele>2761.000000</ele>
        <time>2021-09-05T08:58:14Z</time>
      </trkpt>
      <trkpt lat="42.638733" lon="0.442187">
        <ele>2761.000000</ele>
        <time>2021-09-05T08:58:15Z</time>
      </trkpt>
      <trkpt lat="42.638728" lon="0.442191">
        <ele>2761.000000</ele>
        <time>2021-09-05T08:58:16Z</time>
      </trkpt>
      <trkpt lat="42.638727" lon="0.442196">
        <ele>2761.000000</ele>
        <time>2021-09-05T08:58:17Z</time>
      </trkpt>
      <trkpt lat="42.638722" lon="0.442204">
        <ele>2761.000000</ele>
        <time>2021-09-05T08:58:18Z</time>
      </trkpt>
      <trkpt lat="42.638713" lon="0.442209">
        <ele>2761.000000</ele>
        <time>2021-09-05T08:58:19Z</time>
      </trkpt>
      <trkpt lat="42.638708" lon="0.442211">
        <ele>2761.000000</ele>
        <time>2021-09-05T08:58:21Z</time>
      </trkpt>
      <trkpt lat="42.638705" lon="0.442208">
        <ele>2761.000000</ele>
        <time>2021-09-05T08:58:21Z</time>
      </trkpt>
      <trkpt lat="42.638700" lon="0.442212">
        <ele>2761.000000</ele>
        <time>2021-09-05T08:58:22Z</time>
      </trkpt>
      <trkpt lat="42.638695" lon="0.442208">
        <ele>2761.000000</ele>
        <time>2021-09-05T08:58:23Z</time>
      </trkpt>
      <trkpt lat="42.638695" lon="0.442197">
        <ele>2761.000000</ele>
        <time>2021-09-05T08:58:24Z</time>
      </trkpt>
      <trkpt lat="42.638692" lon="0.442190">
        <ele>2757.000000</ele>
        <time>2021-09-05T08:58:25Z</time>
      </trkpt>
      <trkpt lat="42.638687" lon="0.442191">
        <ele>2757.000000</ele>
        <time>2021-09-05T08:58:26Z</time>
      </trkpt>
      <trkpt lat="42.638683" lon="0.442193">
        <ele>2756.000000</ele>
        <time>2021-09-05T08:58:27Z</time>
      </trkpt>
      <trkpt lat="42.638687" lon="0.442193">
        <ele>2756.000000</ele>
        <time>2021-09-05T08:58:28Z</time>
      </trkpt>
      <trkpt lat="42.638685" lon="0.442198">
        <ele>2756.000000</ele>
        <time>2021-09-05T08:58:29Z</time>
      </trkpt>
      <trkpt lat="42.638683" lon="0.442203">
        <ele>2756.000000</ele>
        <time>2021-09-05T08:58:30Z</time>
      </trkpt>
      <trkpt lat="42.638672" lon="0.442223">
        <ele>2756.000000</ele>
        <time>2021-09-05T08:58:31Z</time>
      </trkpt>
      <trkpt lat="42.638660" lon="0.442237">
        <ele>2756.000000</ele>
        <time>2021-09-05T08:58:32Z</time>
      </trkpt>
      <trkpt lat="42.638650" lon="0.442247">
        <ele>2756.000000</ele>
        <time>2021-09-05T08:58:33Z</time>
      </trkpt>
      <trkpt lat="42.638642" lon="0.442256">
        <ele>2756.000000</ele>
        <time>2021-09-05T08:58:34Z</time>
      </trkpt>
      <trkpt lat="42.638628" lon="0.442268">
        <ele>2756.000000</ele>
        <time>2021-09-05T08:58:35Z</time>
      </trkpt>
      <trkpt lat="42.638617" lon="0.442276">
        <ele>2756.000000</ele>
        <time>2021-09-05T08:58:36Z</time>
      </trkpt>
      <trkpt lat="42.638608" lon="0.442270">
        <ele>2756.000000</ele>
        <time>2021-09-05T08:58:37Z</time>
      </trkpt>
      <trkpt lat="42.638605" lon="0.442273">
        <ele>2756.000000</ele>
        <time>2021-09-05T08:58:38Z</time>
      </trkpt>
      <trkpt lat="42.638602" lon="0.442277">
        <ele>2756.000000</ele>
        <time>2021-09-05T08:58:39Z</time>
      </trkpt>
      <trkpt lat="42.638600" lon="0.442279">
        <ele>2756.000000</ele>
        <time>2021-09-05T08:58:41Z</time>
      </trkpt>
      <trkpt lat="42.638598" lon="0.442281">
        <ele>2756.000000</ele>
        <time>2021-09-05T08:58:41Z</time>
      </trkpt>
      <trkpt lat="42.638597" lon="0.442282">
        <ele>2757.000000</ele>
        <time>2021-09-05T08:58:46Z</time>
      </trkpt>
      <trkpt lat="42.638590" lon="0.442285">
        <ele>2757.000000</ele>
        <time>2021-09-05T08:58:49Z</time>
      </trkpt>
      <trkpt lat="42.638587" lon="0.442284">
        <ele>2757.000000</ele>
        <time>2021-09-05T08:58:50Z</time>
      </trkpt>
      <trkpt lat="42.638585" lon="0.442285">
        <ele>2757.000000</ele>
        <time>2021-09-05T08:58:51Z</time>
      </trkpt>
      <trkpt lat="42.638583" lon="0.442286">
        <ele>2757.000000</ele>
        <time>2021-09-05T08:58:52Z</time>
      </trkpt>
      <trkpt lat="42.638578" lon="0.442289">
        <ele>2757.000000</ele>
        <time>2021-09-05T08:58:53Z</time>
      </trkpt>
      <trkpt lat="42.638572" lon="0.442294">
        <ele>2757.000000</ele>
        <time>2021-09-05T08:58:54Z</time>
      </trkpt>
      <trkpt lat="42.638570" lon="0.442296">
        <ele>2757.000000</ele>
        <time>2021-09-05T08:58:55Z</time>
      </trkpt>
      <trkpt lat="42.638568" lon="0.442302">
        <ele>2757.000000</ele>
        <time>2021-09-05T08:58:56Z</time>
      </trkpt>
      <trkpt lat="42.638565" lon="0.442308">
        <ele>2757.000000</ele>
        <time>2021-09-05T08:58:57Z</time>
      </trkpt>
      <trkpt lat="42.638563" lon="0.442313">
        <ele>2757.000000</ele>
        <time>2021-09-05T08:58:58Z</time>
      </trkpt>
      <trkpt lat="42.638563" lon="0.442316">
        <ele>2757.000000</ele>
        <time>2021-09-05T08:58:59Z</time>
      </trkpt>
      <trkpt lat="42.638562" lon="0.442322">
        <ele>2757.000000</ele>
        <time>2021-09-05T08:59:00Z</time>
      </trkpt>
      <trkpt lat="42.638560" lon="0.442326">
        <ele>2757.000000</ele>
        <time>2021-09-05T08:59:02Z</time>
      </trkpt>
      <trkpt lat="42.638555" lon="0.442336">
        <ele>2756.000000</ele>
        <time>2021-09-05T08:59:03Z</time>
      </trkpt>
      <trkpt lat="42.638552" lon="0.442341">
        <ele>2756.000000</ele>
        <time>2021-09-05T08:59:05Z</time>
      </trkpt>
      <trkpt lat="42.638547" lon="0.442347">
        <ele>2756.000000</ele>
        <time>2021-09-05T08:59:05Z</time>
      </trkpt>
      <trkpt lat="42.638543" lon="0.442352">
        <ele>2756.000000</ele>
        <time>2021-09-05T08:59:06Z</time>
      </trkpt>
      <trkpt lat="42.638542" lon="0.442357">
        <ele>2756.000000</ele>
        <time>2021-09-05T08:59:07Z</time>
      </trkpt>
      <trkpt lat="42.638537" lon="0.442363">
        <ele>2756.000000</ele>
        <time>2021-09-05T08:59:08Z</time>
      </trkpt>
      <trkpt lat="42.638528" lon="0.442367">
        <ele>2755.000000</ele>
        <time>2021-09-05T08:59:09Z</time>
      </trkpt>
      <trkpt lat="42.638523" lon="0.442370">
        <ele>2755.000000</ele>
        <time>2021-09-05T08:59:10Z</time>
      </trkpt>
      <trkpt lat="42.638520" lon="0.442372">
        <ele>2755.000000</ele>
        <time>2021-09-05T08:59:11Z</time>
      </trkpt>
      <trkpt lat="42.638517" lon="0.442373">
        <ele>2755.000000</ele>
        <time>2021-09-05T08:59:12Z</time>
      </trkpt>
      <trkpt lat="42.638515" lon="0.442376">
        <ele>2755.000000</ele>
        <time>2021-09-05T08:59:13Z</time>
      </trkpt>
      <trkpt lat="42.638512" lon="0.442380">
        <ele>2755.000000</ele>
        <time>2021-09-05T08:59:14Z</time>
      </trkpt>
      <trkpt lat="42.638507" lon="0.442387">
        <ele>2754.000000</ele>
        <time>2021-09-05T08:59:15Z</time>
      </trkpt>
      <trkpt lat="42.638502" lon="0.442393">
        <ele>2754.000000</ele>
        <time>2021-09-05T08:59:16Z</time>
      </trkpt>
      <trkpt lat="42.638497" lon="0.442398">
        <ele>2754.000000</ele>
        <time>2021-09-05T08:59:17Z</time>
      </trkpt>
      <trkpt lat="42.638492" lon="0.442401">
        <ele>2754.000000</ele>
        <time>2021-09-05T08:59:18Z</time>
      </trkpt>
      <trkpt lat="42.638485" lon="0.442406">
        <ele>2754.000000</ele>
        <time>2021-09-05T08:59:19Z</time>
      </trkpt>
      <trkpt lat="42.638478" lon="0.442408">
        <ele>2753.000000</ele>
        <time>2021-09-05T08:59:20Z</time>
      </trkpt>
      <trkpt lat="42.638472" lon="0.442413">
        <ele>2753.000000</ele>
        <time>2021-09-05T08:59:21Z</time>
      </trkpt>
      <trkpt lat="42.638470" lon="0.442416">
        <ele>2753.000000</ele>
        <time>2021-09-05T08:59:22Z</time>
      </trkpt>
      <trkpt lat="42.638467" lon="0.442423">
        <ele>2753.000000</ele>
        <time>2021-09-05T08:59:23Z</time>
      </trkpt>
      <trkpt lat="42.638463" lon="0.442429">
        <ele>2753.000000</ele>
        <time>2021-09-05T08:59:24Z</time>
      </trkpt>
      <trkpt lat="42.638462" lon="0.442437">
        <ele>2752.000000</ele>
        <time>2021-09-05T08:59:25Z</time>
      </trkpt>
      <trkpt lat="42.638455" lon="0.442447">
        <ele>2752.000000</ele>
        <time>2021-09-05T08:59:26Z</time>
      </trkpt>
      <trkpt lat="42.638450" lon="0.442452">
        <ele>2752.000000</ele>
        <time>2021-09-05T08:59:27Z</time>
      </trkpt>
      <trkpt lat="42.638445" lon="0.442455">
        <ele>2752.000000</ele>
        <time>2021-09-05T08:59:29Z</time>
      </trkpt>
      <trkpt lat="42.638440" lon="0.442458">
        <ele>2751.000000</ele>
        <time>2021-09-05T08:59:29Z</time>
      </trkpt>
      <trkpt lat="42.638433" lon="0.442460">
        <ele>2751.000000</ele>
        <time>2021-09-05T08:59:30Z</time>
      </trkpt>
      <trkpt lat="42.638428" lon="0.442462">
        <ele>2751.000000</ele>
        <time>2021-09-05T08:59:31Z</time>
      </trkpt>
      <trkpt lat="42.638422" lon="0.442463">
        <ele>2750.000000</ele>
        <time>2021-09-05T08:59:32Z</time>
      </trkpt>
      <trkpt lat="42.638415" lon="0.442467">
        <ele>2750.000000</ele>
        <time>2021-09-05T08:59:33Z</time>
      </trkpt>
      <trkpt lat="42.638413" lon="0.442469">
        <ele>2750.000000</ele>
        <time>2021-09-05T08:59:34Z</time>
      </trkpt>
      <trkpt lat="42.638415" lon="0.442468">
        <ele>2750.000000</ele>
        <time>2021-09-05T08:59:35Z</time>
      </trkpt>
      <trkpt lat="42.638418" lon="0.442469">
        <ele>2750.000000</ele>
        <time>2021-09-05T08:59:37Z</time>
      </trkpt>
      <trkpt lat="42.638417" lon="0.442478">
        <ele>2750.000000</ele>
        <time>2021-09-05T08:59:38Z</time>
      </trkpt>
      <trkpt lat="42.638418" lon="0.442485">
        <ele>2750.000000</ele>
        <time>2021-09-05T08:59:39Z</time>
      </trkpt>
      <trkpt lat="42.638420" lon="0.442493">
        <ele>2750.000000</ele>
        <time>2021-09-05T08:59:40Z</time>
      </trkpt>
      <trkpt lat="42.638422" lon="0.442502">
        <ele>2750.000000</ele>
        <time>2021-09-05T08:59:41Z</time>
      </trkpt>
      <trkpt lat="42.638418" lon="0.442515">
        <ele>2750.000000</ele>
        <time>2021-09-05T08:59:42Z</time>
      </trkpt>
      <trkpt lat="42.638415" lon="0.442523">
        <ele>2750.000000</ele>
        <time>2021-09-05T08:59:43Z</time>
      </trkpt>
      <trkpt lat="42.638411" lon="0.442527">
        <ele>2750.000000</ele>
        <time>2021-09-05T08:59:44Z</time>
      </trkpt>
      <trkpt lat="42.638403" lon="0.442527">
        <ele>2750.000000</ele>
        <time>2021-09-05T08:59:45Z</time>
      </trkpt>
      <trkpt lat="42.638397" lon="0.442530">
        <ele>2750.000000</ele>
        <time>2021-09-05T08:59:46Z</time>
      </trkpt>
      <trkpt lat="42.638392" lon="0.442533">
        <ele>2749.000000</ele>
        <time>2021-09-05T08:59:47Z</time>
      </trkpt>
      <trkpt lat="42.638385" lon="0.442538">
        <ele>2749.000000</ele>
        <time>2021-09-05T08:59:49Z</time>
      </trkpt>
      <trkpt lat="42.638380" lon="0.442542">
        <ele>2748.000000</ele>
        <time>2021-09-05T08:59:49Z</time>
      </trkpt>
      <trkpt lat="42.638375" lon="0.442546">
        <ele>2748.000000</ele>
        <time>2021-09-05T08:59:49Z</time>
      </trkpt>
      <trkpt lat="42.638370" lon="0.442550">
        <ele>2748.000000</ele>
        <time>2021-09-05T08:59:50Z</time>
      </trkpt>
      <trkpt lat="42.638368" lon="0.442552">
        <ele>2748.000000</ele>
        <time>2021-09-05T08:59:51Z</time>
      </trkpt>
      <trkpt lat="42.638367" lon="0.442553">
        <ele>2748.000000</ele>
        <time>2021-09-05T08:59:52Z</time>
      </trkpt>
      <trkpt lat="42.638368" lon="0.442563">
        <ele>2748.000000</ele>
        <time>2021-09-05T08:59:53Z</time>
      </trkpt>
      <trkpt lat="42.638368" lon="0.442572">
        <ele>2748.000000</ele>
        <time>2021-09-05T08:59:54Z</time>
      </trkpt>
      <trkpt lat="42.638363" lon="0.442585">
        <ele>2748.000000</ele>
        <time>2021-09-05T08:59:55Z</time>
      </trkpt>
      <trkpt lat="42.638360" lon="0.442595">
        <ele>2748.000000</ele>
        <time>2021-09-05T08:59:56Z</time>
      </trkpt>
      <trkpt lat="42.638355" lon="0.442603">
        <ele>2748.000000</ele>
        <time>2021-09-05T08:59:57Z</time>
      </trkpt>
      <trkpt lat="42.638349" lon="0.442612">
        <ele>2748.000000</ele>
        <time>2021-09-05T08:59:58Z</time>
      </trkpt>
      <trkpt lat="42.638344" lon="0.442622">
        <ele>2748.000000</ele>
        <time>2021-09-05T08:59:59Z</time>
      </trkpt>
      <trkpt lat="42.638339" lon="0.442630">
        <ele>2748.000000</ele>
        <time>2021-09-05T09:00:00Z</time>
      </trkpt>
      <trkpt lat="42.638334" lon="0.442640">
        <ele>2748.000000</ele>
        <time>2021-09-05T09:00:01Z</time>
      </trkpt>
      <trkpt lat="42.638329" lon="0.442650">
        <ele>2748.000000</ele>
        <time>2021-09-05T09:00:02Z</time>
      </trkpt>
      <trkpt lat="42.638323" lon="0.442660">
        <ele>2748.000000</ele>
        <time>2021-09-05T09:00:03Z</time>
      </trkpt>
      <trkpt lat="42.638319" lon="0.442667">
        <ele>2748.000000</ele>
        <time>2021-09-05T09:00:04Z</time>
      </trkpt>
      <trkpt lat="42.638313" lon="0.442673">
        <ele>2747.000000</ele>
        <time>2021-09-05T09:00:05Z</time>
      </trkpt>
      <trkpt lat="42.638302" lon="0.442677">
        <ele>2747.000000</ele>
        <time>2021-09-05T09:00:06Z</time>
      </trkpt>
      <trkpt lat="42.638297" lon="0.442678">
        <ele>2747.000000</ele>
        <time>2021-09-05T09:00:07Z</time>
      </trkpt>
      <trkpt lat="42.638293" lon="0.442677">
        <ele>2746.000000</ele>
        <time>2021-09-05T09:00:08Z</time>
      </trkpt>
      <trkpt lat="42.638288" lon="0.442678">
        <ele>2746.000000</ele>
        <time>2021-09-05T09:00:09Z</time>
      </trkpt>
      <trkpt lat="42.638285" lon="0.442680">
        <ele>2746.000000</ele>
        <time>2021-09-05T09:00:10Z</time>
      </trkpt>
      <trkpt lat="42.638282" lon="0.442680">
        <ele>2745.000000</ele>
        <time>2021-09-05T09:00:12Z</time>
      </trkpt>
      <trkpt lat="42.638277" lon="0.442687">
        <ele>2745.000000</ele>
        <time>2021-09-05T09:00:12Z</time>
      </trkpt>
      <trkpt lat="42.638273" lon="0.442692">
        <ele>2745.000000</ele>
        <time>2021-09-05T09:00:13Z</time>
      </trkpt>
      <trkpt lat="42.638270" lon="0.442697">
        <ele>2744.000000</ele>
        <time>2021-09-05T09:00:14Z</time>
      </trkpt>
      <trkpt lat="42.638265" lon="0.442703">
        <ele>2744.000000</ele>
        <time>2021-09-05T09:00:15Z</time>
      </trkpt>
      <trkpt lat="42.638260" lon="0.442707">
        <ele>2744.000000</ele>
        <time>2021-09-05T09:00:16Z</time>
      </trkpt>
      <trkpt lat="42.638257" lon="0.442709">
        <ele>2744.000000</ele>
        <time>2021-09-05T09:00:17Z</time>
      </trkpt>
      <trkpt lat="42.638255" lon="0.442710">
        <ele>2744.000000</ele>
        <time>2021-09-05T09:00:18Z</time>
      </trkpt>
      <trkpt lat="42.638250" lon="0.442715">
        <ele>2743.000000</ele>
        <time>2021-09-05T09:00:19Z</time>
      </trkpt>
      <trkpt lat="42.638245" lon="0.442719">
        <ele>2743.000000</ele>
        <time>2021-09-05T09:00:20Z</time>
      </trkpt>
      <trkpt lat="42.638238" lon="0.442720">
        <ele>2743.000000</ele>
        <time>2021-09-05T09:00:21Z</time>
      </trkpt>
      <trkpt lat="42.638235" lon="0.442703">
        <ele>2742.000000</ele>
        <time>2021-09-05T09:00:22Z</time>
      </trkpt>
      <trkpt lat="42.638235" lon="0.442697">
        <ele>2742.000000</ele>
        <time>2021-09-05T09:00:23Z</time>
      </trkpt>
      <trkpt lat="42.638233" lon="0.442692">
        <ele>2742.000000</ele>
        <time>2021-09-05T09:00:24Z</time>
      </trkpt>
      <trkpt lat="42.638230" lon="0.442690">
        <ele>2742.000000</ele>
        <time>2021-09-05T09:00:25Z</time>
      </trkpt>
      <trkpt lat="42.638223" lon="0.442691">
        <ele>2741.000000</ele>
        <time>2021-09-05T09:00:26Z</time>
      </trkpt>
      <trkpt lat="42.638218" lon="0.442693">
        <ele>2741.000000</ele>
        <time>2021-09-05T09:00:27Z</time>
      </trkpt>
      <trkpt lat="42.638217" lon="0.442695">
        <ele>2741.000000</ele>
        <time>2021-09-05T09:00:28Z</time>
      </trkpt>
      <trkpt lat="42.638217" lon="0.442698">
        <ele>2741.000000</ele>
        <time>2021-09-05T09:00:29Z</time>
      </trkpt>
      <trkpt lat="42.638218" lon="0.442703">
        <ele>2741.000000</ele>
        <time>2021-09-05T09:00:30Z</time>
      </trkpt>
      <trkpt lat="42.638212" lon="0.442710">
        <ele>2741.000000</ele>
        <time>2021-09-05T09:00:32Z</time>
      </trkpt>
      <trkpt lat="42.638208" lon="0.442712">
        <ele>2741.000000</ele>
        <time>2021-09-05T09:00:32Z</time>
      </trkpt>
      <trkpt lat="42.638202" lon="0.442712">
        <ele>2741.000000</ele>
        <time>2021-09-05T09:00:33Z</time>
      </trkpt>
      <trkpt lat="42.638198" lon="0.442715">
        <ele>2741.000000</ele>
        <time>2021-09-05T09:00:34Z</time>
      </trkpt>
      <trkpt lat="42.638193" lon="0.442718">
        <ele>2741.000000</ele>
        <time>2021-09-05T09:00:35Z</time>
      </trkpt>
      <trkpt lat="42.638190" lon="0.442725">
        <ele>2741.000000</ele>
        <time>2021-09-05T09:00:36Z</time>
      </trkpt>
      <trkpt lat="42.638188" lon="0.442732">
        <ele>2741.000000</ele>
        <time>2021-09-05T09:00:37Z</time>
      </trkpt>
      <trkpt lat="42.638185" lon="0.442747">
        <ele>2741.000000</ele>
        <time>2021-09-05T09:00:38Z</time>
      </trkpt>
      <trkpt lat="42.638180" lon="0.442753">
        <ele>2741.000000</ele>
        <time>2021-09-05T09:00:39Z</time>
      </trkpt>
      <trkpt lat="42.638175" lon="0.442762">
        <ele>2741.000000</ele>
        <time>2021-09-05T09:00:40Z</time>
      </trkpt>
      <trkpt lat="42.638170" lon="0.442767">
        <ele>2741.000000</ele>
        <time>2021-09-05T09:00:41Z</time>
      </trkpt>
      <trkpt lat="42.638165" lon="0.442775">
        <ele>2741.000000</ele>
        <time>2021-09-05T09:00:42Z</time>
      </trkpt>
      <trkpt lat="42.638161" lon="0.442782">
        <ele>2741.000000</ele>
        <time>2021-09-05T09:00:43Z</time>
      </trkpt>
      <trkpt lat="42.638158" lon="0.442788">
        <ele>2741.000000</ele>
        <time>2021-09-05T09:00:44Z</time>
      </trkpt>
      <trkpt lat="42.638153" lon="0.442795">
        <ele>2741.000000</ele>
        <time>2021-09-05T09:00:45Z</time>
      </trkpt>
      <trkpt lat="42.638147" lon="0.442803">
        <ele>2741.000000</ele>
        <time>2021-09-05T09:00:46Z</time>
      </trkpt>
      <trkpt lat="42.638142" lon="0.442812">
        <ele>2741.000000</ele>
        <time>2021-09-05T09:00:47Z</time>
      </trkpt>
      <trkpt lat="42.638136" lon="0.442820">
        <ele>2741.000000</ele>
        <time>2021-09-05T09:00:48Z</time>
      </trkpt>
      <trkpt lat="42.638133" lon="0.442825">
        <ele>2741.000000</ele>
        <time>2021-09-05T09:00:49Z</time>
      </trkpt>
      <trkpt lat="42.638135" lon="0.442827">
        <ele>2740.000000</ele>
        <time>2021-09-05T09:00:51Z</time>
      </trkpt>
      <trkpt lat="42.638138" lon="0.442828">
        <ele>2740.000000</ele>
        <time>2021-09-05T09:00:52Z</time>
      </trkpt>
      <trkpt lat="42.638135" lon="0.442832">
        <ele>2740.000000</ele>
        <time>2021-09-05T09:00:53Z</time>
      </trkpt>
      <trkpt lat="42.638132" lon="0.442838">
        <ele>2740.000000</ele>
        <time>2021-09-05T09:00:54Z</time>
      </trkpt>
      <trkpt lat="42.638127" lon="0.442844">
        <ele>2740.000000</ele>
        <time>2021-09-05T09:00:56Z</time>
      </trkpt>
      <trkpt lat="42.638120" lon="0.442849">
        <ele>2739.000000</ele>
        <time>2021-09-05T09:00:56Z</time>
      </trkpt>
      <trkpt lat="42.638113" lon="0.442848">
        <ele>2739.000000</ele>
        <time>2021-09-05T09:00:57Z</time>
      </trkpt>
      <trkpt lat="42.638103" lon="0.442845">
        <ele>2739.000000</ele>
        <time>2021-09-05T09:00:58Z</time>
      </trkpt>
      <trkpt lat="42.638097" lon="0.442840">
        <ele>2739.000000</ele>
        <time>2021-09-05T09:00:59Z</time>
      </trkpt>
      <trkpt lat="42.638093" lon="0.442833">
        <ele>2738.000000</ele>
        <time>2021-09-05T09:01:00Z</time>
      </trkpt>
      <trkpt lat="42.638088" lon="0.442830">
        <ele>2738.000000</ele>
        <time>2021-09-05T09:01:01Z</time>
      </trkpt>
      <trkpt lat="42.638080" lon="0.442827">
        <ele>2737.000000</ele>
        <time>2021-09-05T09:01:02Z</time>
      </trkpt>
      <trkpt lat="42.638075" lon="0.442825">
        <ele>2737.000000</ele>
        <time>2021-09-05T09:01:03Z</time>
      </trkpt>
      <trkpt lat="42.638070" lon="0.442823">
        <ele>2737.000000</ele>
        <time>2021-09-05T09:01:04Z</time>
      </trkpt>
      <trkpt lat="42.638068" lon="0.442825">
        <ele>2737.000000</ele>
        <time>2021-09-05T09:01:05Z</time>
      </trkpt>
      <trkpt lat="42.638065" lon="0.442820">
        <ele>2737.000000</ele>
        <time>2021-09-05T09:01:08Z</time>
      </trkpt>
      <trkpt lat="42.638063" lon="0.442820">
        <ele>2737.000000</ele>
        <time>2021-09-05T09:01:10Z</time>
      </trkpt>
      <trkpt lat="42.638060" lon="0.442818">
        <ele>2736.000000</ele>
        <time>2021-09-05T09:01:11Z</time>
      </trkpt>
      <trkpt lat="42.638058" lon="0.442822">
        <ele>2736.000000</ele>
        <time>2021-09-05T09:01:12Z</time>
      </trkpt>
      <trkpt lat="42.638055" lon="0.442831">
        <ele>2736.000000</ele>
        <time>2021-09-05T09:01:13Z</time>
      </trkpt>
      <trkpt lat="42.638052" lon="0.442843">
        <ele>2736.000000</ele>
        <time>2021-09-05T09:01:14Z</time>
      </trkpt>
      <trkpt lat="42.638047" lon="0.442847">
        <ele>2735.000000</ele>
        <time>2021-09-05T09:01:15Z</time>
      </trkpt>
      <trkpt lat="42.638043" lon="0.442848">
        <ele>2735.000000</ele>
        <time>2021-09-05T09:01:16Z</time>
      </trkpt>
      <trkpt lat="42.638038" lon="0.442851">
        <ele>2735.000000</ele>
        <time>2021-09-05T09:01:17Z</time>
      </trkpt>
      <trkpt lat="42.638035" lon="0.442851">
        <ele>2735.000000</ele>
        <time>2021-09-05T09:01:18Z</time>
      </trkpt>
      <trkpt lat="42.638030" lon="0.442850">
        <ele>2734.000000</ele>
        <time>2021-09-05T09:01:20Z</time>
      </trkpt>
      <trkpt lat="42.638025" lon="0.442845">
        <ele>2734.000000</ele>
        <time>2021-09-05T09:01:20Z</time>
      </trkpt>
      <trkpt lat="42.638023" lon="0.442843">
        <ele>2734.000000</ele>
        <time>2021-09-05T09:01:21Z</time>
      </trkpt>
      <trkpt lat="42.638020" lon="0.442845">
        <ele>2733.000000</ele>
        <time>2021-09-05T09:01:22Z</time>
      </trkpt>
      <trkpt lat="42.638017" lon="0.442849">
        <ele>2733.000000</ele>
        <time>2021-09-05T09:01:23Z</time>
      </trkpt>
      <trkpt lat="42.638015" lon="0.442857">
        <ele>2733.000000</ele>
        <time>2021-09-05T09:01:24Z</time>
      </trkpt>
      <trkpt lat="42.638010" lon="0.442862">
        <ele>2733.000000</ele>
        <time>2021-09-05T09:01:25Z</time>
      </trkpt>
      <trkpt lat="42.638005" lon="0.442865">
        <ele>2733.000000</ele>
        <time>2021-09-05T09:01:26Z</time>
      </trkpt>
      <trkpt lat="42.637998" lon="0.442871">
        <ele>2733.000000</ele>
        <time>2021-09-05T09:01:27Z</time>
      </trkpt>
      <trkpt lat="42.637993" lon="0.442878">
        <ele>2733.000000</ele>
        <time>2021-09-05T09:01:28Z</time>
      </trkpt>
      <trkpt lat="42.637987" lon="0.442888">
        <ele>2733.000000</ele>
        <time>2021-09-05T09:01:29Z</time>
      </trkpt>
      <trkpt lat="42.637977" lon="0.442895">
        <ele>2732.000000</ele>
        <time>2021-09-05T09:01:30Z</time>
      </trkpt>
      <trkpt lat="42.637970" lon="0.442896">
        <ele>2732.000000</ele>
        <time>2021-09-05T09:01:31Z</time>
      </trkpt>
      <trkpt lat="42.637965" lon="0.442885">
        <ele>2732.000000</ele>
        <time>2021-09-05T09:01:32Z</time>
      </trkpt>
      <trkpt lat="42.637963" lon="0.442880">
        <ele>2731.000000</ele>
        <time>2021-09-05T09:01:33Z</time>
      </trkpt>
      <trkpt lat="42.637962" lon="0.442878">
        <ele>2731.000000</ele>
        <time>2021-09-05T09:01:34Z</time>
      </trkpt>
      <trkpt lat="42.637958" lon="0.442877">
        <ele>2731.000000</ele>
        <time>2021-09-05T09:01:35Z</time>
      </trkpt>
      <trkpt lat="42.637957" lon="0.442875">
        <ele>2731.000000</ele>
        <time>2021-09-05T09:01:36Z</time>
      </trkpt>
      <trkpt lat="42.637960" lon="0.442877">
        <ele>2730.000000</ele>
        <time>2021-09-05T09:01:37Z</time>
      </trkpt>
      <trkpt lat="42.637962" lon="0.442875">
        <ele>2730.000000</ele>
        <time>2021-09-05T09:01:40Z</time>
      </trkpt>
      <trkpt lat="42.637960" lon="0.442874">
        <ele>2730.000000</ele>
        <time>2021-09-05T09:01:40Z</time>
      </trkpt>
      <trkpt lat="42.637957" lon="0.442871">
        <ele>2730.000000</ele>
        <time>2021-09-05T09:01:41Z</time>
      </trkpt>
      <trkpt lat="42.637952" lon="0.442866">
        <ele>2729.000000</ele>
        <time>2021-09-05T09:01:42Z</time>
      </trkpt>
      <trkpt lat="42.637947" lon="0.442867">
        <ele>2729.000000</ele>
        <time>2021-09-05T09:01:43Z</time>
      </trkpt>
      <trkpt lat="42.637943" lon="0.442875">
        <ele>2729.000000</ele>
        <time>2021-09-05T09:01:44Z</time>
      </trkpt>
      <trkpt lat="42.637937" lon="0.442880">
        <ele>2729.000000</ele>
        <time>2021-09-05T09:01:45Z</time>
      </trkpt>
      <trkpt lat="42.637935" lon="0.442887">
        <ele>2728.000000</ele>
        <time>2021-09-05T09:01:46Z</time>
      </trkpt>
      <trkpt lat="42.637932" lon="0.442893">
        <ele>2728.000000</ele>
        <time>2021-09-05T09:01:47Z</time>
      </trkpt>
      <trkpt lat="42.637925" lon="0.442903">
        <ele>2728.000000</ele>
        <time>2021-09-05T09:01:48Z</time>
      </trkpt>
      <trkpt lat="42.637923" lon="0.442910">
        <ele>2728.000000</ele>
        <time>2021-09-05T09:01:49Z</time>
      </trkpt>
      <trkpt lat="42.637917" lon="0.442920">
        <ele>2728.000000</ele>
        <time>2021-09-05T09:01:50Z</time>
      </trkpt>
      <trkpt lat="42.637908" lon="0.442923">
        <ele>2728.000000</ele>
        <time>2021-09-05T09:01:51Z</time>
      </trkpt>
      <trkpt lat="42.637898" lon="0.442925">
        <ele>2728.000000</ele>
        <time>2021-09-05T09:01:52Z</time>
      </trkpt>
      <trkpt lat="42.637893" lon="0.442923">
        <ele>2727.000000</ele>
        <time>2021-09-05T09:01:53Z</time>
      </trkpt>
      <trkpt lat="42.637890" lon="0.442918">
        <ele>2727.000000</ele>
        <time>2021-09-05T09:01:54Z</time>
      </trkpt>
      <trkpt lat="42.637888" lon="0.442915">
        <ele>2727.000000</ele>
        <time>2021-09-05T09:01:55Z</time>
      </trkpt>
      <trkpt lat="42.637883" lon="0.442913">
        <ele>2726.000000</ele>
        <time>2021-09-05T09:01:56Z</time>
      </trkpt>
      <trkpt lat="42.637877" lon="0.442913">
        <ele>2726.000000</ele>
        <time>2021-09-05T09:01:57Z</time>
      </trkpt>
      <trkpt lat="42.637873" lon="0.442912">
        <ele>2726.000000</ele>
        <time>2021-09-05T09:01:58Z</time>
      </trkpt>
      <trkpt lat="42.637870" lon="0.442907">
        <ele>2725.000000</ele>
        <time>2021-09-05T09:01:59Z</time>
      </trkpt>
      <trkpt lat="42.637865" lon="0.442901">
        <ele>2725.000000</ele>
        <time>2021-09-05T09:02:00Z</time>
      </trkpt>
      <trkpt lat="42.637862" lon="0.442895">
        <ele>2725.000000</ele>
        <time>2021-09-05T09:02:01Z</time>
      </trkpt>
      <trkpt lat="42.637858" lon="0.442892">
        <ele>2725.000000</ele>
        <time>2021-09-05T09:02:02Z</time>
      </trkpt>
      <trkpt lat="42.637850" lon="0.442886">
        <ele>2725.000000</ele>
        <time>2021-09-05T09:02:04Z</time>
      </trkpt>
      <trkpt lat="42.637842" lon="0.442878">
        <ele>2725.000000</ele>
        <time>2021-09-05T09:02:04Z</time>
      </trkpt>
      <trkpt lat="42.637835" lon="0.442869">
        <ele>2725.000000</ele>
        <time>2021-09-05T09:02:05Z</time>
      </trkpt>
      <trkpt lat="42.637828" lon="0.442855">
        <ele>2724.000000</ele>
        <time>2021-09-05T09:02:06Z</time>
      </trkpt>
      <trkpt lat="42.637820" lon="0.442843">
        <ele>2723.000000</ele>
        <time>2021-09-05T09:02:07Z</time>
      </trkpt>
      <trkpt lat="42.637816" lon="0.442835">
        <ele>2722.000000</ele>
        <time>2021-09-05T09:02:08Z</time>
      </trkpt>
      <trkpt lat="42.637814" lon="0.442832">
        <ele>2722.000000</ele>
        <time>2021-09-05T09:02:09Z</time>
      </trkpt>
      <trkpt lat="42.637808" lon="0.442832">
        <ele>2722.000000</ele>
        <time>2021-09-05T09:02:10Z</time>
      </trkpt>
      <trkpt lat="42.637803" lon="0.442837">
        <ele>2722.000000</ele>
        <time>2021-09-05T09:02:11Z</time>
      </trkpt>
      <trkpt lat="42.637795" lon="0.442838">
        <ele>2722.000000</ele>
        <time>2021-09-05T09:02:12Z</time>
      </trkpt>
      <trkpt lat="42.637792" lon="0.442837">
        <ele>2722.000000</ele>
        <time>2021-09-05T09:02:13Z</time>
      </trkpt>
      <trkpt lat="42.637787" lon="0.442837">
        <ele>2722.000000</ele>
        <time>2021-09-05T09:02:14Z</time>
      </trkpt>
      <trkpt lat="42.637785" lon="0.442834">
        <ele>2722.000000</ele>
        <time>2021-09-05T09:02:15Z</time>
      </trkpt>
      <trkpt lat="42.637783" lon="0.442830">
        <ele>2722.000000</ele>
        <time>2021-09-05T09:02:17Z</time>
      </trkpt>
      <trkpt lat="42.637783" lon="0.442827">
        <ele>2722.000000</ele>
        <time>2021-09-05T09:02:18Z</time>
      </trkpt>
      <trkpt lat="42.637780" lon="0.442823">
        <ele>2722.000000</ele>
        <time>2021-09-05T09:02:20Z</time>
      </trkpt>
      <trkpt lat="42.637772" lon="0.442822">
        <ele>2722.000000</ele>
        <time>2021-09-05T09:02:21Z</time>
      </trkpt>
      <trkpt lat="42.637765" lon="0.442823">
        <ele>2722.000000</ele>
        <time>2021-09-05T09:02:22Z</time>
      </trkpt>
      <trkpt lat="42.637757" lon="0.442825">
        <ele>2722.000000</ele>
        <time>2021-09-05T09:02:23Z</time>
      </trkpt>
      <trkpt lat="42.637750" lon="0.442829">
        <ele>2722.000000</ele>
        <time>2021-09-05T09:02:24Z</time>
      </trkpt>
      <trkpt lat="42.637742" lon="0.442834">
        <ele>2721.000000</ele>
        <time>2021-09-05T09:02:25Z</time>
      </trkpt>
      <trkpt lat="42.637733" lon="0.442839">
        <ele>2721.000000</ele>
        <time>2021-09-05T09:02:26Z</time>
      </trkpt>
      <trkpt lat="42.637725" lon="0.442845">
        <ele>2721.000000</ele>
        <time>2021-09-05T09:02:28Z</time>
      </trkpt>
      <trkpt lat="42.637717" lon="0.442849">
        <ele>2721.000000</ele>
        <time>2021-09-05T09:02:28Z</time>
      </trkpt>
      <trkpt lat="42.637708" lon="0.442852">
        <ele>2721.000000</ele>
        <time>2021-09-05T09:02:29Z</time>
      </trkpt>
      <trkpt lat="42.637700" lon="0.442853">
        <ele>2720.000000</ele>
        <time>2021-09-05T09:02:30Z</time>
      </trkpt>
      <trkpt lat="42.637688" lon="0.442842">
        <ele>2720.000000</ele>
        <time>2021-09-05T09:02:31Z</time>
      </trkpt>
      <trkpt lat="42.637683" lon="0.442830">
        <ele>2720.000000</ele>
        <time>2021-09-05T09:02:32Z</time>
      </trkpt>
      <trkpt lat="42.637677" lon="0.442823">
        <ele>2719.000000</ele>
        <time>2021-09-05T09:02:33Z</time>
      </trkpt>
      <trkpt lat="42.637672" lon="0.442817">
        <ele>2719.000000</ele>
        <time>2021-09-05T09:02:34Z</time>
      </trkpt>
      <trkpt lat="42.637665" lon="0.442810">
        <ele>2719.000000</ele>
        <time>2021-09-05T09:02:35Z</time>
      </trkpt>
      <trkpt lat="42.637658" lon="0.442804">
        <ele>2719.000000</ele>
        <time>2021-09-05T09:02:36Z</time>
      </trkpt>
      <trkpt lat="42.637655" lon="0.442800">
        <ele>2718.000000</ele>
        <time>2021-09-05T09:02:37Z</time>
      </trkpt>
      <trkpt lat="42.637648" lon="0.442798">
        <ele>2718.000000</ele>
        <time>2021-09-05T09:02:38Z</time>
      </trkpt>
      <trkpt lat="42.637643" lon="0.442798">
        <ele>2718.000000</ele>
        <time>2021-09-05T09:02:39Z</time>
      </trkpt>
      <trkpt lat="42.637633" lon="0.442795">
        <ele>2717.000000</ele>
        <time>2021-09-05T09:02:40Z</time>
      </trkpt>
      <trkpt lat="42.637623" lon="0.442793">
        <ele>2717.000000</ele>
        <time>2021-09-05T09:02:41Z</time>
      </trkpt>
      <trkpt lat="42.637618" lon="0.442793">
        <ele>2717.000000</ele>
        <time>2021-09-05T09:02:42Z</time>
      </trkpt>
      <trkpt lat="42.637610" lon="0.442792">
        <ele>2717.000000</ele>
        <time>2021-09-05T09:02:43Z</time>
      </trkpt>
      <trkpt lat="42.637602" lon="0.442790">
        <ele>2717.000000</ele>
        <time>2021-09-05T09:02:44Z</time>
      </trkpt>
      <trkpt lat="42.637595" lon="0.442787">
        <ele>2716.000000</ele>
        <time>2021-09-05T09:02:45Z</time>
      </trkpt>
      <trkpt lat="42.637588" lon="0.442782">
        <ele>2716.000000</ele>
        <time>2021-09-05T09:02:46Z</time>
      </trkpt>
      <trkpt lat="42.637578" lon="0.442772">
        <ele>2716.000000</ele>
        <time>2021-09-05T09:02:48Z</time>
      </trkpt>
      <trkpt lat="42.637572" lon="0.442763">
        <ele>2716.000000</ele>
        <time>2021-09-05T09:02:48Z</time>
      </trkpt>
      <trkpt lat="42.637565" lon="0.442756">
        <ele>2715.000000</ele>
        <time>2021-09-05T09:02:49Z</time>
      </trkpt>
      <trkpt lat="42.637555" lon="0.442751">
        <ele>2715.000000</ele>
        <time>2021-09-05T09:02:50Z</time>
      </trkpt>
      <trkpt lat="42.637542" lon="0.442748">
        <ele>2715.000000</ele>
        <time>2021-09-05T09:02:51Z</time>
      </trkpt>
      <trkpt lat="42.637533" lon="0.442747">
        <ele>2715.000000</ele>
        <time>2021-09-05T09:02:52Z</time>
      </trkpt>
      <trkpt lat="42.637528" lon="0.442747">
        <ele>2715.000000</ele>
        <time>2021-09-05T09:02:53Z</time>
      </trkpt>
      <trkpt lat="42.637520" lon="0.442749">
        <ele>2715.000000</ele>
        <time>2021-09-05T09:02:54Z</time>
      </trkpt>
      <trkpt lat="42.637517" lon="0.442762">
        <ele>2715.000000</ele>
        <time>2021-09-05T09:02:55Z</time>
      </trkpt>
      <trkpt lat="42.637517" lon="0.442770">
        <ele>2715.000000</ele>
        <time>2021-09-05T09:02:56Z</time>
      </trkpt>
      <trkpt lat="42.637515" lon="0.442777">
        <ele>2715.000000</ele>
        <time>2021-09-05T09:02:57Z</time>
      </trkpt>
      <trkpt lat="42.637520" lon="0.442785">
        <ele>2715.000000</ele>
        <time>2021-09-05T09:02:58Z</time>
      </trkpt>
      <trkpt lat="42.637523" lon="0.442795">
        <ele>2716.000000</ele>
        <time>2021-09-05T09:02:59Z</time>
      </trkpt>
      <trkpt lat="42.637522" lon="0.442802">
        <ele>2716.000000</ele>
        <time>2021-09-05T09:03:00Z</time>
      </trkpt>
      <trkpt lat="42.637522" lon="0.442810">
        <ele>2716.000000</ele>
        <time>2021-09-05T09:03:01Z</time>
      </trkpt>
      <trkpt lat="42.637520" lon="0.442817">
        <ele>2716.000000</ele>
        <time>2021-09-05T09:03:02Z</time>
      </trkpt>
      <trkpt lat="42.637515" lon="0.442832">
        <ele>2716.000000</ele>
        <time>2021-09-05T09:03:03Z</time>
      </trkpt>
      <trkpt lat="42.637512" lon="0.442842">
        <ele>2717.000000</ele>
        <time>2021-09-05T09:03:04Z</time>
      </trkpt>
      <trkpt lat="42.637508" lon="0.442850">
        <ele>2717.000000</ele>
        <time>2021-09-05T09:03:05Z</time>
      </trkpt>
      <trkpt lat="42.637505" lon="0.442862">
        <ele>2717.000000</ele>
        <time>2021-09-05T09:03:06Z</time>
      </trkpt>
      <trkpt lat="42.637500" lon="0.442867">
        <ele>2717.000000</ele>
        <time>2021-09-05T09:03:07Z</time>
      </trkpt>
      <trkpt lat="42.637497" lon="0.442867">
        <ele>2716.000000</ele>
        <time>2021-09-05T09:03:08Z</time>
      </trkpt>
      <trkpt lat="42.637495" lon="0.442863">
        <ele>2716.000000</ele>
        <time>2021-09-05T09:03:09Z</time>
      </trkpt>
      <trkpt lat="42.637493" lon="0.442862">
        <ele>2714.000000</ele>
        <time>2021-09-05T09:03:10Z</time>
      </trkpt>
      <trkpt lat="42.637492" lon="0.442858">
        <ele>2712.000000</ele>
        <time>2021-09-05T09:03:12Z</time>
      </trkpt>
      <trkpt lat="42.637490" lon="0.442855">
        <ele>2709.000000</ele>
        <time>2021-09-05T09:03:12Z</time>
      </trkpt>
      <trkpt lat="42.637490" lon="0.442853">
        <ele>2708.000000</ele>
        <time>2021-09-05T09:03:13Z</time>
      </trkpt>
      <trkpt lat="42.637491" lon="0.442850">
        <ele>2706.000000</ele>
        <time>2021-09-05T09:03:14Z</time>
      </trkpt>
      <trkpt lat="42.637523" lon="0.442913">
        <ele>2716.000000</ele>
        <time>2021-09-05T09:03:41Z</time>
      </trkpt>
      <trkpt lat="42.637518" lon="0.442933">
        <ele>2716.000000</ele>
        <time>2021-09-05T09:03:42Z</time>
      </trkpt>
      <trkpt lat="42.637513" lon="0.442953">
        <ele>2716.000000</ele>
        <time>2021-09-05T09:03:43Z</time>
      </trkpt>
      <trkpt lat="42.637508" lon="0.442967">
        <ele>2716.000000</ele>
        <time>2021-09-05T09:03:44Z</time>
      </trkpt>
      <trkpt lat="42.637503" lon="0.442983">
        <ele>2716.000000</ele>
        <time>2021-09-05T09:03:45Z</time>
      </trkpt>
      <trkpt lat="42.637502" lon="0.442987">
        <ele>2716.000000</ele>
        <time>2021-09-05T09:03:46Z</time>
      </trkpt>
      <trkpt lat="42.637502" lon="0.442990">
        <ele>2716.000000</ele>
        <time>2021-09-05T09:03:47Z</time>
      </trkpt>
      <trkpt lat="42.637502" lon="0.442995">
        <ele>2716.000000</ele>
        <time>2021-09-05T09:03:48Z</time>
      </trkpt>
      <trkpt lat="42.637502" lon="0.443000">
        <ele>2716.000000</ele>
        <time>2021-09-05T09:03:49Z</time>
      </trkpt>
      <trkpt lat="42.637503" lon="0.443000">
        <ele>2714.000000</ele>
        <time>2021-09-05T09:03:51Z</time>
      </trkpt>
      <trkpt lat="42.637504" lon="0.442998">
        <ele>2714.000000</ele>
        <time>2021-09-05T09:03:52Z</time>
      </trkpt>
      <trkpt lat="42.637507" lon="0.442995">
        <ele>2713.000000</ele>
        <time>2021-09-05T09:03:54Z</time>
      </trkpt>
      <trkpt lat="42.637507" lon="0.442997">
        <ele>2713.000000</ele>
        <time>2021-09-05T09:03:56Z</time>
      </trkpt>
      <trkpt lat="42.637447" lon="0.443028">
        <ele>2709.000000</ele>
        <time>2021-09-05T09:04:40Z</time>
      </trkpt>
      <trkpt lat="42.637440" lon="0.443035">
        <ele>2709.000000</ele>
        <time>2021-09-05T09:04:41Z</time>
      </trkpt>
      <trkpt lat="42.637430" lon="0.443042">
        <ele>2709.000000</ele>
        <time>2021-09-05T09:04:42Z</time>
      </trkpt>
      <trkpt lat="42.637423" lon="0.443046">
        <ele>2711.000000</ele>
        <time>2021-09-05T09:04:43Z</time>
      </trkpt>
      <trkpt lat="42.637420" lon="0.443049">
        <ele>2711.000000</ele>
        <time>2021-09-05T09:04:44Z</time>
      </trkpt>
      <trkpt lat="42.637413" lon="0.443054">
        <ele>2711.000000</ele>
        <time>2021-09-05T09:04:45Z</time>
      </trkpt>
      <trkpt lat="42.637408" lon="0.443056">
        <ele>2711.000000</ele>
        <time>2021-09-05T09:04:46Z</time>
      </trkpt>
      <trkpt lat="42.637405" lon="0.443056">
        <ele>2711.000000</ele>
        <time>2021-09-05T09:04:47Z</time>
      </trkpt>
      <trkpt lat="42.637403" lon="0.443048">
        <ele>2711.000000</ele>
        <time>2021-09-05T09:04:48Z</time>
      </trkpt>
      <trkpt lat="42.637402" lon="0.443050">
        <ele>2711.000000</ele>
        <time>2021-09-05T09:04:49Z</time>
      </trkpt>
      <trkpt lat="42.637397" lon="0.443045">
        <ele>2713.000000</ele>
        <time>2021-09-05T09:04:55Z</time>
      </trkpt>
      <trkpt lat="42.637398" lon="0.443050">
        <ele>2714.000000</ele>
        <time>2021-09-05T09:04:58Z</time>
      </trkpt>
      <trkpt lat="42.637413" lon="0.443083">
        <ele>2713.000000</ele>
        <time>2021-09-05T09:06:08Z</time>
      </trkpt>
      <trkpt lat="42.637400" lon="0.443093">
        <ele>2713.000000</ele>
        <time>2021-09-05T09:06:09Z</time>
      </trkpt>
      <trkpt lat="42.637387" lon="0.443102">
        <ele>2713.000000</ele>
        <time>2021-09-05T09:06:10Z</time>
      </trkpt>
      <trkpt lat="42.637373" lon="0.443110">
        <ele>2713.000000</ele>
        <time>2021-09-05T09:06:11Z</time>
      </trkpt>
      <trkpt lat="42.637363" lon="0.443123">
        <ele>2713.000000</ele>
        <time>2021-09-05T09:06:12Z</time>
      </trkpt>
      <trkpt lat="42.637355" lon="0.443134">
        <ele>2713.000000</ele>
        <time>2021-09-05T09:06:13Z</time>
      </trkpt>
      <trkpt lat="42.637347" lon="0.443151">
        <ele>2713.000000</ele>
        <time>2021-09-05T09:06:14Z</time>
      </trkpt>
      <trkpt lat="42.637338" lon="0.443173">
        <ele>2713.000000</ele>
        <time>2021-09-05T09:06:15Z</time>
      </trkpt>
      <trkpt lat="42.637330" lon="0.443192">
        <ele>2713.000000</ele>
        <time>2021-09-05T09:06:16Z</time>
      </trkpt>
      <trkpt lat="42.637325" lon="0.443205">
        <ele>2713.000000</ele>
        <time>2021-09-05T09:06:17Z</time>
      </trkpt>
      <trkpt lat="42.637319" lon="0.443220">
        <ele>2713.000000</ele>
        <time>2021-09-05T09:06:18Z</time>
      </trkpt>
      <trkpt lat="42.637313" lon="0.443230">
        <ele>2712.000000</ele>
        <time>2021-09-05T09:06:19Z</time>
      </trkpt>
      <trkpt lat="42.637305" lon="0.443237">
        <ele>2712.000000</ele>
        <time>2021-09-05T09:06:20Z</time>
      </trkpt>
      <trkpt lat="42.637294" lon="0.443250">
        <ele>2712.000000</ele>
        <time>2021-09-05T09:06:21Z</time>
      </trkpt>
      <trkpt lat="42.637287" lon="0.443257">
        <ele>2712.000000</ele>
        <time>2021-09-05T09:06:22Z</time>
      </trkpt>
      <trkpt lat="42.637277" lon="0.443268">
        <ele>2711.000000</ele>
        <time>2021-09-05T09:06:23Z</time>
      </trkpt>
      <trkpt lat="42.637266" lon="0.443283">
        <ele>2711.000000</ele>
        <time>2021-09-05T09:06:24Z</time>
      </trkpt>
      <trkpt lat="42.637257" lon="0.443295">
        <ele>2711.000000</ele>
        <time>2021-09-05T09:06:25Z</time>
      </trkpt>
      <trkpt lat="42.637248" lon="0.443307">
        <ele>2711.000000</ele>
        <time>2021-09-05T09:06:26Z</time>
      </trkpt>
      <trkpt lat="42.637240" lon="0.443317">
        <ele>2710.000000</ele>
        <time>2021-09-05T09:06:28Z</time>
      </trkpt>
      <trkpt lat="42.637227" lon="0.443325">
        <ele>2710.000000</ele>
        <time>2021-09-05T09:06:28Z</time>
      </trkpt>
      <trkpt lat="42.637218" lon="0.443336">
        <ele>2710.000000</ele>
        <time>2021-09-05T09:06:29Z</time>
      </trkpt>
      <trkpt lat="42.637213" lon="0.443352">
        <ele>2710.000000</ele>
        <time>2021-09-05T09:06:30Z</time>
      </trkpt>
      <trkpt lat="42.637210" lon="0.443360">
        <ele>2710.000000</ele>
        <time>2021-09-05T09:06:31Z</time>
      </trkpt>
      <trkpt lat="42.637203" lon="0.443377">
        <ele>2710.000000</ele>
        <time>2021-09-05T09:06:32Z</time>
      </trkpt>
      <trkpt lat="42.637196" lon="0.443392">
        <ele>2710.000000</ele>
        <time>2021-09-05T09:06:33Z</time>
      </trkpt>
      <trkpt lat="42.637188" lon="0.443408">
        <ele>2709.000000</ele>
        <time>2021-09-05T09:06:34Z</time>
      </trkpt>
      <trkpt lat="42.637182" lon="0.443420">
        <ele>2709.000000</ele>
        <time>2021-09-05T09:06:35Z</time>
      </trkpt>
      <trkpt lat="42.637176" lon="0.443435">
        <ele>2709.000000</ele>
        <time>2021-09-05T09:06:36Z</time>
      </trkpt>
      <trkpt lat="42.637171" lon="0.443442">
        <ele>2708.000000</ele>
        <time>2021-09-05T09:06:37Z</time>
      </trkpt>
      <trkpt lat="42.637163" lon="0.443455">
        <ele>2708.000000</ele>
        <time>2021-09-05T09:06:38Z</time>
      </trkpt>
      <trkpt lat="42.637153" lon="0.443468">
        <ele>2708.000000</ele>
        <time>2021-09-05T09:06:39Z</time>
      </trkpt>
      <trkpt lat="42.637145" lon="0.443480">
        <ele>2706.000000</ele>
        <time>2021-09-05T09:06:40Z</time>
      </trkpt>
      <trkpt lat="42.637137" lon="0.443492">
        <ele>2706.000000</ele>
        <time>2021-09-05T09:06:41Z</time>
      </trkpt>
      <trkpt lat="42.637127" lon="0.443505">
        <ele>2706.000000</ele>
        <time>2021-09-05T09:06:42Z</time>
      </trkpt>
      <trkpt lat="42.637108" lon="0.443510">
        <ele>2705.000000</ele>
        <time>2021-09-05T09:06:43Z</time>
      </trkpt>
      <trkpt lat="42.637098" lon="0.443513">
        <ele>2705.000000</ele>
        <time>2021-09-05T09:06:44Z</time>
      </trkpt>
      <trkpt lat="42.637087" lon="0.443521">
        <ele>2703.000000</ele>
        <time>2021-09-05T09:06:45Z</time>
      </trkpt>
      <trkpt lat="42.637080" lon="0.443528">
        <ele>2703.000000</ele>
        <time>2021-09-05T09:06:46Z</time>
      </trkpt>
      <trkpt lat="42.637072" lon="0.443540">
        <ele>2702.000000</ele>
        <time>2021-09-05T09:06:47Z</time>
      </trkpt>
      <trkpt lat="42.637065" lon="0.443553">
        <ele>2702.000000</ele>
        <time>2021-09-05T09:06:48Z</time>
      </trkpt>
      <trkpt lat="42.637057" lon="0.443566">
        <ele>2701.000000</ele>
        <time>2021-09-05T09:06:49Z</time>
      </trkpt>
      <trkpt lat="42.637047" lon="0.443580">
        <ele>2701.000000</ele>
        <time>2021-09-05T09:06:50Z</time>
      </trkpt>
      <trkpt lat="42.637040" lon="0.443592">
        <ele>2701.000000</ele>
        <time>2021-09-05T09:06:52Z</time>
      </trkpt>
      <trkpt lat="42.637033" lon="0.443610">
        <ele>2700.000000</ele>
        <time>2021-09-05T09:06:52Z</time>
      </trkpt>
      <trkpt lat="42.637024" lon="0.443627">
        <ele>2700.000000</ele>
        <time>2021-09-05T09:06:53Z</time>
      </trkpt>
      <trkpt lat="42.637015" lon="0.443640">
        <ele>2700.000000</ele>
        <time>2021-09-05T09:06:54Z</time>
      </trkpt>
      <trkpt lat="42.637005" lon="0.443657">
        <ele>2700.000000</ele>
        <time>2021-09-05T09:06:55Z</time>
      </trkpt>
      <trkpt lat="42.636995" lon="0.443675">
        <ele>2700.000000</ele>
        <time>2021-09-05T09:06:56Z</time>
      </trkpt>
      <trkpt lat="42.636986" lon="0.443692">
        <ele>2700.000000</ele>
        <time>2021-09-05T09:06:57Z</time>
      </trkpt>
      <trkpt lat="42.636977" lon="0.443708">
        <ele>2699.000000</ele>
        <time>2021-09-05T09:06:58Z</time>
      </trkpt>
      <trkpt lat="42.636969" lon="0.443718">
        <ele>2699.000000</ele>
        <time>2021-09-05T09:06:59Z</time>
      </trkpt>
      <trkpt lat="42.636955" lon="0.443723">
        <ele>2699.000000</ele>
        <time>2021-09-05T09:07:00Z</time>
      </trkpt>
      <trkpt lat="42.636942" lon="0.443723">
        <ele>2698.000000</ele>
        <time>2021-09-05T09:07:01Z</time>
      </trkpt>
      <trkpt lat="42.636927" lon="0.443722">
        <ele>2698.000000</ele>
        <time>2021-09-05T09:07:02Z</time>
      </trkpt>
      <trkpt lat="42.636915" lon="0.443728">
        <ele>2697.000000</ele>
        <time>2021-09-05T09:07:03Z</time>
      </trkpt>
      <trkpt lat="42.636905" lon="0.443739">
        <ele>2697.000000</ele>
        <time>2021-09-05T09:07:04Z</time>
      </trkpt>
      <trkpt lat="42.636897" lon="0.443750">
        <ele>2696.000000</ele>
        <time>2021-09-05T09:07:05Z</time>
      </trkpt>
      <trkpt lat="42.636888" lon="0.443765">
        <ele>2696.000000</ele>
        <time>2021-09-05T09:07:06Z</time>
      </trkpt>
      <trkpt lat="42.636878" lon="0.443778">
        <ele>2695.000000</ele>
        <time>2021-09-05T09:07:07Z</time>
      </trkpt>
      <trkpt lat="42.636868" lon="0.443793">
        <ele>2695.000000</ele>
        <time>2021-09-05T09:07:08Z</time>
      </trkpt>
      <trkpt lat="42.636862" lon="0.443808">
        <ele>2694.000000</ele>
        <time>2021-09-05T09:07:09Z</time>
      </trkpt>
      <trkpt lat="42.636855" lon="0.443823">
        <ele>2694.000000</ele>
        <time>2021-09-05T09:07:10Z</time>
      </trkpt>
      <trkpt lat="42.636848" lon="0.443837">
        <ele>2694.000000</ele>
        <time>2021-09-05T09:07:11Z</time>
      </trkpt>
      <trkpt lat="42.636838" lon="0.443850">
        <ele>2693.000000</ele>
        <time>2021-09-05T09:07:12Z</time>
      </trkpt>
      <trkpt lat="42.636827" lon="0.443855">
        <ele>2693.000000</ele>
        <time>2021-09-05T09:07:13Z</time>
      </trkpt>
      <trkpt lat="42.636818" lon="0.443856">
        <ele>2692.000000</ele>
        <time>2021-09-05T09:07:14Z</time>
      </trkpt>
      <trkpt lat="42.636810" lon="0.443860">
        <ele>2692.000000</ele>
        <time>2021-09-05T09:07:16Z</time>
      </trkpt>
      <trkpt lat="42.636800" lon="0.443868">
        <ele>2691.000000</ele>
        <time>2021-09-05T09:07:16Z</time>
      </trkpt>
      <trkpt lat="42.636793" lon="0.443869">
        <ele>2691.000000</ele>
        <time>2021-09-05T09:07:17Z</time>
      </trkpt>
      <trkpt lat="42.636785" lon="0.443871">
        <ele>2689.000000</ele>
        <time>2021-09-05T09:07:18Z</time>
      </trkpt>
      <trkpt lat="42.636782" lon="0.443870">
        <ele>2689.000000</ele>
        <time>2021-09-05T09:07:19Z</time>
      </trkpt>
      <trkpt lat="42.636780" lon="0.443869">
        <ele>2687.000000</ele>
        <time>2021-09-05T09:07:22Z</time>
      </trkpt>
      <trkpt lat="42.636778" lon="0.443869">
        <ele>2687.000000</ele>
        <time>2021-09-05T09:07:23Z</time>
      </trkpt>
      <trkpt lat="42.636770" lon="0.443870">
        <ele>2686.000000</ele>
        <time>2021-09-05T09:07:24Z</time>
      </trkpt>
      <trkpt lat="42.636758" lon="0.443870">
        <ele>2686.000000</ele>
        <time>2021-09-05T09:07:25Z</time>
      </trkpt>
      <trkpt lat="42.636745" lon="0.443862">
        <ele>2684.000000</ele>
        <time>2021-09-05T09:07:26Z</time>
      </trkpt>
      <trkpt lat="42.636733" lon="0.443858">
        <ele>2684.000000</ele>
        <time>2021-09-05T09:07:27Z</time>
      </trkpt>
      <trkpt lat="42.636720" lon="0.443862">
        <ele>2684.000000</ele>
        <time>2021-09-05T09:07:28Z</time>
      </trkpt>
      <trkpt lat="42.636710" lon="0.443871">
        <ele>2684.000000</ele>
        <time>2021-09-05T09:07:29Z</time>
      </trkpt>
      <trkpt lat="42.636700" lon="0.443882">
        <ele>2684.000000</ele>
        <time>2021-09-05T09:07:30Z</time>
      </trkpt>
      <trkpt lat="42.636692" lon="0.443893">
        <ele>2684.000000</ele>
        <time>2021-09-05T09:07:31Z</time>
      </trkpt>
      <trkpt lat="42.636682" lon="0.443902">
        <ele>2684.000000</ele>
        <time>2021-09-05T09:07:32Z</time>
      </trkpt>
      <trkpt lat="42.636672" lon="0.443905">
        <ele>2684.000000</ele>
        <time>2021-09-05T09:07:33Z</time>
      </trkpt>
      <trkpt lat="42.636660" lon="0.443911">
        <ele>2684.000000</ele>
        <time>2021-09-05T09:07:35Z</time>
      </trkpt>
      <trkpt lat="42.636645" lon="0.443921">
        <ele>2683.000000</ele>
        <time>2021-09-05T09:07:35Z</time>
      </trkpt>
      <trkpt lat="42.636633" lon="0.443929">
        <ele>2683.000000</ele>
        <time>2021-09-05T09:07:36Z</time>
      </trkpt>
      <trkpt lat="42.636617" lon="0.443941">
        <ele>2683.000000</ele>
        <time>2021-09-05T09:07:37Z</time>
      </trkpt>
      <trkpt lat="42.636605" lon="0.443952">
        <ele>2682.000000</ele>
        <time>2021-09-05T09:07:38Z</time>
      </trkpt>
      <trkpt lat="42.636593" lon="0.443965">
        <ele>2682.000000</ele>
        <time>2021-09-05T09:07:39Z</time>
      </trkpt>
      <trkpt lat="42.636578" lon="0.443983">
        <ele>2682.000000</ele>
        <time>2021-09-05T09:07:40Z</time>
      </trkpt>
      <trkpt lat="42.636567" lon="0.443995">
        <ele>2682.000000</ele>
        <time>2021-09-05T09:07:41Z</time>
      </trkpt>
      <trkpt lat="42.636558" lon="0.444007">
        <ele>2682.000000</ele>
        <time>2021-09-05T09:07:42Z</time>
      </trkpt>
      <trkpt lat="42.636552" lon="0.444017">
        <ele>2682.000000</ele>
        <time>2021-09-05T09:07:43Z</time>
      </trkpt>
      <trkpt lat="42.636548" lon="0.444048">
        <ele>2682.000000</ele>
        <time>2021-09-05T09:07:44Z</time>
      </trkpt>
      <trkpt lat="42.636545" lon="0.444067">
        <ele>2682.000000</ele>
        <time>2021-09-05T09:07:45Z</time>
      </trkpt>
      <trkpt lat="42.636545" lon="0.444085">
        <ele>2682.000000</ele>
        <time>2021-09-05T09:07:46Z</time>
      </trkpt>
      <trkpt lat="42.636542" lon="0.444100">
        <ele>2682.000000</ele>
        <time>2021-09-05T09:07:47Z</time>
      </trkpt>
      <trkpt lat="42.636537" lon="0.444110">
        <ele>2682.000000</ele>
        <time>2021-09-05T09:07:48Z</time>
      </trkpt>
      <trkpt lat="42.636530" lon="0.444127">
        <ele>2682.000000</ele>
        <time>2021-09-05T09:07:49Z</time>
      </trkpt>
      <trkpt lat="42.636522" lon="0.444145">
        <ele>2682.000000</ele>
        <time>2021-09-05T09:07:50Z</time>
      </trkpt>
      <trkpt lat="42.636517" lon="0.444158">
        <ele>2682.000000</ele>
        <time>2021-09-05T09:07:51Z</time>
      </trkpt>
      <trkpt lat="42.636514" lon="0.444177">
        <ele>2682.000000</ele>
        <time>2021-09-05T09:07:52Z</time>
      </trkpt>
      <trkpt lat="42.636511" lon="0.444195">
        <ele>2682.000000</ele>
        <time>2021-09-05T09:07:53Z</time>
      </trkpt>
      <trkpt lat="42.636506" lon="0.444213">
        <ele>2682.000000</ele>
        <time>2021-09-05T09:07:54Z</time>
      </trkpt>
      <trkpt lat="42.636501" lon="0.444228">
        <ele>2681.000000</ele>
        <time>2021-09-05T09:07:55Z</time>
      </trkpt>
      <trkpt lat="42.636497" lon="0.444242">
        <ele>2681.000000</ele>
        <time>2021-09-05T09:07:56Z</time>
      </trkpt>
      <trkpt lat="42.636494" lon="0.444253">
        <ele>2681.000000</ele>
        <time>2021-09-05T09:07:57Z</time>
      </trkpt>
      <trkpt lat="42.636492" lon="0.444267">
        <ele>2681.000000</ele>
        <time>2021-09-05T09:07:59Z</time>
      </trkpt>
      <trkpt lat="42.636491" lon="0.444280">
        <ele>2681.000000</ele>
        <time>2021-09-05T09:07:59Z</time>
      </trkpt>
      <trkpt lat="42.636502" lon="0.444290">
        <ele>2681.000000</ele>
        <time>2021-09-05T09:08:00Z</time>
      </trkpt>
      <trkpt lat="42.636502" lon="0.444305">
        <ele>2681.000000</ele>
        <time>2021-09-05T09:08:01Z</time>
      </trkpt>
      <trkpt lat="42.636499" lon="0.444315">
        <ele>2680.000000</ele>
        <time>2021-09-05T09:08:02Z</time>
      </trkpt>
      <trkpt lat="42.636497" lon="0.444318">
        <ele>2680.000000</ele>
        <time>2021-09-05T09:08:03Z</time>
      </trkpt>
      <trkpt lat="42.636497" lon="0.444322">
        <ele>2680.000000</ele>
        <time>2021-09-05T09:08:04Z</time>
      </trkpt>
      <trkpt lat="42.636495" lon="0.444320">
        <ele>2680.000000</ele>
        <time>2021-09-05T09:08:05Z</time>
      </trkpt>
      <trkpt lat="42.636495" lon="0.444327">
        <ele>2679.000000</ele>
        <time>2021-09-05T09:08:06Z</time>
      </trkpt>
      <trkpt lat="42.636495" lon="0.444335">
        <ele>2679.000000</ele>
        <time>2021-09-05T09:08:07Z</time>
      </trkpt>
      <trkpt lat="42.636495" lon="0.444347">
        <ele>2679.000000</ele>
        <time>2021-09-05T09:08:08Z</time>
      </trkpt>
      <trkpt lat="42.636495" lon="0.444352">
        <ele>2678.000000</ele>
        <time>2021-09-05T09:08:09Z</time>
      </trkpt>
      <trkpt lat="42.636493" lon="0.444358">
        <ele>2677.000000</ele>
        <time>2021-09-05T09:08:12Z</time>
      </trkpt>
      <trkpt lat="42.636492" lon="0.444365">
        <ele>2677.000000</ele>
        <time>2021-09-05T09:08:13Z</time>
      </trkpt>
      <trkpt lat="42.636490" lon="0.444375">
        <ele>2677.000000</ele>
        <time>2021-09-05T09:08:14Z</time>
      </trkpt>
      <trkpt lat="42.636487" lon="0.444388">
        <ele>2678.000000</ele>
        <time>2021-09-05T09:08:15Z</time>
      </trkpt>
      <trkpt lat="42.636487" lon="0.444400">
        <ele>2678.000000</ele>
        <time>2021-09-05T09:08:16Z</time>
      </trkpt>
      <trkpt lat="42.636485" lon="0.444412">
        <ele>2678.000000</ele>
        <time>2021-09-05T09:08:16Z</time>
      </trkpt>
      <trkpt lat="42.636485" lon="0.444428">
        <ele>2678.000000</ele>
        <time>2021-09-05T09:08:17Z</time>
      </trkpt>
      <trkpt lat="42.636486" lon="0.444447">
        <ele>2678.000000</ele>
        <time>2021-09-05T09:08:18Z</time>
      </trkpt>
      <trkpt lat="42.636487" lon="0.444458">
        <ele>2678.000000</ele>
        <time>2021-09-05T09:08:19Z</time>
      </trkpt>
      <trkpt lat="42.636487" lon="0.444465">
        <ele>2678.000000</ele>
        <time>2021-09-05T09:08:20Z</time>
      </trkpt>
      <trkpt lat="42.636485" lon="0.444477">
        <ele>2678.000000</ele>
        <time>2021-09-05T09:08:22Z</time>
      </trkpt>
      <trkpt lat="42.636483" lon="0.444487">
        <ele>2678.000000</ele>
        <time>2021-09-05T09:08:22Z</time>
      </trkpt>
      <trkpt lat="42.636480" lon="0.444498">
        <ele>2678.000000</ele>
        <time>2021-09-05T09:08:23Z</time>
      </trkpt>
      <trkpt lat="42.636478" lon="0.444508">
        <ele>2678.000000</ele>
        <time>2021-09-05T09:08:24Z</time>
      </trkpt>
      <trkpt lat="42.636475" lon="0.444522">
        <ele>2677.000000</ele>
        <time>2021-09-05T09:08:25Z</time>
      </trkpt>
      <trkpt lat="42.636473" lon="0.444528">
        <ele>2677.000000</ele>
        <time>2021-09-05T09:08:26Z</time>
      </trkpt>
      <trkpt lat="42.636470" lon="0.444535">
        <ele>2677.000000</ele>
        <time>2021-09-05T09:08:27Z</time>
      </trkpt>
      <trkpt lat="42.636466" lon="0.444545">
        <ele>2676.000000</ele>
        <time>2021-09-05T09:08:28Z</time>
      </trkpt>
      <trkpt lat="42.636461" lon="0.444557">
        <ele>2676.000000</ele>
        <time>2021-09-05T09:08:29Z</time>
      </trkpt>
      <trkpt lat="42.636455" lon="0.444570">
        <ele>2676.000000</ele>
        <time>2021-09-05T09:08:30Z</time>
      </trkpt>
      <trkpt lat="42.636450" lon="0.444583">
        <ele>2676.000000</ele>
        <time>2021-09-05T09:08:31Z</time>
      </trkpt>
      <trkpt lat="42.636445" lon="0.444598">
        <ele>2675.000000</ele>
        <time>2021-09-05T09:08:32Z</time>
      </trkpt>
      <trkpt lat="42.636439" lon="0.444613">
        <ele>2675.000000</ele>
        <time>2021-09-05T09:08:33Z</time>
      </trkpt>
      <trkpt lat="42.636434" lon="0.444628">
        <ele>2675.000000</ele>
        <time>2021-09-05T09:08:34Z</time>
      </trkpt>
      <trkpt lat="42.636429" lon="0.444647">
        <ele>2675.000000</ele>
        <time>2021-09-05T09:08:35Z</time>
      </trkpt>
      <trkpt lat="42.636423" lon="0.444665">
        <ele>2674.000000</ele>
        <time>2021-09-05T09:08:36Z</time>
      </trkpt>
      <trkpt lat="42.636417" lon="0.444685">
        <ele>2674.000000</ele>
        <time>2021-09-05T09:08:37Z</time>
      </trkpt>
      <trkpt lat="42.636411" lon="0.444705">
        <ele>2674.000000</ele>
        <time>2021-09-05T09:08:38Z</time>
      </trkpt>
      <trkpt lat="42.636406" lon="0.444725">
        <ele>2674.000000</ele>
        <time>2021-09-05T09:08:39Z</time>
      </trkpt>
      <trkpt lat="42.636402" lon="0.444742">
        <ele>2674.000000</ele>
        <time>2021-09-05T09:08:40Z</time>
      </trkpt>
      <trkpt lat="42.636400" lon="0.444753">
        <ele>2674.000000</ele>
        <time>2021-09-05T09:08:42Z</time>
      </trkpt>
      <trkpt lat="42.636397" lon="0.444765">
        <ele>2674.000000</ele>
        <time>2021-09-05T09:08:42Z</time>
      </trkpt>
      <trkpt lat="42.636395" lon="0.444777">
        <ele>2674.000000</ele>
        <time>2021-09-05T09:08:43Z</time>
      </trkpt>
      <trkpt lat="42.636391" lon="0.444792">
        <ele>2674.000000</ele>
        <time>2021-09-05T09:08:44Z</time>
      </trkpt>
      <trkpt lat="42.636390" lon="0.444802">
        <ele>2674.000000</ele>
        <time>2021-09-05T09:08:45Z</time>
      </trkpt>
      <trkpt lat="42.636389" lon="0.444808">
        <ele>2674.000000</ele>
        <time>2021-09-05T09:08:46Z</time>
      </trkpt>
      <trkpt lat="42.636385" lon="0.444827">
        <ele>2674.000000</ele>
        <time>2021-09-05T09:08:47Z</time>
      </trkpt>
      <trkpt lat="42.636383" lon="0.444840">
        <ele>2674.000000</ele>
        <time>2021-09-05T09:08:48Z</time>
      </trkpt>
      <trkpt lat="42.636381" lon="0.444852">
        <ele>2674.000000</ele>
        <time>2021-09-05T09:08:49Z</time>
      </trkpt>
      <trkpt lat="42.636378" lon="0.444868">
        <ele>2674.000000</ele>
        <time>2021-09-05T09:08:50Z</time>
      </trkpt>
      <trkpt lat="42.636375" lon="0.444885">
        <ele>2674.000000</ele>
        <time>2021-09-05T09:08:51Z</time>
      </trkpt>
      <trkpt lat="42.636372" lon="0.444903">
        <ele>2674.000000</ele>
        <time>2021-09-05T09:08:52Z</time>
      </trkpt>
      <trkpt lat="42.636369" lon="0.444920">
        <ele>2674.000000</ele>
        <time>2021-09-05T09:08:53Z</time>
      </trkpt>
      <trkpt lat="42.636367" lon="0.444937">
        <ele>2674.000000</ele>
        <time>2021-09-05T09:08:54Z</time>
      </trkpt>
      <trkpt lat="42.636365" lon="0.444952">
        <ele>2674.000000</ele>
        <time>2021-09-05T09:08:55Z</time>
      </trkpt>
      <trkpt lat="42.636361" lon="0.444970">
        <ele>2674.000000</ele>
        <time>2021-09-05T09:08:56Z</time>
      </trkpt>
      <trkpt lat="42.636360" lon="0.444978">
        <ele>2673.000000</ele>
        <time>2021-09-05T09:08:57Z</time>
      </trkpt>
      <trkpt lat="42.636360" lon="0.444985">
        <ele>2673.000000</ele>
        <time>2021-09-05T09:08:58Z</time>
      </trkpt>
      <trkpt lat="42.636359" lon="0.444990">
        <ele>2672.000000</ele>
        <time>2021-09-05T09:09:00Z</time>
      </trkpt>
      <trkpt lat="42.636356" lon="0.445002">
        <ele>2672.000000</ele>
        <time>2021-09-05T09:09:01Z</time>
      </trkpt>
      <trkpt lat="42.636355" lon="0.445013">
        <ele>2671.000000</ele>
        <time>2021-09-05T09:09:02Z</time>
      </trkpt>
      <trkpt lat="42.636353" lon="0.445023">
        <ele>2671.000000</ele>
        <time>2021-09-05T09:09:03Z</time>
      </trkpt>
      <trkpt lat="42.636351" lon="0.445038">
        <ele>2671.000000</ele>
        <time>2021-09-05T09:09:04Z</time>
      </trkpt>
      <trkpt lat="42.636348" lon="0.445053">
        <ele>2671.000000</ele>
        <time>2021-09-05T09:09:06Z</time>
      </trkpt>
      <trkpt lat="42.636348" lon="0.445062">
        <ele>2671.000000</ele>
        <time>2021-09-05T09:09:06Z</time>
      </trkpt>
      <trkpt lat="42.636346" lon="0.445073">
        <ele>2671.000000</ele>
        <time>2021-09-05T09:09:07Z</time>
      </trkpt>
      <trkpt lat="42.636345" lon="0.445085">
        <ele>2671.000000</ele>
        <time>2021-09-05T09:09:08Z</time>
      </trkpt>
      <trkpt lat="42.636343" lon="0.445095">
        <ele>2671.000000</ele>
        <time>2021-09-05T09:09:09Z</time>
      </trkpt>
      <trkpt lat="42.636342" lon="0.445103">
        <ele>2671.000000</ele>
        <time>2021-09-05T09:09:10Z</time>
      </trkpt>
      <trkpt lat="42.636342" lon="0.445112">
        <ele>2671.000000</ele>
        <time>2021-09-05T09:09:11Z</time>
      </trkpt>
      <trkpt lat="42.636342" lon="0.445117">
        <ele>2672.000000</ele>
        <time>2021-09-05T09:09:12Z</time>
      </trkpt>
      <trkpt lat="42.636341" lon="0.445123">
        <ele>2672.000000</ele>
        <time>2021-09-05T09:09:15Z</time>
      </trkpt>
      <trkpt lat="42.636342" lon="0.445125">
        <ele>2670.000000</ele>
        <time>2021-09-05T09:09:20Z</time>
      </trkpt>
      <trkpt lat="42.636343" lon="0.445128">
        <ele>2670.000000</ele>
        <time>2021-09-05T09:09:21Z</time>
      </trkpt>
      <trkpt lat="42.636344" lon="0.445130">
        <ele>2669.000000</ele>
        <time>2021-09-05T09:09:22Z</time>
      </trkpt>
      <trkpt lat="42.636352" lon="0.445125">
        <ele>2668.000000</ele>
        <time>2021-09-05T09:09:41Z</time>
      </trkpt>
      <trkpt lat="42.636338" lon="0.445222">
        <ele>2666.000000</ele>
        <time>2021-09-05T09:10:14Z</time>
      </trkpt>
      <trkpt lat="42.636328" lon="0.445233">
        <ele>2666.000000</ele>
        <time>2021-09-05T09:10:15Z</time>
      </trkpt>
      <trkpt lat="42.636325" lon="0.445238">
        <ele>2666.000000</ele>
        <time>2021-09-05T09:10:16Z</time>
      </trkpt>
      <trkpt lat="42.636322" lon="0.445239">
        <ele>2666.000000</ele>
        <time>2021-09-05T09:10:17Z</time>
      </trkpt>
      <trkpt lat="42.636318" lon="0.445240">
        <ele>2666.000000</ele>
        <time>2021-09-05T09:10:18Z</time>
      </trkpt>
      <trkpt lat="42.636320" lon="0.445238">
        <ele>2666.000000</ele>
        <time>2021-09-05T09:10:22Z</time>
      </trkpt>
      <trkpt lat="42.636320" lon="0.445245">
        <ele>2666.000000</ele>
        <time>2021-09-05T09:10:25Z</time>
      </trkpt>
      <trkpt lat="42.636320" lon="0.445247">
        <ele>2666.000000</ele>
        <time>2021-09-05T09:10:26Z</time>
      </trkpt>
      <trkpt lat="42.636320" lon="0.445249">
        <ele>2666.000000</ele>
        <time>2021-09-05T09:10:27Z</time>
      </trkpt>
      <trkpt lat="42.636317" lon="0.445261">
        <ele>2666.000000</ele>
        <time>2021-09-05T09:10:28Z</time>
      </trkpt>
      <trkpt lat="42.636312" lon="0.445270">
        <ele>2666.000000</ele>
        <time>2021-09-05T09:10:29Z</time>
      </trkpt>
      <trkpt lat="42.636308" lon="0.445277">
        <ele>2666.000000</ele>
        <time>2021-09-05T09:10:30Z</time>
      </trkpt>
      <trkpt lat="42.636303" lon="0.445287">
        <ele>2666.000000</ele>
        <time>2021-09-05T09:10:31Z</time>
      </trkpt>
      <trkpt lat="42.636300" lon="0.445292">
        <ele>2666.000000</ele>
        <time>2021-09-05T09:10:32Z</time>
      </trkpt>
      <trkpt lat="42.636297" lon="0.445297">
        <ele>2666.000000</ele>
        <time>2021-09-05T09:10:34Z</time>
      </trkpt>
      <trkpt lat="42.636293" lon="0.445303">
        <ele>2666.000000</ele>
        <time>2021-09-05T09:10:34Z</time>
      </trkpt>
      <trkpt lat="42.636291" lon="0.445307">
        <ele>2666.000000</ele>
        <time>2021-09-05T09:10:35Z</time>
      </trkpt>
      <trkpt lat="42.636292" lon="0.445305">
        <ele>2666.000000</ele>
        <time>2021-09-05T09:10:37Z</time>
      </trkpt>
      <trkpt lat="42.636294" lon="0.445302">
        <ele>2666.000000</ele>
        <time>2021-09-05T09:10:38Z</time>
      </trkpt>
      <trkpt lat="42.636293" lon="0.445303">
        <ele>2667.000000</ele>
        <time>2021-09-05T09:10:41Z</time>
      </trkpt>
      <trkpt lat="42.636292" lon="0.445305">
        <ele>2667.000000</ele>
        <time>2021-09-05T09:10:42Z</time>
      </trkpt>
      <trkpt lat="42.636287" lon="0.445313">
        <ele>2667.000000</ele>
        <time>2021-09-05T09:10:43Z</time>
      </trkpt>
      <trkpt lat="42.636286" lon="0.445317">
        <ele>2667.000000</ele>
        <time>2021-09-05T09:10:44Z</time>
      </trkpt>
      <trkpt lat="42.636287" lon="0.445313">
        <ele>2668.000000</ele>
        <time>2021-09-05T09:10:45Z</time>
      </trkpt>
      <trkpt lat="42.636289" lon="0.445310">
        <ele>2668.000000</ele>
        <time>2021-09-05T09:10:46Z</time>
      </trkpt>
      <trkpt lat="42.636292" lon="0.445305">
        <ele>2668.000000</ele>
        <time>2021-09-05T09:10:47Z</time>
      </trkpt>
      <trkpt lat="42.636267" lon="0.445337">
        <ele>2666.000000</ele>
        <time>2021-09-05T09:11:40Z</time>
      </trkpt>
      <trkpt lat="42.636272" lon="0.445355">
        <ele>2666.000000</ele>
        <time>2021-09-05T09:11:42Z</time>
      </trkpt>
      <trkpt lat="42.636275" lon="0.445372">
        <ele>2666.000000</ele>
        <time>2021-09-05T09:11:42Z</time>
      </trkpt>
      <trkpt lat="42.636278" lon="0.445385">
        <ele>2666.000000</ele>
        <time>2021-09-05T09:11:43Z</time>
      </trkpt>
      <trkpt lat="42.636278" lon="0.445405">
        <ele>2667.000000</ele>
        <time>2021-09-05T09:11:44Z</time>
      </trkpt>
      <trkpt lat="42.636278" lon="0.445420">
        <ele>2667.000000</ele>
        <time>2021-09-05T09:11:45Z</time>
      </trkpt>
      <trkpt lat="42.636278" lon="0.445437">
        <ele>2667.000000</ele>
        <time>2021-09-05T09:11:46Z</time>
      </trkpt>
      <trkpt lat="42.636277" lon="0.445452">
        <ele>2667.000000</ele>
        <time>2021-09-05T09:11:47Z</time>
      </trkpt>
      <trkpt lat="42.636273" lon="0.445460">
        <ele>2668.000000</ele>
        <time>2021-09-05T09:11:48Z</time>
      </trkpt>
      <trkpt lat="42.636271" lon="0.445475">
        <ele>2669.000000</ele>
        <time>2021-09-05T09:11:49Z</time>
      </trkpt>
      <trkpt lat="42.636274" lon="0.445478">
        <ele>2669.000000</ele>
        <time>2021-09-05T09:11:50Z</time>
      </trkpt>
      <trkpt lat="42.636273" lon="0.445477">
        <ele>2670.000000</ele>
        <time>2021-09-05T09:11:52Z</time>
      </trkpt>
      <trkpt lat="42.636273" lon="0.445483">
        <ele>2671.000000</ele>
        <time>2021-09-05T09:11:54Z</time>
      </trkpt>
      <trkpt lat="42.636273" lon="0.445488">
        <ele>2671.000000</ele>
        <time>2021-09-05T09:11:55Z</time>
      </trkpt>
      <trkpt lat="42.636271" lon="0.445495">
        <ele>2671.000000</ele>
        <time>2021-09-05T09:11:56Z</time>
      </trkpt>
      <trkpt lat="42.636270" lon="0.445500">
        <ele>2671.000000</ele>
        <time>2021-09-05T09:11:57Z</time>
      </trkpt>
      <trkpt lat="42.636271" lon="0.445503">
        <ele>2671.000000</ele>
        <time>2021-09-05T09:11:58Z</time>
      </trkpt>
      <trkpt lat="42.636276" lon="0.445513">
        <ele>2671.000000</ele>
        <time>2021-09-05T09:11:59Z</time>
      </trkpt>
      <trkpt lat="42.636288" lon="0.445522">
        <ele>2671.000000</ele>
        <time>2021-09-05T09:12:00Z</time>
      </trkpt>
      <trkpt lat="42.636288" lon="0.445537">
        <ele>2671.000000</ele>
        <time>2021-09-05T09:12:01Z</time>
      </trkpt>
      <trkpt lat="42.636288" lon="0.445547">
        <ele>2671.000000</ele>
        <time>2021-09-05T09:12:02Z</time>
      </trkpt>
      <trkpt lat="42.636288" lon="0.445553">
        <ele>2671.000000</ele>
        <time>2021-09-05T09:12:03Z</time>
      </trkpt>
      <trkpt lat="42.636290" lon="0.445560">
        <ele>2671.000000</ele>
        <time>2021-09-05T09:12:04Z</time>
      </trkpt>
      <trkpt lat="42.636290" lon="0.445568">
        <ele>2671.000000</ele>
        <time>2021-09-05T09:12:06Z</time>
      </trkpt>
      <trkpt lat="42.636288" lon="0.445578">
        <ele>2671.000000</ele>
        <time>2021-09-05T09:12:06Z</time>
      </trkpt>
      <trkpt lat="42.636282" lon="0.445587">
        <ele>2670.000000</ele>
        <time>2021-09-05T09:12:07Z</time>
      </trkpt>
      <trkpt lat="42.636275" lon="0.445595">
        <ele>2670.000000</ele>
        <time>2021-09-05T09:12:08Z</time>
      </trkpt>
      <trkpt lat="42.636275" lon="0.445603">
        <ele>2670.000000</ele>
        <time>2021-09-05T09:12:09Z</time>
      </trkpt>
      <trkpt lat="42.636276" lon="0.445610">
        <ele>2669.000000</ele>
        <time>2021-09-05T09:12:10Z</time>
      </trkpt>
      <trkpt lat="42.636278" lon="0.445623">
        <ele>2669.000000</ele>
        <time>2021-09-05T09:12:11Z</time>
      </trkpt>
      <trkpt lat="42.636278" lon="0.445637">
        <ele>2669.000000</ele>
        <time>2021-09-05T09:12:12Z</time>
      </trkpt>
      <trkpt lat="42.636276" lon="0.445645">
        <ele>2669.000000</ele>
        <time>2021-09-05T09:12:13Z</time>
      </trkpt>
      <trkpt lat="42.636277" lon="0.445668">
        <ele>2669.000000</ele>
        <time>2021-09-05T09:12:14Z</time>
      </trkpt>
      <trkpt lat="42.636276" lon="0.445687">
        <ele>2669.000000</ele>
        <time>2021-09-05T09:12:15Z</time>
      </trkpt>
      <trkpt lat="42.636273" lon="0.445700">
        <ele>2668.000000</ele>
        <time>2021-09-05T09:12:16Z</time>
      </trkpt>
      <trkpt lat="42.636271" lon="0.445717">
        <ele>2668.000000</ele>
        <time>2021-09-05T09:12:17Z</time>
      </trkpt>
      <trkpt lat="42.636268" lon="0.445730">
        <ele>2668.000000</ele>
        <time>2021-09-05T09:12:18Z</time>
      </trkpt>
      <trkpt lat="42.636265" lon="0.445753">
        <ele>2667.000000</ele>
        <time>2021-09-05T09:12:19Z</time>
      </trkpt>
      <trkpt lat="42.636262" lon="0.445775">
        <ele>2667.000000</ele>
        <time>2021-09-05T09:12:20Z</time>
      </trkpt>
      <trkpt lat="42.636260" lon="0.445792">
        <ele>2667.000000</ele>
        <time>2021-09-05T09:12:21Z</time>
      </trkpt>
      <trkpt lat="42.636258" lon="0.445810">
        <ele>2666.000000</ele>
        <time>2021-09-05T09:12:22Z</time>
      </trkpt>
      <trkpt lat="42.636256" lon="0.445823">
        <ele>2666.000000</ele>
        <time>2021-09-05T09:12:23Z</time>
      </trkpt>
      <trkpt lat="42.636254" lon="0.445832">
        <ele>2666.000000</ele>
        <time>2021-09-05T09:12:24Z</time>
      </trkpt>
      <trkpt lat="42.636252" lon="0.445843">
        <ele>2665.000000</ele>
        <time>2021-09-05T09:12:26Z</time>
      </trkpt>
      <trkpt lat="42.636249" lon="0.445852">
        <ele>2665.000000</ele>
        <time>2021-09-05T09:12:26Z</time>
      </trkpt>
      <trkpt lat="42.636247" lon="0.445858">
        <ele>2665.000000</ele>
        <time>2021-09-05T09:12:27Z</time>
      </trkpt>
      <trkpt lat="42.636244" lon="0.445865">
        <ele>2664.000000</ele>
        <time>2021-09-05T09:12:28Z</time>
      </trkpt>
      <trkpt lat="42.636242" lon="0.445870">
        <ele>2664.000000</ele>
        <time>2021-09-05T09:12:30Z</time>
      </trkpt>
      <trkpt lat="42.636240" lon="0.445878">
        <ele>2663.000000</ele>
        <time>2021-09-05T09:12:31Z</time>
      </trkpt>
      <trkpt lat="42.636236" lon="0.445890">
        <ele>2663.000000</ele>
        <time>2021-09-05T09:12:32Z</time>
      </trkpt>
      <trkpt lat="42.636231" lon="0.445903">
        <ele>2663.000000</ele>
        <time>2021-09-05T09:12:33Z</time>
      </trkpt>
      <trkpt lat="42.636227" lon="0.445917">
        <ele>2663.000000</ele>
        <time>2021-09-05T09:12:34Z</time>
      </trkpt>
      <trkpt lat="42.636221" lon="0.445933">
        <ele>2663.000000</ele>
        <time>2021-09-05T09:12:35Z</time>
      </trkpt>
      <trkpt lat="42.636215" lon="0.445947">
        <ele>2663.000000</ele>
        <time>2021-09-05T09:12:36Z</time>
      </trkpt>
      <trkpt lat="42.636208" lon="0.445970">
        <ele>2663.000000</ele>
        <time>2021-09-05T09:12:37Z</time>
      </trkpt>
      <trkpt lat="42.636202" lon="0.445987">
        <ele>2663.000000</ele>
        <time>2021-09-05T09:12:38Z</time>
      </trkpt>
      <trkpt lat="42.636195" lon="0.446003">
        <ele>2663.000000</ele>
        <time>2021-09-05T09:12:39Z</time>
      </trkpt>
      <trkpt lat="42.636188" lon="0.446018">
        <ele>2663.000000</ele>
        <time>2021-09-05T09:12:40Z</time>
      </trkpt>
      <trkpt lat="42.636183" lon="0.446030">
        <ele>2663.000000</ele>
        <time>2021-09-05T09:12:41Z</time>
      </trkpt>
      <trkpt lat="42.636175" lon="0.446048">
        <ele>2663.000000</ele>
        <time>2021-09-05T09:12:42Z</time>
      </trkpt>
      <trkpt lat="42.636170" lon="0.446063">
        <ele>2663.000000</ele>
        <time>2021-09-05T09:12:43Z</time>
      </trkpt>
      <trkpt lat="42.636161" lon="0.446087">
        <ele>2663.000000</ele>
        <time>2021-09-05T09:12:44Z</time>
      </trkpt>
      <trkpt lat="42.636156" lon="0.446102">
        <ele>2663.000000</ele>
        <time>2021-09-05T09:12:45Z</time>
      </trkpt>
      <trkpt lat="42.636150" lon="0.446115">
        <ele>2663.000000</ele>
        <time>2021-09-05T09:12:46Z</time>
      </trkpt>
      <trkpt lat="42.636145" lon="0.446130">
        <ele>2663.000000</ele>
        <time>2021-09-05T09:12:48Z</time>
      </trkpt>
      <trkpt lat="42.636139" lon="0.446145">
        <ele>2663.000000</ele>
        <time>2021-09-05T09:12:48Z</time>
      </trkpt>
      <trkpt lat="42.636134" lon="0.446157">
        <ele>2663.000000</ele>
        <time>2021-09-05T09:12:49Z</time>
      </trkpt>
      <trkpt lat="42.636129" lon="0.446168">
        <ele>2663.000000</ele>
        <time>2021-09-05T09:12:50Z</time>
      </trkpt>
      <trkpt lat="42.636124" lon="0.446180">
        <ele>2663.000000</ele>
        <time>2021-09-05T09:12:51Z</time>
      </trkpt>
      <trkpt lat="42.636120" lon="0.446193">
        <ele>2663.000000</ele>
        <time>2021-09-05T09:12:52Z</time>
      </trkpt>
      <trkpt lat="42.636117" lon="0.446203">
        <ele>2663.000000</ele>
        <time>2021-09-05T09:12:53Z</time>
      </trkpt>
      <trkpt lat="42.636113" lon="0.446217">
        <ele>2663.000000</ele>
        <time>2021-09-05T09:12:54Z</time>
      </trkpt>
      <trkpt lat="42.636111" lon="0.446222">
        <ele>2663.000000</ele>
        <time>2021-09-05T09:12:55Z</time>
      </trkpt>
      <trkpt lat="42.636098" lon="0.446228">
        <ele>2662.000000</ele>
        <time>2021-09-05T09:12:56Z</time>
      </trkpt>
      <trkpt lat="42.636090" lon="0.446237">
        <ele>2662.000000</ele>
        <time>2021-09-05T09:12:57Z</time>
      </trkpt>
      <trkpt lat="42.636083" lon="0.446238">
        <ele>2662.000000</ele>
        <time>2021-09-05T09:12:58Z</time>
      </trkpt>
      <trkpt lat="42.636075" lon="0.446240">
        <ele>2662.000000</ele>
        <time>2021-09-05T09:12:59Z</time>
      </trkpt>
      <trkpt lat="42.636070" lon="0.446242">
        <ele>2661.000000</ele>
        <time>2021-09-05T09:13:00Z</time>
      </trkpt>
      <trkpt lat="42.636065" lon="0.446243">
        <ele>2661.000000</ele>
        <time>2021-09-05T09:13:01Z</time>
      </trkpt>
      <trkpt lat="42.636057" lon="0.446246">
        <ele>2660.000000</ele>
        <time>2021-09-05T09:13:02Z</time>
      </trkpt>
      <trkpt lat="42.636053" lon="0.446248">
        <ele>2660.000000</ele>
        <time>2021-09-05T09:13:03Z</time>
      </trkpt>
      <trkpt lat="42.636053" lon="0.446251">
        <ele>2660.000000</ele>
        <time>2021-09-05T09:13:04Z</time>
      </trkpt>
      <trkpt lat="42.636055" lon="0.446262">
        <ele>2659.000000</ele>
        <time>2021-09-05T09:13:05Z</time>
      </trkpt>
      <trkpt lat="42.636050" lon="0.446272">
        <ele>2659.000000</ele>
        <time>2021-09-05T09:13:06Z</time>
      </trkpt>
      <trkpt lat="42.636048" lon="0.446282">
        <ele>2659.000000</ele>
        <time>2021-09-05T09:13:07Z</time>
      </trkpt>
      <trkpt lat="42.636048" lon="0.446295">
        <ele>2659.000000</ele>
        <time>2021-09-05T09:13:08Z</time>
      </trkpt>
      <trkpt lat="42.636043" lon="0.446302">
        <ele>2659.000000</ele>
        <time>2021-09-05T09:13:09Z</time>
      </trkpt>
      <trkpt lat="42.636038" lon="0.446310">
        <ele>2659.000000</ele>
        <time>2021-09-05T09:13:10Z</time>
      </trkpt>
      <trkpt lat="42.636028" lon="0.446328">
        <ele>2658.000000</ele>
        <time>2021-09-05T09:13:12Z</time>
      </trkpt>
      <trkpt lat="42.636020" lon="0.446343">
        <ele>2658.000000</ele>
        <time>2021-09-05T09:13:12Z</time>
      </trkpt>
      <trkpt lat="42.636014" lon="0.446357">
        <ele>2658.000000</ele>
        <time>2021-09-05T09:13:13Z</time>
      </trkpt>
      <trkpt lat="42.636008" lon="0.446373">
        <ele>2658.000000</ele>
        <time>2021-09-05T09:13:14Z</time>
      </trkpt>
      <trkpt lat="42.636002" lon="0.446387">
        <ele>2658.000000</ele>
        <time>2021-09-05T09:13:15Z</time>
      </trkpt>
      <trkpt lat="42.635993" lon="0.446407">
        <ele>2658.000000</ele>
        <time>2021-09-05T09:13:16Z</time>
      </trkpt>
      <trkpt lat="42.635988" lon="0.446418">
        <ele>2657.000000</ele>
        <time>2021-09-05T09:13:17Z</time>
      </trkpt>
      <trkpt lat="42.635981" lon="0.446432">
        <ele>2657.000000</ele>
        <time>2021-09-05T09:13:18Z</time>
      </trkpt>
      <trkpt lat="42.635973" lon="0.446445">
        <ele>2657.000000</ele>
        <time>2021-09-05T09:13:19Z</time>
      </trkpt>
      <trkpt lat="42.635961" lon="0.446467">
        <ele>2657.000000</ele>
        <time>2021-09-05T09:13:20Z</time>
      </trkpt>
      <trkpt lat="42.635955" lon="0.446477">
        <ele>2656.000000</ele>
        <time>2021-09-05T09:13:21Z</time>
      </trkpt>
      <trkpt lat="42.635945" lon="0.446492">
        <ele>2656.000000</ele>
        <time>2021-09-05T09:13:22Z</time>
      </trkpt>
      <trkpt lat="42.635935" lon="0.446503">
        <ele>2656.000000</ele>
        <time>2021-09-05T09:13:23Z</time>
      </trkpt>
      <trkpt lat="42.635910" lon="0.446515">
        <ele>2655.000000</ele>
        <time>2021-09-05T09:13:24Z</time>
      </trkpt>
      <trkpt lat="42.635898" lon="0.446528">
        <ele>2655.000000</ele>
        <time>2021-09-05T09:13:25Z</time>
      </trkpt>
      <trkpt lat="42.635887" lon="0.446539">
        <ele>2654.000000</ele>
        <time>2021-09-05T09:13:26Z</time>
      </trkpt>
      <trkpt lat="42.635873" lon="0.446553">
        <ele>2654.000000</ele>
        <time>2021-09-05T09:13:27Z</time>
      </trkpt>
      <trkpt lat="42.635860" lon="0.446567">
        <ele>2653.000000</ele>
        <time>2021-09-05T09:13:28Z</time>
      </trkpt>
      <trkpt lat="42.635848" lon="0.446577">
        <ele>2653.000000</ele>
        <time>2021-09-05T09:13:29Z</time>
      </trkpt>
      <trkpt lat="42.635840" lon="0.446586">
        <ele>2652.000000</ele>
        <time>2021-09-05T09:13:30Z</time>
      </trkpt>
      <trkpt lat="42.635828" lon="0.446597">
        <ele>2652.000000</ele>
        <time>2021-09-05T09:13:32Z</time>
      </trkpt>
      <trkpt lat="42.635812" lon="0.446610">
        <ele>2652.000000</ele>
        <time>2021-09-05T09:13:32Z</time>
      </trkpt>
      <trkpt lat="42.635800" lon="0.446619">
        <ele>2651.000000</ele>
        <time>2021-09-05T09:13:33Z</time>
      </trkpt>
      <trkpt lat="42.635788" lon="0.446626">
        <ele>2651.000000</ele>
        <time>2021-09-05T09:13:34Z</time>
      </trkpt>
      <trkpt lat="42.635778" lon="0.446633">
        <ele>2651.000000</ele>
        <time>2021-09-05T09:13:35Z</time>
      </trkpt>
      <trkpt lat="42.635770" lon="0.446639">
        <ele>2650.000000</ele>
        <time>2021-09-05T09:13:36Z</time>
      </trkpt>
      <trkpt lat="42.635765" lon="0.446645">
        <ele>2650.000000</ele>
        <time>2021-09-05T09:13:37Z</time>
      </trkpt>
      <trkpt lat="42.635757" lon="0.446654">
        <ele>2648.000000</ele>
        <time>2021-09-05T09:13:38Z</time>
      </trkpt>
      <trkpt lat="42.635748" lon="0.446662">
        <ele>2648.000000</ele>
        <time>2021-09-05T09:13:39Z</time>
      </trkpt>
      <trkpt lat="42.635738" lon="0.446673">
        <ele>2647.000000</ele>
        <time>2021-09-05T09:13:40Z</time>
      </trkpt>
      <trkpt lat="42.635732" lon="0.446681">
        <ele>2647.000000</ele>
        <time>2021-09-05T09:13:41Z</time>
      </trkpt>
      <trkpt lat="42.635725" lon="0.446690">
        <ele>2647.000000</ele>
        <time>2021-09-05T09:13:42Z</time>
      </trkpt>
      <trkpt lat="42.635715" lon="0.446700">
        <ele>2646.000000</ele>
        <time>2021-09-05T09:13:43Z</time>
      </trkpt>
      <trkpt lat="42.635707" lon="0.446707">
        <ele>2646.000000</ele>
        <time>2021-09-05T09:13:44Z</time>
      </trkpt>
      <trkpt lat="42.635695" lon="0.446702">
        <ele>2646.000000</ele>
        <time>2021-09-05T09:13:45Z</time>
      </trkpt>
      <trkpt lat="42.635685" lon="0.446695">
        <ele>2645.000000</ele>
        <time>2021-09-05T09:13:46Z</time>
      </trkpt>
      <trkpt lat="42.635677" lon="0.446690">
        <ele>2645.000000</ele>
        <time>2021-09-05T09:13:47Z</time>
      </trkpt>
      <trkpt lat="42.635663" lon="0.446682">
        <ele>2644.000000</ele>
        <time>2021-09-05T09:13:48Z</time>
      </trkpt>
      <trkpt lat="42.635650" lon="0.446680">
        <ele>2644.000000</ele>
        <time>2021-09-05T09:13:49Z</time>
      </trkpt>
      <trkpt lat="42.635640" lon="0.446680">
        <ele>2644.000000</ele>
        <time>2021-09-05T09:13:50Z</time>
      </trkpt>
      <trkpt lat="42.635632" lon="0.446682">
        <ele>2643.000000</ele>
        <time>2021-09-05T09:13:51Z</time>
      </trkpt>
      <trkpt lat="42.635622" lon="0.446688">
        <ele>2643.000000</ele>
        <time>2021-09-05T09:13:52Z</time>
      </trkpt>
      <trkpt lat="42.635613" lon="0.446703">
        <ele>2643.000000</ele>
        <time>2021-09-05T09:13:53Z</time>
      </trkpt>
      <trkpt lat="42.635603" lon="0.446713">
        <ele>2642.000000</ele>
        <time>2021-09-05T09:13:54Z</time>
      </trkpt>
      <trkpt lat="42.635592" lon="0.446721">
        <ele>2642.000000</ele>
        <time>2021-09-05T09:13:56Z</time>
      </trkpt>
      <trkpt lat="42.635580" lon="0.446728">
        <ele>2642.000000</ele>
        <time>2021-09-05T09:13:56Z</time>
      </trkpt>
      <trkpt lat="42.635568" lon="0.446735">
        <ele>2642.000000</ele>
        <time>2021-09-05T09:13:57Z</time>
      </trkpt>
      <trkpt lat="42.635553" lon="0.446746">
        <ele>2641.000000</ele>
        <time>2021-09-05T09:13:58Z</time>
      </trkpt>
      <trkpt lat="42.635542" lon="0.446753">
        <ele>2641.000000</ele>
        <time>2021-09-05T09:13:59Z</time>
      </trkpt>
      <trkpt lat="42.635528" lon="0.446759">
        <ele>2641.000000</ele>
        <time>2021-09-05T09:14:00Z</time>
      </trkpt>
      <trkpt lat="42.635515" lon="0.446762">
        <ele>2641.000000</ele>
        <time>2021-09-05T09:14:01Z</time>
      </trkpt>
      <trkpt lat="42.635505" lon="0.446755">
        <ele>2640.000000</ele>
        <time>2021-09-05T09:14:02Z</time>
      </trkpt>
      <trkpt lat="42.635493" lon="0.446753">
        <ele>2640.000000</ele>
        <time>2021-09-05T09:14:03Z</time>
      </trkpt>
      <trkpt lat="42.635478" lon="0.446753">
        <ele>2639.000000</ele>
        <time>2021-09-05T09:14:04Z</time>
      </trkpt>
      <trkpt lat="42.635465" lon="0.446752">
        <ele>2639.000000</ele>
        <time>2021-09-05T09:14:05Z</time>
      </trkpt>
      <trkpt lat="42.635453" lon="0.446750">
        <ele>2638.000000</ele>
        <time>2021-09-05T09:14:06Z</time>
      </trkpt>
      <trkpt lat="42.635440" lon="0.446754">
        <ele>2638.000000</ele>
        <time>2021-09-05T09:14:07Z</time>
      </trkpt>
      <trkpt lat="42.635428" lon="0.446757">
        <ele>2638.000000</ele>
        <time>2021-09-05T09:14:08Z</time>
      </trkpt>
      <trkpt lat="42.635418" lon="0.446761">
        <ele>2637.000000</ele>
        <time>2021-09-05T09:14:09Z</time>
      </trkpt>
      <trkpt lat="42.635407" lon="0.446766">
        <ele>2637.000000</ele>
        <time>2021-09-05T09:14:10Z</time>
      </trkpt>
      <trkpt lat="42.635392" lon="0.446771">
        <ele>2637.000000</ele>
        <time>2021-09-05T09:14:11Z</time>
      </trkpt>
      <trkpt lat="42.635377" lon="0.446776">
        <ele>2636.000000</ele>
        <time>2021-09-05T09:14:12Z</time>
      </trkpt>
      <trkpt lat="42.635368" lon="0.446778">
        <ele>2636.000000</ele>
        <time>2021-09-05T09:14:13Z</time>
      </trkpt>
      <trkpt lat="42.635355" lon="0.446780">
        <ele>2636.000000</ele>
        <time>2021-09-05T09:14:14Z</time>
      </trkpt>
      <trkpt lat="42.635345" lon="0.446782">
        <ele>2635.000000</ele>
        <time>2021-09-05T09:14:15Z</time>
      </trkpt>
      <trkpt lat="42.635340" lon="0.446782">
        <ele>2635.000000</ele>
        <time>2021-09-05T09:14:16Z</time>
      </trkpt>
      <trkpt lat="42.635337" lon="0.446784">
        <ele>2635.000000</ele>
        <time>2021-09-05T09:14:17Z</time>
      </trkpt>
      <trkpt lat="42.635335" lon="0.446788">
        <ele>2635.000000</ele>
        <time>2021-09-05T09:14:18Z</time>
      </trkpt>
      <trkpt lat="42.635335" lon="0.446812">
        <ele>2635.000000</ele>
        <time>2021-09-05T09:14:20Z</time>
      </trkpt>
      <trkpt lat="42.635335" lon="0.446823">
        <ele>2635.000000</ele>
        <time>2021-09-05T09:14:20Z</time>
      </trkpt>
      <trkpt lat="42.635332" lon="0.446835">
        <ele>2635.000000</ele>
        <time>2021-09-05T09:14:21Z</time>
      </trkpt>
      <trkpt lat="42.635323" lon="0.446843">
        <ele>2635.000000</ele>
        <time>2021-09-05T09:14:22Z</time>
      </trkpt>
      <trkpt lat="42.635316" lon="0.446852">
        <ele>2635.000000</ele>
        <time>2021-09-05T09:14:23Z</time>
      </trkpt>
      <trkpt lat="42.635311" lon="0.446858">
        <ele>2635.000000</ele>
        <time>2021-09-05T09:14:24Z</time>
      </trkpt>
      <trkpt lat="42.635304" lon="0.446863">
        <ele>2635.000000</ele>
        <time>2021-09-05T09:14:25Z</time>
      </trkpt>
      <trkpt lat="42.635293" lon="0.446863">
        <ele>2635.000000</ele>
        <time>2021-09-05T09:14:26Z</time>
      </trkpt>
      <trkpt lat="42.635285" lon="0.446865">
        <ele>2635.000000</ele>
        <time>2021-09-05T09:14:27Z</time>
      </trkpt>
      <trkpt lat="42.635278" lon="0.446870">
        <ele>2634.000000</ele>
        <time>2021-09-05T09:14:28Z</time>
      </trkpt>
      <trkpt lat="42.635275" lon="0.446876">
        <ele>2634.000000</ele>
        <time>2021-09-05T09:14:29Z</time>
      </trkpt>
      <trkpt lat="42.635270" lon="0.446884">
        <ele>2634.000000</ele>
        <time>2021-09-05T09:14:30Z</time>
      </trkpt>
      <trkpt lat="42.635267" lon="0.446895">
        <ele>2634.000000</ele>
        <time>2021-09-05T09:14:31Z</time>
      </trkpt>
      <trkpt lat="42.635270" lon="0.446903">
        <ele>2634.000000</ele>
        <time>2021-09-05T09:14:32Z</time>
      </trkpt>
      <trkpt lat="42.635275" lon="0.446912">
        <ele>2634.000000</ele>
        <time>2021-09-05T09:14:33Z</time>
      </trkpt>
      <trkpt lat="42.635280" lon="0.446923">
        <ele>2634.000000</ele>
        <time>2021-09-05T09:14:34Z</time>
      </trkpt>
      <trkpt lat="42.635287" lon="0.446933">
        <ele>2634.000000</ele>
        <time>2021-09-05T09:14:35Z</time>
      </trkpt>
      <trkpt lat="42.635292" lon="0.446945">
        <ele>2634.000000</ele>
        <time>2021-09-05T09:14:36Z</time>
      </trkpt>
      <trkpt lat="42.635288" lon="0.446957">
        <ele>2634.000000</ele>
        <time>2021-09-05T09:14:37Z</time>
      </trkpt>
      <trkpt lat="42.635284" lon="0.446965">
        <ele>2634.000000</ele>
        <time>2021-09-05T09:14:38Z</time>
      </trkpt>
      <trkpt lat="42.635282" lon="0.446972">
        <ele>2633.000000</ele>
        <time>2021-09-05T09:14:40Z</time>
      </trkpt>
      <trkpt lat="42.635280" lon="0.446973">
        <ele>2633.000000</ele>
        <time>2021-09-05T09:14:40Z</time>
      </trkpt>
      <trkpt lat="42.635283" lon="0.446978">
        <ele>2632.000000</ele>
        <time>2021-09-05T09:14:41Z</time>
      </trkpt>
      <trkpt lat="42.635287" lon="0.446983">
        <ele>2632.000000</ele>
        <time>2021-09-05T09:14:42Z</time>
      </trkpt>
      <trkpt lat="42.635292" lon="0.446992">
        <ele>2632.000000</ele>
        <time>2021-09-05T09:14:43Z</time>
      </trkpt>
      <trkpt lat="42.635295" lon="0.447002">
        <ele>2632.000000</ele>
        <time>2021-09-05T09:14:44Z</time>
      </trkpt>
      <trkpt lat="42.635293" lon="0.447012">
        <ele>2632.000000</ele>
        <time>2021-09-05T09:14:45Z</time>
      </trkpt>
      <trkpt lat="42.635290" lon="0.447022">
        <ele>2632.000000</ele>
        <time>2021-09-05T09:14:46Z</time>
      </trkpt>
      <trkpt lat="42.635290" lon="0.447035">
        <ele>2632.000000</ele>
        <time>2021-09-05T09:14:47Z</time>
      </trkpt>
      <trkpt lat="42.635291" lon="0.447045">
        <ele>2632.000000</ele>
        <time>2021-09-05T09:14:48Z</time>
      </trkpt>
      <trkpt lat="42.635292" lon="0.447063">
        <ele>2632.000000</ele>
        <time>2021-09-05T09:14:49Z</time>
      </trkpt>
      <trkpt lat="42.635293" lon="0.447078">
        <ele>2632.000000</ele>
        <time>2021-09-05T09:14:50Z</time>
      </trkpt>
      <trkpt lat="42.635295" lon="0.447093">
        <ele>2632.000000</ele>
        <time>2021-09-05T09:14:51Z</time>
      </trkpt>
      <trkpt lat="42.635298" lon="0.447105">
        <ele>2632.000000</ele>
        <time>2021-09-05T09:14:52Z</time>
      </trkpt>
      <trkpt lat="42.635300" lon="0.447122">
        <ele>2632.000000</ele>
        <time>2021-09-05T09:14:53Z</time>
      </trkpt>
      <trkpt lat="42.635299" lon="0.447132">
        <ele>2632.000000</ele>
        <time>2021-09-05T09:14:54Z</time>
      </trkpt>
      <trkpt lat="42.635297" lon="0.447138">
        <ele>2631.000000</ele>
        <time>2021-09-05T09:14:55Z</time>
      </trkpt>
      <trkpt lat="42.635280" lon="0.447140">
        <ele>2631.000000</ele>
        <time>2021-09-05T09:14:56Z</time>
      </trkpt>
      <trkpt lat="42.635272" lon="0.447145">
        <ele>2630.000000</ele>
        <time>2021-09-05T09:14:57Z</time>
      </trkpt>
      <trkpt lat="42.635265" lon="0.447148">
        <ele>2630.000000</ele>
        <time>2021-09-05T09:14:58Z</time>
      </trkpt>
      <trkpt lat="42.635258" lon="0.447150">
        <ele>2630.000000</ele>
        <time>2021-09-05T09:14:59Z</time>
      </trkpt>
      <trkpt lat="42.635255" lon="0.447150">
        <ele>2630.000000</ele>
        <time>2021-09-05T09:15:00Z</time>
      </trkpt>
      <trkpt lat="42.635255" lon="0.447155">
        <ele>2629.000000</ele>
        <time>2021-09-05T09:15:02Z</time>
      </trkpt>
      <trkpt lat="42.635252" lon="0.447162">
        <ele>2628.000000</ele>
        <time>2021-09-05T09:15:04Z</time>
      </trkpt>
      <trkpt lat="42.635248" lon="0.447164">
        <ele>2627.000000</ele>
        <time>2021-09-05T09:15:05Z</time>
      </trkpt>
      <trkpt lat="42.635247" lon="0.447166">
        <ele>2627.000000</ele>
        <time>2021-09-05T09:15:06Z</time>
      </trkpt>
      <trkpt lat="42.635245" lon="0.447167">
        <ele>2627.000000</ele>
        <time>2021-09-05T09:15:07Z</time>
      </trkpt>
      <trkpt lat="42.635240" lon="0.447168">
        <ele>2626.000000</ele>
        <time>2021-09-05T09:15:08Z</time>
      </trkpt>
      <trkpt lat="42.635233" lon="0.447165">
        <ele>2626.000000</ele>
        <time>2021-09-05T09:15:09Z</time>
      </trkpt>
      <trkpt lat="42.635222" lon="0.447160">
        <ele>2626.000000</ele>
        <time>2021-09-05T09:15:10Z</time>
      </trkpt>
      <trkpt lat="42.635208" lon="0.447153">
        <ele>2625.000000</ele>
        <time>2021-09-05T09:15:11Z</time>
      </trkpt>
      <trkpt lat="42.635193" lon="0.447146">
        <ele>2625.000000</ele>
        <time>2021-09-05T09:15:12Z</time>
      </trkpt>
      <trkpt lat="42.635187" lon="0.447142">
        <ele>2625.000000</ele>
        <time>2021-09-05T09:15:13Z</time>
      </trkpt>
      <trkpt lat="42.635178" lon="0.447135">
        <ele>2625.000000</ele>
        <time>2021-09-05T09:15:14Z</time>
      </trkpt>
      <trkpt lat="42.635175" lon="0.447132">
        <ele>2624.000000</ele>
        <time>2021-09-05T09:15:15Z</time>
      </trkpt>
      <trkpt lat="42.635172" lon="0.447130">
        <ele>2624.000000</ele>
        <time>2021-09-05T09:15:16Z</time>
      </trkpt>
      <trkpt lat="42.635168" lon="0.447129">
        <ele>2624.000000</ele>
        <time>2021-09-05T09:15:17Z</time>
      </trkpt>
      <trkpt lat="42.635165" lon="0.447127">
        <ele>2624.000000</ele>
        <time>2021-09-05T09:15:19Z</time>
      </trkpt>
      <trkpt lat="42.635162" lon="0.447126">
        <ele>2624.000000</ele>
        <time>2021-09-05T09:15:22Z</time>
      </trkpt>
      <trkpt lat="42.635162" lon="0.447125">
        <ele>2624.000000</ele>
        <time>2021-09-05T09:15:24Z</time>
      </trkpt>
      <trkpt lat="42.635163" lon="0.447125">
        <ele>2625.000000</ele>
        <time>2021-09-05T09:15:24Z</time>
      </trkpt>
      <trkpt lat="42.635165" lon="0.447125">
        <ele>2625.000000</ele>
        <time>2021-09-05T09:15:25Z</time>
      </trkpt>
      <trkpt lat="42.635167" lon="0.447125">
        <ele>2625.000000</ele>
        <time>2021-09-05T09:15:26Z</time>
      </trkpt>
      <trkpt lat="42.635170" lon="0.447127">
        <ele>2626.000000</ele>
        <time>2021-09-05T09:15:27Z</time>
      </trkpt>
      <trkpt lat="42.635173" lon="0.447129">
        <ele>2626.000000</ele>
        <time>2021-09-05T09:15:28Z</time>
      </trkpt>
      <trkpt lat="42.635175" lon="0.447135">
        <ele>2626.000000</ele>
        <time>2021-09-05T09:15:29Z</time>
      </trkpt>
      <trkpt lat="42.635177" lon="0.447137">
        <ele>2627.000000</ele>
        <time>2021-09-05T09:15:30Z</time>
      </trkpt>
      <trkpt lat="42.635180" lon="0.447140">
        <ele>2627.000000</ele>
        <time>2021-09-05T09:15:31Z</time>
      </trkpt>
      <trkpt lat="42.635183" lon="0.447143">
        <ele>2627.000000</ele>
        <time>2021-09-05T09:15:32Z</time>
      </trkpt>
      <trkpt lat="42.635187" lon="0.447142">
        <ele>2627.000000</ele>
        <time>2021-09-05T09:15:34Z</time>
      </trkpt>
      <trkpt lat="42.635187" lon="0.447141">
        <ele>2627.000000</ele>
        <time>2021-09-05T09:15:36Z</time>
      </trkpt>
      <trkpt lat="42.635183" lon="0.447140">
        <ele>2628.000000</ele>
        <time>2021-09-05T09:15:37Z</time>
      </trkpt>
      <trkpt lat="42.635138" lon="0.447237">
        <ele>2628.000000</ele>
        <time>2021-09-05T09:16:46Z</time>
      </trkpt>
      <trkpt lat="42.635137" lon="0.447242">
        <ele>2628.000000</ele>
        <time>2021-09-05T09:16:47Z</time>
      </trkpt>
      <trkpt lat="42.635133" lon="0.447253">
        <ele>2628.000000</ele>
        <time>2021-09-05T09:16:48Z</time>
      </trkpt>
      <trkpt lat="42.635131" lon="0.447258">
        <ele>2628.000000</ele>
        <time>2021-09-05T09:16:49Z</time>
      </trkpt>
      <trkpt lat="42.635126" lon="0.447267">
        <ele>2628.000000</ele>
        <time>2021-09-05T09:16:50Z</time>
      </trkpt>
      <trkpt lat="42.635119" lon="0.447280">
        <ele>2628.000000</ele>
        <time>2021-09-05T09:16:51Z</time>
      </trkpt>
      <trkpt lat="42.635109" lon="0.447295">
        <ele>2628.000000</ele>
        <time>2021-09-05T09:16:52Z</time>
      </trkpt>
      <trkpt lat="42.635104" lon="0.447303">
        <ele>2628.000000</ele>
        <time>2021-09-05T09:16:54Z</time>
      </trkpt>
      <trkpt lat="42.635099" lon="0.447315">
        <ele>2628.000000</ele>
        <time>2021-09-05T09:16:54Z</time>
      </trkpt>
      <trkpt lat="42.635092" lon="0.447330">
        <ele>2628.000000</ele>
        <time>2021-09-05T09:16:55Z</time>
      </trkpt>
      <trkpt lat="42.635087" lon="0.447348">
        <ele>2628.000000</ele>
        <time>2021-09-05T09:16:56Z</time>
      </trkpt>
      <trkpt lat="42.635085" lon="0.447360">
        <ele>2628.000000</ele>
        <time>2021-09-05T09:16:57Z</time>
      </trkpt>
      <trkpt lat="42.635082" lon="0.447368">
        <ele>2628.000000</ele>
        <time>2021-09-05T09:16:58Z</time>
      </trkpt>
      <trkpt lat="42.635079" lon="0.447373">
        <ele>2628.000000</ele>
        <time>2021-09-05T09:16:59Z</time>
      </trkpt>
      <trkpt lat="42.635073" lon="0.447382">
        <ele>2628.000000</ele>
        <time>2021-09-05T09:17:00Z</time>
      </trkpt>
      <trkpt lat="42.635070" lon="0.447392">
        <ele>2628.000000</ele>
        <time>2021-09-05T09:17:02Z</time>
      </trkpt>
      <trkpt lat="42.635065" lon="0.447395">
        <ele>2628.000000</ele>
        <time>2021-09-05T09:17:03Z</time>
      </trkpt>
      <trkpt lat="42.635060" lon="0.447397">
        <ele>2628.000000</ele>
        <time>2021-09-05T09:17:04Z</time>
      </trkpt>
      <trkpt lat="42.635057" lon="0.447402">
        <ele>2628.000000</ele>
        <time>2021-09-05T09:17:05Z</time>
      </trkpt>
      <trkpt lat="42.635050" lon="0.447404">
        <ele>2628.000000</ele>
        <time>2021-09-05T09:17:06Z</time>
      </trkpt>
      <trkpt lat="42.635048" lon="0.447405">
        <ele>2628.000000</ele>
        <time>2021-09-05T09:17:07Z</time>
      </trkpt>
      <trkpt lat="42.635040" lon="0.447410">
        <ele>2628.000000</ele>
        <time>2021-09-05T09:17:08Z</time>
      </trkpt>
      <trkpt lat="42.635032" lon="0.447414">
        <ele>2628.000000</ele>
        <time>2021-09-05T09:17:09Z</time>
      </trkpt>
      <trkpt lat="42.635028" lon="0.447416">
        <ele>2628.000000</ele>
        <time>2021-09-05T09:17:10Z</time>
      </trkpt>
      <trkpt lat="42.635028" lon="0.447418">
        <ele>2628.000000</ele>
        <time>2021-09-05T09:17:11Z</time>
      </trkpt>
      <trkpt lat="42.635030" lon="0.447418">
        <ele>2628.000000</ele>
        <time>2021-09-05T09:17:12Z</time>
      </trkpt>
      <trkpt lat="42.635027" lon="0.447432">
        <ele>2628.000000</ele>
        <time>2021-09-05T09:17:13Z</time>
      </trkpt>
      <trkpt lat="42.635027" lon="0.447435">
        <ele>2628.000000</ele>
        <time>2021-09-05T09:17:14Z</time>
      </trkpt>
      <trkpt lat="42.635025" lon="0.447438">
        <ele>2628.000000</ele>
        <time>2021-09-05T09:17:15Z</time>
      </trkpt>
      <trkpt lat="42.635026" lon="0.447445">
        <ele>2628.000000</ele>
        <time>2021-09-05T09:17:20Z</time>
      </trkpt>
      <trkpt lat="42.635025" lon="0.447450">
        <ele>2628.000000</ele>
        <time>2021-09-05T09:17:21Z</time>
      </trkpt>
      <trkpt lat="42.635025" lon="0.447460">
        <ele>2628.000000</ele>
        <time>2021-09-05T09:17:22Z</time>
      </trkpt>
      <trkpt lat="42.635025" lon="0.447467">
        <ele>2628.000000</ele>
        <time>2021-09-05T09:17:23Z</time>
      </trkpt>
      <trkpt lat="42.635023" lon="0.447470">
        <ele>2628.000000</ele>
        <time>2021-09-05T09:17:24Z</time>
      </trkpt>
      <trkpt lat="42.635021" lon="0.447468">
        <ele>2628.000000</ele>
        <time>2021-09-05T09:17:25Z</time>
      </trkpt>
      <trkpt lat="42.635010" lon="0.447467">
        <ele>2628.000000</ele>
        <time>2021-09-05T09:17:27Z</time>
      </trkpt>
      <trkpt lat="42.635005" lon="0.447462">
        <ele>2628.000000</ele>
        <time>2021-09-05T09:17:28Z</time>
      </trkpt>
      <trkpt lat="42.634998" lon="0.447455">
        <ele>2628.000000</ele>
        <time>2021-09-05T09:17:29Z</time>
      </trkpt>
      <trkpt lat="42.634993" lon="0.447447">
        <ele>2628.000000</ele>
        <time>2021-09-05T09:17:30Z</time>
      </trkpt>
      <trkpt lat="42.634988" lon="0.447437">
        <ele>2628.000000</ele>
        <time>2021-09-05T09:17:31Z</time>
      </trkpt>
      <trkpt lat="42.634985" lon="0.447422">
        <ele>2628.000000</ele>
        <time>2021-09-05T09:17:32Z</time>
      </trkpt>
      <trkpt lat="42.634980" lon="0.447412">
        <ele>2628.000000</ele>
        <time>2021-09-05T09:17:33Z</time>
      </trkpt>
      <trkpt lat="42.634975" lon="0.447400">
        <ele>2628.000000</ele>
        <time>2021-09-05T09:17:34Z</time>
      </trkpt>
      <trkpt lat="42.634967" lon="0.447390">
        <ele>2628.000000</ele>
        <time>2021-09-05T09:17:35Z</time>
      </trkpt>
      <trkpt lat="42.634957" lon="0.447385">
        <ele>2628.000000</ele>
        <time>2021-09-05T09:17:36Z</time>
      </trkpt>
      <trkpt lat="42.634952" lon="0.447385">
        <ele>2628.000000</ele>
        <time>2021-09-05T09:17:37Z</time>
      </trkpt>
      <trkpt lat="42.634943" lon="0.447387">
        <ele>2628.000000</ele>
        <time>2021-09-05T09:17:39Z</time>
      </trkpt>
      <trkpt lat="42.634933" lon="0.447393">
        <ele>2624.000000</ele>
        <time>2021-09-05T09:17:39Z</time>
      </trkpt>
      <trkpt lat="42.634920" lon="0.447392">
        <ele>2624.000000</ele>
        <time>2021-09-05T09:17:40Z</time>
      </trkpt>
      <trkpt lat="42.634908" lon="0.447390">
        <ele>2624.000000</ele>
        <time>2021-09-05T09:17:41Z</time>
      </trkpt>
      <trkpt lat="42.634897" lon="0.447385">
        <ele>2623.000000</ele>
        <time>2021-09-05T09:17:42Z</time>
      </trkpt>
      <trkpt lat="42.634885" lon="0.447383">
        <ele>2623.000000</ele>
        <time>2021-09-05T09:17:43Z</time>
      </trkpt>
      <trkpt lat="42.634868" lon="0.447375">
        <ele>2623.000000</ele>
        <time>2021-09-05T09:17:44Z</time>
      </trkpt>
      <trkpt lat="42.634855" lon="0.447368">
        <ele>2623.000000</ele>
        <time>2021-09-05T09:17:45Z</time>
      </trkpt>
      <trkpt lat="42.634843" lon="0.447362">
        <ele>2623.000000</ele>
        <time>2021-09-05T09:17:46Z</time>
      </trkpt>
      <trkpt lat="42.634830" lon="0.447358">
        <ele>2623.000000</ele>
        <time>2021-09-05T09:17:47Z</time>
      </trkpt>
      <trkpt lat="42.634822" lon="0.447356">
        <ele>2622.000000</ele>
        <time>2021-09-05T09:17:48Z</time>
      </trkpt>
      <trkpt lat="42.634813" lon="0.447355">
        <ele>2622.000000</ele>
        <time>2021-09-05T09:17:49Z</time>
      </trkpt>
      <trkpt lat="42.634805" lon="0.447354">
        <ele>2622.000000</ele>
        <time>2021-09-05T09:17:50Z</time>
      </trkpt>
      <trkpt lat="42.634797" lon="0.447353">
        <ele>2622.000000</ele>
        <time>2021-09-05T09:17:51Z</time>
      </trkpt>
      <trkpt lat="42.634793" lon="0.447352">
        <ele>2622.000000</ele>
        <time>2021-09-05T09:17:52Z</time>
      </trkpt>
      <trkpt lat="42.634788" lon="0.447352">
        <ele>2622.000000</ele>
        <time>2021-09-05T09:17:53Z</time>
      </trkpt>
      <trkpt lat="42.634782" lon="0.447349">
        <ele>2622.000000</ele>
        <time>2021-09-05T09:17:54Z</time>
      </trkpt>
      <trkpt lat="42.634777" lon="0.447346">
        <ele>2622.000000</ele>
        <time>2021-09-05T09:17:55Z</time>
      </trkpt>
      <trkpt lat="42.634768" lon="0.447330">
        <ele>2621.000000</ele>
        <time>2021-09-05T09:17:56Z</time>
      </trkpt>
      <trkpt lat="42.634762" lon="0.447327">
        <ele>2621.000000</ele>
        <time>2021-09-05T09:17:57Z</time>
      </trkpt>
      <trkpt lat="42.634753" lon="0.447322">
        <ele>2621.000000</ele>
        <time>2021-09-05T09:17:58Z</time>
      </trkpt>
      <trkpt lat="42.634745" lon="0.447320">
        <ele>2621.000000</ele>
        <time>2021-09-05T09:17:59Z</time>
      </trkpt>
      <trkpt lat="42.634740" lon="0.447321">
        <ele>2621.000000</ele>
        <time>2021-09-05T09:18:00Z</time>
      </trkpt>
      <trkpt lat="42.634735" lon="0.447328">
        <ele>2621.000000</ele>
        <time>2021-09-05T09:18:01Z</time>
      </trkpt>
      <trkpt lat="42.634727" lon="0.447333">
        <ele>2621.000000</ele>
        <time>2021-09-05T09:18:03Z</time>
      </trkpt>
      <trkpt lat="42.634720" lon="0.447345">
        <ele>2621.000000</ele>
        <time>2021-09-05T09:18:03Z</time>
      </trkpt>
      <trkpt lat="42.634717" lon="0.447353">
        <ele>2621.000000</ele>
        <time>2021-09-05T09:18:04Z</time>
      </trkpt>
      <trkpt lat="42.634715" lon="0.447367">
        <ele>2621.000000</ele>
        <time>2021-09-05T09:18:05Z</time>
      </trkpt>
      <trkpt lat="42.634715" lon="0.447377">
        <ele>2621.000000</ele>
        <time>2021-09-05T09:18:06Z</time>
      </trkpt>
      <trkpt lat="42.634713" lon="0.447383">
        <ele>2622.000000</ele>
        <time>2021-09-05T09:18:07Z</time>
      </trkpt>
      <trkpt lat="42.634712" lon="0.447390">
        <ele>2622.000000</ele>
        <time>2021-09-05T09:18:08Z</time>
      </trkpt>
      <trkpt lat="42.634710" lon="0.447397">
        <ele>2622.000000</ele>
        <time>2021-09-05T09:18:09Z</time>
      </trkpt>
      <trkpt lat="42.634703" lon="0.447405">
        <ele>2622.000000</ele>
        <time>2021-09-05T09:18:10Z</time>
      </trkpt>
      <trkpt lat="42.634697" lon="0.447412">
        <ele>2622.000000</ele>
        <time>2021-09-05T09:18:11Z</time>
      </trkpt>
      <trkpt lat="42.634692" lon="0.447413">
        <ele>2622.000000</ele>
        <time>2021-09-05T09:18:12Z</time>
      </trkpt>
      <trkpt lat="42.634685" lon="0.447412">
        <ele>2622.000000</ele>
        <time>2021-09-05T09:18:13Z</time>
      </trkpt>
      <trkpt lat="42.634677" lon="0.447412">
        <ele>2622.000000</ele>
        <time>2021-09-05T09:18:14Z</time>
      </trkpt>
      <trkpt lat="42.634668" lon="0.447412">
        <ele>2622.000000</ele>
        <time>2021-09-05T09:18:15Z</time>
      </trkpt>
      <trkpt lat="42.634658" lon="0.447407">
        <ele>2622.000000</ele>
        <time>2021-09-05T09:18:16Z</time>
      </trkpt>
      <trkpt lat="42.634648" lon="0.447407">
        <ele>2622.000000</ele>
        <time>2021-09-05T09:18:17Z</time>
      </trkpt>
      <trkpt lat="42.634640" lon="0.447408">
        <ele>2621.000000</ele>
        <time>2021-09-05T09:18:18Z</time>
      </trkpt>
      <trkpt lat="42.634630" lon="0.447406">
        <ele>2621.000000</ele>
        <time>2021-09-05T09:18:19Z</time>
      </trkpt>
      <trkpt lat="42.634623" lon="0.447405">
        <ele>2621.000000</ele>
        <time>2021-09-05T09:18:20Z</time>
      </trkpt>
      <trkpt lat="42.634615" lon="0.447403">
        <ele>2620.000000</ele>
        <time>2021-09-05T09:18:22Z</time>
      </trkpt>
      <trkpt lat="42.634610" lon="0.447402">
        <ele>2620.000000</ele>
        <time>2021-09-05T09:18:22Z</time>
      </trkpt>
      <trkpt lat="42.634607" lon="0.447403">
        <ele>2620.000000</ele>
        <time>2021-09-05T09:18:23Z</time>
      </trkpt>
      <trkpt lat="42.634602" lon="0.447405">
        <ele>2619.000000</ele>
        <time>2021-09-05T09:18:24Z</time>
      </trkpt>
      <trkpt lat="42.634597" lon="0.447407">
        <ele>2619.000000</ele>
        <time>2021-09-05T09:18:25Z</time>
      </trkpt>
      <trkpt lat="42.634593" lon="0.447408">
        <ele>2619.000000</ele>
        <time>2021-09-05T09:18:26Z</time>
      </trkpt>
      <trkpt lat="42.634595" lon="0.447409">
        <ele>2619.000000</ele>
        <time>2021-09-05T09:18:27Z</time>
      </trkpt>
      <trkpt lat="42.634590" lon="0.447410">
        <ele>2619.000000</ele>
        <time>2021-09-05T09:18:32Z</time>
      </trkpt>
      <trkpt lat="42.634587" lon="0.447410">
        <ele>2619.000000</ele>
        <time>2021-09-05T09:18:33Z</time>
      </trkpt>
      <trkpt lat="42.634577" lon="0.447412">
        <ele>2619.000000</ele>
        <time>2021-09-05T09:18:34Z</time>
      </trkpt>
      <trkpt lat="42.634567" lon="0.447417">
        <ele>2619.000000</ele>
        <time>2021-09-05T09:18:35Z</time>
      </trkpt>
      <trkpt lat="42.634553" lon="0.447415">
        <ele>2619.000000</ele>
        <time>2021-09-05T09:18:36Z</time>
      </trkpt>
      <trkpt lat="42.634543" lon="0.447417">
        <ele>2619.000000</ele>
        <time>2021-09-05T09:18:37Z</time>
      </trkpt>
      <trkpt lat="42.634530" lon="0.447418">
        <ele>2618.000000</ele>
        <time>2021-09-05T09:18:38Z</time>
      </trkpt>
      <trkpt lat="42.634517" lon="0.447420">
        <ele>2618.000000</ele>
        <time>2021-09-05T09:18:39Z</time>
      </trkpt>
      <trkpt lat="42.634503" lon="0.447419">
        <ele>2618.000000</ele>
        <time>2021-09-05T09:18:40Z</time>
      </trkpt>
      <trkpt lat="42.634493" lon="0.447419">
        <ele>2618.000000</ele>
        <time>2021-09-05T09:18:41Z</time>
      </trkpt>
      <trkpt lat="42.634483" lon="0.447417">
        <ele>2618.000000</ele>
        <time>2021-09-05T09:18:42Z</time>
      </trkpt>
      <trkpt lat="42.634475" lon="0.447416">
        <ele>2618.000000</ele>
        <time>2021-09-05T09:18:43Z</time>
      </trkpt>
      <trkpt lat="42.634465" lon="0.447415">
        <ele>2618.000000</ele>
        <time>2021-09-05T09:18:44Z</time>
      </trkpt>
      <trkpt lat="42.634455" lon="0.447414">
        <ele>2618.000000</ele>
        <time>2021-09-05T09:18:46Z</time>
      </trkpt>
      <trkpt lat="42.634448" lon="0.447412">
        <ele>2618.000000</ele>
        <time>2021-09-05T09:18:46Z</time>
      </trkpt>
      <trkpt lat="42.634442" lon="0.447410">
        <ele>2618.000000</ele>
        <time>2021-09-05T09:18:47Z</time>
      </trkpt>
      <trkpt lat="42.634437" lon="0.447408">
        <ele>2618.000000</ele>
        <time>2021-09-05T09:18:48Z</time>
      </trkpt>
      <trkpt lat="42.634427" lon="0.447407">
        <ele>2618.000000</ele>
        <time>2021-09-05T09:18:49Z</time>
      </trkpt>
      <trkpt lat="42.634417" lon="0.447406">
        <ele>2618.000000</ele>
        <time>2021-09-05T09:18:50Z</time>
      </trkpt>
      <trkpt lat="42.634408" lon="0.447406">
        <ele>2618.000000</ele>
        <time>2021-09-05T09:18:51Z</time>
      </trkpt>
      <trkpt lat="42.634402" lon="0.447405">
        <ele>2618.000000</ele>
        <time>2021-09-05T09:18:52Z</time>
      </trkpt>
      <trkpt lat="42.634395" lon="0.447405">
        <ele>2618.000000</ele>
        <time>2021-09-05T09:18:53Z</time>
      </trkpt>
      <trkpt lat="42.634390" lon="0.447404">
        <ele>2618.000000</ele>
        <time>2021-09-05T09:18:54Z</time>
      </trkpt>
      <trkpt lat="42.634382" lon="0.447404">
        <ele>2618.000000</ele>
        <time>2021-09-05T09:18:55Z</time>
      </trkpt>
      <trkpt lat="42.634377" lon="0.447405">
        <ele>2618.000000</ele>
        <time>2021-09-05T09:18:56Z</time>
      </trkpt>
      <trkpt lat="42.634372" lon="0.447405">
        <ele>2617.000000</ele>
        <time>2021-09-05T09:18:57Z</time>
      </trkpt>
      <trkpt lat="42.634367" lon="0.447406">
        <ele>2617.000000</ele>
        <time>2021-09-05T09:18:58Z</time>
      </trkpt>
      <trkpt lat="42.634363" lon="0.447422">
        <ele>2617.000000</ele>
        <time>2021-09-05T09:18:59Z</time>
      </trkpt>
      <trkpt lat="42.634362" lon="0.447428">
        <ele>2617.000000</ele>
        <time>2021-09-05T09:19:00Z</time>
      </trkpt>
      <trkpt lat="42.634360" lon="0.447432">
        <ele>2617.000000</ele>
        <time>2021-09-05T09:19:01Z</time>
      </trkpt>
      <trkpt lat="42.634358" lon="0.447437">
        <ele>2617.000000</ele>
        <time>2021-09-05T09:19:02Z</time>
      </trkpt>
      <trkpt lat="42.634355" lon="0.447443">
        <ele>2617.000000</ele>
        <time>2021-09-05T09:19:03Z</time>
      </trkpt>
      <trkpt lat="42.634348" lon="0.447443">
        <ele>2617.000000</ele>
        <time>2021-09-05T09:19:04Z</time>
      </trkpt>
      <trkpt lat="42.634343" lon="0.447442">
        <ele>2617.000000</ele>
        <time>2021-09-05T09:19:05Z</time>
      </trkpt>
      <trkpt lat="42.634333" lon="0.447438">
        <ele>2617.000000</ele>
        <time>2021-09-05T09:19:06Z</time>
      </trkpt>
      <trkpt lat="42.634323" lon="0.447435">
        <ele>2616.000000</ele>
        <time>2021-09-05T09:19:07Z</time>
      </trkpt>
      <trkpt lat="42.634320" lon="0.447428">
        <ele>2616.000000</ele>
        <time>2021-09-05T09:19:08Z</time>
      </trkpt>
      <trkpt lat="42.634317" lon="0.447425">
        <ele>2616.000000</ele>
        <time>2021-09-05T09:19:10Z</time>
      </trkpt>
      <trkpt lat="42.634312" lon="0.447423">
        <ele>2615.000000</ele>
        <time>2021-09-05T09:19:10Z</time>
      </trkpt>
      <trkpt lat="42.634307" lon="0.447425">
        <ele>2615.000000</ele>
        <time>2021-09-05T09:19:11Z</time>
      </trkpt>
      <trkpt lat="42.634303" lon="0.447424">
        <ele>2615.000000</ele>
        <time>2021-09-05T09:19:12Z</time>
      </trkpt>
      <trkpt lat="42.634300" lon="0.447425">
        <ele>2614.000000</ele>
        <time>2021-09-05T09:19:14Z</time>
      </trkpt>
      <trkpt lat="42.634295" lon="0.447429">
        <ele>2614.000000</ele>
        <time>2021-09-05T09:19:15Z</time>
      </trkpt>
      <trkpt lat="42.634290" lon="0.447435">
        <ele>2613.000000</ele>
        <time>2021-09-05T09:19:16Z</time>
      </trkpt>
      <trkpt lat="42.634285" lon="0.447435">
        <ele>2613.000000</ele>
        <time>2021-09-05T09:19:17Z</time>
      </trkpt>
      <trkpt lat="42.634278" lon="0.447432">
        <ele>2613.000000</ele>
        <time>2021-09-05T09:19:18Z</time>
      </trkpt>
      <trkpt lat="42.634272" lon="0.447428">
        <ele>2613.000000</ele>
        <time>2021-09-05T09:19:19Z</time>
      </trkpt>
      <trkpt lat="42.634263" lon="0.447418">
        <ele>2613.000000</ele>
        <time>2021-09-05T09:19:20Z</time>
      </trkpt>
      <trkpt lat="42.634258" lon="0.447408">
        <ele>2613.000000</ele>
        <time>2021-09-05T09:19:21Z</time>
      </trkpt>
      <trkpt lat="42.634253" lon="0.447402">
        <ele>2613.000000</ele>
        <time>2021-09-05T09:19:22Z</time>
      </trkpt>
      <trkpt lat="42.634248" lon="0.447393">
        <ele>2613.000000</ele>
        <time>2021-09-05T09:19:23Z</time>
      </trkpt>
      <trkpt lat="42.634243" lon="0.447387">
        <ele>2612.000000</ele>
        <time>2021-09-05T09:19:24Z</time>
      </trkpt>
      <trkpt lat="42.634237" lon="0.447380">
        <ele>2612.000000</ele>
        <time>2021-09-05T09:19:25Z</time>
      </trkpt>
      <trkpt lat="42.634230" lon="0.447376">
        <ele>2612.000000</ele>
        <time>2021-09-05T09:19:26Z</time>
      </trkpt>
      <trkpt lat="42.634222" lon="0.447371">
        <ele>2612.000000</ele>
        <time>2021-09-05T09:19:27Z</time>
      </trkpt>
      <trkpt lat="42.634217" lon="0.447372">
        <ele>2611.000000</ele>
        <time>2021-09-05T09:19:28Z</time>
      </trkpt>
      <trkpt lat="42.634210" lon="0.447375">
        <ele>2611.000000</ele>
        <time>2021-09-05T09:19:30Z</time>
      </trkpt>
      <trkpt lat="42.634203" lon="0.447385">
        <ele>2611.000000</ele>
        <time>2021-09-05T09:19:31Z</time>
      </trkpt>
      <trkpt lat="42.634203" lon="0.447393">
        <ele>2611.000000</ele>
        <time>2021-09-05T09:19:32Z</time>
      </trkpt>
      <trkpt lat="42.634200" lon="0.447403">
        <ele>2611.000000</ele>
        <time>2021-09-05T09:19:33Z</time>
      </trkpt>
      <trkpt lat="42.634197" lon="0.447413">
        <ele>2611.000000</ele>
        <time>2021-09-05T09:19:34Z</time>
      </trkpt>
      <trkpt lat="42.634197" lon="0.447427">
        <ele>2611.000000</ele>
        <time>2021-09-05T09:19:35Z</time>
      </trkpt>
      <trkpt lat="42.634195" lon="0.447437">
        <ele>2611.000000</ele>
        <time>2021-09-05T09:19:36Z</time>
      </trkpt>
      <trkpt lat="42.634195" lon="0.447445">
        <ele>2611.000000</ele>
        <time>2021-09-05T09:19:37Z</time>
      </trkpt>
      <trkpt lat="42.634195" lon="0.447452">
        <ele>2611.000000</ele>
        <time>2021-09-05T09:19:38Z</time>
      </trkpt>
      <trkpt lat="42.634197" lon="0.447458">
        <ele>2612.000000</ele>
        <time>2021-09-05T09:19:39Z</time>
      </trkpt>
      <trkpt lat="42.634198" lon="0.447465">
        <ele>2612.000000</ele>
        <time>2021-09-05T09:19:40Z</time>
      </trkpt>
      <trkpt lat="42.634198" lon="0.447472">
        <ele>2612.000000</ele>
        <time>2021-09-05T09:19:41Z</time>
      </trkpt>
      <trkpt lat="42.634195" lon="0.447485">
        <ele>2612.000000</ele>
        <time>2021-09-05T09:19:42Z</time>
      </trkpt>
      <trkpt lat="42.634192" lon="0.447500">
        <ele>2612.000000</ele>
        <time>2021-09-05T09:19:43Z</time>
      </trkpt>
      <trkpt lat="42.634188" lon="0.447510">
        <ele>2612.000000</ele>
        <time>2021-09-05T09:19:44Z</time>
      </trkpt>
      <trkpt lat="42.634183" lon="0.447515">
        <ele>2612.000000</ele>
        <time>2021-09-05T09:19:45Z</time>
      </trkpt>
      <trkpt lat="42.634172" lon="0.447512">
        <ele>2612.000000</ele>
        <time>2021-09-05T09:19:46Z</time>
      </trkpt>
      <trkpt lat="42.634163" lon="0.447507">
        <ele>2612.000000</ele>
        <time>2021-09-05T09:19:47Z</time>
      </trkpt>
      <trkpt lat="42.634153" lon="0.447500">
        <ele>2612.000000</ele>
        <time>2021-09-05T09:19:48Z</time>
      </trkpt>
      <trkpt lat="42.634143" lon="0.447495">
        <ele>2612.000000</ele>
        <time>2021-09-05T09:19:49Z</time>
      </trkpt>
      <trkpt lat="42.634130" lon="0.447490">
        <ele>2612.000000</ele>
        <time>2021-09-05T09:19:50Z</time>
      </trkpt>
      <trkpt lat="42.634122" lon="0.447487">
        <ele>2611.000000</ele>
        <time>2021-09-05T09:19:51Z</time>
      </trkpt>
      <trkpt lat="42.634110" lon="0.447480">
        <ele>2611.000000</ele>
        <time>2021-09-05T09:19:52Z</time>
      </trkpt>
      <trkpt lat="42.634100" lon="0.447474">
        <ele>2611.000000</ele>
        <time>2021-09-05T09:19:53Z</time>
      </trkpt>
      <trkpt lat="42.634090" lon="0.447466">
        <ele>2610.000000</ele>
        <time>2021-09-05T09:19:54Z</time>
      </trkpt>
      <trkpt lat="42.634082" lon="0.447461">
        <ele>2610.000000</ele>
        <time>2021-09-05T09:19:56Z</time>
      </trkpt>
      <trkpt lat="42.634073" lon="0.447455">
        <ele>2610.000000</ele>
        <time>2021-09-05T09:19:56Z</time>
      </trkpt>
      <trkpt lat="42.634065" lon="0.447452">
        <ele>2610.000000</ele>
        <time>2021-09-05T09:19:57Z</time>
      </trkpt>
      <trkpt lat="42.634058" lon="0.447451">
        <ele>2609.000000</ele>
        <time>2021-09-05T09:19:58Z</time>
      </trkpt>
      <trkpt lat="42.634048" lon="0.447449">
        <ele>2609.000000</ele>
        <time>2021-09-05T09:19:59Z</time>
      </trkpt>
      <trkpt lat="42.634042" lon="0.447462">
        <ele>2609.000000</ele>
        <time>2021-09-05T09:20:00Z</time>
      </trkpt>
      <trkpt lat="42.634030" lon="0.447468">
        <ele>2609.000000</ele>
        <time>2021-09-05T09:20:01Z</time>
      </trkpt>
      <trkpt lat="42.634023" lon="0.447473">
        <ele>2609.000000</ele>
        <time>2021-09-05T09:20:02Z</time>
      </trkpt>
      <trkpt lat="42.634018" lon="0.447477">
        <ele>2609.000000</ele>
        <time>2021-09-05T09:20:03Z</time>
      </trkpt>
      <trkpt lat="42.634012" lon="0.447483">
        <ele>2609.000000</ele>
        <time>2021-09-05T09:20:04Z</time>
      </trkpt>
      <trkpt lat="42.634012" lon="0.447488">
        <ele>2609.000000</ele>
        <time>2021-09-05T09:20:05Z</time>
      </trkpt>
      <trkpt lat="42.634005" lon="0.447497">
        <ele>2609.000000</ele>
        <time>2021-09-05T09:20:06Z</time>
      </trkpt>
      <trkpt lat="42.634000" lon="0.447503">
        <ele>2609.000000</ele>
        <time>2021-09-05T09:20:07Z</time>
      </trkpt>
      <trkpt lat="42.633995" lon="0.447505">
        <ele>2609.000000</ele>
        <time>2021-09-05T09:20:08Z</time>
      </trkpt>
      <trkpt lat="42.633992" lon="0.447510">
        <ele>2610.000000</ele>
        <time>2021-09-05T09:20:09Z</time>
      </trkpt>
      <trkpt lat="42.633992" lon="0.447522">
        <ele>2610.000000</ele>
        <time>2021-09-05T09:20:10Z</time>
      </trkpt>
      <trkpt lat="42.633990" lon="0.447538">
        <ele>2610.000000</ele>
        <time>2021-09-05T09:20:11Z</time>
      </trkpt>
      <trkpt lat="42.633985" lon="0.447550">
        <ele>2610.000000</ele>
        <time>2021-09-05T09:20:12Z</time>
      </trkpt>
      <trkpt lat="42.633979" lon="0.447558">
        <ele>2610.000000</ele>
        <time>2021-09-05T09:20:13Z</time>
      </trkpt>
      <trkpt lat="42.633970" lon="0.447567">
        <ele>2610.000000</ele>
        <time>2021-09-05T09:20:14Z</time>
      </trkpt>
      <trkpt lat="42.633968" lon="0.447580">
        <ele>2610.000000</ele>
        <time>2021-09-05T09:20:15Z</time>
      </trkpt>
      <trkpt lat="42.633968" lon="0.447597">
        <ele>2610.000000</ele>
        <time>2021-09-05T09:20:16Z</time>
      </trkpt>
      <trkpt lat="42.633967" lon="0.447612">
        <ele>2610.000000</ele>
        <time>2021-09-05T09:20:17Z</time>
      </trkpt>
      <trkpt lat="42.633963" lon="0.447625">
        <ele>2610.000000</ele>
        <time>2021-09-05T09:20:19Z</time>
      </trkpt>
      <trkpt lat="42.633960" lon="0.447640">
        <ele>2610.000000</ele>
        <time>2021-09-05T09:20:19Z</time>
      </trkpt>
      <trkpt lat="42.633958" lon="0.447655">
        <ele>2610.000000</ele>
        <time>2021-09-05T09:20:20Z</time>
      </trkpt>
      <trkpt lat="42.633958" lon="0.447668">
        <ele>2610.000000</ele>
        <time>2021-09-05T09:20:21Z</time>
      </trkpt>
      <trkpt lat="42.633956" lon="0.447683">
        <ele>2611.000000</ele>
        <time>2021-09-05T09:20:22Z</time>
      </trkpt>
      <trkpt lat="42.633954" lon="0.447693">
        <ele>2611.000000</ele>
        <time>2021-09-05T09:20:23Z</time>
      </trkpt>
      <trkpt lat="42.633953" lon="0.447700">
        <ele>2611.000000</ele>
        <time>2021-09-05T09:20:24Z</time>
      </trkpt>
      <trkpt lat="42.633955" lon="0.447705">
        <ele>2611.000000</ele>
        <time>2021-09-05T09:20:25Z</time>
      </trkpt>
      <trkpt lat="42.633956" lon="0.447708">
        <ele>2611.000000</ele>
        <time>2021-09-05T09:20:26Z</time>
      </trkpt>
      <trkpt lat="42.633972" lon="0.447717">
        <ele>2611.000000</ele>
        <time>2021-09-05T09:20:27Z</time>
      </trkpt>
      <trkpt lat="42.633977" lon="0.447727">
        <ele>2611.000000</ele>
        <time>2021-09-05T09:20:28Z</time>
      </trkpt>
      <trkpt lat="42.633975" lon="0.447738">
        <ele>2611.000000</ele>
        <time>2021-09-05T09:20:29Z</time>
      </trkpt>
      <trkpt lat="42.633970" lon="0.447748">
        <ele>2611.000000</ele>
        <time>2021-09-05T09:20:30Z</time>
      </trkpt>
      <trkpt lat="42.633967" lon="0.447757">
        <ele>2611.000000</ele>
        <time>2021-09-05T09:20:31Z</time>
      </trkpt>
      <trkpt lat="42.633965" lon="0.447763">
        <ele>2611.000000</ele>
        <time>2021-09-05T09:20:32Z</time>
      </trkpt>
      <trkpt lat="42.633963" lon="0.447770">
        <ele>2611.000000</ele>
        <time>2021-09-05T09:20:34Z</time>
      </trkpt>
      <trkpt lat="42.633965" lon="0.447777">
        <ele>2611.000000</ele>
        <time>2021-09-05T09:20:35Z</time>
      </trkpt>
      <trkpt lat="42.633967" lon="0.447785">
        <ele>2610.000000</ele>
        <time>2021-09-05T09:20:39Z</time>
      </trkpt>
      <trkpt lat="42.633969" lon="0.447795">
        <ele>2610.000000</ele>
        <time>2021-09-05T09:20:39Z</time>
      </trkpt>
      <trkpt lat="42.633970" lon="0.447808">
        <ele>2610.000000</ele>
        <time>2021-09-05T09:20:40Z</time>
      </trkpt>
      <trkpt lat="42.633968" lon="0.447823">
        <ele>2610.000000</ele>
        <time>2021-09-05T09:20:41Z</time>
      </trkpt>
      <trkpt lat="42.633958" lon="0.447837">
        <ele>2610.000000</ele>
        <time>2021-09-05T09:20:42Z</time>
      </trkpt>
      <trkpt lat="42.633952" lon="0.447853">
        <ele>2610.000000</ele>
        <time>2021-09-05T09:20:43Z</time>
      </trkpt>
      <trkpt lat="42.633947" lon="0.447867">
        <ele>2609.000000</ele>
        <time>2021-09-05T09:20:44Z</time>
      </trkpt>
      <trkpt lat="42.633942" lon="0.447877">
        <ele>2609.000000</ele>
        <time>2021-09-05T09:20:45Z</time>
      </trkpt>
      <trkpt lat="42.633930" lon="0.447892">
        <ele>2609.000000</ele>
        <time>2021-09-05T09:20:46Z</time>
      </trkpt>
      <trkpt lat="42.633923" lon="0.447898">
        <ele>2609.000000</ele>
        <time>2021-09-05T09:20:47Z</time>
      </trkpt>
      <trkpt lat="42.633912" lon="0.447912">
        <ele>2609.000000</ele>
        <time>2021-09-05T09:20:48Z</time>
      </trkpt>
      <trkpt lat="42.633900" lon="0.447915">
        <ele>2609.000000</ele>
        <time>2021-09-05T09:20:49Z</time>
      </trkpt>
      <trkpt lat="42.633888" lon="0.447922">
        <ele>2609.000000</ele>
        <time>2021-09-05T09:20:50Z</time>
      </trkpt>
      <trkpt lat="42.633882" lon="0.447925">
        <ele>2609.000000</ele>
        <time>2021-09-05T09:20:51Z</time>
      </trkpt>
      <trkpt lat="42.633873" lon="0.447930">
        <ele>2609.000000</ele>
        <time>2021-09-05T09:20:52Z</time>
      </trkpt>
      <trkpt lat="42.633865" lon="0.447938">
        <ele>2608.000000</ele>
        <time>2021-09-05T09:20:53Z</time>
      </trkpt>
      <trkpt lat="42.633855" lon="0.447946">
        <ele>2608.000000</ele>
        <time>2021-09-05T09:20:54Z</time>
      </trkpt>
      <trkpt lat="42.633847" lon="0.447952">
        <ele>2608.000000</ele>
        <time>2021-09-05T09:20:55Z</time>
      </trkpt>
      <trkpt lat="42.633833" lon="0.447962">
        <ele>2608.000000</ele>
        <time>2021-09-05T09:20:56Z</time>
      </trkpt>
      <trkpt lat="42.633823" lon="0.447968">
        <ele>2607.000000</ele>
        <time>2021-09-05T09:20:57Z</time>
      </trkpt>
      <trkpt lat="42.633815" lon="0.447972">
        <ele>2607.000000</ele>
        <time>2021-09-05T09:20:58Z</time>
      </trkpt>
      <trkpt lat="42.633805" lon="0.447978">
        <ele>2607.000000</ele>
        <time>2021-09-05T09:20:59Z</time>
      </trkpt>
      <trkpt lat="42.633790" lon="0.447987">
        <ele>2607.000000</ele>
        <time>2021-09-05T09:20:59Z</time>
      </trkpt>
      <trkpt lat="42.633780" lon="0.447994">
        <ele>2607.000000</ele>
        <time>2021-09-05T09:21:00Z</time>
      </trkpt>
      <trkpt lat="42.633775" lon="0.447999">
        <ele>2607.000000</ele>
        <time>2021-09-05T09:21:02Z</time>
      </trkpt>
      <trkpt lat="42.633770" lon="0.448005">
        <ele>2606.000000</ele>
        <time>2021-09-05T09:21:02Z</time>
      </trkpt>
      <trkpt lat="42.633767" lon="0.448011">
        <ele>2606.000000</ele>
        <time>2021-09-05T09:21:03Z</time>
      </trkpt>
      <trkpt lat="42.633762" lon="0.448037">
        <ele>2606.000000</ele>
        <time>2021-09-05T09:21:04Z</time>
      </trkpt>
      <trkpt lat="42.633753" lon="0.448046">
        <ele>2606.000000</ele>
        <time>2021-09-05T09:21:05Z</time>
      </trkpt>
      <trkpt lat="42.633742" lon="0.448057">
        <ele>2606.000000</ele>
        <time>2021-09-05T09:21:06Z</time>
      </trkpt>
      <trkpt lat="42.633732" lon="0.448068">
        <ele>2606.000000</ele>
        <time>2021-09-05T09:21:07Z</time>
      </trkpt>
      <trkpt lat="42.633723" lon="0.448074">
        <ele>2606.000000</ele>
        <time>2021-09-05T09:21:08Z</time>
      </trkpt>
      <trkpt lat="42.633715" lon="0.448079">
        <ele>2605.000000</ele>
        <time>2021-09-05T09:21:09Z</time>
      </trkpt>
      <trkpt lat="42.633705" lon="0.448085">
        <ele>2605.000000</ele>
        <time>2021-09-05T09:21:10Z</time>
      </trkpt>
      <trkpt lat="42.633697" lon="0.448088">
        <ele>2605.000000</ele>
        <time>2021-09-05T09:21:11Z</time>
      </trkpt>
      <trkpt lat="42.633688" lon="0.448092">
        <ele>2605.000000</ele>
        <time>2021-09-05T09:21:12Z</time>
      </trkpt>
      <trkpt lat="42.633680" lon="0.448097">
        <ele>2604.000000</ele>
        <time>2021-09-05T09:21:13Z</time>
      </trkpt>
      <trkpt lat="42.633670" lon="0.448103">
        <ele>2604.000000</ele>
        <time>2021-09-05T09:21:14Z</time>
      </trkpt>
      <trkpt lat="42.633662" lon="0.448108">
        <ele>2604.000000</ele>
        <time>2021-09-05T09:21:15Z</time>
      </trkpt>
      <trkpt lat="42.633650" lon="0.448112">
        <ele>2603.000000</ele>
        <time>2021-09-05T09:21:16Z</time>
      </trkpt>
      <trkpt lat="42.633640" lon="0.448114">
        <ele>2603.000000</ele>
        <time>2021-09-05T09:21:17Z</time>
      </trkpt>
      <trkpt lat="42.633627" lon="0.448118">
        <ele>2603.000000</ele>
        <time>2021-09-05T09:21:18Z</time>
      </trkpt>
      <trkpt lat="42.633617" lon="0.448122">
        <ele>2602.000000</ele>
        <time>2021-09-05T09:21:19Z</time>
      </trkpt>
      <trkpt lat="42.633608" lon="0.448124">
        <ele>2602.000000</ele>
        <time>2021-09-05T09:21:20Z</time>
      </trkpt>
      <trkpt lat="42.633602" lon="0.448125">
        <ele>2602.000000</ele>
        <time>2021-09-05T09:21:22Z</time>
      </trkpt>
      <trkpt lat="42.633595" lon="0.448127">
        <ele>2601.000000</ele>
        <time>2021-09-05T09:21:22Z</time>
      </trkpt>
      <trkpt lat="42.633590" lon="0.448127">
        <ele>2601.000000</ele>
        <time>2021-09-05T09:21:23Z</time>
      </trkpt>
      <trkpt lat="42.633583" lon="0.448129">
        <ele>2601.000000</ele>
        <time>2021-09-05T09:21:24Z</time>
      </trkpt>
      <trkpt lat="42.633575" lon="0.448132">
        <ele>2601.000000</ele>
        <time>2021-09-05T09:21:25Z</time>
      </trkpt>
      <trkpt lat="42.633568" lon="0.448134">
        <ele>2600.000000</ele>
        <time>2021-09-05T09:21:26Z</time>
      </trkpt>
      <trkpt lat="42.633562" lon="0.448142">
        <ele>2600.000000</ele>
        <time>2021-09-05T09:21:27Z</time>
      </trkpt>
      <trkpt lat="42.633558" lon="0.448145">
        <ele>2600.000000</ele>
        <time>2021-09-05T09:21:28Z</time>
      </trkpt>
      <trkpt lat="42.633557" lon="0.448151">
        <ele>2600.000000</ele>
        <time>2021-09-05T09:21:29Z</time>
      </trkpt>
      <trkpt lat="42.633555" lon="0.448158">
        <ele>2600.000000</ele>
        <time>2021-09-05T09:21:30Z</time>
      </trkpt>
      <trkpt lat="42.633550" lon="0.448167">
        <ele>2600.000000</ele>
        <time>2021-09-05T09:21:31Z</time>
      </trkpt>
      <trkpt lat="42.633543" lon="0.448180">
        <ele>2600.000000</ele>
        <time>2021-09-05T09:21:32Z</time>
      </trkpt>
      <trkpt lat="42.633538" lon="0.448195">
        <ele>2600.000000</ele>
        <time>2021-09-05T09:21:33Z</time>
      </trkpt>
      <trkpt lat="42.633540" lon="0.448205">
        <ele>2600.000000</ele>
        <time>2021-09-05T09:21:34Z</time>
      </trkpt>
      <trkpt lat="42.633538" lon="0.448217">
        <ele>2601.000000</ele>
        <time>2021-09-05T09:21:35Z</time>
      </trkpt>
      <trkpt lat="42.633538" lon="0.448228">
        <ele>2601.000000</ele>
        <time>2021-09-05T09:21:36Z</time>
      </trkpt>
      <trkpt lat="42.633542" lon="0.448235">
        <ele>2601.000000</ele>
        <time>2021-09-05T09:21:37Z</time>
      </trkpt>
      <trkpt lat="42.633543" lon="0.448248">
        <ele>2601.000000</ele>
        <time>2021-09-05T09:21:38Z</time>
      </trkpt>
      <trkpt lat="42.633548" lon="0.448262">
        <ele>2602.000000</ele>
        <time>2021-09-05T09:21:39Z</time>
      </trkpt>
      <trkpt lat="42.633545" lon="0.448275">
        <ele>2602.000000</ele>
        <time>2021-09-05T09:21:40Z</time>
      </trkpt>
      <trkpt lat="42.633540" lon="0.448288">
        <ele>2602.000000</ele>
        <time>2021-09-05T09:21:41Z</time>
      </trkpt>
      <trkpt lat="42.633535" lon="0.448298">
        <ele>2602.000000</ele>
        <time>2021-09-05T09:21:42Z</time>
      </trkpt>
      <trkpt lat="42.633528" lon="0.448310">
        <ele>2602.000000</ele>
        <time>2021-09-05T09:21:43Z</time>
      </trkpt>
      <trkpt lat="42.633528" lon="0.448320">
        <ele>2602.000000</ele>
        <time>2021-09-05T09:21:44Z</time>
      </trkpt>
      <trkpt lat="42.633528" lon="0.448328">
        <ele>2602.000000</ele>
        <time>2021-09-05T09:21:46Z</time>
      </trkpt>
      <trkpt lat="42.633524" lon="0.448343">
        <ele>2602.000000</ele>
        <time>2021-09-05T09:21:46Z</time>
      </trkpt>
      <trkpt lat="42.633522" lon="0.448355">
        <ele>2602.000000</ele>
        <time>2021-09-05T09:21:47Z</time>
      </trkpt>
      <trkpt lat="42.633521" lon="0.448367">
        <ele>2602.000000</ele>
        <time>2021-09-05T09:21:48Z</time>
      </trkpt>
      <trkpt lat="42.633523" lon="0.448378">
        <ele>2602.000000</ele>
        <time>2021-09-05T09:21:49Z</time>
      </trkpt>
      <trkpt lat="42.633523" lon="0.448387">
        <ele>2602.000000</ele>
        <time>2021-09-05T09:21:50Z</time>
      </trkpt>
      <trkpt lat="42.633522" lon="0.448400">
        <ele>2602.000000</ele>
        <time>2021-09-05T09:21:51Z</time>
      </trkpt>
      <trkpt lat="42.633520" lon="0.448410">
        <ele>2602.000000</ele>
        <time>2021-09-05T09:21:52Z</time>
      </trkpt>
      <trkpt lat="42.633519" lon="0.448418">
        <ele>2602.000000</ele>
        <time>2021-09-05T09:21:53Z</time>
      </trkpt>
      <trkpt lat="42.633517" lon="0.448425">
        <ele>2602.000000</ele>
        <time>2021-09-05T09:21:54Z</time>
      </trkpt>
      <trkpt lat="42.633516" lon="0.448433">
        <ele>2602.000000</ele>
        <time>2021-09-05T09:21:55Z</time>
      </trkpt>
      <trkpt lat="42.633516" lon="0.448440">
        <ele>2602.000000</ele>
        <time>2021-09-05T09:21:56Z</time>
      </trkpt>
      <trkpt lat="42.633516" lon="0.448452">
        <ele>2602.000000</ele>
        <time>2021-09-05T09:21:57Z</time>
      </trkpt>
      <trkpt lat="42.633518" lon="0.448465">
        <ele>2602.000000</ele>
        <time>2021-09-05T09:21:58Z</time>
      </trkpt>
      <trkpt lat="42.633519" lon="0.448473">
        <ele>2602.000000</ele>
        <time>2021-09-05T09:21:59Z</time>
      </trkpt>
      <trkpt lat="42.633518" lon="0.448483">
        <ele>2602.000000</ele>
        <time>2021-09-05T09:22:00Z</time>
      </trkpt>
      <trkpt lat="42.633518" lon="0.448493">
        <ele>2602.000000</ele>
        <time>2021-09-05T09:22:01Z</time>
      </trkpt>
      <trkpt lat="42.633518" lon="0.448498">
        <ele>2602.000000</ele>
        <time>2021-09-05T09:22:02Z</time>
      </trkpt>
      <trkpt lat="42.633516" lon="0.448512">
        <ele>2602.000000</ele>
        <time>2021-09-05T09:22:03Z</time>
      </trkpt>
      <trkpt lat="42.633517" lon="0.448517">
        <ele>2602.000000</ele>
        <time>2021-09-05T09:22:04Z</time>
      </trkpt>
      <trkpt lat="42.633517" lon="0.448527">
        <ele>2602.000000</ele>
        <time>2021-09-05T09:22:05Z</time>
      </trkpt>
      <trkpt lat="42.633518" lon="0.448535">
        <ele>2602.000000</ele>
        <time>2021-09-05T09:22:06Z</time>
      </trkpt>
      <trkpt lat="42.633528" lon="0.448547">
        <ele>2602.000000</ele>
        <time>2021-09-05T09:22:07Z</time>
      </trkpt>
      <trkpt lat="42.633530" lon="0.448558">
        <ele>2602.000000</ele>
        <time>2021-09-05T09:22:08Z</time>
      </trkpt>
      <trkpt lat="42.633530" lon="0.448567">
        <ele>2602.000000</ele>
        <time>2021-09-05T09:22:10Z</time>
      </trkpt>
      <trkpt lat="42.633533" lon="0.448577">
        <ele>2602.000000</ele>
        <time>2021-09-05T09:22:10Z</time>
      </trkpt>
      <trkpt lat="42.633535" lon="0.448590">
        <ele>2602.000000</ele>
        <time>2021-09-05T09:22:11Z</time>
      </trkpt>
      <trkpt lat="42.633535" lon="0.448600">
        <ele>2602.000000</ele>
        <time>2021-09-05T09:22:12Z</time>
      </trkpt>
      <trkpt lat="42.633536" lon="0.448610">
        <ele>2602.000000</ele>
        <time>2021-09-05T09:22:13Z</time>
      </trkpt>
      <trkpt lat="42.633537" lon="0.448620">
        <ele>2600.000000</ele>
        <time>2021-09-05T09:22:14Z</time>
      </trkpt>
      <trkpt lat="42.633537" lon="0.448628">
        <ele>2600.000000</ele>
        <time>2021-09-05T09:22:15Z</time>
      </trkpt>
      <trkpt lat="42.633540" lon="0.448642">
        <ele>2600.000000</ele>
        <time>2021-09-05T09:22:16Z</time>
      </trkpt>
      <trkpt lat="42.633542" lon="0.448650">
        <ele>2600.000000</ele>
        <time>2021-09-05T09:22:17Z</time>
      </trkpt>
      <trkpt lat="42.633543" lon="0.448660">
        <ele>2600.000000</ele>
        <time>2021-09-05T09:22:18Z</time>
      </trkpt>
      <trkpt lat="42.633545" lon="0.448668">
        <ele>2599.000000</ele>
        <time>2021-09-05T09:22:19Z</time>
      </trkpt>
      <trkpt lat="42.633546" lon="0.448678">
        <ele>2599.000000</ele>
        <time>2021-09-05T09:22:20Z</time>
      </trkpt>
      <trkpt lat="42.633546" lon="0.448687">
        <ele>2599.000000</ele>
        <time>2021-09-05T09:22:21Z</time>
      </trkpt>
      <trkpt lat="42.633547" lon="0.448690">
        <ele>2599.000000</ele>
        <time>2021-09-05T09:22:22Z</time>
      </trkpt>
      <trkpt lat="42.633548" lon="0.448697">
        <ele>2599.000000</ele>
        <time>2021-09-05T09:22:23Z</time>
      </trkpt>
      <trkpt lat="42.633549" lon="0.448708">
        <ele>2599.000000</ele>
        <time>2021-09-05T09:22:24Z</time>
      </trkpt>
      <trkpt lat="42.633548" lon="0.448715">
        <ele>2598.000000</ele>
        <time>2021-09-05T09:22:25Z</time>
      </trkpt>
      <trkpt lat="42.633547" lon="0.448727">
        <ele>2598.000000</ele>
        <time>2021-09-05T09:22:26Z</time>
      </trkpt>
      <trkpt lat="42.633546" lon="0.448735">
        <ele>2598.000000</ele>
        <time>2021-09-05T09:22:27Z</time>
      </trkpt>
      <trkpt lat="42.633546" lon="0.448745">
        <ele>2598.000000</ele>
        <time>2021-09-05T09:22:28Z</time>
      </trkpt>
      <trkpt lat="42.633544" lon="0.448755">
        <ele>2598.000000</ele>
        <time>2021-09-05T09:22:30Z</time>
      </trkpt>
      <trkpt lat="42.633543" lon="0.448767">
        <ele>2598.000000</ele>
        <time>2021-09-05T09:22:30Z</time>
      </trkpt>
      <trkpt lat="42.633543" lon="0.448773">
        <ele>2598.000000</ele>
        <time>2021-09-05T09:22:31Z</time>
      </trkpt>
      <trkpt lat="42.633543" lon="0.448780">
        <ele>2598.000000</ele>
        <time>2021-09-05T09:22:32Z</time>
      </trkpt>
      <trkpt lat="42.633543" lon="0.448783">
        <ele>2598.000000</ele>
        <time>2021-09-05T09:22:33Z</time>
      </trkpt>
      <trkpt lat="42.633543" lon="0.448788">
        <ele>2598.000000</ele>
        <time>2021-09-05T09:22:34Z</time>
      </trkpt>
      <trkpt lat="42.633543" lon="0.448798">
        <ele>2598.000000</ele>
        <time>2021-09-05T09:22:36Z</time>
      </trkpt>
      <trkpt lat="42.633544" lon="0.448803">
        <ele>2598.000000</ele>
        <time>2021-09-05T09:22:37Z</time>
      </trkpt>
      <trkpt lat="42.633544" lon="0.448805">
        <ele>2597.000000</ele>
        <time>2021-09-05T09:22:38Z</time>
      </trkpt>
      <trkpt lat="42.633545" lon="0.448815">
        <ele>2597.000000</ele>
        <time>2021-09-05T09:22:39Z</time>
      </trkpt>
      <trkpt lat="42.633546" lon="0.448830">
        <ele>2597.000000</ele>
        <time>2021-09-05T09:22:40Z</time>
      </trkpt>
      <trkpt lat="42.633547" lon="0.448840">
        <ele>2597.000000</ele>
        <time>2021-09-05T09:22:41Z</time>
      </trkpt>
      <trkpt lat="42.633547" lon="0.448848">
        <ele>2597.000000</ele>
        <time>2021-09-05T09:22:42Z</time>
      </trkpt>
      <trkpt lat="42.633547" lon="0.448860">
        <ele>2597.000000</ele>
        <time>2021-09-05T09:22:43Z</time>
      </trkpt>
      <trkpt lat="42.633538" lon="0.448872">
        <ele>2597.000000</ele>
        <time>2021-09-05T09:22:44Z</time>
      </trkpt>
      <trkpt lat="42.633532" lon="0.448873">
        <ele>2597.000000</ele>
        <time>2021-09-05T09:22:45Z</time>
      </trkpt>
      <trkpt lat="42.633525" lon="0.448880">
        <ele>2597.000000</ele>
        <time>2021-09-05T09:22:46Z</time>
      </trkpt>
      <trkpt lat="42.633517" lon="0.448893">
        <ele>2597.000000</ele>
        <time>2021-09-05T09:22:47Z</time>
      </trkpt>
      <trkpt lat="42.633510" lon="0.448902">
        <ele>2597.000000</ele>
        <time>2021-09-05T09:22:48Z</time>
      </trkpt>
      <trkpt lat="42.633505" lon="0.448908">
        <ele>2597.000000</ele>
        <time>2021-09-05T09:22:49Z</time>
      </trkpt>
      <trkpt lat="42.633503" lon="0.448913">
        <ele>2597.000000</ele>
        <time>2021-09-05T09:22:50Z</time>
      </trkpt>
      <trkpt lat="42.633503" lon="0.448915">
        <ele>2597.000000</ele>
        <time>2021-09-05T09:22:51Z</time>
      </trkpt>
      <trkpt lat="42.633501" lon="0.448917">
        <ele>2597.000000</ele>
        <time>2021-09-05T09:22:52Z</time>
      </trkpt>
      <trkpt lat="42.633500" lon="0.448918">
        <ele>2597.000000</ele>
        <time>2021-09-05T09:22:53Z</time>
      </trkpt>
      <trkpt lat="42.633494" lon="0.448925">
        <ele>2597.000000</ele>
        <time>2021-09-05T09:22:55Z</time>
      </trkpt>
      <trkpt lat="42.633486" lon="0.448933">
        <ele>2597.000000</ele>
        <time>2021-09-05T09:22:56Z</time>
      </trkpt>
      <trkpt lat="42.633482" lon="0.448938">
        <ele>2597.000000</ele>
        <time>2021-09-05T09:22:57Z</time>
      </trkpt>
      <trkpt lat="42.633476" lon="0.448942">
        <ele>2596.000000</ele>
        <time>2021-09-05T09:22:58Z</time>
      </trkpt>
      <trkpt lat="42.633465" lon="0.448948">
        <ele>2596.000000</ele>
        <time>2021-09-05T09:22:59Z</time>
      </trkpt>
      <trkpt lat="42.633462" lon="0.448957">
        <ele>2596.000000</ele>
        <time>2021-09-05T09:23:00Z</time>
      </trkpt>
      <trkpt lat="42.633460" lon="0.448967">
        <ele>2596.000000</ele>
        <time>2021-09-05T09:23:01Z</time>
      </trkpt>
      <trkpt lat="42.633458" lon="0.448977">
        <ele>2596.000000</ele>
        <time>2021-09-05T09:23:02Z</time>
      </trkpt>
      <trkpt lat="42.633453" lon="0.448992">
        <ele>2596.000000</ele>
        <time>2021-09-05T09:23:03Z</time>
      </trkpt>
      <trkpt lat="42.633449" lon="0.449002">
        <ele>2596.000000</ele>
        <time>2021-09-05T09:23:04Z</time>
      </trkpt>
      <trkpt lat="42.633448" lon="0.449012">
        <ele>2596.000000</ele>
        <time>2021-09-05T09:23:05Z</time>
      </trkpt>
      <trkpt lat="42.633448" lon="0.449023">
        <ele>2596.000000</ele>
        <time>2021-09-05T09:23:06Z</time>
      </trkpt>
      <trkpt lat="42.633446" lon="0.449038">
        <ele>2596.000000</ele>
        <time>2021-09-05T09:23:07Z</time>
      </trkpt>
      <trkpt lat="42.633445" lon="0.449055">
        <ele>2596.000000</ele>
        <time>2021-09-05T09:23:08Z</time>
      </trkpt>
      <trkpt lat="42.633442" lon="0.449080">
        <ele>2596.000000</ele>
        <time>2021-09-05T09:23:09Z</time>
      </trkpt>
      <trkpt lat="42.633441" lon="0.449100">
        <ele>2595.000000</ele>
        <time>2021-09-05T09:23:10Z</time>
      </trkpt>
      <trkpt lat="42.633440" lon="0.449118">
        <ele>2595.000000</ele>
        <time>2021-09-05T09:23:11Z</time>
      </trkpt>
      <trkpt lat="42.633440" lon="0.449138">
        <ele>2595.000000</ele>
        <time>2021-09-05T09:23:12Z</time>
      </trkpt>
      <trkpt lat="42.633441" lon="0.449153">
        <ele>2595.000000</ele>
        <time>2021-09-05T09:23:13Z</time>
      </trkpt>
      <trkpt lat="42.633450" lon="0.449172">
        <ele>2595.000000</ele>
        <time>2021-09-05T09:23:14Z</time>
      </trkpt>
      <trkpt lat="42.633450" lon="0.449185">
        <ele>2595.000000</ele>
        <time>2021-09-05T09:23:15Z</time>
      </trkpt>
      <trkpt lat="42.633453" lon="0.449202">
        <ele>2595.000000</ele>
        <time>2021-09-05T09:23:16Z</time>
      </trkpt>
      <trkpt lat="42.633457" lon="0.449213">
        <ele>2595.000000</ele>
        <time>2021-09-05T09:23:18Z</time>
      </trkpt>
      <trkpt lat="42.633459" lon="0.449220">
        <ele>2595.000000</ele>
        <time>2021-09-05T09:23:18Z</time>
      </trkpt>
      <trkpt lat="42.633460" lon="0.449223">
        <ele>2595.000000</ele>
        <time>2021-09-05T09:23:19Z</time>
      </trkpt>
      <trkpt lat="42.633462" lon="0.449230">
        <ele>2595.000000</ele>
        <time>2021-09-05T09:23:20Z</time>
      </trkpt>
      <trkpt lat="42.633463" lon="0.449238">
        <ele>2595.000000</ele>
        <time>2021-09-05T09:23:21Z</time>
      </trkpt>
      <trkpt lat="42.633466" lon="0.449252">
        <ele>2595.000000</ele>
        <time>2021-09-05T09:23:22Z</time>
      </trkpt>
      <trkpt lat="42.633468" lon="0.449268">
        <ele>2595.000000</ele>
        <time>2021-09-05T09:23:23Z</time>
      </trkpt>
      <trkpt lat="42.633470" lon="0.449282">
        <ele>2595.000000</ele>
        <time>2021-09-05T09:23:24Z</time>
      </trkpt>
      <trkpt lat="42.633468" lon="0.449297">
        <ele>2595.000000</ele>
        <time>2021-09-05T09:23:25Z</time>
      </trkpt>
      <trkpt lat="42.633468" lon="0.449310">
        <ele>2595.000000</ele>
        <time>2021-09-05T09:23:26Z</time>
      </trkpt>
      <trkpt lat="42.633468" lon="0.449323">
        <ele>2595.000000</ele>
        <time>2021-09-05T09:23:27Z</time>
      </trkpt>
      <trkpt lat="42.633468" lon="0.449335">
        <ele>2595.000000</ele>
        <time>2021-09-05T09:23:28Z</time>
      </trkpt>
      <trkpt lat="42.633468" lon="0.449340">
        <ele>2595.000000</ele>
        <time>2021-09-05T09:23:29Z</time>
      </trkpt>
      <trkpt lat="42.633466" lon="0.449347">
        <ele>2595.000000</ele>
        <time>2021-09-05T09:23:30Z</time>
      </trkpt>
      <trkpt lat="42.633457" lon="0.449352">
        <ele>2595.000000</ele>
        <time>2021-09-05T09:23:31Z</time>
      </trkpt>
      <trkpt lat="42.633452" lon="0.449358">
        <ele>2595.000000</ele>
        <time>2021-09-05T09:23:32Z</time>
      </trkpt>
      <trkpt lat="42.633449" lon="0.449365">
        <ele>2595.000000</ele>
        <time>2021-09-05T09:23:33Z</time>
      </trkpt>
      <trkpt lat="42.633448" lon="0.449368">
        <ele>2595.000000</ele>
        <time>2021-09-05T09:23:34Z</time>
      </trkpt>
      <trkpt lat="42.633446" lon="0.449375">
        <ele>2594.000000</ele>
        <time>2021-09-05T09:23:35Z</time>
      </trkpt>
      <trkpt lat="42.633444" lon="0.449378">
        <ele>2594.000000</ele>
        <time>2021-09-05T09:23:36Z</time>
      </trkpt>
      <trkpt lat="42.633441" lon="0.449380">
        <ele>2594.000000</ele>
        <time>2021-09-05T09:23:37Z</time>
      </trkpt>
      <trkpt lat="42.633430" lon="0.449383">
        <ele>2593.000000</ele>
        <time>2021-09-05T09:23:39Z</time>
      </trkpt>
      <trkpt lat="42.633420" lon="0.449388">
        <ele>2593.000000</ele>
        <time>2021-09-05T09:23:39Z</time>
      </trkpt>
      <trkpt lat="42.633415" lon="0.449392">
        <ele>2592.000000</ele>
        <time>2021-09-05T09:23:40Z</time>
      </trkpt>
      <trkpt lat="42.633412" lon="0.449398">
        <ele>2592.000000</ele>
        <time>2021-09-05T09:23:41Z</time>
      </trkpt>
      <trkpt lat="42.633405" lon="0.449406">
        <ele>2592.000000</ele>
        <time>2021-09-05T09:23:42Z</time>
      </trkpt>
      <trkpt lat="42.633405" lon="0.449409">
        <ele>2591.000000</ele>
        <time>2021-09-05T09:23:43Z</time>
      </trkpt>
      <trkpt lat="42.633408" lon="0.449422">
        <ele>2591.000000</ele>
        <time>2021-09-05T09:23:44Z</time>
      </trkpt>
      <trkpt lat="42.633413" lon="0.449428">
        <ele>2591.000000</ele>
        <time>2021-09-05T09:23:45Z</time>
      </trkpt>
      <trkpt lat="42.633413" lon="0.449442">
        <ele>2591.000000</ele>
        <time>2021-09-05T09:23:46Z</time>
      </trkpt>
      <trkpt lat="42.633413" lon="0.449452">
        <ele>2591.000000</ele>
        <time>2021-09-05T09:23:47Z</time>
      </trkpt>
      <trkpt lat="42.633410" lon="0.449463">
        <ele>2591.000000</ele>
        <time>2021-09-05T09:23:48Z</time>
      </trkpt>
      <trkpt lat="42.633409" lon="0.449475">
        <ele>2591.000000</ele>
        <time>2021-09-05T09:23:49Z</time>
      </trkpt>
      <trkpt lat="42.633411" lon="0.449482">
        <ele>2591.000000</ele>
        <time>2021-09-05T09:23:50Z</time>
      </trkpt>
      <trkpt lat="42.633414" lon="0.449493">
        <ele>2592.000000</ele>
        <time>2021-09-05T09:23:51Z</time>
      </trkpt>
      <trkpt lat="42.633417" lon="0.449503">
        <ele>2592.000000</ele>
        <time>2021-09-05T09:23:52Z</time>
      </trkpt>
      <trkpt lat="42.633415" lon="0.449505">
        <ele>2592.000000</ele>
        <time>2021-09-05T09:23:53Z</time>
      </trkpt>
      <trkpt lat="42.633413" lon="0.449513">
        <ele>2592.000000</ele>
        <time>2021-09-05T09:23:54Z</time>
      </trkpt>
      <trkpt lat="42.633413" lon="0.449525">
        <ele>2592.000000</ele>
        <time>2021-09-05T09:23:55Z</time>
      </trkpt>
      <trkpt lat="42.633412" lon="0.449532">
        <ele>2592.000000</ele>
        <time>2021-09-05T09:23:56Z</time>
      </trkpt>
      <trkpt lat="42.633417" lon="0.449537">
        <ele>2592.000000</ele>
        <time>2021-09-05T09:23:57Z</time>
      </trkpt>
      <trkpt lat="42.633417" lon="0.449547">
        <ele>2592.000000</ele>
        <time>2021-09-05T09:23:58Z</time>
      </trkpt>
      <trkpt lat="42.633416" lon="0.449557">
        <ele>2592.000000</ele>
        <time>2021-09-05T09:23:59Z</time>
      </trkpt>
      <trkpt lat="42.633416" lon="0.449568">
        <ele>2592.000000</ele>
        <time>2021-09-05T09:24:00Z</time>
      </trkpt>
      <trkpt lat="42.633414" lon="0.449577">
        <ele>2592.000000</ele>
        <time>2021-09-05T09:24:01Z</time>
      </trkpt>
      <trkpt lat="42.633414" lon="0.449587">
        <ele>2592.000000</ele>
        <time>2021-09-05T09:24:03Z</time>
      </trkpt>
      <trkpt lat="42.633414" lon="0.449598">
        <ele>2592.000000</ele>
        <time>2021-09-05T09:24:03Z</time>
      </trkpt>
      <trkpt lat="42.633413" lon="0.449608">
        <ele>2592.000000</ele>
        <time>2021-09-05T09:24:04Z</time>
      </trkpt>
      <trkpt lat="42.633413" lon="0.449627">
        <ele>2592.000000</ele>
        <time>2021-09-05T09:24:05Z</time>
      </trkpt>
      <trkpt lat="42.633412" lon="0.449642">
        <ele>2592.000000</ele>
        <time>2021-09-05T09:24:06Z</time>
      </trkpt>
      <trkpt lat="42.633413" lon="0.449653">
        <ele>2592.000000</ele>
        <time>2021-09-05T09:24:07Z</time>
      </trkpt>
      <trkpt lat="42.633416" lon="0.449665">
        <ele>2592.000000</ele>
        <time>2021-09-05T09:24:08Z</time>
      </trkpt>
      <trkpt lat="42.633418" lon="0.449670">
        <ele>2592.000000</ele>
        <time>2021-09-05T09:24:09Z</time>
      </trkpt>
      <trkpt lat="42.633428" lon="0.449678">
        <ele>2592.000000</ele>
        <time>2021-09-05T09:24:10Z</time>
      </trkpt>
      <trkpt lat="42.633433" lon="0.449685">
        <ele>2592.000000</ele>
        <time>2021-09-05T09:24:11Z</time>
      </trkpt>
      <trkpt lat="42.633433" lon="0.449690">
        <ele>2592.000000</ele>
        <time>2021-09-05T09:24:12Z</time>
      </trkpt>
      <trkpt lat="42.633440" lon="0.449695">
        <ele>2592.000000</ele>
        <time>2021-09-05T09:24:13Z</time>
      </trkpt>
      <trkpt lat="42.633443" lon="0.449695">
        <ele>2592.000000</ele>
        <time>2021-09-05T09:24:14Z</time>
      </trkpt>
      <trkpt lat="42.633445" lon="0.449700">
        <ele>2592.000000</ele>
        <time>2021-09-05T09:24:15Z</time>
      </trkpt>
      <trkpt lat="42.633450" lon="0.449697">
        <ele>2592.000000</ele>
        <time>2021-09-05T09:24:17Z</time>
      </trkpt>
      <trkpt lat="42.633455" lon="0.449698">
        <ele>2592.000000</ele>
        <time>2021-09-05T09:24:18Z</time>
      </trkpt>
      <trkpt lat="42.633462" lon="0.449707">
        <ele>2592.000000</ele>
        <time>2021-09-05T09:24:19Z</time>
      </trkpt>
      <trkpt lat="42.633463" lon="0.449722">
        <ele>2592.000000</ele>
        <time>2021-09-05T09:24:20Z</time>
      </trkpt>
      <trkpt lat="42.633464" lon="0.449740">
        <ele>2592.000000</ele>
        <time>2021-09-05T09:24:21Z</time>
      </trkpt>
      <trkpt lat="42.633458" lon="0.449757">
        <ele>2592.000000</ele>
        <time>2021-09-05T09:24:23Z</time>
      </trkpt>
      <trkpt lat="42.633455" lon="0.449770">
        <ele>2592.000000</ele>
        <time>2021-09-05T09:24:23Z</time>
      </trkpt>
      <trkpt lat="42.633452" lon="0.449783">
        <ele>2592.000000</ele>
        <time>2021-09-05T09:24:24Z</time>
      </trkpt>
      <trkpt lat="42.633450" lon="0.449793">
        <ele>2592.000000</ele>
        <time>2021-09-05T09:24:25Z</time>
      </trkpt>
      <trkpt lat="42.633450" lon="0.449808">
        <ele>2592.000000</ele>
        <time>2021-09-05T09:24:26Z</time>
      </trkpt>
      <trkpt lat="42.633451" lon="0.449817">
        <ele>2592.000000</ele>
        <time>2021-09-05T09:24:27Z</time>
      </trkpt>
      <trkpt lat="42.633451" lon="0.449827">
        <ele>2592.000000</ele>
        <time>2021-09-05T09:24:28Z</time>
      </trkpt>
      <trkpt lat="42.633450" lon="0.449835">
        <ele>2592.000000</ele>
        <time>2021-09-05T09:24:29Z</time>
      </trkpt>
      <trkpt lat="42.633449" lon="0.449842">
        <ele>2592.000000</ele>
        <time>2021-09-05T09:24:30Z</time>
      </trkpt>
      <trkpt lat="42.633447" lon="0.449853">
        <ele>2592.000000</ele>
        <time>2021-09-05T09:24:31Z</time>
      </trkpt>
      <trkpt lat="42.633445" lon="0.449862">
        <ele>2592.000000</ele>
        <time>2021-09-05T09:24:32Z</time>
      </trkpt>
      <trkpt lat="42.633444" lon="0.449870">
        <ele>2592.000000</ele>
        <time>2021-09-05T09:24:33Z</time>
      </trkpt>
      <trkpt lat="42.633442" lon="0.449873">
        <ele>2590.000000</ele>
        <time>2021-09-05T09:24:34Z</time>
      </trkpt>
      <trkpt lat="42.633428" lon="0.449880">
        <ele>2590.000000</ele>
        <time>2021-09-05T09:24:35Z</time>
      </trkpt>
      <trkpt lat="42.633420" lon="0.449885">
        <ele>2590.000000</ele>
        <time>2021-09-05T09:24:36Z</time>
      </trkpt>
      <trkpt lat="42.633412" lon="0.449898">
        <ele>2589.000000</ele>
        <time>2021-09-05T09:24:37Z</time>
      </trkpt>
      <trkpt lat="42.633405" lon="0.449905">
        <ele>2589.000000</ele>
        <time>2021-09-05T09:24:38Z</time>
      </trkpt>
      <trkpt lat="42.633398" lon="0.449908">
        <ele>2589.000000</ele>
        <time>2021-09-05T09:24:39Z</time>
      </trkpt>
      <trkpt lat="42.633395" lon="0.449915">
        <ele>2589.000000</ele>
        <time>2021-09-05T09:24:40Z</time>
      </trkpt>
      <trkpt lat="42.633392" lon="0.449920">
        <ele>2588.000000</ele>
        <time>2021-09-05T09:24:41Z</time>
      </trkpt>
      <trkpt lat="42.633387" lon="0.449920">
        <ele>2588.000000</ele>
        <time>2021-09-05T09:24:42Z</time>
      </trkpt>
      <trkpt lat="42.633383" lon="0.449921">
        <ele>2588.000000</ele>
        <time>2021-09-05T09:24:43Z</time>
      </trkpt>
      <trkpt lat="42.633382" lon="0.449922">
        <ele>2588.000000</ele>
        <time>2021-09-05T09:24:44Z</time>
      </trkpt>
      <trkpt lat="42.633378" lon="0.449920">
        <ele>2588.000000</ele>
        <time>2021-09-05T09:24:45Z</time>
      </trkpt>
      <trkpt lat="42.633377" lon="0.449921">
        <ele>2588.000000</ele>
        <time>2021-09-05T09:24:47Z</time>
      </trkpt>
      <trkpt lat="42.633373" lon="0.449923">
        <ele>2588.000000</ele>
        <time>2021-09-05T09:24:47Z</time>
      </trkpt>
      <trkpt lat="42.633373" lon="0.449924">
        <ele>2588.000000</ele>
        <time>2021-09-05T09:24:49Z</time>
      </trkpt>
      <trkpt lat="42.633370" lon="0.449929">
        <ele>2588.000000</ele>
        <time>2021-09-05T09:24:52Z</time>
      </trkpt>
      <trkpt lat="42.633368" lon="0.449933">
        <ele>2588.000000</ele>
        <time>2021-09-05T09:24:53Z</time>
      </trkpt>
      <trkpt lat="42.633367" lon="0.449939">
        <ele>2587.000000</ele>
        <time>2021-09-05T09:24:54Z</time>
      </trkpt>
      <trkpt lat="42.633367" lon="0.449947">
        <ele>2587.000000</ele>
        <time>2021-09-05T09:24:55Z</time>
      </trkpt>
      <trkpt lat="42.633362" lon="0.449953">
        <ele>2587.000000</ele>
        <time>2021-09-05T09:24:56Z</time>
      </trkpt>
      <trkpt lat="42.633358" lon="0.449957">
        <ele>2587.000000</ele>
        <time>2021-09-05T09:24:57Z</time>
      </trkpt>
      <trkpt lat="42.633355" lon="0.449963">
        <ele>2587.000000</ele>
        <time>2021-09-05T09:24:58Z</time>
      </trkpt>
      <trkpt lat="42.633355" lon="0.449968">
        <ele>2586.000000</ele>
        <time>2021-09-05T09:24:59Z</time>
      </trkpt>
      <trkpt lat="42.633355" lon="0.449977">
        <ele>2586.000000</ele>
        <time>2021-09-05T09:25:00Z</time>
      </trkpt>
      <trkpt lat="42.633353" lon="0.449983">
        <ele>2586.000000</ele>
        <time>2021-09-05T09:25:01Z</time>
      </trkpt>
      <trkpt lat="42.633353" lon="0.449988">
        <ele>2586.000000</ele>
        <time>2021-09-05T09:25:02Z</time>
      </trkpt>
      <trkpt lat="42.633354" lon="0.449992">
        <ele>2586.000000</ele>
        <time>2021-09-05T09:25:03Z</time>
      </trkpt>
      <trkpt lat="42.633354" lon="0.449988">
        <ele>2586.000000</ele>
        <time>2021-09-05T09:25:04Z</time>
      </trkpt>
      <trkpt lat="42.633355" lon="0.449990">
        <ele>2586.000000</ele>
        <time>2021-09-05T09:25:05Z</time>
      </trkpt>
      <trkpt lat="42.633357" lon="0.449997">
        <ele>2586.000000</ele>
        <time>2021-09-05T09:25:07Z</time>
      </trkpt>
      <trkpt lat="42.633359" lon="0.450000">
        <ele>2586.000000</ele>
        <time>2021-09-05T09:25:08Z</time>
      </trkpt>
      <trkpt lat="42.633358" lon="0.450008">
        <ele>2586.000000</ele>
        <time>2021-09-05T09:25:11Z</time>
      </trkpt>
      <trkpt lat="42.633357" lon="0.450013">
        <ele>2586.000000</ele>
        <time>2021-09-05T09:25:11Z</time>
      </trkpt>
      <trkpt lat="42.633355" lon="0.450018">
        <ele>2586.000000</ele>
        <time>2021-09-05T09:25:12Z</time>
      </trkpt>
      <trkpt lat="42.633354" lon="0.450023">
        <ele>2586.000000</ele>
        <time>2021-09-05T09:25:13Z</time>
      </trkpt>
      <trkpt lat="42.633353" lon="0.450030">
        <ele>2586.000000</ele>
        <time>2021-09-05T09:25:14Z</time>
      </trkpt>
      <trkpt lat="42.633352" lon="0.450035">
        <ele>2586.000000</ele>
        <time>2021-09-05T09:25:14Z</time>
      </trkpt>
      <trkpt lat="42.633352" lon="0.450037">
        <ele>2585.000000</ele>
        <time>2021-09-05T09:25:17Z</time>
      </trkpt>
      <trkpt lat="42.633352" lon="0.450040">
        <ele>2585.000000</ele>
        <time>2021-09-05T09:25:17Z</time>
      </trkpt>
      <trkpt lat="42.633350" lon="0.450042">
        <ele>2585.000000</ele>
        <time>2021-09-05T09:25:19Z</time>
      </trkpt>
      <trkpt lat="42.633350" lon="0.450037">
        <ele>2585.000000</ele>
        <time>2021-09-05T09:25:20Z</time>
      </trkpt>
      <trkpt lat="42.633348" lon="0.450040">
        <ele>2584.000000</ele>
        <time>2021-09-05T09:25:21Z</time>
      </trkpt>
      <trkpt lat="42.633347" lon="0.450040">
        <ele>2584.000000</ele>
        <time>2021-09-05T09:25:22Z</time>
      </trkpt>
      <trkpt lat="42.633333" lon="0.450040">
        <ele>2584.000000</ele>
        <time>2021-09-05T09:25:24Z</time>
      </trkpt>
      <trkpt lat="42.633330" lon="0.450043">
        <ele>2584.000000</ele>
        <time>2021-09-05T09:25:25Z</time>
      </trkpt>
      <trkpt lat="42.633330" lon="0.450045">
        <ele>2584.000000</ele>
        <time>2021-09-05T09:25:26Z</time>
      </trkpt>
      <trkpt lat="42.633325" lon="0.450051">
        <ele>2584.000000</ele>
        <time>2021-09-05T09:25:27Z</time>
      </trkpt>
      <trkpt lat="42.633322" lon="0.450059">
        <ele>2583.000000</ele>
        <time>2021-09-05T09:25:30Z</time>
      </trkpt>
      <trkpt lat="42.633315" lon="0.450072">
        <ele>2583.000000</ele>
        <time>2021-09-05T09:25:31Z</time>
      </trkpt>
      <trkpt lat="42.633308" lon="0.450078">
        <ele>2583.000000</ele>
        <time>2021-09-05T09:25:32Z</time>
      </trkpt>
      <trkpt lat="42.633305" lon="0.450084">
        <ele>2582.000000</ele>
        <time>2021-09-05T09:25:33Z</time>
      </trkpt>
      <trkpt lat="42.633302" lon="0.450090">
        <ele>2582.000000</ele>
        <time>2021-09-05T09:25:34Z</time>
      </trkpt>
      <trkpt lat="42.633298" lon="0.450094">
        <ele>2582.000000</ele>
        <time>2021-09-05T09:25:35Z</time>
      </trkpt>
      <trkpt lat="42.633297" lon="0.450096">
        <ele>2582.000000</ele>
        <time>2021-09-05T09:25:36Z</time>
      </trkpt>
      <trkpt lat="42.633295" lon="0.450095">
        <ele>2582.000000</ele>
        <time>2021-09-05T09:25:37Z</time>
      </trkpt>
      <trkpt lat="42.633293" lon="0.450101">
        <ele>2582.000000</ele>
        <time>2021-09-05T09:25:38Z</time>
      </trkpt>
      <trkpt lat="42.633292" lon="0.450110">
        <ele>2582.000000</ele>
        <time>2021-09-05T09:25:39Z</time>
      </trkpt>
      <trkpt lat="42.633292" lon="0.450113">
        <ele>2582.000000</ele>
        <time>2021-09-05T09:25:40Z</time>
      </trkpt>
      <trkpt lat="42.633290" lon="0.450118">
        <ele>2581.000000</ele>
        <time>2021-09-05T09:25:41Z</time>
      </trkpt>
      <trkpt lat="42.633293" lon="0.450118">
        <ele>2581.000000</ele>
        <time>2021-09-05T09:25:42Z</time>
      </trkpt>
      <trkpt lat="42.633295" lon="0.450117">
        <ele>2581.000000</ele>
        <time>2021-09-05T09:25:43Z</time>
      </trkpt>
      <trkpt lat="42.633293" lon="0.450118">
        <ele>2581.000000</ele>
        <time>2021-09-05T09:25:44Z</time>
      </trkpt>
      <trkpt lat="42.633293" lon="0.450122">
        <ele>2582.000000</ele>
        <time>2021-09-05T09:25:45Z</time>
      </trkpt>
      <trkpt lat="42.633292" lon="0.450125">
        <ele>2582.000000</ele>
        <time>2021-09-05T09:25:46Z</time>
      </trkpt>
      <trkpt lat="42.633287" lon="0.450127">
        <ele>2582.000000</ele>
        <time>2021-09-05T09:25:48Z</time>
      </trkpt>
      <trkpt lat="42.633275" lon="0.450133">
        <ele>2582.000000</ele>
        <time>2021-09-05T09:25:49Z</time>
      </trkpt>
      <trkpt lat="42.633268" lon="0.450140">
        <ele>2582.000000</ele>
        <time>2021-09-05T09:25:50Z</time>
      </trkpt>
      <trkpt lat="42.633263" lon="0.450143">
        <ele>2582.000000</ele>
        <time>2021-09-05T09:25:52Z</time>
      </trkpt>
      <trkpt lat="42.633260" lon="0.450140">
        <ele>2582.000000</ele>
        <time>2021-09-05T09:25:53Z</time>
      </trkpt>
      <trkpt lat="42.633258" lon="0.450135">
        <ele>2581.000000</ele>
        <time>2021-09-05T09:25:55Z</time>
      </trkpt>
      <trkpt lat="42.633262" lon="0.450133">
        <ele>2581.000000</ele>
        <time>2021-09-05T09:25:55Z</time>
      </trkpt>
      <trkpt lat="42.633268" lon="0.450130">
        <ele>2581.000000</ele>
        <time>2021-09-05T09:25:56Z</time>
      </trkpt>
      <trkpt lat="42.633275" lon="0.450129">
        <ele>2581.000000</ele>
        <time>2021-09-05T09:25:57Z</time>
      </trkpt>
      <trkpt lat="42.633287" lon="0.450126">
        <ele>2581.000000</ele>
        <time>2021-09-05T09:25:58Z</time>
      </trkpt>
      <trkpt lat="42.633290" lon="0.450125">
        <ele>2581.000000</ele>
        <time>2021-09-05T09:26:00Z</time>
      </trkpt>
      <trkpt lat="42.633292" lon="0.450123">
        <ele>2581.000000</ele>
        <time>2021-09-05T09:26:02Z</time>
      </trkpt>
      <trkpt lat="42.633298" lon="0.450119">
        <ele>2581.000000</ele>
        <time>2021-09-05T09:26:03Z</time>
      </trkpt>
      <trkpt lat="42.633305" lon="0.450107">
        <ele>2581.000000</ele>
        <time>2021-09-05T09:26:04Z</time>
      </trkpt>
      <trkpt lat="42.633308" lon="0.450098">
        <ele>2581.000000</ele>
        <time>2021-09-05T09:26:05Z</time>
      </trkpt>
      <trkpt lat="42.633310" lon="0.450095">
        <ele>2581.000000</ele>
        <time>2021-09-05T09:26:07Z</time>
      </trkpt>
      <trkpt lat="42.633308" lon="0.450098">
        <ele>2582.000000</ele>
        <time>2021-09-05T09:26:10Z</time>
      </trkpt>
      <trkpt lat="42.633375" lon="0.450083">
        <ele>2581.000000</ele>
        <time>2021-09-05T09:26:26Z</time>
      </trkpt>
      <trkpt lat="42.633383" lon="0.450085">
        <ele>2581.000000</ele>
        <time>2021-09-05T09:26:27Z</time>
      </trkpt>
      <trkpt lat="42.633392" lon="0.450085">
        <ele>2581.000000</ele>
        <time>2021-09-05T09:26:28Z</time>
      </trkpt>
      <trkpt lat="42.633395" lon="0.450085">
        <ele>2581.000000</ele>
        <time>2021-09-05T09:26:29Z</time>
      </trkpt>
      <trkpt lat="42.633400" lon="0.450088">
        <ele>2581.000000</ele>
        <time>2021-09-05T09:26:30Z</time>
      </trkpt>
      <trkpt lat="42.633402" lon="0.450093">
        <ele>2581.000000</ele>
        <time>2021-09-05T09:26:31Z</time>
      </trkpt>
      <trkpt lat="42.633403" lon="0.450100">
        <ele>2580.000000</ele>
        <time>2021-09-05T09:26:32Z</time>
      </trkpt>
      <trkpt lat="42.633400" lon="0.450107">
        <ele>2580.000000</ele>
        <time>2021-09-05T09:26:33Z</time>
      </trkpt>
      <trkpt lat="42.633395" lon="0.450108">
        <ele>2580.000000</ele>
        <time>2021-09-05T09:26:34Z</time>
      </trkpt>
      <trkpt lat="42.633392" lon="0.450108">
        <ele>2579.000000</ele>
        <time>2021-09-05T09:26:35Z</time>
      </trkpt>
      <trkpt lat="42.633390" lon="0.450113">
        <ele>2579.000000</ele>
        <time>2021-09-05T09:26:36Z</time>
      </trkpt>
      <trkpt lat="42.633393" lon="0.450117">
        <ele>2579.000000</ele>
        <time>2021-09-05T09:26:38Z</time>
      </trkpt>
      <trkpt lat="42.633392" lon="0.450127">
        <ele>2578.000000</ele>
        <time>2021-09-05T09:26:38Z</time>
      </trkpt>
      <trkpt lat="42.633391" lon="0.450132">
        <ele>2578.000000</ele>
        <time>2021-09-05T09:26:39Z</time>
      </trkpt>
      <trkpt lat="42.633387" lon="0.450138">
        <ele>2577.000000</ele>
        <time>2021-09-05T09:26:40Z</time>
      </trkpt>
      <trkpt lat="42.633380" lon="0.450152">
        <ele>2577.000000</ele>
        <time>2021-09-05T09:26:41Z</time>
      </trkpt>
      <trkpt lat="42.633376" lon="0.450163">
        <ele>2577.000000</ele>
        <time>2021-09-05T09:26:42Z</time>
      </trkpt>
      <trkpt lat="42.633375" lon="0.450172">
        <ele>2577.000000</ele>
        <time>2021-09-05T09:26:43Z</time>
      </trkpt>
      <trkpt lat="42.633377" lon="0.450177">
        <ele>2577.000000</ele>
        <time>2021-09-05T09:26:44Z</time>
      </trkpt>
      <trkpt lat="42.633392" lon="0.450185">
        <ele>2577.000000</ele>
        <time>2021-09-05T09:26:45Z</time>
      </trkpt>
      <trkpt lat="42.633402" lon="0.450188">
        <ele>2577.000000</ele>
        <time>2021-09-05T09:26:46Z</time>
      </trkpt>
      <trkpt lat="42.633412" lon="0.450190">
        <ele>2577.000000</ele>
        <time>2021-09-05T09:26:47Z</time>
      </trkpt>
      <trkpt lat="42.633422" lon="0.450193">
        <ele>2577.000000</ele>
        <time>2021-09-05T09:26:48Z</time>
      </trkpt>
      <trkpt lat="42.633428" lon="0.450198">
        <ele>2577.000000</ele>
        <time>2021-09-05T09:26:49Z</time>
      </trkpt>
      <trkpt lat="42.633438" lon="0.450208">
        <ele>2577.000000</ele>
        <time>2021-09-05T09:26:50Z</time>
      </trkpt>
      <trkpt lat="42.633447" lon="0.450225">
        <ele>2577.000000</ele>
        <time>2021-09-05T09:26:51Z</time>
      </trkpt>
      <trkpt lat="42.633452" lon="0.450238">
        <ele>2577.000000</ele>
        <time>2021-09-05T09:26:52Z</time>
      </trkpt>
      <trkpt lat="42.633455" lon="0.450252">
        <ele>2577.000000</ele>
        <time>2021-09-05T09:26:53Z</time>
      </trkpt>
      <trkpt lat="42.633463" lon="0.450268">
        <ele>2577.000000</ele>
        <time>2021-09-05T09:26:54Z</time>
      </trkpt>
      <trkpt lat="42.633468" lon="0.450277">
        <ele>2577.000000</ele>
        <time>2021-09-05T09:26:55Z</time>
      </trkpt>
      <trkpt lat="42.633475" lon="0.450288">
        <ele>2577.000000</ele>
        <time>2021-09-05T09:26:56Z</time>
      </trkpt>
      <trkpt lat="42.633478" lon="0.450303">
        <ele>2577.000000</ele>
        <time>2021-09-05T09:26:57Z</time>
      </trkpt>
      <trkpt lat="42.633476" lon="0.450310">
        <ele>2577.000000</ele>
        <time>2021-09-05T09:26:58Z</time>
      </trkpt>
      <trkpt lat="42.633463" lon="0.450317">
        <ele>2577.000000</ele>
        <time>2021-09-05T09:26:59Z</time>
      </trkpt>
      <trkpt lat="42.633457" lon="0.450328">
        <ele>2577.000000</ele>
        <time>2021-09-05T09:27:00Z</time>
      </trkpt>
      <trkpt lat="42.633457" lon="0.450340">
        <ele>2577.000000</ele>
        <time>2021-09-05T09:27:01Z</time>
      </trkpt>
      <trkpt lat="42.633457" lon="0.450347">
        <ele>2577.000000</ele>
        <time>2021-09-05T09:27:03Z</time>
      </trkpt>
      <trkpt lat="42.633457" lon="0.450348">
        <ele>2577.000000</ele>
        <time>2021-09-05T09:27:03Z</time>
      </trkpt>
      <trkpt lat="42.633460" lon="0.450350">
        <ele>2577.000000</ele>
        <time>2021-09-05T09:27:04Z</time>
      </trkpt>
      <trkpt lat="42.633472" lon="0.450350">
        <ele>2577.000000</ele>
        <time>2021-09-05T09:27:05Z</time>
      </trkpt>
      <trkpt lat="42.633485" lon="0.450350">
        <ele>2577.000000</ele>
        <time>2021-09-05T09:27:06Z</time>
      </trkpt>
      <trkpt lat="42.633495" lon="0.450353">
        <ele>2577.000000</ele>
        <time>2021-09-05T09:27:07Z</time>
      </trkpt>
      <trkpt lat="42.633508" lon="0.450357">
        <ele>2577.000000</ele>
        <time>2021-09-05T09:27:08Z</time>
      </trkpt>
      <trkpt lat="42.633518" lon="0.450368">
        <ele>2577.000000</ele>
        <time>2021-09-05T09:27:09Z</time>
      </trkpt>
      <trkpt lat="42.633522" lon="0.450374">
        <ele>2577.000000</ele>
        <time>2021-09-05T09:27:10Z</time>
      </trkpt>
      <trkpt lat="42.633523" lon="0.450378">
        <ele>2577.000000</ele>
        <time>2021-09-05T09:27:11Z</time>
      </trkpt>
      <trkpt lat="42.633527" lon="0.450386">
        <ele>2577.000000</ele>
        <time>2021-09-05T09:27:12Z</time>
      </trkpt>
      <trkpt lat="42.633528" lon="0.450393">
        <ele>2577.000000</ele>
        <time>2021-09-05T09:27:13Z</time>
      </trkpt>
      <trkpt lat="42.633530" lon="0.450400">
        <ele>2577.000000</ele>
        <time>2021-09-05T09:27:15Z</time>
      </trkpt>
      <trkpt lat="42.633535" lon="0.450422">
        <ele>2577.000000</ele>
        <time>2021-09-05T09:27:15Z</time>
      </trkpt>
      <trkpt lat="42.633538" lon="0.450427">
        <ele>2577.000000</ele>
        <time>2021-09-05T09:27:16Z</time>
      </trkpt>
      <trkpt lat="42.633535" lon="0.450423">
        <ele>2577.000000</ele>
        <time>2021-09-05T09:27:17Z</time>
      </trkpt>
      <trkpt lat="42.633534" lon="0.450420">
        <ele>2577.000000</ele>
        <time>2021-09-05T09:27:18Z</time>
      </trkpt>
      <trkpt lat="42.633536" lon="0.450425">
        <ele>2577.000000</ele>
        <time>2021-09-05T09:27:20Z</time>
      </trkpt>
      <trkpt lat="42.633537" lon="0.450432">
        <ele>2577.000000</ele>
        <time>2021-09-05T09:27:21Z</time>
      </trkpt>
      <trkpt lat="42.633537" lon="0.450442">
        <ele>2577.000000</ele>
        <time>2021-09-05T09:27:23Z</time>
      </trkpt>
      <trkpt lat="42.633535" lon="0.450455">
        <ele>2577.000000</ele>
        <time>2021-09-05T09:27:23Z</time>
      </trkpt>
      <trkpt lat="42.633535" lon="0.450467">
        <ele>2577.000000</ele>
        <time>2021-09-05T09:27:24Z</time>
      </trkpt>
      <trkpt lat="42.633536" lon="0.450472">
        <ele>2577.000000</ele>
        <time>2021-09-05T09:27:25Z</time>
      </trkpt>
      <trkpt lat="42.633538" lon="0.450480">
        <ele>2577.000000</ele>
        <time>2021-09-05T09:27:26Z</time>
      </trkpt>
      <trkpt lat="42.633542" lon="0.450485">
        <ele>2577.000000</ele>
        <time>2021-09-05T09:27:27Z</time>
      </trkpt>
      <trkpt lat="42.633550" lon="0.450493">
        <ele>2577.000000</ele>
        <time>2021-09-05T09:27:28Z</time>
      </trkpt>
      <trkpt lat="42.633557" lon="0.450502">
        <ele>2577.000000</ele>
        <time>2021-09-05T09:27:29Z</time>
      </trkpt>
      <trkpt lat="42.633564" lon="0.450512">
        <ele>2577.000000</ele>
        <time>2021-09-05T09:27:30Z</time>
      </trkpt>
      <trkpt lat="42.633570" lon="0.450522">
        <ele>2577.000000</ele>
        <time>2021-09-05T09:27:31Z</time>
      </trkpt>
      <trkpt lat="42.633580" lon="0.450535">
        <ele>2577.000000</ele>
        <time>2021-09-05T09:27:32Z</time>
      </trkpt>
      <trkpt lat="42.633589" lon="0.450558">
        <ele>2577.000000</ele>
        <time>2021-09-05T09:27:33Z</time>
      </trkpt>
      <trkpt lat="42.633592" lon="0.450573">
        <ele>2577.000000</ele>
        <time>2021-09-05T09:27:34Z</time>
      </trkpt>
      <trkpt lat="42.633592" lon="0.450583">
        <ele>2577.000000</ele>
        <time>2021-09-05T09:27:35Z</time>
      </trkpt>
      <trkpt lat="42.633598" lon="0.450592">
        <ele>2577.000000</ele>
        <time>2021-09-05T09:27:36Z</time>
      </trkpt>
      <trkpt lat="42.633610" lon="0.450607">
        <ele>2577.000000</ele>
        <time>2021-09-05T09:27:37Z</time>
      </trkpt>
      <trkpt lat="42.633614" lon="0.450613">
        <ele>2577.000000</ele>
        <time>2021-09-05T09:27:38Z</time>
      </trkpt>
      <trkpt lat="42.633620" lon="0.450618">
        <ele>2577.000000</ele>
        <time>2021-09-05T09:27:39Z</time>
      </trkpt>
      <trkpt lat="42.633630" lon="0.450628">
        <ele>2577.000000</ele>
        <time>2021-09-05T09:27:40Z</time>
      </trkpt>
      <trkpt lat="42.633643" lon="0.450637">
        <ele>2577.000000</ele>
        <time>2021-09-05T09:27:41Z</time>
      </trkpt>
      <trkpt lat="42.633658" lon="0.450645">
        <ele>2574.000000</ele>
        <time>2021-09-05T09:27:42Z</time>
      </trkpt>
      <trkpt lat="42.633670" lon="0.450650">
        <ele>2574.000000</ele>
        <time>2021-09-05T09:27:43Z</time>
      </trkpt>
      <trkpt lat="42.633685" lon="0.450658">
        <ele>2574.000000</ele>
        <time>2021-09-05T09:27:44Z</time>
      </trkpt>
      <trkpt lat="42.633698" lon="0.450660">
        <ele>2574.000000</ele>
        <time>2021-09-05T09:27:45Z</time>
      </trkpt>
      <trkpt lat="42.633710" lon="0.450663">
        <ele>2574.000000</ele>
        <time>2021-09-05T09:27:47Z</time>
      </trkpt>
      <trkpt lat="42.633718" lon="0.450668">
        <ele>2574.000000</ele>
        <time>2021-09-05T09:27:47Z</time>
      </trkpt>
      <trkpt lat="42.633727" lon="0.450676">
        <ele>2574.000000</ele>
        <time>2021-09-05T09:27:48Z</time>
      </trkpt>
      <trkpt lat="42.633728" lon="0.450680">
        <ele>2574.000000</ele>
        <time>2021-09-05T09:27:49Z</time>
      </trkpt>
      <trkpt lat="42.633732" lon="0.450690">
        <ele>2574.000000</ele>
        <time>2021-09-05T09:27:50Z</time>
      </trkpt>
      <trkpt lat="42.633737" lon="0.450703">
        <ele>2574.000000</ele>
        <time>2021-09-05T09:27:51Z</time>
      </trkpt>
      <trkpt lat="42.633740" lon="0.450710">
        <ele>2573.000000</ele>
        <time>2021-09-05T09:27:52Z</time>
      </trkpt>
      <trkpt lat="42.633745" lon="0.450717">
        <ele>2573.000000</ele>
        <time>2021-09-05T09:27:53Z</time>
      </trkpt>
      <trkpt lat="42.633752" lon="0.450718">
        <ele>2573.000000</ele>
        <time>2021-09-05T09:27:54Z</time>
      </trkpt>
      <trkpt lat="42.633762" lon="0.450732">
        <ele>2573.000000</ele>
        <time>2021-09-05T09:27:55Z</time>
      </trkpt>
      <trkpt lat="42.633767" lon="0.450740">
        <ele>2573.000000</ele>
        <time>2021-09-05T09:27:56Z</time>
      </trkpt>
      <trkpt lat="42.633773" lon="0.450748">
        <ele>2572.000000</ele>
        <time>2021-09-05T09:27:57Z</time>
      </trkpt>
      <trkpt lat="42.633774" lon="0.450755">
        <ele>2572.000000</ele>
        <time>2021-09-05T09:27:58Z</time>
      </trkpt>
      <trkpt lat="42.633774" lon="0.450760">
        <ele>2571.000000</ele>
        <time>2021-09-05T09:27:59Z</time>
      </trkpt>
      <trkpt lat="42.633767" lon="0.450762">
        <ele>2571.000000</ele>
        <time>2021-09-05T09:28:00Z</time>
      </trkpt>
      <trkpt lat="42.633770" lon="0.450763">
        <ele>2570.000000</ele>
        <time>2021-09-05T09:28:01Z</time>
      </trkpt>
      <trkpt lat="42.633769" lon="0.450768">
        <ele>2570.000000</ele>
        <time>2021-09-05T09:28:02Z</time>
      </trkpt>
      <trkpt lat="42.633767" lon="0.450772">
        <ele>2569.000000</ele>
        <time>2021-09-05T09:28:04Z</time>
      </trkpt>
      <trkpt lat="42.633766" lon="0.450773">
        <ele>2568.000000</ele>
        <time>2021-09-05T09:28:05Z</time>
      </trkpt>
      <trkpt lat="42.633766" lon="0.450772">
        <ele>2568.000000</ele>
        <time>2021-09-05T09:28:06Z</time>
      </trkpt>
      <trkpt lat="42.633767" lon="0.450775">
        <ele>2567.000000</ele>
        <time>2021-09-05T09:28:07Z</time>
      </trkpt>
      <trkpt lat="42.633768" lon="0.450777">
        <ele>2567.000000</ele>
        <time>2021-09-05T09:28:08Z</time>
      </trkpt>
      <trkpt lat="42.633769" lon="0.450775">
        <ele>2566.000000</ele>
        <time>2021-09-05T09:28:09Z</time>
      </trkpt>
      <trkpt lat="42.633769" lon="0.450772">
        <ele>2566.000000</ele>
        <time>2021-09-05T09:28:10Z</time>
      </trkpt>
      <trkpt lat="42.633769" lon="0.450772">
        <ele>2565.000000</ele>
        <time>2021-09-05T09:28:12Z</time>
      </trkpt>
      <trkpt lat="42.633785" lon="0.451013">
        <ele>2568.000000</ele>
        <time>2021-09-05T09:43:43Z</time>
      </trkpt>
      <trkpt lat="42.633780" lon="0.451023">
        <ele>2568.000000</ele>
        <time>2021-09-05T09:43:43Z</time>
      </trkpt>
      <trkpt lat="42.633775" lon="0.451030">
        <ele>2568.000000</ele>
        <time>2021-09-05T09:43:44Z</time>
      </trkpt>
      <trkpt lat="42.633773" lon="0.451035">
        <ele>2568.000000</ele>
        <time>2021-09-05T09:43:45Z</time>
      </trkpt>
      <trkpt lat="42.633772" lon="0.451037">
        <ele>2568.000000</ele>
        <time>2021-09-05T09:43:46Z</time>
      </trkpt>
      <trkpt lat="42.633770" lon="0.451038">
        <ele>2568.000000</ele>
        <time>2021-09-05T09:43:47Z</time>
      </trkpt>
      <trkpt lat="42.633767" lon="0.451040">
        <ele>2568.000000</ele>
        <time>2021-09-05T09:43:48Z</time>
      </trkpt>
      <trkpt lat="42.633763" lon="0.451043">
        <ele>2568.000000</ele>
        <time>2021-09-05T09:43:49Z</time>
      </trkpt>
      <trkpt lat="42.633759" lon="0.451048">
        <ele>2568.000000</ele>
        <time>2021-09-05T09:43:50Z</time>
      </trkpt>
      <trkpt lat="42.633757" lon="0.451057">
        <ele>2568.000000</ele>
        <time>2021-09-05T09:43:51Z</time>
      </trkpt>
      <trkpt lat="42.633765" lon="0.451062">
        <ele>2568.000000</ele>
        <time>2021-09-05T09:43:52Z</time>
      </trkpt>
      <trkpt lat="42.633763" lon="0.451065">
        <ele>2568.000000</ele>
        <time>2021-09-05T09:43:53Z</time>
      </trkpt>
      <trkpt lat="42.633758" lon="0.451070">
        <ele>2568.000000</ele>
        <time>2021-09-05T09:43:54Z</time>
      </trkpt>
      <trkpt lat="42.633753" lon="0.451075">
        <ele>2568.000000</ele>
        <time>2021-09-05T09:43:55Z</time>
      </trkpt>
      <trkpt lat="42.633745" lon="0.451082">
        <ele>2568.000000</ele>
        <time>2021-09-05T09:43:56Z</time>
      </trkpt>
      <trkpt lat="42.633742" lon="0.451087">
        <ele>2568.000000</ele>
        <time>2021-09-05T09:43:57Z</time>
      </trkpt>
      <trkpt lat="42.633740" lon="0.451092">
        <ele>2568.000000</ele>
        <time>2021-09-05T09:43:58Z</time>
      </trkpt>
      <trkpt lat="42.633733" lon="0.451097">
        <ele>2568.000000</ele>
        <time>2021-09-05T09:43:59Z</time>
      </trkpt>
      <trkpt lat="42.633723" lon="0.451100">
        <ele>2568.000000</ele>
        <time>2021-09-05T09:44:00Z</time>
      </trkpt>
      <trkpt lat="42.633715" lon="0.451100">
        <ele>2568.000000</ele>
        <time>2021-09-05T09:44:01Z</time>
      </trkpt>
      <trkpt lat="42.633707" lon="0.451105">
        <ele>2568.000000</ele>
        <time>2021-09-05T09:44:03Z</time>
      </trkpt>
      <trkpt lat="42.633700" lon="0.451110">
        <ele>2568.000000</ele>
        <time>2021-09-05T09:44:03Z</time>
      </trkpt>
      <trkpt lat="42.633693" lon="0.451112">
        <ele>2568.000000</ele>
        <time>2021-09-05T09:44:04Z</time>
      </trkpt>
      <trkpt lat="42.633687" lon="0.451115">
        <ele>2568.000000</ele>
        <time>2021-09-05T09:44:05Z</time>
      </trkpt>
      <trkpt lat="42.633680" lon="0.451117">
        <ele>2568.000000</ele>
        <time>2021-09-05T09:44:06Z</time>
      </trkpt>
      <trkpt lat="42.633675" lon="0.451120">
        <ele>2568.000000</ele>
        <time>2021-09-05T09:44:07Z</time>
      </trkpt>
      <trkpt lat="42.633670" lon="0.451123">
        <ele>2568.000000</ele>
        <time>2021-09-05T09:44:08Z</time>
      </trkpt>
      <trkpt lat="42.633667" lon="0.451126">
        <ele>2568.000000</ele>
        <time>2021-09-05T09:44:09Z</time>
      </trkpt>
      <trkpt lat="42.633665" lon="0.451128">
        <ele>2568.000000</ele>
        <time>2021-09-05T09:44:10Z</time>
      </trkpt>
      <trkpt lat="42.633660" lon="0.451132">
        <ele>2568.000000</ele>
        <time>2021-09-05T09:44:12Z</time>
      </trkpt>
      <trkpt lat="42.633658" lon="0.451132">
        <ele>2568.000000</ele>
        <time>2021-09-05T09:44:13Z</time>
      </trkpt>
      <trkpt lat="42.633653" lon="0.451135">
        <ele>2568.000000</ele>
        <time>2021-09-05T09:44:14Z</time>
      </trkpt>
      <trkpt lat="42.633650" lon="0.451136">
        <ele>2568.000000</ele>
        <time>2021-09-05T09:44:15Z</time>
      </trkpt>
      <trkpt lat="42.633648" lon="0.451136">
        <ele>2568.000000</ele>
        <time>2021-09-05T09:44:16Z</time>
      </trkpt>
      <trkpt lat="42.633648" lon="0.451136">
        <ele>2568.000000</ele>
        <time>2021-09-05T09:44:17Z</time>
      </trkpt>
      <trkpt lat="42.633648" lon="0.451148">
        <ele>2568.000000</ele>
        <time>2021-09-05T09:44:18Z</time>
      </trkpt>
      <trkpt lat="42.633647" lon="0.451158">
        <ele>2568.000000</ele>
        <time>2021-09-05T09:44:19Z</time>
      </trkpt>
      <trkpt lat="42.633643" lon="0.451168">
        <ele>2568.000000</ele>
        <time>2021-09-05T09:44:20Z</time>
      </trkpt>
      <trkpt lat="42.633641" lon="0.451175">
        <ele>2568.000000</ele>
        <time>2021-09-05T09:44:21Z</time>
      </trkpt>
      <trkpt lat="42.633638" lon="0.451183">
        <ele>2568.000000</ele>
        <time>2021-09-05T09:44:22Z</time>
      </trkpt>
      <trkpt lat="42.633635" lon="0.451188">
        <ele>2568.000000</ele>
        <time>2021-09-05T09:44:23Z</time>
      </trkpt>
      <trkpt lat="42.633631" lon="0.451192">
        <ele>2568.000000</ele>
        <time>2021-09-05T09:44:24Z</time>
      </trkpt>
      <trkpt lat="42.633618" lon="0.451190">
        <ele>2568.000000</ele>
        <time>2021-09-05T09:44:26Z</time>
      </trkpt>
      <trkpt lat="42.633612" lon="0.451188">
        <ele>2568.000000</ele>
        <time>2021-09-05T09:44:26Z</time>
      </trkpt>
      <trkpt lat="42.633607" lon="0.451182">
        <ele>2568.000000</ele>
        <time>2021-09-05T09:44:27Z</time>
      </trkpt>
      <trkpt lat="42.633603" lon="0.451182">
        <ele>2568.000000</ele>
        <time>2021-09-05T09:44:28Z</time>
      </trkpt>
      <trkpt lat="42.633600" lon="0.451183">
        <ele>2568.000000</ele>
        <time>2021-09-05T09:44:29Z</time>
      </trkpt>
      <trkpt lat="42.633597" lon="0.451184">
        <ele>2568.000000</ele>
        <time>2021-09-05T09:44:30Z</time>
      </trkpt>
      <trkpt lat="42.633588" lon="0.451186">
        <ele>2568.000000</ele>
        <time>2021-09-05T09:44:31Z</time>
      </trkpt>
      <trkpt lat="42.633583" lon="0.451188">
        <ele>2568.000000</ele>
        <time>2021-09-05T09:44:32Z</time>
      </trkpt>
      <trkpt lat="42.633580" lon="0.451192">
        <ele>2568.000000</ele>
        <time>2021-09-05T09:44:33Z</time>
      </trkpt>
      <trkpt lat="42.633578" lon="0.451198">
        <ele>2568.000000</ele>
        <time>2021-09-05T09:44:34Z</time>
      </trkpt>
      <trkpt lat="42.633575" lon="0.451205">
        <ele>2568.000000</ele>
        <time>2021-09-05T09:44:35Z</time>
      </trkpt>
      <trkpt lat="42.633570" lon="0.451208">
        <ele>2568.000000</ele>
        <time>2021-09-05T09:44:36Z</time>
      </trkpt>
      <trkpt lat="42.633567" lon="0.451210">
        <ele>2568.000000</ele>
        <time>2021-09-05T09:44:37Z</time>
      </trkpt>
      <trkpt lat="42.633563" lon="0.451210">
        <ele>2568.000000</ele>
        <time>2021-09-05T09:44:38Z</time>
      </trkpt>
      <trkpt lat="42.633555" lon="0.451203">
        <ele>2568.000000</ele>
        <time>2021-09-05T09:44:39Z</time>
      </trkpt>
      <trkpt lat="42.633542" lon="0.451193">
        <ele>2568.000000</ele>
        <time>2021-09-05T09:44:40Z</time>
      </trkpt>
      <trkpt lat="42.633535" lon="0.451188">
        <ele>2568.000000</ele>
        <time>2021-09-05T09:44:41Z</time>
      </trkpt>
      <trkpt lat="42.633530" lon="0.451182">
        <ele>2568.000000</ele>
        <time>2021-09-05T09:44:42Z</time>
      </trkpt>
      <trkpt lat="42.633527" lon="0.451187">
        <ele>2568.000000</ele>
        <time>2021-09-05T09:44:43Z</time>
      </trkpt>
      <trkpt lat="42.633527" lon="0.451190">
        <ele>2568.000000</ele>
        <time>2021-09-05T09:44:44Z</time>
      </trkpt>
      <trkpt lat="42.633525" lon="0.451196">
        <ele>2568.000000</ele>
        <time>2021-09-05T09:44:45Z</time>
      </trkpt>
      <trkpt lat="42.633523" lon="0.451202">
        <ele>2568.000000</ele>
        <time>2021-09-05T09:44:46Z</time>
      </trkpt>
      <trkpt lat="42.633518" lon="0.451202">
        <ele>2568.000000</ele>
        <time>2021-09-05T09:44:47Z</time>
      </trkpt>
      <trkpt lat="42.633512" lon="0.451203">
        <ele>2568.000000</ele>
        <time>2021-09-05T09:44:48Z</time>
      </trkpt>
      <trkpt lat="42.633507" lon="0.451207">
        <ele>2568.000000</ele>
        <time>2021-09-05T09:44:50Z</time>
      </trkpt>
      <trkpt lat="42.633500" lon="0.451213">
        <ele>2568.000000</ele>
        <time>2021-09-05T09:44:50Z</time>
      </trkpt>
      <trkpt lat="42.633497" lon="0.451213">
        <ele>2568.000000</ele>
        <time>2021-09-05T09:44:51Z</time>
      </trkpt>
      <trkpt lat="42.633492" lon="0.451215">
        <ele>2568.000000</ele>
        <time>2021-09-05T09:44:52Z</time>
      </trkpt>
      <trkpt lat="42.633488" lon="0.451214">
        <ele>2568.000000</ele>
        <time>2021-09-05T09:44:53Z</time>
      </trkpt>
      <trkpt lat="42.633485" lon="0.451214">
        <ele>2568.000000</ele>
        <time>2021-09-05T09:44:54Z</time>
      </trkpt>
      <trkpt lat="42.633483" lon="0.451216">
        <ele>2568.000000</ele>
        <time>2021-09-05T09:44:55Z</time>
      </trkpt>
      <trkpt lat="42.633478" lon="0.451215">
        <ele>2568.000000</ele>
        <time>2021-09-05T09:44:56Z</time>
      </trkpt>
      <trkpt lat="42.633477" lon="0.451216">
        <ele>2568.000000</ele>
        <time>2021-09-05T09:44:58Z</time>
      </trkpt>
      <trkpt lat="42.633475" lon="0.451219">
        <ele>2568.000000</ele>
        <time>2021-09-05T09:44:59Z</time>
      </trkpt>
      <trkpt lat="42.633470" lon="0.451224">
        <ele>2554.000000</ele>
        <time>2021-09-05T09:45:00Z</time>
      </trkpt>
      <trkpt lat="42.633467" lon="0.451229">
        <ele>2554.000000</ele>
        <time>2021-09-05T09:45:01Z</time>
      </trkpt>
      <trkpt lat="42.633462" lon="0.451232">
        <ele>2554.000000</ele>
        <time>2021-09-05T09:45:03Z</time>
      </trkpt>
      <trkpt lat="42.633458" lon="0.451236">
        <ele>2554.000000</ele>
        <time>2021-09-05T09:45:04Z</time>
      </trkpt>
      <trkpt lat="42.633457" lon="0.451248">
        <ele>2554.000000</ele>
        <time>2021-09-05T09:45:05Z</time>
      </trkpt>
      <trkpt lat="42.633455" lon="0.451255">
        <ele>2554.000000</ele>
        <time>2021-09-05T09:45:06Z</time>
      </trkpt>
      <trkpt lat="42.633450" lon="0.451253">
        <ele>2554.000000</ele>
        <time>2021-09-05T09:45:07Z</time>
      </trkpt>
      <trkpt lat="42.633447" lon="0.451247">
        <ele>2554.000000</ele>
        <time>2021-09-05T09:45:08Z</time>
      </trkpt>
      <trkpt lat="42.633457" lon="0.451248">
        <ele>2554.000000</ele>
        <time>2021-09-05T09:45:10Z</time>
      </trkpt>
      <trkpt lat="42.633430" lon="0.451263">
        <ele>2541.000000</ele>
        <time>2021-09-05T09:47:20Z</time>
      </trkpt>
      <trkpt lat="42.633423" lon="0.451268">
        <ele>2538.000000</ele>
        <time>2021-09-05T09:47:37Z</time>
      </trkpt>
      <trkpt lat="42.633065" lon="0.451608">
        <ele>2538.000000</ele>
        <time>2021-09-05T09:47:50Z</time>
      </trkpt>
      <trkpt lat="42.633062" lon="0.451612">
        <ele>2538.000000</ele>
        <time>2021-09-05T09:47:51Z</time>
      </trkpt>
      <trkpt lat="42.633059" lon="0.451618">
        <ele>2538.000000</ele>
        <time>2021-09-05T09:47:52Z</time>
      </trkpt>
      <trkpt lat="42.633055" lon="0.451622">
        <ele>2538.000000</ele>
        <time>2021-09-05T09:47:53Z</time>
      </trkpt>
      <trkpt lat="42.633045" lon="0.451622">
        <ele>2538.000000</ele>
        <time>2021-09-05T09:47:54Z</time>
      </trkpt>
      <trkpt lat="42.633040" lon="0.451623">
        <ele>2537.000000</ele>
        <time>2021-09-05T09:47:55Z</time>
      </trkpt>
      <trkpt lat="42.633035" lon="0.451622">
        <ele>2537.000000</ele>
        <time>2021-09-05T09:47:56Z</time>
      </trkpt>
      <trkpt lat="42.633032" lon="0.451623">
        <ele>2536.000000</ele>
        <time>2021-09-05T09:47:57Z</time>
      </trkpt>
      <trkpt lat="42.633028" lon="0.451620">
        <ele>2536.000000</ele>
        <time>2021-09-05T09:47:58Z</time>
      </trkpt>
      <trkpt lat="42.633023" lon="0.451617">
        <ele>2536.000000</ele>
        <time>2021-09-05T09:47:59Z</time>
      </trkpt>
      <trkpt lat="42.633022" lon="0.451610">
        <ele>2535.000000</ele>
        <time>2021-09-05T09:48:00Z</time>
      </trkpt>
      <trkpt lat="42.633018" lon="0.451608">
        <ele>2535.000000</ele>
        <time>2021-09-05T09:48:01Z</time>
      </trkpt>
      <trkpt lat="42.633013" lon="0.451612">
        <ele>2535.000000</ele>
        <time>2021-09-05T09:48:02Z</time>
      </trkpt>
      <trkpt lat="42.633010" lon="0.451617">
        <ele>2535.000000</ele>
        <time>2021-09-05T09:48:03Z</time>
      </trkpt>
      <trkpt lat="42.633010" lon="0.451627">
        <ele>2535.000000</ele>
        <time>2021-09-05T09:48:04Z</time>
      </trkpt>
      <trkpt lat="42.633010" lon="0.451632">
        <ele>2535.000000</ele>
        <time>2021-09-05T09:48:06Z</time>
      </trkpt>
      <trkpt lat="42.633008" lon="0.451635">
        <ele>2535.000000</ele>
        <time>2021-09-05T09:48:06Z</time>
      </trkpt>
      <trkpt lat="42.633005" lon="0.451638">
        <ele>2535.000000</ele>
        <time>2021-09-05T09:48:07Z</time>
      </trkpt>
      <trkpt lat="42.632999" lon="0.451640">
        <ele>2535.000000</ele>
        <time>2021-09-05T09:48:08Z</time>
      </trkpt>
      <trkpt lat="42.632995" lon="0.451638">
        <ele>2535.000000</ele>
        <time>2021-09-05T09:48:09Z</time>
      </trkpt>
      <trkpt lat="42.632993" lon="0.451637">
        <ele>2535.000000</ele>
        <time>2021-09-05T09:48:10Z</time>
      </trkpt>
      <trkpt lat="42.632992" lon="0.451640">
        <ele>2535.000000</ele>
        <time>2021-09-05T09:48:11Z</time>
      </trkpt>
      <trkpt lat="42.632990" lon="0.451643">
        <ele>2535.000000</ele>
        <time>2021-09-05T09:48:12Z</time>
      </trkpt>
      <trkpt lat="42.632993" lon="0.451639">
        <ele>2535.000000</ele>
        <time>2021-09-05T09:48:13Z</time>
      </trkpt>
      <trkpt lat="42.632993" lon="0.451645">
        <ele>2535.000000</ele>
        <time>2021-09-05T09:48:14Z</time>
      </trkpt>
      <trkpt lat="42.632990" lon="0.451650">
        <ele>2535.000000</ele>
        <time>2021-09-05T09:48:15Z</time>
      </trkpt>
      <trkpt lat="42.632985" lon="0.451660">
        <ele>2535.000000</ele>
        <time>2021-09-05T09:48:16Z</time>
      </trkpt>
      <trkpt lat="42.632978" lon="0.451672">
        <ele>2535.000000</ele>
        <time>2021-09-05T09:48:17Z</time>
      </trkpt>
      <trkpt lat="42.632975" lon="0.451680">
        <ele>2535.000000</ele>
        <time>2021-09-05T09:48:18Z</time>
      </trkpt>
      <trkpt lat="42.632971" lon="0.451693">
        <ele>2535.000000</ele>
        <time>2021-09-05T09:48:19Z</time>
      </trkpt>
      <trkpt lat="42.632972" lon="0.451702">
        <ele>2535.000000</ele>
        <time>2021-09-05T09:48:20Z</time>
      </trkpt>
      <trkpt lat="42.632973" lon="0.451717">
        <ele>2535.000000</ele>
        <time>2021-09-05T09:48:21Z</time>
      </trkpt>
      <trkpt lat="42.632975" lon="0.451723">
        <ele>2535.000000</ele>
        <time>2021-09-05T09:48:22Z</time>
      </trkpt>
      <trkpt lat="42.632975" lon="0.451735">
        <ele>2535.000000</ele>
        <time>2021-09-05T09:48:23Z</time>
      </trkpt>
      <trkpt lat="42.632978" lon="0.451748">
        <ele>2535.000000</ele>
        <time>2021-09-05T09:48:24Z</time>
      </trkpt>
      <trkpt lat="42.632982" lon="0.451760">
        <ele>2535.000000</ele>
        <time>2021-09-05T09:48:25Z</time>
      </trkpt>
      <trkpt lat="42.632985" lon="0.451770">
        <ele>2535.000000</ele>
        <time>2021-09-05T09:48:26Z</time>
      </trkpt>
      <trkpt lat="42.632987" lon="0.451778">
        <ele>2535.000000</ele>
        <time>2021-09-05T09:48:27Z</time>
      </trkpt>
      <trkpt lat="42.632988" lon="0.451785">
        <ele>2535.000000</ele>
        <time>2021-09-05T09:48:29Z</time>
      </trkpt>
      <trkpt lat="42.632990" lon="0.451787">
        <ele>2535.000000</ele>
        <time>2021-09-05T09:48:29Z</time>
      </trkpt>
      <trkpt lat="42.632992" lon="0.451795">
        <ele>2535.000000</ele>
        <time>2021-09-05T09:48:30Z</time>
      </trkpt>
      <trkpt lat="42.632990" lon="0.451797">
        <ele>2535.000000</ele>
        <time>2021-09-05T09:48:31Z</time>
      </trkpt>
      <trkpt lat="42.632990" lon="0.451802">
        <ele>2535.000000</ele>
        <time>2021-09-05T09:48:32Z</time>
      </trkpt>
      <trkpt lat="42.632992" lon="0.451805">
        <ele>2535.000000</ele>
        <time>2021-09-05T09:48:33Z</time>
      </trkpt>
      <trkpt lat="42.632993" lon="0.451807">
        <ele>2535.000000</ele>
        <time>2021-09-05T09:48:34Z</time>
      </trkpt>
      <trkpt lat="42.633000" lon="0.451807">
        <ele>2535.000000</ele>
        <time>2021-09-05T09:48:35Z</time>
      </trkpt>
      <trkpt lat="42.633005" lon="0.451810">
        <ele>2535.000000</ele>
        <time>2021-09-05T09:48:36Z</time>
      </trkpt>
      <trkpt lat="42.633010" lon="0.451815">
        <ele>2535.000000</ele>
        <time>2021-09-05T09:48:37Z</time>
      </trkpt>
      <trkpt lat="42.633012" lon="0.451817">
        <ele>2535.000000</ele>
        <time>2021-09-05T09:48:38Z</time>
      </trkpt>
      <trkpt lat="42.633013" lon="0.451818">
        <ele>2535.000000</ele>
        <time>2021-09-05T09:48:39Z</time>
      </trkpt>
      <trkpt lat="42.633013" lon="0.451822">
        <ele>2535.000000</ele>
        <time>2021-09-05T09:48:40Z</time>
      </trkpt>
      <trkpt lat="42.633015" lon="0.451823">
        <ele>2535.000000</ele>
        <time>2021-09-05T09:48:41Z</time>
      </trkpt>
      <trkpt lat="42.633017" lon="0.451827">
        <ele>2535.000000</ele>
        <time>2021-09-05T09:48:42Z</time>
      </trkpt>
      <trkpt lat="42.633019" lon="0.451828">
        <ele>2535.000000</ele>
        <time>2021-09-05T09:48:43Z</time>
      </trkpt>
      <trkpt lat="42.633023" lon="0.451830">
        <ele>2535.000000</ele>
        <time>2021-09-05T09:48:44Z</time>
      </trkpt>
      <trkpt lat="42.633027" lon="0.451832">
        <ele>2535.000000</ele>
        <time>2021-09-05T09:48:45Z</time>
      </trkpt>
      <trkpt lat="42.633025" lon="0.451832">
        <ele>2535.000000</ele>
        <time>2021-09-05T09:48:46Z</time>
      </trkpt>
      <trkpt lat="42.633028" lon="0.451837">
        <ele>2535.000000</ele>
        <time>2021-09-05T09:48:47Z</time>
      </trkpt>
      <trkpt lat="42.633035" lon="0.451847">
        <ele>2535.000000</ele>
        <time>2021-09-05T09:48:48Z</time>
      </trkpt>
      <trkpt lat="42.633038" lon="0.451850">
        <ele>2535.000000</ele>
        <time>2021-09-05T09:48:49Z</time>
      </trkpt>
      <trkpt lat="42.633040" lon="0.451853">
        <ele>2535.000000</ele>
        <time>2021-09-05T09:48:50Z</time>
      </trkpt>
      <trkpt lat="42.633041" lon="0.451857">
        <ele>2535.000000</ele>
        <time>2021-09-05T09:48:51Z</time>
      </trkpt>
      <trkpt lat="42.633042" lon="0.451860">
        <ele>2535.000000</ele>
        <time>2021-09-05T09:48:52Z</time>
      </trkpt>
      <trkpt lat="42.633042" lon="0.451865">
        <ele>2535.000000</ele>
        <time>2021-09-05T09:48:54Z</time>
      </trkpt>
      <trkpt lat="42.633035" lon="0.451865">
        <ele>2535.000000</ele>
        <time>2021-09-05T09:48:54Z</time>
      </trkpt>
      <trkpt lat="42.633030" lon="0.451872">
        <ele>2535.000000</ele>
        <time>2021-09-05T09:48:55Z</time>
      </trkpt>
      <trkpt lat="42.633023" lon="0.451875">
        <ele>2535.000000</ele>
        <time>2021-09-05T09:48:56Z</time>
      </trkpt>
      <trkpt lat="42.633022" lon="0.451873">
        <ele>2535.000000</ele>
        <time>2021-09-05T09:48:57Z</time>
      </trkpt>
      <trkpt lat="42.633018" lon="0.451875">
        <ele>2535.000000</ele>
        <time>2021-09-05T09:48:58Z</time>
      </trkpt>
      <trkpt lat="42.633015" lon="0.451875">
        <ele>2535.000000</ele>
        <time>2021-09-05T09:48:59Z</time>
      </trkpt>
      <trkpt lat="42.633010" lon="0.451880">
        <ele>2532.000000</ele>
        <time>2021-09-05T09:49:01Z</time>
      </trkpt>
      <trkpt lat="42.633005" lon="0.451882">
        <ele>2532.000000</ele>
        <time>2021-09-05T09:49:02Z</time>
      </trkpt>
      <trkpt lat="42.633002" lon="0.451885">
        <ele>2532.000000</ele>
        <time>2021-09-05T09:49:03Z</time>
      </trkpt>
      <trkpt lat="42.633003" lon="0.451893">
        <ele>2532.000000</ele>
        <time>2021-09-05T09:49:04Z</time>
      </trkpt>
      <trkpt lat="42.633000" lon="0.451903">
        <ele>2532.000000</ele>
        <time>2021-09-05T09:49:05Z</time>
      </trkpt>
      <trkpt lat="42.632997" lon="0.451912">
        <ele>2532.000000</ele>
        <time>2021-09-05T09:49:06Z</time>
      </trkpt>
      <trkpt lat="42.632993" lon="0.451918">
        <ele>2532.000000</ele>
        <time>2021-09-05T09:49:07Z</time>
      </trkpt>
      <trkpt lat="42.632991" lon="0.451925">
        <ele>2532.000000</ele>
        <time>2021-09-05T09:49:08Z</time>
      </trkpt>
      <trkpt lat="42.632989" lon="0.451935">
        <ele>2532.000000</ele>
        <time>2021-09-05T09:49:09Z</time>
      </trkpt>
      <trkpt lat="42.632988" lon="0.451942">
        <ele>2532.000000</ele>
        <time>2021-09-05T09:49:10Z</time>
      </trkpt>
      <trkpt lat="42.632988" lon="0.451945">
        <ele>2532.000000</ele>
        <time>2021-09-05T09:49:11Z</time>
      </trkpt>
      <trkpt lat="42.632989" lon="0.451947">
        <ele>2532.000000</ele>
        <time>2021-09-05T09:49:12Z</time>
      </trkpt>
      <trkpt lat="42.632990" lon="0.451948">
        <ele>2532.000000</ele>
        <time>2021-09-05T09:49:14Z</time>
      </trkpt>
      <trkpt lat="42.632997" lon="0.451953">
        <ele>2532.000000</ele>
        <time>2021-09-05T09:49:14Z</time>
      </trkpt>
      <trkpt lat="42.632995" lon="0.451960">
        <ele>2532.000000</ele>
        <time>2021-09-05T09:49:15Z</time>
      </trkpt>
      <trkpt lat="42.632997" lon="0.451963">
        <ele>2532.000000</ele>
        <time>2021-09-05T09:49:16Z</time>
      </trkpt>
      <trkpt lat="42.632999" lon="0.451967">
        <ele>2532.000000</ele>
        <time>2021-09-05T09:49:17Z</time>
      </trkpt>
      <trkpt lat="42.632999" lon="0.451965">
        <ele>2531.000000</ele>
        <time>2021-09-05T09:49:18Z</time>
      </trkpt>
      <trkpt lat="42.632999" lon="0.451962">
        <ele>2531.000000</ele>
        <time>2021-09-05T09:49:19Z</time>
      </trkpt>
      <trkpt lat="42.633000" lon="0.451958">
        <ele>2531.000000</ele>
        <time>2021-09-05T09:49:20Z</time>
      </trkpt>
      <trkpt lat="42.633002" lon="0.451965">
        <ele>2531.000000</ele>
        <time>2021-09-05T09:49:22Z</time>
      </trkpt>
      <trkpt lat="42.633005" lon="0.451972">
        <ele>2530.000000</ele>
        <time>2021-09-05T09:49:23Z</time>
      </trkpt>
      <trkpt lat="42.633007" lon="0.451980">
        <ele>2530.000000</ele>
        <time>2021-09-05T09:49:24Z</time>
      </trkpt>
      <trkpt lat="42.633005" lon="0.451985">
        <ele>2529.000000</ele>
        <time>2021-09-05T09:49:25Z</time>
      </trkpt>
      <trkpt lat="42.633003" lon="0.451993">
        <ele>2529.000000</ele>
        <time>2021-09-05T09:49:26Z</time>
      </trkpt>
      <trkpt lat="42.632997" lon="0.452005">
        <ele>2529.000000</ele>
        <time>2021-09-05T09:49:27Z</time>
      </trkpt>
      <trkpt lat="42.632993" lon="0.452008">
        <ele>2529.000000</ele>
        <time>2021-09-05T09:49:28Z</time>
      </trkpt>
      <trkpt lat="42.632990" lon="0.452012">
        <ele>2529.000000</ele>
        <time>2021-09-05T09:49:29Z</time>
      </trkpt>
      <trkpt lat="42.632988" lon="0.452013">
        <ele>2528.000000</ele>
        <time>2021-09-05T09:49:31Z</time>
      </trkpt>
      <trkpt lat="42.632985" lon="0.452018">
        <ele>2528.000000</ele>
        <time>2021-09-05T09:49:32Z</time>
      </trkpt>
      <trkpt lat="42.632983" lon="0.452020">
        <ele>2528.000000</ele>
        <time>2021-09-05T09:49:33Z</time>
      </trkpt>
      <trkpt lat="42.632980" lon="0.452020">
        <ele>2527.000000</ele>
        <time>2021-09-05T09:49:36Z</time>
      </trkpt>
      <trkpt lat="42.632978" lon="0.452019">
        <ele>2527.000000</ele>
        <time>2021-09-05T09:49:38Z</time>
      </trkpt>
      <trkpt lat="42.632980" lon="0.452020">
        <ele>2526.000000</ele>
        <time>2021-09-05T09:49:39Z</time>
      </trkpt>
      <trkpt lat="42.632978" lon="0.452027">
        <ele>2525.000000</ele>
        <time>2021-09-05T09:49:41Z</time>
      </trkpt>
      <trkpt lat="42.632973" lon="0.452030">
        <ele>2525.000000</ele>
        <time>2021-09-05T09:49:42Z</time>
      </trkpt>
      <trkpt lat="42.632970" lon="0.452030">
        <ele>2525.000000</ele>
        <time>2021-09-05T09:49:43Z</time>
      </trkpt>
      <trkpt lat="42.632965" lon="0.452028">
        <ele>2525.000000</ele>
        <time>2021-09-05T09:49:44Z</time>
      </trkpt>
      <trkpt lat="42.632962" lon="0.452028">
        <ele>2524.000000</ele>
        <time>2021-09-05T09:49:45Z</time>
      </trkpt>
      <trkpt lat="42.632958" lon="0.452030">
        <ele>2524.000000</ele>
        <time>2021-09-05T09:49:47Z</time>
      </trkpt>
      <trkpt lat="42.632957" lon="0.452029">
        <ele>2524.000000</ele>
        <time>2021-09-05T09:49:48Z</time>
      </trkpt>
      <trkpt lat="42.632960" lon="0.452030">
        <ele>2524.000000</ele>
        <time>2021-09-05T09:49:50Z</time>
      </trkpt>
      <trkpt lat="42.632957" lon="0.452032">
        <ele>2524.000000</ele>
        <time>2021-09-05T09:49:51Z</time>
      </trkpt>
      <trkpt lat="42.632955" lon="0.452036">
        <ele>2524.000000</ele>
        <time>2021-09-05T09:49:52Z</time>
      </trkpt>
      <trkpt lat="42.632948" lon="0.452048">
        <ele>2524.000000</ele>
        <time>2021-09-05T09:49:53Z</time>
      </trkpt>
      <trkpt lat="42.632943" lon="0.452055">
        <ele>2524.000000</ele>
        <time>2021-09-05T09:49:54Z</time>
      </trkpt>
      <trkpt lat="42.632943" lon="0.452065">
        <ele>2524.000000</ele>
        <time>2021-09-05T09:49:55Z</time>
      </trkpt>
      <trkpt lat="42.632945" lon="0.452082">
        <ele>2524.000000</ele>
        <time>2021-09-05T09:49:56Z</time>
      </trkpt>
      <trkpt lat="42.632942" lon="0.452093">
        <ele>2524.000000</ele>
        <time>2021-09-05T09:49:57Z</time>
      </trkpt>
      <trkpt lat="42.632939" lon="0.452108">
        <ele>2524.000000</ele>
        <time>2021-09-05T09:49:58Z</time>
      </trkpt>
      <trkpt lat="42.632940" lon="0.452120">
        <ele>2523.000000</ele>
        <time>2021-09-05T09:49:59Z</time>
      </trkpt>
      <trkpt lat="42.632944" lon="0.452135">
        <ele>2523.000000</ele>
        <time>2021-09-05T09:50:00Z</time>
      </trkpt>
      <trkpt lat="42.632948" lon="0.452143">
        <ele>2523.000000</ele>
        <time>2021-09-05T09:50:01Z</time>
      </trkpt>
      <trkpt lat="42.632950" lon="0.452148">
        <ele>2523.000000</ele>
        <time>2021-09-05T09:50:02Z</time>
      </trkpt>
      <trkpt lat="42.632953" lon="0.452148">
        <ele>2523.000000</ele>
        <time>2021-09-05T09:50:03Z</time>
      </trkpt>
      <trkpt lat="42.632957" lon="0.452155">
        <ele>2523.000000</ele>
        <time>2021-09-05T09:50:04Z</time>
      </trkpt>
      <trkpt lat="42.632958" lon="0.452167">
        <ele>2523.000000</ele>
        <time>2021-09-05T09:50:05Z</time>
      </trkpt>
      <trkpt lat="42.632957" lon="0.452177">
        <ele>2523.000000</ele>
        <time>2021-09-05T09:50:06Z</time>
      </trkpt>
      <trkpt lat="42.632955" lon="0.452185">
        <ele>2523.000000</ele>
        <time>2021-09-05T09:50:07Z</time>
      </trkpt>
      <trkpt lat="42.632957" lon="0.452192">
        <ele>2523.000000</ele>
        <time>2021-09-05T09:50:09Z</time>
      </trkpt>
      <trkpt lat="42.632960" lon="0.452195">
        <ele>2523.000000</ele>
        <time>2021-09-05T09:50:10Z</time>
      </trkpt>
      <trkpt lat="42.632962" lon="0.452197">
        <ele>2523.000000</ele>
        <time>2021-09-05T09:50:11Z</time>
      </trkpt>
      <trkpt lat="42.632963" lon="0.452200">
        <ele>2523.000000</ele>
        <time>2021-09-05T09:50:12Z</time>
      </trkpt>
      <trkpt lat="42.632963" lon="0.452205">
        <ele>2523.000000</ele>
        <time>2021-09-05T09:50:13Z</time>
      </trkpt>
      <trkpt lat="42.632962" lon="0.452212">
        <ele>2523.000000</ele>
        <time>2021-09-05T09:50:14Z</time>
      </trkpt>
      <trkpt lat="42.632960" lon="0.452220">
        <ele>2523.000000</ele>
        <time>2021-09-05T09:50:15Z</time>
      </trkpt>
      <trkpt lat="42.632957" lon="0.452225">
        <ele>2523.000000</ele>
        <time>2021-09-05T09:50:16Z</time>
      </trkpt>
      <trkpt lat="42.632951" lon="0.452230">
        <ele>2523.000000</ele>
        <time>2021-09-05T09:50:18Z</time>
      </trkpt>
      <trkpt lat="42.632948" lon="0.452233">
        <ele>2523.000000</ele>
        <time>2021-09-05T09:50:19Z</time>
      </trkpt>
      <trkpt lat="42.632951" lon="0.452230">
        <ele>2523.000000</ele>
        <time>2021-09-05T09:50:20Z</time>
      </trkpt>
      <trkpt lat="42.632952" lon="0.452230">
        <ele>2523.000000</ele>
        <time>2021-09-05T09:50:22Z</time>
      </trkpt>
      <trkpt lat="42.632952" lon="0.452237">
        <ele>2523.000000</ele>
        <time>2021-09-05T09:50:22Z</time>
      </trkpt>
      <trkpt lat="42.632960" lon="0.452235">
        <ele>2523.000000</ele>
        <time>2021-09-05T09:50:23Z</time>
      </trkpt>
      <trkpt lat="42.632963" lon="0.452240">
        <ele>2523.000000</ele>
        <time>2021-09-05T09:50:25Z</time>
      </trkpt>
      <trkpt lat="42.632967" lon="0.452242">
        <ele>2522.000000</ele>
        <time>2021-09-05T09:50:26Z</time>
      </trkpt>
      <trkpt lat="42.632968" lon="0.452247">
        <ele>2522.000000</ele>
        <time>2021-09-05T09:50:27Z</time>
      </trkpt>
      <trkpt lat="42.632968" lon="0.452252">
        <ele>2522.000000</ele>
        <time>2021-09-05T09:50:28Z</time>
      </trkpt>
      <trkpt lat="42.632970" lon="0.452255">
        <ele>2522.000000</ele>
        <time>2021-09-05T09:50:29Z</time>
      </trkpt>
      <trkpt lat="42.632970" lon="0.452262">
        <ele>2522.000000</ele>
        <time>2021-09-05T09:50:30Z</time>
      </trkpt>
      <trkpt lat="42.632970" lon="0.452258">
        <ele>2522.000000</ele>
        <time>2021-09-05T09:50:31Z</time>
      </trkpt>
      <trkpt lat="42.632968" lon="0.452247">
        <ele>2522.000000</ele>
        <time>2021-09-05T09:50:31Z</time>
      </trkpt>
      <trkpt lat="42.632980" lon="0.452337">
        <ele>2521.000000</ele>
        <time>2021-09-05T09:50:39Z</time>
      </trkpt>
      <trkpt lat="42.632982" lon="0.452350">
        <ele>2521.000000</ele>
        <time>2021-09-05T09:50:40Z</time>
      </trkpt>
      <trkpt lat="42.632985" lon="0.452363">
        <ele>2521.000000</ele>
        <time>2021-09-05T09:50:41Z</time>
      </trkpt>
      <trkpt lat="42.632987" lon="0.452377">
        <ele>2521.000000</ele>
        <time>2021-09-05T09:50:42Z</time>
      </trkpt>
      <trkpt lat="42.632990" lon="0.452388">
        <ele>2521.000000</ele>
        <time>2021-09-05T09:50:43Z</time>
      </trkpt>
      <trkpt lat="42.632993" lon="0.452393">
        <ele>2521.000000</ele>
        <time>2021-09-05T09:50:45Z</time>
      </trkpt>
      <trkpt lat="42.632995" lon="0.452400">
        <ele>2521.000000</ele>
        <time>2021-09-05T09:50:45Z</time>
      </trkpt>
      <trkpt lat="42.632996" lon="0.452407">
        <ele>2521.000000</ele>
        <time>2021-09-05T09:50:46Z</time>
      </trkpt>
      <trkpt lat="42.632996" lon="0.452410">
        <ele>2521.000000</ele>
        <time>2021-09-05T09:50:47Z</time>
      </trkpt>
      <trkpt lat="42.632992" lon="0.452415">
        <ele>2520.000000</ele>
        <time>2021-09-05T09:50:49Z</time>
      </trkpt>
      <trkpt lat="42.632992" lon="0.452422">
        <ele>2520.000000</ele>
        <time>2021-09-05T09:50:50Z</time>
      </trkpt>
      <trkpt lat="42.632992" lon="0.452428">
        <ele>2520.000000</ele>
        <time>2021-09-05T09:50:51Z</time>
      </trkpt>
      <trkpt lat="42.632994" lon="0.452435">
        <ele>2520.000000</ele>
        <time>2021-09-05T09:50:52Z</time>
      </trkpt>
      <trkpt lat="42.632994" lon="0.452440">
        <ele>2520.000000</ele>
        <time>2021-09-05T09:50:53Z</time>
      </trkpt>
      <trkpt lat="42.632994" lon="0.452443">
        <ele>2520.000000</ele>
        <time>2021-09-05T09:50:54Z</time>
      </trkpt>
      <trkpt lat="42.632995" lon="0.452443">
        <ele>2520.000000</ele>
        <time>2021-09-05T09:50:55Z</time>
      </trkpt>
      <trkpt lat="42.632997" lon="0.452448">
        <ele>2519.000000</ele>
        <time>2021-09-05T09:50:56Z</time>
      </trkpt>
      <trkpt lat="42.632999" lon="0.452448">
        <ele>2519.000000</ele>
        <time>2021-09-05T09:50:57Z</time>
      </trkpt>
      <trkpt lat="42.633008" lon="0.452447">
        <ele>2519.000000</ele>
        <time>2021-09-05T09:50:58Z</time>
      </trkpt>
      <trkpt lat="42.633008" lon="0.452452">
        <ele>2519.000000</ele>
        <time>2021-09-05T09:50:59Z</time>
      </trkpt>
      <trkpt lat="42.633005" lon="0.452458">
        <ele>2519.000000</ele>
        <time>2021-09-05T09:51:00Z</time>
      </trkpt>
      <trkpt lat="42.633003" lon="0.452462">
        <ele>2518.000000</ele>
        <time>2021-09-05T09:51:01Z</time>
      </trkpt>
      <trkpt lat="42.633002" lon="0.452467">
        <ele>2518.000000</ele>
        <time>2021-09-05T09:51:03Z</time>
      </trkpt>
      <trkpt lat="42.633002" lon="0.452470">
        <ele>2518.000000</ele>
        <time>2021-09-05T09:51:04Z</time>
      </trkpt>
      <trkpt lat="42.633002" lon="0.452475">
        <ele>2517.000000</ele>
        <time>2021-09-05T09:51:06Z</time>
      </trkpt>
      <trkpt lat="42.632996" lon="0.452482">
        <ele>2517.000000</ele>
        <time>2021-09-05T09:51:06Z</time>
      </trkpt>
      <trkpt lat="42.632993" lon="0.452490">
        <ele>2517.000000</ele>
        <time>2021-09-05T09:51:07Z</time>
      </trkpt>
      <trkpt lat="42.632986" lon="0.452502">
        <ele>2517.000000</ele>
        <time>2021-09-05T09:51:08Z</time>
      </trkpt>
      <trkpt lat="42.632982" lon="0.452515">
        <ele>2516.000000</ele>
        <time>2021-09-05T09:51:09Z</time>
      </trkpt>
      <trkpt lat="42.632980" lon="0.452525">
        <ele>2516.000000</ele>
        <time>2021-09-05T09:51:10Z</time>
      </trkpt>
      <trkpt lat="42.632978" lon="0.452537">
        <ele>2516.000000</ele>
        <time>2021-09-05T09:51:11Z</time>
      </trkpt>
      <trkpt lat="42.632976" lon="0.452553">
        <ele>2516.000000</ele>
        <time>2021-09-05T09:51:12Z</time>
      </trkpt>
      <trkpt lat="42.632973" lon="0.452568">
        <ele>2516.000000</ele>
        <time>2021-09-05T09:51:13Z</time>
      </trkpt>
      <trkpt lat="42.632971" lon="0.452580">
        <ele>2516.000000</ele>
        <time>2021-09-05T09:51:14Z</time>
      </trkpt>
      <trkpt lat="42.632971" lon="0.452583">
        <ele>2516.000000</ele>
        <time>2021-09-05T09:51:15Z</time>
      </trkpt>
      <trkpt lat="42.632970" lon="0.452595">
        <ele>2516.000000</ele>
        <time>2021-09-05T09:51:16Z</time>
      </trkpt>
      <trkpt lat="42.632968" lon="0.452607">
        <ele>2515.000000</ele>
        <time>2021-09-05T09:51:17Z</time>
      </trkpt>
      <trkpt lat="42.632967" lon="0.452613">
        <ele>2515.000000</ele>
        <time>2021-09-05T09:51:18Z</time>
      </trkpt>
      <trkpt lat="42.632967" lon="0.452615">
        <ele>2515.000000</ele>
        <time>2021-09-05T09:51:19Z</time>
      </trkpt>
      <trkpt lat="42.632966" lon="0.452622">
        <ele>2515.000000</ele>
        <time>2021-09-05T09:51:20Z</time>
      </trkpt>
      <trkpt lat="42.632966" lon="0.452627">
        <ele>2514.000000</ele>
        <time>2021-09-05T09:51:21Z</time>
      </trkpt>
      <trkpt lat="42.632966" lon="0.452630">
        <ele>2514.000000</ele>
        <time>2021-09-05T09:51:22Z</time>
      </trkpt>
      <trkpt lat="42.632965" lon="0.452637">
        <ele>2514.000000</ele>
        <time>2021-09-05T09:51:23Z</time>
      </trkpt>
      <trkpt lat="42.632964" lon="0.452642">
        <ele>2514.000000</ele>
        <time>2021-09-05T09:51:24Z</time>
      </trkpt>
      <trkpt lat="42.632964" lon="0.452647">
        <ele>2514.000000</ele>
        <time>2021-09-05T09:51:25Z</time>
      </trkpt>
      <trkpt lat="42.632963" lon="0.452650">
        <ele>2514.000000</ele>
        <time>2021-09-05T09:51:26Z</time>
      </trkpt>
      <trkpt lat="42.632963" lon="0.452653">
        <ele>2513.000000</ele>
        <time>2021-09-05T09:51:28Z</time>
      </trkpt>
      <trkpt lat="42.632961" lon="0.452658">
        <ele>2513.000000</ele>
        <time>2021-09-05T09:51:30Z</time>
      </trkpt>
      <trkpt lat="42.632960" lon="0.452663">
        <ele>2513.000000</ele>
        <time>2021-09-05T09:51:30Z</time>
      </trkpt>
      <trkpt lat="42.632959" lon="0.452668">
        <ele>2513.000000</ele>
        <time>2021-09-05T09:51:31Z</time>
      </trkpt>
      <trkpt lat="42.632962" lon="0.452670">
        <ele>2513.000000</ele>
        <time>2021-09-05T09:51:32Z</time>
      </trkpt>
      <trkpt lat="42.632960" lon="0.452673">
        <ele>2513.000000</ele>
        <time>2021-09-05T09:51:33Z</time>
      </trkpt>
      <trkpt lat="42.632961" lon="0.452677">
        <ele>2514.000000</ele>
        <time>2021-09-05T09:51:35Z</time>
      </trkpt>
      <trkpt lat="42.632961" lon="0.452668">
        <ele>2514.000000</ele>
        <time>2021-09-05T09:51:36Z</time>
      </trkpt>
      <trkpt lat="42.632955" lon="0.452707">
        <ele>2514.000000</ele>
        <time>2021-09-05T09:51:41Z</time>
      </trkpt>
      <trkpt lat="42.632952" lon="0.452708">
        <ele>2514.000000</ele>
        <time>2021-09-05T09:51:42Z</time>
      </trkpt>
      <trkpt lat="42.632948" lon="0.452708">
        <ele>2514.000000</ele>
        <time>2021-09-05T09:51:43Z</time>
      </trkpt>
      <trkpt lat="42.632943" lon="0.452707">
        <ele>2513.000000</ele>
        <time>2021-09-05T09:51:44Z</time>
      </trkpt>
      <trkpt lat="42.632937" lon="0.452707">
        <ele>2513.000000</ele>
        <time>2021-09-05T09:51:45Z</time>
      </trkpt>
      <trkpt lat="42.632932" lon="0.452707">
        <ele>2513.000000</ele>
        <time>2021-09-05T09:51:46Z</time>
      </trkpt>
      <trkpt lat="42.632927" lon="0.452707">
        <ele>2512.000000</ele>
        <time>2021-09-05T09:51:47Z</time>
      </trkpt>
      <trkpt lat="42.632923" lon="0.452709">
        <ele>2512.000000</ele>
        <time>2021-09-05T09:51:48Z</time>
      </trkpt>
      <trkpt lat="42.632920" lon="0.452713">
        <ele>2512.000000</ele>
        <time>2021-09-05T09:51:49Z</time>
      </trkpt>
      <trkpt lat="42.632917" lon="0.452722">
        <ele>2511.000000</ele>
        <time>2021-09-05T09:51:50Z</time>
      </trkpt>
      <trkpt lat="42.632917" lon="0.452728">
        <ele>2511.000000</ele>
        <time>2021-09-05T09:51:51Z</time>
      </trkpt>
      <trkpt lat="42.632915" lon="0.452738">
        <ele>2511.000000</ele>
        <time>2021-09-05T09:51:52Z</time>
      </trkpt>
      <trkpt lat="42.632912" lon="0.452743">
        <ele>2511.000000</ele>
        <time>2021-09-05T09:51:54Z</time>
      </trkpt>
      <trkpt lat="42.632905" lon="0.452755">
        <ele>2510.000000</ele>
        <time>2021-09-05T09:51:54Z</time>
      </trkpt>
      <trkpt lat="42.632900" lon="0.452763">
        <ele>2510.000000</ele>
        <time>2021-09-05T09:51:55Z</time>
      </trkpt>
      <trkpt lat="42.632896" lon="0.452765">
        <ele>2510.000000</ele>
        <time>2021-09-05T09:51:56Z</time>
      </trkpt>
      <trkpt lat="42.632885" lon="0.452767">
        <ele>2510.000000</ele>
        <time>2021-09-05T09:51:57Z</time>
      </trkpt>
      <trkpt lat="42.632880" lon="0.452768">
        <ele>2510.000000</ele>
        <time>2021-09-05T09:51:58Z</time>
      </trkpt>
      <trkpt lat="42.632875" lon="0.452765">
        <ele>2509.000000</ele>
        <time>2021-09-05T09:52:01Z</time>
      </trkpt>
      <trkpt lat="42.632870" lon="0.452763">
        <ele>2509.000000</ele>
        <time>2021-09-05T09:52:02Z</time>
      </trkpt>
      <trkpt lat="42.632868" lon="0.452762">
        <ele>2508.000000</ele>
        <time>2021-09-05T09:52:03Z</time>
      </trkpt>
      <trkpt lat="42.632867" lon="0.452758">
        <ele>2508.000000</ele>
        <time>2021-09-05T09:52:04Z</time>
      </trkpt>
      <trkpt lat="42.632865" lon="0.452753">
        <ele>2508.000000</ele>
        <time>2021-09-05T09:52:05Z</time>
      </trkpt>
      <trkpt lat="42.632862" lon="0.452747">
        <ele>2508.000000</ele>
        <time>2021-09-05T09:52:06Z</time>
      </trkpt>
      <trkpt lat="42.632858" lon="0.452742">
        <ele>2508.000000</ele>
        <time>2021-09-05T09:52:07Z</time>
      </trkpt>
      <trkpt lat="42.632857" lon="0.452738">
        <ele>2508.000000</ele>
        <time>2021-09-05T09:52:08Z</time>
      </trkpt>
      <trkpt lat="42.632847" lon="0.452737">
        <ele>2507.000000</ele>
        <time>2021-09-05T09:52:11Z</time>
      </trkpt>
      <trkpt lat="42.632842" lon="0.452735">
        <ele>2507.000000</ele>
        <time>2021-09-05T09:52:12Z</time>
      </trkpt>
      <trkpt lat="42.632840" lon="0.452733">
        <ele>2507.000000</ele>
        <time>2021-09-05T09:52:14Z</time>
      </trkpt>
      <trkpt lat="42.632838" lon="0.452732">
        <ele>2506.000000</ele>
        <time>2021-09-05T09:52:14Z</time>
      </trkpt>
      <trkpt lat="42.632832" lon="0.452733">
        <ele>2506.000000</ele>
        <time>2021-09-05T09:52:15Z</time>
      </trkpt>
      <trkpt lat="42.632827" lon="0.452733">
        <ele>2506.000000</ele>
        <time>2021-09-05T09:52:16Z</time>
      </trkpt>
      <trkpt lat="42.632823" lon="0.452731">
        <ele>2505.000000</ele>
        <time>2021-09-05T09:52:17Z</time>
      </trkpt>
      <trkpt lat="42.632823" lon="0.452730">
        <ele>2505.000000</ele>
        <time>2021-09-05T09:52:18Z</time>
      </trkpt>
      <trkpt lat="42.632820" lon="0.452728">
        <ele>2504.000000</ele>
        <time>2021-09-05T09:52:19Z</time>
      </trkpt>
      <trkpt lat="42.632818" lon="0.452728">
        <ele>2504.000000</ele>
        <time>2021-09-05T09:52:20Z</time>
      </trkpt>
      <trkpt lat="42.632813" lon="0.452733">
        <ele>2502.000000</ele>
        <time>2021-09-05T09:52:23Z</time>
      </trkpt>
      <trkpt lat="42.632807" lon="0.452742">
        <ele>2502.000000</ele>
        <time>2021-09-05T09:52:24Z</time>
      </trkpt>
      <trkpt lat="42.632797" lon="0.452748">
        <ele>2502.000000</ele>
        <time>2021-09-05T09:52:25Z</time>
      </trkpt>
      <trkpt lat="42.632788" lon="0.452755">
        <ele>2502.000000</ele>
        <time>2021-09-05T09:52:26Z</time>
      </trkpt>
      <trkpt lat="42.632783" lon="0.452758">
        <ele>2501.000000</ele>
        <time>2021-09-05T09:52:27Z</time>
      </trkpt>
      <trkpt lat="42.632777" lon="0.452761">
        <ele>2501.000000</ele>
        <time>2021-09-05T09:52:28Z</time>
      </trkpt>
      <trkpt lat="42.632768" lon="0.452764">
        <ele>2501.000000</ele>
        <time>2021-09-05T09:52:29Z</time>
      </trkpt>
      <trkpt lat="42.632763" lon="0.452766">
        <ele>2501.000000</ele>
        <time>2021-09-05T09:52:30Z</time>
      </trkpt>
      <trkpt lat="42.632757" lon="0.452770">
        <ele>2501.000000</ele>
        <time>2021-09-05T09:52:31Z</time>
      </trkpt>
      <trkpt lat="42.632752" lon="0.452775">
        <ele>2500.000000</ele>
        <time>2021-09-05T09:52:32Z</time>
      </trkpt>
      <trkpt lat="42.632743" lon="0.452782">
        <ele>2500.000000</ele>
        <time>2021-09-05T09:52:33Z</time>
      </trkpt>
      <trkpt lat="42.632735" lon="0.452789">
        <ele>2500.000000</ele>
        <time>2021-09-05T09:52:34Z</time>
      </trkpt>
      <trkpt lat="42.632730" lon="0.452793">
        <ele>2500.000000</ele>
        <time>2021-09-05T09:52:35Z</time>
      </trkpt>
      <trkpt lat="42.632725" lon="0.452798">
        <ele>2500.000000</ele>
        <time>2021-09-05T09:52:36Z</time>
      </trkpt>
      <trkpt lat="42.632718" lon="0.452804">
        <ele>2500.000000</ele>
        <time>2021-09-05T09:52:38Z</time>
      </trkpt>
      <trkpt lat="42.632710" lon="0.452810">
        <ele>2500.000000</ele>
        <time>2021-09-05T09:52:38Z</time>
      </trkpt>
      <trkpt lat="42.632705" lon="0.452813">
        <ele>2500.000000</ele>
        <time>2021-09-05T09:52:39Z</time>
      </trkpt>
      <trkpt lat="42.632700" lon="0.452812">
        <ele>2500.000000</ele>
        <time>2021-09-05T09:52:40Z</time>
      </trkpt>
      <trkpt lat="42.632697" lon="0.452810">
        <ele>2500.000000</ele>
        <time>2021-09-05T09:52:41Z</time>
      </trkpt>
      <trkpt lat="42.632693" lon="0.452815">
        <ele>2500.000000</ele>
        <time>2021-09-05T09:52:42Z</time>
      </trkpt>
      <trkpt lat="42.632683" lon="0.452819">
        <ele>2500.000000</ele>
        <time>2021-09-05T09:52:43Z</time>
      </trkpt>
      <trkpt lat="42.632677" lon="0.452820">
        <ele>2500.000000</ele>
        <time>2021-09-05T09:52:44Z</time>
      </trkpt>
      <trkpt lat="42.632672" lon="0.452820">
        <ele>2500.000000</ele>
        <time>2021-09-05T09:52:45Z</time>
      </trkpt>
      <trkpt lat="42.632663" lon="0.452823">
        <ele>2500.000000</ele>
        <time>2021-09-05T09:52:46Z</time>
      </trkpt>
      <trkpt lat="42.632655" lon="0.452825">
        <ele>2500.000000</ele>
        <time>2021-09-05T09:52:47Z</time>
      </trkpt>
      <trkpt lat="42.632647" lon="0.452825">
        <ele>2500.000000</ele>
        <time>2021-09-05T09:52:48Z</time>
      </trkpt>
      <trkpt lat="42.632635" lon="0.452826">
        <ele>2500.000000</ele>
        <time>2021-09-05T09:52:49Z</time>
      </trkpt>
      <trkpt lat="42.632628" lon="0.452827">
        <ele>2500.000000</ele>
        <time>2021-09-05T09:52:50Z</time>
      </trkpt>
      <trkpt lat="42.632620" lon="0.452827">
        <ele>2501.000000</ele>
        <time>2021-09-05T09:52:51Z</time>
      </trkpt>
      <trkpt lat="42.632610" lon="0.452825">
        <ele>2501.000000</ele>
        <time>2021-09-05T09:52:52Z</time>
      </trkpt>
      <trkpt lat="42.632607" lon="0.452825">
        <ele>2501.000000</ele>
        <time>2021-09-05T09:52:53Z</time>
      </trkpt>
      <trkpt lat="42.632598" lon="0.452817">
        <ele>2501.000000</ele>
        <time>2021-09-05T09:52:54Z</time>
      </trkpt>
      <trkpt lat="42.632590" lon="0.452812">
        <ele>2501.000000</ele>
        <time>2021-09-05T09:52:55Z</time>
      </trkpt>
      <trkpt lat="42.632583" lon="0.452808">
        <ele>2502.000000</ele>
        <time>2021-09-05T09:52:56Z</time>
      </trkpt>
      <trkpt lat="42.632583" lon="0.452807">
        <ele>2502.000000</ele>
        <time>2021-09-05T09:52:58Z</time>
      </trkpt>
      <trkpt lat="42.632580" lon="0.452807">
        <ele>2502.000000</ele>
        <time>2021-09-05T09:52:58Z</time>
      </trkpt>
      <trkpt lat="42.632580" lon="0.452809">
        <ele>2503.000000</ele>
        <time>2021-09-05T09:52:59Z</time>
      </trkpt>
      <trkpt lat="42.632578" lon="0.452813">
        <ele>2503.000000</ele>
        <time>2021-09-05T09:53:00Z</time>
      </trkpt>
      <trkpt lat="42.632578" lon="0.452827">
        <ele>2503.000000</ele>
        <time>2021-09-05T09:53:01Z</time>
      </trkpt>
      <trkpt lat="42.632575" lon="0.452837">
        <ele>2503.000000</ele>
        <time>2021-09-05T09:53:02Z</time>
      </trkpt>
      <trkpt lat="42.632575" lon="0.452842">
        <ele>2503.000000</ele>
        <time>2021-09-05T09:53:03Z</time>
      </trkpt>
      <trkpt lat="42.632573" lon="0.452843">
        <ele>2503.000000</ele>
        <time>2021-09-05T09:53:04Z</time>
      </trkpt>
      <trkpt lat="42.632573" lon="0.452852">
        <ele>2503.000000</ele>
        <time>2021-09-05T09:53:06Z</time>
      </trkpt>
      <trkpt lat="42.632572" lon="0.452857">
        <ele>2503.000000</ele>
        <time>2021-09-05T09:53:07Z</time>
      </trkpt>
      <trkpt lat="42.632569" lon="0.452868">
        <ele>2503.000000</ele>
        <time>2021-09-05T09:53:08Z</time>
      </trkpt>
      <trkpt lat="42.632569" lon="0.452877">
        <ele>2504.000000</ele>
        <time>2021-09-05T09:53:09Z</time>
      </trkpt>
      <trkpt lat="42.632572" lon="0.452885">
        <ele>2504.000000</ele>
        <time>2021-09-05T09:53:10Z</time>
      </trkpt>
      <trkpt lat="42.632577" lon="0.452893">
        <ele>2504.000000</ele>
        <time>2021-09-05T09:53:11Z</time>
      </trkpt>
      <trkpt lat="42.632578" lon="0.452900">
        <ele>2504.000000</ele>
        <time>2021-09-05T09:53:12Z</time>
      </trkpt>
      <trkpt lat="42.632576" lon="0.452905">
        <ele>2504.000000</ele>
        <time>2021-09-05T09:53:13Z</time>
      </trkpt>
      <trkpt lat="42.632575" lon="0.452907">
        <ele>2504.000000</ele>
        <time>2021-09-05T09:53:14Z</time>
      </trkpt>
      <trkpt lat="42.632577" lon="0.452913">
        <ele>2504.000000</ele>
        <time>2021-09-05T09:53:17Z</time>
      </trkpt>
      <trkpt lat="42.632579" lon="0.452918">
        <ele>2504.000000</ele>
        <time>2021-09-05T09:53:18Z</time>
      </trkpt>
      <trkpt lat="42.632577" lon="0.452925">
        <ele>2505.000000</ele>
        <time>2021-09-05T09:53:19Z</time>
      </trkpt>
      <trkpt lat="42.632575" lon="0.452930">
        <ele>2505.000000</ele>
        <time>2021-09-05T09:53:20Z</time>
      </trkpt>
      <trkpt lat="42.632570" lon="0.452932">
        <ele>2505.000000</ele>
        <time>2021-09-05T09:53:22Z</time>
      </trkpt>
      <trkpt lat="42.632562" lon="0.452933">
        <ele>2505.000000</ele>
        <time>2021-09-05T09:53:22Z</time>
      </trkpt>
      <trkpt lat="42.632553" lon="0.452933">
        <ele>2505.000000</ele>
        <time>2021-09-05T09:53:23Z</time>
      </trkpt>
      <trkpt lat="42.632542" lon="0.452933">
        <ele>2505.000000</ele>
        <time>2021-09-05T09:53:24Z</time>
      </trkpt>
      <trkpt lat="42.632530" lon="0.452937">
        <ele>2504.000000</ele>
        <time>2021-09-05T09:53:25Z</time>
      </trkpt>
      <trkpt lat="42.632522" lon="0.452940">
        <ele>2504.000000</ele>
        <time>2021-09-05T09:53:26Z</time>
      </trkpt>
      <trkpt lat="42.632512" lon="0.452948">
        <ele>2503.000000</ele>
        <time>2021-09-05T09:53:27Z</time>
      </trkpt>
      <trkpt lat="42.632507" lon="0.452957">
        <ele>2503.000000</ele>
        <time>2021-09-05T09:53:28Z</time>
      </trkpt>
      <trkpt lat="42.632502" lon="0.452973">
        <ele>2502.000000</ele>
        <time>2021-09-05T09:53:29Z</time>
      </trkpt>
      <trkpt lat="42.632495" lon="0.452982">
        <ele>2502.000000</ele>
        <time>2021-09-05T09:53:30Z</time>
      </trkpt>
      <trkpt lat="42.632490" lon="0.452989">
        <ele>2502.000000</ele>
        <time>2021-09-05T09:53:31Z</time>
      </trkpt>
      <trkpt lat="42.632483" lon="0.452997">
        <ele>2501.000000</ele>
        <time>2021-09-05T09:53:32Z</time>
      </trkpt>
      <trkpt lat="42.632482" lon="0.453005">
        <ele>2501.000000</ele>
        <time>2021-09-05T09:53:33Z</time>
      </trkpt>
      <trkpt lat="42.632480" lon="0.453015">
        <ele>2501.000000</ele>
        <time>2021-09-05T09:53:34Z</time>
      </trkpt>
      <trkpt lat="42.632477" lon="0.453023">
        <ele>2501.000000</ele>
        <time>2021-09-05T09:53:35Z</time>
      </trkpt>
      <trkpt lat="42.632473" lon="0.453027">
        <ele>2501.000000</ele>
        <time>2021-09-05T09:53:36Z</time>
      </trkpt>
      <trkpt lat="42.632468" lon="0.453032">
        <ele>2500.000000</ele>
        <time>2021-09-05T09:53:37Z</time>
      </trkpt>
      <trkpt lat="42.632453" lon="0.453040">
        <ele>2500.000000</ele>
        <time>2021-09-05T09:53:38Z</time>
      </trkpt>
      <trkpt lat="42.632442" lon="0.453052">
        <ele>2500.000000</ele>
        <time>2021-09-05T09:53:39Z</time>
      </trkpt>
      <trkpt lat="42.632433" lon="0.453057">
        <ele>2500.000000</ele>
        <time>2021-09-05T09:53:40Z</time>
      </trkpt>
      <trkpt lat="42.632423" lon="0.453062">
        <ele>2499.000000</ele>
        <time>2021-09-05T09:53:41Z</time>
      </trkpt>
      <trkpt lat="42.632420" lon="0.453063">
        <ele>2499.000000</ele>
        <time>2021-09-05T09:53:42Z</time>
      </trkpt>
      <trkpt lat="42.632422" lon="0.453068">
        <ele>2499.000000</ele>
        <time>2021-09-05T09:53:44Z</time>
      </trkpt>
      <trkpt lat="42.632418" lon="0.453073">
        <ele>2499.000000</ele>
        <time>2021-09-05T09:53:46Z</time>
      </trkpt>
      <trkpt lat="42.632417" lon="0.453077">
        <ele>2499.000000</ele>
        <time>2021-09-05T09:53:46Z</time>
      </trkpt>
      <trkpt lat="42.632420" lon="0.453083">
        <ele>2499.000000</ele>
        <time>2021-09-05T09:53:47Z</time>
      </trkpt>
      <trkpt lat="42.632420" lon="0.453087">
        <ele>2499.000000</ele>
        <time>2021-09-05T09:53:48Z</time>
      </trkpt>
      <trkpt lat="42.632422" lon="0.453095">
        <ele>2499.000000</ele>
        <time>2021-09-05T09:53:49Z</time>
      </trkpt>
      <trkpt lat="42.632422" lon="0.453102">
        <ele>2499.000000</ele>
        <time>2021-09-05T09:53:50Z</time>
      </trkpt>
      <trkpt lat="42.632419" lon="0.453108">
        <ele>2500.000000</ele>
        <time>2021-09-05T09:53:51Z</time>
      </trkpt>
      <trkpt lat="42.632413" lon="0.453117">
        <ele>2500.000000</ele>
        <time>2021-09-05T09:53:52Z</time>
      </trkpt>
      <trkpt lat="42.632409" lon="0.453122">
        <ele>2500.000000</ele>
        <time>2021-09-05T09:53:53Z</time>
      </trkpt>
      <trkpt lat="42.632403" lon="0.453123">
        <ele>2500.000000</ele>
        <time>2021-09-05T09:53:54Z</time>
      </trkpt>
      <trkpt lat="42.632397" lon="0.453127">
        <ele>2500.000000</ele>
        <time>2021-09-05T09:53:55Z</time>
      </trkpt>
      <trkpt lat="42.632392" lon="0.453132">
        <ele>2500.000000</ele>
        <time>2021-09-05T09:53:56Z</time>
      </trkpt>
      <trkpt lat="42.632380" lon="0.453135">
        <ele>2500.000000</ele>
        <time>2021-09-05T09:53:57Z</time>
      </trkpt>
      <trkpt lat="42.632373" lon="0.453132">
        <ele>2500.000000</ele>
        <time>2021-09-05T09:53:58Z</time>
      </trkpt>
      <trkpt lat="42.632365" lon="0.453133">
        <ele>2500.000000</ele>
        <time>2021-09-05T09:53:59Z</time>
      </trkpt>
      <trkpt lat="42.632362" lon="0.453137">
        <ele>2500.000000</ele>
        <time>2021-09-05T09:54:00Z</time>
      </trkpt>
      <trkpt lat="42.632358" lon="0.453141">
        <ele>2499.000000</ele>
        <time>2021-09-05T09:54:01Z</time>
      </trkpt>
      <trkpt lat="42.632355" lon="0.453148">
        <ele>2499.000000</ele>
        <time>2021-09-05T09:54:02Z</time>
      </trkpt>
      <trkpt lat="42.632358" lon="0.453160">
        <ele>2499.000000</ele>
        <time>2021-09-05T09:54:03Z</time>
      </trkpt>
      <trkpt lat="42.632360" lon="0.453168">
        <ele>2499.000000</ele>
        <time>2021-09-05T09:54:04Z</time>
      </trkpt>
      <trkpt lat="42.632355" lon="0.453175">
        <ele>2499.000000</ele>
        <time>2021-09-05T09:54:06Z</time>
      </trkpt>
      <trkpt lat="42.632353" lon="0.453178">
        <ele>2499.000000</ele>
        <time>2021-09-05T09:54:06Z</time>
      </trkpt>
      <trkpt lat="42.632352" lon="0.453185">
        <ele>2499.000000</ele>
        <time>2021-09-05T09:54:07Z</time>
      </trkpt>
      <trkpt lat="42.632351" lon="0.453190">
        <ele>2499.000000</ele>
        <time>2021-09-05T09:54:08Z</time>
      </trkpt>
      <trkpt lat="42.632349" lon="0.453197">
        <ele>2499.000000</ele>
        <time>2021-09-05T09:54:09Z</time>
      </trkpt>
      <trkpt lat="42.632347" lon="0.453203">
        <ele>2499.000000</ele>
        <time>2021-09-05T09:54:10Z</time>
      </trkpt>
      <trkpt lat="42.632345" lon="0.453212">
        <ele>2499.000000</ele>
        <time>2021-09-05T09:54:11Z</time>
      </trkpt>
      <trkpt lat="42.632348" lon="0.453217">
        <ele>2499.000000</ele>
        <time>2021-09-05T09:54:12Z</time>
      </trkpt>
      <trkpt lat="42.632357" lon="0.453217">
        <ele>2499.000000</ele>
        <time>2021-09-05T09:54:13Z</time>
      </trkpt>
      <trkpt lat="42.632360" lon="0.453215">
        <ele>2499.000000</ele>
        <time>2021-09-05T09:54:14Z</time>
      </trkpt>
      <trkpt lat="42.632358" lon="0.453213">
        <ele>2499.000000</ele>
        <time>2021-09-05T09:54:15Z</time>
      </trkpt>
      <trkpt lat="42.632358" lon="0.453212">
        <ele>2499.000000</ele>
        <time>2021-09-05T09:54:18Z</time>
      </trkpt>
      <trkpt lat="42.632359" lon="0.453212">
        <ele>2500.000000</ele>
        <time>2021-09-05T09:54:19Z</time>
      </trkpt>
      <trkpt lat="42.632368" lon="0.453210">
        <ele>2500.000000</ele>
        <time>2021-09-05T09:54:20Z</time>
      </trkpt>
      <trkpt lat="42.632378" lon="0.453210">
        <ele>2500.000000</ele>
        <time>2021-09-05T09:54:21Z</time>
      </trkpt>
      <trkpt lat="42.632383" lon="0.453210">
        <ele>2500.000000</ele>
        <time>2021-09-05T09:54:22Z</time>
      </trkpt>
      <trkpt lat="42.632388" lon="0.453220">
        <ele>2500.000000</ele>
        <time>2021-09-05T09:54:23Z</time>
      </trkpt>
      <trkpt lat="42.632392" lon="0.453228">
        <ele>2500.000000</ele>
        <time>2021-09-05T09:54:24Z</time>
      </trkpt>
      <trkpt lat="42.632393" lon="0.453238">
        <ele>2500.000000</ele>
        <time>2021-09-05T09:54:25Z</time>
      </trkpt>
      <trkpt lat="42.632398" lon="0.453245">
        <ele>2500.000000</ele>
        <time>2021-09-05T09:54:26Z</time>
      </trkpt>
      <trkpt lat="42.632403" lon="0.453257">
        <ele>2500.000000</ele>
        <time>2021-09-05T09:54:27Z</time>
      </trkpt>
      <trkpt lat="42.632405" lon="0.453262">
        <ele>2500.000000</ele>
        <time>2021-09-05T09:54:28Z</time>
      </trkpt>
      <trkpt lat="42.632410" lon="0.453268">
        <ele>2500.000000</ele>
        <time>2021-09-05T09:54:30Z</time>
      </trkpt>
      <trkpt lat="42.632415" lon="0.453272">
        <ele>2500.000000</ele>
        <time>2021-09-05T09:54:30Z</time>
      </trkpt>
      <trkpt lat="42.632423" lon="0.453277">
        <ele>2499.000000</ele>
        <time>2021-09-05T09:54:31Z</time>
      </trkpt>
      <trkpt lat="42.632427" lon="0.453280">
        <ele>2499.000000</ele>
        <time>2021-09-05T09:54:32Z</time>
      </trkpt>
      <trkpt lat="42.632433" lon="0.453287">
        <ele>2499.000000</ele>
        <time>2021-09-05T09:54:33Z</time>
      </trkpt>
      <trkpt lat="42.632437" lon="0.453298">
        <ele>2498.000000</ele>
        <time>2021-09-05T09:54:34Z</time>
      </trkpt>
      <trkpt lat="42.632438" lon="0.453307">
        <ele>2498.000000</ele>
        <time>2021-09-05T09:54:35Z</time>
      </trkpt>
      <trkpt lat="42.632442" lon="0.453317">
        <ele>2498.000000</ele>
        <time>2021-09-05T09:54:36Z</time>
      </trkpt>
      <trkpt lat="42.632445" lon="0.453323">
        <ele>2498.000000</ele>
        <time>2021-09-05T09:54:37Z</time>
      </trkpt>
      <trkpt lat="42.632447" lon="0.453332">
        <ele>2498.000000</ele>
        <time>2021-09-05T09:54:38Z</time>
      </trkpt>
      <trkpt lat="42.632445" lon="0.453335">
        <ele>2498.000000</ele>
        <time>2021-09-05T09:54:39Z</time>
      </trkpt>
      <trkpt lat="42.632442" lon="0.453340">
        <ele>2497.000000</ele>
        <time>2021-09-05T09:54:40Z</time>
      </trkpt>
      <trkpt lat="42.632440" lon="0.453343">
        <ele>2497.000000</ele>
        <time>2021-09-05T09:54:41Z</time>
      </trkpt>
      <trkpt lat="42.632437" lon="0.453348">
        <ele>2496.000000</ele>
        <time>2021-09-05T09:54:42Z</time>
      </trkpt>
      <trkpt lat="42.632432" lon="0.453355">
        <ele>2496.000000</ele>
        <time>2021-09-05T09:54:43Z</time>
      </trkpt>
      <trkpt lat="42.632427" lon="0.453363">
        <ele>2496.000000</ele>
        <time>2021-09-05T09:54:44Z</time>
      </trkpt>
      <trkpt lat="42.632420" lon="0.453365">
        <ele>2495.000000</ele>
        <time>2021-09-05T09:54:45Z</time>
      </trkpt>
      <trkpt lat="42.632415" lon="0.453370">
        <ele>2495.000000</ele>
        <time>2021-09-05T09:54:46Z</time>
      </trkpt>
      <trkpt lat="42.632412" lon="0.453374">
        <ele>2495.000000</ele>
        <time>2021-09-05T09:54:46Z</time>
      </trkpt>
      <trkpt lat="42.632410" lon="0.453376">
        <ele>2494.000000</ele>
        <time>2021-09-05T09:54:47Z</time>
      </trkpt>
      <trkpt lat="42.632407" lon="0.453378">
        <ele>2494.000000</ele>
        <time>2021-09-05T09:54:48Z</time>
      </trkpt>
      <trkpt lat="42.632403" lon="0.453380">
        <ele>2494.000000</ele>
        <time>2021-09-05T09:54:49Z</time>
      </trkpt>
      <trkpt lat="42.632398" lon="0.453383">
        <ele>2494.000000</ele>
        <time>2021-09-05T09:54:50Z</time>
      </trkpt>
      <trkpt lat="42.632395" lon="0.453386">
        <ele>2493.000000</ele>
        <time>2021-09-05T09:54:51Z</time>
      </trkpt>
      <trkpt lat="42.632392" lon="0.453390">
        <ele>2493.000000</ele>
        <time>2021-09-05T09:54:53Z</time>
      </trkpt>
      <trkpt lat="42.632388" lon="0.453395">
        <ele>2492.000000</ele>
        <time>2021-09-05T09:54:53Z</time>
      </trkpt>
      <trkpt lat="42.632385" lon="0.453398">
        <ele>2492.000000</ele>
        <time>2021-09-05T09:54:54Z</time>
      </trkpt>
      <trkpt lat="42.632382" lon="0.453402">
        <ele>2491.000000</ele>
        <time>2021-09-05T09:54:56Z</time>
      </trkpt>
      <trkpt lat="42.632305" lon="0.453517">
        <ele>2484.000000</ele>
        <time>2021-09-05T09:56:12Z</time>
      </trkpt>
      <trkpt lat="42.632300" lon="0.453517">
        <ele>2484.000000</ele>
        <time>2021-09-05T09:56:13Z</time>
      </trkpt>
      <trkpt lat="42.632298" lon="0.453519">
        <ele>2483.000000</ele>
        <time>2021-09-05T09:56:14Z</time>
      </trkpt>
      <trkpt lat="42.632297" lon="0.453521">
        <ele>2483.000000</ele>
        <time>2021-09-05T09:56:15Z</time>
      </trkpt>
      <trkpt lat="42.632290" lon="0.453529">
        <ele>2483.000000</ele>
        <time>2021-09-05T09:56:16Z</time>
      </trkpt>
      <trkpt lat="42.632290" lon="0.453533">
        <ele>2483.000000</ele>
        <time>2021-09-05T09:56:17Z</time>
      </trkpt>
      <trkpt lat="42.632293" lon="0.453537">
        <ele>2483.000000</ele>
        <time>2021-09-05T09:56:18Z</time>
      </trkpt>
      <trkpt lat="42.632295" lon="0.453542">
        <ele>2483.000000</ele>
        <time>2021-09-05T09:56:19Z</time>
      </trkpt>
      <trkpt lat="42.632293" lon="0.453548">
        <ele>2482.000000</ele>
        <time>2021-09-05T09:56:21Z</time>
      </trkpt>
      <trkpt lat="42.632289" lon="0.453553">
        <ele>2482.000000</ele>
        <time>2021-09-05T09:56:21Z</time>
      </trkpt>
      <trkpt lat="42.632286" lon="0.453557">
        <ele>2482.000000</ele>
        <time>2021-09-05T09:56:22Z</time>
      </trkpt>
      <trkpt lat="42.632278" lon="0.453562">
        <ele>2482.000000</ele>
        <time>2021-09-05T09:56:23Z</time>
      </trkpt>
      <trkpt lat="42.632275" lon="0.453570">
        <ele>2482.000000</ele>
        <time>2021-09-05T09:56:24Z</time>
      </trkpt>
      <trkpt lat="42.632274" lon="0.453580">
        <ele>2482.000000</ele>
        <time>2021-09-05T09:56:25Z</time>
      </trkpt>
      <trkpt lat="42.632272" lon="0.453590">
        <ele>2482.000000</ele>
        <time>2021-09-05T09:56:26Z</time>
      </trkpt>
      <trkpt lat="42.632270" lon="0.453593">
        <ele>2482.000000</ele>
        <time>2021-09-05T09:56:27Z</time>
      </trkpt>
      <trkpt lat="42.632267" lon="0.453592">
        <ele>2482.000000</ele>
        <time>2021-09-05T09:56:28Z</time>
      </trkpt>
      <trkpt lat="42.632263" lon="0.453590">
        <ele>2481.000000</ele>
        <time>2021-09-05T09:56:29Z</time>
      </trkpt>
      <trkpt lat="42.632258" lon="0.453590">
        <ele>2481.000000</ele>
        <time>2021-09-05T09:56:30Z</time>
      </trkpt>
      <trkpt lat="42.632255" lon="0.453588">
        <ele>2481.000000</ele>
        <time>2021-09-05T09:56:31Z</time>
      </trkpt>
      <trkpt lat="42.632252" lon="0.453587">
        <ele>2480.000000</ele>
        <time>2021-09-05T09:56:32Z</time>
      </trkpt>
      <trkpt lat="42.632245" lon="0.453587">
        <ele>2480.000000</ele>
        <time>2021-09-05T09:56:33Z</time>
      </trkpt>
      <trkpt lat="42.632238" lon="0.453584">
        <ele>2480.000000</ele>
        <time>2021-09-05T09:56:34Z</time>
      </trkpt>
      <trkpt lat="42.632233" lon="0.453584">
        <ele>2480.000000</ele>
        <time>2021-09-05T09:56:35Z</time>
      </trkpt>
      <trkpt lat="42.632228" lon="0.453585">
        <ele>2479.000000</ele>
        <time>2021-09-05T09:56:36Z</time>
      </trkpt>
      <trkpt lat="42.632223" lon="0.453587">
        <ele>2479.000000</ele>
        <time>2021-09-05T09:56:37Z</time>
      </trkpt>
      <trkpt lat="42.632218" lon="0.453590">
        <ele>2479.000000</ele>
        <time>2021-09-05T09:56:38Z</time>
      </trkpt>
      <trkpt lat="42.632213" lon="0.453597">
        <ele>2478.000000</ele>
        <time>2021-09-05T09:56:39Z</time>
      </trkpt>
      <trkpt lat="42.632215" lon="0.453593">
        <ele>2478.000000</ele>
        <time>2021-09-05T09:56:40Z</time>
      </trkpt>
      <trkpt lat="42.632213" lon="0.453596">
        <ele>2478.000000</ele>
        <time>2021-09-05T09:56:41Z</time>
      </trkpt>
      <trkpt lat="42.632208" lon="0.453598">
        <ele>2477.000000</ele>
        <time>2021-09-05T09:56:42Z</time>
      </trkpt>
      <trkpt lat="42.632202" lon="0.453594">
        <ele>2477.000000</ele>
        <time>2021-09-05T09:56:43Z</time>
      </trkpt>
      <trkpt lat="42.632198" lon="0.453589">
        <ele>2477.000000</ele>
        <time>2021-09-05T09:56:45Z</time>
      </trkpt>
      <trkpt lat="42.632195" lon="0.453583">
        <ele>2476.000000</ele>
        <time>2021-09-05T09:56:45Z</time>
      </trkpt>
      <trkpt lat="42.632192" lon="0.453583">
        <ele>2476.000000</ele>
        <time>2021-09-05T09:56:46Z</time>
      </trkpt>
      <trkpt lat="42.632185" lon="0.453586">
        <ele>2476.000000</ele>
        <time>2021-09-05T09:56:47Z</time>
      </trkpt>
      <trkpt lat="42.632183" lon="0.453588">
        <ele>2475.000000</ele>
        <time>2021-09-05T09:56:48Z</time>
      </trkpt>
      <trkpt lat="42.632178" lon="0.453593">
        <ele>2475.000000</ele>
        <time>2021-09-05T09:56:49Z</time>
      </trkpt>
      <trkpt lat="42.632175" lon="0.453600">
        <ele>2475.000000</ele>
        <time>2021-09-05T09:56:50Z</time>
      </trkpt>
      <trkpt lat="42.632172" lon="0.453605">
        <ele>2475.000000</ele>
        <time>2021-09-05T09:56:51Z</time>
      </trkpt>
      <trkpt lat="42.632170" lon="0.453607">
        <ele>2475.000000</ele>
        <time>2021-09-05T09:56:52Z</time>
      </trkpt>
      <trkpt lat="42.632168" lon="0.453608">
        <ele>2475.000000</ele>
        <time>2021-09-05T09:56:53Z</time>
      </trkpt>
      <trkpt lat="42.632167" lon="0.453610">
        <ele>2475.000000</ele>
        <time>2021-09-05T09:56:55Z</time>
      </trkpt>
      <trkpt lat="42.632165" lon="0.453615">
        <ele>2475.000000</ele>
        <time>2021-09-05T09:56:58Z</time>
      </trkpt>
      <trkpt lat="42.632162" lon="0.453622">
        <ele>2475.000000</ele>
        <time>2021-09-05T09:56:59Z</time>
      </trkpt>
      <trkpt lat="42.632158" lon="0.453626">
        <ele>2475.000000</ele>
        <time>2021-09-05T09:57:00Z</time>
      </trkpt>
      <trkpt lat="42.632153" lon="0.453632">
        <ele>2475.000000</ele>
        <time>2021-09-05T09:57:01Z</time>
      </trkpt>
      <trkpt lat="42.632152" lon="0.453633">
        <ele>2475.000000</ele>
        <time>2021-09-05T09:57:02Z</time>
      </trkpt>
      <trkpt lat="42.632148" lon="0.453637">
        <ele>2475.000000</ele>
        <time>2021-09-05T09:57:03Z</time>
      </trkpt>
      <trkpt lat="42.632145" lon="0.453640">
        <ele>2475.000000</ele>
        <time>2021-09-05T09:57:05Z</time>
      </trkpt>
      <trkpt lat="42.632138" lon="0.453648">
        <ele>2475.000000</ele>
        <time>2021-09-05T09:57:05Z</time>
      </trkpt>
      <trkpt lat="42.632130" lon="0.453655">
        <ele>2475.000000</ele>
        <time>2021-09-05T09:57:06Z</time>
      </trkpt>
      <trkpt lat="42.632120" lon="0.453662">
        <ele>2475.000000</ele>
        <time>2021-09-05T09:57:07Z</time>
      </trkpt>
      <trkpt lat="42.632112" lon="0.453665">
        <ele>2475.000000</ele>
        <time>2021-09-05T09:57:08Z</time>
      </trkpt>
      <trkpt lat="42.632107" lon="0.453667">
        <ele>2475.000000</ele>
        <time>2021-09-05T09:57:09Z</time>
      </trkpt>
      <trkpt lat="42.632103" lon="0.453667">
        <ele>2475.000000</ele>
        <time>2021-09-05T09:57:10Z</time>
      </trkpt>
      <trkpt lat="42.632103" lon="0.453665">
        <ele>2475.000000</ele>
        <time>2021-09-05T09:57:11Z</time>
      </trkpt>
      <trkpt lat="42.632107" lon="0.453665">
        <ele>2475.000000</ele>
        <time>2021-09-05T09:57:12Z</time>
      </trkpt>
      <trkpt lat="42.632107" lon="0.453653">
        <ele>2475.000000</ele>
        <time>2021-09-05T09:57:18Z</time>
      </trkpt>
      <trkpt lat="42.632108" lon="0.453661">
        <ele>2475.000000</ele>
        <time>2021-09-05T09:57:20Z</time>
      </trkpt>
      <trkpt lat="42.632098" lon="0.453652">
        <ele>2477.000000</ele>
        <time>2021-09-05T09:58:03Z</time>
      </trkpt>
      <trkpt lat="42.632093" lon="0.453655">
        <ele>2477.000000</ele>
        <time>2021-09-05T09:58:04Z</time>
      </trkpt>
      <trkpt lat="42.632095" lon="0.453653">
        <ele>2477.000000</ele>
        <time>2021-09-05T09:58:05Z</time>
      </trkpt>
      <trkpt lat="42.632097" lon="0.453650">
        <ele>2477.000000</ele>
        <time>2021-09-05T09:58:06Z</time>
      </trkpt>
      <trkpt lat="42.632097" lon="0.453649">
        <ele>2477.000000</ele>
        <time>2021-09-05T09:58:07Z</time>
      </trkpt>
      <trkpt lat="42.632095" lon="0.453649">
        <ele>2477.000000</ele>
        <time>2021-09-05T09:58:08Z</time>
      </trkpt>
      <trkpt lat="42.632093" lon="0.453649">
        <ele>2477.000000</ele>
        <time>2021-09-05T09:58:09Z</time>
      </trkpt>
      <trkpt lat="42.632088" lon="0.453649">
        <ele>2477.000000</ele>
        <time>2021-09-05T09:58:10Z</time>
      </trkpt>
      <trkpt lat="42.632085" lon="0.453649">
        <ele>2476.000000</ele>
        <time>2021-09-05T09:58:11Z</time>
      </trkpt>
      <trkpt lat="42.632082" lon="0.453648">
        <ele>2476.000000</ele>
        <time>2021-09-05T09:58:13Z</time>
      </trkpt>
      <trkpt lat="42.632075" lon="0.453645">
        <ele>2476.000000</ele>
        <time>2021-09-05T09:58:13Z</time>
      </trkpt>
      <trkpt lat="42.632070" lon="0.453637">
        <ele>2476.000000</ele>
        <time>2021-09-05T09:58:14Z</time>
      </trkpt>
      <trkpt lat="42.632060" lon="0.453628">
        <ele>2475.000000</ele>
        <time>2021-09-05T09:58:15Z</time>
      </trkpt>
      <trkpt lat="42.632052" lon="0.453623">
        <ele>2475.000000</ele>
        <time>2021-09-05T09:58:16Z</time>
      </trkpt>
      <trkpt lat="42.632043" lon="0.453622">
        <ele>2475.000000</ele>
        <time>2021-09-05T09:58:17Z</time>
      </trkpt>
      <trkpt lat="42.632037" lon="0.453620">
        <ele>2475.000000</ele>
        <time>2021-09-05T09:58:18Z</time>
      </trkpt>
      <trkpt lat="42.632028" lon="0.453622">
        <ele>2475.000000</ele>
        <time>2021-09-05T09:58:19Z</time>
      </trkpt>
      <trkpt lat="42.632022" lon="0.453624">
        <ele>2475.000000</ele>
        <time>2021-09-05T09:58:20Z</time>
      </trkpt>
      <trkpt lat="42.632013" lon="0.453632">
        <ele>2475.000000</ele>
        <time>2021-09-05T09:58:21Z</time>
      </trkpt>
      <trkpt lat="42.632007" lon="0.453640">
        <ele>2474.000000</ele>
        <time>2021-09-05T09:58:22Z</time>
      </trkpt>
      <trkpt lat="42.631995" lon="0.453647">
        <ele>2474.000000</ele>
        <time>2021-09-05T09:58:23Z</time>
      </trkpt>
      <trkpt lat="42.631988" lon="0.453655">
        <ele>2474.000000</ele>
        <time>2021-09-05T09:58:24Z</time>
      </trkpt>
      <trkpt lat="42.631977" lon="0.453662">
        <ele>2474.000000</ele>
        <time>2021-09-05T09:58:25Z</time>
      </trkpt>
      <trkpt lat="42.631967" lon="0.453668">
        <ele>2473.000000</ele>
        <time>2021-09-05T09:58:26Z</time>
      </trkpt>
      <trkpt lat="42.631962" lon="0.453671">
        <ele>2473.000000</ele>
        <time>2021-09-05T09:58:27Z</time>
      </trkpt>
      <trkpt lat="42.631957" lon="0.453677">
        <ele>2473.000000</ele>
        <time>2021-09-05T09:58:28Z</time>
      </trkpt>
      <trkpt lat="42.631952" lon="0.453683">
        <ele>2473.000000</ele>
        <time>2021-09-05T09:58:29Z</time>
      </trkpt>
      <trkpt lat="42.631950" lon="0.453685">
        <ele>2472.000000</ele>
        <time>2021-09-05T09:58:30Z</time>
      </trkpt>
      <trkpt lat="42.631943" lon="0.453693">
        <ele>2472.000000</ele>
        <time>2021-09-05T09:58:31Z</time>
      </trkpt>
      <trkpt lat="42.631937" lon="0.453699">
        <ele>2472.000000</ele>
        <time>2021-09-05T09:58:32Z</time>
      </trkpt>
      <trkpt lat="42.631928" lon="0.453705">
        <ele>2472.000000</ele>
        <time>2021-09-05T09:58:33Z</time>
      </trkpt>
      <trkpt lat="42.631922" lon="0.453709">
        <ele>2471.000000</ele>
        <time>2021-09-05T09:58:34Z</time>
      </trkpt>
      <trkpt lat="42.631918" lon="0.453711">
        <ele>2471.000000</ele>
        <time>2021-09-05T09:58:35Z</time>
      </trkpt>
      <trkpt lat="42.631913" lon="0.453714">
        <ele>2471.000000</ele>
        <time>2021-09-05T09:58:37Z</time>
      </trkpt>
      <trkpt lat="42.631908" lon="0.453718">
        <ele>2471.000000</ele>
        <time>2021-09-05T09:58:38Z</time>
      </trkpt>
      <trkpt lat="42.631905" lon="0.453725">
        <ele>2471.000000</ele>
        <time>2021-09-05T09:58:39Z</time>
      </trkpt>
      <trkpt lat="42.631898" lon="0.453740">
        <ele>2471.000000</ele>
        <time>2021-09-05T09:58:40Z</time>
      </trkpt>
      <trkpt lat="42.631888" lon="0.453757">
        <ele>2471.000000</ele>
        <time>2021-09-05T09:58:41Z</time>
      </trkpt>
      <trkpt lat="42.631881" lon="0.453763">
        <ele>2471.000000</ele>
        <time>2021-09-05T09:58:42Z</time>
      </trkpt>
      <trkpt lat="42.631870" lon="0.453775">
        <ele>2471.000000</ele>
        <time>2021-09-05T09:58:43Z</time>
      </trkpt>
      <trkpt lat="42.631858" lon="0.453790">
        <ele>2471.000000</ele>
        <time>2021-09-05T09:58:44Z</time>
      </trkpt>
      <trkpt lat="42.631848" lon="0.453797">
        <ele>2471.000000</ele>
        <time>2021-09-05T09:58:45Z</time>
      </trkpt>
      <trkpt lat="42.631843" lon="0.453801">
        <ele>2471.000000</ele>
        <time>2021-09-05T09:58:46Z</time>
      </trkpt>
      <trkpt lat="42.631840" lon="0.453805">
        <ele>2471.000000</ele>
        <time>2021-09-05T09:58:47Z</time>
      </trkpt>
      <trkpt lat="42.631833" lon="0.453810">
        <ele>2471.000000</ele>
        <time>2021-09-05T09:58:48Z</time>
      </trkpt>
      <trkpt lat="42.631830" lon="0.453813">
        <ele>2471.000000</ele>
        <time>2021-09-05T09:58:49Z</time>
      </trkpt>
      <trkpt lat="42.631825" lon="0.453817">
        <ele>2471.000000</ele>
        <time>2021-09-05T09:58:50Z</time>
      </trkpt>
      <trkpt lat="42.631818" lon="0.453822">
        <ele>2471.000000</ele>
        <time>2021-09-05T09:58:51Z</time>
      </trkpt>
      <trkpt lat="42.631812" lon="0.453825">
        <ele>2471.000000</ele>
        <time>2021-09-05T09:58:52Z</time>
      </trkpt>
      <trkpt lat="42.631802" lon="0.453829">
        <ele>2471.000000</ele>
        <time>2021-09-05T09:58:53Z</time>
      </trkpt>
      <trkpt lat="42.631795" lon="0.453831">
        <ele>2471.000000</ele>
        <time>2021-09-05T09:58:54Z</time>
      </trkpt>
      <trkpt lat="42.631790" lon="0.453835">
        <ele>2471.000000</ele>
        <time>2021-09-05T09:58:55Z</time>
      </trkpt>
      <trkpt lat="42.631782" lon="0.453842">
        <ele>2471.000000</ele>
        <time>2021-09-05T09:58:57Z</time>
      </trkpt>
      <trkpt lat="42.631778" lon="0.453847">
        <ele>2471.000000</ele>
        <time>2021-09-05T09:58:57Z</time>
      </trkpt>
      <trkpt lat="42.631773" lon="0.453855">
        <ele>2471.000000</ele>
        <time>2021-09-05T09:59:00Z</time>
      </trkpt>
      <trkpt lat="42.631767" lon="0.453858">
        <ele>2471.000000</ele>
        <time>2021-09-05T09:59:01Z</time>
      </trkpt>
      <trkpt lat="42.631760" lon="0.453858">
        <ele>2471.000000</ele>
        <time>2021-09-05T09:59:01Z</time>
      </trkpt>
      <trkpt lat="42.631757" lon="0.453856">
        <ele>2471.000000</ele>
        <time>2021-09-05T09:59:02Z</time>
      </trkpt>
      <trkpt lat="42.631750" lon="0.453855">
        <ele>2471.000000</ele>
        <time>2021-09-05T09:59:03Z</time>
      </trkpt>
      <trkpt lat="42.631747" lon="0.453854">
        <ele>2471.000000</ele>
        <time>2021-09-05T09:59:04Z</time>
      </trkpt>
      <trkpt lat="42.631745" lon="0.453854">
        <ele>2471.000000</ele>
        <time>2021-09-05T09:59:05Z</time>
      </trkpt>
      <trkpt lat="42.631743" lon="0.453856">
        <ele>2471.000000</ele>
        <time>2021-09-05T09:59:06Z</time>
      </trkpt>
      <trkpt lat="42.631742" lon="0.453859">
        <ele>2471.000000</ele>
        <time>2021-09-05T09:59:07Z</time>
      </trkpt>
      <trkpt lat="42.631742" lon="0.453872">
        <ele>2471.000000</ele>
        <time>2021-09-05T09:59:08Z</time>
      </trkpt>
      <trkpt lat="42.631742" lon="0.453878">
        <ele>2471.000000</ele>
        <time>2021-09-05T09:59:09Z</time>
      </trkpt>
      <trkpt lat="42.631740" lon="0.453880">
        <ele>2473.000000</ele>
        <time>2021-09-05T09:59:10Z</time>
      </trkpt>
      <trkpt lat="42.631740" lon="0.453883">
        <ele>2473.000000</ele>
        <time>2021-09-05T09:59:11Z</time>
      </trkpt>
      <trkpt lat="42.631738" lon="0.453880">
        <ele>2475.000000</ele>
        <time>2021-09-05T09:59:14Z</time>
      </trkpt>
      <trkpt lat="42.631737" lon="0.453875">
        <ele>2475.000000</ele>
        <time>2021-09-05T09:59:15Z</time>
      </trkpt>
      <trkpt lat="42.631733" lon="0.453873">
        <ele>2475.000000</ele>
        <time>2021-09-05T09:59:16Z</time>
      </trkpt>
      <trkpt lat="42.631728" lon="0.453873">
        <ele>2475.000000</ele>
        <time>2021-09-05T09:59:17Z</time>
      </trkpt>
      <trkpt lat="42.631722" lon="0.453872">
        <ele>2475.000000</ele>
        <time>2021-09-05T09:59:18Z</time>
      </trkpt>
      <trkpt lat="42.631715" lon="0.453867">
        <ele>2475.000000</ele>
        <time>2021-09-05T09:59:20Z</time>
      </trkpt>
      <trkpt lat="42.631707" lon="0.453860">
        <ele>2475.000000</ele>
        <time>2021-09-05T09:59:20Z</time>
      </trkpt>
      <trkpt lat="42.631703" lon="0.453857">
        <ele>2475.000000</ele>
        <time>2021-09-05T09:59:21Z</time>
      </trkpt>
      <trkpt lat="42.631695" lon="0.453853">
        <ele>2475.000000</ele>
        <time>2021-09-05T09:59:22Z</time>
      </trkpt>
      <trkpt lat="42.631688" lon="0.453847">
        <ele>2475.000000</ele>
        <time>2021-09-05T09:59:23Z</time>
      </trkpt>
      <trkpt lat="42.631682" lon="0.453842">
        <ele>2475.000000</ele>
        <time>2021-09-05T09:59:24Z</time>
      </trkpt>
      <trkpt lat="42.631682" lon="0.453835">
        <ele>2475.000000</ele>
        <time>2021-09-05T09:59:25Z</time>
      </trkpt>
      <trkpt lat="42.631682" lon="0.453832">
        <ele>2475.000000</ele>
        <time>2021-09-05T09:59:26Z</time>
      </trkpt>
      <trkpt lat="42.631682" lon="0.453827">
        <ele>2474.000000</ele>
        <time>2021-09-05T09:59:27Z</time>
      </trkpt>
      <trkpt lat="42.631680" lon="0.453823">
        <ele>2474.000000</ele>
        <time>2021-09-05T09:59:29Z</time>
      </trkpt>
      <trkpt lat="42.631677" lon="0.453822">
        <ele>2473.000000</ele>
        <time>2021-09-05T09:59:30Z</time>
      </trkpt>
      <trkpt lat="42.631672" lon="0.453823">
        <ele>2473.000000</ele>
        <time>2021-09-05T09:59:32Z</time>
      </trkpt>
      <trkpt lat="42.631667" lon="0.453825">
        <ele>2473.000000</ele>
        <time>2021-09-05T09:59:33Z</time>
      </trkpt>
      <trkpt lat="42.631665" lon="0.453828">
        <ele>2473.000000</ele>
        <time>2021-09-05T09:59:34Z</time>
      </trkpt>
      <trkpt lat="42.631662" lon="0.453833">
        <ele>2473.000000</ele>
        <time>2021-09-05T09:59:35Z</time>
      </trkpt>
      <trkpt lat="42.631660" lon="0.453835">
        <ele>2472.000000</ele>
        <time>2021-09-05T09:59:36Z</time>
      </trkpt>
      <trkpt lat="42.631657" lon="0.453842">
        <ele>2472.000000</ele>
        <time>2021-09-05T09:59:37Z</time>
      </trkpt>
      <trkpt lat="42.631652" lon="0.453848">
        <ele>2472.000000</ele>
        <time>2021-09-05T09:59:38Z</time>
      </trkpt>
      <trkpt lat="42.631650" lon="0.453858">
        <ele>2472.000000</ele>
        <time>2021-09-05T09:59:39Z</time>
      </trkpt>
      <trkpt lat="42.631648" lon="0.453867">
        <ele>2472.000000</ele>
        <time>2021-09-05T09:59:40Z</time>
      </trkpt>
      <trkpt lat="42.631650" lon="0.453870">
        <ele>2472.000000</ele>
        <time>2021-09-05T09:59:41Z</time>
      </trkpt>
      <trkpt lat="42.631645" lon="0.453878">
        <ele>2472.000000</ele>
        <time>2021-09-05T09:59:42Z</time>
      </trkpt>
      <trkpt lat="42.631644" lon="0.453882">
        <ele>2472.000000</ele>
        <time>2021-09-05T09:59:44Z</time>
      </trkpt>
      <trkpt lat="42.631643" lon="0.453885">
        <ele>2472.000000</ele>
        <time>2021-09-05T09:59:45Z</time>
      </trkpt>
      <trkpt lat="42.631642" lon="0.453892">
        <ele>2472.000000</ele>
        <time>2021-09-05T09:59:46Z</time>
      </trkpt>
      <trkpt lat="42.631641" lon="0.453893">
        <ele>2472.000000</ele>
        <time>2021-09-05T09:59:47Z</time>
      </trkpt>
      <trkpt lat="42.631638" lon="0.453897">
        <ele>2472.000000</ele>
        <time>2021-09-05T09:59:48Z</time>
      </trkpt>
      <trkpt lat="42.631637" lon="0.453898">
        <ele>2472.000000</ele>
        <time>2021-09-05T09:59:49Z</time>
      </trkpt>
      <trkpt lat="42.631634" lon="0.453905">
        <ele>2472.000000</ele>
        <time>2021-09-05T09:59:50Z</time>
      </trkpt>
      <trkpt lat="42.631633" lon="0.453917">
        <ele>2472.000000</ele>
        <time>2021-09-05T09:59:51Z</time>
      </trkpt>
      <trkpt lat="42.631634" lon="0.453922">
        <ele>2472.000000</ele>
        <time>2021-09-05T09:59:52Z</time>
      </trkpt>
      <trkpt lat="42.631635" lon="0.453920">
        <ele>2472.000000</ele>
        <time>2021-09-05T09:59:54Z</time>
      </trkpt>
      <trkpt lat="42.631634" lon="0.453922">
        <ele>2472.000000</ele>
        <time>2021-09-05T09:59:55Z</time>
      </trkpt>
      <trkpt lat="42.631630" lon="0.453923">
        <ele>2472.000000</ele>
        <time>2021-09-05T09:59:56Z</time>
      </trkpt>
      <trkpt lat="42.631628" lon="0.453930">
        <ele>2472.000000</ele>
        <time>2021-09-05T09:59:57Z</time>
      </trkpt>
      <trkpt lat="42.631625" lon="0.453938">
        <ele>2471.000000</ele>
        <time>2021-09-05T09:59:58Z</time>
      </trkpt>
      <trkpt lat="42.631621" lon="0.453945">
        <ele>2471.000000</ele>
        <time>2021-09-05T09:59:59Z</time>
      </trkpt>
      <trkpt lat="42.631618" lon="0.453948">
        <ele>2471.000000</ele>
        <time>2021-09-05T10:00:00Z</time>
      </trkpt>
      <trkpt lat="42.631616" lon="0.453952">
        <ele>2471.000000</ele>
        <time>2021-09-05T10:00:01Z</time>
      </trkpt>
      <trkpt lat="42.631611" lon="0.453958">
        <ele>2471.000000</ele>
        <time>2021-09-05T10:00:02Z</time>
      </trkpt>
      <trkpt lat="42.631603" lon="0.453957">
        <ele>2470.000000</ele>
        <time>2021-09-05T10:00:04Z</time>
      </trkpt>
      <trkpt lat="42.631597" lon="0.453958">
        <ele>2470.000000</ele>
        <time>2021-09-05T10:00:04Z</time>
      </trkpt>
      <trkpt lat="42.631592" lon="0.453957">
        <ele>2470.000000</ele>
        <time>2021-09-05T10:00:05Z</time>
      </trkpt>
      <trkpt lat="42.631583" lon="0.453952">
        <ele>2469.000000</ele>
        <time>2021-09-05T10:00:06Z</time>
      </trkpt>
      <trkpt lat="42.631578" lon="0.453948">
        <ele>2469.000000</ele>
        <time>2021-09-05T10:00:07Z</time>
      </trkpt>
      <trkpt lat="42.631575" lon="0.453947">
        <ele>2468.000000</ele>
        <time>2021-09-05T10:00:09Z</time>
      </trkpt>
      <trkpt lat="42.631575" lon="0.453943">
        <ele>2467.000000</ele>
        <time>2021-09-05T10:00:10Z</time>
      </trkpt>
      <trkpt lat="42.631573" lon="0.453946">
        <ele>2467.000000</ele>
        <time>2021-09-05T10:00:11Z</time>
      </trkpt>
      <trkpt lat="42.631568" lon="0.453948">
        <ele>2466.000000</ele>
        <time>2021-09-05T10:00:13Z</time>
      </trkpt>
      <trkpt lat="42.631558" lon="0.453946">
        <ele>2465.000000</ele>
        <time>2021-09-05T10:00:14Z</time>
      </trkpt>
      <trkpt lat="42.631553" lon="0.453945">
        <ele>2465.000000</ele>
        <time>2021-09-05T10:00:15Z</time>
      </trkpt>
      <trkpt lat="42.631552" lon="0.453944">
        <ele>2465.000000</ele>
        <time>2021-09-05T10:00:16Z</time>
      </trkpt>
      <trkpt lat="42.631547" lon="0.453946">
        <ele>2464.000000</ele>
        <time>2021-09-05T10:00:17Z</time>
      </trkpt>
      <trkpt lat="42.631543" lon="0.453951">
        <ele>2464.000000</ele>
        <time>2021-09-05T10:00:18Z</time>
      </trkpt>
      <trkpt lat="42.631537" lon="0.453968">
        <ele>2464.000000</ele>
        <time>2021-09-05T10:00:19Z</time>
      </trkpt>
      <trkpt lat="42.631530" lon="0.453972">
        <ele>2464.000000</ele>
        <time>2021-09-05T10:00:20Z</time>
      </trkpt>
      <trkpt lat="42.631522" lon="0.453973">
        <ele>2464.000000</ele>
        <time>2021-09-05T10:00:21Z</time>
      </trkpt>
      <trkpt lat="42.631518" lon="0.453974">
        <ele>2464.000000</ele>
        <time>2021-09-05T10:00:22Z</time>
      </trkpt>
      <trkpt lat="42.631515" lon="0.453965">
        <ele>2463.000000</ele>
        <time>2021-09-05T10:00:25Z</time>
      </trkpt>
      <trkpt lat="42.631512" lon="0.453962">
        <ele>2463.000000</ele>
        <time>2021-09-05T10:00:27Z</time>
      </trkpt>
      <trkpt lat="42.631508" lon="0.453955">
        <ele>2462.000000</ele>
        <time>2021-09-05T10:00:27Z</time>
      </trkpt>
      <trkpt lat="42.631505" lon="0.453950">
        <ele>2462.000000</ele>
        <time>2021-09-05T10:00:28Z</time>
      </trkpt>
      <trkpt lat="42.631507" lon="0.453947">
        <ele>2462.000000</ele>
        <time>2021-09-05T10:00:29Z</time>
      </trkpt>
      <trkpt lat="42.631505" lon="0.453950">
        <ele>2462.000000</ele>
        <time>2021-09-05T10:00:30Z</time>
      </trkpt>
      <trkpt lat="42.631502" lon="0.453953">
        <ele>2462.000000</ele>
        <time>2021-09-05T10:00:31Z</time>
      </trkpt>
      <trkpt lat="42.631497" lon="0.453955">
        <ele>2462.000000</ele>
        <time>2021-09-05T10:00:32Z</time>
      </trkpt>
      <trkpt lat="42.631493" lon="0.453953">
        <ele>2462.000000</ele>
        <time>2021-09-05T10:00:33Z</time>
      </trkpt>
      <trkpt lat="42.631487" lon="0.453955">
        <ele>2462.000000</ele>
        <time>2021-09-05T10:00:34Z</time>
      </trkpt>
      <trkpt lat="42.631480" lon="0.453957">
        <ele>2462.000000</ele>
        <time>2021-09-05T10:00:35Z</time>
      </trkpt>
      <trkpt lat="42.631472" lon="0.453952">
        <ele>2462.000000</ele>
        <time>2021-09-05T10:00:36Z</time>
      </trkpt>
      <trkpt lat="42.631465" lon="0.453948">
        <ele>2462.000000</ele>
        <time>2021-09-05T10:00:37Z</time>
      </trkpt>
      <trkpt lat="42.631460" lon="0.453945">
        <ele>2462.000000</ele>
        <time>2021-09-05T10:00:38Z</time>
      </trkpt>
      <trkpt lat="42.631455" lon="0.453942">
        <ele>2462.000000</ele>
        <time>2021-09-05T10:00:39Z</time>
      </trkpt>
      <trkpt lat="42.631450" lon="0.453940">
        <ele>2462.000000</ele>
        <time>2021-09-05T10:00:40Z</time>
      </trkpt>
      <trkpt lat="42.631443" lon="0.453938">
        <ele>2462.000000</ele>
        <time>2021-09-05T10:00:41Z</time>
      </trkpt>
      <trkpt lat="42.631435" lon="0.453935">
        <ele>2462.000000</ele>
        <time>2021-09-05T10:00:42Z</time>
      </trkpt>
      <trkpt lat="42.631432" lon="0.453933">
        <ele>2462.000000</ele>
        <time>2021-09-05T10:00:43Z</time>
      </trkpt>
      <trkpt lat="42.631427" lon="0.453932">
        <ele>2462.000000</ele>
        <time>2021-09-05T10:00:44Z</time>
      </trkpt>
      <trkpt lat="42.631423" lon="0.453931">
        <ele>2462.000000</ele>
        <time>2021-09-05T10:00:45Z</time>
      </trkpt>
      <trkpt lat="42.631417" lon="0.453935">
        <ele>2462.000000</ele>
        <time>2021-09-05T10:00:46Z</time>
      </trkpt>
      <trkpt lat="42.631408" lon="0.453938">
        <ele>2462.000000</ele>
        <time>2021-09-05T10:00:47Z</time>
      </trkpt>
      <trkpt lat="42.631403" lon="0.453937">
        <ele>2462.000000</ele>
        <time>2021-09-05T10:00:48Z</time>
      </trkpt>
      <trkpt lat="42.631397" lon="0.453938">
        <ele>2462.000000</ele>
        <time>2021-09-05T10:00:49Z</time>
      </trkpt>
      <trkpt lat="42.631392" lon="0.453941">
        <ele>2462.000000</ele>
        <time>2021-09-05T10:00:51Z</time>
      </trkpt>
      <trkpt lat="42.631387" lon="0.453946">
        <ele>2462.000000</ele>
        <time>2021-09-05T10:00:51Z</time>
      </trkpt>
      <trkpt lat="42.631377" lon="0.453953">
        <ele>2462.000000</ele>
        <time>2021-09-05T10:00:52Z</time>
      </trkpt>
      <trkpt lat="42.631372" lon="0.453958">
        <ele>2462.000000</ele>
        <time>2021-09-05T10:00:53Z</time>
      </trkpt>
      <trkpt lat="42.631367" lon="0.453962">
        <ele>2462.000000</ele>
        <time>2021-09-05T10:00:54Z</time>
      </trkpt>
      <trkpt lat="42.631363" lon="0.453965">
        <ele>2462.000000</ele>
        <time>2021-09-05T10:00:55Z</time>
      </trkpt>
      <trkpt lat="42.631358" lon="0.453969">
        <ele>2462.000000</ele>
        <time>2021-09-05T10:00:56Z</time>
      </trkpt>
      <trkpt lat="42.631352" lon="0.453973">
        <ele>2462.000000</ele>
        <time>2021-09-05T10:00:58Z</time>
      </trkpt>
      <trkpt lat="42.631347" lon="0.453977">
        <ele>2462.000000</ele>
        <time>2021-09-05T10:00:59Z</time>
      </trkpt>
      <trkpt lat="42.631342" lon="0.453981">
        <ele>2462.000000</ele>
        <time>2021-09-05T10:01:00Z</time>
      </trkpt>
      <trkpt lat="42.631333" lon="0.453986">
        <ele>2462.000000</ele>
        <time>2021-09-05T10:01:01Z</time>
      </trkpt>
      <trkpt lat="42.631325" lon="0.453991">
        <ele>2462.000000</ele>
        <time>2021-09-05T10:01:02Z</time>
      </trkpt>
      <trkpt lat="42.631320" lon="0.453995">
        <ele>2462.000000</ele>
        <time>2021-09-05T10:01:03Z</time>
      </trkpt>
      <trkpt lat="42.631318" lon="0.453998">
        <ele>2462.000000</ele>
        <time>2021-09-05T10:01:04Z</time>
      </trkpt>
      <trkpt lat="42.631320" lon="0.454007">
        <ele>2462.000000</ele>
        <time>2021-09-05T10:01:05Z</time>
      </trkpt>
      <trkpt lat="42.631320" lon="0.454010">
        <ele>2462.000000</ele>
        <time>2021-09-05T10:01:06Z</time>
      </trkpt>
      <trkpt lat="42.631318" lon="0.454013">
        <ele>2462.000000</ele>
        <time>2021-09-05T10:01:07Z</time>
      </trkpt>
      <trkpt lat="42.631313" lon="0.454022">
        <ele>2462.000000</ele>
        <time>2021-09-05T10:01:08Z</time>
      </trkpt>
      <trkpt lat="42.631307" lon="0.454030">
        <ele>2462.000000</ele>
        <time>2021-09-05T10:01:09Z</time>
      </trkpt>
      <trkpt lat="42.631303" lon="0.454033">
        <ele>2462.000000</ele>
        <time>2021-09-05T10:01:11Z</time>
      </trkpt>
      <trkpt lat="42.631299" lon="0.454037">
        <ele>2462.000000</ele>
        <time>2021-09-05T10:01:11Z</time>
      </trkpt>
      <trkpt lat="42.631291" lon="0.454045">
        <ele>2462.000000</ele>
        <time>2021-09-05T10:01:12Z</time>
      </trkpt>
      <trkpt lat="42.631287" lon="0.454052">
        <ele>2462.000000</ele>
        <time>2021-09-05T10:01:13Z</time>
      </trkpt>
      <trkpt lat="42.631286" lon="0.454055">
        <ele>2462.000000</ele>
        <time>2021-09-05T10:01:14Z</time>
      </trkpt>
      <trkpt lat="42.631284" lon="0.454063">
        <ele>2462.000000</ele>
        <time>2021-09-05T10:01:15Z</time>
      </trkpt>
      <trkpt lat="42.631281" lon="0.454073">
        <ele>2462.000000</ele>
        <time>2021-09-05T10:01:16Z</time>
      </trkpt>
      <trkpt lat="42.631280" lon="0.454078">
        <ele>2462.000000</ele>
        <time>2021-09-05T10:01:17Z</time>
      </trkpt>
      <trkpt lat="42.631279" lon="0.454085">
        <ele>2462.000000</ele>
        <time>2021-09-05T10:01:18Z</time>
      </trkpt>
      <trkpt lat="42.631276" lon="0.454098">
        <ele>2462.000000</ele>
        <time>2021-09-05T10:01:19Z</time>
      </trkpt>
      <trkpt lat="42.631275" lon="0.454107">
        <ele>2462.000000</ele>
        <time>2021-09-05T10:01:20Z</time>
      </trkpt>
      <trkpt lat="42.631271" lon="0.454113">
        <ele>2462.000000</ele>
        <time>2021-09-05T10:01:21Z</time>
      </trkpt>
      <trkpt lat="42.631263" lon="0.454118">
        <ele>2462.000000</ele>
        <time>2021-09-05T10:01:22Z</time>
      </trkpt>
      <trkpt lat="42.631257" lon="0.454120">
        <ele>2462.000000</ele>
        <time>2021-09-05T10:01:23Z</time>
      </trkpt>
      <trkpt lat="42.631250" lon="0.454123">
        <ele>2462.000000</ele>
        <time>2021-09-05T10:01:24Z</time>
      </trkpt>
      <trkpt lat="42.631243" lon="0.454123">
        <ele>2462.000000</ele>
        <time>2021-09-05T10:01:25Z</time>
      </trkpt>
      <trkpt lat="42.631238" lon="0.454127">
        <ele>2462.000000</ele>
        <time>2021-09-05T10:01:26Z</time>
      </trkpt>
      <trkpt lat="42.631232" lon="0.454132">
        <ele>2462.000000</ele>
        <time>2021-09-05T10:01:27Z</time>
      </trkpt>
      <trkpt lat="42.631228" lon="0.454138">
        <ele>2462.000000</ele>
        <time>2021-09-05T10:01:28Z</time>
      </trkpt>
      <trkpt lat="42.631223" lon="0.454145">
        <ele>2462.000000</ele>
        <time>2021-09-05T10:01:29Z</time>
      </trkpt>
      <trkpt lat="42.631217" lon="0.454149">
        <ele>2462.000000</ele>
        <time>2021-09-05T10:01:30Z</time>
      </trkpt>
      <trkpt lat="42.631210" lon="0.454152">
        <ele>2462.000000</ele>
        <time>2021-09-05T10:01:31Z</time>
      </trkpt>
      <trkpt lat="42.631205" lon="0.454155">
        <ele>2462.000000</ele>
        <time>2021-09-05T10:01:32Z</time>
      </trkpt>
      <trkpt lat="42.631197" lon="0.454160">
        <ele>2462.000000</ele>
        <time>2021-09-05T10:01:33Z</time>
      </trkpt>
      <trkpt lat="42.631188" lon="0.454167">
        <ele>2462.000000</ele>
        <time>2021-09-05T10:01:34Z</time>
      </trkpt>
      <trkpt lat="42.631182" lon="0.454172">
        <ele>2462.000000</ele>
        <time>2021-09-05T10:01:36Z</time>
      </trkpt>
      <trkpt lat="42.631178" lon="0.454175">
        <ele>2462.000000</ele>
        <time>2021-09-05T10:01:36Z</time>
      </trkpt>
      <trkpt lat="42.631170" lon="0.454182">
        <ele>2462.000000</ele>
        <time>2021-09-05T10:01:37Z</time>
      </trkpt>
      <trkpt lat="42.631168" lon="0.454184">
        <ele>2462.000000</ele>
        <time>2021-09-05T10:01:38Z</time>
      </trkpt>
      <trkpt lat="42.631165" lon="0.454188">
        <ele>2462.000000</ele>
        <time>2021-09-05T10:01:39Z</time>
      </trkpt>
      <trkpt lat="42.631163" lon="0.454192">
        <ele>2462.000000</ele>
        <time>2021-09-05T10:01:40Z</time>
      </trkpt>
      <trkpt lat="42.631165" lon="0.454197">
        <ele>2462.000000</ele>
        <time>2021-09-05T10:01:41Z</time>
      </trkpt>
      <trkpt lat="42.631163" lon="0.454200">
        <ele>2462.000000</ele>
        <time>2021-09-05T10:01:42Z</time>
      </trkpt>
      <trkpt lat="42.631162" lon="0.454207">
        <ele>2462.000000</ele>
        <time>2021-09-05T10:01:43Z</time>
      </trkpt>
      <trkpt lat="42.631159" lon="0.454213">
        <ele>2462.000000</ele>
        <time>2021-09-05T10:01:44Z</time>
      </trkpt>
      <trkpt lat="42.631152" lon="0.454227">
        <ele>2462.000000</ele>
        <time>2021-09-05T10:01:45Z</time>
      </trkpt>
      <trkpt lat="42.631147" lon="0.454232">
        <ele>2462.000000</ele>
        <time>2021-09-05T10:01:46Z</time>
      </trkpt>
      <trkpt lat="42.631140" lon="0.454240">
        <ele>2462.000000</ele>
        <time>2021-09-05T10:01:47Z</time>
      </trkpt>
      <trkpt lat="42.631132" lon="0.454248">
        <ele>2462.000000</ele>
        <time>2021-09-05T10:01:48Z</time>
      </trkpt>
      <trkpt lat="42.631127" lon="0.454258">
        <ele>2462.000000</ele>
        <time>2021-09-05T10:01:49Z</time>
      </trkpt>
      <trkpt lat="42.631120" lon="0.454267">
        <ele>2460.000000</ele>
        <time>2021-09-05T10:01:50Z</time>
      </trkpt>
      <trkpt lat="42.631113" lon="0.454269">
        <ele>2460.000000</ele>
        <time>2021-09-05T10:01:51Z</time>
      </trkpt>
      <trkpt lat="42.631107" lon="0.454269">
        <ele>2460.000000</ele>
        <time>2021-09-05T10:01:52Z</time>
      </trkpt>
      <trkpt lat="42.631102" lon="0.454267">
        <ele>2460.000000</ele>
        <time>2021-09-05T10:01:53Z</time>
      </trkpt>
      <trkpt lat="42.631097" lon="0.454270">
        <ele>2460.000000</ele>
        <time>2021-09-05T10:01:54Z</time>
      </trkpt>
      <trkpt lat="42.631092" lon="0.454276">
        <ele>2460.000000</ele>
        <time>2021-09-05T10:01:56Z</time>
      </trkpt>
      <trkpt lat="42.631088" lon="0.454281">
        <ele>2460.000000</ele>
        <time>2021-09-05T10:01:56Z</time>
      </trkpt>
      <trkpt lat="42.631087" lon="0.454286">
        <ele>2460.000000</ele>
        <time>2021-09-05T10:01:57Z</time>
      </trkpt>
      <trkpt lat="42.631083" lon="0.454292">
        <ele>2460.000000</ele>
        <time>2021-09-05T10:01:58Z</time>
      </trkpt>
      <trkpt lat="42.631080" lon="0.454295">
        <ele>2460.000000</ele>
        <time>2021-09-05T10:01:59Z</time>
      </trkpt>
      <trkpt lat="42.631070" lon="0.454299">
        <ele>2460.000000</ele>
        <time>2021-09-05T10:02:00Z</time>
      </trkpt>
      <trkpt lat="42.631063" lon="0.454298">
        <ele>2460.000000</ele>
        <time>2021-09-05T10:02:01Z</time>
      </trkpt>
      <trkpt lat="42.631055" lon="0.454302">
        <ele>2460.000000</ele>
        <time>2021-09-05T10:02:02Z</time>
      </trkpt>
      <trkpt lat="42.631047" lon="0.454303">
        <ele>2459.000000</ele>
        <time>2021-09-05T10:02:03Z</time>
      </trkpt>
      <trkpt lat="42.631040" lon="0.454310">
        <ele>2459.000000</ele>
        <time>2021-09-05T10:02:04Z</time>
      </trkpt>
      <trkpt lat="42.631033" lon="0.454317">
        <ele>2459.000000</ele>
        <time>2021-09-05T10:02:05Z</time>
      </trkpt>
      <trkpt lat="42.631030" lon="0.454320">
        <ele>2459.000000</ele>
        <time>2021-09-05T10:02:06Z</time>
      </trkpt>
      <trkpt lat="42.631030" lon="0.454319">
        <ele>2459.000000</ele>
        <time>2021-09-05T10:02:07Z</time>
      </trkpt>
      <trkpt lat="42.631023" lon="0.454318">
        <ele>2459.000000</ele>
        <time>2021-09-05T10:02:08Z</time>
      </trkpt>
      <trkpt lat="42.631017" lon="0.454310">
        <ele>2459.000000</ele>
        <time>2021-09-05T10:02:09Z</time>
      </trkpt>
      <trkpt lat="42.631012" lon="0.454308">
        <ele>2459.000000</ele>
        <time>2021-09-05T10:02:10Z</time>
      </trkpt>
      <trkpt lat="42.631007" lon="0.454305">
        <ele>2457.000000</ele>
        <time>2021-09-05T10:02:11Z</time>
      </trkpt>
      <trkpt lat="42.631003" lon="0.454303">
        <ele>2457.000000</ele>
        <time>2021-09-05T10:02:12Z</time>
      </trkpt>
      <trkpt lat="42.631000" lon="0.454309">
        <ele>2457.000000</ele>
        <time>2021-09-05T10:02:13Z</time>
      </trkpt>
      <trkpt lat="42.630992" lon="0.454316">
        <ele>2456.000000</ele>
        <time>2021-09-05T10:02:14Z</time>
      </trkpt>
      <trkpt lat="42.630985" lon="0.454321">
        <ele>2456.000000</ele>
        <time>2021-09-05T10:02:15Z</time>
      </trkpt>
      <trkpt lat="42.630980" lon="0.454325">
        <ele>2456.000000</ele>
        <time>2021-09-05T10:02:16Z</time>
      </trkpt>
      <trkpt lat="42.630973" lon="0.454331">
        <ele>2456.000000</ele>
        <time>2021-09-05T10:02:17Z</time>
      </trkpt>
      <trkpt lat="42.630972" lon="0.454335">
        <ele>2456.000000</ele>
        <time>2021-09-05T10:02:18Z</time>
      </trkpt>
      <trkpt lat="42.630970" lon="0.454347">
        <ele>2456.000000</ele>
        <time>2021-09-05T10:02:20Z</time>
      </trkpt>
      <trkpt lat="42.630970" lon="0.454358">
        <ele>2456.000000</ele>
        <time>2021-09-05T10:02:20Z</time>
      </trkpt>
      <trkpt lat="42.630967" lon="0.454370">
        <ele>2456.000000</ele>
        <time>2021-09-05T10:02:21Z</time>
      </trkpt>
      <trkpt lat="42.630963" lon="0.454377">
        <ele>2456.000000</ele>
        <time>2021-09-05T10:02:22Z</time>
      </trkpt>
      <trkpt lat="42.630959" lon="0.454383">
        <ele>2456.000000</ele>
        <time>2021-09-05T10:02:23Z</time>
      </trkpt>
      <trkpt lat="42.630953" lon="0.454395">
        <ele>2456.000000</ele>
        <time>2021-09-05T10:02:24Z</time>
      </trkpt>
      <trkpt lat="42.630949" lon="0.454400">
        <ele>2456.000000</ele>
        <time>2021-09-05T10:02:25Z</time>
      </trkpt>
      <trkpt lat="42.630946" lon="0.454405">
        <ele>2456.000000</ele>
        <time>2021-09-05T10:02:26Z</time>
      </trkpt>
      <trkpt lat="42.630944" lon="0.454408">
        <ele>2456.000000</ele>
        <time>2021-09-05T10:02:27Z</time>
      </trkpt>
      <trkpt lat="42.630941" lon="0.454417">
        <ele>2456.000000</ele>
        <time>2021-09-05T10:02:28Z</time>
      </trkpt>
      <trkpt lat="42.630941" lon="0.454423">
        <ele>2455.000000</ele>
        <time>2021-09-05T10:02:29Z</time>
      </trkpt>
      <trkpt lat="42.630948" lon="0.454433">
        <ele>2455.000000</ele>
        <time>2021-09-05T10:02:30Z</time>
      </trkpt>
      <trkpt lat="42.630947" lon="0.454443">
        <ele>2455.000000</ele>
        <time>2021-09-05T10:02:31Z</time>
      </trkpt>
      <trkpt lat="42.630945" lon="0.454452">
        <ele>2455.000000</ele>
        <time>2021-09-05T10:02:32Z</time>
      </trkpt>
      <trkpt lat="42.630942" lon="0.454460">
        <ele>2455.000000</ele>
        <time>2021-09-05T10:02:33Z</time>
      </trkpt>
      <trkpt lat="42.630939" lon="0.454463">
        <ele>2455.000000</ele>
        <time>2021-09-05T10:02:34Z</time>
      </trkpt>
      <trkpt lat="42.630938" lon="0.454462">
        <ele>2454.000000</ele>
        <time>2021-09-05T10:02:35Z</time>
      </trkpt>
      <trkpt lat="42.630932" lon="0.454465">
        <ele>2454.000000</ele>
        <time>2021-09-05T10:02:36Z</time>
      </trkpt>
      <trkpt lat="42.630930" lon="0.454468">
        <ele>2454.000000</ele>
        <time>2021-09-05T10:02:37Z</time>
      </trkpt>
      <trkpt lat="42.630930" lon="0.454478">
        <ele>2453.000000</ele>
        <time>2021-09-05T10:02:38Z</time>
      </trkpt>
      <trkpt lat="42.630927" lon="0.454487">
        <ele>2453.000000</ele>
        <time>2021-09-05T10:02:39Z</time>
      </trkpt>
      <trkpt lat="42.630919" lon="0.454497">
        <ele>2453.000000</ele>
        <time>2021-09-05T10:02:40Z</time>
      </trkpt>
      <trkpt lat="42.630915" lon="0.454498">
        <ele>2452.000000</ele>
        <time>2021-09-05T10:02:41Z</time>
      </trkpt>
      <trkpt lat="42.630910" lon="0.454497">
        <ele>2452.000000</ele>
        <time>2021-09-05T10:02:43Z</time>
      </trkpt>
      <trkpt lat="42.630910" lon="0.454495">
        <ele>2451.000000</ele>
        <time>2021-09-05T10:02:45Z</time>
      </trkpt>
      <trkpt lat="42.630908" lon="0.454498">
        <ele>2450.000000</ele>
        <time>2021-09-05T10:02:46Z</time>
      </trkpt>
      <trkpt lat="42.630907" lon="0.454497">
        <ele>2450.000000</ele>
        <time>2021-09-05T10:02:47Z</time>
      </trkpt>
      <trkpt lat="42.630902" lon="0.454495">
        <ele>2449.000000</ele>
        <time>2021-09-05T10:02:48Z</time>
      </trkpt>
      <trkpt lat="42.630898" lon="0.454497">
        <ele>2449.000000</ele>
        <time>2021-09-05T10:02:49Z</time>
      </trkpt>
      <trkpt lat="42.630892" lon="0.454498">
        <ele>2448.000000</ele>
        <time>2021-09-05T10:02:50Z</time>
      </trkpt>
      <trkpt lat="42.630887" lon="0.454493">
        <ele>2448.000000</ele>
        <time>2021-09-05T10:02:51Z</time>
      </trkpt>
      <trkpt lat="42.630883" lon="0.454482">
        <ele>2448.000000</ele>
        <time>2021-09-05T10:02:52Z</time>
      </trkpt>
      <trkpt lat="42.630880" lon="0.454473">
        <ele>2447.000000</ele>
        <time>2021-09-05T10:02:53Z</time>
      </trkpt>
      <trkpt lat="42.630878" lon="0.454465">
        <ele>2447.000000</ele>
        <time>2021-09-05T10:02:54Z</time>
      </trkpt>
      <trkpt lat="42.630875" lon="0.454460">
        <ele>2447.000000</ele>
        <time>2021-09-05T10:02:55Z</time>
      </trkpt>
      <trkpt lat="42.630870" lon="0.454457">
        <ele>2446.000000</ele>
        <time>2021-09-05T10:02:56Z</time>
      </trkpt>
      <trkpt lat="42.630866" lon="0.454455">
        <ele>2446.000000</ele>
        <time>2021-09-05T10:02:57Z</time>
      </trkpt>
      <trkpt lat="42.630862" lon="0.454452">
        <ele>2446.000000</ele>
        <time>2021-09-05T10:02:58Z</time>
      </trkpt>
      <trkpt lat="42.630862" lon="0.454447">
        <ele>2445.000000</ele>
        <time>2021-09-05T10:02:59Z</time>
      </trkpt>
      <trkpt lat="42.630858" lon="0.454450">
        <ele>2445.000000</ele>
        <time>2021-09-05T10:03:00Z</time>
      </trkpt>
      <trkpt lat="42.630853" lon="0.454453">
        <ele>2445.000000</ele>
        <time>2021-09-05T10:03:01Z</time>
      </trkpt>
      <trkpt lat="42.630850" lon="0.454450">
        <ele>2445.000000</ele>
        <time>2021-09-05T10:03:03Z</time>
      </trkpt>
      <trkpt lat="42.630848" lon="0.454448">
        <ele>2445.000000</ele>
        <time>2021-09-05T10:03:03Z</time>
      </trkpt>
      <trkpt lat="42.630850" lon="0.454450">
        <ele>2445.000000</ele>
        <time>2021-09-05T10:03:04Z</time>
      </trkpt>
      <trkpt lat="42.630855" lon="0.454450">
        <ele>2445.000000</ele>
        <time>2021-09-05T10:03:05Z</time>
      </trkpt>
      <trkpt lat="42.630855" lon="0.454453">
        <ele>2445.000000</ele>
        <time>2021-09-05T10:03:09Z</time>
      </trkpt>
      <trkpt lat="42.630853" lon="0.454453">
        <ele>2445.000000</ele>
        <time>2021-09-05T10:03:10Z</time>
      </trkpt>
      <trkpt lat="42.630850" lon="0.454451">
        <ele>2445.000000</ele>
        <time>2021-09-05T10:03:11Z</time>
      </trkpt>
      <trkpt lat="42.630850" lon="0.454451">
        <ele>2445.000000</ele>
        <time>2021-09-05T10:03:12Z</time>
      </trkpt>
      <trkpt lat="42.630850" lon="0.454450">
        <ele>2444.000000</ele>
        <time>2021-09-05T10:03:13Z</time>
      </trkpt>
      <trkpt lat="42.630852" lon="0.454451">
        <ele>2444.000000</ele>
        <time>2021-09-05T10:03:14Z</time>
      </trkpt>
      <trkpt lat="42.630850" lon="0.454448">
        <ele>2444.000000</ele>
        <time>2021-09-05T10:03:15Z</time>
      </trkpt>
      <trkpt lat="42.630850" lon="0.454448">
        <ele>2444.000000</ele>
        <time>2021-09-05T10:03:16Z</time>
      </trkpt>
      <trkpt lat="42.630777" lon="0.454493">
        <ele>2441.000000</ele>
        <time>2021-09-05T10:04:00Z</time>
      </trkpt>
      <trkpt lat="42.630772" lon="0.454484">
        <ele>2440.000000</ele>
        <time>2021-09-05T10:04:01Z</time>
      </trkpt>
      <trkpt lat="42.630765" lon="0.454477">
        <ele>2440.000000</ele>
        <time>2021-09-05T10:04:02Z</time>
      </trkpt>
      <trkpt lat="42.630758" lon="0.454472">
        <ele>2439.000000</ele>
        <time>2021-09-05T10:04:03Z</time>
      </trkpt>
      <trkpt lat="42.630757" lon="0.454465">
        <ele>2439.000000</ele>
        <time>2021-09-05T10:04:04Z</time>
      </trkpt>
      <trkpt lat="42.630753" lon="0.454463">
        <ele>2439.000000</ele>
        <time>2021-09-05T10:04:05Z</time>
      </trkpt>
      <trkpt lat="42.630752" lon="0.454462">
        <ele>2438.000000</ele>
        <time>2021-09-05T10:04:06Z</time>
      </trkpt>
      <trkpt lat="42.630750" lon="0.454463">
        <ele>2438.000000</ele>
        <time>2021-09-05T10:04:07Z</time>
      </trkpt>
      <trkpt lat="42.630748" lon="0.454460">
        <ele>2438.000000</ele>
        <time>2021-09-05T10:04:08Z</time>
      </trkpt>
      <trkpt lat="42.630745" lon="0.454463">
        <ele>2438.000000</ele>
        <time>2021-09-05T10:04:10Z</time>
      </trkpt>
      <trkpt lat="42.630743" lon="0.454468">
        <ele>2437.000000</ele>
        <time>2021-09-05T10:04:10Z</time>
      </trkpt>
      <trkpt lat="42.630737" lon="0.454475">
        <ele>2437.000000</ele>
        <time>2021-09-05T10:04:11Z</time>
      </trkpt>
      <trkpt lat="42.630730" lon="0.454482">
        <ele>2437.000000</ele>
        <time>2021-09-05T10:04:12Z</time>
      </trkpt>
      <trkpt lat="42.630722" lon="0.454485">
        <ele>2437.000000</ele>
        <time>2021-09-05T10:04:13Z</time>
      </trkpt>
      <trkpt lat="42.630713" lon="0.454488">
        <ele>2437.000000</ele>
        <time>2021-09-05T10:04:14Z</time>
      </trkpt>
      <trkpt lat="42.630700" lon="0.454490">
        <ele>2437.000000</ele>
        <time>2021-09-05T10:04:15Z</time>
      </trkpt>
      <trkpt lat="42.630683" lon="0.454492">
        <ele>2437.000000</ele>
        <time>2021-09-05T10:04:16Z</time>
      </trkpt>
      <trkpt lat="42.630670" lon="0.454490">
        <ele>2437.000000</ele>
        <time>2021-09-05T10:04:17Z</time>
      </trkpt>
      <trkpt lat="42.630662" lon="0.454487">
        <ele>2436.000000</ele>
        <time>2021-09-05T10:04:18Z</time>
      </trkpt>
      <trkpt lat="42.630657" lon="0.454482">
        <ele>2436.000000</ele>
        <time>2021-09-05T10:04:19Z</time>
      </trkpt>
      <trkpt lat="42.630648" lon="0.454477">
        <ele>2436.000000</ele>
        <time>2021-09-05T10:04:20Z</time>
      </trkpt>
      <trkpt lat="42.630645" lon="0.454470">
        <ele>2436.000000</ele>
        <time>2021-09-05T10:04:21Z</time>
      </trkpt>
      <trkpt lat="42.630642" lon="0.454467">
        <ele>2436.000000</ele>
        <time>2021-09-05T10:04:22Z</time>
      </trkpt>
      <trkpt lat="42.630638" lon="0.454467">
        <ele>2436.000000</ele>
        <time>2021-09-05T10:04:23Z</time>
      </trkpt>
      <trkpt lat="42.630633" lon="0.454467">
        <ele>2436.000000</ele>
        <time>2021-09-05T10:04:24Z</time>
      </trkpt>
      <trkpt lat="42.630628" lon="0.454467">
        <ele>2436.000000</ele>
        <time>2021-09-05T10:04:25Z</time>
      </trkpt>
      <trkpt lat="42.630622" lon="0.454472">
        <ele>2436.000000</ele>
        <time>2021-09-05T10:04:26Z</time>
      </trkpt>
      <trkpt lat="42.630618" lon="0.454475">
        <ele>2436.000000</ele>
        <time>2021-09-05T10:04:27Z</time>
      </trkpt>
      <trkpt lat="42.630613" lon="0.454480">
        <ele>2436.000000</ele>
        <time>2021-09-05T10:04:28Z</time>
      </trkpt>
      <trkpt lat="42.630610" lon="0.454488">
        <ele>2436.000000</ele>
        <time>2021-09-05T10:04:29Z</time>
      </trkpt>
      <trkpt lat="42.630605" lon="0.454498">
        <ele>2436.000000</ele>
        <time>2021-09-05T10:04:30Z</time>
      </trkpt>
      <trkpt lat="42.630598" lon="0.454507">
        <ele>2437.000000</ele>
        <time>2021-09-05T10:04:31Z</time>
      </trkpt>
      <trkpt lat="42.630590" lon="0.454512">
        <ele>2437.000000</ele>
        <time>2021-09-05T10:04:33Z</time>
      </trkpt>
      <trkpt lat="42.630580" lon="0.454518">
        <ele>2437.000000</ele>
        <time>2021-09-05T10:04:33Z</time>
      </trkpt>
      <trkpt lat="42.630572" lon="0.454522">
        <ele>2438.000000</ele>
        <time>2021-09-05T10:04:34Z</time>
      </trkpt>
      <trkpt lat="42.630565" lon="0.454527">
        <ele>2438.000000</ele>
        <time>2021-09-05T10:04:35Z</time>
      </trkpt>
      <trkpt lat="42.630558" lon="0.454531">
        <ele>2438.000000</ele>
        <time>2021-09-05T10:04:36Z</time>
      </trkpt>
      <trkpt lat="42.630555" lon="0.454534">
        <ele>2438.000000</ele>
        <time>2021-09-05T10:04:37Z</time>
      </trkpt>
      <trkpt lat="42.630548" lon="0.454540">
        <ele>2439.000000</ele>
        <time>2021-09-05T10:04:38Z</time>
      </trkpt>
      <trkpt lat="42.630545" lon="0.454545">
        <ele>2439.000000</ele>
        <time>2021-09-05T10:04:39Z</time>
      </trkpt>
      <trkpt lat="42.630542" lon="0.454549">
        <ele>2439.000000</ele>
        <time>2021-09-05T10:04:40Z</time>
      </trkpt>
      <trkpt lat="42.630542" lon="0.454563">
        <ele>2439.000000</ele>
        <time>2021-09-05T10:04:41Z</time>
      </trkpt>
      <trkpt lat="42.630538" lon="0.454570">
        <ele>2439.000000</ele>
        <time>2021-09-05T10:04:42Z</time>
      </trkpt>
      <trkpt lat="42.630532" lon="0.454573">
        <ele>2439.000000</ele>
        <time>2021-09-05T10:04:43Z</time>
      </trkpt>
      <trkpt lat="42.630528" lon="0.454575">
        <ele>2439.000000</ele>
        <time>2021-09-05T10:04:44Z</time>
      </trkpt>
      <trkpt lat="42.630527" lon="0.454578">
        <ele>2439.000000</ele>
        <time>2021-09-05T10:04:45Z</time>
      </trkpt>
      <trkpt lat="42.630527" lon="0.454585">
        <ele>2439.000000</ele>
        <time>2021-09-05T10:04:46Z</time>
      </trkpt>
      <trkpt lat="42.630523" lon="0.454593">
        <ele>2439.000000</ele>
        <time>2021-09-05T10:04:47Z</time>
      </trkpt>
      <trkpt lat="42.630521" lon="0.454600">
        <ele>2439.000000</ele>
        <time>2021-09-05T10:04:48Z</time>
      </trkpt>
      <trkpt lat="42.630517" lon="0.454608">
        <ele>2439.000000</ele>
        <time>2021-09-05T10:04:49Z</time>
      </trkpt>
      <trkpt lat="42.630511" lon="0.454622">
        <ele>2439.000000</ele>
        <time>2021-09-05T10:04:50Z</time>
      </trkpt>
      <trkpt lat="42.630503" lon="0.454632">
        <ele>2439.000000</ele>
        <time>2021-09-05T10:04:51Z</time>
      </trkpt>
      <trkpt lat="42.630497" lon="0.454637">
        <ele>2439.000000</ele>
        <time>2021-09-05T10:04:52Z</time>
      </trkpt>
      <trkpt lat="42.630491" lon="0.454643">
        <ele>2439.000000</ele>
        <time>2021-09-05T10:04:53Z</time>
      </trkpt>
      <trkpt lat="42.630484" lon="0.454652">
        <ele>2439.000000</ele>
        <time>2021-09-05T10:04:54Z</time>
      </trkpt>
      <trkpt lat="42.630475" lon="0.454655">
        <ele>2439.000000</ele>
        <time>2021-09-05T10:04:55Z</time>
      </trkpt>
      <trkpt lat="42.630470" lon="0.454658">
        <ele>2439.000000</ele>
        <time>2021-09-05T10:04:56Z</time>
      </trkpt>
      <trkpt lat="42.630467" lon="0.454657">
        <ele>2439.000000</ele>
        <time>2021-09-05T10:04:57Z</time>
      </trkpt>
      <trkpt lat="42.630465" lon="0.454658">
        <ele>2438.000000</ele>
        <time>2021-09-05T10:04:58Z</time>
      </trkpt>
      <trkpt lat="42.630463" lon="0.454664">
        <ele>2438.000000</ele>
        <time>2021-09-05T10:04:59Z</time>
      </trkpt>
      <trkpt lat="42.630462" lon="0.454669">
        <ele>2438.000000</ele>
        <time>2021-09-05T10:05:00Z</time>
      </trkpt>
      <trkpt lat="42.630455" lon="0.454678">
        <ele>2438.000000</ele>
        <time>2021-09-05T10:05:01Z</time>
      </trkpt>
      <trkpt lat="42.630447" lon="0.454685">
        <ele>2437.000000</ele>
        <time>2021-09-05T10:05:02Z</time>
      </trkpt>
      <trkpt lat="42.630442" lon="0.454683">
        <ele>2437.000000</ele>
        <time>2021-09-05T10:05:03Z</time>
      </trkpt>
      <trkpt lat="42.630432" lon="0.454688">
        <ele>2437.000000</ele>
        <time>2021-09-05T10:05:04Z</time>
      </trkpt>
      <trkpt lat="42.630425" lon="0.454690">
        <ele>2437.000000</ele>
        <time>2021-09-05T10:05:05Z</time>
      </trkpt>
      <trkpt lat="42.630418" lon="0.454690">
        <ele>2436.000000</ele>
        <time>2021-09-05T10:05:06Z</time>
      </trkpt>
      <trkpt lat="42.630413" lon="0.454692">
        <ele>2436.000000</ele>
        <time>2021-09-05T10:05:07Z</time>
      </trkpt>
      <trkpt lat="42.630407" lon="0.454693">
        <ele>2436.000000</ele>
        <time>2021-09-05T10:05:08Z</time>
      </trkpt>
      <trkpt lat="42.630402" lon="0.454695">
        <ele>2435.000000</ele>
        <time>2021-09-05T10:05:09Z</time>
      </trkpt>
      <trkpt lat="42.630397" lon="0.454699">
        <ele>2435.000000</ele>
        <time>2021-09-05T10:05:10Z</time>
      </trkpt>
      <trkpt lat="42.630393" lon="0.454707">
        <ele>2435.000000</ele>
        <time>2021-09-05T10:05:11Z</time>
      </trkpt>
      <trkpt lat="42.630392" lon="0.454712">
        <ele>2435.000000</ele>
        <time>2021-09-05T10:05:13Z</time>
      </trkpt>
      <trkpt lat="42.630390" lon="0.454718">
        <ele>2435.000000</ele>
        <time>2021-09-05T10:05:14Z</time>
      </trkpt>
      <trkpt lat="42.630390" lon="0.454727">
        <ele>2435.000000</ele>
        <time>2021-09-05T10:05:15Z</time>
      </trkpt>
      <trkpt lat="42.630395" lon="0.454728">
        <ele>2435.000000</ele>
        <time>2021-09-05T10:05:17Z</time>
      </trkpt>
      <trkpt lat="42.630402" lon="0.454732">
        <ele>2435.000000</ele>
        <time>2021-09-05T10:05:17Z</time>
      </trkpt>
      <trkpt lat="42.630403" lon="0.454740">
        <ele>2435.000000</ele>
        <time>2021-09-05T10:05:18Z</time>
      </trkpt>
      <trkpt lat="42.630402" lon="0.454747">
        <ele>2435.000000</ele>
        <time>2021-09-05T10:05:19Z</time>
      </trkpt>
      <trkpt lat="42.630400" lon="0.454753">
        <ele>2435.000000</ele>
        <time>2021-09-05T10:05:20Z</time>
      </trkpt>
      <trkpt lat="42.630392" lon="0.454758">
        <ele>2435.000000</ele>
        <time>2021-09-05T10:05:21Z</time>
      </trkpt>
      <trkpt lat="42.630387" lon="0.454762">
        <ele>2435.000000</ele>
        <time>2021-09-05T10:05:22Z</time>
      </trkpt>
      <trkpt lat="42.630383" lon="0.454763">
        <ele>2435.000000</ele>
        <time>2021-09-05T10:05:23Z</time>
      </trkpt>
      <trkpt lat="42.630380" lon="0.454767">
        <ele>2434.000000</ele>
        <time>2021-09-05T10:05:24Z</time>
      </trkpt>
      <trkpt lat="42.630377" lon="0.454770">
        <ele>2434.000000</ele>
        <time>2021-09-05T10:05:25Z</time>
      </trkpt>
      <trkpt lat="42.630372" lon="0.454770">
        <ele>2434.000000</ele>
        <time>2021-09-05T10:05:26Z</time>
      </trkpt>
      <trkpt lat="42.630368" lon="0.454767">
        <ele>2433.000000</ele>
        <time>2021-09-05T10:05:27Z</time>
      </trkpt>
      <trkpt lat="42.630365" lon="0.454767">
        <ele>2433.000000</ele>
        <time>2021-09-05T10:05:28Z</time>
      </trkpt>
      <trkpt lat="42.630360" lon="0.454767">
        <ele>2432.000000</ele>
        <time>2021-09-05T10:05:31Z</time>
      </trkpt>
      <trkpt lat="42.630355" lon="0.454768">
        <ele>2432.000000</ele>
        <time>2021-09-05T10:05:32Z</time>
      </trkpt>
      <trkpt lat="42.630352" lon="0.454770">
        <ele>2432.000000</ele>
        <time>2021-09-05T10:05:33Z</time>
      </trkpt>
      <trkpt lat="42.630350" lon="0.454772">
        <ele>2431.000000</ele>
        <time>2021-09-05T10:05:34Z</time>
      </trkpt>
      <trkpt lat="42.630352" lon="0.454782">
        <ele>2431.000000</ele>
        <time>2021-09-05T10:05:37Z</time>
      </trkpt>
      <trkpt lat="42.630348" lon="0.454793">
        <ele>2431.000000</ele>
        <time>2021-09-05T10:05:38Z</time>
      </trkpt>
      <trkpt lat="42.630343" lon="0.454805">
        <ele>2431.000000</ele>
        <time>2021-09-05T10:05:39Z</time>
      </trkpt>
      <trkpt lat="42.630340" lon="0.454812">
        <ele>2431.000000</ele>
        <time>2021-09-05T10:05:41Z</time>
      </trkpt>
      <trkpt lat="42.630334" lon="0.454818">
        <ele>2431.000000</ele>
        <time>2021-09-05T10:05:41Z</time>
      </trkpt>
      <trkpt lat="42.630332" lon="0.454818">
        <ele>2431.000000</ele>
        <time>2021-09-05T10:05:42Z</time>
      </trkpt>
      <trkpt lat="42.630325" lon="0.454820">
        <ele>2431.000000</ele>
        <time>2021-09-05T10:05:43Z</time>
      </trkpt>
      <trkpt lat="42.630322" lon="0.454827">
        <ele>2431.000000</ele>
        <time>2021-09-05T10:05:44Z</time>
      </trkpt>
      <trkpt lat="42.630318" lon="0.454832">
        <ele>2431.000000</ele>
        <time>2021-09-05T10:05:45Z</time>
      </trkpt>
      <trkpt lat="42.630312" lon="0.454833">
        <ele>2431.000000</ele>
        <time>2021-09-05T10:05:46Z</time>
      </trkpt>
      <trkpt lat="42.630303" lon="0.454838">
        <ele>2431.000000</ele>
        <time>2021-09-05T10:05:47Z</time>
      </trkpt>
      <trkpt lat="42.630298" lon="0.454840">
        <ele>2431.000000</ele>
        <time>2021-09-05T10:05:48Z</time>
      </trkpt>
      <trkpt lat="42.630293" lon="0.454848">
        <ele>2431.000000</ele>
        <time>2021-09-05T10:05:49Z</time>
      </trkpt>
      <trkpt lat="42.630287" lon="0.454857">
        <ele>2430.000000</ele>
        <time>2021-09-05T10:05:50Z</time>
      </trkpt>
      <trkpt lat="42.630280" lon="0.454864">
        <ele>2430.000000</ele>
        <time>2021-09-05T10:05:51Z</time>
      </trkpt>
      <trkpt lat="42.630270" lon="0.454870">
        <ele>2430.000000</ele>
        <time>2021-09-05T10:05:52Z</time>
      </trkpt>
      <trkpt lat="42.630262" lon="0.454869">
        <ele>2429.000000</ele>
        <time>2021-09-05T10:05:53Z</time>
      </trkpt>
      <trkpt lat="42.630258" lon="0.454858">
        <ele>2429.000000</ele>
        <time>2021-09-05T10:05:54Z</time>
      </trkpt>
      <trkpt lat="42.630255" lon="0.454853">
        <ele>2429.000000</ele>
        <time>2021-09-05T10:05:55Z</time>
      </trkpt>
      <trkpt lat="42.630252" lon="0.454853">
        <ele>2428.000000</ele>
        <time>2021-09-05T10:05:56Z</time>
      </trkpt>
      <trkpt lat="42.630250" lon="0.454854">
        <ele>2428.000000</ele>
        <time>2021-09-05T10:05:57Z</time>
      </trkpt>
      <trkpt lat="42.630253" lon="0.454854">
        <ele>2428.000000</ele>
        <time>2021-09-05T10:05:58Z</time>
      </trkpt>
      <trkpt lat="42.630250" lon="0.454857">
        <ele>2428.000000</ele>
        <time>2021-09-05T10:05:59Z</time>
      </trkpt>
      <trkpt lat="42.630243" lon="0.454864">
        <ele>2427.000000</ele>
        <time>2021-09-05T10:06:01Z</time>
      </trkpt>
      <trkpt lat="42.630237" lon="0.454870">
        <ele>2427.000000</ele>
        <time>2021-09-05T10:06:01Z</time>
      </trkpt>
      <trkpt lat="42.630228" lon="0.454875">
        <ele>2427.000000</ele>
        <time>2021-09-05T10:06:02Z</time>
      </trkpt>
      <trkpt lat="42.630218" lon="0.454879">
        <ele>2426.000000</ele>
        <time>2021-09-05T10:06:03Z</time>
      </trkpt>
      <trkpt lat="42.630200" lon="0.454885">
        <ele>2426.000000</ele>
        <time>2021-09-05T10:06:04Z</time>
      </trkpt>
      <trkpt lat="42.630188" lon="0.454888">
        <ele>2426.000000</ele>
        <time>2021-09-05T10:06:05Z</time>
      </trkpt>
      <trkpt lat="42.630173" lon="0.454892">
        <ele>2425.000000</ele>
        <time>2021-09-05T10:06:06Z</time>
      </trkpt>
      <trkpt lat="42.630163" lon="0.454895">
        <ele>2425.000000</ele>
        <time>2021-09-05T10:06:07Z</time>
      </trkpt>
      <trkpt lat="42.630150" lon="0.454899">
        <ele>2425.000000</ele>
        <time>2021-09-05T10:06:08Z</time>
      </trkpt>
      <trkpt lat="42.630138" lon="0.454903">
        <ele>2425.000000</ele>
        <time>2021-09-05T10:06:09Z</time>
      </trkpt>
      <trkpt lat="42.630130" lon="0.454905">
        <ele>2424.000000</ele>
        <time>2021-09-05T10:06:10Z</time>
      </trkpt>
      <trkpt lat="42.630120" lon="0.454906">
        <ele>2424.000000</ele>
        <time>2021-09-05T10:06:11Z</time>
      </trkpt>
      <trkpt lat="42.630108" lon="0.454910">
        <ele>2424.000000</ele>
        <time>2021-09-05T10:06:12Z</time>
      </trkpt>
      <trkpt lat="42.630100" lon="0.454912">
        <ele>2424.000000</ele>
        <time>2021-09-05T10:06:13Z</time>
      </trkpt>
      <trkpt lat="42.630092" lon="0.454915">
        <ele>2423.000000</ele>
        <time>2021-09-05T10:06:14Z</time>
      </trkpt>
      <trkpt lat="42.630085" lon="0.454916">
        <ele>2423.000000</ele>
        <time>2021-09-05T10:06:15Z</time>
      </trkpt>
      <trkpt lat="42.630082" lon="0.454917">
        <ele>2423.000000</ele>
        <time>2021-09-05T10:06:16Z</time>
      </trkpt>
      <trkpt lat="42.630078" lon="0.454917">
        <ele>2423.000000</ele>
        <time>2021-09-05T10:06:17Z</time>
      </trkpt>
      <trkpt lat="42.630073" lon="0.454918">
        <ele>2423.000000</ele>
        <time>2021-09-05T10:06:18Z</time>
      </trkpt>
      <trkpt lat="42.630067" lon="0.454920">
        <ele>2423.000000</ele>
        <time>2021-09-05T10:06:19Z</time>
      </trkpt>
      <trkpt lat="42.630060" lon="0.454922">
        <ele>2423.000000</ele>
        <time>2021-09-05T10:06:20Z</time>
      </trkpt>
      <trkpt lat="42.630055" lon="0.454923">
        <ele>2423.000000</ele>
        <time>2021-09-05T10:06:21Z</time>
      </trkpt>
      <trkpt lat="42.630047" lon="0.454926">
        <ele>2423.000000</ele>
        <time>2021-09-05T10:06:22Z</time>
      </trkpt>
      <trkpt lat="42.630042" lon="0.454928">
        <ele>2423.000000</ele>
        <time>2021-09-05T10:06:23Z</time>
      </trkpt>
      <trkpt lat="42.630038" lon="0.454929">
        <ele>2423.000000</ele>
        <time>2021-09-05T10:06:24Z</time>
      </trkpt>
      <trkpt lat="42.630037" lon="0.454929">
        <ele>2423.000000</ele>
        <time>2021-09-05T10:06:26Z</time>
      </trkpt>
      <trkpt lat="42.630033" lon="0.454922">
        <ele>2423.000000</ele>
        <time>2021-09-05T10:06:26Z</time>
      </trkpt>
      <trkpt lat="42.630032" lon="0.454918">
        <ele>2423.000000</ele>
        <time>2021-09-05T10:06:27Z</time>
      </trkpt>
      <trkpt lat="42.630028" lon="0.454918">
        <ele>2422.000000</ele>
        <time>2021-09-05T10:06:30Z</time>
      </trkpt>
      <trkpt lat="42.630025" lon="0.454923">
        <ele>2422.000000</ele>
        <time>2021-09-05T10:06:31Z</time>
      </trkpt>
      <trkpt lat="42.630023" lon="0.454927">
        <ele>2422.000000</ele>
        <time>2021-09-05T10:06:32Z</time>
      </trkpt>
      <trkpt lat="42.630025" lon="0.454933">
        <ele>2422.000000</ele>
        <time>2021-09-05T10:06:33Z</time>
      </trkpt>
      <trkpt lat="42.630027" lon="0.454935">
        <ele>2422.000000</ele>
        <time>2021-09-05T10:06:34Z</time>
      </trkpt>
      <trkpt lat="42.630028" lon="0.454937">
        <ele>2422.000000</ele>
        <time>2021-09-05T10:06:35Z</time>
      </trkpt>
      <trkpt lat="42.630030" lon="0.454940">
        <ele>2422.000000</ele>
        <time>2021-09-05T10:06:36Z</time>
      </trkpt>
      <trkpt lat="42.630032" lon="0.454947">
        <ele>2422.000000</ele>
        <time>2021-09-05T10:06:37Z</time>
      </trkpt>
      <trkpt lat="42.630033" lon="0.454952">
        <ele>2422.000000</ele>
        <time>2021-09-05T10:06:38Z</time>
      </trkpt>
      <trkpt lat="42.630033" lon="0.454957">
        <ele>2422.000000</ele>
        <time>2021-09-05T10:06:39Z</time>
      </trkpt>
      <trkpt lat="42.630030" lon="0.454958">
        <ele>2422.000000</ele>
        <time>2021-09-05T10:06:40Z</time>
      </trkpt>
      <trkpt lat="42.630023" lon="0.454960">
        <ele>2422.000000</ele>
        <time>2021-09-05T10:06:41Z</time>
      </trkpt>
      <trkpt lat="42.630020" lon="0.454963">
        <ele>2422.000000</ele>
        <time>2021-09-05T10:06:42Z</time>
      </trkpt>
      <trkpt lat="42.630015" lon="0.454963">
        <ele>2421.000000</ele>
        <time>2021-09-05T10:06:44Z</time>
      </trkpt>
      <trkpt lat="42.630008" lon="0.454963">
        <ele>2421.000000</ele>
        <time>2021-09-05T10:06:46Z</time>
      </trkpt>
      <trkpt lat="42.630007" lon="0.454971">
        <ele>2420.000000</ele>
        <time>2021-09-05T10:06:49Z</time>
      </trkpt>
      <trkpt lat="42.630005" lon="0.454976">
        <ele>2420.000000</ele>
        <time>2021-09-05T10:06:49Z</time>
      </trkpt>
      <trkpt lat="42.630007" lon="0.454970">
        <ele>2420.000000</ele>
        <time>2021-09-05T10:06:50Z</time>
      </trkpt>
      <trkpt lat="42.630005" lon="0.454973">
        <ele>2420.000000</ele>
        <time>2021-09-05T10:06:51Z</time>
      </trkpt>
      <trkpt lat="42.630003" lon="0.454971">
        <ele>2420.000000</ele>
        <time>2021-09-05T10:06:52Z</time>
      </trkpt>
      <trkpt lat="42.629995" lon="0.454962">
        <ele>2420.000000</ele>
        <time>2021-09-05T10:06:53Z</time>
      </trkpt>
      <trkpt lat="42.629990" lon="0.454958">
        <ele>2419.000000</ele>
        <time>2021-09-05T10:06:54Z</time>
      </trkpt>
      <trkpt lat="42.629988" lon="0.454963">
        <ele>2419.000000</ele>
        <time>2021-09-05T10:06:56Z</time>
      </trkpt>
      <trkpt lat="42.629990" lon="0.454967">
        <ele>2419.000000</ele>
        <time>2021-09-05T10:06:58Z</time>
      </trkpt>
      <trkpt lat="42.629990" lon="0.454970">
        <ele>2419.000000</ele>
        <time>2021-09-05T10:06:59Z</time>
      </trkpt>
      <trkpt lat="42.629988" lon="0.454975">
        <ele>2419.000000</ele>
        <time>2021-09-05T10:07:00Z</time>
      </trkpt>
      <trkpt lat="42.629990" lon="0.454978">
        <ele>2418.000000</ele>
        <time>2021-09-05T10:07:01Z</time>
      </trkpt>
      <trkpt lat="42.629992" lon="0.454982">
        <ele>2418.000000</ele>
        <time>2021-09-05T10:07:02Z</time>
      </trkpt>
      <trkpt lat="42.629993" lon="0.454985">
        <ele>2418.000000</ele>
        <time>2021-09-05T10:07:03Z</time>
      </trkpt>
      <trkpt lat="42.629995" lon="0.454988">
        <ele>2418.000000</ele>
        <time>2021-09-05T10:07:04Z</time>
      </trkpt>
      <trkpt lat="42.629993" lon="0.454990">
        <ele>2418.000000</ele>
        <time>2021-09-05T10:07:05Z</time>
      </trkpt>
      <trkpt lat="42.629991" lon="0.454992">
        <ele>2418.000000</ele>
        <time>2021-09-05T10:07:06Z</time>
      </trkpt>
      <trkpt lat="42.629988" lon="0.454992">
        <ele>2418.000000</ele>
        <time>2021-09-05T10:07:10Z</time>
      </trkpt>
      <trkpt lat="42.629978" lon="0.454993">
        <ele>2417.000000</ele>
        <time>2021-09-05T10:07:11Z</time>
      </trkpt>
      <trkpt lat="42.629973" lon="0.454995">
        <ele>2417.000000</ele>
        <time>2021-09-05T10:07:12Z</time>
      </trkpt>
      <trkpt lat="42.629968" lon="0.455000">
        <ele>2417.000000</ele>
        <time>2021-09-05T10:07:13Z</time>
      </trkpt>
      <trkpt lat="42.629960" lon="0.455002">
        <ele>2416.000000</ele>
        <time>2021-09-05T10:07:14Z</time>
      </trkpt>
      <trkpt lat="42.629948" lon="0.455002">
        <ele>2416.000000</ele>
        <time>2021-09-05T10:07:15Z</time>
      </trkpt>
      <trkpt lat="42.629937" lon="0.454997">
        <ele>2415.000000</ele>
        <time>2021-09-05T10:07:16Z</time>
      </trkpt>
      <trkpt lat="42.629928" lon="0.454998">
        <ele>2415.000000</ele>
        <time>2021-09-05T10:07:17Z</time>
      </trkpt>
      <trkpt lat="42.629922" lon="0.454995">
        <ele>2414.000000</ele>
        <time>2021-09-05T10:07:18Z</time>
      </trkpt>
      <trkpt lat="42.629917" lon="0.454995">
        <ele>2414.000000</ele>
        <time>2021-09-05T10:07:19Z</time>
      </trkpt>
      <trkpt lat="42.629912" lon="0.454998">
        <ele>2414.000000</ele>
        <time>2021-09-05T10:07:20Z</time>
      </trkpt>
      <trkpt lat="42.629902" lon="0.455003">
        <ele>2413.000000</ele>
        <time>2021-09-05T10:07:21Z</time>
      </trkpt>
      <trkpt lat="42.629893" lon="0.455007">
        <ele>2413.000000</ele>
        <time>2021-09-05T10:07:22Z</time>
      </trkpt>
      <trkpt lat="42.629885" lon="0.455008">
        <ele>2413.000000</ele>
        <time>2021-09-05T10:07:23Z</time>
      </trkpt>
      <trkpt lat="42.629880" lon="0.455010">
        <ele>2413.000000</ele>
        <time>2021-09-05T10:07:24Z</time>
      </trkpt>
      <trkpt lat="42.629875" lon="0.455010">
        <ele>2413.000000</ele>
        <time>2021-09-05T10:07:25Z</time>
      </trkpt>
      <trkpt lat="42.629872" lon="0.455011">
        <ele>2413.000000</ele>
        <time>2021-09-05T10:07:26Z</time>
      </trkpt>
      <trkpt lat="42.629863" lon="0.455015">
        <ele>2413.000000</ele>
        <time>2021-09-05T10:07:27Z</time>
      </trkpt>
      <trkpt lat="42.629852" lon="0.455019">
        <ele>2413.000000</ele>
        <time>2021-09-05T10:07:28Z</time>
      </trkpt>
      <trkpt lat="42.629842" lon="0.455022">
        <ele>2413.000000</ele>
        <time>2021-09-05T10:07:29Z</time>
      </trkpt>
      <trkpt lat="42.629828" lon="0.455024">
        <ele>2413.000000</ele>
        <time>2021-09-05T10:07:30Z</time>
      </trkpt>
      <trkpt lat="42.629818" lon="0.455026">
        <ele>2413.000000</ele>
        <time>2021-09-05T10:07:30Z</time>
      </trkpt>
      <trkpt lat="42.629808" lon="0.455029">
        <ele>2413.000000</ele>
        <time>2021-09-05T10:07:32Z</time>
      </trkpt>
      <trkpt lat="42.629797" lon="0.455033">
        <ele>2412.000000</ele>
        <time>2021-09-05T10:07:32Z</time>
      </trkpt>
      <trkpt lat="42.629787" lon="0.455038">
        <ele>2412.000000</ele>
        <time>2021-09-05T10:07:33Z</time>
      </trkpt>
      <trkpt lat="42.629780" lon="0.455043">
        <ele>2412.000000</ele>
        <time>2021-09-05T10:07:34Z</time>
      </trkpt>
      <trkpt lat="42.629772" lon="0.455048">
        <ele>2412.000000</ele>
        <time>2021-09-05T10:07:35Z</time>
      </trkpt>
      <trkpt lat="42.629762" lon="0.455055">
        <ele>2412.000000</ele>
        <time>2021-09-05T10:07:36Z</time>
      </trkpt>
      <trkpt lat="42.629750" lon="0.455062">
        <ele>2412.000000</ele>
        <time>2021-09-05T10:07:37Z</time>
      </trkpt>
      <trkpt lat="42.629745" lon="0.455067">
        <ele>2412.000000</ele>
        <time>2021-09-05T10:07:38Z</time>
      </trkpt>
      <trkpt lat="42.629742" lon="0.455071">
        <ele>2411.000000</ele>
        <time>2021-09-05T10:07:39Z</time>
      </trkpt>
      <trkpt lat="42.629738" lon="0.455075">
        <ele>2411.000000</ele>
        <time>2021-09-05T10:07:40Z</time>
      </trkpt>
      <trkpt lat="42.629733" lon="0.455081">
        <ele>2411.000000</ele>
        <time>2021-09-05T10:07:41Z</time>
      </trkpt>
      <trkpt lat="42.629727" lon="0.455088">
        <ele>2411.000000</ele>
        <time>2021-09-05T10:07:42Z</time>
      </trkpt>
      <trkpt lat="42.629720" lon="0.455093">
        <ele>2411.000000</ele>
        <time>2021-09-05T10:07:43Z</time>
      </trkpt>
      <trkpt lat="42.629717" lon="0.455097">
        <ele>2411.000000</ele>
        <time>2021-09-05T10:07:44Z</time>
      </trkpt>
      <trkpt lat="42.629712" lon="0.455102">
        <ele>2411.000000</ele>
        <time>2021-09-05T10:07:45Z</time>
      </trkpt>
      <trkpt lat="42.629705" lon="0.455107">
        <ele>2411.000000</ele>
        <time>2021-09-05T10:07:46Z</time>
      </trkpt>
      <trkpt lat="42.629700" lon="0.455110">
        <ele>2411.000000</ele>
        <time>2021-09-05T10:07:47Z</time>
      </trkpt>
      <trkpt lat="42.629690" lon="0.455117">
        <ele>2411.000000</ele>
        <time>2021-09-05T10:07:48Z</time>
      </trkpt>
      <trkpt lat="42.629680" lon="0.455117">
        <ele>2411.000000</ele>
        <time>2021-09-05T10:07:49Z</time>
      </trkpt>
      <trkpt lat="42.629672" lon="0.455120">
        <ele>2410.000000</ele>
        <time>2021-09-05T10:07:50Z</time>
      </trkpt>
      <trkpt lat="42.629668" lon="0.455118">
        <ele>2410.000000</ele>
        <time>2021-09-05T10:07:51Z</time>
      </trkpt>
      <trkpt lat="42.629660" lon="0.455118">
        <ele>2410.000000</ele>
        <time>2021-09-05T10:07:53Z</time>
      </trkpt>
      <trkpt lat="42.629652" lon="0.455123">
        <ele>2410.000000</ele>
        <time>2021-09-05T10:07:53Z</time>
      </trkpt>
      <trkpt lat="42.629645" lon="0.455127">
        <ele>2410.000000</ele>
        <time>2021-09-05T10:07:54Z</time>
      </trkpt>
      <trkpt lat="42.629642" lon="0.455130">
        <ele>2410.000000</ele>
        <time>2021-09-05T10:07:55Z</time>
      </trkpt>
      <trkpt lat="42.629635" lon="0.455135">
        <ele>2409.000000</ele>
        <time>2021-09-05T10:07:56Z</time>
      </trkpt>
      <trkpt lat="42.629628" lon="0.455142">
        <ele>2409.000000</ele>
        <time>2021-09-05T10:07:57Z</time>
      </trkpt>
      <trkpt lat="42.629623" lon="0.455148">
        <ele>2409.000000</ele>
        <time>2021-09-05T10:07:58Z</time>
      </trkpt>
      <trkpt lat="42.629618" lon="0.455160">
        <ele>2409.000000</ele>
        <time>2021-09-05T10:07:59Z</time>
      </trkpt>
      <trkpt lat="42.629610" lon="0.455168">
        <ele>2409.000000</ele>
        <time>2021-09-05T10:08:00Z</time>
      </trkpt>
      <trkpt lat="42.629602" lon="0.455175">
        <ele>2409.000000</ele>
        <time>2021-09-05T10:08:01Z</time>
      </trkpt>
      <trkpt lat="42.629592" lon="0.455183">
        <ele>2409.000000</ele>
        <time>2021-09-05T10:08:02Z</time>
      </trkpt>
      <trkpt lat="42.629588" lon="0.455189">
        <ele>2409.000000</ele>
        <time>2021-09-05T10:08:03Z</time>
      </trkpt>
      <trkpt lat="42.629580" lon="0.455201">
        <ele>2409.000000</ele>
        <time>2021-09-05T10:08:04Z</time>
      </trkpt>
      <trkpt lat="42.629573" lon="0.455213">
        <ele>2409.000000</ele>
        <time>2021-09-05T10:08:05Z</time>
      </trkpt>
      <trkpt lat="42.629570" lon="0.455228">
        <ele>2409.000000</ele>
        <time>2021-09-05T10:08:06Z</time>
      </trkpt>
      <trkpt lat="42.629561" lon="0.455237">
        <ele>2409.000000</ele>
        <time>2021-09-05T10:08:07Z</time>
      </trkpt>
      <trkpt lat="42.629550" lon="0.455247">
        <ele>2409.000000</ele>
        <time>2021-09-05T10:08:08Z</time>
      </trkpt>
      <trkpt lat="42.629538" lon="0.455255">
        <ele>2409.000000</ele>
        <time>2021-09-05T10:08:09Z</time>
      </trkpt>
      <trkpt lat="42.629530" lon="0.455264">
        <ele>2409.000000</ele>
        <time>2021-09-05T10:08:10Z</time>
      </trkpt>
      <trkpt lat="42.629522" lon="0.455274">
        <ele>2409.000000</ele>
        <time>2021-09-05T10:08:11Z</time>
      </trkpt>
      <trkpt lat="42.629513" lon="0.455283">
        <ele>2409.000000</ele>
        <time>2021-09-05T10:08:12Z</time>
      </trkpt>
      <trkpt lat="42.629508" lon="0.455288">
        <ele>2409.000000</ele>
        <time>2021-09-05T10:08:13Z</time>
      </trkpt>
      <trkpt lat="42.629502" lon="0.455297">
        <ele>2409.000000</ele>
        <time>2021-09-05T10:08:14Z</time>
      </trkpt>
      <trkpt lat="42.629495" lon="0.455307">
        <ele>2409.000000</ele>
        <time>2021-09-05T10:08:16Z</time>
      </trkpt>
      <trkpt lat="42.629488" lon="0.455315">
        <ele>2409.000000</ele>
        <time>2021-09-05T10:08:16Z</time>
      </trkpt>
      <trkpt lat="42.629482" lon="0.455324">
        <ele>2409.000000</ele>
        <time>2021-09-05T10:08:17Z</time>
      </trkpt>
      <trkpt lat="42.629475" lon="0.455332">
        <ele>2409.000000</ele>
        <time>2021-09-05T10:08:18Z</time>
      </trkpt>
      <trkpt lat="42.629470" lon="0.455340">
        <ele>2409.000000</ele>
        <time>2021-09-05T10:08:19Z</time>
      </trkpt>
      <trkpt lat="42.629463" lon="0.455357">
        <ele>2409.000000</ele>
        <time>2021-09-05T10:08:20Z</time>
      </trkpt>
      <trkpt lat="42.629455" lon="0.455370">
        <ele>2409.000000</ele>
        <time>2021-09-05T10:08:21Z</time>
      </trkpt>
      <trkpt lat="42.629452" lon="0.455375">
        <ele>2409.000000</ele>
        <time>2021-09-05T10:08:22Z</time>
      </trkpt>
      <trkpt lat="42.629447" lon="0.455383">
        <ele>2409.000000</ele>
        <time>2021-09-05T10:08:23Z</time>
      </trkpt>
      <trkpt lat="42.629444" lon="0.455387">
        <ele>2409.000000</ele>
        <time>2021-09-05T10:08:24Z</time>
      </trkpt>
      <trkpt lat="42.629438" lon="0.455388">
        <ele>2409.000000</ele>
        <time>2021-09-05T10:08:25Z</time>
      </trkpt>
      <trkpt lat="42.629433" lon="0.455392">
        <ele>2409.000000</ele>
        <time>2021-09-05T10:08:26Z</time>
      </trkpt>
      <trkpt lat="42.629432" lon="0.455395">
        <ele>2409.000000</ele>
        <time>2021-09-05T10:08:27Z</time>
      </trkpt>
      <trkpt lat="42.629427" lon="0.455399">
        <ele>2409.000000</ele>
        <time>2021-09-05T10:08:28Z</time>
      </trkpt>
      <trkpt lat="42.629428" lon="0.455397">
        <ele>2409.000000</ele>
        <time>2021-09-05T10:08:29Z</time>
      </trkpt>
      <trkpt lat="42.629428" lon="0.455402">
        <ele>2410.000000</ele>
        <time>2021-09-05T10:08:30Z</time>
      </trkpt>
      <trkpt lat="42.629430" lon="0.455412">
        <ele>2410.000000</ele>
        <time>2021-09-05T10:08:31Z</time>
      </trkpt>
      <trkpt lat="42.629428" lon="0.455425">
        <ele>2410.000000</ele>
        <time>2021-09-05T10:08:32Z</time>
      </trkpt>
      <trkpt lat="42.629428" lon="0.455433">
        <ele>2410.000000</ele>
        <time>2021-09-05T10:08:33Z</time>
      </trkpt>
      <trkpt lat="42.629427" lon="0.455440">
        <ele>2410.000000</ele>
        <time>2021-09-05T10:08:34Z</time>
      </trkpt>
      <trkpt lat="42.629425" lon="0.455448">
        <ele>2410.000000</ele>
        <time>2021-09-05T10:08:35Z</time>
      </trkpt>
      <trkpt lat="42.629423" lon="0.455460">
        <ele>2410.000000</ele>
        <time>2021-09-05T10:08:36Z</time>
      </trkpt>
      <trkpt lat="42.629420" lon="0.455470">
        <ele>2410.000000</ele>
        <time>2021-09-05T10:08:37Z</time>
      </trkpt>
      <trkpt lat="42.629415" lon="0.455480">
        <ele>2410.000000</ele>
        <time>2021-09-05T10:08:38Z</time>
      </trkpt>
      <trkpt lat="42.629413" lon="0.455488">
        <ele>2410.000000</ele>
        <time>2021-09-05T10:08:40Z</time>
      </trkpt>
      <trkpt lat="42.629413" lon="0.455495">
        <ele>2410.000000</ele>
        <time>2021-09-05T10:08:40Z</time>
      </trkpt>
      <trkpt lat="42.629412" lon="0.455503">
        <ele>2410.000000</ele>
        <time>2021-09-05T10:08:41Z</time>
      </trkpt>
      <trkpt lat="42.629413" lon="0.455510">
        <ele>2410.000000</ele>
        <time>2021-09-05T10:08:42Z</time>
      </trkpt>
      <trkpt lat="42.629414" lon="0.455513">
        <ele>2410.000000</ele>
        <time>2021-09-05T10:08:43Z</time>
      </trkpt>
      <trkpt lat="42.629412" lon="0.455523">
        <ele>2410.000000</ele>
        <time>2021-09-05T10:08:44Z</time>
      </trkpt>
      <trkpt lat="42.629411" lon="0.455530">
        <ele>2410.000000</ele>
        <time>2021-09-05T10:08:45Z</time>
      </trkpt>
      <trkpt lat="42.629407" lon="0.455543">
        <ele>2410.000000</ele>
        <time>2021-09-05T10:08:46Z</time>
      </trkpt>
      <trkpt lat="42.629401" lon="0.455553">
        <ele>2410.000000</ele>
        <time>2021-09-05T10:08:47Z</time>
      </trkpt>
      <trkpt lat="42.629395" lon="0.455560">
        <ele>2410.000000</ele>
        <time>2021-09-05T10:08:48Z</time>
      </trkpt>
      <trkpt lat="42.629380" lon="0.455568">
        <ele>2409.000000</ele>
        <time>2021-09-05T10:08:49Z</time>
      </trkpt>
      <trkpt lat="42.629373" lon="0.455585">
        <ele>2409.000000</ele>
        <time>2021-09-05T10:08:50Z</time>
      </trkpt>
      <trkpt lat="42.629365" lon="0.455598">
        <ele>2409.000000</ele>
        <time>2021-09-05T10:08:51Z</time>
      </trkpt>
      <trkpt lat="42.629357" lon="0.455608">
        <ele>2409.000000</ele>
        <time>2021-09-05T10:08:52Z</time>
      </trkpt>
      <trkpt lat="42.629348" lon="0.455617">
        <ele>2409.000000</ele>
        <time>2021-09-05T10:08:53Z</time>
      </trkpt>
      <trkpt lat="42.629330" lon="0.455628">
        <ele>2409.000000</ele>
        <time>2021-09-05T10:08:54Z</time>
      </trkpt>
      <trkpt lat="42.629322" lon="0.455640">
        <ele>2408.000000</ele>
        <time>2021-09-05T10:08:55Z</time>
      </trkpt>
      <trkpt lat="42.629315" lon="0.455648">
        <ele>2408.000000</ele>
        <time>2021-09-05T10:08:56Z</time>
      </trkpt>
      <trkpt lat="42.629310" lon="0.455654">
        <ele>2408.000000</ele>
        <time>2021-09-05T10:08:57Z</time>
      </trkpt>
      <trkpt lat="42.629297" lon="0.455667">
        <ele>2408.000000</ele>
        <time>2021-09-05T10:08:58Z</time>
      </trkpt>
      <trkpt lat="42.629288" lon="0.455673">
        <ele>2407.000000</ele>
        <time>2021-09-05T10:09:00Z</time>
      </trkpt>
      <trkpt lat="42.629282" lon="0.455681">
        <ele>2407.000000</ele>
        <time>2021-09-05T10:09:00Z</time>
      </trkpt>
      <trkpt lat="42.629277" lon="0.455686">
        <ele>2407.000000</ele>
        <time>2021-09-05T10:09:01Z</time>
      </trkpt>
      <trkpt lat="42.629275" lon="0.455697">
        <ele>2407.000000</ele>
        <time>2021-09-05T10:09:02Z</time>
      </trkpt>
      <trkpt lat="42.629272" lon="0.455707">
        <ele>2407.000000</ele>
        <time>2021-09-05T10:09:03Z</time>
      </trkpt>
      <trkpt lat="42.629270" lon="0.455708">
        <ele>2407.000000</ele>
        <time>2021-09-05T10:09:04Z</time>
      </trkpt>
      <trkpt lat="42.629263" lon="0.455717">
        <ele>2406.000000</ele>
        <time>2021-09-05T10:09:05Z</time>
      </trkpt>
      <trkpt lat="42.629260" lon="0.455720">
        <ele>2406.000000</ele>
        <time>2021-09-05T10:09:06Z</time>
      </trkpt>
      <trkpt lat="42.629254" lon="0.455732">
        <ele>2406.000000</ele>
        <time>2021-09-05T10:09:07Z</time>
      </trkpt>
      <trkpt lat="42.629249" lon="0.455745">
        <ele>2406.000000</ele>
        <time>2021-09-05T10:09:08Z</time>
      </trkpt>
      <trkpt lat="42.629244" lon="0.455755">
        <ele>2406.000000</ele>
        <time>2021-09-05T10:09:09Z</time>
      </trkpt>
      <trkpt lat="42.629242" lon="0.455758">
        <ele>2405.000000</ele>
        <time>2021-09-05T10:09:10Z</time>
      </trkpt>
      <trkpt lat="42.629238" lon="0.455765">
        <ele>2405.000000</ele>
        <time>2021-09-05T10:09:11Z</time>
      </trkpt>
      <trkpt lat="42.629234" lon="0.455768">
        <ele>2405.000000</ele>
        <time>2021-09-05T10:09:12Z</time>
      </trkpt>
      <trkpt lat="42.629228" lon="0.455777">
        <ele>2404.000000</ele>
        <time>2021-09-05T10:09:13Z</time>
      </trkpt>
      <trkpt lat="42.629223" lon="0.455785">
        <ele>2404.000000</ele>
        <time>2021-09-05T10:09:14Z</time>
      </trkpt>
      <trkpt lat="42.629219" lon="0.455790">
        <ele>2404.000000</ele>
        <time>2021-09-05T10:09:15Z</time>
      </trkpt>
      <trkpt lat="42.629219" lon="0.455790">
        <ele>2404.000000</ele>
        <time>2021-09-05T10:09:16Z</time>
      </trkpt>
      <trkpt lat="42.629215" lon="0.455798">
        <ele>2404.000000</ele>
        <time>2021-09-05T10:09:17Z</time>
      </trkpt>
      <trkpt lat="42.629220" lon="0.455805">
        <ele>2404.000000</ele>
        <time>2021-09-05T10:09:18Z</time>
      </trkpt>
      <trkpt lat="42.629218" lon="0.455813">
        <ele>2404.000000</ele>
        <time>2021-09-05T10:09:19Z</time>
      </trkpt>
      <trkpt lat="42.629215" lon="0.455823">
        <ele>2404.000000</ele>
        <time>2021-09-05T10:09:20Z</time>
      </trkpt>
      <trkpt lat="42.629212" lon="0.455830">
        <ele>2404.000000</ele>
        <time>2021-09-05T10:09:21Z</time>
      </trkpt>
      <trkpt lat="42.629208" lon="0.455837">
        <ele>2404.000000</ele>
        <time>2021-09-05T10:09:22Z</time>
      </trkpt>
      <trkpt lat="42.629203" lon="0.455845">
        <ele>2404.000000</ele>
        <time>2021-09-05T10:09:24Z</time>
      </trkpt>
      <trkpt lat="42.629198" lon="0.455850">
        <ele>2404.000000</ele>
        <time>2021-09-05T10:09:24Z</time>
      </trkpt>
      <trkpt lat="42.629195" lon="0.455855">
        <ele>2404.000000</ele>
        <time>2021-09-05T10:09:25Z</time>
      </trkpt>
      <trkpt lat="42.629192" lon="0.455857">
        <ele>2404.000000</ele>
        <time>2021-09-05T10:09:26Z</time>
      </trkpt>
      <trkpt lat="42.629188" lon="0.455860">
        <ele>2404.000000</ele>
        <time>2021-09-05T10:09:27Z</time>
      </trkpt>
      <trkpt lat="42.629183" lon="0.455865">
        <ele>2404.000000</ele>
        <time>2021-09-05T10:09:28Z</time>
      </trkpt>
      <trkpt lat="42.629178" lon="0.455869">
        <ele>2403.000000</ele>
        <time>2021-09-05T10:09:29Z</time>
      </trkpt>
      <trkpt lat="42.629175" lon="0.455873">
        <ele>2403.000000</ele>
        <time>2021-09-05T10:09:31Z</time>
      </trkpt>
      <trkpt lat="42.629173" lon="0.455878">
        <ele>2403.000000</ele>
        <time>2021-09-05T10:09:32Z</time>
      </trkpt>
      <trkpt lat="42.629171" lon="0.455887">
        <ele>2403.000000</ele>
        <time>2021-09-05T10:09:33Z</time>
      </trkpt>
      <trkpt lat="42.629172" lon="0.455892">
        <ele>2403.000000</ele>
        <time>2021-09-05T10:09:34Z</time>
      </trkpt>
      <trkpt lat="42.629177" lon="0.455893">
        <ele>2403.000000</ele>
        <time>2021-09-05T10:09:35Z</time>
      </trkpt>
      <trkpt lat="42.629187" lon="0.455892">
        <ele>2403.000000</ele>
        <time>2021-09-05T10:09:36Z</time>
      </trkpt>
      <trkpt lat="42.629193" lon="0.455897">
        <ele>2403.000000</ele>
        <time>2021-09-05T10:09:37Z</time>
      </trkpt>
      <trkpt lat="42.629191" lon="0.455908">
        <ele>2403.000000</ele>
        <time>2021-09-05T10:09:38Z</time>
      </trkpt>
      <trkpt lat="42.629190" lon="0.455917">
        <ele>2403.000000</ele>
        <time>2021-09-05T10:09:39Z</time>
      </trkpt>
      <trkpt lat="42.629180" lon="0.455928">
        <ele>2402.000000</ele>
        <time>2021-09-05T10:09:40Z</time>
      </trkpt>
      <trkpt lat="42.629172" lon="0.455938">
        <ele>2402.000000</ele>
        <time>2021-09-05T10:09:41Z</time>
      </trkpt>
      <trkpt lat="42.629158" lon="0.455952">
        <ele>2402.000000</ele>
        <time>2021-09-05T10:09:42Z</time>
      </trkpt>
      <trkpt lat="42.629150" lon="0.455955">
        <ele>2401.000000</ele>
        <time>2021-09-05T10:09:43Z</time>
      </trkpt>
      <trkpt lat="42.629147" lon="0.455960">
        <ele>2401.000000</ele>
        <time>2021-09-05T10:09:44Z</time>
      </trkpt>
      <trkpt lat="42.629146" lon="0.455967">
        <ele>2401.000000</ele>
        <time>2021-09-05T10:09:45Z</time>
      </trkpt>
      <trkpt lat="42.629145" lon="0.455977">
        <ele>2401.000000</ele>
        <time>2021-09-05T10:09:46Z</time>
      </trkpt>
      <trkpt lat="42.629144" lon="0.455987">
        <ele>2400.000000</ele>
        <time>2021-09-05T10:09:48Z</time>
      </trkpt>
      <trkpt lat="42.629142" lon="0.455997">
        <ele>2400.000000</ele>
        <time>2021-09-05T10:09:48Z</time>
      </trkpt>
      <trkpt lat="42.629138" lon="0.456002">
        <ele>2400.000000</ele>
        <time>2021-09-05T10:09:49Z</time>
      </trkpt>
      <trkpt lat="42.629131" lon="0.456012">
        <ele>2400.000000</ele>
        <time>2021-09-05T10:09:50Z</time>
      </trkpt>
      <trkpt lat="42.629125" lon="0.456022">
        <ele>2400.000000</ele>
        <time>2021-09-05T10:09:51Z</time>
      </trkpt>
      <trkpt lat="42.629120" lon="0.456030">
        <ele>2400.000000</ele>
        <time>2021-09-05T10:09:52Z</time>
      </trkpt>
      <trkpt lat="42.629116" lon="0.456038">
        <ele>2400.000000</ele>
        <time>2021-09-05T10:09:53Z</time>
      </trkpt>
      <trkpt lat="42.629112" lon="0.456045">
        <ele>2399.000000</ele>
        <time>2021-09-05T10:09:54Z</time>
      </trkpt>
      <trkpt lat="42.629108" lon="0.456053">
        <ele>2399.000000</ele>
        <time>2021-09-05T10:09:55Z</time>
      </trkpt>
      <trkpt lat="42.629103" lon="0.456060">
        <ele>2399.000000</ele>
        <time>2021-09-05T10:09:56Z</time>
      </trkpt>
      <trkpt lat="42.629097" lon="0.456065">
        <ele>2399.000000</ele>
        <time>2021-09-05T10:09:58Z</time>
      </trkpt>
      <trkpt lat="42.629093" lon="0.456072">
        <ele>2399.000000</ele>
        <time>2021-09-05T10:09:59Z</time>
      </trkpt>
      <trkpt lat="42.629090" lon="0.456080">
        <ele>2399.000000</ele>
        <time>2021-09-05T10:10:00Z</time>
      </trkpt>
      <trkpt lat="42.629088" lon="0.456087">
        <ele>2399.000000</ele>
        <time>2021-09-05T10:10:01Z</time>
      </trkpt>
      <trkpt lat="42.629087" lon="0.456092">
        <ele>2398.000000</ele>
        <time>2021-09-05T10:10:02Z</time>
      </trkpt>
      <trkpt lat="42.629086" lon="0.456095">
        <ele>2398.000000</ele>
        <time>2021-09-05T10:10:03Z</time>
      </trkpt>
      <trkpt lat="42.629087" lon="0.456098">
        <ele>2398.000000</ele>
        <time>2021-09-05T10:10:04Z</time>
      </trkpt>
      <trkpt lat="42.629087" lon="0.456103">
        <ele>2398.000000</ele>
        <time>2021-09-05T10:10:05Z</time>
      </trkpt>
      <trkpt lat="42.629092" lon="0.456105">
        <ele>2398.000000</ele>
        <time>2021-09-05T10:10:06Z</time>
      </trkpt>
      <trkpt lat="42.629095" lon="0.456110">
        <ele>2398.000000</ele>
        <time>2021-09-05T10:10:08Z</time>
      </trkpt>
      <trkpt lat="42.629098" lon="0.456113">
        <ele>2398.000000</ele>
        <time>2021-09-05T10:10:08Z</time>
      </trkpt>
      <trkpt lat="42.629102" lon="0.456118">
        <ele>2398.000000</ele>
        <time>2021-09-05T10:10:09Z</time>
      </trkpt>
      <trkpt lat="42.629105" lon="0.456123">
        <ele>2398.000000</ele>
        <time>2021-09-05T10:10:11Z</time>
      </trkpt>
      <trkpt lat="42.629112" lon="0.456127">
        <ele>2398.000000</ele>
        <time>2021-09-05T10:10:12Z</time>
      </trkpt>
      <trkpt lat="42.629115" lon="0.456132">
        <ele>2397.000000</ele>
        <time>2021-09-05T10:10:13Z</time>
      </trkpt>
      <trkpt lat="42.629117" lon="0.456140">
        <ele>2397.000000</ele>
        <time>2021-09-05T10:10:14Z</time>
      </trkpt>
      <trkpt lat="42.629113" lon="0.456148">
        <ele>2397.000000</ele>
        <time>2021-09-05T10:10:15Z</time>
      </trkpt>
      <trkpt lat="42.629112" lon="0.456153">
        <ele>2397.000000</ele>
        <time>2021-09-05T10:10:16Z</time>
      </trkpt>
      <trkpt lat="42.629112" lon="0.456158">
        <ele>2396.000000</ele>
        <time>2021-09-05T10:10:17Z</time>
      </trkpt>
      <trkpt lat="42.629110" lon="0.456168">
        <ele>2396.000000</ele>
        <time>2021-09-05T10:10:18Z</time>
      </trkpt>
      <trkpt lat="42.629110" lon="0.456178">
        <ele>2396.000000</ele>
        <time>2021-09-05T10:10:19Z</time>
      </trkpt>
      <trkpt lat="42.629109" lon="0.456182">
        <ele>2396.000000</ele>
        <time>2021-09-05T10:10:20Z</time>
      </trkpt>
      <trkpt lat="42.629108" lon="0.456187">
        <ele>2396.000000</ele>
        <time>2021-09-05T10:10:21Z</time>
      </trkpt>
      <trkpt lat="42.629103" lon="0.456192">
        <ele>2396.000000</ele>
        <time>2021-09-05T10:10:22Z</time>
      </trkpt>
      <trkpt lat="42.629098" lon="0.456202">
        <ele>2396.000000</ele>
        <time>2021-09-05T10:10:23Z</time>
      </trkpt>
      <trkpt lat="42.629092" lon="0.456210">
        <ele>2395.000000</ele>
        <time>2021-09-05T10:10:24Z</time>
      </trkpt>
      <trkpt lat="42.629088" lon="0.456217">
        <ele>2395.000000</ele>
        <time>2021-09-05T10:10:25Z</time>
      </trkpt>
      <trkpt lat="42.629083" lon="0.456222">
        <ele>2395.000000</ele>
        <time>2021-09-05T10:10:26Z</time>
      </trkpt>
      <trkpt lat="42.629080" lon="0.456230">
        <ele>2394.000000</ele>
        <time>2021-09-05T10:10:27Z</time>
      </trkpt>
      <trkpt lat="42.629077" lon="0.456237">
        <ele>2394.000000</ele>
        <time>2021-09-05T10:10:28Z</time>
      </trkpt>
      <trkpt lat="42.629070" lon="0.456250">
        <ele>2394.000000</ele>
        <time>2021-09-05T10:10:29Z</time>
      </trkpt>
      <trkpt lat="42.629063" lon="0.456263">
        <ele>2394.000000</ele>
        <time>2021-09-05T10:10:30Z</time>
      </trkpt>
      <trkpt lat="42.629059" lon="0.456272">
        <ele>2394.000000</ele>
        <time>2021-09-05T10:10:32Z</time>
      </trkpt>
      <trkpt lat="42.629051" lon="0.456285">
        <ele>2394.000000</ele>
        <time>2021-09-05T10:10:32Z</time>
      </trkpt>
      <trkpt lat="42.629045" lon="0.456290">
        <ele>2394.000000</ele>
        <time>2021-09-05T10:10:33Z</time>
      </trkpt>
      <trkpt lat="42.629032" lon="0.456293">
        <ele>2394.000000</ele>
        <time>2021-09-05T10:10:34Z</time>
      </trkpt>
      <trkpt lat="42.629022" lon="0.456295">
        <ele>2394.000000</ele>
        <time>2021-09-05T10:10:35Z</time>
      </trkpt>
      <trkpt lat="42.629015" lon="0.456293">
        <ele>2393.000000</ele>
        <time>2021-09-05T10:10:36Z</time>
      </trkpt>
      <trkpt lat="42.629008" lon="0.456292">
        <ele>2393.000000</ele>
        <time>2021-09-05T10:10:37Z</time>
      </trkpt>
      <trkpt lat="42.629003" lon="0.456292">
        <ele>2393.000000</ele>
        <time>2021-09-05T10:10:38Z</time>
      </trkpt>
      <trkpt lat="42.629000" lon="0.456295">
        <ele>2392.000000</ele>
        <time>2021-09-05T10:10:39Z</time>
      </trkpt>
      <trkpt lat="42.629002" lon="0.456298">
        <ele>2392.000000</ele>
        <time>2021-09-05T10:10:41Z</time>
      </trkpt>
      <trkpt lat="42.629002" lon="0.456302">
        <ele>2392.000000</ele>
        <time>2021-09-05T10:10:42Z</time>
      </trkpt>
      <trkpt lat="42.629003" lon="0.456305">
        <ele>2392.000000</ele>
        <time>2021-09-05T10:10:43Z</time>
      </trkpt>
      <trkpt lat="42.629003" lon="0.456308">
        <ele>2392.000000</ele>
        <time>2021-09-05T10:10:45Z</time>
      </trkpt>
      <trkpt lat="42.629005" lon="0.456310">
        <ele>2392.000000</ele>
        <time>2021-09-05T10:10:46Z</time>
      </trkpt>
      <trkpt lat="42.629007" lon="0.456317">
        <ele>2392.000000</ele>
        <time>2021-09-05T10:10:47Z</time>
      </trkpt>
      <trkpt lat="42.629007" lon="0.456323">
        <ele>2392.000000</ele>
        <time>2021-09-05T10:10:48Z</time>
      </trkpt>
      <trkpt lat="42.629002" lon="0.456332">
        <ele>2392.000000</ele>
        <time>2021-09-05T10:10:49Z</time>
      </trkpt>
      <trkpt lat="42.628999" lon="0.456337">
        <ele>2392.000000</ele>
        <time>2021-09-05T10:10:50Z</time>
      </trkpt>
      <trkpt lat="42.628995" lon="0.456340">
        <ele>2392.000000</ele>
        <time>2021-09-05T10:10:51Z</time>
      </trkpt>
      <trkpt lat="42.628992" lon="0.456348">
        <ele>2392.000000</ele>
        <time>2021-09-05T10:10:53Z</time>
      </trkpt>
      <trkpt lat="42.628985" lon="0.456353">
        <ele>2392.000000</ele>
        <time>2021-09-05T10:10:53Z</time>
      </trkpt>
      <trkpt lat="42.628983" lon="0.456360">
        <ele>2392.000000</ele>
        <time>2021-09-05T10:10:55Z</time>
      </trkpt>
      <trkpt lat="42.628978" lon="0.456367">
        <ele>2392.000000</ele>
        <time>2021-09-05T10:10:56Z</time>
      </trkpt>
      <trkpt lat="42.628975" lon="0.456373">
        <ele>2392.000000</ele>
        <time>2021-09-05T10:10:57Z</time>
      </trkpt>
      <trkpt lat="42.628968" lon="0.456378">
        <ele>2392.000000</ele>
        <time>2021-09-05T10:10:58Z</time>
      </trkpt>
      <trkpt lat="42.628960" lon="0.456378">
        <ele>2391.000000</ele>
        <time>2021-09-05T10:10:59Z</time>
      </trkpt>
      <trkpt lat="42.628952" lon="0.456383">
        <ele>2391.000000</ele>
        <time>2021-09-05T10:11:00Z</time>
      </trkpt>
      <trkpt lat="42.628943" lon="0.456390">
        <ele>2390.000000</ele>
        <time>2021-09-05T10:11:01Z</time>
      </trkpt>
      <trkpt lat="42.628938" lon="0.456393">
        <ele>2390.000000</ele>
        <time>2021-09-05T10:11:02Z</time>
      </trkpt>
      <trkpt lat="42.628935" lon="0.456396">
        <ele>2390.000000</ele>
        <time>2021-09-05T10:11:03Z</time>
      </trkpt>
      <trkpt lat="42.628930" lon="0.456397">
        <ele>2389.000000</ele>
        <time>2021-09-05T10:11:05Z</time>
      </trkpt>
      <trkpt lat="42.628927" lon="0.456397">
        <ele>2388.000000</ele>
        <time>2021-09-05T10:11:07Z</time>
      </trkpt>
      <trkpt lat="42.628923" lon="0.456399">
        <ele>2388.000000</ele>
        <time>2021-09-05T10:11:08Z</time>
      </trkpt>
      <trkpt lat="42.628917" lon="0.456404">
        <ele>2388.000000</ele>
        <time>2021-09-05T10:11:09Z</time>
      </trkpt>
      <trkpt lat="42.628908" lon="0.456409">
        <ele>2387.000000</ele>
        <time>2021-09-05T10:11:10Z</time>
      </trkpt>
      <trkpt lat="42.628903" lon="0.456411">
        <ele>2387.000000</ele>
        <time>2021-09-05T10:11:11Z</time>
      </trkpt>
      <trkpt lat="42.628900" lon="0.456413">
        <ele>2387.000000</ele>
        <time>2021-09-05T10:11:12Z</time>
      </trkpt>
      <trkpt lat="42.628897" lon="0.456415">
        <ele>2386.000000</ele>
        <time>2021-09-05T10:11:13Z</time>
      </trkpt>
      <trkpt lat="42.628892" lon="0.456418">
        <ele>2386.000000</ele>
        <time>2021-09-05T10:11:14Z</time>
      </trkpt>
      <trkpt lat="42.628888" lon="0.456419">
        <ele>2386.000000</ele>
        <time>2021-09-05T10:11:16Z</time>
      </trkpt>
      <trkpt lat="42.628885" lon="0.456421">
        <ele>2386.000000</ele>
        <time>2021-09-05T10:11:16Z</time>
      </trkpt>
      <trkpt lat="42.628883" lon="0.456423">
        <ele>2386.000000</ele>
        <time>2021-09-05T10:11:17Z</time>
      </trkpt>
      <trkpt lat="42.628882" lon="0.456424">
        <ele>2386.000000</ele>
        <time>2021-09-05T10:11:19Z</time>
      </trkpt>
      <trkpt lat="42.628878" lon="0.456427">
        <ele>2386.000000</ele>
        <time>2021-09-05T10:11:20Z</time>
      </trkpt>
      <trkpt lat="42.628872" lon="0.456432">
        <ele>2386.000000</ele>
        <time>2021-09-05T10:11:21Z</time>
      </trkpt>
      <trkpt lat="42.628868" lon="0.456433">
        <ele>2386.000000</ele>
        <time>2021-09-05T10:11:22Z</time>
      </trkpt>
      <trkpt lat="42.628867" lon="0.456432">
        <ele>2387.000000</ele>
        <time>2021-09-05T10:11:23Z</time>
      </trkpt>
      <trkpt lat="42.628863" lon="0.456435">
        <ele>2387.000000</ele>
        <time>2021-09-05T10:11:24Z</time>
      </trkpt>
      <trkpt lat="42.628862" lon="0.456440">
        <ele>2387.000000</ele>
        <time>2021-09-05T10:11:25Z</time>
      </trkpt>
      <trkpt lat="42.628863" lon="0.456445">
        <ele>2387.000000</ele>
        <time>2021-09-05T10:11:26Z</time>
      </trkpt>
      <trkpt lat="42.628860" lon="0.456450">
        <ele>2387.000000</ele>
        <time>2021-09-05T10:11:27Z</time>
      </trkpt>
      <trkpt lat="42.628858" lon="0.456453">
        <ele>2387.000000</ele>
        <time>2021-09-05T10:11:28Z</time>
      </trkpt>
      <trkpt lat="42.628852" lon="0.456460">
        <ele>2387.000000</ele>
        <time>2021-09-05T10:11:29Z</time>
      </trkpt>
      <trkpt lat="42.628847" lon="0.456460">
        <ele>2387.000000</ele>
        <time>2021-09-05T10:11:30Z</time>
      </trkpt>
      <trkpt lat="42.628843" lon="0.456463">
        <ele>2387.000000</ele>
        <time>2021-09-05T10:11:31Z</time>
      </trkpt>
      <trkpt lat="42.628838" lon="0.456470">
        <ele>2387.000000</ele>
        <time>2021-09-05T10:11:33Z</time>
      </trkpt>
      <trkpt lat="42.628837" lon="0.456472">
        <ele>2387.000000</ele>
        <time>2021-09-05T10:11:34Z</time>
      </trkpt>
      <trkpt lat="42.628828" lon="0.456474">
        <ele>2387.000000</ele>
        <time>2021-09-05T10:11:35Z</time>
      </trkpt>
      <trkpt lat="42.628822" lon="0.456473">
        <ele>2387.000000</ele>
        <time>2021-09-05T10:11:36Z</time>
      </trkpt>
      <trkpt lat="42.628817" lon="0.456473">
        <ele>2386.000000</ele>
        <time>2021-09-05T10:11:37Z</time>
      </trkpt>
      <trkpt lat="42.628813" lon="0.456475">
        <ele>2386.000000</ele>
        <time>2021-09-05T10:11:38Z</time>
      </trkpt>
      <trkpt lat="42.628810" lon="0.456477">
        <ele>2386.000000</ele>
        <time>2021-09-05T10:11:40Z</time>
      </trkpt>
      <trkpt lat="42.628808" lon="0.456478">
        <ele>2385.000000</ele>
        <time>2021-09-05T10:11:40Z</time>
      </trkpt>
      <trkpt lat="42.628805" lon="0.456482">
        <ele>2385.000000</ele>
        <time>2021-09-05T10:11:41Z</time>
      </trkpt>
      <trkpt lat="42.628802" lon="0.456484">
        <ele>2385.000000</ele>
        <time>2021-09-05T10:11:42Z</time>
      </trkpt>
      <trkpt lat="42.628797" lon="0.456488">
        <ele>2385.000000</ele>
        <time>2021-09-05T10:11:43Z</time>
      </trkpt>
      <trkpt lat="42.628792" lon="0.456488">
        <ele>2384.000000</ele>
        <time>2021-09-05T10:11:44Z</time>
      </trkpt>
      <trkpt lat="42.628788" lon="0.456483">
        <ele>2384.000000</ele>
        <time>2021-09-05T10:11:45Z</time>
      </trkpt>
      <trkpt lat="42.628783" lon="0.456485">
        <ele>2384.000000</ele>
        <time>2021-09-05T10:11:45Z</time>
      </trkpt>
      <trkpt lat="42.628777" lon="0.456488">
        <ele>2384.000000</ele>
        <time>2021-09-05T10:11:46Z</time>
      </trkpt>
      <trkpt lat="42.628770" lon="0.456491">
        <ele>2384.000000</ele>
        <time>2021-09-05T10:11:47Z</time>
      </trkpt>
      <trkpt lat="42.628767" lon="0.456492">
        <ele>2383.000000</ele>
        <time>2021-09-05T10:11:48Z</time>
      </trkpt>
      <trkpt lat="42.628765" lon="0.456493">
        <ele>2383.000000</ele>
        <time>2021-09-05T10:11:49Z</time>
      </trkpt>
      <trkpt lat="42.628762" lon="0.456495">
        <ele>2383.000000</ele>
        <time>2021-09-05T10:11:50Z</time>
      </trkpt>
      <trkpt lat="42.628755" lon="0.456498">
        <ele>2383.000000</ele>
        <time>2021-09-05T10:11:51Z</time>
      </trkpt>
      <trkpt lat="42.628750" lon="0.456499">
        <ele>2383.000000</ele>
        <time>2021-09-05T10:11:52Z</time>
      </trkpt>
      <trkpt lat="42.628752" lon="0.456499">
        <ele>2383.000000</ele>
        <time>2021-09-05T10:11:54Z</time>
      </trkpt>
      <trkpt lat="42.628750" lon="0.456501">
        <ele>2383.000000</ele>
        <time>2021-09-05T10:11:55Z</time>
      </trkpt>
      <trkpt lat="42.628745" lon="0.456505">
        <ele>2383.000000</ele>
        <time>2021-09-05T10:11:56Z</time>
      </trkpt>
      <trkpt lat="42.628738" lon="0.456510">
        <ele>2383.000000</ele>
        <time>2021-09-05T10:11:57Z</time>
      </trkpt>
      <trkpt lat="42.628735" lon="0.456512">
        <ele>2382.000000</ele>
        <time>2021-09-05T10:11:59Z</time>
      </trkpt>
      <trkpt lat="42.628730" lon="0.456517">
        <ele>2382.000000</ele>
        <time>2021-09-05T10:11:59Z</time>
      </trkpt>
      <trkpt lat="42.628723" lon="0.456522">
        <ele>2381.000000</ele>
        <time>2021-09-05T10:12:00Z</time>
      </trkpt>
      <trkpt lat="42.628715" lon="0.456529">
        <ele>2381.000000</ele>
        <time>2021-09-05T10:12:01Z</time>
      </trkpt>
      <trkpt lat="42.628708" lon="0.456534">
        <ele>2380.000000</ele>
        <time>2021-09-05T10:12:02Z</time>
      </trkpt>
      <trkpt lat="42.628700" lon="0.456538">
        <ele>2380.000000</ele>
        <time>2021-09-05T10:12:03Z</time>
      </trkpt>
      <trkpt lat="42.628693" lon="0.456532">
        <ele>2380.000000</ele>
        <time>2021-09-05T10:12:04Z</time>
      </trkpt>
      <trkpt lat="42.628687" lon="0.456528">
        <ele>2379.000000</ele>
        <time>2021-09-05T10:12:05Z</time>
      </trkpt>
      <trkpt lat="42.628682" lon="0.456522">
        <ele>2379.000000</ele>
        <time>2021-09-05T10:12:06Z</time>
      </trkpt>
      <trkpt lat="42.628680" lon="0.456512">
        <ele>2379.000000</ele>
        <time>2021-09-05T10:12:07Z</time>
      </trkpt>
      <trkpt lat="42.628678" lon="0.456510">
        <ele>2378.000000</ele>
        <time>2021-09-05T10:12:08Z</time>
      </trkpt>
      <trkpt lat="42.628677" lon="0.456513">
        <ele>2378.000000</ele>
        <time>2021-09-05T10:12:09Z</time>
      </trkpt>
      <trkpt lat="42.628675" lon="0.456513">
        <ele>2378.000000</ele>
        <time>2021-09-05T10:12:10Z</time>
      </trkpt>
      <trkpt lat="42.628668" lon="0.456506">
        <ele>2377.000000</ele>
        <time>2021-09-05T10:12:11Z</time>
      </trkpt>
      <trkpt lat="42.628667" lon="0.456501">
        <ele>2377.000000</ele>
        <time>2021-09-05T10:12:12Z</time>
      </trkpt>
      <trkpt lat="42.628665" lon="0.456490">
        <ele>2377.000000</ele>
        <time>2021-09-05T10:12:13Z</time>
      </trkpt>
      <trkpt lat="42.628665" lon="0.456482">
        <ele>2376.000000</ele>
        <time>2021-09-05T10:12:14Z</time>
      </trkpt>
      <trkpt lat="42.628663" lon="0.456475">
        <ele>2376.000000</ele>
        <time>2021-09-05T10:12:15Z</time>
      </trkpt>
      <trkpt lat="42.628660" lon="0.456468">
        <ele>2376.000000</ele>
        <time>2021-09-05T10:12:16Z</time>
      </trkpt>
      <trkpt lat="42.628658" lon="0.456463">
        <ele>2376.000000</ele>
        <time>2021-09-05T10:12:17Z</time>
      </trkpt>
      <trkpt lat="42.628656" lon="0.456460">
        <ele>2376.000000</ele>
        <time>2021-09-05T10:12:18Z</time>
      </trkpt>
      <trkpt lat="42.628648" lon="0.456462">
        <ele>2376.000000</ele>
        <time>2021-09-05T10:12:19Z</time>
      </trkpt>
      <trkpt lat="42.628643" lon="0.456463">
        <ele>2375.000000</ele>
        <time>2021-09-05T10:12:20Z</time>
      </trkpt>
      <trkpt lat="42.628638" lon="0.456465">
        <ele>2375.000000</ele>
        <time>2021-09-05T10:12:21Z</time>
      </trkpt>
      <trkpt lat="42.628632" lon="0.456465">
        <ele>2375.000000</ele>
        <time>2021-09-05T10:12:23Z</time>
      </trkpt>
      <trkpt lat="42.628627" lon="0.456462">
        <ele>2375.000000</ele>
        <time>2021-09-05T10:12:23Z</time>
      </trkpt>
      <trkpt lat="42.628625" lon="0.456460">
        <ele>2375.000000</ele>
        <time>2021-09-05T10:12:24Z</time>
      </trkpt>
      <trkpt lat="42.628628" lon="0.456462">
        <ele>2375.000000</ele>
        <time>2021-09-05T10:12:25Z</time>
      </trkpt>
      <trkpt lat="42.628630" lon="0.456465">
        <ele>2375.000000</ele>
        <time>2021-09-05T10:12:26Z</time>
      </trkpt>
      <trkpt lat="42.628630" lon="0.456468">
        <ele>2375.000000</ele>
        <time>2021-09-05T10:12:27Z</time>
      </trkpt>
      <trkpt lat="42.628630" lon="0.456487">
        <ele>2375.000000</ele>
        <time>2021-09-05T10:12:28Z</time>
      </trkpt>
      <trkpt lat="42.628630" lon="0.456497">
        <ele>2375.000000</ele>
        <time>2021-09-05T10:12:29Z</time>
      </trkpt>
      <trkpt lat="42.628632" lon="0.456500">
        <ele>2375.000000</ele>
        <time>2021-09-05T10:12:30Z</time>
      </trkpt>
      <trkpt lat="42.628635" lon="0.456510">
        <ele>2375.000000</ele>
        <time>2021-09-05T10:12:31Z</time>
      </trkpt>
      <trkpt lat="42.628637" lon="0.456517">
        <ele>2376.000000</ele>
        <time>2021-09-05T10:12:32Z</time>
      </trkpt>
      <trkpt lat="42.628638" lon="0.456525">
        <ele>2376.000000</ele>
        <time>2021-09-05T10:12:33Z</time>
      </trkpt>
      <trkpt lat="42.628638" lon="0.456533">
        <ele>2376.000000</ele>
        <time>2021-09-05T10:12:34Z</time>
      </trkpt>
      <trkpt lat="42.628633" lon="0.456538">
        <ele>2376.000000</ele>
        <time>2021-09-05T10:12:36Z</time>
      </trkpt>
      <trkpt lat="42.628630" lon="0.456543">
        <ele>2376.000000</ele>
        <time>2021-09-05T10:12:37Z</time>
      </trkpt>
      <trkpt lat="42.628625" lon="0.456543">
        <ele>2376.000000</ele>
        <time>2021-09-05T10:12:38Z</time>
      </trkpt>
      <trkpt lat="42.628618" lon="0.456545">
        <ele>2376.000000</ele>
        <time>2021-09-05T10:12:39Z</time>
      </trkpt>
      <trkpt lat="42.628612" lon="0.456548">
        <ele>2376.000000</ele>
        <time>2021-09-05T10:12:40Z</time>
      </trkpt>
      <trkpt lat="42.628610" lon="0.456547">
        <ele>2375.000000</ele>
        <time>2021-09-05T10:12:41Z</time>
      </trkpt>
      <trkpt lat="42.628603" lon="0.456547">
        <ele>2375.000000</ele>
        <time>2021-09-05T10:12:42Z</time>
      </trkpt>
      <trkpt lat="42.628595" lon="0.456542">
        <ele>2374.000000</ele>
        <time>2021-09-05T10:12:43Z</time>
      </trkpt>
      <trkpt lat="42.628588" lon="0.456543">
        <ele>2374.000000</ele>
        <time>2021-09-05T10:12:44Z</time>
      </trkpt>
      <trkpt lat="42.628582" lon="0.456542">
        <ele>2374.000000</ele>
        <time>2021-09-05T10:12:45Z</time>
      </trkpt>
      <trkpt lat="42.628575" lon="0.456540">
        <ele>2374.000000</ele>
        <time>2021-09-05T10:12:47Z</time>
      </trkpt>
      <trkpt lat="42.628575" lon="0.456533">
        <ele>2373.000000</ele>
        <time>2021-09-05T10:12:47Z</time>
      </trkpt>
      <trkpt lat="42.628572" lon="0.456527">
        <ele>2373.000000</ele>
        <time>2021-09-05T10:12:48Z</time>
      </trkpt>
      <trkpt lat="42.628570" lon="0.456523">
        <ele>2372.000000</ele>
        <time>2021-09-05T10:12:50Z</time>
      </trkpt>
      <trkpt lat="42.628567" lon="0.456520">
        <ele>2372.000000</ele>
        <time>2021-09-05T10:12:51Z</time>
      </trkpt>
      <trkpt lat="42.628565" lon="0.456518">
        <ele>2371.000000</ele>
        <time>2021-09-05T10:12:52Z</time>
      </trkpt>
      <trkpt lat="42.628568" lon="0.456515">
        <ele>2371.000000</ele>
        <time>2021-09-05T10:12:53Z</time>
      </trkpt>
      <trkpt lat="42.628572" lon="0.456517">
        <ele>2371.000000</ele>
        <time>2021-09-05T10:12:54Z</time>
      </trkpt>
      <trkpt lat="42.628572" lon="0.456527">
        <ele>2371.000000</ele>
        <time>2021-09-05T10:12:55Z</time>
      </trkpt>
      <trkpt lat="42.628573" lon="0.456537">
        <ele>2371.000000</ele>
        <time>2021-09-05T10:12:56Z</time>
      </trkpt>
      <trkpt lat="42.628575" lon="0.456542">
        <ele>2371.000000</ele>
        <time>2021-09-05T10:12:57Z</time>
      </trkpt>
      <trkpt lat="42.628573" lon="0.456545">
        <ele>2371.000000</ele>
        <time>2021-09-05T10:12:58Z</time>
      </trkpt>
      <trkpt lat="42.628573" lon="0.456552">
        <ele>2371.000000</ele>
        <time>2021-09-05T10:12:59Z</time>
      </trkpt>
      <trkpt lat="42.628573" lon="0.456555">
        <ele>2371.000000</ele>
        <time>2021-09-05T10:13:00Z</time>
      </trkpt>
      <trkpt lat="42.628575" lon="0.456558">
        <ele>2371.000000</ele>
        <time>2021-09-05T10:13:01Z</time>
      </trkpt>
      <trkpt lat="42.628575" lon="0.456567">
        <ele>2371.000000</ele>
        <time>2021-09-05T10:13:02Z</time>
      </trkpt>
      <trkpt lat="42.628576" lon="0.456573">
        <ele>2371.000000</ele>
        <time>2021-09-05T10:13:03Z</time>
      </trkpt>
      <trkpt lat="42.628578" lon="0.456580">
        <ele>2371.000000</ele>
        <time>2021-09-05T10:13:04Z</time>
      </trkpt>
      <trkpt lat="42.628577" lon="0.456592">
        <ele>2371.000000</ele>
        <time>2021-09-05T10:13:05Z</time>
      </trkpt>
      <trkpt lat="42.628578" lon="0.456600">
        <ele>2371.000000</ele>
        <time>2021-09-05T10:13:07Z</time>
      </trkpt>
      <trkpt lat="42.628578" lon="0.456608">
        <ele>2371.000000</ele>
        <time>2021-09-05T10:13:07Z</time>
      </trkpt>
      <trkpt lat="42.628578" lon="0.456620">
        <ele>2371.000000</ele>
        <time>2021-09-05T10:13:08Z</time>
      </trkpt>
      <trkpt lat="42.628579" lon="0.456630">
        <ele>2371.000000</ele>
        <time>2021-09-05T10:13:09Z</time>
      </trkpt>
      <trkpt lat="42.628578" lon="0.456640">
        <ele>2371.000000</ele>
        <time>2021-09-05T10:13:10Z</time>
      </trkpt>
      <trkpt lat="42.628577" lon="0.456647">
        <ele>2371.000000</ele>
        <time>2021-09-05T10:13:11Z</time>
      </trkpt>
      <trkpt lat="42.628577" lon="0.456655">
        <ele>2371.000000</ele>
        <time>2021-09-05T10:13:12Z</time>
      </trkpt>
      <trkpt lat="42.628575" lon="0.456668">
        <ele>2371.000000</ele>
        <time>2021-09-05T10:13:13Z</time>
      </trkpt>
      <trkpt lat="42.628572" lon="0.456680">
        <ele>2371.000000</ele>
        <time>2021-09-05T10:13:14Z</time>
      </trkpt>
      <trkpt lat="42.628570" lon="0.456690">
        <ele>2371.000000</ele>
        <time>2021-09-05T10:13:15Z</time>
      </trkpt>
      <trkpt lat="42.628568" lon="0.456698">
        <ele>2371.000000</ele>
        <time>2021-09-05T10:13:16Z</time>
      </trkpt>
      <trkpt lat="42.628568" lon="0.456707">
        <ele>2371.000000</ele>
        <time>2021-09-05T10:13:17Z</time>
      </trkpt>
      <trkpt lat="42.628568" lon="0.456713">
        <ele>2371.000000</ele>
        <time>2021-09-05T10:13:18Z</time>
      </trkpt>
      <trkpt lat="42.628568" lon="0.456725">
        <ele>2371.000000</ele>
        <time>2021-09-05T10:13:20Z</time>
      </trkpt>
      <trkpt lat="42.628569" lon="0.456738">
        <ele>2371.000000</ele>
        <time>2021-09-05T10:13:21Z</time>
      </trkpt>
      <trkpt lat="42.628571" lon="0.456745">
        <ele>2371.000000</ele>
        <time>2021-09-05T10:13:22Z</time>
      </trkpt>
      <trkpt lat="42.628572" lon="0.456755">
        <ele>2371.000000</ele>
        <time>2021-09-05T10:13:23Z</time>
      </trkpt>
      <trkpt lat="42.628580" lon="0.456762">
        <ele>2371.000000</ele>
        <time>2021-09-05T10:13:24Z</time>
      </trkpt>
      <trkpt lat="42.628583" lon="0.456765">
        <ele>2371.000000</ele>
        <time>2021-09-05T10:13:25Z</time>
      </trkpt>
      <trkpt lat="42.628587" lon="0.456767">
        <ele>2371.000000</ele>
        <time>2021-09-05T10:13:26Z</time>
      </trkpt>
      <trkpt lat="42.628588" lon="0.456772">
        <ele>2371.000000</ele>
        <time>2021-09-05T10:13:27Z</time>
      </trkpt>
      <trkpt lat="42.628590" lon="0.456775">
        <ele>2369.000000</ele>
        <time>2021-09-05T10:13:28Z</time>
      </trkpt>
      <trkpt lat="42.628591" lon="0.456777">
        <ele>2369.000000</ele>
        <time>2021-09-05T10:13:29Z</time>
      </trkpt>
      <trkpt lat="42.628591" lon="0.456775">
        <ele>2369.000000</ele>
        <time>2021-09-05T10:13:33Z</time>
      </trkpt>
      <trkpt lat="42.628591" lon="0.456773">
        <ele>2369.000000</ele>
        <time>2021-09-05T10:13:34Z</time>
      </trkpt>
      <trkpt lat="42.628595" lon="0.456780">
        <ele>2369.000000</ele>
        <time>2021-09-05T10:13:35Z</time>
      </trkpt>
      <trkpt lat="42.628594" lon="0.456788">
        <ele>2369.000000</ele>
        <time>2021-09-05T10:13:36Z</time>
      </trkpt>
      <trkpt lat="42.628585" lon="0.456795">
        <ele>2369.000000</ele>
        <time>2021-09-05T10:13:37Z</time>
      </trkpt>
      <trkpt lat="42.628577" lon="0.456802">
        <ele>2368.000000</ele>
        <time>2021-09-05T10:13:38Z</time>
      </trkpt>
      <trkpt lat="42.628565" lon="0.456807">
        <ele>2368.000000</ele>
        <time>2021-09-05T10:13:39Z</time>
      </trkpt>
      <trkpt lat="42.628550" lon="0.456805">
        <ele>2367.000000</ele>
        <time>2021-09-05T10:13:40Z</time>
      </trkpt>
      <trkpt lat="42.628542" lon="0.456802">
        <ele>2367.000000</ele>
        <time>2021-09-05T10:13:41Z</time>
      </trkpt>
      <trkpt lat="42.628532" lon="0.456797">
        <ele>2366.000000</ele>
        <time>2021-09-05T10:13:42Z</time>
      </trkpt>
      <trkpt lat="42.628520" lon="0.456797">
        <ele>2366.000000</ele>
        <time>2021-09-05T10:13:43Z</time>
      </trkpt>
      <trkpt lat="42.628510" lon="0.456797">
        <ele>2365.000000</ele>
        <time>2021-09-05T10:13:44Z</time>
      </trkpt>
      <trkpt lat="42.628503" lon="0.456795">
        <ele>2365.000000</ele>
        <time>2021-09-05T10:13:45Z</time>
      </trkpt>
      <trkpt lat="42.628495" lon="0.456797">
        <ele>2364.000000</ele>
        <time>2021-09-05T10:13:46Z</time>
      </trkpt>
      <trkpt lat="42.628492" lon="0.456798">
        <ele>2364.000000</ele>
        <time>2021-09-05T10:13:47Z</time>
      </trkpt>
      <trkpt lat="42.628485" lon="0.456801">
        <ele>2364.000000</ele>
        <time>2021-09-05T10:13:48Z</time>
      </trkpt>
      <trkpt lat="42.628475" lon="0.456802">
        <ele>2363.000000</ele>
        <time>2021-09-05T10:13:49Z</time>
      </trkpt>
      <trkpt lat="42.628468" lon="0.456803">
        <ele>2363.000000</ele>
        <time>2021-09-05T10:13:50Z</time>
      </trkpt>
      <trkpt lat="42.628457" lon="0.456802">
        <ele>2363.000000</ele>
        <time>2021-09-05T10:13:52Z</time>
      </trkpt>
      <trkpt lat="42.628452" lon="0.456804">
        <ele>2363.000000</ele>
        <time>2021-09-05T10:13:52Z</time>
      </trkpt>
      <trkpt lat="42.628448" lon="0.456806">
        <ele>2362.000000</ele>
        <time>2021-09-05T10:13:53Z</time>
      </trkpt>
      <trkpt lat="42.628440" lon="0.456808">
        <ele>2362.000000</ele>
        <time>2021-09-05T10:13:54Z</time>
      </trkpt>
      <trkpt lat="42.628433" lon="0.456811">
        <ele>2362.000000</ele>
        <time>2021-09-05T10:13:55Z</time>
      </trkpt>
      <trkpt lat="42.628428" lon="0.456813">
        <ele>2362.000000</ele>
        <time>2021-09-05T10:13:56Z</time>
      </trkpt>
      <trkpt lat="42.628420" lon="0.456816">
        <ele>2361.000000</ele>
        <time>2021-09-05T10:13:58Z</time>
      </trkpt>
      <trkpt lat="42.628415" lon="0.456818">
        <ele>2361.000000</ele>
        <time>2021-09-05T10:14:01Z</time>
      </trkpt>
      <trkpt lat="42.628410" lon="0.456821">
        <ele>2361.000000</ele>
        <time>2021-09-05T10:14:02Z</time>
      </trkpt>
      <trkpt lat="42.628405" lon="0.456825">
        <ele>2361.000000</ele>
        <time>2021-09-05T10:14:03Z</time>
      </trkpt>
      <trkpt lat="42.628400" lon="0.456830">
        <ele>2361.000000</ele>
        <time>2021-09-05T10:14:04Z</time>
      </trkpt>
      <trkpt lat="42.628400" lon="0.456853">
        <ele>2361.000000</ele>
        <time>2021-09-05T10:14:05Z</time>
      </trkpt>
      <trkpt lat="42.628395" lon="0.456863">
        <ele>2361.000000</ele>
        <time>2021-09-05T10:14:06Z</time>
      </trkpt>
      <trkpt lat="42.628398" lon="0.456872">
        <ele>2361.000000</ele>
        <time>2021-09-05T10:14:07Z</time>
      </trkpt>
      <trkpt lat="42.628403" lon="0.456878">
        <ele>2361.000000</ele>
        <time>2021-09-05T10:14:08Z</time>
      </trkpt>
      <trkpt lat="42.628410" lon="0.456887">
        <ele>2361.000000</ele>
        <time>2021-09-05T10:14:09Z</time>
      </trkpt>
      <trkpt lat="42.628415" lon="0.456892">
        <ele>2361.000000</ele>
        <time>2021-09-05T10:14:10Z</time>
      </trkpt>
      <trkpt lat="42.628422" lon="0.456897">
        <ele>2361.000000</ele>
        <time>2021-09-05T10:14:11Z</time>
      </trkpt>
      <trkpt lat="42.628425" lon="0.456905">
        <ele>2361.000000</ele>
        <time>2021-09-05T10:14:12Z</time>
      </trkpt>
      <trkpt lat="42.628428" lon="0.456912">
        <ele>2361.000000</ele>
        <time>2021-09-05T10:14:13Z</time>
      </trkpt>
      <trkpt lat="42.628431" lon="0.456925">
        <ele>2362.000000</ele>
        <time>2021-09-05T10:14:14Z</time>
      </trkpt>
      <trkpt lat="42.628433" lon="0.456938">
        <ele>2362.000000</ele>
        <time>2021-09-05T10:14:16Z</time>
      </trkpt>
      <trkpt lat="42.628433" lon="0.456948">
        <ele>2362.000000</ele>
        <time>2021-09-05T10:14:16Z</time>
      </trkpt>
      <trkpt lat="42.628430" lon="0.456953">
        <ele>2362.000000</ele>
        <time>2021-09-05T10:14:17Z</time>
      </trkpt>
      <trkpt lat="42.628418" lon="0.456958">
        <ele>2362.000000</ele>
        <time>2021-09-05T10:14:18Z</time>
      </trkpt>
      <trkpt lat="42.628410" lon="0.456958">
        <ele>2362.000000</ele>
        <time>2021-09-05T10:14:19Z</time>
      </trkpt>
      <trkpt lat="42.628402" lon="0.456958">
        <ele>2362.000000</ele>
        <time>2021-09-05T10:14:20Z</time>
      </trkpt>
      <trkpt lat="42.628393" lon="0.456960">
        <ele>2361.000000</ele>
        <time>2021-09-05T10:14:21Z</time>
      </trkpt>
      <trkpt lat="42.628388" lon="0.456963">
        <ele>2361.000000</ele>
        <time>2021-09-05T10:14:22Z</time>
      </trkpt>
      <trkpt lat="42.628378" lon="0.456971">
        <ele>2361.000000</ele>
        <time>2021-09-05T10:14:23Z</time>
      </trkpt>
      <trkpt lat="42.628372" lon="0.456973">
        <ele>2360.000000</ele>
        <time>2021-09-05T10:14:24Z</time>
      </trkpt>
      <trkpt lat="42.628360" lon="0.456976">
        <ele>2360.000000</ele>
        <time>2021-09-05T10:14:25Z</time>
      </trkpt>
      <trkpt lat="42.628353" lon="0.456980">
        <ele>2360.000000</ele>
        <time>2021-09-05T10:14:26Z</time>
      </trkpt>
      <trkpt lat="42.628345" lon="0.456987">
        <ele>2359.000000</ele>
        <time>2021-09-05T10:14:27Z</time>
      </trkpt>
      <trkpt lat="42.628342" lon="0.456988">
        <ele>2359.000000</ele>
        <time>2021-09-05T10:14:28Z</time>
      </trkpt>
      <trkpt lat="42.628338" lon="0.456989">
        <ele>2359.000000</ele>
        <time>2021-09-05T10:14:29Z</time>
      </trkpt>
      <trkpt lat="42.628337" lon="0.456988">
        <ele>2358.000000</ele>
        <time>2021-09-05T10:14:30Z</time>
      </trkpt>
      <trkpt lat="42.628337" lon="0.456986">
        <ele>2358.000000</ele>
        <time>2021-09-05T10:14:31Z</time>
      </trkpt>
      <trkpt lat="42.628335" lon="0.456984">
        <ele>2358.000000</ele>
        <time>2021-09-05T10:14:32Z</time>
      </trkpt>
      <trkpt lat="42.628332" lon="0.456984">
        <ele>2358.000000</ele>
        <time>2021-09-05T10:14:33Z</time>
      </trkpt>
      <trkpt lat="42.628323" lon="0.456986">
        <ele>2358.000000</ele>
        <time>2021-09-05T10:14:34Z</time>
      </trkpt>
      <trkpt lat="42.628318" lon="0.456988">
        <ele>2358.000000</ele>
        <time>2021-09-05T10:14:35Z</time>
      </trkpt>
      <trkpt lat="42.628315" lon="0.456995">
        <ele>2358.000000</ele>
        <time>2021-09-05T10:14:36Z</time>
      </trkpt>
      <trkpt lat="42.628308" lon="0.457003">
        <ele>2358.000000</ele>
        <time>2021-09-05T10:14:37Z</time>
      </trkpt>
      <trkpt lat="42.628302" lon="0.457010">
        <ele>2358.000000</ele>
        <time>2021-09-05T10:14:39Z</time>
      </trkpt>
      <trkpt lat="42.628292" lon="0.457015">
        <ele>2358.000000</ele>
        <time>2021-09-05T10:14:39Z</time>
      </trkpt>
      <trkpt lat="42.628285" lon="0.457021">
        <ele>2358.000000</ele>
        <time>2021-09-05T10:14:40Z</time>
      </trkpt>
      <trkpt lat="42.628277" lon="0.457027">
        <ele>2357.000000</ele>
        <time>2021-09-05T10:14:41Z</time>
      </trkpt>
      <trkpt lat="42.628268" lon="0.457031">
        <ele>2357.000000</ele>
        <time>2021-09-05T10:14:42Z</time>
      </trkpt>
      <trkpt lat="42.628255" lon="0.457038">
        <ele>2357.000000</ele>
        <time>2021-09-05T10:14:43Z</time>
      </trkpt>
      <trkpt lat="42.628242" lon="0.457040">
        <ele>2357.000000</ele>
        <time>2021-09-05T10:14:44Z</time>
      </trkpt>
      <trkpt lat="42.628230" lon="0.457037">
        <ele>2356.000000</ele>
        <time>2021-09-05T10:14:45Z</time>
      </trkpt>
      <trkpt lat="42.628220" lon="0.457035">
        <ele>2356.000000</ele>
        <time>2021-09-05T10:14:46Z</time>
      </trkpt>
      <trkpt lat="42.628205" lon="0.457033">
        <ele>2355.000000</ele>
        <time>2021-09-05T10:14:47Z</time>
      </trkpt>
      <trkpt lat="42.628192" lon="0.457032">
        <ele>2355.000000</ele>
        <time>2021-09-05T10:14:48Z</time>
      </trkpt>
      <trkpt lat="42.628180" lon="0.457030">
        <ele>2354.000000</ele>
        <time>2021-09-05T10:14:49Z</time>
      </trkpt>
      <trkpt lat="42.628172" lon="0.457030">
        <ele>2354.000000</ele>
        <time>2021-09-05T10:14:50Z</time>
      </trkpt>
      <trkpt lat="42.628158" lon="0.457032">
        <ele>2353.000000</ele>
        <time>2021-09-05T10:14:51Z</time>
      </trkpt>
      <trkpt lat="42.628148" lon="0.457035">
        <ele>2353.000000</ele>
        <time>2021-09-05T10:14:52Z</time>
      </trkpt>
      <trkpt lat="42.628133" lon="0.457035">
        <ele>2353.000000</ele>
        <time>2021-09-05T10:14:53Z</time>
      </trkpt>
      <trkpt lat="42.628127" lon="0.457035">
        <ele>2353.000000</ele>
        <time>2021-09-05T10:14:54Z</time>
      </trkpt>
      <trkpt lat="42.628118" lon="0.457034">
        <ele>2352.000000</ele>
        <time>2021-09-05T10:14:55Z</time>
      </trkpt>
      <trkpt lat="42.628107" lon="0.457035">
        <ele>2352.000000</ele>
        <time>2021-09-05T10:14:56Z</time>
      </trkpt>
      <trkpt lat="42.628102" lon="0.457036">
        <ele>2352.000000</ele>
        <time>2021-09-05T10:14:58Z</time>
      </trkpt>
      <trkpt lat="42.628092" lon="0.457036">
        <ele>2351.000000</ele>
        <time>2021-09-05T10:14:58Z</time>
      </trkpt>
      <trkpt lat="42.628083" lon="0.457038">
        <ele>2351.000000</ele>
        <time>2021-09-05T10:14:59Z</time>
      </trkpt>
      <trkpt lat="42.628075" lon="0.457039">
        <ele>2351.000000</ele>
        <time>2021-09-05T10:15:00Z</time>
      </trkpt>
      <trkpt lat="42.628067" lon="0.457039">
        <ele>2350.000000</ele>
        <time>2021-09-05T10:15:01Z</time>
      </trkpt>
      <trkpt lat="42.628058" lon="0.457041">
        <ele>2350.000000</ele>
        <time>2021-09-05T10:15:02Z</time>
      </trkpt>
      <trkpt lat="42.628042" lon="0.457042">
        <ele>2350.000000</ele>
        <time>2021-09-05T10:15:03Z</time>
      </trkpt>
      <trkpt lat="42.628032" lon="0.457043">
        <ele>2350.000000</ele>
        <time>2021-09-05T10:15:04Z</time>
      </trkpt>
      <trkpt lat="42.628023" lon="0.457045">
        <ele>2350.000000</ele>
        <time>2021-09-05T10:15:05Z</time>
      </trkpt>
      <trkpt lat="42.628017" lon="0.457044">
        <ele>2350.000000</ele>
        <time>2021-09-05T10:15:06Z</time>
      </trkpt>
      <trkpt lat="42.628008" lon="0.457045">
        <ele>2350.000000</ele>
        <time>2021-09-05T10:15:07Z</time>
      </trkpt>
      <trkpt lat="42.628002" lon="0.457045">
        <ele>2350.000000</ele>
        <time>2021-09-05T10:15:08Z</time>
      </trkpt>
      <trkpt lat="42.627997" lon="0.457045">
        <ele>2350.000000</ele>
        <time>2021-09-05T10:15:09Z</time>
      </trkpt>
      <trkpt lat="42.627982" lon="0.457046">
        <ele>2349.000000</ele>
        <time>2021-09-05T10:15:10Z</time>
      </trkpt>
      <trkpt lat="42.627968" lon="0.457048">
        <ele>2349.000000</ele>
        <time>2021-09-05T10:15:11Z</time>
      </trkpt>
      <trkpt lat="42.627955" lon="0.457050">
        <ele>2349.000000</ele>
        <time>2021-09-05T10:15:12Z</time>
      </trkpt>
      <trkpt lat="42.627945" lon="0.457049">
        <ele>2349.000000</ele>
        <time>2021-09-05T10:15:13Z</time>
      </trkpt>
      <trkpt lat="42.627938" lon="0.457049">
        <ele>2349.000000</ele>
        <time>2021-09-05T10:15:14Z</time>
      </trkpt>
      <trkpt lat="42.627930" lon="0.457048">
        <ele>2349.000000</ele>
        <time>2021-09-05T10:15:15Z</time>
      </trkpt>
      <trkpt lat="42.627917" lon="0.457028">
        <ele>2349.000000</ele>
        <time>2021-09-05T10:15:16Z</time>
      </trkpt>
      <trkpt lat="42.627907" lon="0.457018">
        <ele>2349.000000</ele>
        <time>2021-09-05T10:15:17Z</time>
      </trkpt>
      <trkpt lat="42.627900" lon="0.457013">
        <ele>2349.000000</ele>
        <time>2021-09-05T10:15:18Z</time>
      </trkpt>
      <trkpt lat="42.627892" lon="0.457008">
        <ele>2349.000000</ele>
        <time>2021-09-05T10:15:19Z</time>
      </trkpt>
      <trkpt lat="42.627885" lon="0.457006">
        <ele>2349.000000</ele>
        <time>2021-09-05T10:15:20Z</time>
      </trkpt>
      <trkpt lat="42.627880" lon="0.457008">
        <ele>2348.000000</ele>
        <time>2021-09-05T10:15:22Z</time>
      </trkpt>
      <trkpt lat="42.627872" lon="0.457009">
        <ele>2348.000000</ele>
        <time>2021-09-05T10:15:22Z</time>
      </trkpt>
      <trkpt lat="42.627865" lon="0.457009">
        <ele>2348.000000</ele>
        <time>2021-09-05T10:15:23Z</time>
      </trkpt>
      <trkpt lat="42.627860" lon="0.457009">
        <ele>2348.000000</ele>
        <time>2021-09-05T10:15:24Z</time>
      </trkpt>
      <trkpt lat="42.627855" lon="0.457007">
        <ele>2348.000000</ele>
        <time>2021-09-05T10:15:25Z</time>
      </trkpt>
      <trkpt lat="42.627850" lon="0.456997">
        <ele>2348.000000</ele>
        <time>2021-09-05T10:15:26Z</time>
      </trkpt>
      <trkpt lat="42.627848" lon="0.456988">
        <ele>2347.000000</ele>
        <time>2021-09-05T10:15:27Z</time>
      </trkpt>
      <trkpt lat="42.627845" lon="0.456975">
        <ele>2347.000000</ele>
        <time>2021-09-05T10:15:28Z</time>
      </trkpt>
      <trkpt lat="42.627843" lon="0.456965">
        <ele>2347.000000</ele>
        <time>2021-09-05T10:15:29Z</time>
      </trkpt>
      <trkpt lat="42.627842" lon="0.456957">
        <ele>2347.000000</ele>
        <time>2021-09-05T10:15:30Z</time>
      </trkpt>
      <trkpt lat="42.627838" lon="0.456945">
        <ele>2347.000000</ele>
        <time>2021-09-05T10:15:31Z</time>
      </trkpt>
      <trkpt lat="42.627835" lon="0.456937">
        <ele>2347.000000</ele>
        <time>2021-09-05T10:15:32Z</time>
      </trkpt>
      <trkpt lat="42.627829" lon="0.456928">
        <ele>2347.000000</ele>
        <time>2021-09-05T10:15:33Z</time>
      </trkpt>
      <trkpt lat="42.627824" lon="0.456925">
        <ele>2347.000000</ele>
        <time>2021-09-05T10:15:34Z</time>
      </trkpt>
      <trkpt lat="42.627812" lon="0.456925">
        <ele>2347.000000</ele>
        <time>2021-09-05T10:15:35Z</time>
      </trkpt>
      <trkpt lat="42.627807" lon="0.456925">
        <ele>2347.000000</ele>
        <time>2021-09-05T10:15:36Z</time>
      </trkpt>
      <trkpt lat="42.627805" lon="0.456922">
        <ele>2347.000000</ele>
        <time>2021-09-05T10:15:37Z</time>
      </trkpt>
      <trkpt lat="42.627802" lon="0.456923">
        <ele>2347.000000</ele>
        <time>2021-09-05T10:15:38Z</time>
      </trkpt>
      <trkpt lat="42.627793" lon="0.456919">
        <ele>2347.000000</ele>
        <time>2021-09-05T10:15:39Z</time>
      </trkpt>
      <trkpt lat="42.627788" lon="0.456916">
        <ele>2347.000000</ele>
        <time>2021-09-05T10:15:40Z</time>
      </trkpt>
      <trkpt lat="42.627782" lon="0.456911">
        <ele>2347.000000</ele>
        <time>2021-09-05T10:15:41Z</time>
      </trkpt>
      <trkpt lat="42.627778" lon="0.456907">
        <ele>2347.000000</ele>
        <time>2021-09-05T10:15:42Z</time>
      </trkpt>
      <trkpt lat="42.627773" lon="0.456902">
        <ele>2347.000000</ele>
        <time>2021-09-05T10:15:43Z</time>
      </trkpt>
      <trkpt lat="42.627773" lon="0.456892">
        <ele>2347.000000</ele>
        <time>2021-09-05T10:15:44Z</time>
      </trkpt>
      <trkpt lat="42.627772" lon="0.456895">
        <ele>2347.000000</ele>
        <time>2021-09-05T10:15:46Z</time>
      </trkpt>
      <trkpt lat="42.627770" lon="0.456897">
        <ele>2347.000000</ele>
        <time>2021-09-05T10:15:47Z</time>
      </trkpt>
      <trkpt lat="42.627767" lon="0.456898">
        <ele>2347.000000</ele>
        <time>2021-09-05T10:15:48Z</time>
      </trkpt>
      <trkpt lat="42.627760" lon="0.456903">
        <ele>2347.000000</ele>
        <time>2021-09-05T10:15:49Z</time>
      </trkpt>
      <trkpt lat="42.627757" lon="0.456906">
        <ele>2347.000000</ele>
        <time>2021-09-05T10:15:50Z</time>
      </trkpt>
      <trkpt lat="42.627747" lon="0.456907">
        <ele>2347.000000</ele>
        <time>2021-09-05T10:15:51Z</time>
      </trkpt>
      <trkpt lat="42.627742" lon="0.456903">
        <ele>2347.000000</ele>
        <time>2021-09-05T10:15:52Z</time>
      </trkpt>
      <trkpt lat="42.627733" lon="0.456900">
        <ele>2347.000000</ele>
        <time>2021-09-05T10:15:53Z</time>
      </trkpt>
      <trkpt lat="42.627730" lon="0.456898">
        <ele>2347.000000</ele>
        <time>2021-09-05T10:15:54Z</time>
      </trkpt>
      <trkpt lat="42.627728" lon="0.456901">
        <ele>2347.000000</ele>
        <time>2021-09-05T10:15:56Z</time>
      </trkpt>
      <trkpt lat="42.627728" lon="0.456903">
        <ele>2347.000000</ele>
        <time>2021-09-05T10:15:57Z</time>
      </trkpt>
      <trkpt lat="42.627727" lon="0.456905">
        <ele>2347.000000</ele>
        <time>2021-09-05T10:15:58Z</time>
      </trkpt>
      <trkpt lat="42.627725" lon="0.456908">
        <ele>2347.000000</ele>
        <time>2021-09-05T10:16:00Z</time>
      </trkpt>
      <trkpt lat="42.627725" lon="0.456913">
        <ele>2347.000000</ele>
        <time>2021-09-05T10:16:00Z</time>
      </trkpt>
      <trkpt lat="42.627723" lon="0.456915">
        <ele>2347.000000</ele>
        <time>2021-09-05T10:16:01Z</time>
      </trkpt>
      <trkpt lat="42.627719" lon="0.456918">
        <ele>2347.000000</ele>
        <time>2021-09-05T10:16:02Z</time>
      </trkpt>
      <trkpt lat="42.627714" lon="0.456922">
        <ele>2347.000000</ele>
        <time>2021-09-05T10:16:03Z</time>
      </trkpt>
      <trkpt lat="42.627703" lon="0.456920">
        <ele>2347.000000</ele>
        <time>2021-09-05T10:16:05Z</time>
      </trkpt>
      <trkpt lat="42.627698" lon="0.456922">
        <ele>2347.000000</ele>
        <time>2021-09-05T10:16:05Z</time>
      </trkpt>
      <trkpt lat="42.627692" lon="0.456922">
        <ele>2347.000000</ele>
        <time>2021-09-05T10:16:06Z</time>
      </trkpt>
      <trkpt lat="42.627687" lon="0.456923">
        <ele>2347.000000</ele>
        <time>2021-09-05T10:16:07Z</time>
      </trkpt>
      <trkpt lat="42.627683" lon="0.456925">
        <ele>2347.000000</ele>
        <time>2021-09-05T10:16:08Z</time>
      </trkpt>
      <trkpt lat="42.627682" lon="0.456928">
        <ele>2347.000000</ele>
        <time>2021-09-05T10:16:09Z</time>
      </trkpt>
      <trkpt lat="42.627673" lon="0.456938">
        <ele>2347.000000</ele>
        <time>2021-09-05T10:16:10Z</time>
      </trkpt>
      <trkpt lat="42.627665" lon="0.456950">
        <ele>2347.000000</ele>
        <time>2021-09-05T10:16:11Z</time>
      </trkpt>
      <trkpt lat="42.627662" lon="0.456956">
        <ele>2347.000000</ele>
        <time>2021-09-05T10:16:12Z</time>
      </trkpt>
      <trkpt lat="42.627655" lon="0.456966">
        <ele>2347.000000</ele>
        <time>2021-09-05T10:16:13Z</time>
      </trkpt>
      <trkpt lat="42.627650" lon="0.456974">
        <ele>2347.000000</ele>
        <time>2021-09-05T10:16:14Z</time>
      </trkpt>
      <trkpt lat="42.627650" lon="0.456973">
        <ele>2347.000000</ele>
        <time>2021-09-05T10:16:16Z</time>
      </trkpt>
      <trkpt lat="42.627648" lon="0.456974">
        <ele>2347.000000</ele>
        <time>2021-09-05T10:16:17Z</time>
      </trkpt>
      <trkpt lat="42.627645" lon="0.456977">
        <ele>2345.000000</ele>
        <time>2021-09-05T10:16:18Z</time>
      </trkpt>
      <trkpt lat="42.627643" lon="0.456978">
        <ele>2345.000000</ele>
        <time>2021-09-05T10:16:19Z</time>
      </trkpt>
      <trkpt lat="42.627638" lon="0.456983">
        <ele>2345.000000</ele>
        <time>2021-09-05T10:16:23Z</time>
      </trkpt>
      <trkpt lat="42.627633" lon="0.456989">
        <ele>2345.000000</ele>
        <time>2021-09-05T10:16:24Z</time>
      </trkpt>
      <trkpt lat="42.627627" lon="0.456996">
        <ele>2345.000000</ele>
        <time>2021-09-05T10:16:25Z</time>
      </trkpt>
      <trkpt lat="42.627623" lon="0.457000">
        <ele>2345.000000</ele>
        <time>2021-09-05T10:16:26Z</time>
      </trkpt>
      <trkpt lat="42.627618" lon="0.457006">
        <ele>2344.000000</ele>
        <time>2021-09-05T10:16:27Z</time>
      </trkpt>
      <trkpt lat="42.627612" lon="0.457016">
        <ele>2344.000000</ele>
        <time>2021-09-05T10:16:29Z</time>
      </trkpt>
      <trkpt lat="42.627602" lon="0.457030">
        <ele>2344.000000</ele>
        <time>2021-09-05T10:16:29Z</time>
      </trkpt>
      <trkpt lat="42.627593" lon="0.457040">
        <ele>2344.000000</ele>
        <time>2021-09-05T10:16:30Z</time>
      </trkpt>
      <trkpt lat="42.627590" lon="0.457044">
        <ele>2344.000000</ele>
        <time>2021-09-05T10:16:31Z</time>
      </trkpt>
      <trkpt lat="42.627580" lon="0.457058">
        <ele>2344.000000</ele>
        <time>2021-09-05T10:16:32Z</time>
      </trkpt>
      <trkpt lat="42.627573" lon="0.457072">
        <ele>2344.000000</ele>
        <time>2021-09-05T10:16:33Z</time>
      </trkpt>
      <trkpt lat="42.627570" lon="0.457083">
        <ele>2344.000000</ele>
        <time>2021-09-05T10:16:34Z</time>
      </trkpt>
      <trkpt lat="42.627563" lon="0.457100">
        <ele>2344.000000</ele>
        <time>2021-09-05T10:16:35Z</time>
      </trkpt>
      <trkpt lat="42.627555" lon="0.457117">
        <ele>2344.000000</ele>
        <time>2021-09-05T10:16:36Z</time>
      </trkpt>
      <trkpt lat="42.627545" lon="0.457140">
        <ele>2344.000000</ele>
        <time>2021-09-05T10:16:37Z</time>
      </trkpt>
      <trkpt lat="42.627538" lon="0.457155">
        <ele>2344.000000</ele>
        <time>2021-09-05T10:16:38Z</time>
      </trkpt>
      <trkpt lat="42.627534" lon="0.457167">
        <ele>2344.000000</ele>
        <time>2021-09-05T10:16:39Z</time>
      </trkpt>
      <trkpt lat="42.627529" lon="0.457180">
        <ele>2344.000000</ele>
        <time>2021-09-05T10:16:40Z</time>
      </trkpt>
      <trkpt lat="42.627524" lon="0.457197">
        <ele>2344.000000</ele>
        <time>2021-09-05T10:16:41Z</time>
      </trkpt>
      <trkpt lat="42.627519" lon="0.457210">
        <ele>2344.000000</ele>
        <time>2021-09-05T10:16:42Z</time>
      </trkpt>
      <trkpt lat="42.627516" lon="0.457222">
        <ele>2344.000000</ele>
        <time>2021-09-05T10:16:43Z</time>
      </trkpt>
      <trkpt lat="42.627513" lon="0.457233">
        <ele>2344.000000</ele>
        <time>2021-09-05T10:16:44Z</time>
      </trkpt>
      <trkpt lat="42.627509" lon="0.457250">
        <ele>2344.000000</ele>
        <time>2021-09-05T10:16:45Z</time>
      </trkpt>
      <trkpt lat="42.627507" lon="0.457262">
        <ele>2345.000000</ele>
        <time>2021-09-05T10:16:46Z</time>
      </trkpt>
      <trkpt lat="42.627515" lon="0.457275">
        <ele>2345.000000</ele>
        <time>2021-09-05T10:16:47Z</time>
      </trkpt>
      <trkpt lat="42.627518" lon="0.457287">
        <ele>2345.000000</ele>
        <time>2021-09-05T10:16:48Z</time>
      </trkpt>
      <trkpt lat="42.627520" lon="0.457307">
        <ele>2345.000000</ele>
        <time>2021-09-05T10:16:49Z</time>
      </trkpt>
      <trkpt lat="42.627523" lon="0.457323">
        <ele>2345.000000</ele>
        <time>2021-09-05T10:16:51Z</time>
      </trkpt>
      <trkpt lat="42.627530" lon="0.457337">
        <ele>2345.000000</ele>
        <time>2021-09-05T10:16:51Z</time>
      </trkpt>
      <trkpt lat="42.627538" lon="0.457355">
        <ele>2346.000000</ele>
        <time>2021-09-05T10:16:52Z</time>
      </trkpt>
      <trkpt lat="42.627545" lon="0.457373">
        <ele>2346.000000</ele>
        <time>2021-09-05T10:16:53Z</time>
      </trkpt>
      <trkpt lat="42.627547" lon="0.457387">
        <ele>2346.000000</ele>
        <time>2021-09-05T10:16:54Z</time>
      </trkpt>
      <trkpt lat="42.627552" lon="0.457395">
        <ele>2347.000000</ele>
        <time>2021-09-05T10:16:55Z</time>
      </trkpt>
      <trkpt lat="42.627555" lon="0.457400">
        <ele>2347.000000</ele>
        <time>2021-09-05T10:16:56Z</time>
      </trkpt>
      <trkpt lat="42.627559" lon="0.457405">
        <ele>2347.000000</ele>
        <time>2021-09-05T10:16:57Z</time>
      </trkpt>
      <trkpt lat="42.627565" lon="0.457417">
        <ele>2348.000000</ele>
        <time>2021-09-05T10:16:58Z</time>
      </trkpt>
      <trkpt lat="42.627568" lon="0.457427">
        <ele>2348.000000</ele>
        <time>2021-09-05T10:16:59Z</time>
      </trkpt>
      <trkpt lat="42.627572" lon="0.457437">
        <ele>2348.000000</ele>
        <time>2021-09-05T10:17:00Z</time>
      </trkpt>
      <trkpt lat="42.627575" lon="0.457442">
        <ele>2348.000000</ele>
        <time>2021-09-05T10:17:01Z</time>
      </trkpt>
      <trkpt lat="42.627582" lon="0.457455">
        <ele>2349.000000</ele>
        <time>2021-09-05T10:17:02Z</time>
      </trkpt>
      <trkpt lat="42.627587" lon="0.457470">
        <ele>2349.000000</ele>
        <time>2021-09-05T10:17:03Z</time>
      </trkpt>
      <trkpt lat="42.627592" lon="0.457482">
        <ele>2349.000000</ele>
        <time>2021-09-05T10:17:04Z</time>
      </trkpt>
      <trkpt lat="42.627596" lon="0.457502">
        <ele>2350.000000</ele>
        <time>2021-09-05T10:17:05Z</time>
      </trkpt>
      <trkpt lat="42.627597" lon="0.457508">
        <ele>2350.000000</ele>
        <time>2021-09-05T10:17:06Z</time>
      </trkpt>
      <trkpt lat="42.627598" lon="0.457520">
        <ele>2350.000000</ele>
        <time>2021-09-05T10:17:07Z</time>
      </trkpt>
      <trkpt lat="42.627600" lon="0.457527">
        <ele>2350.000000</ele>
        <time>2021-09-05T10:17:08Z</time>
      </trkpt>
      <trkpt lat="42.627602" lon="0.457535">
        <ele>2350.000000</ele>
        <time>2021-09-05T10:17:09Z</time>
      </trkpt>
      <trkpt lat="42.627606" lon="0.457547">
        <ele>2350.000000</ele>
        <time>2021-09-05T10:17:10Z</time>
      </trkpt>
      <trkpt lat="42.627608" lon="0.457562">
        <ele>2351.000000</ele>
        <time>2021-09-05T10:17:11Z</time>
      </trkpt>
      <trkpt lat="42.627592" lon="0.457575">
        <ele>2351.000000</ele>
        <time>2021-09-05T10:17:13Z</time>
      </trkpt>
      <trkpt lat="42.627585" lon="0.457583">
        <ele>2351.000000</ele>
        <time>2021-09-05T10:17:13Z</time>
      </trkpt>
      <trkpt lat="42.627577" lon="0.457588">
        <ele>2351.000000</ele>
        <time>2021-09-05T10:17:14Z</time>
      </trkpt>
      <trkpt lat="42.627570" lon="0.457597">
        <ele>2351.000000</ele>
        <time>2021-09-05T10:17:15Z</time>
      </trkpt>
      <trkpt lat="42.627567" lon="0.457602">
        <ele>2351.000000</ele>
        <time>2021-09-05T10:17:16Z</time>
      </trkpt>
      <trkpt lat="42.627563" lon="0.457612">
        <ele>2351.000000</ele>
        <time>2021-09-05T10:17:17Z</time>
      </trkpt>
      <trkpt lat="42.627566" lon="0.457608">
        <ele>2351.000000</ele>
        <time>2021-09-05T10:17:18Z</time>
      </trkpt>
      <trkpt lat="42.627569" lon="0.457610">
        <ele>2351.000000</ele>
        <time>2021-09-05T10:17:19Z</time>
      </trkpt>
      <trkpt lat="42.627570" lon="0.457613">
        <ele>2351.000000</ele>
        <time>2021-09-05T10:17:20Z</time>
      </trkpt>
      <trkpt lat="42.627571" lon="0.457617">
        <ele>2351.000000</ele>
        <time>2021-09-05T10:17:22Z</time>
      </trkpt>
      <trkpt lat="42.627570" lon="0.457620">
        <ele>2351.000000</ele>
        <time>2021-09-05T10:17:23Z</time>
      </trkpt>
      <trkpt lat="42.627568" lon="0.457625">
        <ele>2351.000000</ele>
        <time>2021-09-05T10:17:24Z</time>
      </trkpt>
      <trkpt lat="42.627565" lon="0.457628">
        <ele>2351.000000</ele>
        <time>2021-09-05T10:17:25Z</time>
      </trkpt>
      <trkpt lat="42.627562" lon="0.457635">
        <ele>2351.000000</ele>
        <time>2021-09-05T10:17:26Z</time>
      </trkpt>
      <trkpt lat="42.627560" lon="0.457638">
        <ele>2351.000000</ele>
        <time>2021-09-05T10:17:27Z</time>
      </trkpt>
      <trkpt lat="42.627568" lon="0.457620">
        <ele>2351.000000</ele>
        <time>2021-09-05T10:17:28Z</time>
      </trkpt>
      <trkpt lat="42.627573" lon="0.457533">
        <ele>2348.000000</ele>
        <time>2021-09-05T10:17:44Z</time>
      </trkpt>
      <trkpt lat="42.627568" lon="0.457522">
        <ele>2348.000000</ele>
        <time>2021-09-05T10:17:45Z</time>
      </trkpt>
      <trkpt lat="42.627570" lon="0.457507">
        <ele>2348.000000</ele>
        <time>2021-09-05T10:17:46Z</time>
      </trkpt>
      <trkpt lat="42.627575" lon="0.457485">
        <ele>2348.000000</ele>
        <time>2021-09-05T10:17:47Z</time>
      </trkpt>
      <trkpt lat="42.627577" lon="0.457468">
        <ele>2348.000000</ele>
        <time>2021-09-05T10:17:48Z</time>
      </trkpt>
      <trkpt lat="42.627573" lon="0.457463">
        <ele>2348.000000</ele>
        <time>2021-09-05T10:17:49Z</time>
      </trkpt>
      <trkpt lat="42.627569" lon="0.457460">
        <ele>2348.000000</ele>
        <time>2021-09-05T10:17:50Z</time>
      </trkpt>
      <trkpt lat="42.627557" lon="0.457453">
        <ele>2348.000000</ele>
        <time>2021-09-05T10:17:51Z</time>
      </trkpt>
      <trkpt lat="42.627547" lon="0.457447">
        <ele>2348.000000</ele>
        <time>2021-09-05T10:17:52Z</time>
      </trkpt>
      <trkpt lat="42.627542" lon="0.457434">
        <ele>2348.000000</ele>
        <time>2021-09-05T10:17:53Z</time>
      </trkpt>
      <trkpt lat="42.627533" lon="0.457418">
        <ele>2348.000000</ele>
        <time>2021-09-05T10:17:54Z</time>
      </trkpt>
      <trkpt lat="42.627522" lon="0.457406">
        <ele>2348.000000</ele>
        <time>2021-09-05T10:17:55Z</time>
      </trkpt>
      <trkpt lat="42.627513" lon="0.457392">
        <ele>2349.000000</ele>
        <time>2021-09-05T10:17:57Z</time>
      </trkpt>
      <trkpt lat="42.627515" lon="0.457370">
        <ele>2349.000000</ele>
        <time>2021-09-05T10:17:57Z</time>
      </trkpt>
      <trkpt lat="42.627512" lon="0.457355">
        <ele>2349.000000</ele>
        <time>2021-09-05T10:17:58Z</time>
      </trkpt>
      <trkpt lat="42.627516" lon="0.457332">
        <ele>2349.000000</ele>
        <time>2021-09-05T10:17:59Z</time>
      </trkpt>
      <trkpt lat="42.627518" lon="0.457318">
        <ele>2349.000000</ele>
        <time>2021-09-05T10:18:00Z</time>
      </trkpt>
      <trkpt lat="42.627523" lon="0.457302">
        <ele>2349.000000</ele>
        <time>2021-09-05T10:18:01Z</time>
      </trkpt>
      <trkpt lat="42.627527" lon="0.457288">
        <ele>2350.000000</ele>
        <time>2021-09-05T10:18:02Z</time>
      </trkpt>
      <trkpt lat="42.627528" lon="0.457283">
        <ele>2350.000000</ele>
        <time>2021-09-05T10:18:03Z</time>
      </trkpt>
      <trkpt lat="42.627525" lon="0.457288">
        <ele>2350.000000</ele>
        <time>2021-09-05T10:18:04Z</time>
      </trkpt>
      <trkpt lat="42.627526" lon="0.457283">
        <ele>2350.000000</ele>
        <time>2021-09-05T10:18:05Z</time>
      </trkpt>
      <trkpt lat="42.627524" lon="0.457278">
        <ele>2350.000000</ele>
        <time>2021-09-05T10:18:06Z</time>
      </trkpt>
      <trkpt lat="42.627520" lon="0.457273">
        <ele>2350.000000</ele>
        <time>2021-09-05T10:18:07Z</time>
      </trkpt>
      <trkpt lat="42.627518" lon="0.457272">
        <ele>2350.000000</ele>
        <time>2021-09-05T10:18:08Z</time>
      </trkpt>
      <trkpt lat="42.627518" lon="0.457265">
        <ele>2350.000000</ele>
        <time>2021-09-05T10:18:09Z</time>
      </trkpt>
      <trkpt lat="42.627522" lon="0.457257">
        <ele>2350.000000</ele>
        <time>2021-09-05T10:18:10Z</time>
      </trkpt>
      <trkpt lat="42.627522" lon="0.457257">
        <ele>2349.000000</ele>
        <time>2021-09-05T10:18:12Z</time>
      </trkpt>
      <trkpt lat="42.627513" lon="0.457262">
        <ele>2349.000000</ele>
        <time>2021-09-05T10:18:13Z</time>
      </trkpt>
      <trkpt lat="42.627512" lon="0.457266">
        <ele>2349.000000</ele>
        <time>2021-09-05T10:18:14Z</time>
      </trkpt>
      <trkpt lat="42.627513" lon="0.457260">
        <ele>2348.000000</ele>
        <time>2021-09-05T10:18:16Z</time>
      </trkpt>
      <trkpt lat="42.627518" lon="0.457251">
        <ele>2348.000000</ele>
        <time>2021-09-05T10:18:17Z</time>
      </trkpt>
      <trkpt lat="42.627520" lon="0.457247">
        <ele>2347.000000</ele>
        <time>2021-09-05T10:18:18Z</time>
      </trkpt>
      <trkpt lat="42.627522" lon="0.457242">
        <ele>2347.000000</ele>
        <time>2021-09-05T10:18:19Z</time>
      </trkpt>
      <trkpt lat="42.627518" lon="0.457249">
        <ele>2347.000000</ele>
        <time>2021-09-05T10:18:21Z</time>
      </trkpt>
      <trkpt lat="42.627517" lon="0.457253">
        <ele>2347.000000</ele>
        <time>2021-09-05T10:18:21Z</time>
      </trkpt>
      <trkpt lat="42.627515" lon="0.457260">
        <ele>2347.000000</ele>
        <time>2021-09-05T10:18:22Z</time>
      </trkpt>
      <trkpt lat="42.627510" lon="0.457263">
        <ele>2347.000000</ele>
        <time>2021-09-05T10:18:23Z</time>
      </trkpt>
      <trkpt lat="42.627514" lon="0.457260">
        <ele>2347.000000</ele>
        <time>2021-09-05T10:18:24Z</time>
      </trkpt>
      <trkpt lat="42.627517" lon="0.457253">
        <ele>2347.000000</ele>
        <time>2021-09-05T10:18:25Z</time>
      </trkpt>
      <trkpt lat="42.627515" lon="0.457250">
        <ele>2346.000000</ele>
        <time>2021-09-05T10:18:26Z</time>
      </trkpt>
      <trkpt lat="42.627516" lon="0.457240">
        <ele>2346.000000</ele>
        <time>2021-09-05T10:18:27Z</time>
      </trkpt>
      <trkpt lat="42.627514" lon="0.457240">
        <ele>2345.000000</ele>
        <time>2021-09-05T10:18:28Z</time>
      </trkpt>
      <trkpt lat="42.627514" lon="0.457237">
        <ele>2345.000000</ele>
        <time>2021-09-05T10:18:30Z</time>
      </trkpt>
      <trkpt lat="42.627514" lon="0.457233">
        <ele>2346.000000</ele>
        <time>2021-09-05T10:18:31Z</time>
      </trkpt>
      <trkpt lat="42.627514" lon="0.457240">
        <ele>2348.000000</ele>
        <time>2021-09-05T10:18:33Z</time>
      </trkpt>
      <trkpt lat="42.627514" lon="0.457230">
        <ele>2348.000000</ele>
        <time>2021-09-05T10:18:36Z</time>
      </trkpt>
      <trkpt lat="42.627514" lon="0.457225">
        <ele>2348.000000</ele>
        <time>2021-09-05T10:18:37Z</time>
      </trkpt>
      <trkpt lat="42.627514" lon="0.457230">
        <ele>2348.000000</ele>
        <time>2021-09-05T10:18:38Z</time>
      </trkpt>
      <trkpt lat="42.627513" lon="0.457230">
        <ele>2348.000000</ele>
        <time>2021-09-05T10:18:39Z</time>
      </trkpt>
      <trkpt lat="42.627513" lon="0.457233">
        <ele>2348.000000</ele>
        <time>2021-09-05T10:18:40Z</time>
      </trkpt>
      <trkpt lat="42.627508" lon="0.457182">
        <ele>2343.000000</ele>
        <time>2021-09-05T10:19:51Z</time>
      </trkpt>
      <trkpt lat="42.627503" lon="0.457183">
        <ele>2343.000000</ele>
        <time>2021-09-05T10:19:52Z</time>
      </trkpt>
      <trkpt lat="42.627532" lon="0.457178">
        <ele>2343.000000</ele>
        <time>2021-09-05T10:20:05Z</time>
      </trkpt>
      <trkpt lat="42.627535" lon="0.457187">
        <ele>2343.000000</ele>
        <time>2021-09-05T10:20:06Z</time>
      </trkpt>
      <trkpt lat="42.627539" lon="0.457193">
        <ele>2343.000000</ele>
        <time>2021-09-05T10:20:07Z</time>
      </trkpt>
      <trkpt lat="42.627542" lon="0.457200">
        <ele>2343.000000</ele>
        <time>2021-09-05T10:20:08Z</time>
      </trkpt>
      <trkpt lat="42.627543" lon="0.457198">
        <ele>2343.000000</ele>
        <time>2021-09-05T10:20:09Z</time>
      </trkpt>
      <trkpt lat="42.627550" lon="0.457198">
        <ele>2343.000000</ele>
        <time>2021-09-05T10:20:10Z</time>
      </trkpt>
      <trkpt lat="42.627552" lon="0.457197">
        <ele>2343.000000</ele>
        <time>2021-09-05T10:20:11Z</time>
      </trkpt>
      <trkpt lat="42.627557" lon="0.457193">
        <ele>2343.000000</ele>
        <time>2021-09-05T10:20:13Z</time>
      </trkpt>
      <trkpt lat="42.627560" lon="0.457190">
        <ele>2343.000000</ele>
        <time>2021-09-05T10:20:13Z</time>
      </trkpt>
      <trkpt lat="42.627552" lon="0.457197">
        <ele>2343.000000</ele>
        <time>2021-09-05T10:20:14Z</time>
      </trkpt>
      <trkpt lat="42.627550" lon="0.457200">
        <ele>2343.000000</ele>
        <time>2021-09-05T10:20:15Z</time>
      </trkpt>
      <trkpt lat="42.627552" lon="0.457198">
        <ele>2343.000000</ele>
        <time>2021-09-05T10:20:15Z</time>
      </trkpt>
      <trkpt lat="42.627550" lon="0.457200">
        <ele>2343.000000</ele>
        <time>2021-09-05T10:20:16Z</time>
      </trkpt>
      <trkpt lat="42.627551" lon="0.457198">
        <ele>2343.000000</ele>
        <time>2021-09-05T10:20:17Z</time>
      </trkpt>
      <trkpt lat="42.627560" lon="0.457257">
        <ele>2343.000000</ele>
        <time>2021-09-05T10:20:33Z</time>
      </trkpt>
      <trkpt lat="42.627567" lon="0.457272">
        <ele>2343.000000</ele>
        <time>2021-09-05T10:20:34Z</time>
      </trkpt>
      <trkpt lat="42.627576" lon="0.457292">
        <ele>2343.000000</ele>
        <time>2021-09-05T10:20:36Z</time>
      </trkpt>
      <trkpt lat="42.627586" lon="0.457307">
        <ele>2343.000000</ele>
        <time>2021-09-05T10:20:36Z</time>
      </trkpt>
      <trkpt lat="42.627592" lon="0.457327">
        <ele>2343.000000</ele>
        <time>2021-09-05T10:20:37Z</time>
      </trkpt>
      <trkpt lat="42.627595" lon="0.457348">
        <ele>2343.000000</ele>
        <time>2021-09-05T10:20:38Z</time>
      </trkpt>
      <trkpt lat="42.627596" lon="0.457368">
        <ele>2343.000000</ele>
        <time>2021-09-05T10:20:39Z</time>
      </trkpt>
      <trkpt lat="42.627588" lon="0.457390">
        <ele>2343.000000</ele>
        <time>2021-09-05T10:20:40Z</time>
      </trkpt>
      <trkpt lat="42.627588" lon="0.457413">
        <ele>2343.000000</ele>
        <time>2021-09-05T10:20:41Z</time>
      </trkpt>
      <trkpt lat="42.627593" lon="0.457432">
        <ele>2343.000000</ele>
        <time>2021-09-05T10:20:42Z</time>
      </trkpt>
      <trkpt lat="42.627601" lon="0.457447">
        <ele>2343.000000</ele>
        <time>2021-09-05T10:20:43Z</time>
      </trkpt>
      <trkpt lat="42.627607" lon="0.457465">
        <ele>2343.000000</ele>
        <time>2021-09-05T10:20:44Z</time>
      </trkpt>
      <trkpt lat="42.627610" lon="0.457477">
        <ele>2343.000000</ele>
        <time>2021-09-05T10:20:45Z</time>
      </trkpt>
      <trkpt lat="42.627613" lon="0.457487">
        <ele>2343.000000</ele>
        <time>2021-09-05T10:20:46Z</time>
      </trkpt>
      <trkpt lat="42.627616" lon="0.457505">
        <ele>2343.000000</ele>
        <time>2021-09-05T10:20:47Z</time>
      </trkpt>
      <trkpt lat="42.627612" lon="0.457522">
        <ele>2343.000000</ele>
        <time>2021-09-05T10:20:48Z</time>
      </trkpt>
      <trkpt lat="42.627603" lon="0.457527">
        <ele>2343.000000</ele>
        <time>2021-09-05T10:20:49Z</time>
      </trkpt>
      <trkpt lat="42.627598" lon="0.457537">
        <ele>2343.000000</ele>
        <time>2021-09-05T10:20:50Z</time>
      </trkpt>
      <trkpt lat="42.627592" lon="0.457547">
        <ele>2343.000000</ele>
        <time>2021-09-05T10:20:51Z</time>
      </trkpt>
      <trkpt lat="42.627578" lon="0.457553">
        <ele>2343.000000</ele>
        <time>2021-09-05T10:20:53Z</time>
      </trkpt>
      <trkpt lat="42.627570" lon="0.457557">
        <ele>2343.000000</ele>
        <time>2021-09-05T10:20:53Z</time>
      </trkpt>
      <trkpt lat="42.627565" lon="0.457555">
        <ele>2343.000000</ele>
        <time>2021-09-05T10:20:55Z</time>
      </trkpt>
      <trkpt lat="42.627564" lon="0.457563">
        <ele>2343.000000</ele>
        <time>2021-09-05T10:20:56Z</time>
      </trkpt>
      <trkpt lat="42.627563" lon="0.457577">
        <ele>2343.000000</ele>
        <time>2021-09-05T10:20:57Z</time>
      </trkpt>
      <trkpt lat="42.627558" lon="0.457583">
        <ele>2343.000000</ele>
        <time>2021-09-05T10:20:58Z</time>
      </trkpt>
      <trkpt lat="42.627552" lon="0.457597">
        <ele>2343.000000</ele>
        <time>2021-09-05T10:20:59Z</time>
      </trkpt>
      <trkpt lat="42.627547" lon="0.457605">
        <ele>2343.000000</ele>
        <time>2021-09-05T10:21:00Z</time>
      </trkpt>
      <trkpt lat="42.627541" lon="0.457615">
        <ele>2343.000000</ele>
        <time>2021-09-05T10:21:01Z</time>
      </trkpt>
      <trkpt lat="42.627536" lon="0.457623">
        <ele>2343.000000</ele>
        <time>2021-09-05T10:21:02Z</time>
      </trkpt>
      <trkpt lat="42.627532" lon="0.457632">
        <ele>2343.000000</ele>
        <time>2021-09-05T10:21:03Z</time>
      </trkpt>
      <trkpt lat="42.627525" lon="0.457647">
        <ele>2343.000000</ele>
        <time>2021-09-05T10:21:04Z</time>
      </trkpt>
      <trkpt lat="42.627521" lon="0.457652">
        <ele>2343.000000</ele>
        <time>2021-09-05T10:21:05Z</time>
      </trkpt>
      <trkpt lat="42.627517" lon="0.457655">
        <ele>2343.000000</ele>
        <time>2021-09-05T10:21:06Z</time>
      </trkpt>
      <trkpt lat="42.627513" lon="0.457662">
        <ele>2343.000000</ele>
        <time>2021-09-05T10:21:07Z</time>
      </trkpt>
      <trkpt lat="42.627507" lon="0.457668">
        <ele>2343.000000</ele>
        <time>2021-09-05T10:21:08Z</time>
      </trkpt>
      <trkpt lat="42.627504" lon="0.457670">
        <ele>2343.000000</ele>
        <time>2021-09-05T10:21:09Z</time>
      </trkpt>
      <trkpt lat="42.627501" lon="0.457673">
        <ele>2343.000000</ele>
        <time>2021-09-05T10:21:10Z</time>
      </trkpt>
      <trkpt lat="42.627498" lon="0.457677">
        <ele>2343.000000</ele>
        <time>2021-09-05T10:21:11Z</time>
      </trkpt>
      <trkpt lat="42.627488" lon="0.457693">
        <ele>2343.000000</ele>
        <time>2021-09-05T10:21:12Z</time>
      </trkpt>
      <trkpt lat="42.627480" lon="0.457708">
        <ele>2343.000000</ele>
        <time>2021-09-05T10:21:13Z</time>
      </trkpt>
      <trkpt lat="42.627485" lon="0.457715">
        <ele>2343.000000</ele>
        <time>2021-09-05T10:21:14Z</time>
      </trkpt>
      <trkpt lat="42.627483" lon="0.457718">
        <ele>2343.000000</ele>
        <time>2021-09-05T10:21:16Z</time>
      </trkpt>
      <trkpt lat="42.627480" lon="0.457718">
        <ele>2343.000000</ele>
        <time>2021-09-05T10:21:16Z</time>
      </trkpt>
      <trkpt lat="42.627477" lon="0.457725">
        <ele>2343.000000</ele>
        <time>2021-09-05T10:21:17Z</time>
      </trkpt>
      <trkpt lat="42.627479" lon="0.457722">
        <ele>2343.000000</ele>
        <time>2021-09-05T10:21:18Z</time>
      </trkpt>
      <trkpt lat="42.627479" lon="0.457720">
        <ele>2343.000000</ele>
        <time>2021-09-05T10:21:19Z</time>
      </trkpt>
      <trkpt lat="42.627487" lon="0.457717">
        <ele>2339.000000</ele>
        <time>2021-09-05T10:21:23Z</time>
      </trkpt>
      <trkpt lat="42.627488" lon="0.457712">
        <ele>2339.000000</ele>
        <time>2021-09-05T10:21:24Z</time>
      </trkpt>
      <trkpt lat="42.627491" lon="0.457703">
        <ele>2339.000000</ele>
        <time>2021-09-05T10:21:25Z</time>
      </trkpt>
      <trkpt lat="42.627495" lon="0.457692">
        <ele>2339.000000</ele>
        <time>2021-09-05T10:21:26Z</time>
      </trkpt>
      <trkpt lat="42.627496" lon="0.457692">
        <ele>2340.000000</ele>
        <time>2021-09-05T10:21:28Z</time>
      </trkpt>
      <trkpt lat="42.627488" lon="0.457712">
        <ele>2340.000000</ele>
        <time>2021-09-05T10:21:29Z</time>
      </trkpt>
      <trkpt lat="42.627480" lon="0.457712">
        <ele>2341.000000</ele>
        <time>2021-09-05T10:23:58Z</time>
      </trkpt>
      <trkpt lat="42.627477" lon="0.457718">
        <ele>2341.000000</ele>
        <time>2021-09-05T10:24:49Z</time>
      </trkpt>
      <trkpt lat="42.627487" lon="0.457592">
        <ele>2341.000000</ele>
        <time>2021-09-05T10:28:21Z</time>
      </trkpt>
      <trkpt lat="42.627480" lon="0.457600">
        <ele>2341.000000</ele>
        <time>2021-09-05T10:29:44Z</time>
      </trkpt>
      <trkpt lat="42.627370" lon="0.457730">
        <ele>2341.000000</ele>
        <time>2021-09-05T10:30:41Z</time>
      </trkpt>
      <trkpt lat="42.627367" lon="0.457710">
        <ele>2341.000000</ele>
        <time>2021-09-05T10:30:42Z</time>
      </trkpt>
      <trkpt lat="42.627362" lon="0.457689">
        <ele>2341.000000</ele>
        <time>2021-09-05T10:30:43Z</time>
      </trkpt>
      <trkpt lat="42.627357" lon="0.457675">
        <ele>2341.000000</ele>
        <time>2021-09-05T10:30:44Z</time>
      </trkpt>
      <trkpt lat="42.627355" lon="0.457665">
        <ele>2341.000000</ele>
        <time>2021-09-05T10:30:45Z</time>
      </trkpt>
      <trkpt lat="42.627352" lon="0.457655">
        <ele>2341.000000</ele>
        <time>2021-09-05T10:30:46Z</time>
      </trkpt>
      <trkpt lat="42.627351" lon="0.457645">
        <ele>2341.000000</ele>
        <time>2021-09-05T10:30:47Z</time>
      </trkpt>
      <trkpt lat="42.627349" lon="0.457637">
        <ele>2341.000000</ele>
        <time>2021-09-05T10:30:48Z</time>
      </trkpt>
      <trkpt lat="42.627345" lon="0.457630">
        <ele>2341.000000</ele>
        <time>2021-09-05T10:30:49Z</time>
      </trkpt>
      <trkpt lat="42.627338" lon="0.457623">
        <ele>2341.000000</ele>
        <time>2021-09-05T10:30:50Z</time>
      </trkpt>
      <trkpt lat="42.627332" lon="0.457617">
        <ele>2341.000000</ele>
        <time>2021-09-05T10:30:51Z</time>
      </trkpt>
      <trkpt lat="42.627323" lon="0.457610">
        <ele>2341.000000</ele>
        <time>2021-09-05T10:30:52Z</time>
      </trkpt>
      <trkpt lat="42.627312" lon="0.457598">
        <ele>2341.000000</ele>
        <time>2021-09-05T10:30:53Z</time>
      </trkpt>
      <trkpt lat="42.627303" lon="0.457591">
        <ele>2341.000000</ele>
        <time>2021-09-05T10:30:54Z</time>
      </trkpt>
      <trkpt lat="42.627298" lon="0.457587">
        <ele>2341.000000</ele>
        <time>2021-09-05T10:30:55Z</time>
      </trkpt>
      <trkpt lat="42.627295" lon="0.457581">
        <ele>2341.000000</ele>
        <time>2021-09-05T10:30:56Z</time>
      </trkpt>
      <trkpt lat="42.627292" lon="0.457574">
        <ele>2341.000000</ele>
        <time>2021-09-05T10:30:57Z</time>
      </trkpt>
      <trkpt lat="42.627288" lon="0.457567">
        <ele>2341.000000</ele>
        <time>2021-09-05T10:30:58Z</time>
      </trkpt>
      <trkpt lat="42.627285" lon="0.457561">
        <ele>2341.000000</ele>
        <time>2021-09-05T10:30:59Z</time>
      </trkpt>
      <trkpt lat="42.627280" lon="0.457552">
        <ele>2341.000000</ele>
        <time>2021-09-05T10:31:00Z</time>
      </trkpt>
      <trkpt lat="42.627272" lon="0.457542">
        <ele>2341.000000</ele>
        <time>2021-09-05T10:31:01Z</time>
      </trkpt>
      <trkpt lat="42.627265" lon="0.457533">
        <ele>2341.000000</ele>
        <time>2021-09-05T10:31:02Z</time>
      </trkpt>
      <trkpt lat="42.627260" lon="0.457529">
        <ele>2341.000000</ele>
        <time>2021-09-05T10:31:03Z</time>
      </trkpt>
      <trkpt lat="42.627255" lon="0.457526">
        <ele>2341.000000</ele>
        <time>2021-09-05T10:31:04Z</time>
      </trkpt>
      <trkpt lat="42.627252" lon="0.457537">
        <ele>2341.000000</ele>
        <time>2021-09-05T10:31:05Z</time>
      </trkpt>
      <trkpt lat="42.627252" lon="0.457535">
        <ele>2341.000000</ele>
        <time>2021-09-05T10:31:06Z</time>
      </trkpt>
      <trkpt lat="42.627253" lon="0.457535">
        <ele>2341.000000</ele>
        <time>2021-09-05T10:31:08Z</time>
      </trkpt>
      <trkpt lat="42.627253" lon="0.457537">
        <ele>2341.000000</ele>
        <time>2021-09-05T10:31:08Z</time>
      </trkpt>
      <trkpt lat="42.627258" lon="0.457545">
        <ele>2341.000000</ele>
        <time>2021-09-05T10:31:09Z</time>
      </trkpt>
      <trkpt lat="42.627267" lon="0.457547">
        <ele>2341.000000</ele>
        <time>2021-09-05T10:31:10Z</time>
      </trkpt>
      <trkpt lat="42.627273" lon="0.457555">
        <ele>2341.000000</ele>
        <time>2021-09-05T10:31:11Z</time>
      </trkpt>
      <trkpt lat="42.627277" lon="0.457560">
        <ele>2341.000000</ele>
        <time>2021-09-05T10:31:12Z</time>
      </trkpt>
      <trkpt lat="42.627280" lon="0.457562">
        <ele>2341.000000</ele>
        <time>2021-09-05T10:31:13Z</time>
      </trkpt>
      <trkpt lat="42.627283" lon="0.457565">
        <ele>2341.000000</ele>
        <time>2021-09-05T10:31:14Z</time>
      </trkpt>
      <trkpt lat="42.627285" lon="0.457572">
        <ele>2341.000000</ele>
        <time>2021-09-05T10:31:15Z</time>
      </trkpt>
      <trkpt lat="42.627284" lon="0.457570">
        <ele>2341.000000</ele>
        <time>2021-09-05T10:31:16Z</time>
      </trkpt>
      <trkpt lat="42.627285" lon="0.457573">
        <ele>2341.000000</ele>
        <time>2021-09-05T10:31:17Z</time>
      </trkpt>
      <trkpt lat="42.627282" lon="0.457578">
        <ele>2341.000000</ele>
        <time>2021-09-05T10:31:18Z</time>
      </trkpt>
      <trkpt lat="42.627280" lon="0.457583">
        <ele>2341.000000</ele>
        <time>2021-09-05T10:31:19Z</time>
      </trkpt>
      <trkpt lat="42.627277" lon="0.457583">
        <ele>2341.000000</ele>
        <time>2021-09-05T10:31:20Z</time>
      </trkpt>
      <trkpt lat="42.627272" lon="0.457588">
        <ele>2341.000000</ele>
        <time>2021-09-05T10:31:21Z</time>
      </trkpt>
      <trkpt lat="42.627262" lon="0.457588">
        <ele>2341.000000</ele>
        <time>2021-09-05T10:31:22Z</time>
      </trkpt>
      <trkpt lat="42.627252" lon="0.457588">
        <ele>2341.000000</ele>
        <time>2021-09-05T10:31:23Z</time>
      </trkpt>
      <trkpt lat="42.627243" lon="0.457585">
        <ele>2341.000000</ele>
        <time>2021-09-05T10:31:24Z</time>
      </trkpt>
      <trkpt lat="42.627232" lon="0.457582">
        <ele>2341.000000</ele>
        <time>2021-09-05T10:31:25Z</time>
      </trkpt>
      <trkpt lat="42.627227" lon="0.457577">
        <ele>2341.000000</ele>
        <time>2021-09-05T10:31:26Z</time>
      </trkpt>
      <trkpt lat="42.627223" lon="0.457573">
        <ele>2341.000000</ele>
        <time>2021-09-05T10:31:27Z</time>
      </trkpt>
      <trkpt lat="42.627218" lon="0.457568">
        <ele>2341.000000</ele>
        <time>2021-09-05T10:31:28Z</time>
      </trkpt>
      <trkpt lat="42.627212" lon="0.457568">
        <ele>2341.000000</ele>
        <time>2021-09-05T10:31:29Z</time>
      </trkpt>
      <trkpt lat="42.627203" lon="0.457564">
        <ele>2341.000000</ele>
        <time>2021-09-05T10:31:30Z</time>
      </trkpt>
      <trkpt lat="42.627198" lon="0.457561">
        <ele>2341.000000</ele>
        <time>2021-09-05T10:31:32Z</time>
      </trkpt>
      <trkpt lat="42.627195" lon="0.457561">
        <ele>2341.000000</ele>
        <time>2021-09-05T10:31:32Z</time>
      </trkpt>
      <trkpt lat="42.627193" lon="0.457563">
        <ele>2341.000000</ele>
        <time>2021-09-05T10:31:33Z</time>
      </trkpt>
      <trkpt lat="42.627192" lon="0.457566">
        <ele>2341.000000</ele>
        <time>2021-09-05T10:31:34Z</time>
      </trkpt>
      <trkpt lat="42.627190" lon="0.457580">
        <ele>2341.000000</ele>
        <time>2021-09-05T10:31:35Z</time>
      </trkpt>
      <trkpt lat="42.627187" lon="0.457583">
        <ele>2341.000000</ele>
        <time>2021-09-05T10:31:36Z</time>
      </trkpt>
      <trkpt lat="42.627180" lon="0.457593">
        <ele>2341.000000</ele>
        <time>2021-09-05T10:31:37Z</time>
      </trkpt>
      <trkpt lat="42.627173" lon="0.457598">
        <ele>2341.000000</ele>
        <time>2021-09-05T10:31:38Z</time>
      </trkpt>
      <trkpt lat="42.627162" lon="0.457599">
        <ele>2341.000000</ele>
        <time>2021-09-05T10:31:39Z</time>
      </trkpt>
      <trkpt lat="42.627153" lon="0.457598">
        <ele>2341.000000</ele>
        <time>2021-09-05T10:31:40Z</time>
      </trkpt>
      <trkpt lat="42.627142" lon="0.457599">
        <ele>2341.000000</ele>
        <time>2021-09-05T10:31:41Z</time>
      </trkpt>
      <trkpt lat="42.627133" lon="0.457598">
        <ele>2341.000000</ele>
        <time>2021-09-05T10:31:42Z</time>
      </trkpt>
      <trkpt lat="42.627130" lon="0.457599">
        <ele>2341.000000</ele>
        <time>2021-09-05T10:31:43Z</time>
      </trkpt>
      <trkpt lat="42.627128" lon="0.457602">
        <ele>2341.000000</ele>
        <time>2021-09-05T10:31:44Z</time>
      </trkpt>
      <trkpt lat="42.627127" lon="0.457617">
        <ele>2341.000000</ele>
        <time>2021-09-05T10:31:45Z</time>
      </trkpt>
      <trkpt lat="42.627127" lon="0.457620">
        <ele>2341.000000</ele>
        <time>2021-09-05T10:31:46Z</time>
      </trkpt>
      <trkpt lat="42.627130" lon="0.457620">
        <ele>2341.000000</ele>
        <time>2021-09-05T10:31:47Z</time>
      </trkpt>
      <trkpt lat="42.627138" lon="0.457613">
        <ele>2341.000000</ele>
        <time>2021-09-05T10:31:48Z</time>
      </trkpt>
      <trkpt lat="42.627144" lon="0.457610">
        <ele>2341.000000</ele>
        <time>2021-09-05T10:31:49Z</time>
      </trkpt>
      <trkpt lat="42.627150" lon="0.457610">
        <ele>2341.000000</ele>
        <time>2021-09-05T10:31:50Z</time>
      </trkpt>
      <trkpt lat="42.627155" lon="0.457608">
        <ele>2341.000000</ele>
        <time>2021-09-05T10:31:52Z</time>
      </trkpt>
      <trkpt lat="42.627160" lon="0.457607">
        <ele>2341.000000</ele>
        <time>2021-09-05T10:31:53Z</time>
      </trkpt>
      <trkpt lat="42.627165" lon="0.457608">
        <ele>2341.000000</ele>
        <time>2021-09-05T10:31:54Z</time>
      </trkpt>
      <trkpt lat="42.627173" lon="0.457612">
        <ele>2341.000000</ele>
        <time>2021-09-05T10:31:55Z</time>
      </trkpt>
      <trkpt lat="42.627182" lon="0.457613">
        <ele>2341.000000</ele>
        <time>2021-09-05T10:31:56Z</time>
      </trkpt>
      <trkpt lat="42.627192" lon="0.457615">
        <ele>2341.000000</ele>
        <time>2021-09-05T10:31:57Z</time>
      </trkpt>
      <trkpt lat="42.627200" lon="0.457621">
        <ele>2341.000000</ele>
        <time>2021-09-05T10:31:58Z</time>
      </trkpt>
      <trkpt lat="42.627203" lon="0.457628">
        <ele>2341.000000</ele>
        <time>2021-09-05T10:31:59Z</time>
      </trkpt>
      <trkpt lat="42.627208" lon="0.457637">
        <ele>2341.000000</ele>
        <time>2021-09-05T10:32:00Z</time>
      </trkpt>
      <trkpt lat="42.627213" lon="0.457650">
        <ele>2341.000000</ele>
        <time>2021-09-05T10:32:01Z</time>
      </trkpt>
      <trkpt lat="42.627213" lon="0.457662">
        <ele>2341.000000</ele>
        <time>2021-09-05T10:32:02Z</time>
      </trkpt>
      <trkpt lat="42.627210" lon="0.457672">
        <ele>2341.000000</ele>
        <time>2021-09-05T10:32:03Z</time>
      </trkpt>
      <trkpt lat="42.627208" lon="0.457673">
        <ele>2341.000000</ele>
        <time>2021-09-05T10:32:04Z</time>
      </trkpt>
      <trkpt lat="42.627208" lon="0.457680">
        <ele>2341.000000</ele>
        <time>2021-09-05T10:32:06Z</time>
      </trkpt>
      <trkpt lat="42.627212" lon="0.457688">
        <ele>2341.000000</ele>
        <time>2021-09-05T10:32:07Z</time>
      </trkpt>
      <trkpt lat="42.627216" lon="0.457692">
        <ele>2341.000000</ele>
        <time>2021-09-05T10:32:08Z</time>
      </trkpt>
      <trkpt lat="42.627220" lon="0.457695">
        <ele>2341.000000</ele>
        <time>2021-09-05T10:32:09Z</time>
      </trkpt>
      <trkpt lat="42.627223" lon="0.457702">
        <ele>2341.000000</ele>
        <time>2021-09-05T10:32:10Z</time>
      </trkpt>
      <trkpt lat="42.627227" lon="0.457715">
        <ele>2341.000000</ele>
        <time>2021-09-05T10:32:11Z</time>
      </trkpt>
      <trkpt lat="42.627228" lon="0.457718">
        <ele>2341.000000</ele>
        <time>2021-09-05T10:32:12Z</time>
      </trkpt>
      <trkpt lat="42.627229" lon="0.457723">
        <ele>2341.000000</ele>
        <time>2021-09-05T10:32:13Z</time>
      </trkpt>
      <trkpt lat="42.627230" lon="0.457727">
        <ele>2341.000000</ele>
        <time>2021-09-05T10:32:14Z</time>
      </trkpt>
      <trkpt lat="42.627233" lon="0.457730">
        <ele>2341.000000</ele>
        <time>2021-09-05T10:32:16Z</time>
      </trkpt>
      <trkpt lat="42.627238" lon="0.457735">
        <ele>2341.000000</ele>
        <time>2021-09-05T10:32:16Z</time>
      </trkpt>
      <trkpt lat="42.627240" lon="0.457740">
        <ele>2341.000000</ele>
        <time>2021-09-05T10:32:17Z</time>
      </trkpt>
      <trkpt lat="42.627243" lon="0.457743">
        <ele>2341.000000</ele>
        <time>2021-09-05T10:32:18Z</time>
      </trkpt>
      <trkpt lat="42.627248" lon="0.457745">
        <ele>2341.000000</ele>
        <time>2021-09-05T10:32:19Z</time>
      </trkpt>
      <trkpt lat="42.627252" lon="0.457747">
        <ele>2341.000000</ele>
        <time>2021-09-05T10:32:20Z</time>
      </trkpt>
      <trkpt lat="42.627254" lon="0.457752">
        <ele>2341.000000</ele>
        <time>2021-09-05T10:32:21Z</time>
      </trkpt>
      <trkpt lat="42.627256" lon="0.457753">
        <ele>2341.000000</ele>
        <time>2021-09-05T10:32:22Z</time>
      </trkpt>
      <trkpt lat="42.627260" lon="0.457758">
        <ele>2341.000000</ele>
        <time>2021-09-05T10:32:23Z</time>
      </trkpt>
      <trkpt lat="42.627265" lon="0.457763">
        <ele>2341.000000</ele>
        <time>2021-09-05T10:32:24Z</time>
      </trkpt>
      <trkpt lat="42.627269" lon="0.457770">
        <ele>2341.000000</ele>
        <time>2021-09-05T10:32:25Z</time>
      </trkpt>
      <trkpt lat="42.627271" lon="0.457778">
        <ele>2341.000000</ele>
        <time>2021-09-05T10:32:26Z</time>
      </trkpt>
      <trkpt lat="42.627265" lon="0.457787">
        <ele>2341.000000</ele>
        <time>2021-09-05T10:32:27Z</time>
      </trkpt>
      <trkpt lat="42.627262" lon="0.457795">
        <ele>2341.000000</ele>
        <time>2021-09-05T10:32:28Z</time>
      </trkpt>
      <trkpt lat="42.627260" lon="0.457800">
        <ele>2341.000000</ele>
        <time>2021-09-05T10:32:29Z</time>
      </trkpt>
      <trkpt lat="42.627258" lon="0.457808">
        <ele>2341.000000</ele>
        <time>2021-09-05T10:32:30Z</time>
      </trkpt>
      <trkpt lat="42.627255" lon="0.457820">
        <ele>2341.000000</ele>
        <time>2021-09-05T10:32:31Z</time>
      </trkpt>
      <trkpt lat="42.627255" lon="0.457828">
        <ele>2341.000000</ele>
        <time>2021-09-05T10:32:32Z</time>
      </trkpt>
      <trkpt lat="42.627255" lon="0.457845">
        <ele>2341.000000</ele>
        <time>2021-09-05T10:32:33Z</time>
      </trkpt>
      <trkpt lat="42.627258" lon="0.457852">
        <ele>2341.000000</ele>
        <time>2021-09-05T10:32:34Z</time>
      </trkpt>
      <trkpt lat="42.627258" lon="0.457860">
        <ele>2341.000000</ele>
        <time>2021-09-05T10:32:35Z</time>
      </trkpt>
      <trkpt lat="42.627260" lon="0.457868">
        <ele>2341.000000</ele>
        <time>2021-09-05T10:32:36Z</time>
      </trkpt>
      <trkpt lat="42.627261" lon="0.457867">
        <ele>2341.000000</ele>
        <time>2021-09-05T10:32:37Z</time>
      </trkpt>
      <trkpt lat="42.627268" lon="0.457873">
        <ele>2341.000000</ele>
        <time>2021-09-05T10:32:40Z</time>
      </trkpt>
      <trkpt lat="42.627268" lon="0.457880">
        <ele>2341.000000</ele>
        <time>2021-09-05T10:32:40Z</time>
      </trkpt>
      <trkpt lat="42.627270" lon="0.457888">
        <ele>2341.000000</ele>
        <time>2021-09-05T10:32:41Z</time>
      </trkpt>
      <trkpt lat="42.627274" lon="0.457895">
        <ele>2341.000000</ele>
        <time>2021-09-05T10:32:42Z</time>
      </trkpt>
      <trkpt lat="42.627277" lon="0.457903">
        <ele>2341.000000</ele>
        <time>2021-09-05T10:32:43Z</time>
      </trkpt>
      <trkpt lat="42.627279" lon="0.457917">
        <ele>2341.000000</ele>
        <time>2021-09-05T10:32:44Z</time>
      </trkpt>
      <trkpt lat="42.627274" lon="0.457925">
        <ele>2341.000000</ele>
        <time>2021-09-05T10:32:45Z</time>
      </trkpt>
      <trkpt lat="42.627265" lon="0.457928">
        <ele>2341.000000</ele>
        <time>2021-09-05T10:32:46Z</time>
      </trkpt>
      <trkpt lat="42.627260" lon="0.457937">
        <ele>2341.000000</ele>
        <time>2021-09-05T10:32:47Z</time>
      </trkpt>
      <trkpt lat="42.627255" lon="0.457943">
        <ele>2341.000000</ele>
        <time>2021-09-05T10:32:48Z</time>
      </trkpt>
      <trkpt lat="42.627247" lon="0.457953">
        <ele>2341.000000</ele>
        <time>2021-09-05T10:32:49Z</time>
      </trkpt>
      <trkpt lat="42.627242" lon="0.457960">
        <ele>2341.000000</ele>
        <time>2021-09-05T10:32:50Z</time>
      </trkpt>
      <trkpt lat="42.627237" lon="0.457965">
        <ele>2341.000000</ele>
        <time>2021-09-05T10:32:51Z</time>
      </trkpt>
      <trkpt lat="42.627232" lon="0.457972">
        <ele>2341.000000</ele>
        <time>2021-09-05T10:32:52Z</time>
      </trkpt>
      <trkpt lat="42.627225" lon="0.457978">
        <ele>2341.000000</ele>
        <time>2021-09-05T10:32:53Z</time>
      </trkpt>
      <trkpt lat="42.627217" lon="0.457984">
        <ele>2341.000000</ele>
        <time>2021-09-05T10:32:54Z</time>
      </trkpt>
      <trkpt lat="42.627208" lon="0.457988">
        <ele>2341.000000</ele>
        <time>2021-09-05T10:32:55Z</time>
      </trkpt>
      <trkpt lat="42.627205" lon="0.457989">
        <ele>2341.000000</ele>
        <time>2021-09-05T10:32:56Z</time>
      </trkpt>
      <trkpt lat="42.627198" lon="0.457994">
        <ele>2341.000000</ele>
        <time>2021-09-05T10:32:57Z</time>
      </trkpt>
      <trkpt lat="42.627193" lon="0.458001">
        <ele>2341.000000</ele>
        <time>2021-09-05T10:32:59Z</time>
      </trkpt>
      <trkpt lat="42.627193" lon="0.458012">
        <ele>2341.000000</ele>
        <time>2021-09-05T10:32:59Z</time>
      </trkpt>
      <trkpt lat="42.627193" lon="0.458015">
        <ele>2341.000000</ele>
        <time>2021-09-05T10:33:00Z</time>
      </trkpt>
      <trkpt lat="42.627193" lon="0.458023">
        <ele>2341.000000</ele>
        <time>2021-09-05T10:33:00Z</time>
      </trkpt>
      <trkpt lat="42.627193" lon="0.458030">
        <ele>2341.000000</ele>
        <time>2021-09-05T10:33:01Z</time>
      </trkpt>
      <trkpt lat="42.627190" lon="0.458042">
        <ele>2341.000000</ele>
        <time>2021-09-05T10:33:02Z</time>
      </trkpt>
      <trkpt lat="42.627187" lon="0.458057">
        <ele>2341.000000</ele>
        <time>2021-09-05T10:33:03Z</time>
      </trkpt>
      <trkpt lat="42.627181" lon="0.458073">
        <ele>2341.000000</ele>
        <time>2021-09-05T10:33:04Z</time>
      </trkpt>
      <trkpt lat="42.627177" lon="0.458082">
        <ele>2341.000000</ele>
        <time>2021-09-05T10:33:05Z</time>
      </trkpt>
      <trkpt lat="42.627172" lon="0.458093">
        <ele>2341.000000</ele>
        <time>2021-09-05T10:33:06Z</time>
      </trkpt>
      <trkpt lat="42.627168" lon="0.458103">
        <ele>2341.000000</ele>
        <time>2021-09-05T10:33:07Z</time>
      </trkpt>
      <trkpt lat="42.627165" lon="0.458112">
        <ele>2341.000000</ele>
        <time>2021-09-05T10:33:08Z</time>
      </trkpt>
      <trkpt lat="42.627157" lon="0.458113">
        <ele>2341.000000</ele>
        <time>2021-09-05T10:33:09Z</time>
      </trkpt>
      <trkpt lat="42.627153" lon="0.458110">
        <ele>2341.000000</ele>
        <time>2021-09-05T10:33:10Z</time>
      </trkpt>
      <trkpt lat="42.627148" lon="0.458105">
        <ele>2341.000000</ele>
        <time>2021-09-05T10:33:11Z</time>
      </trkpt>
      <trkpt lat="42.627142" lon="0.458103">
        <ele>2318.000000</ele>
        <time>2021-09-05T10:33:12Z</time>
      </trkpt>
      <trkpt lat="42.627135" lon="0.458105">
        <ele>2318.000000</ele>
        <time>2021-09-05T10:33:13Z</time>
      </trkpt>
      <trkpt lat="42.627132" lon="0.458105">
        <ele>2318.000000</ele>
        <time>2021-09-05T10:33:14Z</time>
      </trkpt>
      <trkpt lat="42.627128" lon="0.458107">
        <ele>2317.000000</ele>
        <time>2021-09-05T10:33:15Z</time>
      </trkpt>
      <trkpt lat="42.627127" lon="0.458110">
        <ele>2317.000000</ele>
        <time>2021-09-05T10:33:16Z</time>
      </trkpt>
      <trkpt lat="42.627130" lon="0.458122">
        <ele>2317.000000</ele>
        <time>2021-09-05T10:33:18Z</time>
      </trkpt>
      <trkpt lat="42.627127" lon="0.458132">
        <ele>2317.000000</ele>
        <time>2021-09-05T10:33:19Z</time>
      </trkpt>
      <trkpt lat="42.627124" lon="0.458135">
        <ele>2317.000000</ele>
        <time>2021-09-05T10:33:20Z</time>
      </trkpt>
      <trkpt lat="42.627121" lon="0.458135">
        <ele>2317.000000</ele>
        <time>2021-09-05T10:33:22Z</time>
      </trkpt>
      <trkpt lat="42.627107" lon="0.458135">
        <ele>2317.000000</ele>
        <time>2021-09-05T10:33:22Z</time>
      </trkpt>
      <trkpt lat="42.627100" lon="0.458133">
        <ele>2317.000000</ele>
        <time>2021-09-05T10:33:23Z</time>
      </trkpt>
      <trkpt lat="42.627097" lon="0.458138">
        <ele>2317.000000</ele>
        <time>2021-09-05T10:33:24Z</time>
      </trkpt>
      <trkpt lat="42.627095" lon="0.458144">
        <ele>2316.000000</ele>
        <time>2021-09-05T10:33:25Z</time>
      </trkpt>
      <trkpt lat="42.627097" lon="0.458140">
        <ele>2316.000000</ele>
        <time>2021-09-05T10:33:26Z</time>
      </trkpt>
      <trkpt lat="42.627097" lon="0.458147">
        <ele>2316.000000</ele>
        <time>2021-09-05T10:33:27Z</time>
      </trkpt>
      <trkpt lat="42.627098" lon="0.458152">
        <ele>2316.000000</ele>
        <time>2021-09-05T10:33:28Z</time>
      </trkpt>
      <trkpt lat="42.627095" lon="0.458162">
        <ele>2316.000000</ele>
        <time>2021-09-05T10:33:29Z</time>
      </trkpt>
      <trkpt lat="42.627090" lon="0.458170">
        <ele>2316.000000</ele>
        <time>2021-09-05T10:33:30Z</time>
      </trkpt>
      <trkpt lat="42.627086" lon="0.458175">
        <ele>2316.000000</ele>
        <time>2021-09-05T10:33:31Z</time>
      </trkpt>
      <trkpt lat="42.627084" lon="0.458177">
        <ele>2316.000000</ele>
        <time>2021-09-05T10:33:32Z</time>
      </trkpt>
      <trkpt lat="42.627078" lon="0.458178">
        <ele>2316.000000</ele>
        <time>2021-09-05T10:33:33Z</time>
      </trkpt>
      <trkpt lat="42.627075" lon="0.458185">
        <ele>2316.000000</ele>
        <time>2021-09-05T10:33:34Z</time>
      </trkpt>
      <trkpt lat="42.627070" lon="0.458197">
        <ele>2316.000000</ele>
        <time>2021-09-05T10:33:35Z</time>
      </trkpt>
      <trkpt lat="42.627067" lon="0.458205">
        <ele>2316.000000</ele>
        <time>2021-09-05T10:33:36Z</time>
      </trkpt>
      <trkpt lat="42.627065" lon="0.458212">
        <ele>2316.000000</ele>
        <time>2021-09-05T10:33:37Z</time>
      </trkpt>
      <trkpt lat="42.627068" lon="0.458215">
        <ele>2316.000000</ele>
        <time>2021-09-05T10:33:39Z</time>
      </trkpt>
      <trkpt lat="42.627070" lon="0.458222">
        <ele>2316.000000</ele>
        <time>2021-09-05T10:33:40Z</time>
      </trkpt>
      <trkpt lat="42.627071" lon="0.458238">
        <ele>2316.000000</ele>
        <time>2021-09-05T10:33:41Z</time>
      </trkpt>
      <trkpt lat="42.627069" lon="0.458248">
        <ele>2316.000000</ele>
        <time>2021-09-05T10:33:42Z</time>
      </trkpt>
      <trkpt lat="42.627064" lon="0.458258">
        <ele>2315.000000</ele>
        <time>2021-09-05T10:33:43Z</time>
      </trkpt>
      <trkpt lat="42.627057" lon="0.458263">
        <ele>2315.000000</ele>
        <time>2021-09-05T10:33:44Z</time>
      </trkpt>
      <trkpt lat="42.627053" lon="0.458263">
        <ele>2315.000000</ele>
        <time>2021-09-05T10:33:46Z</time>
      </trkpt>
      <trkpt lat="42.627050" lon="0.458267">
        <ele>2315.000000</ele>
        <time>2021-09-05T10:33:47Z</time>
      </trkpt>
      <trkpt lat="42.627047" lon="0.458273">
        <ele>2315.000000</ele>
        <time>2021-09-05T10:33:47Z</time>
      </trkpt>
      <trkpt lat="42.627043" lon="0.458280">
        <ele>2315.000000</ele>
        <time>2021-09-05T10:33:48Z</time>
      </trkpt>
      <trkpt lat="42.627040" lon="0.458287">
        <ele>2315.000000</ele>
        <time>2021-09-05T10:33:49Z</time>
      </trkpt>
      <trkpt lat="42.627041" lon="0.458290">
        <ele>2315.000000</ele>
        <time>2021-09-05T10:33:50Z</time>
      </trkpt>
      <trkpt lat="42.627047" lon="0.458295">
        <ele>2315.000000</ele>
        <time>2021-09-05T10:33:51Z</time>
      </trkpt>
      <trkpt lat="42.627050" lon="0.458302">
        <ele>2315.000000</ele>
        <time>2021-09-05T10:33:52Z</time>
      </trkpt>
      <trkpt lat="42.627053" lon="0.458305">
        <ele>2315.000000</ele>
        <time>2021-09-05T10:33:53Z</time>
      </trkpt>
      <trkpt lat="42.627055" lon="0.458313">
        <ele>2315.000000</ele>
        <time>2021-09-05T10:33:54Z</time>
      </trkpt>
      <trkpt lat="42.627054" lon="0.458315">
        <ele>2315.000000</ele>
        <time>2021-09-05T10:33:55Z</time>
      </trkpt>
      <trkpt lat="42.627055" lon="0.458322">
        <ele>2315.000000</ele>
        <time>2021-09-05T10:33:56Z</time>
      </trkpt>
      <trkpt lat="42.627056" lon="0.458325">
        <ele>2315.000000</ele>
        <time>2021-09-05T10:33:57Z</time>
      </trkpt>
      <trkpt lat="42.627058" lon="0.458327">
        <ele>2315.000000</ele>
        <time>2021-09-05T10:33:58Z</time>
      </trkpt>
      <trkpt lat="42.627067" lon="0.458322">
        <ele>2315.000000</ele>
        <time>2021-09-05T10:33:59Z</time>
      </trkpt>
      <trkpt lat="42.627070" lon="0.458323">
        <ele>2314.000000</ele>
        <time>2021-09-05T10:34:00Z</time>
      </trkpt>
      <trkpt lat="42.627073" lon="0.458327">
        <ele>2314.000000</ele>
        <time>2021-09-05T10:34:02Z</time>
      </trkpt>
      <trkpt lat="42.627075" lon="0.458332">
        <ele>2314.000000</ele>
        <time>2021-09-05T10:34:03Z</time>
      </trkpt>
      <trkpt lat="42.627078" lon="0.458337">
        <ele>2314.000000</ele>
        <time>2021-09-05T10:34:04Z</time>
      </trkpt>
      <trkpt lat="42.627082" lon="0.458342">
        <ele>2314.000000</ele>
        <time>2021-09-05T10:34:06Z</time>
      </trkpt>
      <trkpt lat="42.627088" lon="0.458348">
        <ele>2314.000000</ele>
        <time>2021-09-05T10:34:06Z</time>
      </trkpt>
      <trkpt lat="42.627089" lon="0.458358">
        <ele>2314.000000</ele>
        <time>2021-09-05T10:34:07Z</time>
      </trkpt>
      <trkpt lat="42.627090" lon="0.458370">
        <ele>2313.000000</ele>
        <time>2021-09-05T10:34:08Z</time>
      </trkpt>
      <trkpt lat="42.627085" lon="0.458383">
        <ele>2313.000000</ele>
        <time>2021-09-05T10:34:09Z</time>
      </trkpt>
      <trkpt lat="42.627078" lon="0.458400">
        <ele>2313.000000</ele>
        <time>2021-09-05T10:34:10Z</time>
      </trkpt>
      <trkpt lat="42.627070" lon="0.458407">
        <ele>2313.000000</ele>
        <time>2021-09-05T10:34:11Z</time>
      </trkpt>
      <trkpt lat="42.627065" lon="0.458408">
        <ele>2312.000000</ele>
        <time>2021-09-05T10:34:12Z</time>
      </trkpt>
      <trkpt lat="42.627055" lon="0.458415">
        <ele>2312.000000</ele>
        <time>2021-09-05T10:34:13Z</time>
      </trkpt>
      <trkpt lat="42.627048" lon="0.458420">
        <ele>2312.000000</ele>
        <time>2021-09-05T10:34:14Z</time>
      </trkpt>
      <trkpt lat="42.627042" lon="0.458425">
        <ele>2312.000000</ele>
        <time>2021-09-05T10:34:15Z</time>
      </trkpt>
      <trkpt lat="42.627035" lon="0.458430">
        <ele>2311.000000</ele>
        <time>2021-09-05T10:34:16Z</time>
      </trkpt>
      <trkpt lat="42.627032" lon="0.458435">
        <ele>2311.000000</ele>
        <time>2021-09-05T10:34:17Z</time>
      </trkpt>
      <trkpt lat="42.627027" lon="0.458437">
        <ele>2311.000000</ele>
        <time>2021-09-05T10:34:19Z</time>
      </trkpt>
      <trkpt lat="42.627022" lon="0.458443">
        <ele>2311.000000</ele>
        <time>2021-09-05T10:34:21Z</time>
      </trkpt>
      <trkpt lat="42.627018" lon="0.458452">
        <ele>2311.000000</ele>
        <time>2021-09-05T10:34:22Z</time>
      </trkpt>
      <trkpt lat="42.627018" lon="0.458458">
        <ele>2311.000000</ele>
        <time>2021-09-05T10:34:23Z</time>
      </trkpt>
      <trkpt lat="42.627022" lon="0.458458">
        <ele>2311.000000</ele>
        <time>2021-09-05T10:34:24Z</time>
      </trkpt>
      <trkpt lat="42.627022" lon="0.458470">
        <ele>2311.000000</ele>
        <time>2021-09-05T10:34:25Z</time>
      </trkpt>
      <trkpt lat="42.627022" lon="0.458475">
        <ele>2311.000000</ele>
        <time>2021-09-05T10:34:26Z</time>
      </trkpt>
      <trkpt lat="42.627022" lon="0.458478">
        <ele>2311.000000</ele>
        <time>2021-09-05T10:34:27Z</time>
      </trkpt>
      <trkpt lat="42.627020" lon="0.458483">
        <ele>2311.000000</ele>
        <time>2021-09-05T10:34:30Z</time>
      </trkpt>
      <trkpt lat="42.627021" lon="0.458487">
        <ele>2310.000000</ele>
        <time>2021-09-05T10:34:30Z</time>
      </trkpt>
      <trkpt lat="42.627019" lon="0.458490">
        <ele>2310.000000</ele>
        <time>2021-09-05T10:34:31Z</time>
      </trkpt>
      <trkpt lat="42.627019" lon="0.458493">
        <ele>2310.000000</ele>
        <time>2021-09-05T10:34:32Z</time>
      </trkpt>
      <trkpt lat="42.627018" lon="0.458497">
        <ele>2310.000000</ele>
        <time>2021-09-05T10:34:33Z</time>
      </trkpt>
      <trkpt lat="42.627022" lon="0.458497">
        <ele>2310.000000</ele>
        <time>2021-09-05T10:34:34Z</time>
      </trkpt>
      <trkpt lat="42.627028" lon="0.458498">
        <ele>2310.000000</ele>
        <time>2021-09-05T10:34:35Z</time>
      </trkpt>
      <trkpt lat="42.627035" lon="0.458507">
        <ele>2309.000000</ele>
        <time>2021-09-05T10:34:36Z</time>
      </trkpt>
      <trkpt lat="42.627035" lon="0.458515">
        <ele>2309.000000</ele>
        <time>2021-09-05T10:34:37Z</time>
      </trkpt>
      <trkpt lat="42.627038" lon="0.458518">
        <ele>2309.000000</ele>
        <time>2021-09-05T10:34:38Z</time>
      </trkpt>
      <trkpt lat="42.627040" lon="0.458522">
        <ele>2309.000000</ele>
        <time>2021-09-05T10:34:39Z</time>
      </trkpt>
      <trkpt lat="42.627038" lon="0.458527">
        <ele>2308.000000</ele>
        <time>2021-09-05T10:34:40Z</time>
      </trkpt>
      <trkpt lat="42.627042" lon="0.458533">
        <ele>2308.000000</ele>
        <time>2021-09-05T10:34:41Z</time>
      </trkpt>
      <trkpt lat="42.627045" lon="0.458542">
        <ele>2308.000000</ele>
        <time>2021-09-05T10:34:42Z</time>
      </trkpt>
      <trkpt lat="42.627043" lon="0.458558">
        <ele>2308.000000</ele>
        <time>2021-09-05T10:34:43Z</time>
      </trkpt>
      <trkpt lat="42.627037" lon="0.458572">
        <ele>2307.000000</ele>
        <time>2021-09-05T10:34:44Z</time>
      </trkpt>
      <trkpt lat="42.627033" lon="0.458583">
        <ele>2307.000000</ele>
        <time>2021-09-05T10:34:45Z</time>
      </trkpt>
      <trkpt lat="42.627030" lon="0.458595">
        <ele>2307.000000</ele>
        <time>2021-09-05T10:34:46Z</time>
      </trkpt>
      <trkpt lat="42.627025" lon="0.458612">
        <ele>2307.000000</ele>
        <time>2021-09-05T10:34:47Z</time>
      </trkpt>
      <trkpt lat="42.627020" lon="0.458625">
        <ele>2307.000000</ele>
        <time>2021-09-05T10:34:49Z</time>
      </trkpt>
      <trkpt lat="42.627016" lon="0.458633">
        <ele>2306.000000</ele>
        <time>2021-09-05T10:34:49Z</time>
      </trkpt>
      <trkpt lat="42.627011" lon="0.458645">
        <ele>2306.000000</ele>
        <time>2021-09-05T10:34:50Z</time>
      </trkpt>
      <trkpt lat="42.627008" lon="0.458655">
        <ele>2306.000000</ele>
        <time>2021-09-05T10:34:51Z</time>
      </trkpt>
      <trkpt lat="42.627002" lon="0.458668">
        <ele>2306.000000</ele>
        <time>2021-09-05T10:34:52Z</time>
      </trkpt>
      <trkpt lat="42.626999" lon="0.458675">
        <ele>2305.000000</ele>
        <time>2021-09-05T10:34:53Z</time>
      </trkpt>
      <trkpt lat="42.626992" lon="0.458680">
        <ele>2305.000000</ele>
        <time>2021-09-05T10:34:54Z</time>
      </trkpt>
      <trkpt lat="42.626990" lon="0.458682">
        <ele>2305.000000</ele>
        <time>2021-09-05T10:34:55Z</time>
      </trkpt>
      <trkpt lat="42.626987" lon="0.458690">
        <ele>2305.000000</ele>
        <time>2021-09-05T10:34:56Z</time>
      </trkpt>
      <trkpt lat="42.626986" lon="0.458695">
        <ele>2305.000000</ele>
        <time>2021-09-05T10:34:57Z</time>
      </trkpt>
      <trkpt lat="42.626983" lon="0.458710">
        <ele>2305.000000</ele>
        <time>2021-09-05T10:34:58Z</time>
      </trkpt>
      <trkpt lat="42.626979" lon="0.458723">
        <ele>2305.000000</ele>
        <time>2021-09-05T10:34:59Z</time>
      </trkpt>
      <trkpt lat="42.626972" lon="0.458735">
        <ele>2305.000000</ele>
        <time>2021-09-05T10:35:00Z</time>
      </trkpt>
      <trkpt lat="42.626963" lon="0.458753">
        <ele>2304.000000</ele>
        <time>2021-09-05T10:35:01Z</time>
      </trkpt>
      <trkpt lat="42.626958" lon="0.458763">
        <ele>2304.000000</ele>
        <time>2021-09-05T10:35:02Z</time>
      </trkpt>
      <trkpt lat="42.626953" lon="0.458773">
        <ele>2304.000000</ele>
        <time>2021-09-05T10:35:03Z</time>
      </trkpt>
      <trkpt lat="42.626947" lon="0.458782">
        <ele>2304.000000</ele>
        <time>2021-09-05T10:35:04Z</time>
      </trkpt>
      <trkpt lat="42.626942" lon="0.458790">
        <ele>2304.000000</ele>
        <time>2021-09-05T10:35:05Z</time>
      </trkpt>
      <trkpt lat="42.626937" lon="0.458802">
        <ele>2303.000000</ele>
        <time>2021-09-05T10:35:06Z</time>
      </trkpt>
      <trkpt lat="42.626931" lon="0.458815">
        <ele>2303.000000</ele>
        <time>2021-09-05T10:35:07Z</time>
      </trkpt>
      <trkpt lat="42.626926" lon="0.458828">
        <ele>2303.000000</ele>
        <time>2021-09-05T10:35:08Z</time>
      </trkpt>
      <trkpt lat="42.626921" lon="0.458842">
        <ele>2303.000000</ele>
        <time>2021-09-05T10:35:09Z</time>
      </trkpt>
      <trkpt lat="42.626915" lon="0.458860">
        <ele>2303.000000</ele>
        <time>2021-09-05T10:35:10Z</time>
      </trkpt>
      <trkpt lat="42.626911" lon="0.458875">
        <ele>2303.000000</ele>
        <time>2021-09-05T10:35:11Z</time>
      </trkpt>
      <trkpt lat="42.626911" lon="0.458883">
        <ele>2303.000000</ele>
        <time>2021-09-05T10:35:13Z</time>
      </trkpt>
      <trkpt lat="42.626909" lon="0.458893">
        <ele>2303.000000</ele>
        <time>2021-09-05T10:35:13Z</time>
      </trkpt>
      <trkpt lat="42.626905" lon="0.458905">
        <ele>2303.000000</ele>
        <time>2021-09-05T10:35:14Z</time>
      </trkpt>
      <trkpt lat="42.626903" lon="0.458917">
        <ele>2303.000000</ele>
        <time>2021-09-05T10:35:15Z</time>
      </trkpt>
      <trkpt lat="42.626902" lon="0.458925">
        <ele>2303.000000</ele>
        <time>2021-09-05T10:35:16Z</time>
      </trkpt>
      <trkpt lat="42.626901" lon="0.458935">
        <ele>2303.000000</ele>
        <time>2021-09-05T10:35:17Z</time>
      </trkpt>
      <trkpt lat="42.626899" lon="0.458945">
        <ele>2303.000000</ele>
        <time>2021-09-05T10:35:18Z</time>
      </trkpt>
      <trkpt lat="42.626896" lon="0.458958">
        <ele>2303.000000</ele>
        <time>2021-09-05T10:35:19Z</time>
      </trkpt>
      <trkpt lat="42.626893" lon="0.458968">
        <ele>2303.000000</ele>
        <time>2021-09-05T10:35:20Z</time>
      </trkpt>
      <trkpt lat="42.626891" lon="0.458980">
        <ele>2303.000000</ele>
        <time>2021-09-05T10:35:21Z</time>
      </trkpt>
      <trkpt lat="42.626888" lon="0.458992">
        <ele>2303.000000</ele>
        <time>2021-09-05T10:35:22Z</time>
      </trkpt>
      <trkpt lat="42.626886" lon="0.458997">
        <ele>2303.000000</ele>
        <time>2021-09-05T10:35:23Z</time>
      </trkpt>
      <trkpt lat="42.626884" lon="0.459007">
        <ele>2303.000000</ele>
        <time>2021-09-05T10:35:24Z</time>
      </trkpt>
      <trkpt lat="42.626879" lon="0.459023">
        <ele>2303.000000</ele>
        <time>2021-09-05T10:35:25Z</time>
      </trkpt>
      <trkpt lat="42.626875" lon="0.459038">
        <ele>2303.000000</ele>
        <time>2021-09-05T10:35:26Z</time>
      </trkpt>
      <trkpt lat="42.626871" lon="0.459052">
        <ele>2303.000000</ele>
        <time>2021-09-05T10:35:27Z</time>
      </trkpt>
      <trkpt lat="42.626868" lon="0.459060">
        <ele>2303.000000</ele>
        <time>2021-09-05T10:35:28Z</time>
      </trkpt>
      <trkpt lat="42.626864" lon="0.459075">
        <ele>2303.000000</ele>
        <time>2021-09-05T10:35:29Z</time>
      </trkpt>
      <trkpt lat="42.626859" lon="0.459088">
        <ele>2303.000000</ele>
        <time>2021-09-05T10:35:30Z</time>
      </trkpt>
      <trkpt lat="42.626853" lon="0.459107">
        <ele>2303.000000</ele>
        <time>2021-09-05T10:35:31Z</time>
      </trkpt>
      <trkpt lat="42.626847" lon="0.459118">
        <ele>2303.000000</ele>
        <time>2021-09-05T10:35:32Z</time>
      </trkpt>
      <trkpt lat="42.626845" lon="0.459122">
        <ele>2303.000000</ele>
        <time>2021-09-05T10:35:33Z</time>
      </trkpt>
      <trkpt lat="42.626841" lon="0.459135">
        <ele>2303.000000</ele>
        <time>2021-09-05T10:35:34Z</time>
      </trkpt>
      <trkpt lat="42.626836" lon="0.459145">
        <ele>2303.000000</ele>
        <time>2021-09-05T10:35:35Z</time>
      </trkpt>
      <trkpt lat="42.626831" lon="0.459157">
        <ele>2302.000000</ele>
        <time>2021-09-05T10:35:37Z</time>
      </trkpt>
      <trkpt lat="42.626826" lon="0.459168">
        <ele>2302.000000</ele>
        <time>2021-09-05T10:35:37Z</time>
      </trkpt>
      <trkpt lat="42.626821" lon="0.459175">
        <ele>2302.000000</ele>
        <time>2021-09-05T10:35:38Z</time>
      </trkpt>
      <trkpt lat="42.626792" lon="0.459180">
        <ele>2302.000000</ele>
        <time>2021-09-05T10:35:39Z</time>
      </trkpt>
      <trkpt lat="42.626787" lon="0.459183">
        <ele>2302.000000</ele>
        <time>2021-09-05T10:35:40Z</time>
      </trkpt>
      <trkpt lat="42.626782" lon="0.459190">
        <ele>2301.000000</ele>
        <time>2021-09-05T10:35:41Z</time>
      </trkpt>
      <trkpt lat="42.626773" lon="0.459195">
        <ele>2301.000000</ele>
        <time>2021-09-05T10:35:42Z</time>
      </trkpt>
      <trkpt lat="42.626763" lon="0.459205">
        <ele>2301.000000</ele>
        <time>2021-09-05T10:35:43Z</time>
      </trkpt>
      <trkpt lat="42.626755" lon="0.459214">
        <ele>2301.000000</ele>
        <time>2021-09-05T10:35:44Z</time>
      </trkpt>
      <trkpt lat="42.626748" lon="0.459221">
        <ele>2301.000000</ele>
        <time>2021-09-05T10:35:45Z</time>
      </trkpt>
      <trkpt lat="42.626745" lon="0.459226">
        <ele>2301.000000</ele>
        <time>2021-09-05T10:35:46Z</time>
      </trkpt>
      <trkpt lat="42.626743" lon="0.459232">
        <ele>2301.000000</ele>
        <time>2021-09-05T10:35:47Z</time>
      </trkpt>
      <trkpt lat="42.626743" lon="0.459257">
        <ele>2300.000000</ele>
        <time>2021-09-05T10:35:48Z</time>
      </trkpt>
      <trkpt lat="42.626743" lon="0.459268">
        <ele>2300.000000</ele>
        <time>2021-09-05T10:35:49Z</time>
      </trkpt>
      <trkpt lat="42.626750" lon="0.459273">
        <ele>2300.000000</ele>
        <time>2021-09-05T10:35:50Z</time>
      </trkpt>
      <trkpt lat="42.626758" lon="0.459278">
        <ele>2300.000000</ele>
        <time>2021-09-05T10:35:51Z</time>
      </trkpt>
      <trkpt lat="42.626755" lon="0.459287">
        <ele>2300.000000</ele>
        <time>2021-09-05T10:35:52Z</time>
      </trkpt>
      <trkpt lat="42.626753" lon="0.459288">
        <ele>2300.000000</ele>
        <time>2021-09-05T10:35:53Z</time>
      </trkpt>
      <trkpt lat="42.626753" lon="0.459292">
        <ele>2300.000000</ele>
        <time>2021-09-05T10:35:54Z</time>
      </trkpt>
      <trkpt lat="42.626753" lon="0.459298">
        <ele>2300.000000</ele>
        <time>2021-09-05T10:35:57Z</time>
      </trkpt>
      <trkpt lat="42.626747" lon="0.459310">
        <ele>2300.000000</ele>
        <time>2021-09-05T10:35:57Z</time>
      </trkpt>
      <trkpt lat="42.626740" lon="0.459323">
        <ele>2300.000000</ele>
        <time>2021-09-05T10:35:58Z</time>
      </trkpt>
      <trkpt lat="42.626732" lon="0.459327">
        <ele>2300.000000</ele>
        <time>2021-09-05T10:35:59Z</time>
      </trkpt>
      <trkpt lat="42.626728" lon="0.459333">
        <ele>2300.000000</ele>
        <time>2021-09-05T10:36:00Z</time>
      </trkpt>
      <trkpt lat="42.626723" lon="0.459337">
        <ele>2300.000000</ele>
        <time>2021-09-05T10:36:01Z</time>
      </trkpt>
      <trkpt lat="42.626713" lon="0.459343">
        <ele>2299.000000</ele>
        <time>2021-09-05T10:36:03Z</time>
      </trkpt>
      <trkpt lat="42.626705" lon="0.459350">
        <ele>2299.000000</ele>
        <time>2021-09-05T10:36:04Z</time>
      </trkpt>
      <trkpt lat="42.626698" lon="0.459362">
        <ele>2299.000000</ele>
        <time>2021-09-05T10:36:05Z</time>
      </trkpt>
      <trkpt lat="42.626690" lon="0.459372">
        <ele>2299.000000</ele>
        <time>2021-09-05T10:36:06Z</time>
      </trkpt>
      <trkpt lat="42.626682" lon="0.459376">
        <ele>2298.000000</ele>
        <time>2021-09-05T10:36:07Z</time>
      </trkpt>
      <trkpt lat="42.626678" lon="0.459378">
        <ele>2298.000000</ele>
        <time>2021-09-05T10:36:08Z</time>
      </trkpt>
      <trkpt lat="42.626675" lon="0.459379">
        <ele>2298.000000</ele>
        <time>2021-09-05T10:36:09Z</time>
      </trkpt>
      <trkpt lat="42.626675" lon="0.459375">
        <ele>2298.000000</ele>
        <time>2021-09-05T10:36:10Z</time>
      </trkpt>
      <trkpt lat="42.626675" lon="0.459374">
        <ele>2297.000000</ele>
        <time>2021-09-05T10:36:11Z</time>
      </trkpt>
      <trkpt lat="42.626672" lon="0.459377">
        <ele>2297.000000</ele>
        <time>2021-09-05T10:36:12Z</time>
      </trkpt>
      <trkpt lat="42.626670" lon="0.459388">
        <ele>2297.000000</ele>
        <time>2021-09-05T10:36:13Z</time>
      </trkpt>
      <trkpt lat="42.626668" lon="0.459402">
        <ele>2297.000000</ele>
        <time>2021-09-05T10:36:14Z</time>
      </trkpt>
      <trkpt lat="42.626668" lon="0.459413">
        <ele>2297.000000</ele>
        <time>2021-09-05T10:36:15Z</time>
      </trkpt>
      <trkpt lat="42.626665" lon="0.459423">
        <ele>2296.000000</ele>
        <time>2021-09-05T10:36:16Z</time>
      </trkpt>
      <trkpt lat="42.626659" lon="0.459428">
        <ele>2296.000000</ele>
        <time>2021-09-05T10:36:17Z</time>
      </trkpt>
      <trkpt lat="42.626653" lon="0.459432">
        <ele>2296.000000</ele>
        <time>2021-09-05T10:36:18Z</time>
      </trkpt>
      <trkpt lat="42.626647" lon="0.459433">
        <ele>2296.000000</ele>
        <time>2021-09-05T10:36:19Z</time>
      </trkpt>
      <trkpt lat="42.626642" lon="0.459435">
        <ele>2296.000000</ele>
        <time>2021-09-05T10:36:21Z</time>
      </trkpt>
      <trkpt lat="42.626635" lon="0.459438">
        <ele>2295.000000</ele>
        <time>2021-09-05T10:36:21Z</time>
      </trkpt>
      <trkpt lat="42.626630" lon="0.459438">
        <ele>2295.000000</ele>
        <time>2021-09-05T10:36:22Z</time>
      </trkpt>
      <trkpt lat="42.626623" lon="0.459441">
        <ele>2295.000000</ele>
        <time>2021-09-05T10:36:23Z</time>
      </trkpt>
      <trkpt lat="42.626613" lon="0.459445">
        <ele>2294.000000</ele>
        <time>2021-09-05T10:36:24Z</time>
      </trkpt>
      <trkpt lat="42.626603" lon="0.459447">
        <ele>2294.000000</ele>
        <time>2021-09-05T10:36:25Z</time>
      </trkpt>
      <trkpt lat="42.626593" lon="0.459449">
        <ele>2294.000000</ele>
        <time>2021-09-05T10:36:26Z</time>
      </trkpt>
      <trkpt lat="42.626588" lon="0.459448">
        <ele>2294.000000</ele>
        <time>2021-09-05T10:36:27Z</time>
      </trkpt>
      <trkpt lat="42.626580" lon="0.459449">
        <ele>2293.000000</ele>
        <time>2021-09-05T10:36:28Z</time>
      </trkpt>
      <trkpt lat="42.626575" lon="0.459450">
        <ele>2293.000000</ele>
        <time>2021-09-05T10:36:30Z</time>
      </trkpt>
      <trkpt lat="42.626580" lon="0.459451">
        <ele>2292.000000</ele>
        <time>2021-09-05T10:36:31Z</time>
      </trkpt>
      <trkpt lat="42.626582" lon="0.459453">
        <ele>2292.000000</ele>
        <time>2021-09-05T10:36:32Z</time>
      </trkpt>
      <trkpt lat="42.626578" lon="0.459457">
        <ele>2292.000000</ele>
        <time>2021-09-05T10:36:33Z</time>
      </trkpt>
      <trkpt lat="42.626572" lon="0.459465">
        <ele>2291.000000</ele>
        <time>2021-09-05T10:36:34Z</time>
      </trkpt>
      <trkpt lat="42.626570" lon="0.459495">
        <ele>2291.000000</ele>
        <time>2021-09-05T10:36:35Z</time>
      </trkpt>
      <trkpt lat="42.626568" lon="0.459508">
        <ele>2290.000000</ele>
        <time>2021-09-05T10:36:36Z</time>
      </trkpt>
      <trkpt lat="42.626565" lon="0.459517">
        <ele>2290.000000</ele>
        <time>2021-09-05T10:36:37Z</time>
      </trkpt>
      <trkpt lat="42.626563" lon="0.459522">
        <ele>2290.000000</ele>
        <time>2021-09-05T10:36:38Z</time>
      </trkpt>
      <trkpt lat="42.626558" lon="0.459533">
        <ele>2290.000000</ele>
        <time>2021-09-05T10:36:39Z</time>
      </trkpt>
      <trkpt lat="42.626557" lon="0.459545">
        <ele>2289.000000</ele>
        <time>2021-09-05T10:36:40Z</time>
      </trkpt>
      <trkpt lat="42.626558" lon="0.459553">
        <ele>2289.000000</ele>
        <time>2021-09-05T10:36:41Z</time>
      </trkpt>
      <trkpt lat="42.626565" lon="0.459563">
        <ele>2289.000000</ele>
        <time>2021-09-05T10:36:42Z</time>
      </trkpt>
      <trkpt lat="42.626568" lon="0.459575">
        <ele>2289.000000</ele>
        <time>2021-09-05T10:36:44Z</time>
      </trkpt>
      <trkpt lat="42.626570" lon="0.459585">
        <ele>2289.000000</ele>
        <time>2021-09-05T10:36:44Z</time>
      </trkpt>
      <trkpt lat="42.626569" lon="0.459597">
        <ele>2289.000000</ele>
        <time>2021-09-05T10:36:45Z</time>
      </trkpt>
      <trkpt lat="42.626570" lon="0.459605">
        <ele>2289.000000</ele>
        <time>2021-09-05T10:36:46Z</time>
      </trkpt>
      <trkpt lat="42.626572" lon="0.459607">
        <ele>2289.000000</ele>
        <time>2021-09-05T10:36:47Z</time>
      </trkpt>
      <trkpt lat="42.626573" lon="0.459608">
        <ele>2288.000000</ele>
        <time>2021-09-05T10:36:48Z</time>
      </trkpt>
      <trkpt lat="42.626573" lon="0.459610">
        <ele>2288.000000</ele>
        <time>2021-09-05T10:36:49Z</time>
      </trkpt>
      <trkpt lat="42.626573" lon="0.459617">
        <ele>2288.000000</ele>
        <time>2021-09-05T10:36:50Z</time>
      </trkpt>
      <trkpt lat="42.626573" lon="0.459625">
        <ele>2287.000000</ele>
        <time>2021-09-05T10:36:51Z</time>
      </trkpt>
      <trkpt lat="42.626571" lon="0.459635">
        <ele>2287.000000</ele>
        <time>2021-09-05T10:36:52Z</time>
      </trkpt>
      <trkpt lat="42.626568" lon="0.459643">
        <ele>2287.000000</ele>
        <time>2021-09-05T10:36:53Z</time>
      </trkpt>
      <trkpt lat="42.626557" lon="0.459652">
        <ele>2287.000000</ele>
        <time>2021-09-05T10:36:54Z</time>
      </trkpt>
      <trkpt lat="42.626548" lon="0.459658">
        <ele>2287.000000</ele>
        <time>2021-09-05T10:36:55Z</time>
      </trkpt>
      <trkpt lat="42.626543" lon="0.459665">
        <ele>2287.000000</ele>
        <time>2021-09-05T10:36:56Z</time>
      </trkpt>
      <trkpt lat="42.626537" lon="0.459673">
        <ele>2287.000000</ele>
        <time>2021-09-05T10:36:57Z</time>
      </trkpt>
      <trkpt lat="42.626532" lon="0.459682">
        <ele>2286.000000</ele>
        <time>2021-09-05T10:36:58Z</time>
      </trkpt>
      <trkpt lat="42.626527" lon="0.459691">
        <ele>2286.000000</ele>
        <time>2021-09-05T10:36:59Z</time>
      </trkpt>
      <trkpt lat="42.626525" lon="0.459705">
        <ele>2286.000000</ele>
        <time>2021-09-05T10:37:00Z</time>
      </trkpt>
      <trkpt lat="42.626525" lon="0.459715">
        <ele>2286.000000</ele>
        <time>2021-09-05T10:37:01Z</time>
      </trkpt>
      <trkpt lat="42.626523" lon="0.459722">
        <ele>2286.000000</ele>
        <time>2021-09-05T10:37:02Z</time>
      </trkpt>
      <trkpt lat="42.626518" lon="0.459730">
        <ele>2285.000000</ele>
        <time>2021-09-05T10:37:04Z</time>
      </trkpt>
      <trkpt lat="42.626519" lon="0.459732">
        <ele>2285.000000</ele>
        <time>2021-09-05T10:37:04Z</time>
      </trkpt>
      <trkpt lat="42.626520" lon="0.459732">
        <ele>2285.000000</ele>
        <time>2021-09-05T10:37:05Z</time>
      </trkpt>
      <trkpt lat="42.626528" lon="0.459733">
        <ele>2284.000000</ele>
        <time>2021-09-05T10:37:06Z</time>
      </trkpt>
      <trkpt lat="42.626532" lon="0.459742">
        <ele>2284.000000</ele>
        <time>2021-09-05T10:37:07Z</time>
      </trkpt>
      <trkpt lat="42.626532" lon="0.459752">
        <ele>2284.000000</ele>
        <time>2021-09-05T10:37:08Z</time>
      </trkpt>
      <trkpt lat="42.626529" lon="0.459755">
        <ele>2283.000000</ele>
        <time>2021-09-05T10:37:09Z</time>
      </trkpt>
      <trkpt lat="42.626529" lon="0.459758">
        <ele>2283.000000</ele>
        <time>2021-09-05T10:37:10Z</time>
      </trkpt>
      <trkpt lat="42.626532" lon="0.459770">
        <ele>2283.000000</ele>
        <time>2021-09-05T10:37:11Z</time>
      </trkpt>
      <trkpt lat="42.626531" lon="0.459768">
        <ele>2283.000000</ele>
        <time>2021-09-05T10:37:12Z</time>
      </trkpt>
      <trkpt lat="42.626529" lon="0.459773">
        <ele>2283.000000</ele>
        <time>2021-09-05T10:37:13Z</time>
      </trkpt>
      <trkpt lat="42.626527" lon="0.459778">
        <ele>2282.000000</ele>
        <time>2021-09-05T10:37:15Z</time>
      </trkpt>
      <trkpt lat="42.626524" lon="0.459782">
        <ele>2282.000000</ele>
        <time>2021-09-05T10:37:15Z</time>
      </trkpt>
      <trkpt lat="42.626524" lon="0.459778">
        <ele>2282.000000</ele>
        <time>2021-09-05T10:37:16Z</time>
      </trkpt>
      <trkpt lat="42.626520" lon="0.459783">
        <ele>2282.000000</ele>
        <time>2021-09-05T10:37:17Z</time>
      </trkpt>
      <trkpt lat="42.626518" lon="0.459783">
        <ele>2282.000000</ele>
        <time>2021-09-05T10:37:18Z</time>
      </trkpt>
      <trkpt lat="42.626513" lon="0.459792">
        <ele>2282.000000</ele>
        <time>2021-09-05T10:37:19Z</time>
      </trkpt>
      <trkpt lat="42.626511" lon="0.459793">
        <ele>2282.000000</ele>
        <time>2021-09-05T10:37:20Z</time>
      </trkpt>
      <trkpt lat="42.626514" lon="0.459788">
        <ele>2281.000000</ele>
        <time>2021-09-05T10:37:21Z</time>
      </trkpt>
      <trkpt lat="42.626517" lon="0.459785">
        <ele>2281.000000</ele>
        <time>2021-09-05T10:37:22Z</time>
      </trkpt>
      <trkpt lat="42.626532" lon="0.459785">
        <ele>2281.000000</ele>
        <time>2021-09-05T10:37:23Z</time>
      </trkpt>
      <trkpt lat="42.626538" lon="0.459780">
        <ele>2280.000000</ele>
        <time>2021-09-05T10:37:24Z</time>
      </trkpt>
      <trkpt lat="42.626545" lon="0.459773">
        <ele>2280.000000</ele>
        <time>2021-09-05T10:37:25Z</time>
      </trkpt>
      <trkpt lat="42.626550" lon="0.459780">
        <ele>2280.000000</ele>
        <time>2021-09-05T10:37:27Z</time>
      </trkpt>
      <trkpt lat="42.626552" lon="0.459782">
        <ele>2280.000000</ele>
        <time>2021-09-05T10:37:27Z</time>
      </trkpt>
      <trkpt lat="42.626553" lon="0.459782">
        <ele>2280.000000</ele>
        <time>2021-09-05T10:37:28Z</time>
      </trkpt>
      <trkpt lat="42.626557" lon="0.459784">
        <ele>2280.000000</ele>
        <time>2021-09-05T10:37:29Z</time>
      </trkpt>
      <trkpt lat="42.626560" lon="0.459786">
        <ele>2280.000000</ele>
        <time>2021-09-05T10:37:30Z</time>
      </trkpt>
      <trkpt lat="42.626567" lon="0.459789">
        <ele>2279.000000</ele>
        <time>2021-09-05T10:37:31Z</time>
      </trkpt>
      <trkpt lat="42.626575" lon="0.459795">
        <ele>2279.000000</ele>
        <time>2021-09-05T10:37:32Z</time>
      </trkpt>
      <trkpt lat="42.626587" lon="0.459797">
        <ele>2278.000000</ele>
        <time>2021-09-05T10:37:33Z</time>
      </trkpt>
      <trkpt lat="42.626597" lon="0.459798">
        <ele>2278.000000</ele>
        <time>2021-09-05T10:37:34Z</time>
      </trkpt>
      <trkpt lat="42.626598" lon="0.459799">
        <ele>2278.000000</ele>
        <time>2021-09-05T10:37:35Z</time>
      </trkpt>
      <trkpt lat="42.626598" lon="0.459807">
        <ele>2278.000000</ele>
        <time>2021-09-05T10:37:36Z</time>
      </trkpt>
      <trkpt lat="42.626600" lon="0.459818">
        <ele>2278.000000</ele>
        <time>2021-09-05T10:37:37Z</time>
      </trkpt>
      <trkpt lat="42.626597" lon="0.459825">
        <ele>2277.000000</ele>
        <time>2021-09-05T10:37:38Z</time>
      </trkpt>
      <trkpt lat="42.626595" lon="0.459828">
        <ele>2277.000000</ele>
        <time>2021-09-05T10:37:39Z</time>
      </trkpt>
      <trkpt lat="42.626597" lon="0.459838">
        <ele>2277.000000</ele>
        <time>2021-09-05T10:37:40Z</time>
      </trkpt>
      <trkpt lat="42.626597" lon="0.459842">
        <ele>2277.000000</ele>
        <time>2021-09-05T10:37:41Z</time>
      </trkpt>
      <trkpt lat="42.626595" lon="0.459852">
        <ele>2277.000000</ele>
        <time>2021-09-05T10:37:42Z</time>
      </trkpt>
      <trkpt lat="42.626598" lon="0.459857">
        <ele>2276.000000</ele>
        <time>2021-09-05T10:37:43Z</time>
      </trkpt>
      <trkpt lat="42.626593" lon="0.459865">
        <ele>2276.000000</ele>
        <time>2021-09-05T10:37:44Z</time>
      </trkpt>
      <trkpt lat="42.626588" lon="0.459863">
        <ele>2276.000000</ele>
        <time>2021-09-05T10:37:45Z</time>
      </trkpt>
      <trkpt lat="42.626582" lon="0.459863">
        <ele>2275.000000</ele>
        <time>2021-09-05T10:37:47Z</time>
      </trkpt>
      <trkpt lat="42.626580" lon="0.459868">
        <ele>2275.000000</ele>
        <time>2021-09-05T10:37:47Z</time>
      </trkpt>
      <trkpt lat="42.626573" lon="0.459879">
        <ele>2275.000000</ele>
        <time>2021-09-05T10:37:48Z</time>
      </trkpt>
      <trkpt lat="42.626570" lon="0.459884">
        <ele>2275.000000</ele>
        <time>2021-09-05T10:37:49Z</time>
      </trkpt>
      <trkpt lat="42.626565" lon="0.459894">
        <ele>2274.000000</ele>
        <time>2021-09-05T10:37:50Z</time>
      </trkpt>
      <trkpt lat="42.626562" lon="0.459908">
        <ele>2274.000000</ele>
        <time>2021-09-05T10:37:51Z</time>
      </trkpt>
      <trkpt lat="42.626556" lon="0.459923">
        <ele>2274.000000</ele>
        <time>2021-09-05T10:37:52Z</time>
      </trkpt>
      <trkpt lat="42.626554" lon="0.459935">
        <ele>2274.000000</ele>
        <time>2021-09-05T10:37:53Z</time>
      </trkpt>
      <trkpt lat="42.626553" lon="0.459940">
        <ele>2274.000000</ele>
        <time>2021-09-05T10:37:54Z</time>
      </trkpt>
      <trkpt lat="42.626551" lon="0.459950">
        <ele>2274.000000</ele>
        <time>2021-09-05T10:37:55Z</time>
      </trkpt>
      <trkpt lat="42.626552" lon="0.459952">
        <ele>2274.000000</ele>
        <time>2021-09-05T10:37:56Z</time>
      </trkpt>
      <trkpt lat="42.626551" lon="0.459955">
        <ele>2274.000000</ele>
        <time>2021-09-05T10:37:57Z</time>
      </trkpt>
      <trkpt lat="42.626547" lon="0.459957">
        <ele>2274.000000</ele>
        <time>2021-09-05T10:37:58Z</time>
      </trkpt>
      <trkpt lat="42.626540" lon="0.459962">
        <ele>2274.000000</ele>
        <time>2021-09-05T10:37:59Z</time>
      </trkpt>
      <trkpt lat="42.626538" lon="0.459963">
        <ele>2274.000000</ele>
        <time>2021-09-05T10:38:00Z</time>
      </trkpt>
      <trkpt lat="42.626537" lon="0.459969">
        <ele>2273.000000</ele>
        <time>2021-09-05T10:38:01Z</time>
      </trkpt>
      <trkpt lat="42.626533" lon="0.459980">
        <ele>2273.000000</ele>
        <time>2021-09-05T10:38:02Z</time>
      </trkpt>
      <trkpt lat="42.626532" lon="0.459989">
        <ele>2273.000000</ele>
        <time>2021-09-05T10:38:03Z</time>
      </trkpt>
      <trkpt lat="42.626528" lon="0.460000">
        <ele>2273.000000</ele>
        <time>2021-09-05T10:38:04Z</time>
      </trkpt>
      <trkpt lat="42.626528" lon="0.460001">
        <ele>2272.000000</ele>
        <time>2021-09-05T10:38:05Z</time>
      </trkpt>
      <trkpt lat="42.626528" lon="0.460001">
        <ele>2272.000000</ele>
        <time>2021-09-05T10:38:07Z</time>
      </trkpt>
      <trkpt lat="42.626530" lon="0.459996">
        <ele>2272.000000</ele>
        <time>2021-09-05T10:38:08Z</time>
      </trkpt>
      <trkpt lat="42.626532" lon="0.459991">
        <ele>2272.000000</ele>
        <time>2021-09-05T10:38:10Z</time>
      </trkpt>
      <trkpt lat="42.626533" lon="0.459988">
        <ele>2272.000000</ele>
        <time>2021-09-05T10:38:10Z</time>
      </trkpt>
      <trkpt lat="42.626535" lon="0.459984">
        <ele>2272.000000</ele>
        <time>2021-09-05T10:38:11Z</time>
      </trkpt>
      <trkpt lat="42.626538" lon="0.459982">
        <ele>2272.000000</ele>
        <time>2021-09-05T10:38:12Z</time>
      </trkpt>
      <trkpt lat="42.626542" lon="0.459984">
        <ele>2272.000000</ele>
        <time>2021-09-05T10:38:13Z</time>
      </trkpt>
      <trkpt lat="42.626547" lon="0.459997">
        <ele>2271.000000</ele>
        <time>2021-09-05T10:38:15Z</time>
      </trkpt>
      <trkpt lat="42.626548" lon="0.459997">
        <ele>2271.000000</ele>
        <time>2021-09-05T10:38:16Z</time>
      </trkpt>
      <trkpt lat="42.626551" lon="0.459995">
        <ele>2271.000000</ele>
        <time>2021-09-05T10:38:17Z</time>
      </trkpt>
      <trkpt lat="42.626550" lon="0.459995">
        <ele>2271.000000</ele>
        <time>2021-09-05T10:38:18Z</time>
      </trkpt>
      <trkpt lat="42.626548" lon="0.459990">
        <ele>2270.000000</ele>
        <time>2021-09-05T10:38:20Z</time>
      </trkpt>
      <trkpt lat="42.626548" lon="0.459985">
        <ele>2270.000000</ele>
        <time>2021-09-05T10:38:21Z</time>
      </trkpt>
      <trkpt lat="42.626548" lon="0.459978">
        <ele>2270.000000</ele>
        <time>2021-09-05T10:38:22Z</time>
      </trkpt>
      <trkpt lat="42.626548" lon="0.459973">
        <ele>2270.000000</ele>
        <time>2021-09-05T10:38:23Z</time>
      </trkpt>
      <trkpt lat="42.626549" lon="0.459972">
        <ele>2270.000000</ele>
        <time>2021-09-05T10:38:24Z</time>
      </trkpt>
      <trkpt lat="42.626552" lon="0.459972">
        <ele>2270.000000</ele>
        <time>2021-09-05T10:38:27Z</time>
      </trkpt>
      <trkpt lat="42.626552" lon="0.459967">
        <ele>2269.000000</ele>
        <time>2021-09-05T10:38:29Z</time>
      </trkpt>
      <trkpt lat="42.626550" lon="0.459968">
        <ele>2269.000000</ele>
        <time>2021-09-05T10:38:30Z</time>
      </trkpt>
      <trkpt lat="42.626548" lon="0.459965">
        <ele>2269.000000</ele>
        <time>2021-09-05T10:38:31Z</time>
      </trkpt>
      <trkpt lat="42.626548" lon="0.459963">
        <ele>2269.000000</ele>
        <time>2021-09-05T10:38:32Z</time>
      </trkpt>
      <trkpt lat="42.626548" lon="0.459962">
        <ele>2269.000000</ele>
        <time>2021-09-05T10:38:34Z</time>
      </trkpt>
      <trkpt lat="42.626549" lon="0.459963">
        <ele>2269.000000</ele>
        <time>2021-09-05T10:38:34Z</time>
      </trkpt>
      <trkpt lat="42.626549" lon="0.459965">
        <ele>2269.000000</ele>
        <time>2021-09-05T10:38:36Z</time>
      </trkpt>
      <trkpt lat="42.626548" lon="0.459968">
        <ele>2269.000000</ele>
        <time>2021-09-05T10:38:37Z</time>
      </trkpt>
      <trkpt lat="42.626537" lon="0.459977">
        <ele>2269.000000</ele>
        <time>2021-09-05T10:38:40Z</time>
      </trkpt>
      <trkpt lat="42.626535" lon="0.459972">
        <ele>2269.000000</ele>
        <time>2021-09-05T10:38:41Z</time>
      </trkpt>
      <trkpt lat="42.626537" lon="0.459970">
        <ele>2268.000000</ele>
        <time>2021-09-05T10:38:43Z</time>
      </trkpt>
      <trkpt lat="42.626538" lon="0.459979">
        <ele>2268.000000</ele>
        <time>2021-09-05T10:38:44Z</time>
      </trkpt>
      <trkpt lat="42.626542" lon="0.459981">
        <ele>2268.000000</ele>
        <time>2021-09-05T10:38:46Z</time>
      </trkpt>
      <trkpt lat="42.626547" lon="0.459982">
        <ele>2268.000000</ele>
        <time>2021-09-05T10:38:46Z</time>
      </trkpt>
      <trkpt lat="42.626550" lon="0.459983">
        <ele>2268.000000</ele>
        <time>2021-09-05T10:38:47Z</time>
      </trkpt>
      <trkpt lat="42.626552" lon="0.459984">
        <ele>2268.000000</ele>
        <time>2021-09-05T10:38:48Z</time>
      </trkpt>
      <trkpt lat="42.626550" lon="0.459986">
        <ele>2268.000000</ele>
        <time>2021-09-05T10:38:49Z</time>
      </trkpt>
      <trkpt lat="42.626552" lon="0.459992">
        <ele>2268.000000</ele>
        <time>2021-09-05T10:38:50Z</time>
      </trkpt>
      <trkpt lat="42.626553" lon="0.459999">
        <ele>2268.000000</ele>
        <time>2021-09-05T10:38:51Z</time>
      </trkpt>
      <trkpt lat="42.626555" lon="0.460006">
        <ele>2268.000000</ele>
        <time>2021-09-05T10:38:52Z</time>
      </trkpt>
      <trkpt lat="42.626558" lon="0.460014">
        <ele>2268.000000</ele>
        <time>2021-09-05T10:38:54Z</time>
      </trkpt>
      <trkpt lat="42.626560" lon="0.460016">
        <ele>2267.000000</ele>
        <time>2021-09-05T10:38:54Z</time>
      </trkpt>
      <trkpt lat="42.626567" lon="0.460022">
        <ele>2267.000000</ele>
        <time>2021-09-05T10:38:55Z</time>
      </trkpt>
      <trkpt lat="42.626573" lon="0.460022">
        <ele>2267.000000</ele>
        <time>2021-09-05T10:38:56Z</time>
      </trkpt>
      <trkpt lat="42.626580" lon="0.460021">
        <ele>2267.000000</ele>
        <time>2021-09-05T10:38:57Z</time>
      </trkpt>
      <trkpt lat="42.626585" lon="0.460020">
        <ele>2267.000000</ele>
        <time>2021-09-05T10:38:58Z</time>
      </trkpt>
      <trkpt lat="42.626587" lon="0.460018">
        <ele>2267.000000</ele>
        <time>2021-09-05T10:38:59Z</time>
      </trkpt>
      <trkpt lat="42.626585" lon="0.460015">
        <ele>2267.000000</ele>
        <time>2021-09-05T10:39:00Z</time>
      </trkpt>
      <trkpt lat="42.626583" lon="0.460018">
        <ele>2267.000000</ele>
        <time>2021-09-05T10:39:01Z</time>
      </trkpt>
      <trkpt lat="42.626585" lon="0.460014">
        <ele>2267.000000</ele>
        <time>2021-09-05T10:39:03Z</time>
      </trkpt>
      <trkpt lat="42.626590" lon="0.460008">
        <ele>2267.000000</ele>
        <time>2021-09-05T10:39:04Z</time>
      </trkpt>
      <trkpt lat="42.626595" lon="0.460003">
        <ele>2267.000000</ele>
        <time>2021-09-05T10:39:05Z</time>
      </trkpt>
      <trkpt lat="42.626598" lon="0.459999">
        <ele>2267.000000</ele>
        <time>2021-09-05T10:39:07Z</time>
      </trkpt>
      <trkpt lat="42.626607" lon="0.459998">
        <ele>2267.000000</ele>
        <time>2021-09-05T10:39:09Z</time>
      </trkpt>
      <trkpt lat="42.626612" lon="0.460002">
        <ele>2267.000000</ele>
        <time>2021-09-05T10:39:10Z</time>
      </trkpt>
      <trkpt lat="42.626622" lon="0.460001">
        <ele>2267.000000</ele>
        <time>2021-09-05T10:39:11Z</time>
      </trkpt>
      <trkpt lat="42.626623" lon="0.460001">
        <ele>2267.000000</ele>
        <time>2021-09-05T10:39:12Z</time>
      </trkpt>
      <trkpt lat="42.626622" lon="0.460001">
        <ele>2267.000000</ele>
        <time>2021-09-05T10:39:13Z</time>
      </trkpt>
      <trkpt lat="42.626625" lon="0.460002">
        <ele>2266.000000</ele>
        <time>2021-09-05T10:39:14Z</time>
      </trkpt>
      <trkpt lat="42.626627" lon="0.460004">
        <ele>2266.000000</ele>
        <time>2021-09-05T10:39:15Z</time>
      </trkpt>
      <trkpt lat="42.626630" lon="0.460005">
        <ele>2266.000000</ele>
        <time>2021-09-05T10:39:17Z</time>
      </trkpt>
      <trkpt lat="42.626633" lon="0.460007">
        <ele>2266.000000</ele>
        <time>2021-09-05T10:39:17Z</time>
      </trkpt>
      <trkpt lat="42.626638" lon="0.460009">
        <ele>2266.000000</ele>
        <time>2021-09-05T10:39:18Z</time>
      </trkpt>
      <trkpt lat="42.626640" lon="0.460010">
        <ele>2266.000000</ele>
        <time>2021-09-05T10:39:19Z</time>
      </trkpt>
      <trkpt lat="42.626640" lon="0.460012">
        <ele>2266.000000</ele>
        <time>2021-09-05T10:39:20Z</time>
      </trkpt>
      <trkpt lat="42.626643" lon="0.460014">
        <ele>2265.000000</ele>
        <time>2021-09-05T10:39:21Z</time>
      </trkpt>
      <trkpt lat="42.626645" lon="0.460032">
        <ele>2265.000000</ele>
        <time>2021-09-05T10:39:22Z</time>
      </trkpt>
      <trkpt lat="42.626650" lon="0.460033">
        <ele>2265.000000</ele>
        <time>2021-09-05T10:39:23Z</time>
      </trkpt>
      <trkpt lat="42.626657" lon="0.460034">
        <ele>2265.000000</ele>
        <time>2021-09-05T10:39:24Z</time>
      </trkpt>
      <trkpt lat="42.626662" lon="0.460037">
        <ele>2265.000000</ele>
        <time>2021-09-05T10:39:25Z</time>
      </trkpt>
      <trkpt lat="42.626662" lon="0.460040">
        <ele>2265.000000</ele>
        <time>2021-09-05T10:39:26Z</time>
      </trkpt>
      <trkpt lat="42.626663" lon="0.460043">
        <ele>2264.000000</ele>
        <time>2021-09-05T10:39:27Z</time>
      </trkpt>
      <trkpt lat="42.626667" lon="0.460046">
        <ele>2264.000000</ele>
        <time>2021-09-05T10:39:28Z</time>
      </trkpt>
      <trkpt lat="42.626670" lon="0.460048">
        <ele>2264.000000</ele>
        <time>2021-09-05T10:39:29Z</time>
      </trkpt>
      <trkpt lat="42.626672" lon="0.460051">
        <ele>2264.000000</ele>
        <time>2021-09-05T10:39:30Z</time>
      </trkpt>
      <trkpt lat="42.626670" lon="0.460052">
        <ele>2264.000000</ele>
        <time>2021-09-05T10:39:31Z</time>
      </trkpt>
      <trkpt lat="42.626670" lon="0.460052">
        <ele>2263.000000</ele>
        <time>2021-09-05T10:39:32Z</time>
      </trkpt>
      <trkpt lat="42.626668" lon="0.460052">
        <ele>2263.000000</ele>
        <time>2021-09-05T10:39:33Z</time>
      </trkpt>
      <trkpt lat="42.626663" lon="0.460048">
        <ele>2263.000000</ele>
        <time>2021-09-05T10:39:35Z</time>
      </trkpt>
      <trkpt lat="42.626667" lon="0.460053">
        <ele>2263.000000</ele>
        <time>2021-09-05T10:39:36Z</time>
      </trkpt>
      <trkpt lat="42.626670" lon="0.460058">
        <ele>2263.000000</ele>
        <time>2021-09-05T10:39:37Z</time>
      </trkpt>
      <trkpt lat="42.626670" lon="0.460061">
        <ele>2263.000000</ele>
        <time>2021-09-05T10:39:38Z</time>
      </trkpt>
      <trkpt lat="42.626665" lon="0.460087">
        <ele>2263.000000</ele>
        <time>2021-09-05T10:39:39Z</time>
      </trkpt>
      <trkpt lat="42.626665" lon="0.460092">
        <ele>2263.000000</ele>
        <time>2021-09-05T10:39:40Z</time>
      </trkpt>
      <trkpt lat="42.626670" lon="0.460093">
        <ele>2263.000000</ele>
        <time>2021-09-05T10:39:42Z</time>
      </trkpt>
      <trkpt lat="42.626678" lon="0.460092">
        <ele>2262.000000</ele>
        <time>2021-09-05T10:39:42Z</time>
      </trkpt>
      <trkpt lat="42.626690" lon="0.460077">
        <ele>2262.000000</ele>
        <time>2021-09-05T10:39:43Z</time>
      </trkpt>
      <trkpt lat="42.626698" lon="0.460073">
        <ele>2262.000000</ele>
        <time>2021-09-05T10:39:44Z</time>
      </trkpt>
      <trkpt lat="42.626707" lon="0.460067">
        <ele>2262.000000</ele>
        <time>2021-09-05T10:39:45Z</time>
      </trkpt>
      <trkpt lat="42.626718" lon="0.460057">
        <ele>2262.000000</ele>
        <time>2021-09-05T10:39:46Z</time>
      </trkpt>
      <trkpt lat="42.626723" lon="0.460052">
        <ele>2262.000000</ele>
        <time>2021-09-05T10:39:47Z</time>
      </trkpt>
      <trkpt lat="42.626730" lon="0.460052">
        <ele>2262.000000</ele>
        <time>2021-09-05T10:39:48Z</time>
      </trkpt>
      <trkpt lat="42.626737" lon="0.460054">
        <ele>2262.000000</ele>
        <time>2021-09-05T10:39:49Z</time>
      </trkpt>
      <trkpt lat="42.626743" lon="0.460057">
        <ele>2262.000000</ele>
        <time>2021-09-05T10:39:50Z</time>
      </trkpt>
      <trkpt lat="42.626752" lon="0.460063">
        <ele>2262.000000</ele>
        <time>2021-09-05T10:39:51Z</time>
      </trkpt>
      <trkpt lat="42.626752" lon="0.460070">
        <ele>2262.000000</ele>
        <time>2021-09-05T10:39:52Z</time>
      </trkpt>
      <trkpt lat="42.626762" lon="0.460063">
        <ele>2262.000000</ele>
        <time>2021-09-05T10:39:53Z</time>
      </trkpt>
      <trkpt lat="42.626768" lon="0.460060">
        <ele>2261.000000</ele>
        <time>2021-09-05T10:39:54Z</time>
      </trkpt>
      <trkpt lat="42.626770" lon="0.460060">
        <ele>2261.000000</ele>
        <time>2021-09-05T10:39:55Z</time>
      </trkpt>
      <trkpt lat="42.626777" lon="0.460061">
        <ele>2261.000000</ele>
        <time>2021-09-05T10:39:56Z</time>
      </trkpt>
      <trkpt lat="42.626790" lon="0.460059">
        <ele>2261.000000</ele>
        <time>2021-09-05T10:39:57Z</time>
      </trkpt>
      <trkpt lat="42.626802" lon="0.460051">
        <ele>2260.000000</ele>
        <time>2021-09-05T10:39:58Z</time>
      </trkpt>
      <trkpt lat="42.626815" lon="0.460038">
        <ele>2260.000000</ele>
        <time>2021-09-05T10:39:59Z</time>
      </trkpt>
      <trkpt lat="42.626822" lon="0.460033">
        <ele>2260.000000</ele>
        <time>2021-09-05T10:40:00Z</time>
      </trkpt>
      <trkpt lat="42.626825" lon="0.460030">
        <ele>2260.000000</ele>
        <time>2021-09-05T10:40:02Z</time>
      </trkpt>
      <trkpt lat="42.626825" lon="0.460027">
        <ele>2260.000000</ele>
        <time>2021-09-05T10:40:02Z</time>
      </trkpt>
      <trkpt lat="42.626828" lon="0.460027">
        <ele>2260.000000</ele>
        <time>2021-09-05T10:40:03Z</time>
      </trkpt>
      <trkpt lat="42.626833" lon="0.460031">
        <ele>2259.000000</ele>
        <time>2021-09-05T10:40:04Z</time>
      </trkpt>
      <trkpt lat="42.626838" lon="0.460036">
        <ele>2259.000000</ele>
        <time>2021-09-05T10:40:05Z</time>
      </trkpt>
      <trkpt lat="42.626847" lon="0.460042">
        <ele>2259.000000</ele>
        <time>2021-09-05T10:40:06Z</time>
      </trkpt>
      <trkpt lat="42.626852" lon="0.460049">
        <ele>2259.000000</ele>
        <time>2021-09-05T10:40:07Z</time>
      </trkpt>
      <trkpt lat="42.626855" lon="0.460056">
        <ele>2258.000000</ele>
        <time>2021-09-05T10:40:08Z</time>
      </trkpt>
      <trkpt lat="42.626858" lon="0.460053">
        <ele>2258.000000</ele>
        <time>2021-09-05T10:40:10Z</time>
      </trkpt>
      <trkpt lat="42.626862" lon="0.460048">
        <ele>2258.000000</ele>
        <time>2021-09-05T10:40:11Z</time>
      </trkpt>
      <trkpt lat="42.626865" lon="0.460042">
        <ele>2257.000000</ele>
        <time>2021-09-05T10:40:12Z</time>
      </trkpt>
      <trkpt lat="42.626867" lon="0.460033">
        <ele>2257.000000</ele>
        <time>2021-09-05T10:40:13Z</time>
      </trkpt>
      <trkpt lat="42.626873" lon="0.460027">
        <ele>2257.000000</ele>
        <time>2021-09-05T10:40:14Z</time>
      </trkpt>
      <trkpt lat="42.626882" lon="0.460025">
        <ele>2257.000000</ele>
        <time>2021-09-05T10:40:15Z</time>
      </trkpt>
      <trkpt lat="42.626888" lon="0.460022">
        <ele>2257.000000</ele>
        <time>2021-09-05T10:40:16Z</time>
      </trkpt>
      <trkpt lat="42.626893" lon="0.460026">
        <ele>2256.000000</ele>
        <time>2021-09-05T10:40:17Z</time>
      </trkpt>
      <trkpt lat="42.626897" lon="0.460031">
        <ele>2256.000000</ele>
        <time>2021-09-05T10:40:18Z</time>
      </trkpt>
      <trkpt lat="42.626897" lon="0.460040">
        <ele>2256.000000</ele>
        <time>2021-09-05T10:40:19Z</time>
      </trkpt>
      <trkpt lat="42.626897" lon="0.460043">
        <ele>2256.000000</ele>
        <time>2021-09-05T10:40:20Z</time>
      </trkpt>
      <trkpt lat="42.626892" lon="0.460052">
        <ele>2256.000000</ele>
        <time>2021-09-05T10:40:22Z</time>
      </trkpt>
      <trkpt lat="42.626890" lon="0.460049">
        <ele>2255.000000</ele>
        <time>2021-09-05T10:40:24Z</time>
      </trkpt>
      <trkpt lat="42.626890" lon="0.460047">
        <ele>2255.000000</ele>
        <time>2021-09-05T10:40:26Z</time>
      </trkpt>
      <trkpt lat="42.626893" lon="0.460043">
        <ele>2255.000000</ele>
        <time>2021-09-05T10:40:26Z</time>
      </trkpt>
      <trkpt lat="42.626893" lon="0.460042">
        <ele>2255.000000</ele>
        <time>2021-09-05T10:40:28Z</time>
      </trkpt>
      <trkpt lat="42.626897" lon="0.460036">
        <ele>2255.000000</ele>
        <time>2021-09-05T10:40:29Z</time>
      </trkpt>
      <trkpt lat="42.626900" lon="0.460030">
        <ele>2255.000000</ele>
        <time>2021-09-05T10:40:30Z</time>
      </trkpt>
      <trkpt lat="42.626902" lon="0.460027">
        <ele>2255.000000</ele>
        <time>2021-09-05T10:40:31Z</time>
      </trkpt>
      <trkpt lat="42.626912" lon="0.460016">
        <ele>2255.000000</ele>
        <time>2021-09-05T10:40:32Z</time>
      </trkpt>
      <trkpt lat="42.626915" lon="0.460015">
        <ele>2255.000000</ele>
        <time>2021-09-05T10:40:33Z</time>
      </trkpt>
      <trkpt lat="42.626922" lon="0.460015">
        <ele>2255.000000</ele>
        <time>2021-09-05T10:40:34Z</time>
      </trkpt>
      <trkpt lat="42.626925" lon="0.460035">
        <ele>2255.000000</ele>
        <time>2021-09-05T10:40:35Z</time>
      </trkpt>
      <trkpt lat="42.626930" lon="0.460040">
        <ele>2255.000000</ele>
        <time>2021-09-05T10:40:36Z</time>
      </trkpt>
      <trkpt lat="42.626933" lon="0.460052">
        <ele>2254.000000</ele>
        <time>2021-09-05T10:40:37Z</time>
      </trkpt>
      <trkpt lat="42.626930" lon="0.460065">
        <ele>2254.000000</ele>
        <time>2021-09-05T10:40:38Z</time>
      </trkpt>
      <trkpt lat="42.626928" lon="0.460068">
        <ele>2254.000000</ele>
        <time>2021-09-05T10:40:39Z</time>
      </trkpt>
      <trkpt lat="42.626925" lon="0.460082">
        <ele>2254.000000</ele>
        <time>2021-09-05T10:40:40Z</time>
      </trkpt>
      <trkpt lat="42.626920" lon="0.460097">
        <ele>2254.000000</ele>
        <time>2021-09-05T10:40:41Z</time>
      </trkpt>
      <trkpt lat="42.626917" lon="0.460105">
        <ele>2254.000000</ele>
        <time>2021-09-05T10:40:42Z</time>
      </trkpt>
      <trkpt lat="42.626910" lon="0.460112">
        <ele>2254.000000</ele>
        <time>2021-09-05T10:40:43Z</time>
      </trkpt>
      <trkpt lat="42.626905" lon="0.460115">
        <ele>2253.000000</ele>
        <time>2021-09-05T10:40:44Z</time>
      </trkpt>
      <trkpt lat="42.626905" lon="0.460123">
        <ele>2253.000000</ele>
        <time>2021-09-05T10:40:45Z</time>
      </trkpt>
      <trkpt lat="42.626903" lon="0.460137">
        <ele>2253.000000</ele>
        <time>2021-09-05T10:40:46Z</time>
      </trkpt>
      <trkpt lat="42.626903" lon="0.460147">
        <ele>2253.000000</ele>
        <time>2021-09-05T10:40:47Z</time>
      </trkpt>
      <trkpt lat="42.626907" lon="0.460155">
        <ele>2252.000000</ele>
        <time>2021-09-05T10:40:48Z</time>
      </trkpt>
      <trkpt lat="42.626907" lon="0.460165">
        <ele>2252.000000</ele>
        <time>2021-09-05T10:40:49Z</time>
      </trkpt>
      <trkpt lat="42.626905" lon="0.460173">
        <ele>2252.000000</ele>
        <time>2021-09-05T10:40:50Z</time>
      </trkpt>
      <trkpt lat="42.626897" lon="0.460183">
        <ele>2251.000000</ele>
        <time>2021-09-05T10:40:51Z</time>
      </trkpt>
      <trkpt lat="42.626895" lon="0.460195">
        <ele>2251.000000</ele>
        <time>2021-09-05T10:40:52Z</time>
      </trkpt>
      <trkpt lat="42.626893" lon="0.460208">
        <ele>2251.000000</ele>
        <time>2021-09-05T10:40:53Z</time>
      </trkpt>
      <trkpt lat="42.626892" lon="0.460218">
        <ele>2251.000000</ele>
        <time>2021-09-05T10:40:54Z</time>
      </trkpt>
      <trkpt lat="42.626891" lon="0.460228">
        <ele>2251.000000</ele>
        <time>2021-09-05T10:40:55Z</time>
      </trkpt>
      <trkpt lat="42.626889" lon="0.460232">
        <ele>2251.000000</ele>
        <time>2021-09-05T10:40:56Z</time>
      </trkpt>
      <trkpt lat="42.626886" lon="0.460233">
        <ele>2250.000000</ele>
        <time>2021-09-05T10:40:57Z</time>
      </trkpt>
      <trkpt lat="42.626875" lon="0.460237">
        <ele>2250.000000</ele>
        <time>2021-09-05T10:40:58Z</time>
      </trkpt>
      <trkpt lat="42.626870" lon="0.460243">
        <ele>2250.000000</ele>
        <time>2021-09-05T10:40:59Z</time>
      </trkpt>
      <trkpt lat="42.626863" lon="0.460247">
        <ele>2250.000000</ele>
        <time>2021-09-05T10:41:00Z</time>
      </trkpt>
      <trkpt lat="42.626862" lon="0.460250">
        <ele>2249.000000</ele>
        <time>2021-09-05T10:41:01Z</time>
      </trkpt>
      <trkpt lat="42.626860" lon="0.460253">
        <ele>2249.000000</ele>
        <time>2021-09-05T10:41:03Z</time>
      </trkpt>
      <trkpt lat="42.626862" lon="0.460250">
        <ele>2249.000000</ele>
        <time>2021-09-05T10:41:04Z</time>
      </trkpt>
      <trkpt lat="42.626860" lon="0.460255">
        <ele>2249.000000</ele>
        <time>2021-09-05T10:41:06Z</time>
      </trkpt>
      <trkpt lat="42.626865" lon="0.460248">
        <ele>2249.000000</ele>
        <time>2021-09-05T10:41:07Z</time>
      </trkpt>
      <trkpt lat="42.626875" lon="0.460246">
        <ele>2249.000000</ele>
        <time>2021-09-05T10:41:09Z</time>
      </trkpt>
      <trkpt lat="42.626883" lon="0.460240">
        <ele>2249.000000</ele>
        <time>2021-09-05T10:41:09Z</time>
      </trkpt>
      <trkpt lat="42.626892" lon="0.460238">
        <ele>2248.000000</ele>
        <time>2021-09-05T10:41:11Z</time>
      </trkpt>
      <trkpt lat="42.626897" lon="0.460240">
        <ele>2248.000000</ele>
        <time>2021-09-05T10:41:12Z</time>
      </trkpt>
      <trkpt lat="42.626898" lon="0.460243">
        <ele>2248.000000</ele>
        <time>2021-09-05T10:41:13Z</time>
      </trkpt>
      <trkpt lat="42.626898" lon="0.460247">
        <ele>2248.000000</ele>
        <time>2021-09-05T10:41:14Z</time>
      </trkpt>
      <trkpt lat="42.626897" lon="0.460253">
        <ele>2248.000000</ele>
        <time>2021-09-05T10:41:15Z</time>
      </trkpt>
      <trkpt lat="42.626895" lon="0.460263">
        <ele>2248.000000</ele>
        <time>2021-09-05T10:41:16Z</time>
      </trkpt>
      <trkpt lat="42.626893" lon="0.460273">
        <ele>2248.000000</ele>
        <time>2021-09-05T10:41:17Z</time>
      </trkpt>
      <trkpt lat="42.626885" lon="0.460277">
        <ele>2247.000000</ele>
        <time>2021-09-05T10:41:19Z</time>
      </trkpt>
      <trkpt lat="42.626880" lon="0.460278">
        <ele>2247.000000</ele>
        <time>2021-09-05T10:41:20Z</time>
      </trkpt>
      <trkpt lat="42.626875" lon="0.460282">
        <ele>2247.000000</ele>
        <time>2021-09-05T10:41:21Z</time>
      </trkpt>
      <trkpt lat="42.626870" lon="0.460285">
        <ele>2247.000000</ele>
        <time>2021-09-05T10:41:22Z</time>
      </trkpt>
      <trkpt lat="42.626866" lon="0.460290">
        <ele>2246.000000</ele>
        <time>2021-09-05T10:41:24Z</time>
      </trkpt>
      <trkpt lat="42.626865" lon="0.460295">
        <ele>2246.000000</ele>
        <time>2021-09-05T10:41:25Z</time>
      </trkpt>
      <trkpt lat="42.626862" lon="0.460302">
        <ele>2246.000000</ele>
        <time>2021-09-05T10:41:26Z</time>
      </trkpt>
      <trkpt lat="42.626863" lon="0.460305">
        <ele>2245.000000</ele>
        <time>2021-09-05T10:41:27Z</time>
      </trkpt>
      <trkpt lat="42.626863" lon="0.460307">
        <ele>2245.000000</ele>
        <time>2021-09-05T10:41:28Z</time>
      </trkpt>
      <trkpt lat="42.626864" lon="0.460308">
        <ele>2245.000000</ele>
        <time>2021-09-05T10:41:29Z</time>
      </trkpt>
      <trkpt lat="42.626864" lon="0.460310">
        <ele>2245.000000</ele>
        <time>2021-09-05T10:41:30Z</time>
      </trkpt>
      <trkpt lat="42.626862" lon="0.460310">
        <ele>2244.000000</ele>
        <time>2021-09-05T10:41:32Z</time>
      </trkpt>
      <trkpt lat="42.626863" lon="0.460307">
        <ele>2244.000000</ele>
        <time>2021-09-05T10:41:32Z</time>
      </trkpt>
      <trkpt lat="42.626897" lon="0.460307">
        <ele>2244.000000</ele>
        <time>2021-09-05T10:41:45Z</time>
      </trkpt>
      <trkpt lat="42.626905" lon="0.460307">
        <ele>2244.000000</ele>
        <time>2021-09-05T10:41:46Z</time>
      </trkpt>
      <trkpt lat="42.626913" lon="0.460311">
        <ele>2243.000000</ele>
        <time>2021-09-05T10:41:47Z</time>
      </trkpt>
      <trkpt lat="42.626923" lon="0.460317">
        <ele>2243.000000</ele>
        <time>2021-09-05T10:41:48Z</time>
      </trkpt>
      <trkpt lat="42.626933" lon="0.460320">
        <ele>2243.000000</ele>
        <time>2021-09-05T10:41:49Z</time>
      </trkpt>
      <trkpt lat="42.626933" lon="0.460332">
        <ele>2243.000000</ele>
        <time>2021-09-05T10:41:51Z</time>
      </trkpt>
      <trkpt lat="42.626940" lon="0.460337">
        <ele>2243.000000</ele>
        <time>2021-09-05T10:41:51Z</time>
      </trkpt>
      <trkpt lat="42.626943" lon="0.460336">
        <ele>2243.000000</ele>
        <time>2021-09-05T10:41:52Z</time>
      </trkpt>
      <trkpt lat="42.626950" lon="0.460336">
        <ele>2243.000000</ele>
        <time>2021-09-05T10:41:53Z</time>
      </trkpt>
      <trkpt lat="42.626955" lon="0.460335">
        <ele>2243.000000</ele>
        <time>2021-09-05T10:41:54Z</time>
      </trkpt>
      <trkpt lat="42.626963" lon="0.460335">
        <ele>2243.000000</ele>
        <time>2021-09-05T10:41:55Z</time>
      </trkpt>
      <trkpt lat="42.626967" lon="0.460332">
        <ele>2243.000000</ele>
        <time>2021-09-05T10:41:56Z</time>
      </trkpt>
      <trkpt lat="42.626970" lon="0.460332">
        <ele>2243.000000</ele>
        <time>2021-09-05T10:41:57Z</time>
      </trkpt>
      <trkpt lat="42.626975" lon="0.460336">
        <ele>2242.000000</ele>
        <time>2021-09-05T10:41:58Z</time>
      </trkpt>
      <trkpt lat="42.626977" lon="0.460347">
        <ele>2242.000000</ele>
        <time>2021-09-05T10:41:59Z</time>
      </trkpt>
      <trkpt lat="42.626973" lon="0.460353">
        <ele>2242.000000</ele>
        <time>2021-09-05T10:42:00Z</time>
      </trkpt>
      <trkpt lat="42.626975" lon="0.460367">
        <ele>2241.000000</ele>
        <time>2021-09-05T10:42:01Z</time>
      </trkpt>
      <trkpt lat="42.626975" lon="0.460378">
        <ele>2241.000000</ele>
        <time>2021-09-05T10:42:02Z</time>
      </trkpt>
      <trkpt lat="42.626975" lon="0.460385">
        <ele>2241.000000</ele>
        <time>2021-09-05T10:42:03Z</time>
      </trkpt>
      <trkpt lat="42.626970" lon="0.460385">
        <ele>2240.000000</ele>
        <time>2021-09-05T10:42:04Z</time>
      </trkpt>
      <trkpt lat="42.626972" lon="0.460387">
        <ele>2240.000000</ele>
        <time>2021-09-05T10:42:05Z</time>
      </trkpt>
      <trkpt lat="42.626968" lon="0.460388">
        <ele>2240.000000</ele>
        <time>2021-09-05T10:42:06Z</time>
      </trkpt>
      <trkpt lat="42.626966" lon="0.460390">
        <ele>2240.000000</ele>
        <time>2021-09-05T10:42:07Z</time>
      </trkpt>
      <trkpt lat="42.626965" lon="0.460390">
        <ele>2240.000000</ele>
        <time>2021-09-05T10:42:09Z</time>
      </trkpt>
      <trkpt lat="42.626962" lon="0.460393">
        <ele>2239.000000</ele>
        <time>2021-09-05T10:42:11Z</time>
      </trkpt>
      <trkpt lat="42.626959" lon="0.460395">
        <ele>2239.000000</ele>
        <time>2021-09-05T10:42:12Z</time>
      </trkpt>
      <trkpt lat="42.626952" lon="0.460407">
        <ele>2239.000000</ele>
        <time>2021-09-05T10:42:13Z</time>
      </trkpt>
      <trkpt lat="42.626948" lon="0.460413">
        <ele>2239.000000</ele>
        <time>2021-09-05T10:42:15Z</time>
      </trkpt>
      <trkpt lat="42.626943" lon="0.460423">
        <ele>2239.000000</ele>
        <time>2021-09-05T10:42:15Z</time>
      </trkpt>
      <trkpt lat="42.626940" lon="0.460432">
        <ele>2239.000000</ele>
        <time>2021-09-05T10:42:16Z</time>
      </trkpt>
      <trkpt lat="42.626935" lon="0.460435">
        <ele>2239.000000</ele>
        <time>2021-09-05T10:42:18Z</time>
      </trkpt>
      <trkpt lat="42.626928" lon="0.460440">
        <ele>2238.000000</ele>
        <time>2021-09-05T10:42:19Z</time>
      </trkpt>
      <trkpt lat="42.626925" lon="0.460442">
        <ele>2238.000000</ele>
        <time>2021-09-05T10:42:20Z</time>
      </trkpt>
      <trkpt lat="42.626922" lon="0.460444">
        <ele>2238.000000</ele>
        <time>2021-09-05T10:42:21Z</time>
      </trkpt>
      <trkpt lat="42.626917" lon="0.460446">
        <ele>2238.000000</ele>
        <time>2021-09-05T10:42:22Z</time>
      </trkpt>
      <trkpt lat="42.626915" lon="0.460447">
        <ele>2238.000000</ele>
        <time>2021-09-05T10:42:23Z</time>
      </trkpt>
      <trkpt lat="42.626913" lon="0.460447">
        <ele>2238.000000</ele>
        <time>2021-09-05T10:42:24Z</time>
      </trkpt>
      <trkpt lat="42.626912" lon="0.460453">
        <ele>2238.000000</ele>
        <time>2021-09-05T10:42:27Z</time>
      </trkpt>
      <trkpt lat="42.626910" lon="0.460458">
        <ele>2238.000000</ele>
        <time>2021-09-05T10:42:28Z</time>
      </trkpt>
      <trkpt lat="42.626907" lon="0.460463">
        <ele>2237.000000</ele>
        <time>2021-09-05T10:42:29Z</time>
      </trkpt>
      <trkpt lat="42.626900" lon="0.460469">
        <ele>2237.000000</ele>
        <time>2021-09-05T10:42:30Z</time>
      </trkpt>
      <trkpt lat="42.626893" lon="0.460476">
        <ele>2237.000000</ele>
        <time>2021-09-05T10:42:31Z</time>
      </trkpt>
      <trkpt lat="42.626890" lon="0.460477">
        <ele>2237.000000</ele>
        <time>2021-09-05T10:42:32Z</time>
      </trkpt>
      <trkpt lat="42.626885" lon="0.460478">
        <ele>2236.000000</ele>
        <time>2021-09-05T10:42:33Z</time>
      </trkpt>
      <trkpt lat="42.626880" lon="0.460481">
        <ele>2236.000000</ele>
        <time>2021-09-05T10:42:34Z</time>
      </trkpt>
      <trkpt lat="42.626878" lon="0.460485">
        <ele>2236.000000</ele>
        <time>2021-09-05T10:42:35Z</time>
      </trkpt>
      <trkpt lat="42.626880" lon="0.460497">
        <ele>2236.000000</ele>
        <time>2021-09-05T10:42:36Z</time>
      </trkpt>
      <trkpt lat="42.626878" lon="0.460498">
        <ele>2236.000000</ele>
        <time>2021-09-05T10:42:37Z</time>
      </trkpt>
      <trkpt lat="42.626877" lon="0.460508">
        <ele>2236.000000</ele>
        <time>2021-09-05T10:42:39Z</time>
      </trkpt>
      <trkpt lat="42.626874" lon="0.460517">
        <ele>2235.000000</ele>
        <time>2021-09-05T10:42:39Z</time>
      </trkpt>
      <trkpt lat="42.626873" lon="0.460520">
        <ele>2235.000000</ele>
        <time>2021-09-05T10:42:40Z</time>
      </trkpt>
      <trkpt lat="42.626871" lon="0.460525">
        <ele>2235.000000</ele>
        <time>2021-09-05T10:42:41Z</time>
      </trkpt>
      <trkpt lat="42.626868" lon="0.460528">
        <ele>2235.000000</ele>
        <time>2021-09-05T10:42:42Z</time>
      </trkpt>
      <trkpt lat="42.626868" lon="0.460523">
        <ele>2235.000000</ele>
        <time>2021-09-05T10:42:43Z</time>
      </trkpt>
      <trkpt lat="42.626868" lon="0.460520">
        <ele>2235.000000</ele>
        <time>2021-09-05T10:42:44Z</time>
      </trkpt>
      <trkpt lat="42.626868" lon="0.460515">
        <ele>2235.000000</ele>
        <time>2021-09-05T10:42:45Z</time>
      </trkpt>
      <trkpt lat="42.626868" lon="0.460512">
        <ele>2234.000000</ele>
        <time>2021-09-05T10:42:46Z</time>
      </trkpt>
      <trkpt lat="42.626869" lon="0.460510">
        <ele>2234.000000</ele>
        <time>2021-09-05T10:42:47Z</time>
      </trkpt>
      <trkpt lat="42.626871" lon="0.460512">
        <ele>2234.000000</ele>
        <time>2021-09-05T10:42:48Z</time>
      </trkpt>
      <trkpt lat="42.626882" lon="0.460513">
        <ele>2234.000000</ele>
        <time>2021-09-05T10:42:49Z</time>
      </trkpt>
      <trkpt lat="42.626890" lon="0.460508">
        <ele>2234.000000</ele>
        <time>2021-09-05T10:42:50Z</time>
      </trkpt>
      <trkpt lat="42.626898" lon="0.460507">
        <ele>2234.000000</ele>
        <time>2021-09-05T10:42:51Z</time>
      </trkpt>
      <trkpt lat="42.626907" lon="0.460505">
        <ele>2234.000000</ele>
        <time>2021-09-05T10:42:52Z</time>
      </trkpt>
      <trkpt lat="42.626917" lon="0.460505">
        <ele>2234.000000</ele>
        <time>2021-09-05T10:42:53Z</time>
      </trkpt>
      <trkpt lat="42.626920" lon="0.460504">
        <ele>2233.000000</ele>
        <time>2021-09-05T10:42:54Z</time>
      </trkpt>
      <trkpt lat="42.626922" lon="0.460507">
        <ele>2233.000000</ele>
        <time>2021-09-05T10:42:56Z</time>
      </trkpt>
      <trkpt lat="42.626920" lon="0.460519">
        <ele>2233.000000</ele>
        <time>2021-09-05T10:42:57Z</time>
      </trkpt>
      <trkpt lat="42.626917" lon="0.460525">
        <ele>2233.000000</ele>
        <time>2021-09-05T10:42:59Z</time>
      </trkpt>
      <trkpt lat="42.626922" lon="0.460515">
        <ele>2232.000000</ele>
        <time>2021-09-05T10:42:59Z</time>
      </trkpt>
      <trkpt lat="42.626925" lon="0.460514">
        <ele>2232.000000</ele>
        <time>2021-09-05T10:43:00Z</time>
      </trkpt>
      <trkpt lat="42.626937" lon="0.460505">
        <ele>2232.000000</ele>
        <time>2021-09-05T10:43:01Z</time>
      </trkpt>
      <trkpt lat="42.626948" lon="0.460500">
        <ele>2232.000000</ele>
        <time>2021-09-05T10:43:02Z</time>
      </trkpt>
      <trkpt lat="42.626958" lon="0.460498">
        <ele>2232.000000</ele>
        <time>2021-09-05T10:43:03Z</time>
      </trkpt>
      <trkpt lat="42.626963" lon="0.460501">
        <ele>2232.000000</ele>
        <time>2021-09-05T10:43:04Z</time>
      </trkpt>
      <trkpt lat="42.626970" lon="0.460506">
        <ele>2232.000000</ele>
        <time>2021-09-05T10:43:05Z</time>
      </trkpt>
      <trkpt lat="42.626975" lon="0.460512">
        <ele>2232.000000</ele>
        <time>2021-09-05T10:43:06Z</time>
      </trkpt>
      <trkpt lat="42.626977" lon="0.460528">
        <ele>2232.000000</ele>
        <time>2021-09-05T10:43:07Z</time>
      </trkpt>
      <trkpt lat="42.626982" lon="0.460538">
        <ele>2232.000000</ele>
        <time>2021-09-05T10:43:08Z</time>
      </trkpt>
      <trkpt lat="42.626982" lon="0.460548">
        <ele>2232.000000</ele>
        <time>2021-09-05T10:43:09Z</time>
      </trkpt>
      <trkpt lat="42.626975" lon="0.460563">
        <ele>2232.000000</ele>
        <time>2021-09-05T10:43:10Z</time>
      </trkpt>
      <trkpt lat="42.626967" lon="0.460573">
        <ele>2232.000000</ele>
        <time>2021-09-05T10:43:11Z</time>
      </trkpt>
      <trkpt lat="42.626962" lon="0.460578">
        <ele>2231.000000</ele>
        <time>2021-09-05T10:43:12Z</time>
      </trkpt>
      <trkpt lat="42.626955" lon="0.460585">
        <ele>2231.000000</ele>
        <time>2021-09-05T10:43:13Z</time>
      </trkpt>
      <trkpt lat="42.626952" lon="0.460592">
        <ele>2231.000000</ele>
        <time>2021-09-05T10:43:14Z</time>
      </trkpt>
      <trkpt lat="42.626953" lon="0.460602">
        <ele>2231.000000</ele>
        <time>2021-09-05T10:43:15Z</time>
      </trkpt>
      <trkpt lat="42.626956" lon="0.460620">
        <ele>2230.000000</ele>
        <time>2021-09-05T10:43:16Z</time>
      </trkpt>
      <trkpt lat="42.626957" lon="0.460635">
        <ele>2230.000000</ele>
        <time>2021-09-05T10:43:18Z</time>
      </trkpt>
      <trkpt lat="42.626952" lon="0.460648">
        <ele>2230.000000</ele>
        <time>2021-09-05T10:43:18Z</time>
      </trkpt>
      <trkpt lat="42.626947" lon="0.460655">
        <ele>2230.000000</ele>
        <time>2021-09-05T10:43:19Z</time>
      </trkpt>
      <trkpt lat="42.626946" lon="0.460662">
        <ele>2229.000000</ele>
        <time>2021-09-05T10:43:21Z</time>
      </trkpt>
      <trkpt lat="42.626945" lon="0.460670">
        <ele>2229.000000</ele>
        <time>2021-09-05T10:43:23Z</time>
      </trkpt>
      <trkpt lat="42.626947" lon="0.460673">
        <ele>2229.000000</ele>
        <time>2021-09-05T10:43:24Z</time>
      </trkpt>
      <trkpt lat="42.626950" lon="0.460667">
        <ele>2229.000000</ele>
        <time>2021-09-05T10:43:25Z</time>
      </trkpt>
      <trkpt lat="42.626953" lon="0.460662">
        <ele>2228.000000</ele>
        <time>2021-09-05T10:43:26Z</time>
      </trkpt>
      <trkpt lat="42.626978" lon="0.460660">
        <ele>2228.000000</ele>
        <time>2021-09-05T10:43:27Z</time>
      </trkpt>
      <trkpt lat="42.626988" lon="0.460652">
        <ele>2228.000000</ele>
        <time>2021-09-05T10:43:28Z</time>
      </trkpt>
      <trkpt lat="42.626992" lon="0.460648">
        <ele>2228.000000</ele>
        <time>2021-09-05T10:43:29Z</time>
      </trkpt>
      <trkpt lat="42.626993" lon="0.460645">
        <ele>2227.000000</ele>
        <time>2021-09-05T10:43:30Z</time>
      </trkpt>
      <trkpt lat="42.627000" lon="0.460638">
        <ele>2227.000000</ele>
        <time>2021-09-05T10:43:31Z</time>
      </trkpt>
      <trkpt lat="42.627003" lon="0.460635">
        <ele>2227.000000</ele>
        <time>2021-09-05T10:43:32Z</time>
      </trkpt>
      <trkpt lat="42.627008" lon="0.460631">
        <ele>2227.000000</ele>
        <time>2021-09-05T10:43:33Z</time>
      </trkpt>
      <trkpt lat="42.627012" lon="0.460631">
        <ele>2227.000000</ele>
        <time>2021-09-05T10:43:34Z</time>
      </trkpt>
      <trkpt lat="42.627018" lon="0.460627">
        <ele>2227.000000</ele>
        <time>2021-09-05T10:43:35Z</time>
      </trkpt>
      <trkpt lat="42.627025" lon="0.460626">
        <ele>2226.000000</ele>
        <time>2021-09-05T10:43:37Z</time>
      </trkpt>
      <trkpt lat="42.627030" lon="0.460628">
        <ele>2226.000000</ele>
        <time>2021-09-05T10:43:39Z</time>
      </trkpt>
      <trkpt lat="42.627035" lon="0.460637">
        <ele>2226.000000</ele>
        <time>2021-09-05T10:43:40Z</time>
      </trkpt>
      <trkpt lat="42.627042" lon="0.460637">
        <ele>2225.000000</ele>
        <time>2021-09-05T10:43:41Z</time>
      </trkpt>
      <trkpt lat="42.627053" lon="0.460633">
        <ele>2225.000000</ele>
        <time>2021-09-05T10:43:42Z</time>
      </trkpt>
      <trkpt lat="42.627058" lon="0.460632">
        <ele>2225.000000</ele>
        <time>2021-09-05T10:43:43Z</time>
      </trkpt>
      <trkpt lat="42.627060" lon="0.460633">
        <ele>2225.000000</ele>
        <time>2021-09-05T10:43:44Z</time>
      </trkpt>
      <trkpt lat="42.627060" lon="0.460642">
        <ele>2224.000000</ele>
        <time>2021-09-05T10:43:45Z</time>
      </trkpt>
      <trkpt lat="42.627063" lon="0.460650">
        <ele>2224.000000</ele>
        <time>2021-09-05T10:43:46Z</time>
      </trkpt>
      <trkpt lat="42.627065" lon="0.460658">
        <ele>2224.000000</ele>
        <time>2021-09-05T10:43:47Z</time>
      </trkpt>
      <trkpt lat="42.627063" lon="0.460662">
        <ele>2224.000000</ele>
        <time>2021-09-05T10:43:48Z</time>
      </trkpt>
      <trkpt lat="42.627067" lon="0.460657">
        <ele>2224.000000</ele>
        <time>2021-09-05T10:43:49Z</time>
      </trkpt>
      <trkpt lat="42.627066" lon="0.460658">
        <ele>2223.000000</ele>
        <time>2021-09-05T10:43:50Z</time>
      </trkpt>
      <trkpt lat="42.627073" lon="0.460652">
        <ele>2223.000000</ele>
        <time>2021-09-05T10:43:51Z</time>
      </trkpt>
      <trkpt lat="42.627080" lon="0.460648">
        <ele>2223.000000</ele>
        <time>2021-09-05T10:43:52Z</time>
      </trkpt>
      <trkpt lat="42.627088" lon="0.460642">
        <ele>2223.000000</ele>
        <time>2021-09-05T10:43:53Z</time>
      </trkpt>
      <trkpt lat="42.627095" lon="0.460645">
        <ele>2222.000000</ele>
        <time>2021-09-05T10:43:54Z</time>
      </trkpt>
      <trkpt lat="42.627102" lon="0.460644">
        <ele>2222.000000</ele>
        <time>2021-09-05T10:43:55Z</time>
      </trkpt>
      <trkpt lat="42.627108" lon="0.460641">
        <ele>2222.000000</ele>
        <time>2021-09-05T10:43:56Z</time>
      </trkpt>
      <trkpt lat="42.627125" lon="0.460630">
        <ele>2222.000000</ele>
        <time>2021-09-05T10:43:57Z</time>
      </trkpt>
      <trkpt lat="42.627133" lon="0.460623">
        <ele>2221.000000</ele>
        <time>2021-09-05T10:43:58Z</time>
      </trkpt>
      <trkpt lat="42.627135" lon="0.460622">
        <ele>2221.000000</ele>
        <time>2021-09-05T10:43:59Z</time>
      </trkpt>
      <trkpt lat="42.627142" lon="0.460618">
        <ele>2221.000000</ele>
        <time>2021-09-05T10:44:00Z</time>
      </trkpt>
      <trkpt lat="42.627147" lon="0.460618">
        <ele>2220.000000</ele>
        <time>2021-09-05T10:44:02Z</time>
      </trkpt>
      <trkpt lat="42.627152" lon="0.460620">
        <ele>2220.000000</ele>
        <time>2021-09-05T10:44:03Z</time>
      </trkpt>
      <trkpt lat="42.627162" lon="0.460616">
        <ele>2220.000000</ele>
        <time>2021-09-05T10:44:04Z</time>
      </trkpt>
      <trkpt lat="42.627172" lon="0.460614">
        <ele>2220.000000</ele>
        <time>2021-09-05T10:44:06Z</time>
      </trkpt>
      <trkpt lat="42.627177" lon="0.460618">
        <ele>2220.000000</ele>
        <time>2021-09-05T10:44:06Z</time>
      </trkpt>
      <trkpt lat="42.627178" lon="0.460621">
        <ele>2220.000000</ele>
        <time>2021-09-05T10:44:07Z</time>
      </trkpt>
      <trkpt lat="42.627175" lon="0.460640">
        <ele>2220.000000</ele>
        <time>2021-09-05T10:44:08Z</time>
      </trkpt>
      <trkpt lat="42.627168" lon="0.460647">
        <ele>2220.000000</ele>
        <time>2021-09-05T10:44:09Z</time>
      </trkpt>
      <trkpt lat="42.627162" lon="0.460658">
        <ele>2220.000000</ele>
        <time>2021-09-05T10:44:10Z</time>
      </trkpt>
      <trkpt lat="42.627157" lon="0.460668">
        <ele>2219.000000</ele>
        <time>2021-09-05T10:44:11Z</time>
      </trkpt>
      <trkpt lat="42.627153" lon="0.460675">
        <ele>2219.000000</ele>
        <time>2021-09-05T10:44:12Z</time>
      </trkpt>
      <trkpt lat="42.627147" lon="0.460682">
        <ele>2219.000000</ele>
        <time>2021-09-05T10:44:13Z</time>
      </trkpt>
      <trkpt lat="42.627141" lon="0.460693">
        <ele>2219.000000</ele>
        <time>2021-09-05T10:44:14Z</time>
      </trkpt>
      <trkpt lat="42.627138" lon="0.460698">
        <ele>2218.000000</ele>
        <time>2021-09-05T10:44:15Z</time>
      </trkpt>
      <trkpt lat="42.627136" lon="0.460710">
        <ele>2218.000000</ele>
        <time>2021-09-05T10:44:16Z</time>
      </trkpt>
      <trkpt lat="42.627134" lon="0.460717">
        <ele>2218.000000</ele>
        <time>2021-09-05T10:44:17Z</time>
      </trkpt>
      <trkpt lat="42.627133" lon="0.460720">
        <ele>2218.000000</ele>
        <time>2021-09-05T10:44:18Z</time>
      </trkpt>
      <trkpt lat="42.627130" lon="0.460732">
        <ele>2217.000000</ele>
        <time>2021-09-05T10:44:19Z</time>
      </trkpt>
      <trkpt lat="42.627128" lon="0.460745">
        <ele>2217.000000</ele>
        <time>2021-09-05T10:44:20Z</time>
      </trkpt>
      <trkpt lat="42.627126" lon="0.460755">
        <ele>2217.000000</ele>
        <time>2021-09-05T10:44:21Z</time>
      </trkpt>
      <trkpt lat="42.627128" lon="0.460757">
        <ele>2217.000000</ele>
        <time>2021-09-05T10:44:22Z</time>
      </trkpt>
      <trkpt lat="42.627129" lon="0.460765">
        <ele>2217.000000</ele>
        <time>2021-09-05T10:44:23Z</time>
      </trkpt>
      <trkpt lat="42.627130" lon="0.460770">
        <ele>2217.000000</ele>
        <time>2021-09-05T10:44:24Z</time>
      </trkpt>
      <trkpt lat="42.627129" lon="0.460777">
        <ele>2216.000000</ele>
        <time>2021-09-05T10:44:25Z</time>
      </trkpt>
      <trkpt lat="42.627128" lon="0.460782">
        <ele>2216.000000</ele>
        <time>2021-09-05T10:44:26Z</time>
      </trkpt>
      <trkpt lat="42.627125" lon="0.460782">
        <ele>2216.000000</ele>
        <time>2021-09-05T10:44:27Z</time>
      </trkpt>
      <trkpt lat="42.627122" lon="0.460785">
        <ele>2216.000000</ele>
        <time>2021-09-05T10:44:28Z</time>
      </trkpt>
      <trkpt lat="42.627120" lon="0.460786">
        <ele>2216.000000</ele>
        <time>2021-09-05T10:44:30Z</time>
      </trkpt>
      <trkpt lat="42.627113" lon="0.460790">
        <ele>2215.000000</ele>
        <time>2021-09-05T10:44:30Z</time>
      </trkpt>
      <trkpt lat="42.627108" lon="0.460791">
        <ele>2215.000000</ele>
        <time>2021-09-05T10:44:31Z</time>
      </trkpt>
      <trkpt lat="42.627108" lon="0.460794">
        <ele>2215.000000</ele>
        <time>2021-09-05T10:44:32Z</time>
      </trkpt>
      <trkpt lat="42.627105" lon="0.460799">
        <ele>2215.000000</ele>
        <time>2021-09-05T10:44:33Z</time>
      </trkpt>
      <trkpt lat="42.627098" lon="0.460813">
        <ele>2214.000000</ele>
        <time>2021-09-05T10:44:34Z</time>
      </trkpt>
      <trkpt lat="42.627095" lon="0.460825">
        <ele>2214.000000</ele>
        <time>2021-09-05T10:44:35Z</time>
      </trkpt>
      <trkpt lat="42.627088" lon="0.460840">
        <ele>2214.000000</ele>
        <time>2021-09-05T10:44:36Z</time>
      </trkpt>
      <trkpt lat="42.627080" lon="0.460850">
        <ele>2214.000000</ele>
        <time>2021-09-05T10:44:37Z</time>
      </trkpt>
      <trkpt lat="42.627077" lon="0.460858">
        <ele>2214.000000</ele>
        <time>2021-09-05T10:44:38Z</time>
      </trkpt>
      <trkpt lat="42.627075" lon="0.460867">
        <ele>2213.000000</ele>
        <time>2021-09-05T10:44:39Z</time>
      </trkpt>
      <trkpt lat="42.627065" lon="0.460878">
        <ele>2213.000000</ele>
        <time>2021-09-05T10:44:40Z</time>
      </trkpt>
      <trkpt lat="42.627062" lon="0.460882">
        <ele>2213.000000</ele>
        <time>2021-09-05T10:44:41Z</time>
      </trkpt>
      <trkpt lat="42.627068" lon="0.460880">
        <ele>2213.000000</ele>
        <time>2021-09-05T10:44:42Z</time>
      </trkpt>
      <trkpt lat="42.627071" lon="0.460880">
        <ele>2213.000000</ele>
        <time>2021-09-05T10:44:43Z</time>
      </trkpt>
      <trkpt lat="42.627080" lon="0.460875">
        <ele>2213.000000</ele>
        <time>2021-09-05T10:44:44Z</time>
      </trkpt>
      <trkpt lat="42.627092" lon="0.460863">
        <ele>2213.000000</ele>
        <time>2021-09-05T10:44:45Z</time>
      </trkpt>
      <trkpt lat="42.627100" lon="0.460857">
        <ele>2213.000000</ele>
        <time>2021-09-05T10:44:46Z</time>
      </trkpt>
      <trkpt lat="42.627108" lon="0.460853">
        <ele>2212.000000</ele>
        <time>2021-09-05T10:44:47Z</time>
      </trkpt>
      <trkpt lat="42.627115" lon="0.460852">
        <ele>2212.000000</ele>
        <time>2021-09-05T10:44:50Z</time>
      </trkpt>
      <trkpt lat="42.627125" lon="0.460842">
        <ele>2212.000000</ele>
        <time>2021-09-05T10:44:50Z</time>
      </trkpt>
      <trkpt lat="42.627128" lon="0.460838">
        <ele>2212.000000</ele>
        <time>2021-09-05T10:44:51Z</time>
      </trkpt>
      <trkpt lat="42.627133" lon="0.460833">
        <ele>2211.000000</ele>
        <time>2021-09-05T10:44:52Z</time>
      </trkpt>
      <trkpt lat="42.627137" lon="0.460833">
        <ele>2211.000000</ele>
        <time>2021-09-05T10:44:53Z</time>
      </trkpt>
      <trkpt lat="42.627140" lon="0.460834">
        <ele>2211.000000</ele>
        <time>2021-09-05T10:44:54Z</time>
      </trkpt>
      <trkpt lat="42.627145" lon="0.460833">
        <ele>2211.000000</ele>
        <time>2021-09-05T10:44:55Z</time>
      </trkpt>
      <trkpt lat="42.627152" lon="0.460837">
        <ele>2210.000000</ele>
        <time>2021-09-05T10:44:56Z</time>
      </trkpt>
      <trkpt lat="42.627157" lon="0.460838">
        <ele>2210.000000</ele>
        <time>2021-09-05T10:44:57Z</time>
      </trkpt>
      <trkpt lat="42.627160" lon="0.460837">
        <ele>2210.000000</ele>
        <time>2021-09-05T10:44:58Z</time>
      </trkpt>
      <trkpt lat="42.627163" lon="0.460832">
        <ele>2210.000000</ele>
        <time>2021-09-05T10:44:59Z</time>
      </trkpt>
      <trkpt lat="42.627168" lon="0.460827">
        <ele>2210.000000</ele>
        <time>2021-09-05T10:45:00Z</time>
      </trkpt>
      <trkpt lat="42.627175" lon="0.460823">
        <ele>2210.000000</ele>
        <time>2021-09-05T10:45:01Z</time>
      </trkpt>
      <trkpt lat="42.627183" lon="0.460820">
        <ele>2210.000000</ele>
        <time>2021-09-05T10:45:02Z</time>
      </trkpt>
      <trkpt lat="42.627195" lon="0.460818">
        <ele>2210.000000</ele>
        <time>2021-09-05T10:45:03Z</time>
      </trkpt>
      <trkpt lat="42.627203" lon="0.460815">
        <ele>2209.000000</ele>
        <time>2021-09-05T10:45:04Z</time>
      </trkpt>
      <trkpt lat="42.627212" lon="0.460813">
        <ele>2209.000000</ele>
        <time>2021-09-05T10:45:05Z</time>
      </trkpt>
      <trkpt lat="42.627212" lon="0.460818">
        <ele>2209.000000</ele>
        <time>2021-09-05T10:45:06Z</time>
      </trkpt>
      <trkpt lat="42.627215" lon="0.460822">
        <ele>2208.000000</ele>
        <time>2021-09-05T10:45:07Z</time>
      </trkpt>
      <trkpt lat="42.627222" lon="0.460827">
        <ele>2208.000000</ele>
        <time>2021-09-05T10:45:08Z</time>
      </trkpt>
      <trkpt lat="42.627222" lon="0.460833">
        <ele>2208.000000</ele>
        <time>2021-09-05T10:45:09Z</time>
      </trkpt>
      <trkpt lat="42.627223" lon="0.460845">
        <ele>2208.000000</ele>
        <time>2021-09-05T10:45:10Z</time>
      </trkpt>
      <trkpt lat="42.627228" lon="0.460855">
        <ele>2207.000000</ele>
        <time>2021-09-05T10:45:11Z</time>
      </trkpt>
      <trkpt lat="42.627228" lon="0.460868">
        <ele>2207.000000</ele>
        <time>2021-09-05T10:45:12Z</time>
      </trkpt>
      <trkpt lat="42.627228" lon="0.460880">
        <ele>2207.000000</ele>
        <time>2021-09-05T10:45:14Z</time>
      </trkpt>
      <trkpt lat="42.627222" lon="0.460895">
        <ele>2207.000000</ele>
        <time>2021-09-05T10:45:14Z</time>
      </trkpt>
      <trkpt lat="42.627217" lon="0.460908">
        <ele>2206.000000</ele>
        <time>2021-09-05T10:45:15Z</time>
      </trkpt>
      <trkpt lat="42.627208" lon="0.460915">
        <ele>2206.000000</ele>
        <time>2021-09-05T10:45:16Z</time>
      </trkpt>
      <trkpt lat="42.627200" lon="0.460917">
        <ele>2206.000000</ele>
        <time>2021-09-05T10:45:17Z</time>
      </trkpt>
      <trkpt lat="42.627197" lon="0.460925">
        <ele>2205.000000</ele>
        <time>2021-09-05T10:45:18Z</time>
      </trkpt>
      <trkpt lat="42.627190" lon="0.460932">
        <ele>2205.000000</ele>
        <time>2021-09-05T10:45:19Z</time>
      </trkpt>
      <trkpt lat="42.627185" lon="0.460933">
        <ele>2204.000000</ele>
        <time>2021-09-05T10:45:20Z</time>
      </trkpt>
      <trkpt lat="42.627180" lon="0.460932">
        <ele>2204.000000</ele>
        <time>2021-09-05T10:45:21Z</time>
      </trkpt>
      <trkpt lat="42.627175" lon="0.460935">
        <ele>2204.000000</ele>
        <time>2021-09-05T10:45:22Z</time>
      </trkpt>
      <trkpt lat="42.627172" lon="0.460942">
        <ele>2204.000000</ele>
        <time>2021-09-05T10:45:23Z</time>
      </trkpt>
      <trkpt lat="42.627172" lon="0.460947">
        <ele>2204.000000</ele>
        <time>2021-09-05T10:45:25Z</time>
      </trkpt>
      <trkpt lat="42.627182" lon="0.460952">
        <ele>2204.000000</ele>
        <time>2021-09-05T10:45:26Z</time>
      </trkpt>
      <trkpt lat="42.627191" lon="0.460947">
        <ele>2204.000000</ele>
        <time>2021-09-05T10:45:27Z</time>
      </trkpt>
      <trkpt lat="42.627200" lon="0.460940">
        <ele>2204.000000</ele>
        <time>2021-09-05T10:45:28Z</time>
      </trkpt>
      <trkpt lat="42.627199" lon="0.460942">
        <ele>2204.000000</ele>
        <time>2021-09-05T10:45:29Z</time>
      </trkpt>
      <trkpt lat="42.627191" lon="0.460948">
        <ele>2203.000000</ele>
        <time>2021-09-05T10:45:30Z</time>
      </trkpt>
      <trkpt lat="42.627191" lon="0.460960">
        <ele>2203.000000</ele>
        <time>2021-09-05T10:45:31Z</time>
      </trkpt>
      <trkpt lat="42.627195" lon="0.460968">
        <ele>2203.000000</ele>
        <time>2021-09-05T10:45:32Z</time>
      </trkpt>
      <trkpt lat="42.627198" lon="0.460970">
        <ele>2203.000000</ele>
        <time>2021-09-05T10:45:33Z</time>
      </trkpt>
      <trkpt lat="42.627202" lon="0.460977">
        <ele>2203.000000</ele>
        <time>2021-09-05T10:45:34Z</time>
      </trkpt>
      <trkpt lat="42.627208" lon="0.460982">
        <ele>2203.000000</ele>
        <time>2021-09-05T10:45:35Z</time>
      </trkpt>
      <trkpt lat="42.627215" lon="0.460977">
        <ele>2202.000000</ele>
        <time>2021-09-05T10:45:36Z</time>
      </trkpt>
      <trkpt lat="42.627223" lon="0.460968">
        <ele>2202.000000</ele>
        <time>2021-09-05T10:45:38Z</time>
      </trkpt>
      <trkpt lat="42.627227" lon="0.460963">
        <ele>2202.000000</ele>
        <time>2021-09-05T10:45:38Z</time>
      </trkpt>
      <trkpt lat="42.627230" lon="0.460962">
        <ele>2202.000000</ele>
        <time>2021-09-05T10:45:39Z</time>
      </trkpt>
      <trkpt lat="42.627233" lon="0.460965">
        <ele>2202.000000</ele>
        <time>2021-09-05T10:45:40Z</time>
      </trkpt>
      <trkpt lat="42.627238" lon="0.460969">
        <ele>2202.000000</ele>
        <time>2021-09-05T10:45:41Z</time>
      </trkpt>
      <trkpt lat="42.627243" lon="0.460967">
        <ele>2202.000000</ele>
        <time>2021-09-05T10:45:42Z</time>
      </trkpt>
      <trkpt lat="42.627250" lon="0.460966">
        <ele>2202.000000</ele>
        <time>2021-09-05T10:45:43Z</time>
      </trkpt>
      <trkpt lat="42.627253" lon="0.460966">
        <ele>2202.000000</ele>
        <time>2021-09-05T10:45:44Z</time>
      </trkpt>
      <trkpt lat="42.627260" lon="0.460965">
        <ele>2202.000000</ele>
        <time>2021-09-05T10:45:45Z</time>
      </trkpt>
      <trkpt lat="42.627265" lon="0.460965">
        <ele>2202.000000</ele>
        <time>2021-09-05T10:45:45Z</time>
      </trkpt>
      <trkpt lat="42.627268" lon="0.460969">
        <ele>2201.000000</ele>
        <time>2021-09-05T10:45:46Z</time>
      </trkpt>
      <trkpt lat="42.627270" lon="0.460988">
        <ele>2201.000000</ele>
        <time>2021-09-05T10:45:47Z</time>
      </trkpt>
      <trkpt lat="42.627267" lon="0.460993">
        <ele>2201.000000</ele>
        <time>2021-09-05T10:45:48Z</time>
      </trkpt>
      <trkpt lat="42.627267" lon="0.460997">
        <ele>2201.000000</ele>
        <time>2021-09-05T10:45:49Z</time>
      </trkpt>
      <trkpt lat="42.627262" lon="0.460997">
        <ele>2200.000000</ele>
        <time>2021-09-05T10:45:50Z</time>
      </trkpt>
      <trkpt lat="42.627257" lon="0.460997">
        <ele>2200.000000</ele>
        <time>2021-09-05T10:45:51Z</time>
      </trkpt>
      <trkpt lat="42.627252" lon="0.461002">
        <ele>2200.000000</ele>
        <time>2021-09-05T10:45:52Z</time>
      </trkpt>
      <trkpt lat="42.627250" lon="0.461007">
        <ele>2200.000000</ele>
        <time>2021-09-05T10:45:53Z</time>
      </trkpt>
      <trkpt lat="42.627243" lon="0.461012">
        <ele>2199.000000</ele>
        <time>2021-09-05T10:45:54Z</time>
      </trkpt>
      <trkpt lat="42.627240" lon="0.461015">
        <ele>2199.000000</ele>
        <time>2021-09-05T10:45:55Z</time>
      </trkpt>
      <trkpt lat="42.627237" lon="0.461019">
        <ele>2199.000000</ele>
        <time>2021-09-05T10:45:57Z</time>
      </trkpt>
      <trkpt lat="42.627240" lon="0.461022">
        <ele>2199.000000</ele>
        <time>2021-09-05T10:45:57Z</time>
      </trkpt>
      <trkpt lat="42.627252" lon="0.461015">
        <ele>2199.000000</ele>
        <time>2021-09-05T10:45:58Z</time>
      </trkpt>
      <trkpt lat="42.627259" lon="0.461010">
        <ele>2199.000000</ele>
        <time>2021-09-05T10:45:59Z</time>
      </trkpt>
      <trkpt lat="42.627275" lon="0.460998">
        <ele>2199.000000</ele>
        <time>2021-09-05T10:46:00Z</time>
      </trkpt>
      <trkpt lat="42.627283" lon="0.460995">
        <ele>2198.000000</ele>
        <time>2021-09-05T10:46:01Z</time>
      </trkpt>
      <trkpt lat="42.627295" lon="0.460990">
        <ele>2198.000000</ele>
        <time>2021-09-05T10:46:02Z</time>
      </trkpt>
      <trkpt lat="42.627302" lon="0.460991">
        <ele>2198.000000</ele>
        <time>2021-09-05T10:46:03Z</time>
      </trkpt>
      <trkpt lat="42.627310" lon="0.460993">
        <ele>2198.000000</ele>
        <time>2021-09-05T10:46:04Z</time>
      </trkpt>
      <trkpt lat="42.627313" lon="0.460993">
        <ele>2197.000000</ele>
        <time>2021-09-05T10:46:05Z</time>
      </trkpt>
      <trkpt lat="42.627320" lon="0.461000">
        <ele>2197.000000</ele>
        <time>2021-09-05T10:46:06Z</time>
      </trkpt>
      <trkpt lat="42.627328" lon="0.461003">
        <ele>2197.000000</ele>
        <time>2021-09-05T10:46:07Z</time>
      </trkpt>
      <trkpt lat="42.627332" lon="0.461015">
        <ele>2197.000000</ele>
        <time>2021-09-05T10:46:08Z</time>
      </trkpt>
      <trkpt lat="42.627333" lon="0.461023">
        <ele>2197.000000</ele>
        <time>2021-09-05T10:46:09Z</time>
      </trkpt>
      <trkpt lat="42.627335" lon="0.461033">
        <ele>2197.000000</ele>
        <time>2021-09-05T10:46:10Z</time>
      </trkpt>
      <trkpt lat="42.627340" lon="0.461040">
        <ele>2196.000000</ele>
        <time>2021-09-05T10:46:11Z</time>
      </trkpt>
      <trkpt lat="42.627341" lon="0.461048">
        <ele>2196.000000</ele>
        <time>2021-09-05T10:46:12Z</time>
      </trkpt>
      <trkpt lat="42.627345" lon="0.461057">
        <ele>2196.000000</ele>
        <time>2021-09-05T10:46:13Z</time>
      </trkpt>
      <trkpt lat="42.627349" lon="0.461058">
        <ele>2195.000000</ele>
        <time>2021-09-05T10:46:14Z</time>
      </trkpt>
      <trkpt lat="42.627360" lon="0.461065">
        <ele>2195.000000</ele>
        <time>2021-09-05T10:46:15Z</time>
      </trkpt>
      <trkpt lat="42.627367" lon="0.461070">
        <ele>2195.000000</ele>
        <time>2021-09-05T10:46:16Z</time>
      </trkpt>
      <trkpt lat="42.627375" lon="0.461070">
        <ele>2195.000000</ele>
        <time>2021-09-05T10:46:17Z</time>
      </trkpt>
      <trkpt lat="42.627383" lon="0.461070">
        <ele>2195.000000</ele>
        <time>2021-09-05T10:46:18Z</time>
      </trkpt>
      <trkpt lat="42.627388" lon="0.461065">
        <ele>2195.000000</ele>
        <time>2021-09-05T10:46:19Z</time>
      </trkpt>
      <trkpt lat="42.627397" lon="0.461063">
        <ele>2194.000000</ele>
        <time>2021-09-05T10:46:21Z</time>
      </trkpt>
      <trkpt lat="42.627405" lon="0.461060">
        <ele>2194.000000</ele>
        <time>2021-09-05T10:46:21Z</time>
      </trkpt>
      <trkpt lat="42.627410" lon="0.461063">
        <ele>2194.000000</ele>
        <time>2021-09-05T10:46:22Z</time>
      </trkpt>
      <trkpt lat="42.627415" lon="0.461071">
        <ele>2193.000000</ele>
        <time>2021-09-05T10:46:23Z</time>
      </trkpt>
      <trkpt lat="42.627418" lon="0.461071">
        <ele>2193.000000</ele>
        <time>2021-09-05T10:46:24Z</time>
      </trkpt>
      <trkpt lat="42.627423" lon="0.461069">
        <ele>2193.000000</ele>
        <time>2021-09-05T10:46:25Z</time>
      </trkpt>
      <trkpt lat="42.627428" lon="0.461070">
        <ele>2193.000000</ele>
        <time>2021-09-05T10:46:26Z</time>
      </trkpt>
      <trkpt lat="42.627432" lon="0.461072">
        <ele>2192.000000</ele>
        <time>2021-09-05T10:46:27Z</time>
      </trkpt>
      <trkpt lat="42.627432" lon="0.461087">
        <ele>2192.000000</ele>
        <time>2021-09-05T10:46:28Z</time>
      </trkpt>
      <trkpt lat="42.627442" lon="0.461088">
        <ele>2192.000000</ele>
        <time>2021-09-05T10:46:29Z</time>
      </trkpt>
      <trkpt lat="42.627448" lon="0.461097">
        <ele>2192.000000</ele>
        <time>2021-09-05T10:46:30Z</time>
      </trkpt>
      <trkpt lat="42.627458" lon="0.461093">
        <ele>2192.000000</ele>
        <time>2021-09-05T10:46:31Z</time>
      </trkpt>
      <trkpt lat="42.627467" lon="0.461083">
        <ele>2191.000000</ele>
        <time>2021-09-05T10:46:32Z</time>
      </trkpt>
      <trkpt lat="42.627472" lon="0.461080">
        <ele>2191.000000</ele>
        <time>2021-09-05T10:46:33Z</time>
      </trkpt>
      <trkpt lat="42.627478" lon="0.461073">
        <ele>2191.000000</ele>
        <time>2021-09-05T10:46:34Z</time>
      </trkpt>
      <trkpt lat="42.627483" lon="0.461068">
        <ele>2190.000000</ele>
        <time>2021-09-05T10:46:35Z</time>
      </trkpt>
      <trkpt lat="42.627488" lon="0.461063">
        <ele>2190.000000</ele>
        <time>2021-09-05T10:46:36Z</time>
      </trkpt>
      <trkpt lat="42.627495" lon="0.461061">
        <ele>2190.000000</ele>
        <time>2021-09-05T10:46:37Z</time>
      </trkpt>
      <trkpt lat="42.627502" lon="0.461060">
        <ele>2190.000000</ele>
        <time>2021-09-05T10:46:38Z</time>
      </trkpt>
      <trkpt lat="42.627510" lon="0.461064">
        <ele>2190.000000</ele>
        <time>2021-09-05T10:46:39Z</time>
      </trkpt>
      <trkpt lat="42.627515" lon="0.461072">
        <ele>2190.000000</ele>
        <time>2021-09-05T10:46:40Z</time>
      </trkpt>
      <trkpt lat="42.627520" lon="0.461090">
        <ele>2190.000000</ele>
        <time>2021-09-05T10:46:41Z</time>
      </trkpt>
      <trkpt lat="42.627527" lon="0.461092">
        <ele>2190.000000</ele>
        <time>2021-09-05T10:46:42Z</time>
      </trkpt>
      <trkpt lat="42.627530" lon="0.461090">
        <ele>2190.000000</ele>
        <time>2021-09-05T10:46:44Z</time>
      </trkpt>
      <trkpt lat="42.627537" lon="0.461091">
        <ele>2190.000000</ele>
        <time>2021-09-05T10:46:44Z</time>
      </trkpt>
      <trkpt lat="42.627543" lon="0.461088">
        <ele>2190.000000</ele>
        <time>2021-09-05T10:46:45Z</time>
      </trkpt>
      <trkpt lat="42.627550" lon="0.461084">
        <ele>2189.000000</ele>
        <time>2021-09-05T10:46:46Z</time>
      </trkpt>
      <trkpt lat="42.627560" lon="0.461073">
        <ele>2189.000000</ele>
        <time>2021-09-05T10:46:47Z</time>
      </trkpt>
      <trkpt lat="42.627567" lon="0.461066">
        <ele>2189.000000</ele>
        <time>2021-09-05T10:46:48Z</time>
      </trkpt>
      <trkpt lat="42.627570" lon="0.461064">
        <ele>2189.000000</ele>
        <time>2021-09-05T10:46:49Z</time>
      </trkpt>
      <trkpt lat="42.627582" lon="0.461059">
        <ele>2189.000000</ele>
        <time>2021-09-05T10:46:50Z</time>
      </trkpt>
      <trkpt lat="42.627593" lon="0.461053">
        <ele>2189.000000</ele>
        <time>2021-09-05T10:46:51Z</time>
      </trkpt>
      <trkpt lat="42.627602" lon="0.461049">
        <ele>2188.000000</ele>
        <time>2021-09-05T10:46:52Z</time>
      </trkpt>
      <trkpt lat="42.627607" lon="0.461049">
        <ele>2188.000000</ele>
        <time>2021-09-05T10:46:53Z</time>
      </trkpt>
      <trkpt lat="42.627612" lon="0.461049">
        <ele>2188.000000</ele>
        <time>2021-09-05T10:46:54Z</time>
      </trkpt>
      <trkpt lat="42.627618" lon="0.461060">
        <ele>2188.000000</ele>
        <time>2021-09-05T10:46:55Z</time>
      </trkpt>
      <trkpt lat="42.627623" lon="0.461075">
        <ele>2187.000000</ele>
        <time>2021-09-05T10:46:56Z</time>
      </trkpt>
      <trkpt lat="42.627623" lon="0.461085">
        <ele>2187.000000</ele>
        <time>2021-09-05T10:46:57Z</time>
      </trkpt>
      <trkpt lat="42.627623" lon="0.461097">
        <ele>2187.000000</ele>
        <time>2021-09-05T10:46:58Z</time>
      </trkpt>
      <trkpt lat="42.627623" lon="0.461110">
        <ele>2187.000000</ele>
        <time>2021-09-05T10:46:59Z</time>
      </trkpt>
      <trkpt lat="42.627618" lon="0.461122">
        <ele>2186.000000</ele>
        <time>2021-09-05T10:47:00Z</time>
      </trkpt>
      <trkpt lat="42.627620" lon="0.461132">
        <ele>2186.000000</ele>
        <time>2021-09-05T10:47:01Z</time>
      </trkpt>
      <trkpt lat="42.627622" lon="0.461140">
        <ele>2186.000000</ele>
        <time>2021-09-05T10:47:02Z</time>
      </trkpt>
      <trkpt lat="42.627623" lon="0.461150">
        <ele>2186.000000</ele>
        <time>2021-09-05T10:47:04Z</time>
      </trkpt>
      <trkpt lat="42.627625" lon="0.461163">
        <ele>2185.000000</ele>
        <time>2021-09-05T10:47:04Z</time>
      </trkpt>
      <trkpt lat="42.627624" lon="0.461177">
        <ele>2185.000000</ele>
        <time>2021-09-05T10:47:05Z</time>
      </trkpt>
      <trkpt lat="42.627621" lon="0.461188">
        <ele>2185.000000</ele>
        <time>2021-09-05T10:47:06Z</time>
      </trkpt>
      <trkpt lat="42.627613" lon="0.461197">
        <ele>2184.000000</ele>
        <time>2021-09-05T10:47:07Z</time>
      </trkpt>
      <trkpt lat="42.627607" lon="0.461203">
        <ele>2184.000000</ele>
        <time>2021-09-05T10:47:08Z</time>
      </trkpt>
      <trkpt lat="42.627600" lon="0.461208">
        <ele>2184.000000</ele>
        <time>2021-09-05T10:47:09Z</time>
      </trkpt>
      <trkpt lat="42.627598" lon="0.461215">
        <ele>2183.000000</ele>
        <time>2021-09-05T10:47:10Z</time>
      </trkpt>
      <trkpt lat="42.627597" lon="0.461220">
        <ele>2183.000000</ele>
        <time>2021-09-05T10:47:11Z</time>
      </trkpt>
      <trkpt lat="42.627593" lon="0.461232">
        <ele>2183.000000</ele>
        <time>2021-09-05T10:47:12Z</time>
      </trkpt>
      <trkpt lat="42.627593" lon="0.461243">
        <ele>2183.000000</ele>
        <time>2021-09-05T10:47:13Z</time>
      </trkpt>
      <trkpt lat="42.627592" lon="0.461250">
        <ele>2183.000000</ele>
        <time>2021-09-05T10:47:14Z</time>
      </trkpt>
      <trkpt lat="42.627589" lon="0.461252">
        <ele>2183.000000</ele>
        <time>2021-09-05T10:47:15Z</time>
      </trkpt>
      <trkpt lat="42.627586" lon="0.461257">
        <ele>2182.000000</ele>
        <time>2021-09-05T10:47:16Z</time>
      </trkpt>
      <trkpt lat="42.627580" lon="0.461260">
        <ele>2182.000000</ele>
        <time>2021-09-05T10:47:18Z</time>
      </trkpt>
      <trkpt lat="42.627582" lon="0.461260">
        <ele>2182.000000</ele>
        <time>2021-09-05T10:47:19Z</time>
      </trkpt>
      <trkpt lat="42.627593" lon="0.461257">
        <ele>2181.000000</ele>
        <time>2021-09-05T10:47:20Z</time>
      </trkpt>
      <trkpt lat="42.627603" lon="0.461253">
        <ele>2181.000000</ele>
        <time>2021-09-05T10:47:21Z</time>
      </trkpt>
      <trkpt lat="42.627605" lon="0.461255">
        <ele>2181.000000</ele>
        <time>2021-09-05T10:47:22Z</time>
      </trkpt>
      <trkpt lat="42.627598" lon="0.461258">
        <ele>2181.000000</ele>
        <time>2021-09-05T10:47:23Z</time>
      </trkpt>
      <trkpt lat="42.627650" lon="0.461258">
        <ele>2181.000000</ele>
        <time>2021-09-05T10:47:24Z</time>
      </trkpt>
      <trkpt lat="42.627663" lon="0.461268">
        <ele>2180.000000</ele>
        <time>2021-09-05T10:47:25Z</time>
      </trkpt>
      <trkpt lat="42.627673" lon="0.461268">
        <ele>2180.000000</ele>
        <time>2021-09-05T10:47:26Z</time>
      </trkpt>
      <trkpt lat="42.627678" lon="0.461270">
        <ele>2180.000000</ele>
        <time>2021-09-05T10:47:28Z</time>
      </trkpt>
      <trkpt lat="42.627678" lon="0.461274">
        <ele>2180.000000</ele>
        <time>2021-09-05T10:47:28Z</time>
      </trkpt>
      <trkpt lat="42.627675" lon="0.461288">
        <ele>2180.000000</ele>
        <time>2021-09-05T10:47:29Z</time>
      </trkpt>
      <trkpt lat="42.627670" lon="0.461297">
        <ele>2180.000000</ele>
        <time>2021-09-05T10:47:30Z</time>
      </trkpt>
      <trkpt lat="42.627672" lon="0.461305">
        <ele>2180.000000</ele>
        <time>2021-09-05T10:47:31Z</time>
      </trkpt>
      <trkpt lat="42.627670" lon="0.461315">
        <ele>2180.000000</ele>
        <time>2021-09-05T10:47:32Z</time>
      </trkpt>
      <trkpt lat="42.627665" lon="0.461332">
        <ele>2179.000000</ele>
        <time>2021-09-05T10:47:33Z</time>
      </trkpt>
      <trkpt lat="42.627665" lon="0.461342">
        <ele>2179.000000</ele>
        <time>2021-09-05T10:47:34Z</time>
      </trkpt>
      <trkpt lat="42.627663" lon="0.461340">
        <ele>2179.000000</ele>
        <time>2021-09-05T10:47:35Z</time>
      </trkpt>
      <trkpt lat="42.627660" lon="0.461343">
        <ele>2179.000000</ele>
        <time>2021-09-05T10:47:36Z</time>
      </trkpt>
      <trkpt lat="42.627660" lon="0.461340">
        <ele>2179.000000</ele>
        <time>2021-09-05T10:47:37Z</time>
      </trkpt>
      <trkpt lat="42.627658" lon="0.461346">
        <ele>2179.000000</ele>
        <time>2021-09-05T10:47:38Z</time>
      </trkpt>
      <trkpt lat="42.627655" lon="0.461350">
        <ele>2178.000000</ele>
        <time>2021-09-05T10:47:39Z</time>
      </trkpt>
      <trkpt lat="42.627650" lon="0.461353">
        <ele>2178.000000</ele>
        <time>2021-09-05T10:47:40Z</time>
      </trkpt>
      <trkpt lat="42.627645" lon="0.461355">
        <ele>2178.000000</ele>
        <time>2021-09-05T10:47:41Z</time>
      </trkpt>
      <trkpt lat="42.627642" lon="0.461358">
        <ele>2178.000000</ele>
        <time>2021-09-05T10:47:43Z</time>
      </trkpt>
      <trkpt lat="42.627640" lon="0.461357">
        <ele>2178.000000</ele>
        <time>2021-09-05T10:47:44Z</time>
      </trkpt>
      <trkpt lat="42.627632" lon="0.461355">
        <ele>2177.000000</ele>
        <time>2021-09-05T10:47:45Z</time>
      </trkpt>
      <trkpt lat="42.627627" lon="0.461360">
        <ele>2177.000000</ele>
        <time>2021-09-05T10:47:46Z</time>
      </trkpt>
      <trkpt lat="42.627618" lon="0.461369">
        <ele>2177.000000</ele>
        <time>2021-09-05T10:47:48Z</time>
      </trkpt>
      <trkpt lat="42.627620" lon="0.461382">
        <ele>2177.000000</ele>
        <time>2021-09-05T10:47:48Z</time>
      </trkpt>
      <trkpt lat="42.627618" lon="0.461392">
        <ele>2177.000000</ele>
        <time>2021-09-05T10:47:49Z</time>
      </trkpt>
      <trkpt lat="42.627620" lon="0.461402">
        <ele>2177.000000</ele>
        <time>2021-09-05T10:47:50Z</time>
      </trkpt>
      <trkpt lat="42.627608" lon="0.461412">
        <ele>2176.000000</ele>
        <time>2021-09-05T10:47:51Z</time>
      </trkpt>
      <trkpt lat="42.627602" lon="0.461413">
        <ele>2176.000000</ele>
        <time>2021-09-05T10:47:52Z</time>
      </trkpt>
      <trkpt lat="42.627598" lon="0.461413">
        <ele>2176.000000</ele>
        <time>2021-09-05T10:47:53Z</time>
      </trkpt>
      <trkpt lat="42.627592" lon="0.461415">
        <ele>2176.000000</ele>
        <time>2021-09-05T10:47:54Z</time>
      </trkpt>
      <trkpt lat="42.627592" lon="0.461419">
        <ele>2175.000000</ele>
        <time>2021-09-05T10:47:55Z</time>
      </trkpt>
      <trkpt lat="42.627587" lon="0.461425">
        <ele>2175.000000</ele>
        <time>2021-09-05T10:47:56Z</time>
      </trkpt>
      <trkpt lat="42.627587" lon="0.461429">
        <ele>2175.000000</ele>
        <time>2021-09-05T10:47:57Z</time>
      </trkpt>
      <trkpt lat="42.627585" lon="0.461443">
        <ele>2175.000000</ele>
        <time>2021-09-05T10:47:58Z</time>
      </trkpt>
      <trkpt lat="42.627585" lon="0.461452">
        <ele>2175.000000</ele>
        <time>2021-09-05T10:47:59Z</time>
      </trkpt>
      <trkpt lat="42.627588" lon="0.461455">
        <ele>2174.000000</ele>
        <time>2021-09-05T10:48:00Z</time>
      </trkpt>
      <trkpt lat="42.627590" lon="0.461463">
        <ele>2174.000000</ele>
        <time>2021-09-05T10:48:01Z</time>
      </trkpt>
      <trkpt lat="42.627588" lon="0.461468">
        <ele>2174.000000</ele>
        <time>2021-09-05T10:48:02Z</time>
      </trkpt>
      <trkpt lat="42.627585" lon="0.461475">
        <ele>2174.000000</ele>
        <time>2021-09-05T10:48:03Z</time>
      </trkpt>
      <trkpt lat="42.627583" lon="0.461477">
        <ele>2174.000000</ele>
        <time>2021-09-05T10:48:04Z</time>
      </trkpt>
      <trkpt lat="42.627578" lon="0.461487">
        <ele>2173.000000</ele>
        <time>2021-09-05T10:48:05Z</time>
      </trkpt>
      <trkpt lat="42.627577" lon="0.461505">
        <ele>2173.000000</ele>
        <time>2021-09-05T10:48:06Z</time>
      </trkpt>
      <trkpt lat="42.627579" lon="0.461507">
        <ele>2173.000000</ele>
        <time>2021-09-05T10:48:07Z</time>
      </trkpt>
      <trkpt lat="42.627587" lon="0.461515">
        <ele>2173.000000</ele>
        <time>2021-09-05T10:48:08Z</time>
      </trkpt>
      <trkpt lat="42.627593" lon="0.461525">
        <ele>2173.000000</ele>
        <time>2021-09-05T10:48:09Z</time>
      </trkpt>
      <trkpt lat="42.627605" lon="0.461535">
        <ele>2173.000000</ele>
        <time>2021-09-05T10:48:10Z</time>
      </trkpt>
      <trkpt lat="42.627615" lon="0.461548">
        <ele>2173.000000</ele>
        <time>2021-09-05T10:48:12Z</time>
      </trkpt>
      <trkpt lat="42.627623" lon="0.461563">
        <ele>2173.000000</ele>
        <time>2021-09-05T10:48:12Z</time>
      </trkpt>
      <trkpt lat="42.627630" lon="0.461565">
        <ele>2173.000000</ele>
        <time>2021-09-05T10:48:13Z</time>
      </trkpt>
      <trkpt lat="42.627637" lon="0.461565">
        <ele>2173.000000</ele>
        <time>2021-09-05T10:48:14Z</time>
      </trkpt>
      <trkpt lat="42.627640" lon="0.461563">
        <ele>2172.000000</ele>
        <time>2021-09-05T10:48:15Z</time>
      </trkpt>
      <trkpt lat="42.627642" lon="0.461576">
        <ele>2172.000000</ele>
        <time>2021-09-05T10:48:16Z</time>
      </trkpt>
      <trkpt lat="42.627645" lon="0.461587">
        <ele>2172.000000</ele>
        <time>2021-09-05T10:48:17Z</time>
      </trkpt>
      <trkpt lat="42.627652" lon="0.461588">
        <ele>2172.000000</ele>
        <time>2021-09-05T10:48:18Z</time>
      </trkpt>
      <trkpt lat="42.627660" lon="0.461583">
        <ele>2171.000000</ele>
        <time>2021-09-05T10:48:19Z</time>
      </trkpt>
      <trkpt lat="42.627673" lon="0.461580">
        <ele>2171.000000</ele>
        <time>2021-09-05T10:48:20Z</time>
      </trkpt>
      <trkpt lat="42.627687" lon="0.461572">
        <ele>2171.000000</ele>
        <time>2021-09-05T10:48:21Z</time>
      </trkpt>
      <trkpt lat="42.627693" lon="0.461572">
        <ele>2171.000000</ele>
        <time>2021-09-05T10:48:22Z</time>
      </trkpt>
      <trkpt lat="42.627700" lon="0.461577">
        <ele>2171.000000</ele>
        <time>2021-09-05T10:48:23Z</time>
      </trkpt>
      <trkpt lat="42.627707" lon="0.461579">
        <ele>2170.000000</ele>
        <time>2021-09-05T10:48:24Z</time>
      </trkpt>
      <trkpt lat="42.627712" lon="0.461587">
        <ele>2170.000000</ele>
        <time>2021-09-05T10:48:25Z</time>
      </trkpt>
      <trkpt lat="42.627713" lon="0.461600">
        <ele>2170.000000</ele>
        <time>2021-09-05T10:48:26Z</time>
      </trkpt>
      <trkpt lat="42.627715" lon="0.461608">
        <ele>2170.000000</ele>
        <time>2021-09-05T10:48:27Z</time>
      </trkpt>
      <trkpt lat="42.627720" lon="0.461608">
        <ele>2169.000000</ele>
        <time>2021-09-05T10:48:28Z</time>
      </trkpt>
      <trkpt lat="42.627737" lon="0.461610">
        <ele>2169.000000</ele>
        <time>2021-09-05T10:48:29Z</time>
      </trkpt>
      <trkpt lat="42.627748" lon="0.461610">
        <ele>2169.000000</ele>
        <time>2021-09-05T10:48:30Z</time>
      </trkpt>
      <trkpt lat="42.627763" lon="0.461620">
        <ele>2169.000000</ele>
        <time>2021-09-05T10:48:31Z</time>
      </trkpt>
      <trkpt lat="42.627775" lon="0.461623">
        <ele>2168.000000</ele>
        <time>2021-09-05T10:48:32Z</time>
      </trkpt>
      <trkpt lat="42.627785" lon="0.461621">
        <ele>2168.000000</ele>
        <time>2021-09-05T10:48:33Z</time>
      </trkpt>
      <trkpt lat="42.627800" lon="0.461619">
        <ele>2168.000000</ele>
        <time>2021-09-05T10:48:34Z</time>
      </trkpt>
      <trkpt lat="42.627815" lon="0.461619">
        <ele>2167.000000</ele>
        <time>2021-09-05T10:48:36Z</time>
      </trkpt>
      <trkpt lat="42.627827" lon="0.461623">
        <ele>2167.000000</ele>
        <time>2021-09-05T10:48:36Z</time>
      </trkpt>
      <trkpt lat="42.627833" lon="0.461625">
        <ele>2167.000000</ele>
        <time>2021-09-05T10:48:37Z</time>
      </trkpt>
      <trkpt lat="42.627845" lon="0.461625">
        <ele>2166.000000</ele>
        <time>2021-09-05T10:48:38Z</time>
      </trkpt>
      <trkpt lat="42.627845" lon="0.461622">
        <ele>2166.000000</ele>
        <time>2021-09-05T10:48:39Z</time>
      </trkpt>
      <trkpt lat="42.627845" lon="0.461602">
        <ele>2165.000000</ele>
        <time>2021-09-05T10:48:40Z</time>
      </trkpt>
      <trkpt lat="42.627847" lon="0.461590">
        <ele>2165.000000</ele>
        <time>2021-09-05T10:48:41Z</time>
      </trkpt>
      <trkpt lat="42.627852" lon="0.461580">
        <ele>2164.000000</ele>
        <time>2021-09-05T10:48:42Z</time>
      </trkpt>
      <trkpt lat="42.627853" lon="0.461565">
        <ele>2164.000000</ele>
        <time>2021-09-05T10:48:43Z</time>
      </trkpt>
      <trkpt lat="42.627860" lon="0.461557">
        <ele>2163.000000</ele>
        <time>2021-09-05T10:48:44Z</time>
      </trkpt>
      <trkpt lat="42.627872" lon="0.461553">
        <ele>2163.000000</ele>
        <time>2021-09-05T10:48:45Z</time>
      </trkpt>
      <trkpt lat="42.627880" lon="0.461555">
        <ele>2163.000000</ele>
        <time>2021-09-05T10:48:46Z</time>
      </trkpt>
      <trkpt lat="42.627893" lon="0.461562">
        <ele>2163.000000</ele>
        <time>2021-09-05T10:48:47Z</time>
      </trkpt>
      <trkpt lat="42.627898" lon="0.461565">
        <ele>2163.000000</ele>
        <time>2021-09-05T10:48:48Z</time>
      </trkpt>
      <trkpt lat="42.627907" lon="0.461568">
        <ele>2163.000000</ele>
        <time>2021-09-05T10:48:49Z</time>
      </trkpt>
      <trkpt lat="42.627913" lon="0.461568">
        <ele>2163.000000</ele>
        <time>2021-09-05T10:48:50Z</time>
      </trkpt>
      <trkpt lat="42.627922" lon="0.461570">
        <ele>2163.000000</ele>
        <time>2021-09-05T10:48:51Z</time>
      </trkpt>
      <trkpt lat="42.627930" lon="0.461570">
        <ele>2163.000000</ele>
        <time>2021-09-05T10:48:52Z</time>
      </trkpt>
      <trkpt lat="42.627930" lon="0.461572">
        <ele>2162.000000</ele>
        <time>2021-09-05T10:48:53Z</time>
      </trkpt>
      <trkpt lat="42.627938" lon="0.461577">
        <ele>2162.000000</ele>
        <time>2021-09-05T10:48:54Z</time>
      </trkpt>
      <trkpt lat="42.627947" lon="0.461581">
        <ele>2162.000000</ele>
        <time>2021-09-05T10:48:56Z</time>
      </trkpt>
      <trkpt lat="42.627957" lon="0.461585">
        <ele>2162.000000</ele>
        <time>2021-09-05T10:48:56Z</time>
      </trkpt>
      <trkpt lat="42.627967" lon="0.461586">
        <ele>2162.000000</ele>
        <time>2021-09-05T10:48:57Z</time>
      </trkpt>
      <trkpt lat="42.627973" lon="0.461587">
        <ele>2161.000000</ele>
        <time>2021-09-05T10:48:58Z</time>
      </trkpt>
      <trkpt lat="42.627978" lon="0.461587">
        <ele>2161.000000</ele>
        <time>2021-09-05T10:48:59Z</time>
      </trkpt>
      <trkpt lat="42.627982" lon="0.461588">
        <ele>2161.000000</ele>
        <time>2021-09-05T10:49:00Z</time>
      </trkpt>
      <trkpt lat="42.627987" lon="0.461590">
        <ele>2161.000000</ele>
        <time>2021-09-05T10:49:01Z</time>
      </trkpt>
      <trkpt lat="42.627993" lon="0.461598">
        <ele>2161.000000</ele>
        <time>2021-09-05T10:49:02Z</time>
      </trkpt>
      <trkpt lat="42.627998" lon="0.461602">
        <ele>2161.000000</ele>
        <time>2021-09-05T10:49:03Z</time>
      </trkpt>
      <trkpt lat="42.628008" lon="0.461597">
        <ele>2161.000000</ele>
        <time>2021-09-05T10:49:04Z</time>
      </trkpt>
      <trkpt lat="42.628015" lon="0.461592">
        <ele>2161.000000</ele>
        <time>2021-09-05T10:49:05Z</time>
      </trkpt>
      <trkpt lat="42.628018" lon="0.461595">
        <ele>2160.000000</ele>
        <time>2021-09-05T10:49:06Z</time>
      </trkpt>
      <trkpt lat="42.628023" lon="0.461599">
        <ele>2160.000000</ele>
        <time>2021-09-05T10:49:07Z</time>
      </trkpt>
      <trkpt lat="42.628032" lon="0.461605">
        <ele>2160.000000</ele>
        <time>2021-09-05T10:49:08Z</time>
      </trkpt>
      <trkpt lat="42.628035" lon="0.461610">
        <ele>2160.000000</ele>
        <time>2021-09-05T10:49:09Z</time>
      </trkpt>
      <trkpt lat="42.628038" lon="0.461617">
        <ele>2160.000000</ele>
        <time>2021-09-05T10:49:10Z</time>
      </trkpt>
      <trkpt lat="42.628042" lon="0.461633">
        <ele>2159.000000</ele>
        <time>2021-09-05T10:49:11Z</time>
      </trkpt>
      <trkpt lat="42.628040" lon="0.461645">
        <ele>2159.000000</ele>
        <time>2021-09-05T10:49:12Z</time>
      </trkpt>
      <trkpt lat="42.628035" lon="0.461653">
        <ele>2159.000000</ele>
        <time>2021-09-05T10:49:13Z</time>
      </trkpt>
      <trkpt lat="42.628035" lon="0.461663">
        <ele>2159.000000</ele>
        <time>2021-09-05T10:49:14Z</time>
      </trkpt>
      <trkpt lat="42.628038" lon="0.461670">
        <ele>2158.000000</ele>
        <time>2021-09-05T10:49:15Z</time>
      </trkpt>
      <trkpt lat="42.628036" lon="0.461677">
        <ele>2158.000000</ele>
        <time>2021-09-05T10:49:16Z</time>
      </trkpt>
      <trkpt lat="42.628032" lon="0.461682">
        <ele>2158.000000</ele>
        <time>2021-09-05T10:49:17Z</time>
      </trkpt>
      <trkpt lat="42.628023" lon="0.461690">
        <ele>2158.000000</ele>
        <time>2021-09-05T10:49:19Z</time>
      </trkpt>
      <trkpt lat="42.628020" lon="0.461695">
        <ele>2158.000000</ele>
        <time>2021-09-05T10:49:19Z</time>
      </trkpt>
      <trkpt lat="42.628017" lon="0.461695">
        <ele>2158.000000</ele>
        <time>2021-09-05T10:49:20Z</time>
      </trkpt>
      <trkpt lat="42.628023" lon="0.461703">
        <ele>2158.000000</ele>
        <time>2021-09-05T10:49:22Z</time>
      </trkpt>
      <trkpt lat="42.628030" lon="0.461705">
        <ele>2158.000000</ele>
        <time>2021-09-05T10:49:23Z</time>
      </trkpt>
      <trkpt lat="42.628037" lon="0.461712">
        <ele>2158.000000</ele>
        <time>2021-09-05T10:49:24Z</time>
      </trkpt>
      <trkpt lat="42.628040" lon="0.461723">
        <ele>2158.000000</ele>
        <time>2021-09-05T10:49:25Z</time>
      </trkpt>
      <trkpt lat="42.628040" lon="0.461728">
        <ele>2158.000000</ele>
        <time>2021-09-05T10:49:26Z</time>
      </trkpt>
      <trkpt lat="42.628045" lon="0.461738">
        <ele>2157.000000</ele>
        <time>2021-09-05T10:49:27Z</time>
      </trkpt>
      <trkpt lat="42.628047" lon="0.461748">
        <ele>2157.000000</ele>
        <time>2021-09-05T10:49:28Z</time>
      </trkpt>
      <trkpt lat="42.628049" lon="0.461755">
        <ele>2157.000000</ele>
        <time>2021-09-05T10:49:29Z</time>
      </trkpt>
      <trkpt lat="42.628051" lon="0.461763">
        <ele>2157.000000</ele>
        <time>2021-09-05T10:49:30Z</time>
      </trkpt>
      <trkpt lat="42.628053" lon="0.461772">
        <ele>2157.000000</ele>
        <time>2021-09-05T10:49:31Z</time>
      </trkpt>
      <trkpt lat="42.628058" lon="0.461785">
        <ele>2157.000000</ele>
        <time>2021-09-05T10:49:32Z</time>
      </trkpt>
      <trkpt lat="42.628062" lon="0.461797">
        <ele>2157.000000</ele>
        <time>2021-09-05T10:49:33Z</time>
      </trkpt>
      <trkpt lat="42.628067" lon="0.461808">
        <ele>2156.000000</ele>
        <time>2021-09-05T10:49:34Z</time>
      </trkpt>
      <trkpt lat="42.628069" lon="0.461822">
        <ele>2156.000000</ele>
        <time>2021-09-05T10:49:35Z</time>
      </trkpt>
      <trkpt lat="42.628066" lon="0.461832">
        <ele>2155.000000</ele>
        <time>2021-09-05T10:49:36Z</time>
      </trkpt>
      <trkpt lat="42.628040" lon="0.461842">
        <ele>2155.000000</ele>
        <time>2021-09-05T10:49:37Z</time>
      </trkpt>
      <trkpt lat="42.628033" lon="0.461847">
        <ele>2155.000000</ele>
        <time>2021-09-05T10:49:38Z</time>
      </trkpt>
      <trkpt lat="42.628030" lon="0.461855">
        <ele>2154.000000</ele>
        <time>2021-09-05T10:49:39Z</time>
      </trkpt>
      <trkpt lat="42.628033" lon="0.461860">
        <ele>2154.000000</ele>
        <time>2021-09-05T10:49:40Z</time>
      </trkpt>
      <trkpt lat="42.628038" lon="0.461868">
        <ele>2154.000000</ele>
        <time>2021-09-05T10:49:41Z</time>
      </trkpt>
      <trkpt lat="42.628045" lon="0.461875">
        <ele>2153.000000</ele>
        <time>2021-09-05T10:49:43Z</time>
      </trkpt>
      <trkpt lat="42.628048" lon="0.461885">
        <ele>2153.000000</ele>
        <time>2021-09-05T10:49:43Z</time>
      </trkpt>
      <trkpt lat="42.628052" lon="0.461893">
        <ele>2153.000000</ele>
        <time>2021-09-05T10:49:44Z</time>
      </trkpt>
      <trkpt lat="42.628051" lon="0.461907">
        <ele>2152.000000</ele>
        <time>2021-09-05T10:49:45Z</time>
      </trkpt>
      <trkpt lat="42.628047" lon="0.461915">
        <ele>2152.000000</ele>
        <time>2021-09-05T10:49:46Z</time>
      </trkpt>
      <trkpt lat="42.628037" lon="0.461920">
        <ele>2151.000000</ele>
        <time>2021-09-05T10:49:47Z</time>
      </trkpt>
      <trkpt lat="42.628028" lon="0.461925">
        <ele>2151.000000</ele>
        <time>2021-09-05T10:49:48Z</time>
      </trkpt>
      <trkpt lat="42.628025" lon="0.461925">
        <ele>2151.000000</ele>
        <time>2021-09-05T10:49:49Z</time>
      </trkpt>
      <trkpt lat="42.628018" lon="0.461928">
        <ele>2150.000000</ele>
        <time>2021-09-05T10:49:50Z</time>
      </trkpt>
      <trkpt lat="42.628015" lon="0.461930">
        <ele>2150.000000</ele>
        <time>2021-09-05T10:49:51Z</time>
      </trkpt>
      <trkpt lat="42.628012" lon="0.461936">
        <ele>2150.000000</ele>
        <time>2021-09-05T10:49:52Z</time>
      </trkpt>
      <trkpt lat="42.628015" lon="0.461943">
        <ele>2150.000000</ele>
        <time>2021-09-05T10:49:53Z</time>
      </trkpt>
      <trkpt lat="42.628018" lon="0.461943">
        <ele>2150.000000</ele>
        <time>2021-09-05T10:49:54Z</time>
      </trkpt>
      <trkpt lat="42.628023" lon="0.461948">
        <ele>2150.000000</ele>
        <time>2021-09-05T10:49:55Z</time>
      </trkpt>
      <trkpt lat="42.628023" lon="0.461955">
        <ele>2150.000000</ele>
        <time>2021-09-05T10:49:56Z</time>
      </trkpt>
      <trkpt lat="42.628022" lon="0.461962">
        <ele>2150.000000</ele>
        <time>2021-09-05T10:49:57Z</time>
      </trkpt>
      <trkpt lat="42.628014" lon="0.461972">
        <ele>2150.000000</ele>
        <time>2021-09-05T10:49:58Z</time>
      </trkpt>
      <trkpt lat="42.628006" lon="0.461980">
        <ele>2150.000000</ele>
        <time>2021-09-05T10:49:59Z</time>
      </trkpt>
      <trkpt lat="42.628000" lon="0.461992">
        <ele>2150.000000</ele>
        <time>2021-09-05T10:50:00Z</time>
      </trkpt>
      <trkpt lat="42.627993" lon="0.462002">
        <ele>2150.000000</ele>
        <time>2021-09-05T10:50:00Z</time>
      </trkpt>
      <trkpt lat="42.627990" lon="0.462008">
        <ele>2150.000000</ele>
        <time>2021-09-05T10:50:02Z</time>
      </trkpt>
      <trkpt lat="42.627980" lon="0.462022">
        <ele>2149.000000</ele>
        <time>2021-09-05T10:50:02Z</time>
      </trkpt>
      <trkpt lat="42.627980" lon="0.462025">
        <ele>2149.000000</ele>
        <time>2021-09-05T10:50:03Z</time>
      </trkpt>
      <trkpt lat="42.627978" lon="0.462035">
        <ele>2149.000000</ele>
        <time>2021-09-05T10:50:04Z</time>
      </trkpt>
      <trkpt lat="42.627973" lon="0.462047">
        <ele>2149.000000</ele>
        <time>2021-09-05T10:50:05Z</time>
      </trkpt>
      <trkpt lat="42.627970" lon="0.462052">
        <ele>2149.000000</ele>
        <time>2021-09-05T10:50:06Z</time>
      </trkpt>
      <trkpt lat="42.627973" lon="0.462052">
        <ele>2149.000000</ele>
        <time>2021-09-05T10:50:07Z</time>
      </trkpt>
      <trkpt lat="42.627977" lon="0.462057">
        <ele>2149.000000</ele>
        <time>2021-09-05T10:50:08Z</time>
      </trkpt>
      <trkpt lat="42.627980" lon="0.462063">
        <ele>2149.000000</ele>
        <time>2021-09-05T10:50:09Z</time>
      </trkpt>
      <trkpt lat="42.627984" lon="0.462073">
        <ele>2149.000000</ele>
        <time>2021-09-05T10:50:10Z</time>
      </trkpt>
      <trkpt lat="42.627985" lon="0.462078">
        <ele>2148.000000</ele>
        <time>2021-09-05T10:50:11Z</time>
      </trkpt>
      <trkpt lat="42.627986" lon="0.462083">
        <ele>2148.000000</ele>
        <time>2021-09-05T10:50:12Z</time>
      </trkpt>
      <trkpt lat="42.627985" lon="0.462093">
        <ele>2148.000000</ele>
        <time>2021-09-05T10:50:13Z</time>
      </trkpt>
      <trkpt lat="42.627973" lon="0.462100">
        <ele>2148.000000</ele>
        <time>2021-09-05T10:50:14Z</time>
      </trkpt>
      <trkpt lat="42.627965" lon="0.462102">
        <ele>2148.000000</ele>
        <time>2021-09-05T10:50:15Z</time>
      </trkpt>
      <trkpt lat="42.627962" lon="0.462107">
        <ele>2148.000000</ele>
        <time>2021-09-05T10:50:16Z</time>
      </trkpt>
      <trkpt lat="42.627959" lon="0.462108">
        <ele>2148.000000</ele>
        <time>2021-09-05T10:50:17Z</time>
      </trkpt>
      <trkpt lat="42.627958" lon="0.462107">
        <ele>2148.000000</ele>
        <time>2021-09-05T10:50:18Z</time>
      </trkpt>
      <trkpt lat="42.627950" lon="0.462115">
        <ele>2147.000000</ele>
        <time>2021-09-05T10:50:19Z</time>
      </trkpt>
      <trkpt lat="42.627942" lon="0.462130">
        <ele>2147.000000</ele>
        <time>2021-09-05T10:50:20Z</time>
      </trkpt>
      <trkpt lat="42.627943" lon="0.462143">
        <ele>2147.000000</ele>
        <time>2021-09-05T10:50:21Z</time>
      </trkpt>
      <trkpt lat="42.627942" lon="0.462158">
        <ele>2147.000000</ele>
        <time>2021-09-05T10:50:22Z</time>
      </trkpt>
      <trkpt lat="42.627940" lon="0.462163">
        <ele>2147.000000</ele>
        <time>2021-09-05T10:50:23Z</time>
      </trkpt>
      <trkpt lat="42.627929" lon="0.462175">
        <ele>2147.000000</ele>
        <time>2021-09-05T10:50:24Z</time>
      </trkpt>
      <trkpt lat="42.627921" lon="0.462180">
        <ele>2147.000000</ele>
        <time>2021-09-05T10:50:26Z</time>
      </trkpt>
      <trkpt lat="42.627910" lon="0.462188">
        <ele>2147.000000</ele>
        <time>2021-09-05T10:50:26Z</time>
      </trkpt>
      <trkpt lat="42.627905" lon="0.462193">
        <ele>2147.000000</ele>
        <time>2021-09-05T10:50:27Z</time>
      </trkpt>
      <trkpt lat="42.627897" lon="0.462203">
        <ele>2146.000000</ele>
        <time>2021-09-05T10:50:28Z</time>
      </trkpt>
      <trkpt lat="42.627892" lon="0.462208">
        <ele>2146.000000</ele>
        <time>2021-09-05T10:50:29Z</time>
      </trkpt>
      <trkpt lat="42.627892" lon="0.462209">
        <ele>2145.000000</ele>
        <time>2021-09-05T10:50:30Z</time>
      </trkpt>
      <trkpt lat="42.627888" lon="0.462216">
        <ele>2145.000000</ele>
        <time>2021-09-05T10:50:31Z</time>
      </trkpt>
      <trkpt lat="42.627883" lon="0.462226">
        <ele>2145.000000</ele>
        <time>2021-09-05T10:50:32Z</time>
      </trkpt>
      <trkpt lat="42.627875" lon="0.462236">
        <ele>2145.000000</ele>
        <time>2021-09-05T10:50:33Z</time>
      </trkpt>
      <trkpt lat="42.627873" lon="0.462242">
        <ele>2145.000000</ele>
        <time>2021-09-05T10:50:34Z</time>
      </trkpt>
      <trkpt lat="42.627870" lon="0.462250">
        <ele>2144.000000</ele>
        <time>2021-09-05T10:50:35Z</time>
      </trkpt>
      <trkpt lat="42.627865" lon="0.462263">
        <ele>2144.000000</ele>
        <time>2021-09-05T10:50:36Z</time>
      </trkpt>
      <trkpt lat="42.627860" lon="0.462268">
        <ele>2144.000000</ele>
        <time>2021-09-05T10:50:37Z</time>
      </trkpt>
      <trkpt lat="42.627847" lon="0.462275">
        <ele>2143.000000</ele>
        <time>2021-09-05T10:50:38Z</time>
      </trkpt>
      <trkpt lat="42.627843" lon="0.462275">
        <ele>2143.000000</ele>
        <time>2021-09-05T10:50:39Z</time>
      </trkpt>
      <trkpt lat="42.627845" lon="0.462279">
        <ele>2143.000000</ele>
        <time>2021-09-05T10:50:40Z</time>
      </trkpt>
      <trkpt lat="42.627843" lon="0.462278">
        <ele>2143.000000</ele>
        <time>2021-09-05T10:50:41Z</time>
      </trkpt>
      <trkpt lat="42.627842" lon="0.462283">
        <ele>2142.000000</ele>
        <time>2021-09-05T10:50:42Z</time>
      </trkpt>
      <trkpt lat="42.627843" lon="0.462282">
        <ele>2142.000000</ele>
        <time>2021-09-05T10:50:43Z</time>
      </trkpt>
      <trkpt lat="42.627840" lon="0.462293">
        <ele>2142.000000</ele>
        <time>2021-09-05T10:50:46Z</time>
      </trkpt>
      <trkpt lat="42.627837" lon="0.462300">
        <ele>2142.000000</ele>
        <time>2021-09-05T10:50:46Z</time>
      </trkpt>
      <trkpt lat="42.627833" lon="0.462302">
        <ele>2142.000000</ele>
        <time>2021-09-05T10:50:47Z</time>
      </trkpt>
      <trkpt lat="42.627822" lon="0.462300">
        <ele>2142.000000</ele>
        <time>2021-09-05T10:50:48Z</time>
      </trkpt>
      <trkpt lat="42.627812" lon="0.462292">
        <ele>2142.000000</ele>
        <time>2021-09-05T10:50:49Z</time>
      </trkpt>
      <trkpt lat="42.627807" lon="0.462285">
        <ele>2142.000000</ele>
        <time>2021-09-05T10:50:50Z</time>
      </trkpt>
      <trkpt lat="42.627803" lon="0.462282">
        <ele>2142.000000</ele>
        <time>2021-09-05T10:50:51Z</time>
      </trkpt>
      <trkpt lat="42.627807" lon="0.462282">
        <ele>2142.000000</ele>
        <time>2021-09-05T10:50:52Z</time>
      </trkpt>
      <trkpt lat="42.627803" lon="0.462282">
        <ele>2142.000000</ele>
        <time>2021-09-05T10:50:53Z</time>
      </trkpt>
      <trkpt lat="42.627805" lon="0.462283">
        <ele>2142.000000</ele>
        <time>2021-09-05T10:50:54Z</time>
      </trkpt>
      <trkpt lat="42.627808" lon="0.462288">
        <ele>2142.000000</ele>
        <time>2021-09-05T10:50:55Z</time>
      </trkpt>
      <trkpt lat="42.627813" lon="0.462288">
        <ele>2141.000000</ele>
        <time>2021-09-05T10:50:56Z</time>
      </trkpt>
      <trkpt lat="42.627818" lon="0.462287">
        <ele>2141.000000</ele>
        <time>2021-09-05T10:50:57Z</time>
      </trkpt>
      <trkpt lat="42.627818" lon="0.462284">
        <ele>2140.000000</ele>
        <time>2021-09-05T10:50:59Z</time>
      </trkpt>
      <trkpt lat="42.627822" lon="0.462278">
        <ele>2140.000000</ele>
        <time>2021-09-05T10:51:01Z</time>
      </trkpt>
      <trkpt lat="42.627823" lon="0.462280">
        <ele>2141.000000</ele>
        <time>2021-09-05T10:51:02Z</time>
      </trkpt>
      <trkpt lat="42.627822" lon="0.462281">
        <ele>2141.000000</ele>
        <time>2021-09-05T10:51:03Z</time>
      </trkpt>
      <trkpt lat="42.627823" lon="0.462280">
        <ele>2141.000000</ele>
        <time>2021-09-05T10:51:04Z</time>
      </trkpt>
      <trkpt lat="42.627825" lon="0.462277">
        <ele>2141.000000</ele>
        <time>2021-09-05T10:51:05Z</time>
      </trkpt>
      <trkpt lat="42.627822" lon="0.462273">
        <ele>2142.000000</ele>
        <time>2021-09-05T10:51:06Z</time>
      </trkpt>
      <trkpt lat="42.627818" lon="0.462270">
        <ele>2142.000000</ele>
        <time>2021-09-05T10:51:07Z</time>
      </trkpt>
      <trkpt lat="42.627823" lon="0.462270">
        <ele>2142.000000</ele>
        <time>2021-09-05T10:51:09Z</time>
      </trkpt>
      <trkpt lat="42.627827" lon="0.462266">
        <ele>2142.000000</ele>
        <time>2021-09-05T10:51:10Z</time>
      </trkpt>
      <trkpt lat="42.627823" lon="0.462269">
        <ele>2142.000000</ele>
        <time>2021-09-05T10:51:11Z</time>
      </trkpt>
      <trkpt lat="42.627815" lon="0.462270">
        <ele>2140.000000</ele>
        <time>2021-09-05T10:53:58Z</time>
      </trkpt>
      <trkpt lat="42.627755" lon="0.462392">
        <ele>2141.000000</ele>
        <time>2021-09-05T10:55:01Z</time>
      </trkpt>
      <trkpt lat="42.627752" lon="0.462403">
        <ele>2141.000000</ele>
        <time>2021-09-05T10:55:02Z</time>
      </trkpt>
      <trkpt lat="42.627747" lon="0.462410">
        <ele>2141.000000</ele>
        <time>2021-09-05T10:55:03Z</time>
      </trkpt>
      <trkpt lat="42.627740" lon="0.462413">
        <ele>2141.000000</ele>
        <time>2021-09-05T10:55:04Z</time>
      </trkpt>
      <trkpt lat="42.627733" lon="0.462415">
        <ele>2141.000000</ele>
        <time>2021-09-05T10:55:05Z</time>
      </trkpt>
      <trkpt lat="42.627730" lon="0.462418">
        <ele>2141.000000</ele>
        <time>2021-09-05T10:55:06Z</time>
      </trkpt>
      <trkpt lat="42.627734" lon="0.462432">
        <ele>2141.000000</ele>
        <time>2021-09-05T10:55:07Z</time>
      </trkpt>
      <trkpt lat="42.627739" lon="0.462437">
        <ele>2141.000000</ele>
        <time>2021-09-05T10:55:09Z</time>
      </trkpt>
      <trkpt lat="42.627747" lon="0.462445">
        <ele>2141.000000</ele>
        <time>2021-09-05T10:55:09Z</time>
      </trkpt>
      <trkpt lat="42.627750" lon="0.462458">
        <ele>2141.000000</ele>
        <time>2021-09-05T10:55:10Z</time>
      </trkpt>
      <trkpt lat="42.627746" lon="0.462467">
        <ele>2141.000000</ele>
        <time>2021-09-05T10:55:11Z</time>
      </trkpt>
      <trkpt lat="42.627741" lon="0.462468">
        <ele>2141.000000</ele>
        <time>2021-09-05T10:55:12Z</time>
      </trkpt>
      <trkpt lat="42.627730" lon="0.462477">
        <ele>2141.000000</ele>
        <time>2021-09-05T10:55:13Z</time>
      </trkpt>
      <trkpt lat="42.627720" lon="0.462483">
        <ele>2141.000000</ele>
        <time>2021-09-05T10:55:14Z</time>
      </trkpt>
      <trkpt lat="42.627717" lon="0.462487">
        <ele>2141.000000</ele>
        <time>2021-09-05T10:55:15Z</time>
      </trkpt>
      <trkpt lat="42.627715" lon="0.462491">
        <ele>2140.000000</ele>
        <time>2021-09-05T10:55:16Z</time>
      </trkpt>
      <trkpt lat="42.627717" lon="0.462498">
        <ele>2140.000000</ele>
        <time>2021-09-05T10:55:17Z</time>
      </trkpt>
      <trkpt lat="42.627725" lon="0.462503">
        <ele>2140.000000</ele>
        <time>2021-09-05T10:55:18Z</time>
      </trkpt>
      <trkpt lat="42.627732" lon="0.462508">
        <ele>2140.000000</ele>
        <time>2021-09-05T10:55:19Z</time>
      </trkpt>
      <trkpt lat="42.627742" lon="0.462517">
        <ele>2140.000000</ele>
        <time>2021-09-05T10:55:20Z</time>
      </trkpt>
      <trkpt lat="42.627752" lon="0.462532">
        <ele>2140.000000</ele>
        <time>2021-09-05T10:55:21Z</time>
      </trkpt>
      <trkpt lat="42.627760" lon="0.462547">
        <ele>2140.000000</ele>
        <time>2021-09-05T10:55:22Z</time>
      </trkpt>
      <trkpt lat="42.627764" lon="0.462560">
        <ele>2139.000000</ele>
        <time>2021-09-05T10:55:23Z</time>
      </trkpt>
      <trkpt lat="42.627766" lon="0.462570">
        <ele>2139.000000</ele>
        <time>2021-09-05T10:55:24Z</time>
      </trkpt>
      <trkpt lat="42.627768" lon="0.462577">
        <ele>2139.000000</ele>
        <time>2021-09-05T10:55:25Z</time>
      </trkpt>
      <trkpt lat="42.627772" lon="0.462592">
        <ele>2139.000000</ele>
        <time>2021-09-05T10:55:26Z</time>
      </trkpt>
      <trkpt lat="42.627773" lon="0.462598">
        <ele>2139.000000</ele>
        <time>2021-09-05T10:55:27Z</time>
      </trkpt>
      <trkpt lat="42.627768" lon="0.462603">
        <ele>2138.000000</ele>
        <time>2021-09-05T10:55:28Z</time>
      </trkpt>
      <trkpt lat="42.627762" lon="0.462603">
        <ele>2138.000000</ele>
        <time>2021-09-05T10:55:29Z</time>
      </trkpt>
      <trkpt lat="42.627758" lon="0.462608">
        <ele>2138.000000</ele>
        <time>2021-09-05T10:55:30Z</time>
      </trkpt>
      <trkpt lat="42.627755" lon="0.462617">
        <ele>2138.000000</ele>
        <time>2021-09-05T10:55:31Z</time>
      </trkpt>
      <trkpt lat="42.627748" lon="0.462623">
        <ele>2137.000000</ele>
        <time>2021-09-05T10:55:33Z</time>
      </trkpt>
      <trkpt lat="42.627742" lon="0.462627">
        <ele>2137.000000</ele>
        <time>2021-09-05T10:55:33Z</time>
      </trkpt>
      <trkpt lat="42.627737" lon="0.462630">
        <ele>2137.000000</ele>
        <time>2021-09-05T10:55:34Z</time>
      </trkpt>
      <trkpt lat="42.627733" lon="0.462637">
        <ele>2137.000000</ele>
        <time>2021-09-05T10:55:35Z</time>
      </trkpt>
      <trkpt lat="42.627728" lon="0.462638">
        <ele>2136.000000</ele>
        <time>2021-09-05T10:55:37Z</time>
      </trkpt>
      <trkpt lat="42.627723" lon="0.462641">
        <ele>2136.000000</ele>
        <time>2021-09-05T10:55:37Z</time>
      </trkpt>
      <trkpt lat="42.627713" lon="0.462646">
        <ele>2136.000000</ele>
        <time>2021-09-05T10:55:38Z</time>
      </trkpt>
      <trkpt lat="42.627710" lon="0.462653">
        <ele>2136.000000</ele>
        <time>2021-09-05T10:55:39Z</time>
      </trkpt>
      <trkpt lat="42.627707" lon="0.462659">
        <ele>2136.000000</ele>
        <time>2021-09-05T10:55:40Z</time>
      </trkpt>
      <trkpt lat="42.627708" lon="0.462672">
        <ele>2136.000000</ele>
        <time>2021-09-05T10:55:41Z</time>
      </trkpt>
      <trkpt lat="42.627708" lon="0.462680">
        <ele>2136.000000</ele>
        <time>2021-09-05T10:55:42Z</time>
      </trkpt>
      <trkpt lat="42.627703" lon="0.462683">
        <ele>2136.000000</ele>
        <time>2021-09-05T10:55:43Z</time>
      </trkpt>
      <trkpt lat="42.627699" lon="0.462688">
        <ele>2135.000000</ele>
        <time>2021-09-05T10:55:44Z</time>
      </trkpt>
      <trkpt lat="42.627694" lon="0.462697">
        <ele>2135.000000</ele>
        <time>2021-09-05T10:55:45Z</time>
      </trkpt>
      <trkpt lat="42.627689" lon="0.462705">
        <ele>2135.000000</ele>
        <time>2021-09-05T10:55:46Z</time>
      </trkpt>
      <trkpt lat="42.627680" lon="0.462712">
        <ele>2135.000000</ele>
        <time>2021-09-05T10:55:47Z</time>
      </trkpt>
      <trkpt lat="42.627680" lon="0.462723">
        <ele>2135.000000</ele>
        <time>2021-09-05T10:55:48Z</time>
      </trkpt>
      <trkpt lat="42.627683" lon="0.462735">
        <ele>2135.000000</ele>
        <time>2021-09-05T10:55:49Z</time>
      </trkpt>
      <trkpt lat="42.627683" lon="0.462742">
        <ele>2135.000000</ele>
        <time>2021-09-05T10:55:50Z</time>
      </trkpt>
      <trkpt lat="42.627680" lon="0.462755">
        <ele>2134.000000</ele>
        <time>2021-09-05T10:55:52Z</time>
      </trkpt>
      <trkpt lat="42.627677" lon="0.462760">
        <ele>2134.000000</ele>
        <time>2021-09-05T10:55:52Z</time>
      </trkpt>
      <trkpt lat="42.627673" lon="0.462763">
        <ele>2134.000000</ele>
        <time>2021-09-05T10:55:53Z</time>
      </trkpt>
      <trkpt lat="42.627673" lon="0.462773">
        <ele>2134.000000</ele>
        <time>2021-09-05T10:55:54Z</time>
      </trkpt>
      <trkpt lat="42.627673" lon="0.462780">
        <ele>2133.000000</ele>
        <time>2021-09-05T10:55:55Z</time>
      </trkpt>
      <trkpt lat="42.627678" lon="0.462790">
        <ele>2133.000000</ele>
        <time>2021-09-05T10:55:56Z</time>
      </trkpt>
      <trkpt lat="42.627685" lon="0.462793">
        <ele>2133.000000</ele>
        <time>2021-09-05T10:55:57Z</time>
      </trkpt>
      <trkpt lat="42.627692" lon="0.462802">
        <ele>2133.000000</ele>
        <time>2021-09-05T10:55:58Z</time>
      </trkpt>
      <trkpt lat="42.627695" lon="0.462810">
        <ele>2133.000000</ele>
        <time>2021-09-05T10:55:59Z</time>
      </trkpt>
      <trkpt lat="42.627697" lon="0.462820">
        <ele>2133.000000</ele>
        <time>2021-09-05T10:56:00Z</time>
      </trkpt>
      <trkpt lat="42.627702" lon="0.462830">
        <ele>2133.000000</ele>
        <time>2021-09-05T10:56:01Z</time>
      </trkpt>
      <trkpt lat="42.627708" lon="0.462840">
        <ele>2133.000000</ele>
        <time>2021-09-05T10:56:02Z</time>
      </trkpt>
      <trkpt lat="42.627716" lon="0.462852">
        <ele>2133.000000</ele>
        <time>2021-09-05T10:56:03Z</time>
      </trkpt>
      <trkpt lat="42.627722" lon="0.462860">
        <ele>2132.000000</ele>
        <time>2021-09-05T10:56:04Z</time>
      </trkpt>
      <trkpt lat="42.627726" lon="0.462870">
        <ele>2132.000000</ele>
        <time>2021-09-05T10:56:05Z</time>
      </trkpt>
      <trkpt lat="42.627727" lon="0.462880">
        <ele>2132.000000</ele>
        <time>2021-09-05T10:56:06Z</time>
      </trkpt>
      <trkpt lat="42.627726" lon="0.462888">
        <ele>2132.000000</ele>
        <time>2021-09-05T10:56:07Z</time>
      </trkpt>
      <trkpt lat="42.627710" lon="0.462900">
        <ele>2132.000000</ele>
        <time>2021-09-05T10:56:08Z</time>
      </trkpt>
      <trkpt lat="42.627707" lon="0.462913">
        <ele>2132.000000</ele>
        <time>2021-09-05T10:56:09Z</time>
      </trkpt>
      <trkpt lat="42.627700" lon="0.462923">
        <ele>2132.000000</ele>
        <time>2021-09-05T10:56:10Z</time>
      </trkpt>
      <trkpt lat="42.627692" lon="0.462935">
        <ele>2132.000000</ele>
        <time>2021-09-05T10:56:11Z</time>
      </trkpt>
      <trkpt lat="42.627682" lon="0.462948">
        <ele>2131.000000</ele>
        <time>2021-09-05T10:56:12Z</time>
      </trkpt>
      <trkpt lat="42.627667" lon="0.462960">
        <ele>2131.000000</ele>
        <time>2021-09-05T10:56:13Z</time>
      </trkpt>
      <trkpt lat="42.627648" lon="0.462965">
        <ele>2131.000000</ele>
        <time>2021-09-05T10:56:14Z</time>
      </trkpt>
      <trkpt lat="42.627637" lon="0.462973">
        <ele>2131.000000</ele>
        <time>2021-09-05T10:56:16Z</time>
      </trkpt>
      <trkpt lat="42.627627" lon="0.462978">
        <ele>2131.000000</ele>
        <time>2021-09-05T10:56:16Z</time>
      </trkpt>
      <trkpt lat="42.627615" lon="0.462986">
        <ele>2131.000000</ele>
        <time>2021-09-05T10:56:17Z</time>
      </trkpt>
      <trkpt lat="42.627605" lon="0.462993">
        <ele>2131.000000</ele>
        <time>2021-09-05T10:56:18Z</time>
      </trkpt>
      <trkpt lat="42.627597" lon="0.462997">
        <ele>2131.000000</ele>
        <time>2021-09-05T10:56:19Z</time>
      </trkpt>
      <trkpt lat="42.627583" lon="0.463004">
        <ele>2131.000000</ele>
        <time>2021-09-05T10:56:20Z</time>
      </trkpt>
      <trkpt lat="42.627577" lon="0.463006">
        <ele>2131.000000</ele>
        <time>2021-09-05T10:56:21Z</time>
      </trkpt>
      <trkpt lat="42.627573" lon="0.463010">
        <ele>2131.000000</ele>
        <time>2021-09-05T10:56:22Z</time>
      </trkpt>
      <trkpt lat="42.627568" lon="0.463015">
        <ele>2130.000000</ele>
        <time>2021-09-05T10:56:23Z</time>
      </trkpt>
      <trkpt lat="42.627563" lon="0.463020">
        <ele>2130.000000</ele>
        <time>2021-09-05T10:56:24Z</time>
      </trkpt>
      <trkpt lat="42.627560" lon="0.463023">
        <ele>2130.000000</ele>
        <time>2021-09-05T10:56:25Z</time>
      </trkpt>
      <trkpt lat="42.627548" lon="0.463030">
        <ele>2130.000000</ele>
        <time>2021-09-05T10:56:26Z</time>
      </trkpt>
      <trkpt lat="42.627543" lon="0.463034">
        <ele>2130.000000</ele>
        <time>2021-09-05T10:56:27Z</time>
      </trkpt>
      <trkpt lat="42.627538" lon="0.463039">
        <ele>2130.000000</ele>
        <time>2021-09-05T10:56:28Z</time>
      </trkpt>
      <trkpt lat="42.627535" lon="0.463044">
        <ele>2130.000000</ele>
        <time>2021-09-05T10:56:29Z</time>
      </trkpt>
      <trkpt lat="42.627532" lon="0.463067">
        <ele>2130.000000</ele>
        <time>2021-09-05T10:56:30Z</time>
      </trkpt>
      <trkpt lat="42.627525" lon="0.463068">
        <ele>2130.000000</ele>
        <time>2021-09-05T10:56:31Z</time>
      </trkpt>
      <trkpt lat="42.627520" lon="0.463077">
        <ele>2129.000000</ele>
        <time>2021-09-05T10:56:32Z</time>
      </trkpt>
      <trkpt lat="42.627520" lon="0.463082">
        <ele>2129.000000</ele>
        <time>2021-09-05T10:56:33Z</time>
      </trkpt>
      <trkpt lat="42.627517" lon="0.463092">
        <ele>2129.000000</ele>
        <time>2021-09-05T10:56:34Z</time>
      </trkpt>
      <trkpt lat="42.627509" lon="0.463100">
        <ele>2129.000000</ele>
        <time>2021-09-05T10:56:35Z</time>
      </trkpt>
      <trkpt lat="42.627503" lon="0.463113">
        <ele>2129.000000</ele>
        <time>2021-09-05T10:56:36Z</time>
      </trkpt>
      <trkpt lat="42.627498" lon="0.463120">
        <ele>2129.000000</ele>
        <time>2021-09-05T10:56:37Z</time>
      </trkpt>
      <trkpt lat="42.627492" lon="0.463132">
        <ele>2129.000000</ele>
        <time>2021-09-05T10:56:39Z</time>
      </trkpt>
      <trkpt lat="42.627489" lon="0.463138">
        <ele>2129.000000</ele>
        <time>2021-09-05T10:56:39Z</time>
      </trkpt>
      <trkpt lat="42.627482" lon="0.463142">
        <ele>2129.000000</ele>
        <time>2021-09-05T10:56:40Z</time>
      </trkpt>
      <trkpt lat="42.627468" lon="0.463145">
        <ele>2129.000000</ele>
        <time>2021-09-05T10:56:41Z</time>
      </trkpt>
      <trkpt lat="42.627465" lon="0.463148">
        <ele>2129.000000</ele>
        <time>2021-09-05T10:56:42Z</time>
      </trkpt>
      <trkpt lat="42.627460" lon="0.463156">
        <ele>2128.000000</ele>
        <time>2021-09-05T10:56:43Z</time>
      </trkpt>
      <trkpt lat="42.627452" lon="0.463166">
        <ele>2128.000000</ele>
        <time>2021-09-05T10:56:44Z</time>
      </trkpt>
      <trkpt lat="42.627445" lon="0.463176">
        <ele>2128.000000</ele>
        <time>2021-09-05T10:56:45Z</time>
      </trkpt>
      <trkpt lat="42.627440" lon="0.463182">
        <ele>2128.000000</ele>
        <time>2021-09-05T10:56:46Z</time>
      </trkpt>
      <trkpt lat="42.627435" lon="0.463187">
        <ele>2127.000000</ele>
        <time>2021-09-05T10:56:47Z</time>
      </trkpt>
      <trkpt lat="42.627432" lon="0.463191">
        <ele>2127.000000</ele>
        <time>2021-09-05T10:56:48Z</time>
      </trkpt>
      <trkpt lat="42.627430" lon="0.463197">
        <ele>2127.000000</ele>
        <time>2021-09-05T10:56:49Z</time>
      </trkpt>
      <trkpt lat="42.627430" lon="0.463202">
        <ele>2127.000000</ele>
        <time>2021-09-05T10:56:50Z</time>
      </trkpt>
      <trkpt lat="42.627432" lon="0.463210">
        <ele>2127.000000</ele>
        <time>2021-09-05T10:56:51Z</time>
      </trkpt>
      <trkpt lat="42.627430" lon="0.463217">
        <ele>2126.000000</ele>
        <time>2021-09-05T10:56:52Z</time>
      </trkpt>
      <trkpt lat="42.627427" lon="0.463225">
        <ele>2126.000000</ele>
        <time>2021-09-05T10:56:53Z</time>
      </trkpt>
      <trkpt lat="42.627426" lon="0.463232">
        <ele>2126.000000</ele>
        <time>2021-09-05T10:56:54Z</time>
      </trkpt>
      <trkpt lat="42.627425" lon="0.463233">
        <ele>2126.000000</ele>
        <time>2021-09-05T10:56:55Z</time>
      </trkpt>
      <trkpt lat="42.627421" lon="0.463240">
        <ele>2125.000000</ele>
        <time>2021-09-05T10:56:56Z</time>
      </trkpt>
      <trkpt lat="42.627419" lon="0.463250">
        <ele>2125.000000</ele>
        <time>2021-09-05T10:56:57Z</time>
      </trkpt>
      <trkpt lat="42.627417" lon="0.463253">
        <ele>2125.000000</ele>
        <time>2021-09-05T10:56:58Z</time>
      </trkpt>
      <trkpt lat="42.627415" lon="0.463260">
        <ele>2125.000000</ele>
        <time>2021-09-05T10:57:00Z</time>
      </trkpt>
      <trkpt lat="42.627413" lon="0.463265">
        <ele>2125.000000</ele>
        <time>2021-09-05T10:57:00Z</time>
      </trkpt>
      <trkpt lat="42.627411" lon="0.463275">
        <ele>2125.000000</ele>
        <time>2021-09-05T10:57:01Z</time>
      </trkpt>
      <trkpt lat="42.627407" lon="0.463283">
        <ele>2125.000000</ele>
        <time>2021-09-05T10:57:02Z</time>
      </trkpt>
      <trkpt lat="42.627400" lon="0.463298">
        <ele>2124.000000</ele>
        <time>2021-09-05T10:57:03Z</time>
      </trkpt>
      <trkpt lat="42.627390" lon="0.463307">
        <ele>2124.000000</ele>
        <time>2021-09-05T10:57:04Z</time>
      </trkpt>
      <trkpt lat="42.627387" lon="0.463313">
        <ele>2124.000000</ele>
        <time>2021-09-05T10:57:05Z</time>
      </trkpt>
      <trkpt lat="42.627383" lon="0.463322">
        <ele>2124.000000</ele>
        <time>2021-09-05T10:57:06Z</time>
      </trkpt>
      <trkpt lat="42.627380" lon="0.463325">
        <ele>2124.000000</ele>
        <time>2021-09-05T10:57:07Z</time>
      </trkpt>
      <trkpt lat="42.627372" lon="0.463330">
        <ele>2124.000000</ele>
        <time>2021-09-05T10:57:08Z</time>
      </trkpt>
      <trkpt lat="42.627362" lon="0.463327">
        <ele>2124.000000</ele>
        <time>2021-09-05T10:57:09Z</time>
      </trkpt>
      <trkpt lat="42.627353" lon="0.463327">
        <ele>2124.000000</ele>
        <time>2021-09-05T10:57:10Z</time>
      </trkpt>
      <trkpt lat="42.627350" lon="0.463330">
        <ele>2124.000000</ele>
        <time>2021-09-05T10:57:11Z</time>
      </trkpt>
      <trkpt lat="42.627348" lon="0.463332">
        <ele>2124.000000</ele>
        <time>2021-09-05T10:57:12Z</time>
      </trkpt>
      <trkpt lat="42.627350" lon="0.463343">
        <ele>2124.000000</ele>
        <time>2021-09-05T10:57:13Z</time>
      </trkpt>
      <trkpt lat="42.627348" lon="0.463340">
        <ele>2124.000000</ele>
        <time>2021-09-05T10:57:14Z</time>
      </trkpt>
      <trkpt lat="42.627347" lon="0.463352">
        <ele>2124.000000</ele>
        <time>2021-09-05T10:57:15Z</time>
      </trkpt>
      <trkpt lat="42.627343" lon="0.463365">
        <ele>2124.000000</ele>
        <time>2021-09-05T10:57:16Z</time>
      </trkpt>
      <trkpt lat="42.627338" lon="0.463369">
        <ele>2124.000000</ele>
        <time>2021-09-05T10:57:17Z</time>
      </trkpt>
      <trkpt lat="42.627333" lon="0.463373">
        <ele>2124.000000</ele>
        <time>2021-09-05T10:57:18Z</time>
      </trkpt>
      <trkpt lat="42.627325" lon="0.463379">
        <ele>2124.000000</ele>
        <time>2021-09-05T10:57:19Z</time>
      </trkpt>
      <trkpt lat="42.627323" lon="0.463381">
        <ele>2124.000000</ele>
        <time>2021-09-05T10:57:20Z</time>
      </trkpt>
      <trkpt lat="42.627322" lon="0.463392">
        <ele>2124.000000</ele>
        <time>2021-09-05T10:57:21Z</time>
      </trkpt>
      <trkpt lat="42.627325" lon="0.463403">
        <ele>2123.000000</ele>
        <time>2021-09-05T10:57:23Z</time>
      </trkpt>
      <trkpt lat="42.627327" lon="0.463415">
        <ele>2123.000000</ele>
        <time>2021-09-05T10:57:23Z</time>
      </trkpt>
      <trkpt lat="42.627330" lon="0.463425">
        <ele>2123.000000</ele>
        <time>2021-09-05T10:57:24Z</time>
      </trkpt>
      <trkpt lat="42.627335" lon="0.463430">
        <ele>2123.000000</ele>
        <time>2021-09-05T10:57:25Z</time>
      </trkpt>
      <trkpt lat="42.627335" lon="0.463433">
        <ele>2123.000000</ele>
        <time>2021-09-05T10:57:26Z</time>
      </trkpt>
      <trkpt lat="42.627337" lon="0.463438">
        <ele>2123.000000</ele>
        <time>2021-09-05T10:57:27Z</time>
      </trkpt>
      <trkpt lat="42.627340" lon="0.463447">
        <ele>2123.000000</ele>
        <time>2021-09-05T10:57:28Z</time>
      </trkpt>
      <trkpt lat="42.627342" lon="0.463455">
        <ele>2123.000000</ele>
        <time>2021-09-05T10:57:29Z</time>
      </trkpt>
      <trkpt lat="42.627340" lon="0.463462">
        <ele>2122.000000</ele>
        <time>2021-09-05T10:57:30Z</time>
      </trkpt>
      <trkpt lat="42.627340" lon="0.463473">
        <ele>2122.000000</ele>
        <time>2021-09-05T10:57:31Z</time>
      </trkpt>
      <trkpt lat="42.627341" lon="0.463490">
        <ele>2122.000000</ele>
        <time>2021-09-05T10:57:32Z</time>
      </trkpt>
      <trkpt lat="42.627346" lon="0.463502">
        <ele>2122.000000</ele>
        <time>2021-09-05T10:57:33Z</time>
      </trkpt>
      <trkpt lat="42.627349" lon="0.463515">
        <ele>2122.000000</ele>
        <time>2021-09-05T10:57:34Z</time>
      </trkpt>
      <trkpt lat="42.627349" lon="0.463527">
        <ele>2122.000000</ele>
        <time>2021-09-05T10:57:35Z</time>
      </trkpt>
      <trkpt lat="42.627345" lon="0.463543">
        <ele>2122.000000</ele>
        <time>2021-09-05T10:57:36Z</time>
      </trkpt>
      <trkpt lat="42.627343" lon="0.463552">
        <ele>2122.000000</ele>
        <time>2021-09-05T10:57:37Z</time>
      </trkpt>
      <trkpt lat="42.627339" lon="0.463557">
        <ele>2122.000000</ele>
        <time>2021-09-05T10:57:38Z</time>
      </trkpt>
      <trkpt lat="42.627333" lon="0.463563">
        <ele>2122.000000</ele>
        <time>2021-09-05T10:57:39Z</time>
      </trkpt>
      <trkpt lat="42.627327" lon="0.463575">
        <ele>2122.000000</ele>
        <time>2021-09-05T10:57:40Z</time>
      </trkpt>
      <trkpt lat="42.627323" lon="0.463582">
        <ele>2122.000000</ele>
        <time>2021-09-05T10:57:41Z</time>
      </trkpt>
      <trkpt lat="42.627318" lon="0.463587">
        <ele>2122.000000</ele>
        <time>2021-09-05T10:57:43Z</time>
      </trkpt>
      <trkpt lat="42.627310" lon="0.463588">
        <ele>2122.000000</ele>
        <time>2021-09-05T10:57:43Z</time>
      </trkpt>
      <trkpt lat="42.627305" lon="0.463588">
        <ele>2122.000000</ele>
        <time>2021-09-05T10:57:44Z</time>
      </trkpt>
      <trkpt lat="42.627298" lon="0.463592">
        <ele>2121.000000</ele>
        <time>2021-09-05T10:57:45Z</time>
      </trkpt>
      <trkpt lat="42.627288" lon="0.463595">
        <ele>2121.000000</ele>
        <time>2021-09-05T10:57:46Z</time>
      </trkpt>
      <trkpt lat="42.627282" lon="0.463597">
        <ele>2121.000000</ele>
        <time>2021-09-05T10:57:47Z</time>
      </trkpt>
      <trkpt lat="42.627273" lon="0.463600">
        <ele>2120.000000</ele>
        <time>2021-09-05T10:57:48Z</time>
      </trkpt>
      <trkpt lat="42.627265" lon="0.463605">
        <ele>2120.000000</ele>
        <time>2021-09-05T10:57:49Z</time>
      </trkpt>
      <trkpt lat="42.627255" lon="0.463613">
        <ele>2120.000000</ele>
        <time>2021-09-05T10:57:50Z</time>
      </trkpt>
      <trkpt lat="42.627245" lon="0.463621">
        <ele>2119.000000</ele>
        <time>2021-09-05T10:57:51Z</time>
      </trkpt>
      <trkpt lat="42.627238" lon="0.463629">
        <ele>2119.000000</ele>
        <time>2021-09-05T10:57:52Z</time>
      </trkpt>
      <trkpt lat="42.627230" lon="0.463637">
        <ele>2119.000000</ele>
        <time>2021-09-05T10:57:53Z</time>
      </trkpt>
      <trkpt lat="42.627225" lon="0.463643">
        <ele>2119.000000</ele>
        <time>2021-09-05T10:57:54Z</time>
      </trkpt>
      <trkpt lat="42.627220" lon="0.463648">
        <ele>2118.000000</ele>
        <time>2021-09-05T10:57:55Z</time>
      </trkpt>
      <trkpt lat="42.627215" lon="0.463654">
        <ele>2118.000000</ele>
        <time>2021-09-05T10:57:56Z</time>
      </trkpt>
      <trkpt lat="42.627210" lon="0.463672">
        <ele>2118.000000</ele>
        <time>2021-09-05T10:57:57Z</time>
      </trkpt>
      <trkpt lat="42.627205" lon="0.463683">
        <ele>2118.000000</ele>
        <time>2021-09-05T10:57:58Z</time>
      </trkpt>
      <trkpt lat="42.627202" lon="0.463693">
        <ele>2117.000000</ele>
        <time>2021-09-05T10:57:59Z</time>
      </trkpt>
      <trkpt lat="42.627198" lon="0.463700">
        <ele>2117.000000</ele>
        <time>2021-09-05T10:58:00Z</time>
      </trkpt>
      <trkpt lat="42.627193" lon="0.463712">
        <ele>2117.000000</ele>
        <time>2021-09-05T10:58:01Z</time>
      </trkpt>
      <trkpt lat="42.627188" lon="0.463722">
        <ele>2117.000000</ele>
        <time>2021-09-05T10:58:02Z</time>
      </trkpt>
      <trkpt lat="42.627184" lon="0.463728">
        <ele>2116.000000</ele>
        <time>2021-09-05T10:58:03Z</time>
      </trkpt>
      <trkpt lat="42.627178" lon="0.463733">
        <ele>2116.000000</ele>
        <time>2021-09-05T10:58:04Z</time>
      </trkpt>
      <trkpt lat="42.627163" lon="0.463737">
        <ele>2116.000000</ele>
        <time>2021-09-05T10:58:05Z</time>
      </trkpt>
      <trkpt lat="42.627153" lon="0.463740">
        <ele>2115.000000</ele>
        <time>2021-09-05T10:58:07Z</time>
      </trkpt>
      <trkpt lat="42.627148" lon="0.463740">
        <ele>2115.000000</ele>
        <time>2021-09-05T10:58:07Z</time>
      </trkpt>
      <trkpt lat="42.627152" lon="0.463742">
        <ele>2115.000000</ele>
        <time>2021-09-05T10:58:08Z</time>
      </trkpt>
      <trkpt lat="42.627155" lon="0.463747">
        <ele>2115.000000</ele>
        <time>2021-09-05T10:58:09Z</time>
      </trkpt>
      <trkpt lat="42.627152" lon="0.463745">
        <ele>2115.000000</ele>
        <time>2021-09-05T10:58:10Z</time>
      </trkpt>
      <trkpt lat="42.627145" lon="0.463749">
        <ele>2114.000000</ele>
        <time>2021-09-05T10:58:11Z</time>
      </trkpt>
      <trkpt lat="42.627138" lon="0.463757">
        <ele>2114.000000</ele>
        <time>2021-09-05T10:58:12Z</time>
      </trkpt>
      <trkpt lat="42.627135" lon="0.463763">
        <ele>2114.000000</ele>
        <time>2021-09-05T10:58:13Z</time>
      </trkpt>
      <trkpt lat="42.627135" lon="0.463772">
        <ele>2114.000000</ele>
        <time>2021-09-05T10:58:14Z</time>
      </trkpt>
      <trkpt lat="42.627133" lon="0.463780">
        <ele>2114.000000</ele>
        <time>2021-09-05T10:58:15Z</time>
      </trkpt>
      <trkpt lat="42.627127" lon="0.463788">
        <ele>2114.000000</ele>
        <time>2021-09-05T10:58:16Z</time>
      </trkpt>
      <trkpt lat="42.627121" lon="0.463795">
        <ele>2114.000000</ele>
        <time>2021-09-05T10:58:17Z</time>
      </trkpt>
      <trkpt lat="42.627118" lon="0.463800">
        <ele>2114.000000</ele>
        <time>2021-09-05T10:58:18Z</time>
      </trkpt>
      <trkpt lat="42.627115" lon="0.463802">
        <ele>2114.000000</ele>
        <time>2021-09-05T10:58:19Z</time>
      </trkpt>
      <trkpt lat="42.627113" lon="0.463803">
        <ele>2114.000000</ele>
        <time>2021-09-05T10:58:20Z</time>
      </trkpt>
      <trkpt lat="42.627103" lon="0.463802">
        <ele>2114.000000</ele>
        <time>2021-09-05T10:58:21Z</time>
      </trkpt>
      <trkpt lat="42.627093" lon="0.463803">
        <ele>2114.000000</ele>
        <time>2021-09-05T10:58:22Z</time>
      </trkpt>
      <trkpt lat="42.627085" lon="0.463805">
        <ele>2114.000000</ele>
        <time>2021-09-05T10:58:23Z</time>
      </trkpt>
      <trkpt lat="42.627080" lon="0.463803">
        <ele>2114.000000</ele>
        <time>2021-09-05T10:58:24Z</time>
      </trkpt>
      <trkpt lat="42.627073" lon="0.463803">
        <ele>2114.000000</ele>
        <time>2021-09-05T10:58:25Z</time>
      </trkpt>
      <trkpt lat="42.627068" lon="0.463803">
        <ele>2114.000000</ele>
        <time>2021-09-05T10:58:26Z</time>
      </trkpt>
      <trkpt lat="42.627058" lon="0.463800">
        <ele>2114.000000</ele>
        <time>2021-09-05T10:58:27Z</time>
      </trkpt>
      <trkpt lat="42.627053" lon="0.463800">
        <ele>2114.000000</ele>
        <time>2021-09-05T10:58:27Z</time>
      </trkpt>
      <trkpt lat="42.627050" lon="0.463804">
        <ele>2114.000000</ele>
        <time>2021-09-05T10:58:28Z</time>
      </trkpt>
      <trkpt lat="42.627047" lon="0.463807">
        <ele>2114.000000</ele>
        <time>2021-09-05T10:58:30Z</time>
      </trkpt>
      <trkpt lat="42.627043" lon="0.463817">
        <ele>2114.000000</ele>
        <time>2021-09-05T10:58:30Z</time>
      </trkpt>
      <trkpt lat="42.627042" lon="0.463823">
        <ele>2114.000000</ele>
        <time>2021-09-05T10:58:31Z</time>
      </trkpt>
      <trkpt lat="42.627042" lon="0.463830">
        <ele>2114.000000</ele>
        <time>2021-09-05T10:58:32Z</time>
      </trkpt>
      <trkpt lat="42.627035" lon="0.463833">
        <ele>2114.000000</ele>
        <time>2021-09-05T10:58:33Z</time>
      </trkpt>
      <trkpt lat="42.627027" lon="0.463834">
        <ele>2114.000000</ele>
        <time>2021-09-05T10:58:34Z</time>
      </trkpt>
      <trkpt lat="42.627020" lon="0.463833">
        <ele>2114.000000</ele>
        <time>2021-09-05T10:58:35Z</time>
      </trkpt>
      <trkpt lat="42.627015" lon="0.463832">
        <ele>2114.000000</ele>
        <time>2021-09-05T10:58:36Z</time>
      </trkpt>
      <trkpt lat="42.627008" lon="0.463830">
        <ele>2114.000000</ele>
        <time>2021-09-05T10:58:38Z</time>
      </trkpt>
      <trkpt lat="42.627003" lon="0.463828">
        <ele>2114.000000</ele>
        <time>2021-09-05T10:58:38Z</time>
      </trkpt>
      <trkpt lat="42.626998" lon="0.463827">
        <ele>2114.000000</ele>
        <time>2021-09-05T10:58:39Z</time>
      </trkpt>
      <trkpt lat="42.626992" lon="0.463825">
        <ele>2114.000000</ele>
        <time>2021-09-05T10:58:40Z</time>
      </trkpt>
      <trkpt lat="42.626987" lon="0.463826">
        <ele>2114.000000</ele>
        <time>2021-09-05T10:58:41Z</time>
      </trkpt>
      <trkpt lat="42.626982" lon="0.463827">
        <ele>2114.000000</ele>
        <time>2021-09-05T10:58:42Z</time>
      </trkpt>
      <trkpt lat="42.626968" lon="0.463829">
        <ele>2114.000000</ele>
        <time>2021-09-05T10:58:43Z</time>
      </trkpt>
      <trkpt lat="42.626965" lon="0.463829">
        <ele>2114.000000</ele>
        <time>2021-09-05T10:58:44Z</time>
      </trkpt>
      <trkpt lat="42.626958" lon="0.463830">
        <ele>2114.000000</ele>
        <time>2021-09-05T10:58:45Z</time>
      </trkpt>
      <trkpt lat="42.626955" lon="0.463830">
        <ele>2114.000000</ele>
        <time>2021-09-05T10:58:46Z</time>
      </trkpt>
      <trkpt lat="42.626952" lon="0.463831">
        <ele>2114.000000</ele>
        <time>2021-09-05T10:58:47Z</time>
      </trkpt>
      <trkpt lat="42.626950" lon="0.463832">
        <ele>2114.000000</ele>
        <time>2021-09-05T10:58:48Z</time>
      </trkpt>
      <trkpt lat="42.626947" lon="0.463834">
        <ele>2114.000000</ele>
        <time>2021-09-05T10:58:50Z</time>
      </trkpt>
      <trkpt lat="42.626943" lon="0.463835">
        <ele>2113.000000</ele>
        <time>2021-09-05T10:58:50Z</time>
      </trkpt>
      <trkpt lat="42.626938" lon="0.463835">
        <ele>2113.000000</ele>
        <time>2021-09-05T10:58:51Z</time>
      </trkpt>
      <trkpt lat="42.626935" lon="0.463837">
        <ele>2113.000000</ele>
        <time>2021-09-05T10:58:52Z</time>
      </trkpt>
      <trkpt lat="42.626930" lon="0.463840">
        <ele>2113.000000</ele>
        <time>2021-09-05T10:58:53Z</time>
      </trkpt>
      <trkpt lat="42.626927" lon="0.463843">
        <ele>2113.000000</ele>
        <time>2021-09-05T10:58:54Z</time>
      </trkpt>
      <trkpt lat="42.626920" lon="0.463846">
        <ele>2113.000000</ele>
        <time>2021-09-05T10:58:55Z</time>
      </trkpt>
      <trkpt lat="42.626915" lon="0.463850">
        <ele>2113.000000</ele>
        <time>2021-09-05T10:58:56Z</time>
      </trkpt>
      <trkpt lat="42.626912" lon="0.463850">
        <ele>2113.000000</ele>
        <time>2021-09-05T10:58:57Z</time>
      </trkpt>
      <trkpt lat="42.626907" lon="0.463856">
        <ele>2113.000000</ele>
        <time>2021-09-05T10:58:58Z</time>
      </trkpt>
      <trkpt lat="42.626907" lon="0.463858">
        <ele>2112.000000</ele>
        <time>2021-09-05T10:58:59Z</time>
      </trkpt>
      <trkpt lat="42.626897" lon="0.463854">
        <ele>2112.000000</ele>
        <time>2021-09-05T10:59:00Z</time>
      </trkpt>
      <trkpt lat="42.626887" lon="0.463850">
        <ele>2112.000000</ele>
        <time>2021-09-05T10:59:01Z</time>
      </trkpt>
      <trkpt lat="42.626890" lon="0.463847">
        <ele>2112.000000</ele>
        <time>2021-09-05T10:59:02Z</time>
      </trkpt>
      <trkpt lat="42.626885" lon="0.463847">
        <ele>2112.000000</ele>
        <time>2021-09-05T10:59:06Z</time>
      </trkpt>
      <trkpt lat="42.626882" lon="0.463850">
        <ele>2112.000000</ele>
        <time>2021-09-05T10:59:07Z</time>
      </trkpt>
      <trkpt lat="42.626878" lon="0.463855">
        <ele>2112.000000</ele>
        <time>2021-09-05T10:59:08Z</time>
      </trkpt>
      <trkpt lat="42.626875" lon="0.463865">
        <ele>2112.000000</ele>
        <time>2021-09-05T10:59:09Z</time>
      </trkpt>
      <trkpt lat="42.626873" lon="0.463880">
        <ele>2112.000000</ele>
        <time>2021-09-05T10:59:10Z</time>
      </trkpt>
      <trkpt lat="42.626870" lon="0.463887">
        <ele>2112.000000</ele>
        <time>2021-09-05T10:59:11Z</time>
      </trkpt>
      <trkpt lat="42.626863" lon="0.463895">
        <ele>2112.000000</ele>
        <time>2021-09-05T10:59:13Z</time>
      </trkpt>
      <trkpt lat="42.626856" lon="0.463902">
        <ele>2112.000000</ele>
        <time>2021-09-05T10:59:13Z</time>
      </trkpt>
      <trkpt lat="42.626845" lon="0.463905">
        <ele>2113.000000</ele>
        <time>2021-09-05T10:59:14Z</time>
      </trkpt>
      <trkpt lat="42.626850" lon="0.463915">
        <ele>2113.000000</ele>
        <time>2021-09-05T10:59:15Z</time>
      </trkpt>
      <trkpt lat="42.626860" lon="0.463929">
        <ele>2113.000000</ele>
        <time>2021-09-05T10:59:16Z</time>
      </trkpt>
      <trkpt lat="42.626862" lon="0.463938">
        <ele>2113.000000</ele>
        <time>2021-09-05T10:59:17Z</time>
      </trkpt>
      <trkpt lat="42.626870" lon="0.463948">
        <ele>2113.000000</ele>
        <time>2021-09-05T10:59:18Z</time>
      </trkpt>
      <trkpt lat="42.626878" lon="0.463958">
        <ele>2113.000000</ele>
        <time>2021-09-05T10:59:19Z</time>
      </trkpt>
      <trkpt lat="42.626880" lon="0.463965">
        <ele>2113.000000</ele>
        <time>2021-09-05T10:59:20Z</time>
      </trkpt>
      <trkpt lat="42.626877" lon="0.463970">
        <ele>2113.000000</ele>
        <time>2021-09-05T10:59:21Z</time>
      </trkpt>
      <trkpt lat="42.626869" lon="0.463977">
        <ele>2113.000000</ele>
        <time>2021-09-05T10:59:22Z</time>
      </trkpt>
      <trkpt lat="42.626862" lon="0.463982">
        <ele>2113.000000</ele>
        <time>2021-09-05T10:59:23Z</time>
      </trkpt>
      <trkpt lat="42.626853" lon="0.463993">
        <ele>2113.000000</ele>
        <time>2021-09-05T10:59:24Z</time>
      </trkpt>
      <trkpt lat="42.626848" lon="0.463995">
        <ele>2113.000000</ele>
        <time>2021-09-05T10:59:25Z</time>
      </trkpt>
      <trkpt lat="42.626848" lon="0.464005">
        <ele>2113.000000</ele>
        <time>2021-09-05T10:59:26Z</time>
      </trkpt>
      <trkpt lat="42.626851" lon="0.464010">
        <ele>2113.000000</ele>
        <time>2021-09-05T10:59:27Z</time>
      </trkpt>
      <trkpt lat="42.626852" lon="0.464013">
        <ele>2113.000000</ele>
        <time>2021-09-05T10:59:28Z</time>
      </trkpt>
      <trkpt lat="42.626843" lon="0.464020">
        <ele>2113.000000</ele>
        <time>2021-09-05T10:59:29Z</time>
      </trkpt>
      <trkpt lat="42.626840" lon="0.464022">
        <ele>2113.000000</ele>
        <time>2021-09-05T10:59:30Z</time>
      </trkpt>
      <trkpt lat="42.626832" lon="0.464030">
        <ele>2113.000000</ele>
        <time>2021-09-05T10:59:31Z</time>
      </trkpt>
      <trkpt lat="42.626823" lon="0.464038">
        <ele>2113.000000</ele>
        <time>2021-09-05T10:59:32Z</time>
      </trkpt>
      <trkpt lat="42.626818" lon="0.464043">
        <ele>2113.000000</ele>
        <time>2021-09-05T10:59:33Z</time>
      </trkpt>
      <trkpt lat="42.626813" lon="0.464051">
        <ele>2113.000000</ele>
        <time>2021-09-05T10:59:34Z</time>
      </trkpt>
      <trkpt lat="42.626810" lon="0.464063">
        <ele>2114.000000</ele>
        <time>2021-09-05T10:59:35Z</time>
      </trkpt>
      <trkpt lat="42.626802" lon="0.464072">
        <ele>2114.000000</ele>
        <time>2021-09-05T10:59:37Z</time>
      </trkpt>
      <trkpt lat="42.626797" lon="0.464082">
        <ele>2114.000000</ele>
        <time>2021-09-05T10:59:37Z</time>
      </trkpt>
      <trkpt lat="42.626788" lon="0.464095">
        <ele>2114.000000</ele>
        <time>2021-09-05T10:59:38Z</time>
      </trkpt>
      <trkpt lat="42.626778" lon="0.464103">
        <ele>2114.000000</ele>
        <time>2021-09-05T10:59:39Z</time>
      </trkpt>
      <trkpt lat="42.626770" lon="0.464107">
        <ele>2114.000000</ele>
        <time>2021-09-05T10:59:40Z</time>
      </trkpt>
      <trkpt lat="42.626762" lon="0.464113">
        <ele>2114.000000</ele>
        <time>2021-09-05T10:59:41Z</time>
      </trkpt>
      <trkpt lat="42.626755" lon="0.464122">
        <ele>2114.000000</ele>
        <time>2021-09-05T10:59:42Z</time>
      </trkpt>
      <trkpt lat="42.626744" lon="0.464130">
        <ele>2114.000000</ele>
        <time>2021-09-05T10:59:43Z</time>
      </trkpt>
      <trkpt lat="42.626733" lon="0.464137">
        <ele>2114.000000</ele>
        <time>2021-09-05T10:59:44Z</time>
      </trkpt>
      <trkpt lat="42.626725" lon="0.464142">
        <ele>2114.000000</ele>
        <time>2021-09-05T10:59:45Z</time>
      </trkpt>
      <trkpt lat="42.626715" lon="0.464148">
        <ele>2113.000000</ele>
        <time>2021-09-05T10:59:46Z</time>
      </trkpt>
      <trkpt lat="42.626705" lon="0.464155">
        <ele>2113.000000</ele>
        <time>2021-09-05T10:59:47Z</time>
      </trkpt>
      <trkpt lat="42.626698" lon="0.464157">
        <ele>2113.000000</ele>
        <time>2021-09-05T10:59:48Z</time>
      </trkpt>
      <trkpt lat="42.626693" lon="0.464159">
        <ele>2113.000000</ele>
        <time>2021-09-05T10:59:49Z</time>
      </trkpt>
      <trkpt lat="42.626687" lon="0.464162">
        <ele>2113.000000</ele>
        <time>2021-09-05T10:59:50Z</time>
      </trkpt>
      <trkpt lat="42.626682" lon="0.464165">
        <ele>2113.000000</ele>
        <time>2021-09-05T10:59:51Z</time>
      </trkpt>
      <trkpt lat="42.626678" lon="0.464168">
        <ele>2113.000000</ele>
        <time>2021-09-05T10:59:52Z</time>
      </trkpt>
      <trkpt lat="42.626673" lon="0.464182">
        <ele>2113.000000</ele>
        <time>2021-09-05T10:59:53Z</time>
      </trkpt>
      <trkpt lat="42.626668" lon="0.464193">
        <ele>2113.000000</ele>
        <time>2021-09-05T10:59:54Z</time>
      </trkpt>
      <trkpt lat="42.626667" lon="0.464205">
        <ele>2113.000000</ele>
        <time>2021-09-05T10:59:55Z</time>
      </trkpt>
      <trkpt lat="42.626662" lon="0.464212">
        <ele>2113.000000</ele>
        <time>2021-09-05T10:59:57Z</time>
      </trkpt>
      <trkpt lat="42.626656" lon="0.464215">
        <ele>2113.000000</ele>
        <time>2021-09-05T10:59:57Z</time>
      </trkpt>
      <trkpt lat="42.626650" lon="0.464218">
        <ele>2113.000000</ele>
        <time>2021-09-05T10:59:58Z</time>
      </trkpt>
      <trkpt lat="42.626642" lon="0.464220">
        <ele>2112.000000</ele>
        <time>2021-09-05T10:59:59Z</time>
      </trkpt>
      <trkpt lat="42.626630" lon="0.464230">
        <ele>2112.000000</ele>
        <time>2021-09-05T11:00:00Z</time>
      </trkpt>
      <trkpt lat="42.626625" lon="0.464230">
        <ele>2112.000000</ele>
        <time>2021-09-05T11:00:01Z</time>
      </trkpt>
      <trkpt lat="42.626615" lon="0.464233">
        <ele>2111.000000</ele>
        <time>2021-09-05T11:00:02Z</time>
      </trkpt>
      <trkpt lat="42.626605" lon="0.464237">
        <ele>2111.000000</ele>
        <time>2021-09-05T11:00:03Z</time>
      </trkpt>
      <trkpt lat="42.626597" lon="0.464237">
        <ele>2110.000000</ele>
        <time>2021-09-05T11:00:04Z</time>
      </trkpt>
      <trkpt lat="42.626590" lon="0.464240">
        <ele>2110.000000</ele>
        <time>2021-09-05T11:00:05Z</time>
      </trkpt>
      <trkpt lat="42.626582" lon="0.464243">
        <ele>2110.000000</ele>
        <time>2021-09-05T11:00:06Z</time>
      </trkpt>
      <trkpt lat="42.626573" lon="0.464243">
        <ele>2109.000000</ele>
        <time>2021-09-05T11:00:07Z</time>
      </trkpt>
      <trkpt lat="42.626565" lon="0.464243">
        <ele>2109.000000</ele>
        <time>2021-09-05T11:00:08Z</time>
      </trkpt>
      <trkpt lat="42.626562" lon="0.464242">
        <ele>2109.000000</ele>
        <time>2021-09-05T11:00:09Z</time>
      </trkpt>
      <trkpt lat="42.626560" lon="0.464244">
        <ele>2109.000000</ele>
        <time>2021-09-05T11:00:10Z</time>
      </trkpt>
      <trkpt lat="42.626557" lon="0.464249">
        <ele>2108.000000</ele>
        <time>2021-09-05T11:00:11Z</time>
      </trkpt>
      <trkpt lat="42.626550" lon="0.464277">
        <ele>2108.000000</ele>
        <time>2021-09-05T11:00:12Z</time>
      </trkpt>
      <trkpt lat="42.626547" lon="0.464287">
        <ele>2108.000000</ele>
        <time>2021-09-05T11:00:13Z</time>
      </trkpt>
      <trkpt lat="42.626547" lon="0.464288">
        <ele>2108.000000</ele>
        <time>2021-09-05T11:00:14Z</time>
      </trkpt>
      <trkpt lat="42.626545" lon="0.464294">
        <ele>2108.000000</ele>
        <time>2021-09-05T11:00:15Z</time>
      </trkpt>
      <trkpt lat="42.626542" lon="0.464300">
        <ele>2108.000000</ele>
        <time>2021-09-05T11:00:16Z</time>
      </trkpt>
      <trkpt lat="42.626538" lon="0.464308">
        <ele>2108.000000</ele>
        <time>2021-09-05T11:00:17Z</time>
      </trkpt>
      <trkpt lat="42.626535" lon="0.464314">
        <ele>2108.000000</ele>
        <time>2021-09-05T11:00:18Z</time>
      </trkpt>
      <trkpt lat="42.626535" lon="0.464312">
        <ele>2108.000000</ele>
        <time>2021-09-05T11:00:20Z</time>
      </trkpt>
      <trkpt lat="42.626538" lon="0.464306">
        <ele>2108.000000</ele>
        <time>2021-09-05T11:00:21Z</time>
      </trkpt>
      <trkpt lat="42.626540" lon="0.464304">
        <ele>2108.000000</ele>
        <time>2021-09-05T11:00:22Z</time>
      </trkpt>
      <trkpt lat="42.626537" lon="0.464322">
        <ele>2109.000000</ele>
        <time>2021-09-05T11:00:23Z</time>
      </trkpt>
      <trkpt lat="42.626532" lon="0.464322">
        <ele>2109.000000</ele>
        <time>2021-09-05T11:00:24Z</time>
      </trkpt>
      <trkpt lat="42.626527" lon="0.464331">
        <ele>2109.000000</ele>
        <time>2021-09-05T11:00:25Z</time>
      </trkpt>
      <trkpt lat="42.626525" lon="0.464345">
        <ele>2109.000000</ele>
        <time>2021-09-05T11:00:26Z</time>
      </trkpt>
      <trkpt lat="42.626537" lon="0.464367">
        <ele>2109.000000</ele>
        <time>2021-09-05T11:00:27Z</time>
      </trkpt>
      <trkpt lat="42.626547" lon="0.464388">
        <ele>2109.000000</ele>
        <time>2021-09-05T11:00:28Z</time>
      </trkpt>
      <trkpt lat="42.626550" lon="0.464408">
        <ele>2109.000000</ele>
        <time>2021-09-05T11:00:29Z</time>
      </trkpt>
      <trkpt lat="42.626547" lon="0.464420">
        <ele>2109.000000</ele>
        <time>2021-09-05T11:00:30Z</time>
      </trkpt>
      <trkpt lat="42.626541" lon="0.464427">
        <ele>2109.000000</ele>
        <time>2021-09-05T11:00:31Z</time>
      </trkpt>
      <trkpt lat="42.626534" lon="0.464435">
        <ele>2109.000000</ele>
        <time>2021-09-05T11:00:32Z</time>
      </trkpt>
      <trkpt lat="42.626533" lon="0.464437">
        <ele>2109.000000</ele>
        <time>2021-09-05T11:00:33Z</time>
      </trkpt>
      <trkpt lat="42.626531" lon="0.464440">
        <ele>2109.000000</ele>
        <time>2021-09-05T11:00:34Z</time>
      </trkpt>
      <trkpt lat="42.626530" lon="0.464447">
        <ele>2109.000000</ele>
        <time>2021-09-05T11:00:35Z</time>
      </trkpt>
      <trkpt lat="42.626531" lon="0.464450">
        <ele>2109.000000</ele>
        <time>2021-09-05T11:00:36Z</time>
      </trkpt>
      <trkpt lat="42.626530" lon="0.464457">
        <ele>2109.000000</ele>
        <time>2021-09-05T11:00:37Z</time>
      </trkpt>
      <trkpt lat="42.626530" lon="0.464470">
        <ele>2109.000000</ele>
        <time>2021-09-05T11:00:38Z</time>
      </trkpt>
      <trkpt lat="42.626530" lon="0.464482">
        <ele>2109.000000</ele>
        <time>2021-09-05T11:00:40Z</time>
      </trkpt>
      <trkpt lat="42.626531" lon="0.464493">
        <ele>2109.000000</ele>
        <time>2021-09-05T11:00:40Z</time>
      </trkpt>
      <trkpt lat="42.626531" lon="0.464505">
        <ele>2109.000000</ele>
        <time>2021-09-05T11:00:41Z</time>
      </trkpt>
      <trkpt lat="42.626531" lon="0.464512">
        <ele>2109.000000</ele>
        <time>2021-09-05T11:00:42Z</time>
      </trkpt>
      <trkpt lat="42.626530" lon="0.464518">
        <ele>2109.000000</ele>
        <time>2021-09-05T11:00:43Z</time>
      </trkpt>
      <trkpt lat="42.626527" lon="0.464525">
        <ele>2109.000000</ele>
        <time>2021-09-05T11:00:44Z</time>
      </trkpt>
      <trkpt lat="42.626520" lon="0.464528">
        <ele>2109.000000</ele>
        <time>2021-09-05T11:00:45Z</time>
      </trkpt>
      <trkpt lat="42.626512" lon="0.464530">
        <ele>2109.000000</ele>
        <time>2021-09-05T11:00:46Z</time>
      </trkpt>
      <trkpt lat="42.626500" lon="0.464533">
        <ele>2109.000000</ele>
        <time>2021-09-05T11:00:47Z</time>
      </trkpt>
      <trkpt lat="42.626490" lon="0.464537">
        <ele>2109.000000</ele>
        <time>2021-09-05T11:00:48Z</time>
      </trkpt>
      <trkpt lat="42.626482" lon="0.464545">
        <ele>2109.000000</ele>
        <time>2021-09-05T11:00:49Z</time>
      </trkpt>
      <trkpt lat="42.626473" lon="0.464553">
        <ele>2109.000000</ele>
        <time>2021-09-05T11:00:50Z</time>
      </trkpt>
      <trkpt lat="42.626467" lon="0.464559">
        <ele>2109.000000</ele>
        <time>2021-09-05T11:00:51Z</time>
      </trkpt>
      <trkpt lat="42.626467" lon="0.464561">
        <ele>2109.000000</ele>
        <time>2021-09-05T11:00:52Z</time>
      </trkpt>
      <trkpt lat="42.626470" lon="0.464573">
        <ele>2109.000000</ele>
        <time>2021-09-05T11:00:53Z</time>
      </trkpt>
      <trkpt lat="42.626465" lon="0.464578">
        <ele>2109.000000</ele>
        <time>2021-09-05T11:00:54Z</time>
      </trkpt>
      <trkpt lat="42.626461" lon="0.464580">
        <ele>2109.000000</ele>
        <time>2021-09-05T11:00:55Z</time>
      </trkpt>
      <trkpt lat="42.626457" lon="0.464577">
        <ele>2109.000000</ele>
        <time>2021-09-05T11:00:56Z</time>
      </trkpt>
      <trkpt lat="42.626450" lon="0.464577">
        <ele>2109.000000</ele>
        <time>2021-09-05T11:00:57Z</time>
      </trkpt>
      <trkpt lat="42.626445" lon="0.464580">
        <ele>2109.000000</ele>
        <time>2021-09-05T11:00:58Z</time>
      </trkpt>
      <trkpt lat="42.626443" lon="0.464592">
        <ele>2109.000000</ele>
        <time>2021-09-05T11:00:59Z</time>
      </trkpt>
      <trkpt lat="42.626442" lon="0.464602">
        <ele>2109.000000</ele>
        <time>2021-09-05T11:01:00Z</time>
      </trkpt>
      <trkpt lat="42.626442" lon="0.464608">
        <ele>2109.000000</ele>
        <time>2021-09-05T11:01:01Z</time>
      </trkpt>
      <trkpt lat="42.626450" lon="0.464620">
        <ele>2109.000000</ele>
        <time>2021-09-05T11:01:02Z</time>
      </trkpt>
      <trkpt lat="42.626453" lon="0.464627">
        <ele>2109.000000</ele>
        <time>2021-09-05T11:01:04Z</time>
      </trkpt>
      <trkpt lat="42.626450" lon="0.464632">
        <ele>2109.000000</ele>
        <time>2021-09-05T11:01:04Z</time>
      </trkpt>
      <trkpt lat="42.626448" lon="0.464638">
        <ele>2109.000000</ele>
        <time>2021-09-05T11:01:05Z</time>
      </trkpt>
      <trkpt lat="42.626444" lon="0.464643">
        <ele>2109.000000</ele>
        <time>2021-09-05T11:01:06Z</time>
      </trkpt>
      <trkpt lat="42.626442" lon="0.464653">
        <ele>2108.000000</ele>
        <time>2021-09-05T11:01:07Z</time>
      </trkpt>
      <trkpt lat="42.626436" lon="0.464665">
        <ele>2108.000000</ele>
        <time>2021-09-05T11:01:08Z</time>
      </trkpt>
      <trkpt lat="42.626430" lon="0.464673">
        <ele>2108.000000</ele>
        <time>2021-09-05T11:01:09Z</time>
      </trkpt>
      <trkpt lat="42.626422" lon="0.464680">
        <ele>2108.000000</ele>
        <time>2021-09-05T11:01:10Z</time>
      </trkpt>
      <trkpt lat="42.626417" lon="0.464685">
        <ele>2108.000000</ele>
        <time>2021-09-05T11:01:11Z</time>
      </trkpt>
      <trkpt lat="42.626420" lon="0.464692">
        <ele>2108.000000</ele>
        <time>2021-09-05T11:01:12Z</time>
      </trkpt>
      <trkpt lat="42.626418" lon="0.464700">
        <ele>2108.000000</ele>
        <time>2021-09-05T11:01:13Z</time>
      </trkpt>
      <trkpt lat="42.626411" lon="0.464705">
        <ele>2108.000000</ele>
        <time>2021-09-05T11:01:14Z</time>
      </trkpt>
      <trkpt lat="42.626402" lon="0.464715">
        <ele>2108.000000</ele>
        <time>2021-09-05T11:01:15Z</time>
      </trkpt>
      <trkpt lat="42.626397" lon="0.464722">
        <ele>2107.000000</ele>
        <time>2021-09-05T11:01:16Z</time>
      </trkpt>
      <trkpt lat="42.626389" lon="0.464730">
        <ele>2107.000000</ele>
        <time>2021-09-05T11:01:17Z</time>
      </trkpt>
      <trkpt lat="42.626379" lon="0.464738">
        <ele>2107.000000</ele>
        <time>2021-09-05T11:01:18Z</time>
      </trkpt>
      <trkpt lat="42.626362" lon="0.464737">
        <ele>2107.000000</ele>
        <time>2021-09-05T11:01:19Z</time>
      </trkpt>
      <trkpt lat="42.626352" lon="0.464742">
        <ele>2106.000000</ele>
        <time>2021-09-05T11:01:20Z</time>
      </trkpt>
      <trkpt lat="42.626342" lon="0.464745">
        <ele>2106.000000</ele>
        <time>2021-09-05T11:01:21Z</time>
      </trkpt>
      <trkpt lat="42.626332" lon="0.464748">
        <ele>2106.000000</ele>
        <time>2021-09-05T11:01:22Z</time>
      </trkpt>
      <trkpt lat="42.626320" lon="0.464753">
        <ele>2105.000000</ele>
        <time>2021-09-05T11:01:23Z</time>
      </trkpt>
      <trkpt lat="42.626315" lon="0.464759">
        <ele>2105.000000</ele>
        <time>2021-09-05T11:01:24Z</time>
      </trkpt>
      <trkpt lat="42.626310" lon="0.464765">
        <ele>2105.000000</ele>
        <time>2021-09-05T11:01:25Z</time>
      </trkpt>
      <trkpt lat="42.626300" lon="0.464771">
        <ele>2105.000000</ele>
        <time>2021-09-05T11:01:26Z</time>
      </trkpt>
      <trkpt lat="42.626292" lon="0.464774">
        <ele>2104.000000</ele>
        <time>2021-09-05T11:01:28Z</time>
      </trkpt>
      <trkpt lat="42.626285" lon="0.464775">
        <ele>2104.000000</ele>
        <time>2021-09-05T11:01:28Z</time>
      </trkpt>
      <trkpt lat="42.626282" lon="0.464775">
        <ele>2104.000000</ele>
        <time>2021-09-05T11:01:29Z</time>
      </trkpt>
      <trkpt lat="42.626273" lon="0.464776">
        <ele>2104.000000</ele>
        <time>2021-09-05T11:01:30Z</time>
      </trkpt>
      <trkpt lat="42.626265" lon="0.464777">
        <ele>2104.000000</ele>
        <time>2021-09-05T11:01:31Z</time>
      </trkpt>
      <trkpt lat="42.626265" lon="0.464773">
        <ele>2103.000000</ele>
        <time>2021-09-05T11:01:33Z</time>
      </trkpt>
      <trkpt lat="42.626255" lon="0.464773">
        <ele>2103.000000</ele>
        <time>2021-09-05T11:01:34Z</time>
      </trkpt>
      <trkpt lat="42.626247" lon="0.464778">
        <ele>2103.000000</ele>
        <time>2021-09-05T11:01:35Z</time>
      </trkpt>
      <trkpt lat="42.626230" lon="0.464782">
        <ele>2103.000000</ele>
        <time>2021-09-05T11:01:36Z</time>
      </trkpt>
      <trkpt lat="42.626225" lon="0.464792">
        <ele>2103.000000</ele>
        <time>2021-09-05T11:01:37Z</time>
      </trkpt>
      <trkpt lat="42.626220" lon="0.464797">
        <ele>2103.000000</ele>
        <time>2021-09-05T11:01:38Z</time>
      </trkpt>
      <trkpt lat="42.626218" lon="0.464805">
        <ele>2103.000000</ele>
        <time>2021-09-05T11:01:39Z</time>
      </trkpt>
      <trkpt lat="42.626217" lon="0.464810">
        <ele>2103.000000</ele>
        <time>2021-09-05T11:01:40Z</time>
      </trkpt>
      <trkpt lat="42.626210" lon="0.464812">
        <ele>2103.000000</ele>
        <time>2021-09-05T11:01:41Z</time>
      </trkpt>
      <trkpt lat="42.626198" lon="0.464813">
        <ele>2103.000000</ele>
        <time>2021-09-05T11:01:42Z</time>
      </trkpt>
      <trkpt lat="42.626190" lon="0.464816">
        <ele>2103.000000</ele>
        <time>2021-09-05T11:01:43Z</time>
      </trkpt>
      <trkpt lat="42.626185" lon="0.464819">
        <ele>2103.000000</ele>
        <time>2021-09-05T11:01:44Z</time>
      </trkpt>
      <trkpt lat="42.626183" lon="0.464823">
        <ele>2103.000000</ele>
        <time>2021-09-05T11:01:45Z</time>
      </trkpt>
      <trkpt lat="42.626182" lon="0.464833">
        <ele>2103.000000</ele>
        <time>2021-09-05T11:01:47Z</time>
      </trkpt>
      <trkpt lat="42.626183" lon="0.464843">
        <ele>2103.000000</ele>
        <time>2021-09-05T11:01:47Z</time>
      </trkpt>
      <trkpt lat="42.626187" lon="0.464848">
        <ele>2103.000000</ele>
        <time>2021-09-05T11:01:48Z</time>
      </trkpt>
      <trkpt lat="42.626182" lon="0.464852">
        <ele>2103.000000</ele>
        <time>2021-09-05T11:01:49Z</time>
      </trkpt>
      <trkpt lat="42.626167" lon="0.464860">
        <ele>2103.000000</ele>
        <time>2021-09-05T11:01:50Z</time>
      </trkpt>
      <trkpt lat="42.626149" lon="0.464868">
        <ele>2103.000000</ele>
        <time>2021-09-05T11:01:51Z</time>
      </trkpt>
      <trkpt lat="42.626142" lon="0.464875">
        <ele>2103.000000</ele>
        <time>2021-09-05T11:01:52Z</time>
      </trkpt>
      <trkpt lat="42.626135" lon="0.464878">
        <ele>2103.000000</ele>
        <time>2021-09-05T11:01:53Z</time>
      </trkpt>
      <trkpt lat="42.626130" lon="0.464886">
        <ele>2103.000000</ele>
        <time>2021-09-05T11:01:54Z</time>
      </trkpt>
      <trkpt lat="42.626123" lon="0.464897">
        <ele>2103.000000</ele>
        <time>2021-09-05T11:01:55Z</time>
      </trkpt>
      <trkpt lat="42.626118" lon="0.464907">
        <ele>2103.000000</ele>
        <time>2021-09-05T11:01:56Z</time>
      </trkpt>
      <trkpt lat="42.626112" lon="0.464917">
        <ele>2103.000000</ele>
        <time>2021-09-05T11:01:57Z</time>
      </trkpt>
      <trkpt lat="42.626107" lon="0.464927">
        <ele>2103.000000</ele>
        <time>2021-09-05T11:01:58Z</time>
      </trkpt>
      <trkpt lat="42.626090" lon="0.464932">
        <ele>2103.000000</ele>
        <time>2021-09-05T11:01:59Z</time>
      </trkpt>
      <trkpt lat="42.626078" lon="0.464942">
        <ele>2103.000000</ele>
        <time>2021-09-05T11:02:00Z</time>
      </trkpt>
      <trkpt lat="42.626072" lon="0.464947">
        <ele>2103.000000</ele>
        <time>2021-09-05T11:02:01Z</time>
      </trkpt>
      <trkpt lat="42.626068" lon="0.464960">
        <ele>2103.000000</ele>
        <time>2021-09-05T11:02:02Z</time>
      </trkpt>
      <trkpt lat="42.626063" lon="0.464968">
        <ele>2103.000000</ele>
        <time>2021-09-05T11:02:03Z</time>
      </trkpt>
      <trkpt lat="42.626055" lon="0.464971">
        <ele>2103.000000</ele>
        <time>2021-09-05T11:02:04Z</time>
      </trkpt>
      <trkpt lat="42.626053" lon="0.464977">
        <ele>2103.000000</ele>
        <time>2021-09-05T11:02:05Z</time>
      </trkpt>
      <trkpt lat="42.626052" lon="0.464988">
        <ele>2103.000000</ele>
        <time>2021-09-05T11:02:06Z</time>
      </trkpt>
      <trkpt lat="42.626047" lon="0.464992">
        <ele>2103.000000</ele>
        <time>2021-09-05T11:02:07Z</time>
      </trkpt>
      <trkpt lat="42.626039" lon="0.464993">
        <ele>2103.000000</ele>
        <time>2021-09-05T11:02:08Z</time>
      </trkpt>
      <trkpt lat="42.626033" lon="0.464998">
        <ele>2103.000000</ele>
        <time>2021-09-05T11:02:09Z</time>
      </trkpt>
      <trkpt lat="42.626027" lon="0.465003">
        <ele>2103.000000</ele>
        <time>2021-09-05T11:02:11Z</time>
      </trkpt>
      <trkpt lat="42.626024" lon="0.465018">
        <ele>2103.000000</ele>
        <time>2021-09-05T11:02:11Z</time>
      </trkpt>
      <trkpt lat="42.626017" lon="0.465027">
        <ele>2103.000000</ele>
        <time>2021-09-05T11:02:12Z</time>
      </trkpt>
      <trkpt lat="42.626015" lon="0.465033">
        <ele>2103.000000</ele>
        <time>2021-09-05T11:02:13Z</time>
      </trkpt>
      <trkpt lat="42.626010" lon="0.465041">
        <ele>2103.000000</ele>
        <time>2021-09-05T11:02:14Z</time>
      </trkpt>
      <trkpt lat="42.626008" lon="0.465047">
        <ele>2103.000000</ele>
        <time>2021-09-05T11:02:15Z</time>
      </trkpt>
      <trkpt lat="42.626003" lon="0.465057">
        <ele>2103.000000</ele>
        <time>2021-09-05T11:02:16Z</time>
      </trkpt>
      <trkpt lat="42.625999" lon="0.465062">
        <ele>2103.000000</ele>
        <time>2021-09-05T11:02:17Z</time>
      </trkpt>
      <trkpt lat="42.625997" lon="0.465063">
        <ele>2103.000000</ele>
        <time>2021-09-05T11:02:18Z</time>
      </trkpt>
      <trkpt lat="42.625997" lon="0.465062">
        <ele>2103.000000</ele>
        <time>2021-09-05T11:02:19Z</time>
      </trkpt>
      <trkpt lat="42.625999" lon="0.465057">
        <ele>2103.000000</ele>
        <time>2021-09-05T11:02:20Z</time>
      </trkpt>
      <trkpt lat="42.625983" lon="0.465060">
        <ele>2103.000000</ele>
        <time>2021-09-05T11:02:21Z</time>
      </trkpt>
      <trkpt lat="42.625978" lon="0.465065">
        <ele>2103.000000</ele>
        <time>2021-09-05T11:02:22Z</time>
      </trkpt>
      <trkpt lat="42.625970" lon="0.465077">
        <ele>2103.000000</ele>
        <time>2021-09-05T11:02:23Z</time>
      </trkpt>
      <trkpt lat="42.625964" lon="0.465083">
        <ele>2103.000000</ele>
        <time>2021-09-05T11:02:24Z</time>
      </trkpt>
      <trkpt lat="42.625960" lon="0.465088">
        <ele>2103.000000</ele>
        <time>2021-09-05T11:02:25Z</time>
      </trkpt>
      <trkpt lat="42.625954" lon="0.465095">
        <ele>2103.000000</ele>
        <time>2021-09-05T11:02:26Z</time>
      </trkpt>
      <trkpt lat="42.625952" lon="0.465105">
        <ele>2103.000000</ele>
        <time>2021-09-05T11:02:27Z</time>
      </trkpt>
      <trkpt lat="42.625950" lon="0.465118">
        <ele>2103.000000</ele>
        <time>2021-09-05T11:02:28Z</time>
      </trkpt>
      <trkpt lat="42.625942" lon="0.465130">
        <ele>2103.000000</ele>
        <time>2021-09-05T11:02:29Z</time>
      </trkpt>
      <trkpt lat="42.625938" lon="0.465135">
        <ele>2103.000000</ele>
        <time>2021-09-05T11:02:30Z</time>
      </trkpt>
      <trkpt lat="42.625935" lon="0.465141">
        <ele>2103.000000</ele>
        <time>2021-09-05T11:02:31Z</time>
      </trkpt>
      <trkpt lat="42.625927" lon="0.465145">
        <ele>2103.000000</ele>
        <time>2021-09-05T11:02:32Z</time>
      </trkpt>
      <trkpt lat="42.625913" lon="0.465140">
        <ele>2103.000000</ele>
        <time>2021-09-05T11:02:33Z</time>
      </trkpt>
      <trkpt lat="42.625902" lon="0.465140">
        <ele>2101.000000</ele>
        <time>2021-09-05T11:02:35Z</time>
      </trkpt>
      <trkpt lat="42.625890" lon="0.465142">
        <ele>2101.000000</ele>
        <time>2021-09-05T11:02:35Z</time>
      </trkpt>
      <trkpt lat="42.625880" lon="0.465148">
        <ele>2101.000000</ele>
        <time>2021-09-05T11:02:36Z</time>
      </trkpt>
      <trkpt lat="42.625872" lon="0.465153">
        <ele>2101.000000</ele>
        <time>2021-09-05T11:02:37Z</time>
      </trkpt>
      <trkpt lat="42.625857" lon="0.465156">
        <ele>2100.000000</ele>
        <time>2021-09-05T11:02:38Z</time>
      </trkpt>
      <trkpt lat="42.625848" lon="0.465157">
        <ele>2100.000000</ele>
        <time>2021-09-05T11:02:39Z</time>
      </trkpt>
      <trkpt lat="42.625840" lon="0.465158">
        <ele>2100.000000</ele>
        <time>2021-09-05T11:02:40Z</time>
      </trkpt>
      <trkpt lat="42.625837" lon="0.465161">
        <ele>2100.000000</ele>
        <time>2021-09-05T11:02:41Z</time>
      </trkpt>
      <trkpt lat="42.625837" lon="0.465164">
        <ele>2100.000000</ele>
        <time>2021-09-05T11:02:42Z</time>
      </trkpt>
      <trkpt lat="42.625835" lon="0.465183">
        <ele>2100.000000</ele>
        <time>2021-09-05T11:02:42Z</time>
      </trkpt>
      <trkpt lat="42.625833" lon="0.465188">
        <ele>2100.000000</ele>
        <time>2021-09-05T11:02:43Z</time>
      </trkpt>
      <trkpt lat="42.625833" lon="0.465202">
        <ele>2100.000000</ele>
        <time>2021-09-05T11:02:44Z</time>
      </trkpt>
      <trkpt lat="42.625830" lon="0.465208">
        <ele>2099.000000</ele>
        <time>2021-09-05T11:02:45Z</time>
      </trkpt>
      <trkpt lat="42.625827" lon="0.465217">
        <ele>2099.000000</ele>
        <time>2021-09-05T11:02:46Z</time>
      </trkpt>
      <trkpt lat="42.625821" lon="0.465218">
        <ele>2099.000000</ele>
        <time>2021-09-05T11:02:47Z</time>
      </trkpt>
      <trkpt lat="42.625814" lon="0.465228">
        <ele>2098.000000</ele>
        <time>2021-09-05T11:02:48Z</time>
      </trkpt>
      <trkpt lat="42.625809" lon="0.465238">
        <ele>2098.000000</ele>
        <time>2021-09-05T11:02:49Z</time>
      </trkpt>
      <trkpt lat="42.625808" lon="0.465250">
        <ele>2098.000000</ele>
        <time>2021-09-05T11:02:50Z</time>
      </trkpt>
      <trkpt lat="42.625800" lon="0.465263">
        <ele>2098.000000</ele>
        <time>2021-09-05T11:02:51Z</time>
      </trkpt>
      <trkpt lat="42.625793" lon="0.465273">
        <ele>2098.000000</ele>
        <time>2021-09-05T11:02:52Z</time>
      </trkpt>
      <trkpt lat="42.625787" lon="0.465280">
        <ele>2098.000000</ele>
        <time>2021-09-05T11:02:54Z</time>
      </trkpt>
      <trkpt lat="42.625779" lon="0.465292">
        <ele>2098.000000</ele>
        <time>2021-09-05T11:02:54Z</time>
      </trkpt>
      <trkpt lat="42.625775" lon="0.465303">
        <ele>2098.000000</ele>
        <time>2021-09-05T11:02:55Z</time>
      </trkpt>
      <trkpt lat="42.625774" lon="0.465312">
        <ele>2097.000000</ele>
        <time>2021-09-05T11:02:56Z</time>
      </trkpt>
      <trkpt lat="42.625774" lon="0.465317">
        <ele>2097.000000</ele>
        <time>2021-09-05T11:02:57Z</time>
      </trkpt>
      <trkpt lat="42.625773" lon="0.465327">
        <ele>2097.000000</ele>
        <time>2021-09-05T11:02:58Z</time>
      </trkpt>
      <trkpt lat="42.625770" lon="0.465337">
        <ele>2096.000000</ele>
        <time>2021-09-05T11:02:59Z</time>
      </trkpt>
      <trkpt lat="42.625767" lon="0.465342">
        <ele>2096.000000</ele>
        <time>2021-09-05T11:03:00Z</time>
      </trkpt>
      <trkpt lat="42.625764" lon="0.465343">
        <ele>2096.000000</ele>
        <time>2021-09-05T11:03:01Z</time>
      </trkpt>
      <trkpt lat="42.625750" lon="0.465348">
        <ele>2095.000000</ele>
        <time>2021-09-05T11:03:02Z</time>
      </trkpt>
      <trkpt lat="42.625747" lon="0.465355">
        <ele>2095.000000</ele>
        <time>2021-09-05T11:03:03Z</time>
      </trkpt>
      <trkpt lat="42.625745" lon="0.465358">
        <ele>2095.000000</ele>
        <time>2021-09-05T11:03:04Z</time>
      </trkpt>
      <trkpt lat="42.625738" lon="0.465363">
        <ele>2094.000000</ele>
        <time>2021-09-05T11:03:05Z</time>
      </trkpt>
      <trkpt lat="42.625733" lon="0.465365">
        <ele>2094.000000</ele>
        <time>2021-09-05T11:03:06Z</time>
      </trkpt>
      <trkpt lat="42.625728" lon="0.465368">
        <ele>2094.000000</ele>
        <time>2021-09-05T11:03:07Z</time>
      </trkpt>
      <trkpt lat="42.625725" lon="0.465370">
        <ele>2093.000000</ele>
        <time>2021-09-05T11:03:08Z</time>
      </trkpt>
      <trkpt lat="42.625722" lon="0.465372">
        <ele>2093.000000</ele>
        <time>2021-09-05T11:03:09Z</time>
      </trkpt>
      <trkpt lat="42.625717" lon="0.465376">
        <ele>2093.000000</ele>
        <time>2021-09-05T11:03:10Z</time>
      </trkpt>
      <trkpt lat="42.625712" lon="0.465379">
        <ele>2093.000000</ele>
        <time>2021-09-05T11:03:11Z</time>
      </trkpt>
      <trkpt lat="42.625710" lon="0.465385">
        <ele>2093.000000</ele>
        <time>2021-09-05T11:03:12Z</time>
      </trkpt>
      <trkpt lat="42.625712" lon="0.465392">
        <ele>2093.000000</ele>
        <time>2021-09-05T11:03:13Z</time>
      </trkpt>
      <trkpt lat="42.625712" lon="0.465395">
        <ele>2093.000000</ele>
        <time>2021-09-05T11:03:14Z</time>
      </trkpt>
      <trkpt lat="42.625707" lon="0.465405">
        <ele>2093.000000</ele>
        <time>2021-09-05T11:03:15Z</time>
      </trkpt>
      <trkpt lat="42.625699" lon="0.465413">
        <ele>2092.000000</ele>
        <time>2021-09-05T11:03:17Z</time>
      </trkpt>
      <trkpt lat="42.625695" lon="0.465420">
        <ele>2092.000000</ele>
        <time>2021-09-05T11:03:17Z</time>
      </trkpt>
      <trkpt lat="42.625695" lon="0.465427">
        <ele>2092.000000</ele>
        <time>2021-09-05T11:03:18Z</time>
      </trkpt>
      <trkpt lat="42.625696" lon="0.465437">
        <ele>2092.000000</ele>
        <time>2021-09-05T11:03:19Z</time>
      </trkpt>
      <trkpt lat="42.625702" lon="0.465447">
        <ele>2092.000000</ele>
        <time>2021-09-05T11:03:20Z</time>
      </trkpt>
      <trkpt lat="42.625698" lon="0.465457">
        <ele>2092.000000</ele>
        <time>2021-09-05T11:03:21Z</time>
      </trkpt>
      <trkpt lat="42.625698" lon="0.465470">
        <ele>2092.000000</ele>
        <time>2021-09-05T11:03:22Z</time>
      </trkpt>
      <trkpt lat="42.625694" lon="0.465480">
        <ele>2092.000000</ele>
        <time>2021-09-05T11:03:23Z</time>
      </trkpt>
      <trkpt lat="42.625690" lon="0.465482">
        <ele>2091.000000</ele>
        <time>2021-09-05T11:03:24Z</time>
      </trkpt>
      <trkpt lat="42.625680" lon="0.465477">
        <ele>2091.000000</ele>
        <time>2021-09-05T11:03:25Z</time>
      </trkpt>
      <trkpt lat="42.625673" lon="0.465477">
        <ele>2091.000000</ele>
        <time>2021-09-05T11:03:26Z</time>
      </trkpt>
      <trkpt lat="42.625670" lon="0.465482">
        <ele>2091.000000</ele>
        <time>2021-09-05T11:03:27Z</time>
      </trkpt>
      <trkpt lat="42.625663" lon="0.465488">
        <ele>2090.000000</ele>
        <time>2021-09-05T11:03:28Z</time>
      </trkpt>
      <trkpt lat="42.625668" lon="0.465486">
        <ele>2090.000000</ele>
        <time>2021-09-05T11:03:29Z</time>
      </trkpt>
      <trkpt lat="42.625667" lon="0.465488">
        <ele>2090.000000</ele>
        <time>2021-09-05T11:03:30Z</time>
      </trkpt>
      <trkpt lat="42.625665" lon="0.465489">
        <ele>2090.000000</ele>
        <time>2021-09-05T11:03:31Z</time>
      </trkpt>
      <trkpt lat="42.625660" lon="0.465484">
        <ele>2090.000000</ele>
        <time>2021-09-05T11:03:33Z</time>
      </trkpt>
      <trkpt lat="42.625655" lon="0.465482">
        <ele>2090.000000</ele>
        <time>2021-09-05T11:03:34Z</time>
      </trkpt>
      <trkpt lat="42.625652" lon="0.465484">
        <ele>2090.000000</ele>
        <time>2021-09-05T11:03:35Z</time>
      </trkpt>
      <trkpt lat="42.625652" lon="0.465489">
        <ele>2090.000000</ele>
        <time>2021-09-05T11:03:37Z</time>
      </trkpt>
      <trkpt lat="42.625645" lon="0.465500">
        <ele>2090.000000</ele>
        <time>2021-09-05T11:03:37Z</time>
      </trkpt>
      <trkpt lat="42.625652" lon="0.465502">
        <ele>2090.000000</ele>
        <time>2021-09-05T11:03:40Z</time>
      </trkpt>
      <trkpt lat="42.625657" lon="0.465505">
        <ele>2090.000000</ele>
        <time>2021-09-05T11:03:41Z</time>
      </trkpt>
      <trkpt lat="42.625655" lon="0.465509">
        <ele>2090.000000</ele>
        <time>2021-09-05T11:03:42Z</time>
      </trkpt>
      <trkpt lat="42.625658" lon="0.465510">
        <ele>2090.000000</ele>
        <time>2021-09-05T11:03:43Z</time>
      </trkpt>
      <trkpt lat="42.625662" lon="0.465515">
        <ele>2090.000000</ele>
        <time>2021-09-05T11:03:44Z</time>
      </trkpt>
      <trkpt lat="42.625665" lon="0.465518">
        <ele>2090.000000</ele>
        <time>2021-09-05T11:03:45Z</time>
      </trkpt>
      <trkpt lat="42.625667" lon="0.465518">
        <ele>2090.000000</ele>
        <time>2021-09-05T11:03:46Z</time>
      </trkpt>
      <trkpt lat="42.625670" lon="0.465517">
        <ele>2090.000000</ele>
        <time>2021-09-05T11:03:47Z</time>
      </trkpt>
      <trkpt lat="42.625667" lon="0.465516">
        <ele>2089.000000</ele>
        <time>2021-09-05T11:03:48Z</time>
      </trkpt>
      <trkpt lat="42.625662" lon="0.465513">
        <ele>2089.000000</ele>
        <time>2021-09-05T11:03:49Z</time>
      </trkpt>
      <trkpt lat="42.625743" lon="0.465545">
        <ele>2086.000000</ele>
        <time>2021-09-05T11:04:15Z</time>
      </trkpt>
      <trkpt lat="42.625757" lon="0.465550">
        <ele>2086.000000</ele>
        <time>2021-09-05T11:04:16Z</time>
      </trkpt>
      <trkpt lat="42.625763" lon="0.465551">
        <ele>2085.000000</ele>
        <time>2021-09-05T11:04:17Z</time>
      </trkpt>
      <trkpt lat="42.625768" lon="0.465548">
        <ele>2085.000000</ele>
        <time>2021-09-05T11:04:18Z</time>
      </trkpt>
      <trkpt lat="42.625770" lon="0.465544">
        <ele>2085.000000</ele>
        <time>2021-09-05T11:04:19Z</time>
      </trkpt>
      <trkpt lat="42.625777" lon="0.465537">
        <ele>2085.000000</ele>
        <time>2021-09-05T11:04:20Z</time>
      </trkpt>
      <trkpt lat="42.625783" lon="0.465535">
        <ele>2085.000000</ele>
        <time>2021-09-05T11:04:21Z</time>
      </trkpt>
      <trkpt lat="42.625790" lon="0.465540">
        <ele>2084.000000</ele>
        <time>2021-09-05T11:04:22Z</time>
      </trkpt>
      <trkpt lat="42.625792" lon="0.465546">
        <ele>2084.000000</ele>
        <time>2021-09-05T11:04:23Z</time>
      </trkpt>
      <trkpt lat="42.625790" lon="0.465562">
        <ele>2084.000000</ele>
        <time>2021-09-05T11:04:25Z</time>
      </trkpt>
      <trkpt lat="42.625788" lon="0.465563">
        <ele>2084.000000</ele>
        <time>2021-09-05T11:04:25Z</time>
      </trkpt>
      <trkpt lat="42.625790" lon="0.465567">
        <ele>2084.000000</ele>
        <time>2021-09-05T11:04:26Z</time>
      </trkpt>
      <trkpt lat="42.625795" lon="0.465577">
        <ele>2083.000000</ele>
        <time>2021-09-05T11:04:27Z</time>
      </trkpt>
      <trkpt lat="42.625803" lon="0.465577">
        <ele>2083.000000</ele>
        <time>2021-09-05T11:04:29Z</time>
      </trkpt>
      <trkpt lat="42.625808" lon="0.465572">
        <ele>2083.000000</ele>
        <time>2021-09-05T11:04:30Z</time>
      </trkpt>
      <trkpt lat="42.625815" lon="0.465575">
        <ele>2083.000000</ele>
        <time>2021-09-05T11:04:31Z</time>
      </trkpt>
      <trkpt lat="42.625823" lon="0.465580">
        <ele>2083.000000</ele>
        <time>2021-09-05T11:04:32Z</time>
      </trkpt>
      <trkpt lat="42.625827" lon="0.465585">
        <ele>2083.000000</ele>
        <time>2021-09-05T11:04:33Z</time>
      </trkpt>
      <trkpt lat="42.625830" lon="0.465593">
        <ele>2083.000000</ele>
        <time>2021-09-05T11:04:34Z</time>
      </trkpt>
      <trkpt lat="42.625835" lon="0.465605">
        <ele>2083.000000</ele>
        <time>2021-09-05T11:04:35Z</time>
      </trkpt>
      <trkpt lat="42.625842" lon="0.465610">
        <ele>2083.000000</ele>
        <time>2021-09-05T11:04:36Z</time>
      </trkpt>
      <trkpt lat="42.625845" lon="0.465613">
        <ele>2083.000000</ele>
        <time>2021-09-05T11:04:37Z</time>
      </trkpt>
      <trkpt lat="42.625850" lon="0.465622">
        <ele>2082.000000</ele>
        <time>2021-09-05T11:04:38Z</time>
      </trkpt>
      <trkpt lat="42.625854" lon="0.465622">
        <ele>2082.000000</ele>
        <time>2021-09-05T11:04:39Z</time>
      </trkpt>
      <trkpt lat="42.625873" lon="0.465618">
        <ele>2082.000000</ele>
        <time>2021-09-05T11:04:40Z</time>
      </trkpt>
      <trkpt lat="42.625882" lon="0.465620">
        <ele>2082.000000</ele>
        <time>2021-09-05T11:04:41Z</time>
      </trkpt>
      <trkpt lat="42.625888" lon="0.465622">
        <ele>2082.000000</ele>
        <time>2021-09-05T11:04:43Z</time>
      </trkpt>
      <trkpt lat="42.625890" lon="0.465625">
        <ele>2081.000000</ele>
        <time>2021-09-05T11:04:45Z</time>
      </trkpt>
      <trkpt lat="42.625888" lon="0.465632">
        <ele>2081.000000</ele>
        <time>2021-09-05T11:04:45Z</time>
      </trkpt>
      <trkpt lat="42.625887" lon="0.465638">
        <ele>2081.000000</ele>
        <time>2021-09-05T11:04:46Z</time>
      </trkpt>
      <trkpt lat="42.625885" lon="0.465648">
        <ele>2081.000000</ele>
        <time>2021-09-05T11:04:47Z</time>
      </trkpt>
      <trkpt lat="42.625890" lon="0.465657">
        <ele>2081.000000</ele>
        <time>2021-09-05T11:04:48Z</time>
      </trkpt>
      <trkpt lat="42.625895" lon="0.465673">
        <ele>2080.000000</ele>
        <time>2021-09-05T11:04:49Z</time>
      </trkpt>
      <trkpt lat="42.625900" lon="0.465678">
        <ele>2080.000000</ele>
        <time>2021-09-05T11:04:50Z</time>
      </trkpt>
      <trkpt lat="42.625906" lon="0.465682">
        <ele>2080.000000</ele>
        <time>2021-09-05T11:04:51Z</time>
      </trkpt>
      <trkpt lat="42.625917" lon="0.465690">
        <ele>2080.000000</ele>
        <time>2021-09-05T11:04:52Z</time>
      </trkpt>
      <trkpt lat="42.625928" lon="0.465693">
        <ele>2080.000000</ele>
        <time>2021-09-05T11:04:53Z</time>
      </trkpt>
      <trkpt lat="42.625932" lon="0.465698">
        <ele>2080.000000</ele>
        <time>2021-09-05T11:04:54Z</time>
      </trkpt>
      <trkpt lat="42.625932" lon="0.465700">
        <ele>2080.000000</ele>
        <time>2021-09-05T11:04:55Z</time>
      </trkpt>
      <trkpt lat="42.625935" lon="0.465707">
        <ele>2080.000000</ele>
        <time>2021-09-05T11:04:56Z</time>
      </trkpt>
      <trkpt lat="42.625933" lon="0.465717">
        <ele>2080.000000</ele>
        <time>2021-09-05T11:04:57Z</time>
      </trkpt>
      <trkpt lat="42.625930" lon="0.465730">
        <ele>2080.000000</ele>
        <time>2021-09-05T11:04:58Z</time>
      </trkpt>
      <trkpt lat="42.625927" lon="0.465738">
        <ele>2080.000000</ele>
        <time>2021-09-05T11:04:59Z</time>
      </trkpt>
      <trkpt lat="42.625927" lon="0.465747">
        <ele>2080.000000</ele>
        <time>2021-09-05T11:05:00Z</time>
      </trkpt>
      <trkpt lat="42.625927" lon="0.465762">
        <ele>2080.000000</ele>
        <time>2021-09-05T11:05:02Z</time>
      </trkpt>
      <trkpt lat="42.625925" lon="0.465765">
        <ele>2080.000000</ele>
        <time>2021-09-05T11:05:03Z</time>
      </trkpt>
      <trkpt lat="42.625928" lon="0.465768">
        <ele>2080.000000</ele>
        <time>2021-09-05T11:05:04Z</time>
      </trkpt>
      <trkpt lat="42.625925" lon="0.465775">
        <ele>2080.000000</ele>
        <time>2021-09-05T11:05:06Z</time>
      </trkpt>
      <trkpt lat="42.625922" lon="0.465782">
        <ele>2080.000000</ele>
        <time>2021-09-05T11:05:08Z</time>
      </trkpt>
      <trkpt lat="42.625922" lon="0.465785">
        <ele>2080.000000</ele>
        <time>2021-09-05T11:05:08Z</time>
      </trkpt>
      <trkpt lat="42.625923" lon="0.465795">
        <ele>2080.000000</ele>
        <time>2021-09-05T11:05:09Z</time>
      </trkpt>
      <trkpt lat="42.625925" lon="0.465800">
        <ele>2080.000000</ele>
        <time>2021-09-05T11:05:10Z</time>
      </trkpt>
      <trkpt lat="42.625927" lon="0.465803">
        <ele>2080.000000</ele>
        <time>2021-09-05T11:05:11Z</time>
      </trkpt>
      <trkpt lat="42.625927" lon="0.465817">
        <ele>2080.000000</ele>
        <time>2021-09-05T11:05:12Z</time>
      </trkpt>
      <trkpt lat="42.625927" lon="0.465827">
        <ele>2080.000000</ele>
        <time>2021-09-05T11:05:13Z</time>
      </trkpt>
      <trkpt lat="42.625924" lon="0.465838">
        <ele>2080.000000</ele>
        <time>2021-09-05T11:05:14Z</time>
      </trkpt>
      <trkpt lat="42.625921" lon="0.465853">
        <ele>2079.000000</ele>
        <time>2021-09-05T11:05:15Z</time>
      </trkpt>
      <trkpt lat="42.625919" lon="0.465860">
        <ele>2079.000000</ele>
        <time>2021-09-05T11:05:16Z</time>
      </trkpt>
      <trkpt lat="42.625914" lon="0.465863">
        <ele>2079.000000</ele>
        <time>2021-09-05T11:05:17Z</time>
      </trkpt>
      <trkpt lat="42.625910" lon="0.465863">
        <ele>2078.000000</ele>
        <time>2021-09-05T11:05:18Z</time>
      </trkpt>
      <trkpt lat="42.625907" lon="0.465862">
        <ele>2078.000000</ele>
        <time>2021-09-05T11:05:19Z</time>
      </trkpt>
      <trkpt lat="42.625905" lon="0.465860">
        <ele>2078.000000</ele>
        <time>2021-09-05T11:05:20Z</time>
      </trkpt>
      <trkpt lat="42.625901" lon="0.465862">
        <ele>2077.000000</ele>
        <time>2021-09-05T11:05:21Z</time>
      </trkpt>
      <trkpt lat="42.625897" lon="0.465863">
        <ele>2077.000000</ele>
        <time>2021-09-05T11:05:22Z</time>
      </trkpt>
      <trkpt lat="42.625877" lon="0.465865">
        <ele>2076.000000</ele>
        <time>2021-09-05T11:05:26Z</time>
      </trkpt>
      <trkpt lat="42.625873" lon="0.465862">
        <ele>2076.000000</ele>
        <time>2021-09-05T11:05:27Z</time>
      </trkpt>
      <trkpt lat="42.625870" lon="0.465858">
        <ele>2076.000000</ele>
        <time>2021-09-05T11:05:28Z</time>
      </trkpt>
      <trkpt lat="42.625862" lon="0.465856">
        <ele>2076.000000</ele>
        <time>2021-09-05T11:05:29Z</time>
      </trkpt>
      <trkpt lat="42.625858" lon="0.465860">
        <ele>2076.000000</ele>
        <time>2021-09-05T11:05:30Z</time>
      </trkpt>
      <trkpt lat="42.625857" lon="0.465866">
        <ele>2076.000000</ele>
        <time>2021-09-05T11:05:32Z</time>
      </trkpt>
      <trkpt lat="42.625857" lon="0.465877">
        <ele>2076.000000</ele>
        <time>2021-09-05T11:05:32Z</time>
      </trkpt>
      <trkpt lat="42.625855" lon="0.465885">
        <ele>2076.000000</ele>
        <time>2021-09-05T11:05:33Z</time>
      </trkpt>
      <trkpt lat="42.625850" lon="0.465895">
        <ele>2076.000000</ele>
        <time>2021-09-05T11:05:34Z</time>
      </trkpt>
      <trkpt lat="42.625847" lon="0.465895">
        <ele>2076.000000</ele>
        <time>2021-09-05T11:05:35Z</time>
      </trkpt>
      <trkpt lat="42.625841" lon="0.465902">
        <ele>2076.000000</ele>
        <time>2021-09-05T11:05:36Z</time>
      </trkpt>
      <trkpt lat="42.625836" lon="0.465913">
        <ele>2076.000000</ele>
        <time>2021-09-05T11:05:37Z</time>
      </trkpt>
      <trkpt lat="42.625832" lon="0.465923">
        <ele>2076.000000</ele>
        <time>2021-09-05T11:05:38Z</time>
      </trkpt>
      <trkpt lat="42.625829" lon="0.465933">
        <ele>2076.000000</ele>
        <time>2021-09-05T11:05:39Z</time>
      </trkpt>
      <trkpt lat="42.625826" lon="0.465938">
        <ele>2076.000000</ele>
        <time>2021-09-05T11:05:40Z</time>
      </trkpt>
      <trkpt lat="42.625821" lon="0.465945">
        <ele>2076.000000</ele>
        <time>2021-09-05T11:05:41Z</time>
      </trkpt>
      <trkpt lat="42.625810" lon="0.465948">
        <ele>2076.000000</ele>
        <time>2021-09-05T11:05:42Z</time>
      </trkpt>
      <trkpt lat="42.625803" lon="0.465952">
        <ele>2075.000000</ele>
        <time>2021-09-05T11:05:43Z</time>
      </trkpt>
      <trkpt lat="42.625798" lon="0.465953">
        <ele>2075.000000</ele>
        <time>2021-09-05T11:05:44Z</time>
      </trkpt>
      <trkpt lat="42.625795" lon="0.465953">
        <ele>2075.000000</ele>
        <time>2021-09-05T11:05:45Z</time>
      </trkpt>
      <trkpt lat="42.625790" lon="0.465960">
        <ele>2075.000000</ele>
        <time>2021-09-05T11:05:46Z</time>
      </trkpt>
      <trkpt lat="42.625785" lon="0.465965">
        <ele>2075.000000</ele>
        <time>2021-09-05T11:05:47Z</time>
      </trkpt>
      <trkpt lat="42.625787" lon="0.465966">
        <ele>2075.000000</ele>
        <time>2021-09-05T11:05:48Z</time>
      </trkpt>
      <trkpt lat="42.625783" lon="0.465978">
        <ele>2075.000000</ele>
        <time>2021-09-05T11:05:49Z</time>
      </trkpt>
      <trkpt lat="42.625787" lon="0.465983">
        <ele>2075.000000</ele>
        <time>2021-09-05T11:05:50Z</time>
      </trkpt>
      <trkpt lat="42.625783" lon="0.465988">
        <ele>2075.000000</ele>
        <time>2021-09-05T11:05:52Z</time>
      </trkpt>
      <trkpt lat="42.625788" lon="0.465997">
        <ele>2075.000000</ele>
        <time>2021-09-05T11:05:52Z</time>
      </trkpt>
      <trkpt lat="42.625783" lon="0.466003">
        <ele>2075.000000</ele>
        <time>2021-09-05T11:05:53Z</time>
      </trkpt>
      <trkpt lat="42.625778" lon="0.466013">
        <ele>2075.000000</ele>
        <time>2021-09-05T11:05:54Z</time>
      </trkpt>
      <trkpt lat="42.625774" lon="0.466020">
        <ele>2076.000000</ele>
        <time>2021-09-05T11:05:55Z</time>
      </trkpt>
      <trkpt lat="42.625772" lon="0.466025">
        <ele>2076.000000</ele>
        <time>2021-09-05T11:05:56Z</time>
      </trkpt>
      <trkpt lat="42.625769" lon="0.466028">
        <ele>2076.000000</ele>
        <time>2021-09-05T11:05:57Z</time>
      </trkpt>
      <trkpt lat="42.625758" lon="0.466035">
        <ele>2076.000000</ele>
        <time>2021-09-05T11:05:58Z</time>
      </trkpt>
      <trkpt lat="42.625748" lon="0.466032">
        <ele>2076.000000</ele>
        <time>2021-09-05T11:05:59Z</time>
      </trkpt>
      <trkpt lat="42.625735" lon="0.466027">
        <ele>2076.000000</ele>
        <time>2021-09-05T11:06:00Z</time>
      </trkpt>
      <trkpt lat="42.625730" lon="0.466018">
        <ele>2076.000000</ele>
        <time>2021-09-05T11:06:01Z</time>
      </trkpt>
      <trkpt lat="42.625717" lon="0.466015">
        <ele>2076.000000</ele>
        <time>2021-09-05T11:06:02Z</time>
      </trkpt>
      <trkpt lat="42.625707" lon="0.466010">
        <ele>2076.000000</ele>
        <time>2021-09-05T11:06:03Z</time>
      </trkpt>
      <trkpt lat="42.625695" lon="0.466005">
        <ele>2076.000000</ele>
        <time>2021-09-05T11:06:04Z</time>
      </trkpt>
      <trkpt lat="42.625685" lon="0.466006">
        <ele>2076.000000</ele>
        <time>2021-09-05T11:06:05Z</time>
      </trkpt>
      <trkpt lat="42.625675" lon="0.466008">
        <ele>2076.000000</ele>
        <time>2021-09-05T11:06:06Z</time>
      </trkpt>
      <trkpt lat="42.625668" lon="0.466008">
        <ele>2076.000000</ele>
        <time>2021-09-05T11:06:07Z</time>
      </trkpt>
      <trkpt lat="42.625658" lon="0.466006">
        <ele>2076.000000</ele>
        <time>2021-09-05T11:06:08Z</time>
      </trkpt>
      <trkpt lat="42.625655" lon="0.466007">
        <ele>2076.000000</ele>
        <time>2021-09-05T11:06:09Z</time>
      </trkpt>
      <trkpt lat="42.625648" lon="0.466008">
        <ele>2076.000000</ele>
        <time>2021-09-05T11:06:10Z</time>
      </trkpt>
      <trkpt lat="42.625643" lon="0.466008">
        <ele>2076.000000</ele>
        <time>2021-09-05T11:06:11Z</time>
      </trkpt>
      <trkpt lat="42.625635" lon="0.466010">
        <ele>2076.000000</ele>
        <time>2021-09-05T11:06:12Z</time>
      </trkpt>
      <trkpt lat="42.625628" lon="0.466014">
        <ele>2076.000000</ele>
        <time>2021-09-05T11:06:13Z</time>
      </trkpt>
      <trkpt lat="42.625627" lon="0.466016">
        <ele>2075.000000</ele>
        <time>2021-09-05T11:06:14Z</time>
      </trkpt>
      <trkpt lat="42.625625" lon="0.466017">
        <ele>2075.000000</ele>
        <time>2021-09-05T11:06:16Z</time>
      </trkpt>
      <trkpt lat="42.625622" lon="0.466018">
        <ele>2075.000000</ele>
        <time>2021-09-05T11:06:16Z</time>
      </trkpt>
      <trkpt lat="42.625620" lon="0.466018">
        <ele>2075.000000</ele>
        <time>2021-09-05T11:06:17Z</time>
      </trkpt>
      <trkpt lat="42.625618" lon="0.466019">
        <ele>2075.000000</ele>
        <time>2021-09-05T11:06:18Z</time>
      </trkpt>
      <trkpt lat="42.625612" lon="0.466021">
        <ele>2075.000000</ele>
        <time>2021-09-05T11:06:19Z</time>
      </trkpt>
      <trkpt lat="42.625603" lon="0.466025">
        <ele>2075.000000</ele>
        <time>2021-09-05T11:06:20Z</time>
      </trkpt>
      <trkpt lat="42.625603" lon="0.466027">
        <ele>2074.000000</ele>
        <time>2021-09-05T11:06:21Z</time>
      </trkpt>
      <trkpt lat="42.625598" lon="0.466030">
        <ele>2074.000000</ele>
        <time>2021-09-05T11:06:22Z</time>
      </trkpt>
      <trkpt lat="42.625595" lon="0.466033">
        <ele>2074.000000</ele>
        <time>2021-09-05T11:06:23Z</time>
      </trkpt>
      <trkpt lat="42.625592" lon="0.466034">
        <ele>2074.000000</ele>
        <time>2021-09-05T11:06:24Z</time>
      </trkpt>
      <trkpt lat="42.625582" lon="0.466037">
        <ele>2074.000000</ele>
        <time>2021-09-05T11:06:25Z</time>
      </trkpt>
      <trkpt lat="42.625582" lon="0.466037">
        <ele>2074.000000</ele>
        <time>2021-09-05T11:06:26Z</time>
      </trkpt>
      <trkpt lat="42.625573" lon="0.466040">
        <ele>2074.000000</ele>
        <time>2021-09-05T11:06:27Z</time>
      </trkpt>
      <trkpt lat="42.625565" lon="0.466043">
        <ele>2074.000000</ele>
        <time>2021-09-05T11:06:28Z</time>
      </trkpt>
      <trkpt lat="42.625562" lon="0.466044">
        <ele>2074.000000</ele>
        <time>2021-09-05T11:06:29Z</time>
      </trkpt>
      <trkpt lat="42.625560" lon="0.466045">
        <ele>2074.000000</ele>
        <time>2021-09-05T11:06:30Z</time>
      </trkpt>
      <trkpt lat="42.625553" lon="0.466049">
        <ele>2074.000000</ele>
        <time>2021-09-05T11:06:31Z</time>
      </trkpt>
      <trkpt lat="42.625550" lon="0.466051">
        <ele>2074.000000</ele>
        <time>2021-09-05T11:06:32Z</time>
      </trkpt>
      <trkpt lat="42.625538" lon="0.466056">
        <ele>2074.000000</ele>
        <time>2021-09-05T11:06:33Z</time>
      </trkpt>
      <trkpt lat="42.625530" lon="0.466058">
        <ele>2074.000000</ele>
        <time>2021-09-05T11:06:34Z</time>
      </trkpt>
      <trkpt lat="42.625522" lon="0.466045">
        <ele>2074.000000</ele>
        <time>2021-09-05T11:06:35Z</time>
      </trkpt>
      <trkpt lat="42.625512" lon="0.466038">
        <ele>2074.000000</ele>
        <time>2021-09-05T11:06:37Z</time>
      </trkpt>
      <trkpt lat="42.625510" lon="0.466035">
        <ele>2074.000000</ele>
        <time>2021-09-05T11:06:37Z</time>
      </trkpt>
      <trkpt lat="42.625500" lon="0.466035">
        <ele>2074.000000</ele>
        <time>2021-09-05T11:06:38Z</time>
      </trkpt>
      <trkpt lat="42.625500" lon="0.466042">
        <ele>2074.000000</ele>
        <time>2021-09-05T11:06:41Z</time>
      </trkpt>
      <trkpt lat="42.625498" lon="0.466045">
        <ele>2074.000000</ele>
        <time>2021-09-05T11:06:42Z</time>
      </trkpt>
      <trkpt lat="42.625492" lon="0.466045">
        <ele>2074.000000</ele>
        <time>2021-09-05T11:06:43Z</time>
      </trkpt>
      <trkpt lat="42.625485" lon="0.466048">
        <ele>2074.000000</ele>
        <time>2021-09-05T11:06:44Z</time>
      </trkpt>
      <trkpt lat="42.625475" lon="0.466055">
        <ele>2074.000000</ele>
        <time>2021-09-05T11:06:45Z</time>
      </trkpt>
      <trkpt lat="42.625470" lon="0.466059">
        <ele>2074.000000</ele>
        <time>2021-09-05T11:06:46Z</time>
      </trkpt>
      <trkpt lat="42.625468" lon="0.466067">
        <ele>2074.000000</ele>
        <time>2021-09-05T11:06:47Z</time>
      </trkpt>
      <trkpt lat="42.625465" lon="0.466065">
        <ele>2074.000000</ele>
        <time>2021-09-05T11:06:48Z</time>
      </trkpt>
      <trkpt lat="42.625467" lon="0.466073">
        <ele>2074.000000</ele>
        <time>2021-09-05T11:06:49Z</time>
      </trkpt>
      <trkpt lat="42.625465" lon="0.466078">
        <ele>2074.000000</ele>
        <time>2021-09-05T11:06:50Z</time>
      </trkpt>
      <trkpt lat="42.625459" lon="0.466080">
        <ele>2074.000000</ele>
        <time>2021-09-05T11:06:51Z</time>
      </trkpt>
      <trkpt lat="42.625451" lon="0.466082">
        <ele>2073.000000</ele>
        <time>2021-09-05T11:06:52Z</time>
      </trkpt>
      <trkpt lat="42.625441" lon="0.466085">
        <ele>2073.000000</ele>
        <time>2021-09-05T11:06:53Z</time>
      </trkpt>
      <trkpt lat="42.625435" lon="0.466095">
        <ele>2073.000000</ele>
        <time>2021-09-05T11:06:54Z</time>
      </trkpt>
      <trkpt lat="42.625435" lon="0.466098">
        <ele>2073.000000</ele>
        <time>2021-09-05T11:06:55Z</time>
      </trkpt>
      <trkpt lat="42.625432" lon="0.466102">
        <ele>2072.000000</ele>
        <time>2021-09-05T11:06:56Z</time>
      </trkpt>
      <trkpt lat="42.625427" lon="0.466104">
        <ele>2072.000000</ele>
        <time>2021-09-05T11:06:57Z</time>
      </trkpt>
      <trkpt lat="42.625425" lon="0.466108">
        <ele>2072.000000</ele>
        <time>2021-09-05T11:06:57Z</time>
      </trkpt>
      <trkpt lat="42.625420" lon="0.466122">
        <ele>2072.000000</ele>
        <time>2021-09-05T11:06:59Z</time>
      </trkpt>
      <trkpt lat="42.625413" lon="0.466132">
        <ele>2072.000000</ele>
        <time>2021-09-05T11:06:59Z</time>
      </trkpt>
      <trkpt lat="42.625407" lon="0.466135">
        <ele>2071.000000</ele>
        <time>2021-09-05T11:07:00Z</time>
      </trkpt>
      <trkpt lat="42.625393" lon="0.466138">
        <ele>2071.000000</ele>
        <time>2021-09-05T11:07:01Z</time>
      </trkpt>
      <trkpt lat="42.625390" lon="0.466138">
        <ele>2071.000000</ele>
        <time>2021-09-05T11:07:02Z</time>
      </trkpt>
      <trkpt lat="42.625383" lon="0.466133">
        <ele>2071.000000</ele>
        <time>2021-09-05T11:07:03Z</time>
      </trkpt>
      <trkpt lat="42.625375" lon="0.466135">
        <ele>2071.000000</ele>
        <time>2021-09-05T11:07:04Z</time>
      </trkpt>
      <trkpt lat="42.625372" lon="0.466142">
        <ele>2071.000000</ele>
        <time>2021-09-05T11:07:05Z</time>
      </trkpt>
      <trkpt lat="42.625365" lon="0.466147">
        <ele>2070.000000</ele>
        <time>2021-09-05T11:07:06Z</time>
      </trkpt>
      <trkpt lat="42.625360" lon="0.466151">
        <ele>2070.000000</ele>
        <time>2021-09-05T11:07:07Z</time>
      </trkpt>
      <trkpt lat="42.625348" lon="0.466157">
        <ele>2070.000000</ele>
        <time>2021-09-05T11:07:08Z</time>
      </trkpt>
      <trkpt lat="42.625340" lon="0.466163">
        <ele>2070.000000</ele>
        <time>2021-09-05T11:07:09Z</time>
      </trkpt>
      <trkpt lat="42.625332" lon="0.466166">
        <ele>2070.000000</ele>
        <time>2021-09-05T11:07:10Z</time>
      </trkpt>
      <trkpt lat="42.625327" lon="0.466167">
        <ele>2070.000000</ele>
        <time>2021-09-05T11:07:11Z</time>
      </trkpt>
      <trkpt lat="42.625310" lon="0.466170">
        <ele>2069.000000</ele>
        <time>2021-09-05T11:07:12Z</time>
      </trkpt>
      <trkpt lat="42.625293" lon="0.466168">
        <ele>2069.000000</ele>
        <time>2021-09-05T11:07:13Z</time>
      </trkpt>
      <trkpt lat="42.625282" lon="0.466155">
        <ele>2069.000000</ele>
        <time>2021-09-05T11:07:14Z</time>
      </trkpt>
      <trkpt lat="42.625277" lon="0.466148">
        <ele>2069.000000</ele>
        <time>2021-09-05T11:07:15Z</time>
      </trkpt>
      <trkpt lat="42.625273" lon="0.466143">
        <ele>2069.000000</ele>
        <time>2021-09-05T11:07:16Z</time>
      </trkpt>
      <trkpt lat="42.625262" lon="0.466140">
        <ele>2069.000000</ele>
        <time>2021-09-05T11:07:17Z</time>
      </trkpt>
      <trkpt lat="42.625255" lon="0.466139">
        <ele>2069.000000</ele>
        <time>2021-09-05T11:07:18Z</time>
      </trkpt>
      <trkpt lat="42.625248" lon="0.466138">
        <ele>2069.000000</ele>
        <time>2021-09-05T11:07:19Z</time>
      </trkpt>
      <trkpt lat="42.625237" lon="0.466138">
        <ele>2069.000000</ele>
        <time>2021-09-05T11:07:20Z</time>
      </trkpt>
      <trkpt lat="42.625223" lon="0.466137">
        <ele>2068.000000</ele>
        <time>2021-09-05T11:07:22Z</time>
      </trkpt>
      <trkpt lat="42.625218" lon="0.466139">
        <ele>2068.000000</ele>
        <time>2021-09-05T11:07:22Z</time>
      </trkpt>
      <trkpt lat="42.625220" lon="0.466142">
        <ele>2068.000000</ele>
        <time>2021-09-05T11:07:23Z</time>
      </trkpt>
      <trkpt lat="42.625220" lon="0.466146">
        <ele>2068.000000</ele>
        <time>2021-09-05T11:07:24Z</time>
      </trkpt>
      <trkpt lat="42.625220" lon="0.466173">
        <ele>2068.000000</ele>
        <time>2021-09-05T11:07:25Z</time>
      </trkpt>
      <trkpt lat="42.625220" lon="0.466182">
        <ele>2068.000000</ele>
        <time>2021-09-05T11:07:26Z</time>
      </trkpt>
      <trkpt lat="42.625213" lon="0.466192">
        <ele>2068.000000</ele>
        <time>2021-09-05T11:07:27Z</time>
      </trkpt>
      <trkpt lat="42.625210" lon="0.466198">
        <ele>2068.000000</ele>
        <time>2021-09-05T11:07:28Z</time>
      </trkpt>
      <trkpt lat="42.625200" lon="0.466208">
        <ele>2068.000000</ele>
        <time>2021-09-05T11:07:29Z</time>
      </trkpt>
      <trkpt lat="42.625200" lon="0.466220">
        <ele>2068.000000</ele>
        <time>2021-09-05T11:07:30Z</time>
      </trkpt>
      <trkpt lat="42.625198" lon="0.466233">
        <ele>2068.000000</ele>
        <time>2021-09-05T11:07:31Z</time>
      </trkpt>
      <trkpt lat="42.625198" lon="0.466240">
        <ele>2069.000000</ele>
        <time>2021-09-05T11:07:32Z</time>
      </trkpt>
      <trkpt lat="42.625195" lon="0.466243">
        <ele>2069.000000</ele>
        <time>2021-09-05T11:07:33Z</time>
      </trkpt>
      <trkpt lat="42.625178" lon="0.466237">
        <ele>2069.000000</ele>
        <time>2021-09-05T11:07:34Z</time>
      </trkpt>
      <trkpt lat="42.625163" lon="0.466232">
        <ele>2069.000000</ele>
        <time>2021-09-05T11:07:35Z</time>
      </trkpt>
      <trkpt lat="42.625153" lon="0.466240">
        <ele>2069.000000</ele>
        <time>2021-09-05T11:07:36Z</time>
      </trkpt>
      <trkpt lat="42.625145" lon="0.466252">
        <ele>2069.000000</ele>
        <time>2021-09-05T11:07:37Z</time>
      </trkpt>
      <trkpt lat="42.625135" lon="0.466260">
        <ele>2069.000000</ele>
        <time>2021-09-05T11:07:38Z</time>
      </trkpt>
      <trkpt lat="42.625127" lon="0.466268">
        <ele>2069.000000</ele>
        <time>2021-09-05T11:07:39Z</time>
      </trkpt>
      <trkpt lat="42.625120" lon="0.466277">
        <ele>2069.000000</ele>
        <time>2021-09-05T11:07:40Z</time>
      </trkpt>
      <trkpt lat="42.625127" lon="0.466276">
        <ele>2069.000000</ele>
        <time>2021-09-05T11:07:42Z</time>
      </trkpt>
      <trkpt lat="42.625125" lon="0.466303">
        <ele>2069.000000</ele>
        <time>2021-09-05T11:07:42Z</time>
      </trkpt>
      <trkpt lat="42.625114" lon="0.466305">
        <ele>2069.000000</ele>
        <time>2021-09-05T11:07:43Z</time>
      </trkpt>
      <trkpt lat="42.625103" lon="0.466298">
        <ele>2069.000000</ele>
        <time>2021-09-05T11:07:44Z</time>
      </trkpt>
      <trkpt lat="42.625095" lon="0.466302">
        <ele>2069.000000</ele>
        <time>2021-09-05T11:07:45Z</time>
      </trkpt>
      <trkpt lat="42.625087" lon="0.466305">
        <ele>2069.000000</ele>
        <time>2021-09-05T11:07:46Z</time>
      </trkpt>
      <trkpt lat="42.625083" lon="0.466311">
        <ele>2069.000000</ele>
        <time>2021-09-05T11:07:47Z</time>
      </trkpt>
      <trkpt lat="42.625077" lon="0.466321">
        <ele>2069.000000</ele>
        <time>2021-09-05T11:07:48Z</time>
      </trkpt>
      <trkpt lat="42.625070" lon="0.466337">
        <ele>2069.000000</ele>
        <time>2021-09-05T11:07:49Z</time>
      </trkpt>
      <trkpt lat="42.625065" lon="0.466348">
        <ele>2070.000000</ele>
        <time>2021-09-05T11:07:50Z</time>
      </trkpt>
      <trkpt lat="42.625057" lon="0.466363">
        <ele>2070.000000</ele>
        <time>2021-09-05T11:07:51Z</time>
      </trkpt>
      <trkpt lat="42.625053" lon="0.466379">
        <ele>2070.000000</ele>
        <time>2021-09-05T11:07:52Z</time>
      </trkpt>
      <trkpt lat="42.625052" lon="0.466395">
        <ele>2070.000000</ele>
        <time>2021-09-05T11:07:53Z</time>
      </trkpt>
      <trkpt lat="42.625047" lon="0.466408">
        <ele>2070.000000</ele>
        <time>2021-09-05T11:07:54Z</time>
      </trkpt>
      <trkpt lat="42.625037" lon="0.466417">
        <ele>2070.000000</ele>
        <time>2021-09-05T11:07:55Z</time>
      </trkpt>
      <trkpt lat="42.625030" lon="0.466418">
        <ele>2070.000000</ele>
        <time>2021-09-05T11:07:56Z</time>
      </trkpt>
      <trkpt lat="42.625015" lon="0.466428">
        <ele>2070.000000</ele>
        <time>2021-09-05T11:07:57Z</time>
      </trkpt>
      <trkpt lat="42.625003" lon="0.466432">
        <ele>2070.000000</ele>
        <time>2021-09-05T11:07:58Z</time>
      </trkpt>
      <trkpt lat="42.624992" lon="0.466435">
        <ele>2070.000000</ele>
        <time>2021-09-05T11:07:59Z</time>
      </trkpt>
      <trkpt lat="42.624987" lon="0.466436">
        <ele>2070.000000</ele>
        <time>2021-09-05T11:08:00Z</time>
      </trkpt>
      <trkpt lat="42.624977" lon="0.466442">
        <ele>2070.000000</ele>
        <time>2021-09-05T11:08:01Z</time>
      </trkpt>
      <trkpt lat="42.624968" lon="0.466446">
        <ele>2070.000000</ele>
        <time>2021-09-05T11:08:02Z</time>
      </trkpt>
      <trkpt lat="42.624963" lon="0.466450">
        <ele>2070.000000</ele>
        <time>2021-09-05T11:08:03Z</time>
      </trkpt>
      <trkpt lat="42.624962" lon="0.466452">
        <ele>2070.000000</ele>
        <time>2021-09-05T11:08:05Z</time>
      </trkpt>
      <trkpt lat="42.624958" lon="0.466456">
        <ele>2070.000000</ele>
        <time>2021-09-05T11:08:05Z</time>
      </trkpt>
      <trkpt lat="42.624950" lon="0.466464">
        <ele>2070.000000</ele>
        <time>2021-09-05T11:08:06Z</time>
      </trkpt>
      <trkpt lat="42.624943" lon="0.466469">
        <ele>2070.000000</ele>
        <time>2021-09-05T11:08:07Z</time>
      </trkpt>
      <trkpt lat="42.624947" lon="0.466468">
        <ele>2070.000000</ele>
        <time>2021-09-05T11:08:08Z</time>
      </trkpt>
      <trkpt lat="42.624947" lon="0.466487">
        <ele>2070.000000</ele>
        <time>2021-09-05T11:08:09Z</time>
      </trkpt>
      <trkpt lat="42.624950" lon="0.466495">
        <ele>2070.000000</ele>
        <time>2021-09-05T11:08:10Z</time>
      </trkpt>
      <trkpt lat="42.624950" lon="0.466503">
        <ele>2070.000000</ele>
        <time>2021-09-05T11:08:11Z</time>
      </trkpt>
      <trkpt lat="42.624948" lon="0.466510">
        <ele>2070.000000</ele>
        <time>2021-09-05T11:08:12Z</time>
      </trkpt>
      <trkpt lat="42.624937" lon="0.466512">
        <ele>2070.000000</ele>
        <time>2021-09-05T11:08:13Z</time>
      </trkpt>
      <trkpt lat="42.624928" lon="0.466513">
        <ele>2070.000000</ele>
        <time>2021-09-05T11:08:14Z</time>
      </trkpt>
      <trkpt lat="42.624920" lon="0.466527">
        <ele>2070.000000</ele>
        <time>2021-09-05T11:08:15Z</time>
      </trkpt>
      <trkpt lat="42.624915" lon="0.466537">
        <ele>2070.000000</ele>
        <time>2021-09-05T11:08:16Z</time>
      </trkpt>
      <trkpt lat="42.624912" lon="0.466538">
        <ele>2070.000000</ele>
        <time>2021-09-05T11:08:17Z</time>
      </trkpt>
      <trkpt lat="42.624902" lon="0.466535">
        <ele>2070.000000</ele>
        <time>2021-09-05T11:08:18Z</time>
      </trkpt>
      <trkpt lat="42.624897" lon="0.466542">
        <ele>2070.000000</ele>
        <time>2021-09-05T11:08:19Z</time>
      </trkpt>
      <trkpt lat="42.624895" lon="0.466548">
        <ele>2070.000000</ele>
        <time>2021-09-05T11:08:20Z</time>
      </trkpt>
      <trkpt lat="42.624890" lon="0.466553">
        <ele>2070.000000</ele>
        <time>2021-09-05T11:08:21Z</time>
      </trkpt>
      <trkpt lat="42.624885" lon="0.466558">
        <ele>2070.000000</ele>
        <time>2021-09-05T11:08:22Z</time>
      </trkpt>
      <trkpt lat="42.624880" lon="0.466563">
        <ele>2070.000000</ele>
        <time>2021-09-05T11:08:23Z</time>
      </trkpt>
      <trkpt lat="42.624872" lon="0.466567">
        <ele>2070.000000</ele>
        <time>2021-09-05T11:08:24Z</time>
      </trkpt>
      <trkpt lat="42.624865" lon="0.466570">
        <ele>2070.000000</ele>
        <time>2021-09-05T11:08:25Z</time>
      </trkpt>
      <trkpt lat="42.624853" lon="0.466573">
        <ele>2068.000000</ele>
        <time>2021-09-05T11:08:26Z</time>
      </trkpt>
      <trkpt lat="42.624843" lon="0.466575">
        <ele>2068.000000</ele>
        <time>2021-09-05T11:08:27Z</time>
      </trkpt>
      <trkpt lat="42.624832" lon="0.466579">
        <ele>2068.000000</ele>
        <time>2021-09-05T11:08:29Z</time>
      </trkpt>
      <trkpt lat="42.624825" lon="0.466579">
        <ele>2067.000000</ele>
        <time>2021-09-05T11:08:29Z</time>
      </trkpt>
      <trkpt lat="42.624818" lon="0.466579">
        <ele>2067.000000</ele>
        <time>2021-09-05T11:08:30Z</time>
      </trkpt>
      <trkpt lat="42.624817" lon="0.466570">
        <ele>2067.000000</ele>
        <time>2021-09-05T11:08:31Z</time>
      </trkpt>
      <trkpt lat="42.624810" lon="0.466570">
        <ele>2066.000000</ele>
        <time>2021-09-05T11:08:32Z</time>
      </trkpt>
      <trkpt lat="42.624802" lon="0.466570">
        <ele>2066.000000</ele>
        <time>2021-09-05T11:08:33Z</time>
      </trkpt>
      <trkpt lat="42.624793" lon="0.466570">
        <ele>2066.000000</ele>
        <time>2021-09-05T11:08:34Z</time>
      </trkpt>
      <trkpt lat="42.624785" lon="0.466573">
        <ele>2066.000000</ele>
        <time>2021-09-05T11:08:35Z</time>
      </trkpt>
      <trkpt lat="42.624778" lon="0.466574">
        <ele>2065.000000</ele>
        <time>2021-09-05T11:08:36Z</time>
      </trkpt>
      <trkpt lat="42.624777" lon="0.466573">
        <ele>2065.000000</ele>
        <time>2021-09-05T11:08:37Z</time>
      </trkpt>
      <trkpt lat="42.624768" lon="0.466574">
        <ele>2065.000000</ele>
        <time>2021-09-05T11:08:39Z</time>
      </trkpt>
      <trkpt lat="42.624762" lon="0.466575">
        <ele>2064.000000</ele>
        <time>2021-09-05T11:08:40Z</time>
      </trkpt>
      <trkpt lat="42.624757" lon="0.466578">
        <ele>2064.000000</ele>
        <time>2021-09-05T11:08:42Z</time>
      </trkpt>
      <trkpt lat="42.624752" lon="0.466583">
        <ele>2064.000000</ele>
        <time>2021-09-05T11:08:43Z</time>
      </trkpt>
      <trkpt lat="42.624745" lon="0.466587">
        <ele>2064.000000</ele>
        <time>2021-09-05T11:08:44Z</time>
      </trkpt>
      <trkpt lat="42.624737" lon="0.466592">
        <ele>2064.000000</ele>
        <time>2021-09-05T11:08:45Z</time>
      </trkpt>
      <trkpt lat="42.624727" lon="0.466598">
        <ele>2064.000000</ele>
        <time>2021-09-05T11:08:46Z</time>
      </trkpt>
      <trkpt lat="42.624718" lon="0.466604">
        <ele>2064.000000</ele>
        <time>2021-09-05T11:08:47Z</time>
      </trkpt>
      <trkpt lat="42.624710" lon="0.466609">
        <ele>2064.000000</ele>
        <time>2021-09-05T11:08:49Z</time>
      </trkpt>
      <trkpt lat="42.624705" lon="0.466611">
        <ele>2064.000000</ele>
        <time>2021-09-05T11:08:49Z</time>
      </trkpt>
      <trkpt lat="42.624700" lon="0.466613">
        <ele>2064.000000</ele>
        <time>2021-09-05T11:08:50Z</time>
      </trkpt>
      <trkpt lat="42.624693" lon="0.466616">
        <ele>2064.000000</ele>
        <time>2021-09-05T11:08:51Z</time>
      </trkpt>
      <trkpt lat="42.624687" lon="0.466617">
        <ele>2064.000000</ele>
        <time>2021-09-05T11:08:52Z</time>
      </trkpt>
      <trkpt lat="42.624678" lon="0.466610">
        <ele>2064.000000</ele>
        <time>2021-09-05T11:08:53Z</time>
      </trkpt>
      <trkpt lat="42.624665" lon="0.466603">
        <ele>2064.000000</ele>
        <time>2021-09-05T11:08:54Z</time>
      </trkpt>
      <trkpt lat="42.624662" lon="0.466600">
        <ele>2064.000000</ele>
        <time>2021-09-05T11:08:55Z</time>
      </trkpt>
      <trkpt lat="42.624658" lon="0.466603">
        <ele>2064.000000</ele>
        <time>2021-09-05T11:08:56Z</time>
      </trkpt>
      <trkpt lat="42.624652" lon="0.466608">
        <ele>2064.000000</ele>
        <time>2021-09-05T11:08:57Z</time>
      </trkpt>
      <trkpt lat="42.624643" lon="0.466615">
        <ele>2064.000000</ele>
        <time>2021-09-05T11:08:58Z</time>
      </trkpt>
      <trkpt lat="42.624640" lon="0.466622">
        <ele>2064.000000</ele>
        <time>2021-09-05T11:08:59Z</time>
      </trkpt>
      <trkpt lat="42.624633" lon="0.466630">
        <ele>2065.000000</ele>
        <time>2021-09-05T11:09:00Z</time>
      </trkpt>
      <trkpt lat="42.624632" lon="0.466637">
        <ele>2065.000000</ele>
        <time>2021-09-05T11:09:01Z</time>
      </trkpt>
      <trkpt lat="42.624630" lon="0.466634">
        <ele>2065.000000</ele>
        <time>2021-09-05T11:09:02Z</time>
      </trkpt>
      <trkpt lat="42.624627" lon="0.466633">
        <ele>2065.000000</ele>
        <time>2021-09-05T11:09:03Z</time>
      </trkpt>
      <trkpt lat="42.624625" lon="0.466630">
        <ele>2066.000000</ele>
        <time>2021-09-05T11:09:04Z</time>
      </trkpt>
      <trkpt lat="42.624618" lon="0.466632">
        <ele>2066.000000</ele>
        <time>2021-09-05T11:09:05Z</time>
      </trkpt>
      <trkpt lat="42.624613" lon="0.466630">
        <ele>2066.000000</ele>
        <time>2021-09-05T11:09:06Z</time>
      </trkpt>
      <trkpt lat="42.624602" lon="0.466626">
        <ele>2066.000000</ele>
        <time>2021-09-05T11:09:07Z</time>
      </trkpt>
      <trkpt lat="42.624597" lon="0.466621">
        <ele>2066.000000</ele>
        <time>2021-09-05T11:09:08Z</time>
      </trkpt>
      <trkpt lat="42.624593" lon="0.466620">
        <ele>2066.000000</ele>
        <time>2021-09-05T11:09:09Z</time>
      </trkpt>
      <trkpt lat="42.624592" lon="0.466618">
        <ele>2066.000000</ele>
        <time>2021-09-05T11:09:10Z</time>
      </trkpt>
      <trkpt lat="42.624587" lon="0.466615">
        <ele>2066.000000</ele>
        <time>2021-09-05T11:09:12Z</time>
      </trkpt>
      <trkpt lat="42.624585" lon="0.466614">
        <ele>2066.000000</ele>
        <time>2021-09-05T11:09:12Z</time>
      </trkpt>
      <trkpt lat="42.624585" lon="0.466611">
        <ele>2066.000000</ele>
        <time>2021-09-05T11:09:13Z</time>
      </trkpt>
      <trkpt lat="42.624588" lon="0.466611">
        <ele>2066.000000</ele>
        <time>2021-09-05T11:09:14Z</time>
      </trkpt>
      <trkpt lat="42.624593" lon="0.466595">
        <ele>2066.000000</ele>
        <time>2021-09-05T11:09:15Z</time>
      </trkpt>
      <trkpt lat="42.624593" lon="0.466590">
        <ele>2066.000000</ele>
        <time>2021-09-05T11:09:16Z</time>
      </trkpt>
      <trkpt lat="42.624595" lon="0.466592">
        <ele>2066.000000</ele>
        <time>2021-09-05T11:09:17Z</time>
      </trkpt>
      <trkpt lat="42.624601" lon="0.466597">
        <ele>2067.000000</ele>
        <time>2021-09-05T11:09:18Z</time>
      </trkpt>
      <trkpt lat="42.624600" lon="0.466595">
        <ele>2067.000000</ele>
        <time>2021-09-05T11:09:19Z</time>
      </trkpt>
      <trkpt lat="42.624598" lon="0.466595">
        <ele>2068.000000</ele>
        <time>2021-09-05T11:09:20Z</time>
      </trkpt>
      <trkpt lat="42.624590" lon="0.466593">
        <ele>2068.000000</ele>
        <time>2021-09-05T11:09:21Z</time>
      </trkpt>
      <trkpt lat="42.624593" lon="0.466593">
        <ele>2068.000000</ele>
        <time>2021-09-05T11:09:22Z</time>
      </trkpt>
      <trkpt lat="42.624598" lon="0.466592">
        <ele>2068.000000</ele>
        <time>2021-09-05T11:09:24Z</time>
      </trkpt>
      <trkpt lat="42.624595" lon="0.466591">
        <ele>2068.000000</ele>
        <time>2021-09-05T11:09:25Z</time>
      </trkpt>
      <trkpt lat="42.624592" lon="0.466590">
        <ele>2068.000000</ele>
        <time>2021-09-05T11:09:26Z</time>
      </trkpt>
      <trkpt lat="42.624588" lon="0.466586">
        <ele>2068.000000</ele>
        <time>2021-09-05T11:09:27Z</time>
      </trkpt>
      <trkpt lat="42.624595" lon="0.466590">
        <ele>2068.000000</ele>
        <time>2021-09-05T11:09:28Z</time>
      </trkpt>
      <trkpt lat="42.624465" lon="0.466577">
        <ele>2068.000000</ele>
        <time>2021-09-05T11:10:27Z</time>
      </trkpt>
      <trkpt lat="42.624455" lon="0.466582">
        <ele>2068.000000</ele>
        <time>2021-09-05T11:10:28Z</time>
      </trkpt>
      <trkpt lat="42.624448" lon="0.466590">
        <ele>2068.000000</ele>
        <time>2021-09-05T11:10:29Z</time>
      </trkpt>
      <trkpt lat="42.624447" lon="0.466597">
        <ele>2068.000000</ele>
        <time>2021-09-05T11:10:30Z</time>
      </trkpt>
      <trkpt lat="42.624437" lon="0.466602">
        <ele>2068.000000</ele>
        <time>2021-09-05T11:10:31Z</time>
      </trkpt>
      <trkpt lat="42.624423" lon="0.466602">
        <ele>2068.000000</ele>
        <time>2021-09-05T11:10:32Z</time>
      </trkpt>
      <trkpt lat="42.624415" lon="0.466604">
        <ele>2068.000000</ele>
        <time>2021-09-05T11:10:33Z</time>
      </trkpt>
      <trkpt lat="42.624403" lon="0.466608">
        <ele>2068.000000</ele>
        <time>2021-09-05T11:10:34Z</time>
      </trkpt>
      <trkpt lat="42.624407" lon="0.466613">
        <ele>2068.000000</ele>
        <time>2021-09-05T11:10:35Z</time>
      </trkpt>
      <trkpt lat="42.624408" lon="0.466619">
        <ele>2068.000000</ele>
        <time>2021-09-05T11:10:36Z</time>
      </trkpt>
      <trkpt lat="42.624402" lon="0.466619">
        <ele>2068.000000</ele>
        <time>2021-09-05T11:10:37Z</time>
      </trkpt>
      <trkpt lat="42.624400" lon="0.466633">
        <ele>2068.000000</ele>
        <time>2021-09-05T11:10:38Z</time>
      </trkpt>
      <trkpt lat="42.624393" lon="0.466633">
        <ele>2068.000000</ele>
        <time>2021-09-05T11:10:40Z</time>
      </trkpt>
      <trkpt lat="42.624385" lon="0.466630">
        <ele>2068.000000</ele>
        <time>2021-09-05T11:10:41Z</time>
      </trkpt>
      <trkpt lat="42.624377" lon="0.466628">
        <ele>2068.000000</ele>
        <time>2021-09-05T11:10:42Z</time>
      </trkpt>
      <trkpt lat="42.624365" lon="0.466620">
        <ele>2068.000000</ele>
        <time>2021-09-05T11:10:43Z</time>
      </trkpt>
      <trkpt lat="42.624358" lon="0.466619">
        <ele>2068.000000</ele>
        <time>2021-09-05T11:10:44Z</time>
      </trkpt>
      <trkpt lat="42.624353" lon="0.466619">
        <ele>2068.000000</ele>
        <time>2021-09-05T11:10:45Z</time>
      </trkpt>
      <trkpt lat="42.624343" lon="0.466616">
        <ele>2068.000000</ele>
        <time>2021-09-05T11:10:46Z</time>
      </trkpt>
      <trkpt lat="42.624335" lon="0.466617">
        <ele>2067.000000</ele>
        <time>2021-09-05T11:10:47Z</time>
      </trkpt>
      <trkpt lat="42.624323" lon="0.466620">
        <ele>2067.000000</ele>
        <time>2021-09-05T11:10:48Z</time>
      </trkpt>
      <trkpt lat="42.624317" lon="0.466624">
        <ele>2067.000000</ele>
        <time>2021-09-05T11:10:49Z</time>
      </trkpt>
      <trkpt lat="42.624310" lon="0.466637">
        <ele>2067.000000</ele>
        <time>2021-09-05T11:10:50Z</time>
      </trkpt>
      <trkpt lat="42.624300" lon="0.466645">
        <ele>2067.000000</ele>
        <time>2021-09-05T11:10:51Z</time>
      </trkpt>
      <trkpt lat="42.624285" lon="0.466652">
        <ele>2067.000000</ele>
        <time>2021-09-05T11:10:52Z</time>
      </trkpt>
      <trkpt lat="42.624277" lon="0.466655">
        <ele>2067.000000</ele>
        <time>2021-09-05T11:10:53Z</time>
      </trkpt>
      <trkpt lat="42.624270" lon="0.466658">
        <ele>2068.000000</ele>
        <time>2021-09-05T11:10:54Z</time>
      </trkpt>
      <trkpt lat="42.624265" lon="0.466656">
        <ele>2068.000000</ele>
        <time>2021-09-05T11:10:55Z</time>
      </trkpt>
      <trkpt lat="42.624263" lon="0.466658">
        <ele>2068.000000</ele>
        <time>2021-09-05T11:10:56Z</time>
      </trkpt>
      <trkpt lat="42.624265" lon="0.466660">
        <ele>2069.000000</ele>
        <time>2021-09-05T11:10:57Z</time>
      </trkpt>
      <trkpt lat="42.624263" lon="0.466663">
        <ele>2069.000000</ele>
        <time>2021-09-05T11:10:58Z</time>
      </trkpt>
      <trkpt lat="42.624263" lon="0.466666">
        <ele>2069.000000</ele>
        <time>2021-09-05T11:10:59Z</time>
      </trkpt>
      <trkpt lat="42.624262" lon="0.466667">
        <ele>2069.000000</ele>
        <time>2021-09-05T11:11:00Z</time>
      </trkpt>
      <trkpt lat="42.624260" lon="0.466668">
        <ele>2069.000000</ele>
        <time>2021-09-05T11:11:01Z</time>
      </trkpt>
      <trkpt lat="42.624252" lon="0.466671">
        <ele>2069.000000</ele>
        <time>2021-09-05T11:11:02Z</time>
      </trkpt>
      <trkpt lat="42.624250" lon="0.466671">
        <ele>2069.000000</ele>
        <time>2021-09-05T11:11:04Z</time>
      </trkpt>
      <trkpt lat="42.624252" lon="0.466672">
        <ele>2069.000000</ele>
        <time>2021-09-05T11:11:04Z</time>
      </trkpt>
      <trkpt lat="42.624247" lon="0.466679">
        <ele>2069.000000</ele>
        <time>2021-09-05T11:11:05Z</time>
      </trkpt>
      <trkpt lat="42.624237" lon="0.466690">
        <ele>2069.000000</ele>
        <time>2021-09-05T11:11:06Z</time>
      </trkpt>
      <trkpt lat="42.624223" lon="0.466701">
        <ele>2069.000000</ele>
        <time>2021-09-05T11:11:07Z</time>
      </trkpt>
      <trkpt lat="42.624215" lon="0.466705">
        <ele>2069.000000</ele>
        <time>2021-09-05T11:11:08Z</time>
      </trkpt>
      <trkpt lat="42.624205" lon="0.466712">
        <ele>2069.000000</ele>
        <time>2021-09-05T11:11:09Z</time>
      </trkpt>
      <trkpt lat="42.624200" lon="0.466713">
        <ele>2069.000000</ele>
        <time>2021-09-05T11:11:10Z</time>
      </trkpt>
      <trkpt lat="42.624193" lon="0.466714">
        <ele>2069.000000</ele>
        <time>2021-09-05T11:11:11Z</time>
      </trkpt>
      <trkpt lat="42.624190" lon="0.466705">
        <ele>2069.000000</ele>
        <time>2021-09-05T11:11:12Z</time>
      </trkpt>
      <trkpt lat="42.624185" lon="0.466700">
        <ele>2069.000000</ele>
        <time>2021-09-05T11:11:12Z</time>
      </trkpt>
      <trkpt lat="42.624188" lon="0.466703">
        <ele>2069.000000</ele>
        <time>2021-09-05T11:11:15Z</time>
      </trkpt>
      <trkpt lat="42.624187" lon="0.466703">
        <ele>2069.000000</ele>
        <time>2021-09-05T11:11:16Z</time>
      </trkpt>
      <trkpt lat="42.624183" lon="0.466700">
        <ele>2069.000000</ele>
        <time>2021-09-05T11:11:17Z</time>
      </trkpt>
      <trkpt lat="42.624178" lon="0.466698">
        <ele>2069.000000</ele>
        <time>2021-09-05T11:11:18Z</time>
      </trkpt>
      <trkpt lat="42.624178" lon="0.466703">
        <ele>2069.000000</ele>
        <time>2021-09-05T11:11:19Z</time>
      </trkpt>
      <trkpt lat="42.624177" lon="0.466707">
        <ele>2069.000000</ele>
        <time>2021-09-05T11:11:20Z</time>
      </trkpt>
      <trkpt lat="42.624160" lon="0.466723">
        <ele>2069.000000</ele>
        <time>2021-09-05T11:11:21Z</time>
      </trkpt>
      <trkpt lat="42.624147" lon="0.466728">
        <ele>2069.000000</ele>
        <time>2021-09-05T11:11:22Z</time>
      </trkpt>
      <trkpt lat="42.624137" lon="0.466733">
        <ele>2069.000000</ele>
        <time>2021-09-05T11:11:23Z</time>
      </trkpt>
      <trkpt lat="42.624125" lon="0.466733">
        <ele>2069.000000</ele>
        <time>2021-09-05T11:11:24Z</time>
      </trkpt>
      <trkpt lat="42.624115" lon="0.466735">
        <ele>2069.000000</ele>
        <time>2021-09-05T11:11:26Z</time>
      </trkpt>
      <trkpt lat="42.624105" lon="0.466742">
        <ele>2069.000000</ele>
        <time>2021-09-05T11:11:26Z</time>
      </trkpt>
      <trkpt lat="42.624098" lon="0.466757">
        <ele>2069.000000</ele>
        <time>2021-09-05T11:11:27Z</time>
      </trkpt>
      <trkpt lat="42.624090" lon="0.466765">
        <ele>2069.000000</ele>
        <time>2021-09-05T11:11:28Z</time>
      </trkpt>
      <trkpt lat="42.624082" lon="0.466768">
        <ele>2069.000000</ele>
        <time>2021-09-05T11:11:29Z</time>
      </trkpt>
      <trkpt lat="42.624065" lon="0.466774">
        <ele>2069.000000</ele>
        <time>2021-09-05T11:11:30Z</time>
      </trkpt>
      <trkpt lat="42.624048" lon="0.466781">
        <ele>2069.000000</ele>
        <time>2021-09-05T11:11:31Z</time>
      </trkpt>
      <trkpt lat="42.624028" lon="0.466785">
        <ele>2069.000000</ele>
        <time>2021-09-05T11:11:32Z</time>
      </trkpt>
      <trkpt lat="42.624023" lon="0.466786">
        <ele>2069.000000</ele>
        <time>2021-09-05T11:11:33Z</time>
      </trkpt>
      <trkpt lat="42.624015" lon="0.466790">
        <ele>2069.000000</ele>
        <time>2021-09-05T11:11:35Z</time>
      </trkpt>
      <trkpt lat="42.624012" lon="0.466792">
        <ele>2069.000000</ele>
        <time>2021-09-05T11:11:36Z</time>
      </trkpt>
      <trkpt lat="42.624002" lon="0.466794">
        <ele>2069.000000</ele>
        <time>2021-09-05T11:11:37Z</time>
      </trkpt>
      <trkpt lat="42.623993" lon="0.466795">
        <ele>2069.000000</ele>
        <time>2021-09-05T11:11:38Z</time>
      </trkpt>
      <trkpt lat="42.623985" lon="0.466799">
        <ele>2069.000000</ele>
        <time>2021-09-05T11:11:39Z</time>
      </trkpt>
      <trkpt lat="42.623973" lon="0.466803">
        <ele>2069.000000</ele>
        <time>2021-09-05T11:11:40Z</time>
      </trkpt>
      <trkpt lat="42.623965" lon="0.466806">
        <ele>2069.000000</ele>
        <time>2021-09-05T11:11:41Z</time>
      </trkpt>
      <trkpt lat="42.623958" lon="0.466810">
        <ele>2069.000000</ele>
        <time>2021-09-05T11:11:42Z</time>
      </trkpt>
      <trkpt lat="42.623953" lon="0.466815">
        <ele>2069.000000</ele>
        <time>2021-09-05T11:11:43Z</time>
      </trkpt>
      <trkpt lat="42.623945" lon="0.466821">
        <ele>2069.000000</ele>
        <time>2021-09-05T11:11:44Z</time>
      </trkpt>
      <trkpt lat="42.623933" lon="0.466828">
        <ele>2069.000000</ele>
        <time>2021-09-05T11:11:46Z</time>
      </trkpt>
      <trkpt lat="42.623925" lon="0.466835">
        <ele>2069.000000</ele>
        <time>2021-09-05T11:11:46Z</time>
      </trkpt>
      <trkpt lat="42.623915" lon="0.466843">
        <ele>2069.000000</ele>
        <time>2021-09-05T11:11:47Z</time>
      </trkpt>
      <trkpt lat="42.623912" lon="0.466848">
        <ele>2069.000000</ele>
        <time>2021-09-05T11:11:48Z</time>
      </trkpt>
      <trkpt lat="42.623905" lon="0.466856">
        <ele>2069.000000</ele>
        <time>2021-09-05T11:11:49Z</time>
      </trkpt>
      <trkpt lat="42.623905" lon="0.466859">
        <ele>2069.000000</ele>
        <time>2021-09-05T11:11:50Z</time>
      </trkpt>
      <trkpt lat="42.623898" lon="0.466867">
        <ele>2069.000000</ele>
        <time>2021-09-05T11:11:51Z</time>
      </trkpt>
      <trkpt lat="42.623885" lon="0.466878">
        <ele>2069.000000</ele>
        <time>2021-09-05T11:11:52Z</time>
      </trkpt>
      <trkpt lat="42.623875" lon="0.466886">
        <ele>2069.000000</ele>
        <time>2021-09-05T11:11:53Z</time>
      </trkpt>
      <trkpt lat="42.623865" lon="0.466892">
        <ele>2069.000000</ele>
        <time>2021-09-05T11:11:54Z</time>
      </trkpt>
      <trkpt lat="42.623852" lon="0.466888">
        <ele>2069.000000</ele>
        <time>2021-09-05T11:11:55Z</time>
      </trkpt>
      <trkpt lat="42.623835" lon="0.466890">
        <ele>2068.000000</ele>
        <time>2021-09-05T11:11:56Z</time>
      </trkpt>
      <trkpt lat="42.623827" lon="0.466893">
        <ele>2068.000000</ele>
        <time>2021-09-05T11:11:57Z</time>
      </trkpt>
      <trkpt lat="42.623813" lon="0.466903">
        <ele>2068.000000</ele>
        <time>2021-09-05T11:11:58Z</time>
      </trkpt>
      <trkpt lat="42.623803" lon="0.466908">
        <ele>2068.000000</ele>
        <time>2021-09-05T11:11:59Z</time>
      </trkpt>
      <trkpt lat="42.623790" lon="0.466910">
        <ele>2068.000000</ele>
        <time>2021-09-05T11:12:00Z</time>
      </trkpt>
      <trkpt lat="42.623782" lon="0.466914">
        <ele>2068.000000</ele>
        <time>2021-09-05T11:12:01Z</time>
      </trkpt>
      <trkpt lat="42.623780" lon="0.466918">
        <ele>2068.000000</ele>
        <time>2021-09-05T11:12:02Z</time>
      </trkpt>
      <trkpt lat="42.623783" lon="0.466920">
        <ele>2068.000000</ele>
        <time>2021-09-05T11:12:03Z</time>
      </trkpt>
      <trkpt lat="42.623782" lon="0.466948">
        <ele>2068.000000</ele>
        <time>2021-09-05T11:12:04Z</time>
      </trkpt>
      <trkpt lat="42.623783" lon="0.466955">
        <ele>2068.000000</ele>
        <time>2021-09-05T11:12:05Z</time>
      </trkpt>
      <trkpt lat="42.623782" lon="0.466965">
        <ele>2068.000000</ele>
        <time>2021-09-05T11:12:06Z</time>
      </trkpt>
      <trkpt lat="42.623777" lon="0.466980">
        <ele>2068.000000</ele>
        <time>2021-09-05T11:12:07Z</time>
      </trkpt>
      <trkpt lat="42.623775" lon="0.466993">
        <ele>2068.000000</ele>
        <time>2021-09-05T11:12:08Z</time>
      </trkpt>
      <trkpt lat="42.623775" lon="0.467003">
        <ele>2068.000000</ele>
        <time>2021-09-05T11:12:10Z</time>
      </trkpt>
      <trkpt lat="42.623770" lon="0.467013">
        <ele>2068.000000</ele>
        <time>2021-09-05T11:12:10Z</time>
      </trkpt>
      <trkpt lat="42.623765" lon="0.467017">
        <ele>2068.000000</ele>
        <time>2021-09-05T11:12:11Z</time>
      </trkpt>
      <trkpt lat="42.623758" lon="0.467025">
        <ele>2068.000000</ele>
        <time>2021-09-05T11:12:12Z</time>
      </trkpt>
      <trkpt lat="42.623747" lon="0.467038">
        <ele>2068.000000</ele>
        <time>2021-09-05T11:12:13Z</time>
      </trkpt>
      <trkpt lat="42.623742" lon="0.467048">
        <ele>2068.000000</ele>
        <time>2021-09-05T11:12:14Z</time>
      </trkpt>
      <trkpt lat="42.623739" lon="0.467058">
        <ele>2068.000000</ele>
        <time>2021-09-05T11:12:15Z</time>
      </trkpt>
      <trkpt lat="42.623741" lon="0.467063">
        <ele>2068.000000</ele>
        <time>2021-09-05T11:12:16Z</time>
      </trkpt>
      <trkpt lat="42.623745" lon="0.467070">
        <ele>2068.000000</ele>
        <time>2021-09-05T11:12:17Z</time>
      </trkpt>
      <trkpt lat="42.623745" lon="0.467082">
        <ele>2068.000000</ele>
        <time>2021-09-05T11:12:18Z</time>
      </trkpt>
      <trkpt lat="42.623745" lon="0.467093">
        <ele>2068.000000</ele>
        <time>2021-09-05T11:12:19Z</time>
      </trkpt>
      <trkpt lat="42.623741" lon="0.467102">
        <ele>2068.000000</ele>
        <time>2021-09-05T11:12:20Z</time>
      </trkpt>
      <trkpt lat="42.623734" lon="0.467112">
        <ele>2068.000000</ele>
        <time>2021-09-05T11:12:21Z</time>
      </trkpt>
      <trkpt lat="42.623729" lon="0.467123">
        <ele>2068.000000</ele>
        <time>2021-09-05T11:12:22Z</time>
      </trkpt>
      <trkpt lat="42.623724" lon="0.467133">
        <ele>2068.000000</ele>
        <time>2021-09-05T11:12:23Z</time>
      </trkpt>
      <trkpt lat="42.623722" lon="0.467135">
        <ele>2068.000000</ele>
        <time>2021-09-05T11:12:24Z</time>
      </trkpt>
      <trkpt lat="42.623721" lon="0.467138">
        <ele>2068.000000</ele>
        <time>2021-09-05T11:12:25Z</time>
      </trkpt>
      <trkpt lat="42.623720" lon="0.467148">
        <ele>2068.000000</ele>
        <time>2021-09-05T11:12:26Z</time>
      </trkpt>
      <trkpt lat="42.623722" lon="0.467155">
        <ele>2068.000000</ele>
        <time>2021-09-05T11:12:27Z</time>
      </trkpt>
      <trkpt lat="42.623738" lon="0.467158">
        <ele>2068.000000</ele>
        <time>2021-09-05T11:12:28Z</time>
      </trkpt>
      <trkpt lat="42.623745" lon="0.467162">
        <ele>2068.000000</ele>
        <time>2021-09-05T11:12:29Z</time>
      </trkpt>
      <trkpt lat="42.623747" lon="0.467165">
        <ele>2068.000000</ele>
        <time>2021-09-05T11:12:30Z</time>
      </trkpt>
      <trkpt lat="42.623750" lon="0.467168">
        <ele>2068.000000</ele>
        <time>2021-09-05T11:12:31Z</time>
      </trkpt>
      <trkpt lat="42.623745" lon="0.467168">
        <ele>2068.000000</ele>
        <time>2021-09-05T11:12:33Z</time>
      </trkpt>
      <trkpt lat="42.623738" lon="0.467173">
        <ele>2068.000000</ele>
        <time>2021-09-05T11:12:33Z</time>
      </trkpt>
      <trkpt lat="42.623737" lon="0.467180">
        <ele>2068.000000</ele>
        <time>2021-09-05T11:12:34Z</time>
      </trkpt>
      <trkpt lat="42.623730" lon="0.467188">
        <ele>2068.000000</ele>
        <time>2021-09-05T11:12:35Z</time>
      </trkpt>
      <trkpt lat="42.623718" lon="0.467194">
        <ele>2068.000000</ele>
        <time>2021-09-05T11:12:36Z</time>
      </trkpt>
      <trkpt lat="42.623707" lon="0.467199">
        <ele>2068.000000</ele>
        <time>2021-09-05T11:12:37Z</time>
      </trkpt>
      <trkpt lat="42.623695" lon="0.467204">
        <ele>2068.000000</ele>
        <time>2021-09-05T11:12:38Z</time>
      </trkpt>
      <trkpt lat="42.623683" lon="0.467210">
        <ele>2068.000000</ele>
        <time>2021-09-05T11:12:39Z</time>
      </trkpt>
      <trkpt lat="42.623680" lon="0.467213">
        <ele>2068.000000</ele>
        <time>2021-09-05T11:12:40Z</time>
      </trkpt>
      <trkpt lat="42.623672" lon="0.467220">
        <ele>2068.000000</ele>
        <time>2021-09-05T11:12:41Z</time>
      </trkpt>
      <trkpt lat="42.623660" lon="0.467226">
        <ele>2068.000000</ele>
        <time>2021-09-05T11:12:42Z</time>
      </trkpt>
      <trkpt lat="42.623648" lon="0.467232">
        <ele>2068.000000</ele>
        <time>2021-09-05T11:12:43Z</time>
      </trkpt>
      <trkpt lat="42.623630" lon="0.467235">
        <ele>2068.000000</ele>
        <time>2021-09-05T11:12:44Z</time>
      </trkpt>
      <trkpt lat="42.623615" lon="0.467235">
        <ele>2068.000000</ele>
        <time>2021-09-05T11:12:45Z</time>
      </trkpt>
      <trkpt lat="42.623607" lon="0.467218">
        <ele>2068.000000</ele>
        <time>2021-09-05T11:12:46Z</time>
      </trkpt>
      <trkpt lat="42.623602" lon="0.467225">
        <ele>2068.000000</ele>
        <time>2021-09-05T11:12:47Z</time>
      </trkpt>
      <trkpt lat="42.623607" lon="0.467220">
        <ele>2068.000000</ele>
        <time>2021-09-05T11:12:48Z</time>
      </trkpt>
      <trkpt lat="42.623613" lon="0.467220">
        <ele>2068.000000</ele>
        <time>2021-09-05T11:12:49Z</time>
      </trkpt>
      <trkpt lat="42.623617" lon="0.467226">
        <ele>2068.000000</ele>
        <time>2021-09-05T11:12:50Z</time>
      </trkpt>
      <trkpt lat="42.623618" lon="0.467233">
        <ele>2068.000000</ele>
        <time>2021-09-05T11:12:51Z</time>
      </trkpt>
      <trkpt lat="42.623618" lon="0.467248">
        <ele>2068.000000</ele>
        <time>2021-09-05T11:12:53Z</time>
      </trkpt>
      <trkpt lat="42.623618" lon="0.467255">
        <ele>2068.000000</ele>
        <time>2021-09-05T11:12:53Z</time>
      </trkpt>
      <trkpt lat="42.623617" lon="0.467260">
        <ele>2068.000000</ele>
        <time>2021-09-05T11:12:54Z</time>
      </trkpt>
      <trkpt lat="42.623623" lon="0.467270">
        <ele>2068.000000</ele>
        <time>2021-09-05T11:12:55Z</time>
      </trkpt>
      <trkpt lat="42.623623" lon="0.467285">
        <ele>2068.000000</ele>
        <time>2021-09-05T11:12:56Z</time>
      </trkpt>
      <trkpt lat="42.623621" lon="0.467292">
        <ele>2068.000000</ele>
        <time>2021-09-05T11:12:57Z</time>
      </trkpt>
      <trkpt lat="42.623618" lon="0.467298">
        <ele>2068.000000</ele>
        <time>2021-09-05T11:12:58Z</time>
      </trkpt>
      <trkpt lat="42.623615" lon="0.467307">
        <ele>2068.000000</ele>
        <time>2021-09-05T11:12:59Z</time>
      </trkpt>
      <trkpt lat="42.623612" lon="0.467315">
        <ele>2068.000000</ele>
        <time>2021-09-05T11:13:00Z</time>
      </trkpt>
      <trkpt lat="42.623611" lon="0.467318">
        <ele>2068.000000</ele>
        <time>2021-09-05T11:13:01Z</time>
      </trkpt>
      <trkpt lat="42.623610" lon="0.467325">
        <ele>2068.000000</ele>
        <time>2021-09-05T11:13:02Z</time>
      </trkpt>
      <trkpt lat="42.623606" lon="0.467333">
        <ele>2068.000000</ele>
        <time>2021-09-05T11:13:03Z</time>
      </trkpt>
      <trkpt lat="42.623598" lon="0.467338">
        <ele>2068.000000</ele>
        <time>2021-09-05T11:13:04Z</time>
      </trkpt>
      <trkpt lat="42.623593" lon="0.467347">
        <ele>2068.000000</ele>
        <time>2021-09-05T11:13:05Z</time>
      </trkpt>
      <trkpt lat="42.623585" lon="0.467355">
        <ele>2068.000000</ele>
        <time>2021-09-05T11:13:06Z</time>
      </trkpt>
      <trkpt lat="42.623575" lon="0.467353">
        <ele>2068.000000</ele>
        <time>2021-09-05T11:13:07Z</time>
      </trkpt>
      <trkpt lat="42.623572" lon="0.467352">
        <ele>2068.000000</ele>
        <time>2021-09-05T11:13:08Z</time>
      </trkpt>
      <trkpt lat="42.623562" lon="0.467348">
        <ele>2068.000000</ele>
        <time>2021-09-05T11:13:09Z</time>
      </trkpt>
      <trkpt lat="42.623560" lon="0.467353">
        <ele>2068.000000</ele>
        <time>2021-09-05T11:13:10Z</time>
      </trkpt>
      <trkpt lat="42.623555" lon="0.467357">
        <ele>2068.000000</ele>
        <time>2021-09-05T11:13:11Z</time>
      </trkpt>
      <trkpt lat="42.623552" lon="0.467362">
        <ele>2068.000000</ele>
        <time>2021-09-05T11:13:12Z</time>
      </trkpt>
      <trkpt lat="42.623543" lon="0.467368">
        <ele>2068.000000</ele>
        <time>2021-09-05T11:13:13Z</time>
      </trkpt>
      <trkpt lat="42.623538" lon="0.467375">
        <ele>2068.000000</ele>
        <time>2021-09-05T11:13:14Z</time>
      </trkpt>
      <trkpt lat="42.623538" lon="0.467388">
        <ele>2068.000000</ele>
        <time>2021-09-05T11:13:15Z</time>
      </trkpt>
      <trkpt lat="42.623542" lon="0.467400">
        <ele>2068.000000</ele>
        <time>2021-09-05T11:13:17Z</time>
      </trkpt>
      <trkpt lat="42.623540" lon="0.467410">
        <ele>2068.000000</ele>
        <time>2021-09-05T11:13:17Z</time>
      </trkpt>
      <trkpt lat="42.623535" lon="0.467422">
        <ele>2068.000000</ele>
        <time>2021-09-05T11:13:18Z</time>
      </trkpt>
      <trkpt lat="42.623540" lon="0.467437">
        <ele>2068.000000</ele>
        <time>2021-09-05T11:13:19Z</time>
      </trkpt>
      <trkpt lat="42.623538" lon="0.467445">
        <ele>2068.000000</ele>
        <time>2021-09-05T11:13:20Z</time>
      </trkpt>
      <trkpt lat="42.623535" lon="0.467443">
        <ele>2068.000000</ele>
        <time>2021-09-05T11:13:21Z</time>
      </trkpt>
      <trkpt lat="42.623532" lon="0.467445">
        <ele>2068.000000</ele>
        <time>2021-09-05T11:13:22Z</time>
      </trkpt>
      <trkpt lat="42.623526" lon="0.467450">
        <ele>2068.000000</ele>
        <time>2021-09-05T11:13:23Z</time>
      </trkpt>
      <trkpt lat="42.623524" lon="0.467467">
        <ele>2068.000000</ele>
        <time>2021-09-05T11:13:24Z</time>
      </trkpt>
      <trkpt lat="42.623525" lon="0.467482">
        <ele>2068.000000</ele>
        <time>2021-09-05T11:13:25Z</time>
      </trkpt>
      <trkpt lat="42.623528" lon="0.467492">
        <ele>2068.000000</ele>
        <time>2021-09-05T11:13:26Z</time>
      </trkpt>
      <trkpt lat="42.623522" lon="0.467503">
        <ele>2068.000000</ele>
        <time>2021-09-05T11:13:27Z</time>
      </trkpt>
      <trkpt lat="42.623516" lon="0.467515">
        <ele>2068.000000</ele>
        <time>2021-09-05T11:13:28Z</time>
      </trkpt>
      <trkpt lat="42.623513" lon="0.467522">
        <ele>2068.000000</ele>
        <time>2021-09-05T11:13:29Z</time>
      </trkpt>
      <trkpt lat="42.623506" lon="0.467530">
        <ele>2068.000000</ele>
        <time>2021-09-05T11:13:30Z</time>
      </trkpt>
      <trkpt lat="42.623498" lon="0.467542">
        <ele>2068.000000</ele>
        <time>2021-09-05T11:13:31Z</time>
      </trkpt>
      <trkpt lat="42.623494" lon="0.467552">
        <ele>2067.000000</ele>
        <time>2021-09-05T11:13:32Z</time>
      </trkpt>
      <trkpt lat="42.623489" lon="0.467567">
        <ele>2067.000000</ele>
        <time>2021-09-05T11:13:33Z</time>
      </trkpt>
      <trkpt lat="42.623485" lon="0.467580">
        <ele>2067.000000</ele>
        <time>2021-09-05T11:13:34Z</time>
      </trkpt>
      <trkpt lat="42.623483" lon="0.467587">
        <ele>2067.000000</ele>
        <time>2021-09-05T11:13:36Z</time>
      </trkpt>
      <trkpt lat="42.623483" lon="0.467592">
        <ele>2067.000000</ele>
        <time>2021-09-05T11:13:36Z</time>
      </trkpt>
      <trkpt lat="42.623480" lon="0.467598">
        <ele>2067.000000</ele>
        <time>2021-09-05T11:13:37Z</time>
      </trkpt>
      <trkpt lat="42.623475" lon="0.467608">
        <ele>2067.000000</ele>
        <time>2021-09-05T11:13:38Z</time>
      </trkpt>
      <trkpt lat="42.623463" lon="0.467615">
        <ele>2067.000000</ele>
        <time>2021-09-05T11:13:39Z</time>
      </trkpt>
      <trkpt lat="42.623458" lon="0.467620">
        <ele>2067.000000</ele>
        <time>2021-09-05T11:13:40Z</time>
      </trkpt>
      <trkpt lat="42.623456" lon="0.467623">
        <ele>2067.000000</ele>
        <time>2021-09-05T11:13:41Z</time>
      </trkpt>
      <trkpt lat="42.623454" lon="0.467630">
        <ele>2067.000000</ele>
        <time>2021-09-05T11:13:42Z</time>
      </trkpt>
      <trkpt lat="42.623455" lon="0.467640">
        <ele>2067.000000</ele>
        <time>2021-09-05T11:13:43Z</time>
      </trkpt>
      <trkpt lat="42.623453" lon="0.467652">
        <ele>2067.000000</ele>
        <time>2021-09-05T11:13:44Z</time>
      </trkpt>
      <trkpt lat="42.623447" lon="0.467658">
        <ele>2067.000000</ele>
        <time>2021-09-05T11:13:45Z</time>
      </trkpt>
      <trkpt lat="42.623439" lon="0.467663">
        <ele>2067.000000</ele>
        <time>2021-09-05T11:13:46Z</time>
      </trkpt>
      <trkpt lat="42.623431" lon="0.467673">
        <ele>2067.000000</ele>
        <time>2021-09-05T11:13:47Z</time>
      </trkpt>
      <trkpt lat="42.623424" lon="0.467680">
        <ele>2067.000000</ele>
        <time>2021-09-05T11:13:48Z</time>
      </trkpt>
      <trkpt lat="42.623418" lon="0.467685">
        <ele>2067.000000</ele>
        <time>2021-09-05T11:13:49Z</time>
      </trkpt>
      <trkpt lat="42.623415" lon="0.467693">
        <ele>2067.000000</ele>
        <time>2021-09-05T11:13:50Z</time>
      </trkpt>
      <trkpt lat="42.623410" lon="0.467703">
        <ele>2067.000000</ele>
        <time>2021-09-05T11:13:51Z</time>
      </trkpt>
      <trkpt lat="42.623407" lon="0.467708">
        <ele>2067.000000</ele>
        <time>2021-09-05T11:13:52Z</time>
      </trkpt>
      <trkpt lat="42.623401" lon="0.467715">
        <ele>2067.000000</ele>
        <time>2021-09-05T11:13:53Z</time>
      </trkpt>
      <trkpt lat="42.623398" lon="0.467720">
        <ele>2067.000000</ele>
        <time>2021-09-05T11:13:54Z</time>
      </trkpt>
      <trkpt lat="42.623393" lon="0.467730">
        <ele>2067.000000</ele>
        <time>2021-09-05T11:13:55Z</time>
      </trkpt>
      <trkpt lat="42.623390" lon="0.467740">
        <ele>2067.000000</ele>
        <time>2021-09-05T11:13:56Z</time>
      </trkpt>
      <trkpt lat="42.623389" lon="0.467748">
        <ele>2067.000000</ele>
        <time>2021-09-05T11:13:57Z</time>
      </trkpt>
      <trkpt lat="42.623387" lon="0.467760">
        <ele>2067.000000</ele>
        <time>2021-09-05T11:13:58Z</time>
      </trkpt>
      <trkpt lat="42.623387" lon="0.467775">
        <ele>2067.000000</ele>
        <time>2021-09-05T11:14:00Z</time>
      </trkpt>
      <trkpt lat="42.623386" lon="0.467790">
        <ele>2067.000000</ele>
        <time>2021-09-05T11:14:00Z</time>
      </trkpt>
      <trkpt lat="42.623388" lon="0.467800">
        <ele>2067.000000</ele>
        <time>2021-09-05T11:14:01Z</time>
      </trkpt>
      <trkpt lat="42.623388" lon="0.467812">
        <ele>2067.000000</ele>
        <time>2021-09-05T11:14:02Z</time>
      </trkpt>
      <trkpt lat="42.623387" lon="0.467815">
        <ele>2067.000000</ele>
        <time>2021-09-05T11:14:03Z</time>
      </trkpt>
      <trkpt lat="42.623386" lon="0.467823">
        <ele>2067.000000</ele>
        <time>2021-09-05T11:14:04Z</time>
      </trkpt>
      <trkpt lat="42.623385" lon="0.467833">
        <ele>2067.000000</ele>
        <time>2021-09-05T11:14:05Z</time>
      </trkpt>
      <trkpt lat="42.623386" lon="0.467842">
        <ele>2067.000000</ele>
        <time>2021-09-05T11:14:06Z</time>
      </trkpt>
      <trkpt lat="42.623386" lon="0.467848">
        <ele>2067.000000</ele>
        <time>2021-09-05T11:14:07Z</time>
      </trkpt>
      <trkpt lat="42.623384" lon="0.467858">
        <ele>2067.000000</ele>
        <time>2021-09-05T11:14:08Z</time>
      </trkpt>
      <trkpt lat="42.623382" lon="0.467872">
        <ele>2067.000000</ele>
        <time>2021-09-05T11:14:09Z</time>
      </trkpt>
      <trkpt lat="42.623379" lon="0.467892">
        <ele>2067.000000</ele>
        <time>2021-09-05T11:14:10Z</time>
      </trkpt>
      <trkpt lat="42.623378" lon="0.467902">
        <ele>2067.000000</ele>
        <time>2021-09-05T11:14:11Z</time>
      </trkpt>
      <trkpt lat="42.623377" lon="0.467917">
        <ele>2067.000000</ele>
        <time>2021-09-05T11:14:12Z</time>
      </trkpt>
      <trkpt lat="42.623379" lon="0.467932">
        <ele>2067.000000</ele>
        <time>2021-09-05T11:14:13Z</time>
      </trkpt>
      <trkpt lat="42.623380" lon="0.467937">
        <ele>2067.000000</ele>
        <time>2021-09-05T11:14:14Z</time>
      </trkpt>
      <trkpt lat="42.623381" lon="0.467940">
        <ele>2067.000000</ele>
        <time>2021-09-05T11:14:16Z</time>
      </trkpt>
      <trkpt lat="42.623381" lon="0.467945">
        <ele>2067.000000</ele>
        <time>2021-09-05T11:14:17Z</time>
      </trkpt>
      <trkpt lat="42.623381" lon="0.467948">
        <ele>2067.000000</ele>
        <time>2021-09-05T11:14:18Z</time>
      </trkpt>
      <trkpt lat="42.623381" lon="0.467953">
        <ele>2067.000000</ele>
        <time>2021-09-05T11:14:19Z</time>
      </trkpt>
      <trkpt lat="42.623381" lon="0.467957">
        <ele>2067.000000</ele>
        <time>2021-09-05T11:14:20Z</time>
      </trkpt>
      <trkpt lat="42.623381" lon="0.467965">
        <ele>2067.000000</ele>
        <time>2021-09-05T11:14:21Z</time>
      </trkpt>
      <trkpt lat="42.623392" lon="0.467968">
        <ele>2067.000000</ele>
        <time>2021-09-05T11:14:24Z</time>
      </trkpt>
      <trkpt lat="42.623400" lon="0.467973">
        <ele>2067.000000</ele>
        <time>2021-09-05T11:14:24Z</time>
      </trkpt>
      <trkpt lat="42.623403" lon="0.467978">
        <ele>2067.000000</ele>
        <time>2021-09-05T11:14:25Z</time>
      </trkpt>
      <trkpt lat="42.623398" lon="0.467978">
        <ele>2067.000000</ele>
        <time>2021-09-05T11:14:26Z</time>
      </trkpt>
      <trkpt lat="42.623397" lon="0.467978">
        <ele>2067.000000</ele>
        <time>2021-09-05T11:14:27Z</time>
      </trkpt>
      <trkpt lat="42.623393" lon="0.467978">
        <ele>2067.000000</ele>
        <time>2021-09-05T11:14:28Z</time>
      </trkpt>
      <trkpt lat="42.623381" lon="0.467985">
        <ele>2067.000000</ele>
        <time>2021-09-05T11:14:29Z</time>
      </trkpt>
      <trkpt lat="42.623376" lon="0.467988">
        <ele>2067.000000</ele>
        <time>2021-09-05T11:14:30Z</time>
      </trkpt>
      <trkpt lat="42.623369" lon="0.467995">
        <ele>2067.000000</ele>
        <time>2021-09-05T11:14:31Z</time>
      </trkpt>
      <trkpt lat="42.623361" lon="0.468002">
        <ele>2067.000000</ele>
        <time>2021-09-05T11:14:32Z</time>
      </trkpt>
      <trkpt lat="42.623358" lon="0.468012">
        <ele>2067.000000</ele>
        <time>2021-09-05T11:14:33Z</time>
      </trkpt>
      <trkpt lat="42.623345" lon="0.468017">
        <ele>2067.000000</ele>
        <time>2021-09-05T11:14:34Z</time>
      </trkpt>
      <trkpt lat="42.623343" lon="0.468027">
        <ele>2067.000000</ele>
        <time>2021-09-05T11:14:35Z</time>
      </trkpt>
      <trkpt lat="42.623338" lon="0.468038">
        <ele>2067.000000</ele>
        <time>2021-09-05T11:14:36Z</time>
      </trkpt>
      <trkpt lat="42.623333" lon="0.468048">
        <ele>2067.000000</ele>
        <time>2021-09-05T11:14:37Z</time>
      </trkpt>
      <trkpt lat="42.623329" lon="0.468055">
        <ele>2067.000000</ele>
        <time>2021-09-05T11:14:38Z</time>
      </trkpt>
      <trkpt lat="42.623322" lon="0.468062">
        <ele>2067.000000</ele>
        <time>2021-09-05T11:14:39Z</time>
      </trkpt>
      <trkpt lat="42.623315" lon="0.468067">
        <ele>2067.000000</ele>
        <time>2021-09-05T11:14:40Z</time>
      </trkpt>
      <trkpt lat="42.623309" lon="0.468073">
        <ele>2067.000000</ele>
        <time>2021-09-05T11:14:41Z</time>
      </trkpt>
      <trkpt lat="42.623303" lon="0.468080">
        <ele>2067.000000</ele>
        <time>2021-09-05T11:14:42Z</time>
      </trkpt>
      <trkpt lat="42.623293" lon="0.468092">
        <ele>2067.000000</ele>
        <time>2021-09-05T11:14:44Z</time>
      </trkpt>
      <trkpt lat="42.623290" lon="0.468097">
        <ele>2067.000000</ele>
        <time>2021-09-05T11:14:44Z</time>
      </trkpt>
      <trkpt lat="42.623284" lon="0.468103">
        <ele>2067.000000</ele>
        <time>2021-09-05T11:14:45Z</time>
      </trkpt>
      <trkpt lat="42.623278" lon="0.468112">
        <ele>2067.000000</ele>
        <time>2021-09-05T11:14:46Z</time>
      </trkpt>
      <trkpt lat="42.623270" lon="0.468125">
        <ele>2067.000000</ele>
        <time>2021-09-05T11:14:47Z</time>
      </trkpt>
      <trkpt lat="42.623263" lon="0.468142">
        <ele>2067.000000</ele>
        <time>2021-09-05T11:14:48Z</time>
      </trkpt>
      <trkpt lat="42.623265" lon="0.468148">
        <ele>2067.000000</ele>
        <time>2021-09-05T11:14:49Z</time>
      </trkpt>
      <trkpt lat="42.623257" lon="0.468155">
        <ele>2067.000000</ele>
        <time>2021-09-05T11:14:50Z</time>
      </trkpt>
      <trkpt lat="42.623245" lon="0.468162">
        <ele>2067.000000</ele>
        <time>2021-09-05T11:14:51Z</time>
      </trkpt>
      <trkpt lat="42.623235" lon="0.468173">
        <ele>2067.000000</ele>
        <time>2021-09-05T11:14:52Z</time>
      </trkpt>
      <trkpt lat="42.623231" lon="0.468178">
        <ele>2067.000000</ele>
        <time>2021-09-05T11:14:53Z</time>
      </trkpt>
      <trkpt lat="42.623222" lon="0.468197">
        <ele>2067.000000</ele>
        <time>2021-09-05T11:14:54Z</time>
      </trkpt>
      <trkpt lat="42.623215" lon="0.468208">
        <ele>2067.000000</ele>
        <time>2021-09-05T11:14:55Z</time>
      </trkpt>
      <trkpt lat="42.623211" lon="0.468215">
        <ele>2067.000000</ele>
        <time>2021-09-05T11:14:56Z</time>
      </trkpt>
      <trkpt lat="42.623210" lon="0.468223">
        <ele>2067.000000</ele>
        <time>2021-09-05T11:14:57Z</time>
      </trkpt>
      <trkpt lat="42.623203" lon="0.468228">
        <ele>2067.000000</ele>
        <time>2021-09-05T11:14:58Z</time>
      </trkpt>
      <trkpt lat="42.623203" lon="0.468232">
        <ele>2067.000000</ele>
        <time>2021-09-05T11:14:59Z</time>
      </trkpt>
      <trkpt lat="42.623203" lon="0.468247">
        <ele>2067.000000</ele>
        <time>2021-09-05T11:15:00Z</time>
      </trkpt>
      <trkpt lat="42.623195" lon="0.468257">
        <ele>2067.000000</ele>
        <time>2021-09-05T11:15:01Z</time>
      </trkpt>
      <trkpt lat="42.623192" lon="0.468270">
        <ele>2067.000000</ele>
        <time>2021-09-05T11:15:02Z</time>
      </trkpt>
      <trkpt lat="42.623195" lon="0.468280">
        <ele>2067.000000</ele>
        <time>2021-09-05T11:15:03Z</time>
      </trkpt>
      <trkpt lat="42.623196" lon="0.468290">
        <ele>2067.000000</ele>
        <time>2021-09-05T11:15:04Z</time>
      </trkpt>
      <trkpt lat="42.623191" lon="0.468298">
        <ele>2067.000000</ele>
        <time>2021-09-05T11:15:05Z</time>
      </trkpt>
      <trkpt lat="42.623189" lon="0.468300">
        <ele>2067.000000</ele>
        <time>2021-09-05T11:15:06Z</time>
      </trkpt>
      <trkpt lat="42.623184" lon="0.468310">
        <ele>2067.000000</ele>
        <time>2021-09-05T11:15:08Z</time>
      </trkpt>
      <trkpt lat="42.623179" lon="0.468323">
        <ele>2067.000000</ele>
        <time>2021-09-05T11:15:08Z</time>
      </trkpt>
      <trkpt lat="42.623177" lon="0.468330">
        <ele>2066.000000</ele>
        <time>2021-09-05T11:15:09Z</time>
      </trkpt>
      <trkpt lat="42.623174" lon="0.468333">
        <ele>2066.000000</ele>
        <time>2021-09-05T11:15:10Z</time>
      </trkpt>
      <trkpt lat="42.623170" lon="0.468342">
        <ele>2066.000000</ele>
        <time>2021-09-05T11:15:11Z</time>
      </trkpt>
      <trkpt lat="42.623167" lon="0.468350">
        <ele>2066.000000</ele>
        <time>2021-09-05T11:15:12Z</time>
      </trkpt>
      <trkpt lat="42.623166" lon="0.468352">
        <ele>2066.000000</ele>
        <time>2021-09-05T11:15:13Z</time>
      </trkpt>
      <trkpt lat="42.623163" lon="0.468357">
        <ele>2066.000000</ele>
        <time>2021-09-05T11:15:14Z</time>
      </trkpt>
      <trkpt lat="42.623161" lon="0.468363">
        <ele>2066.000000</ele>
        <time>2021-09-05T11:15:15Z</time>
      </trkpt>
      <trkpt lat="42.623158" lon="0.468372">
        <ele>2066.000000</ele>
        <time>2021-09-05T11:15:16Z</time>
      </trkpt>
      <trkpt lat="42.623158" lon="0.468377">
        <ele>2066.000000</ele>
        <time>2021-09-05T11:15:17Z</time>
      </trkpt>
      <trkpt lat="42.623163" lon="0.468385">
        <ele>2065.000000</ele>
        <time>2021-09-05T11:15:19Z</time>
      </trkpt>
      <trkpt lat="42.623163" lon="0.468390">
        <ele>2065.000000</ele>
        <time>2021-09-05T11:15:20Z</time>
      </trkpt>
      <trkpt lat="42.623161" lon="0.468393">
        <ele>2065.000000</ele>
        <time>2021-09-05T11:15:21Z</time>
      </trkpt>
      <trkpt lat="42.623168" lon="0.468398">
        <ele>2065.000000</ele>
        <time>2021-09-05T11:15:22Z</time>
      </trkpt>
      <trkpt lat="42.623181" lon="0.468405">
        <ele>2065.000000</ele>
        <time>2021-09-05T11:15:23Z</time>
      </trkpt>
      <trkpt lat="42.623188" lon="0.468410">
        <ele>2064.000000</ele>
        <time>2021-09-05T11:15:24Z</time>
      </trkpt>
      <trkpt lat="42.623196" lon="0.468420">
        <ele>2064.000000</ele>
        <time>2021-09-05T11:15:25Z</time>
      </trkpt>
      <trkpt lat="42.623196" lon="0.468432">
        <ele>2064.000000</ele>
        <time>2021-09-05T11:15:26Z</time>
      </trkpt>
      <trkpt lat="42.623182" lon="0.468443">
        <ele>2064.000000</ele>
        <time>2021-09-05T11:15:27Z</time>
      </trkpt>
      <trkpt lat="42.623175" lon="0.468450">
        <ele>2063.000000</ele>
        <time>2021-09-05T11:15:27Z</time>
      </trkpt>
      <trkpt lat="42.623173" lon="0.468463">
        <ele>2063.000000</ele>
        <time>2021-09-05T11:15:28Z</time>
      </trkpt>
      <trkpt lat="42.623170" lon="0.468467">
        <ele>2063.000000</ele>
        <time>2021-09-05T11:15:29Z</time>
      </trkpt>
      <trkpt lat="42.623167" lon="0.468475">
        <ele>2063.000000</ele>
        <time>2021-09-05T11:15:31Z</time>
      </trkpt>
      <trkpt lat="42.623164" lon="0.468480">
        <ele>2063.000000</ele>
        <time>2021-09-05T11:15:31Z</time>
      </trkpt>
      <trkpt lat="42.623161" lon="0.468487">
        <ele>2063.000000</ele>
        <time>2021-09-05T11:15:32Z</time>
      </trkpt>
      <trkpt lat="42.623158" lon="0.468493">
        <ele>2063.000000</ele>
        <time>2021-09-05T11:15:33Z</time>
      </trkpt>
      <trkpt lat="42.623156" lon="0.468505">
        <ele>2063.000000</ele>
        <time>2021-09-05T11:15:34Z</time>
      </trkpt>
      <trkpt lat="42.623154" lon="0.468513">
        <ele>2063.000000</ele>
        <time>2021-09-05T11:15:35Z</time>
      </trkpt>
      <trkpt lat="42.623152" lon="0.468523">
        <ele>2063.000000</ele>
        <time>2021-09-05T11:15:36Z</time>
      </trkpt>
      <trkpt lat="42.623151" lon="0.468532">
        <ele>2063.000000</ele>
        <time>2021-09-05T11:15:37Z</time>
      </trkpt>
      <trkpt lat="42.623148" lon="0.468542">
        <ele>2063.000000</ele>
        <time>2021-09-05T11:15:38Z</time>
      </trkpt>
      <trkpt lat="42.623146" lon="0.468552">
        <ele>2063.000000</ele>
        <time>2021-09-05T11:15:39Z</time>
      </trkpt>
      <trkpt lat="42.623144" lon="0.468558">
        <ele>2063.000000</ele>
        <time>2021-09-05T11:15:40Z</time>
      </trkpt>
      <trkpt lat="42.623143" lon="0.468562">
        <ele>2062.000000</ele>
        <time>2021-09-05T11:15:41Z</time>
      </trkpt>
      <trkpt lat="42.623142" lon="0.468563">
        <ele>2062.000000</ele>
        <time>2021-09-05T11:15:42Z</time>
      </trkpt>
      <trkpt lat="42.623141" lon="0.468568">
        <ele>2062.000000</ele>
        <time>2021-09-05T11:15:43Z</time>
      </trkpt>
      <trkpt lat="42.623141" lon="0.468570">
        <ele>2062.000000</ele>
        <time>2021-09-05T11:15:44Z</time>
      </trkpt>
      <trkpt lat="42.623140" lon="0.468575">
        <ele>2062.000000</ele>
        <time>2021-09-05T11:15:45Z</time>
      </trkpt>
      <trkpt lat="42.623139" lon="0.468578">
        <ele>2061.000000</ele>
        <time>2021-09-05T11:15:46Z</time>
      </trkpt>
      <trkpt lat="42.623135" lon="0.468590">
        <ele>2061.000000</ele>
        <time>2021-09-05T11:15:47Z</time>
      </trkpt>
      <trkpt lat="42.623131" lon="0.468603">
        <ele>2061.000000</ele>
        <time>2021-09-05T11:15:48Z</time>
      </trkpt>
      <trkpt lat="42.623133" lon="0.468610">
        <ele>2061.000000</ele>
        <time>2021-09-05T11:15:49Z</time>
      </trkpt>
      <trkpt lat="42.623138" lon="0.468615">
        <ele>2061.000000</ele>
        <time>2021-09-05T11:15:51Z</time>
      </trkpt>
      <trkpt lat="42.623134" lon="0.468618">
        <ele>2060.000000</ele>
        <time>2021-09-05T11:15:51Z</time>
      </trkpt>
      <trkpt lat="42.623126" lon="0.468633">
        <ele>2060.000000</ele>
        <time>2021-09-05T11:15:52Z</time>
      </trkpt>
      <trkpt lat="42.623119" lon="0.468645">
        <ele>2060.000000</ele>
        <time>2021-09-05T11:15:53Z</time>
      </trkpt>
      <trkpt lat="42.623112" lon="0.468652">
        <ele>2060.000000</ele>
        <time>2021-09-05T11:15:54Z</time>
      </trkpt>
      <trkpt lat="42.623100" lon="0.468655">
        <ele>2059.000000</ele>
        <time>2021-09-05T11:15:55Z</time>
      </trkpt>
      <trkpt lat="42.623098" lon="0.468662">
        <ele>2059.000000</ele>
        <time>2021-09-05T11:15:57Z</time>
      </trkpt>
      <trkpt lat="42.623100" lon="0.468668">
        <ele>2059.000000</ele>
        <time>2021-09-05T11:15:58Z</time>
      </trkpt>
      <trkpt lat="42.623103" lon="0.468682">
        <ele>2058.000000</ele>
        <time>2021-09-05T11:15:59Z</time>
      </trkpt>
      <trkpt lat="42.623105" lon="0.468693">
        <ele>2058.000000</ele>
        <time>2021-09-05T11:16:00Z</time>
      </trkpt>
      <trkpt lat="42.623102" lon="0.468700">
        <ele>2058.000000</ele>
        <time>2021-09-05T11:16:01Z</time>
      </trkpt>
      <trkpt lat="42.623100" lon="0.468705">
        <ele>2058.000000</ele>
        <time>2021-09-05T11:16:02Z</time>
      </trkpt>
      <trkpt lat="42.623097" lon="0.468717">
        <ele>2057.000000</ele>
        <time>2021-09-05T11:16:03Z</time>
      </trkpt>
      <trkpt lat="42.623094" lon="0.468725">
        <ele>2057.000000</ele>
        <time>2021-09-05T11:16:04Z</time>
      </trkpt>
      <trkpt lat="42.623091" lon="0.468732">
        <ele>2057.000000</ele>
        <time>2021-09-05T11:16:05Z</time>
      </trkpt>
      <trkpt lat="42.623085" lon="0.468738">
        <ele>2057.000000</ele>
        <time>2021-09-05T11:16:06Z</time>
      </trkpt>
      <trkpt lat="42.623082" lon="0.468748">
        <ele>2057.000000</ele>
        <time>2021-09-05T11:16:07Z</time>
      </trkpt>
      <trkpt lat="42.623080" lon="0.468755">
        <ele>2057.000000</ele>
        <time>2021-09-05T11:16:08Z</time>
      </trkpt>
      <trkpt lat="42.623078" lon="0.468760">
        <ele>2057.000000</ele>
        <time>2021-09-05T11:16:09Z</time>
      </trkpt>
      <trkpt lat="42.623076" lon="0.468768">
        <ele>2057.000000</ele>
        <time>2021-09-05T11:16:10Z</time>
      </trkpt>
      <trkpt lat="42.623073" lon="0.468772">
        <ele>2056.000000</ele>
        <time>2021-09-05T11:16:11Z</time>
      </trkpt>
      <trkpt lat="42.623071" lon="0.468773">
        <ele>2056.000000</ele>
        <time>2021-09-05T11:16:12Z</time>
      </trkpt>
      <trkpt lat="42.623068" lon="0.468775">
        <ele>2056.000000</ele>
        <time>2021-09-05T11:16:14Z</time>
      </trkpt>
      <trkpt lat="42.623065" lon="0.468778">
        <ele>2056.000000</ele>
        <time>2021-09-05T11:16:15Z</time>
      </trkpt>
      <trkpt lat="42.623062" lon="0.468787">
        <ele>2056.000000</ele>
        <time>2021-09-05T11:16:16Z</time>
      </trkpt>
      <trkpt lat="42.623072" lon="0.468795">
        <ele>2056.000000</ele>
        <time>2021-09-05T11:16:17Z</time>
      </trkpt>
      <trkpt lat="42.623075" lon="0.468802">
        <ele>2056.000000</ele>
        <time>2021-09-05T11:16:18Z</time>
      </trkpt>
      <trkpt lat="42.623077" lon="0.468808">
        <ele>2055.000000</ele>
        <time>2021-09-05T11:16:19Z</time>
      </trkpt>
      <trkpt lat="42.623072" lon="0.468812">
        <ele>2055.000000</ele>
        <time>2021-09-05T11:16:21Z</time>
      </trkpt>
      <trkpt lat="42.623074" lon="0.468817">
        <ele>2055.000000</ele>
        <time>2021-09-05T11:16:22Z</time>
      </trkpt>
      <trkpt lat="42.623077" lon="0.468822">
        <ele>2055.000000</ele>
        <time>2021-09-05T11:16:23Z</time>
      </trkpt>
      <trkpt lat="42.623076" lon="0.468833">
        <ele>2055.000000</ele>
        <time>2021-09-05T11:16:24Z</time>
      </trkpt>
      <trkpt lat="42.623072" lon="0.468845">
        <ele>2054.000000</ele>
        <time>2021-09-05T11:16:25Z</time>
      </trkpt>
      <trkpt lat="42.623072" lon="0.468848">
        <ele>2054.000000</ele>
        <time>2021-09-05T11:16:26Z</time>
      </trkpt>
      <trkpt lat="42.623075" lon="0.468853">
        <ele>2054.000000</ele>
        <time>2021-09-05T11:16:27Z</time>
      </trkpt>
      <trkpt lat="42.623074" lon="0.468858">
        <ele>2054.000000</ele>
        <time>2021-09-05T11:16:28Z</time>
      </trkpt>
      <trkpt lat="42.623070" lon="0.468860">
        <ele>2054.000000</ele>
        <time>2021-09-05T11:16:29Z</time>
      </trkpt>
      <trkpt lat="42.623068" lon="0.468862">
        <ele>2054.000000</ele>
        <time>2021-09-05T11:16:30Z</time>
      </trkpt>
      <trkpt lat="42.623069" lon="0.468868">
        <ele>2054.000000</ele>
        <time>2021-09-05T11:16:31Z</time>
      </trkpt>
      <trkpt lat="42.623069" lon="0.468875">
        <ele>2054.000000</ele>
        <time>2021-09-05T11:16:32Z</time>
      </trkpt>
      <trkpt lat="42.623067" lon="0.468882">
        <ele>2054.000000</ele>
        <time>2021-09-05T11:16:34Z</time>
      </trkpt>
      <trkpt lat="42.623063" lon="0.468888">
        <ele>2053.000000</ele>
        <time>2021-09-05T11:16:34Z</time>
      </trkpt>
      <trkpt lat="42.623055" lon="0.468898">
        <ele>2053.000000</ele>
        <time>2021-09-05T11:16:35Z</time>
      </trkpt>
      <trkpt lat="42.623048" lon="0.468900">
        <ele>2053.000000</ele>
        <time>2021-09-05T11:16:36Z</time>
      </trkpt>
      <trkpt lat="42.623042" lon="0.468905">
        <ele>2053.000000</ele>
        <time>2021-09-05T11:16:37Z</time>
      </trkpt>
      <trkpt lat="42.623040" lon="0.468915">
        <ele>2053.000000</ele>
        <time>2021-09-05T11:16:38Z</time>
      </trkpt>
      <trkpt lat="42.623040" lon="0.468928">
        <ele>2052.000000</ele>
        <time>2021-09-05T11:16:39Z</time>
      </trkpt>
      <trkpt lat="42.623037" lon="0.468938">
        <ele>2052.000000</ele>
        <time>2021-09-05T11:16:40Z</time>
      </trkpt>
      <trkpt lat="42.623036" lon="0.468947">
        <ele>2052.000000</ele>
        <time>2021-09-05T11:16:41Z</time>
      </trkpt>
      <trkpt lat="42.623035" lon="0.468952">
        <ele>2052.000000</ele>
        <time>2021-09-05T11:16:42Z</time>
      </trkpt>
      <trkpt lat="42.623036" lon="0.468952">
        <ele>2052.000000</ele>
        <time>2021-09-05T11:16:43Z</time>
      </trkpt>
      <trkpt lat="42.623037" lon="0.468958">
        <ele>2052.000000</ele>
        <time>2021-09-05T11:16:44Z</time>
      </trkpt>
      <trkpt lat="42.623037" lon="0.468965">
        <ele>2052.000000</ele>
        <time>2021-09-05T11:16:45Z</time>
      </trkpt>
      <trkpt lat="42.623037" lon="0.468973">
        <ele>2051.000000</ele>
        <time>2021-09-05T11:16:46Z</time>
      </trkpt>
      <trkpt lat="42.623035" lon="0.468980">
        <ele>2051.000000</ele>
        <time>2021-09-05T11:16:47Z</time>
      </trkpt>
      <trkpt lat="42.623035" lon="0.468983">
        <ele>2051.000000</ele>
        <time>2021-09-05T11:16:48Z</time>
      </trkpt>
      <trkpt lat="42.623035" lon="0.468980">
        <ele>2051.000000</ele>
        <time>2021-09-05T11:16:49Z</time>
      </trkpt>
      <trkpt lat="42.623034" lon="0.468987">
        <ele>2051.000000</ele>
        <time>2021-09-05T11:16:51Z</time>
      </trkpt>
      <trkpt lat="42.623035" lon="0.468993">
        <ele>2051.000000</ele>
        <time>2021-09-05T11:16:52Z</time>
      </trkpt>
      <trkpt lat="42.623042" lon="0.469002">
        <ele>2051.000000</ele>
        <time>2021-09-05T11:16:53Z</time>
      </trkpt>
      <trkpt lat="42.623039" lon="0.469002">
        <ele>2050.000000</ele>
        <time>2021-09-05T11:16:54Z</time>
      </trkpt>
      <trkpt lat="42.623040" lon="0.469005">
        <ele>2050.000000</ele>
        <time>2021-09-05T11:16:55Z</time>
      </trkpt>
      <trkpt lat="42.623044" lon="0.469008">
        <ele>2050.000000</ele>
        <time>2021-09-05T11:16:56Z</time>
      </trkpt>
      <trkpt lat="42.623050" lon="0.469007">
        <ele>2050.000000</ele>
        <time>2021-09-05T11:16:58Z</time>
      </trkpt>
      <trkpt lat="42.623057" lon="0.469007">
        <ele>2050.000000</ele>
        <time>2021-09-05T11:16:58Z</time>
      </trkpt>
      <trkpt lat="42.623065" lon="0.469005">
        <ele>2050.000000</ele>
        <time>2021-09-05T11:16:59Z</time>
      </trkpt>
      <trkpt lat="42.623072" lon="0.469002">
        <ele>2050.000000</ele>
        <time>2021-09-05T11:17:00Z</time>
      </trkpt>
      <trkpt lat="42.623077" lon="0.469002">
        <ele>2050.000000</ele>
        <time>2021-09-05T11:17:01Z</time>
      </trkpt>
      <trkpt lat="42.623080" lon="0.469003">
        <ele>2050.000000</ele>
        <time>2021-09-05T11:17:02Z</time>
      </trkpt>
      <trkpt lat="42.623093" lon="0.469007">
        <ele>2050.000000</ele>
        <time>2021-09-05T11:17:04Z</time>
      </trkpt>
      <trkpt lat="42.623102" lon="0.469008">
        <ele>2050.000000</ele>
        <time>2021-09-05T11:17:06Z</time>
      </trkpt>
      <trkpt lat="42.623102" lon="0.469010">
        <ele>2049.000000</ele>
        <time>2021-09-05T11:17:07Z</time>
      </trkpt>
      <trkpt lat="42.623097" lon="0.469022">
        <ele>2049.000000</ele>
        <time>2021-09-05T11:17:09Z</time>
      </trkpt>
      <trkpt lat="42.623095" lon="0.469027">
        <ele>2049.000000</ele>
        <time>2021-09-05T11:17:10Z</time>
      </trkpt>
      <trkpt lat="42.623097" lon="0.469032">
        <ele>2048.000000</ele>
        <time>2021-09-05T11:17:11Z</time>
      </trkpt>
      <trkpt lat="42.623099" lon="0.469033">
        <ele>2048.000000</ele>
        <time>2021-09-05T11:17:12Z</time>
      </trkpt>
      <trkpt lat="42.623100" lon="0.469040">
        <ele>2048.000000</ele>
        <time>2021-09-05T11:17:13Z</time>
      </trkpt>
      <trkpt lat="42.623100" lon="0.469050">
        <ele>2048.000000</ele>
        <time>2021-09-05T11:17:14Z</time>
      </trkpt>
      <trkpt lat="42.623103" lon="0.469048">
        <ele>2047.000000</ele>
        <time>2021-09-05T11:17:15Z</time>
      </trkpt>
      <trkpt lat="42.623108" lon="0.469052">
        <ele>2047.000000</ele>
        <time>2021-09-05T11:17:16Z</time>
      </trkpt>
      <trkpt lat="42.623115" lon="0.469048">
        <ele>2047.000000</ele>
        <time>2021-09-05T11:17:17Z</time>
      </trkpt>
      <trkpt lat="42.623125" lon="0.469045">
        <ele>2047.000000</ele>
        <time>2021-09-05T11:17:18Z</time>
      </trkpt>
      <trkpt lat="42.623130" lon="0.469040">
        <ele>2047.000000</ele>
        <time>2021-09-05T11:17:19Z</time>
      </trkpt>
      <trkpt lat="42.623132" lon="0.469044">
        <ele>2047.000000</ele>
        <time>2021-09-05T11:17:20Z</time>
      </trkpt>
      <trkpt lat="42.623135" lon="0.469049">
        <ele>2046.000000</ele>
        <time>2021-09-05T11:17:22Z</time>
      </trkpt>
      <trkpt lat="42.623132" lon="0.469057">
        <ele>2046.000000</ele>
        <time>2021-09-05T11:17:22Z</time>
      </trkpt>
      <trkpt lat="42.623128" lon="0.469063">
        <ele>2046.000000</ele>
        <time>2021-09-05T11:17:23Z</time>
      </trkpt>
      <trkpt lat="42.623120" lon="0.469077">
        <ele>2045.000000</ele>
        <time>2021-09-05T11:17:24Z</time>
      </trkpt>
      <trkpt lat="42.623120" lon="0.469088">
        <ele>2045.000000</ele>
        <time>2021-09-05T11:17:25Z</time>
      </trkpt>
      <trkpt lat="42.623116" lon="0.469095">
        <ele>2045.000000</ele>
        <time>2021-09-05T11:17:26Z</time>
      </trkpt>
      <trkpt lat="42.623113" lon="0.469095">
        <ele>2045.000000</ele>
        <time>2021-09-05T11:17:27Z</time>
      </trkpt>
      <trkpt lat="42.623108" lon="0.469102">
        <ele>2044.000000</ele>
        <time>2021-09-05T11:17:28Z</time>
      </trkpt>
      <trkpt lat="42.623105" lon="0.469108">
        <ele>2044.000000</ele>
        <time>2021-09-05T11:17:29Z</time>
      </trkpt>
      <trkpt lat="42.623108" lon="0.469112">
        <ele>2044.000000</ele>
        <time>2021-09-05T11:17:30Z</time>
      </trkpt>
      <trkpt lat="42.623108" lon="0.469115">
        <ele>2044.000000</ele>
        <time>2021-09-05T11:17:31Z</time>
      </trkpt>
      <trkpt lat="42.623118" lon="0.469115">
        <ele>2043.000000</ele>
        <time>2021-09-05T11:17:32Z</time>
      </trkpt>
      <trkpt lat="42.623127" lon="0.469112">
        <ele>2043.000000</ele>
        <time>2021-09-05T11:17:33Z</time>
      </trkpt>
      <trkpt lat="42.623132" lon="0.469110">
        <ele>2043.000000</ele>
        <time>2021-09-05T11:17:34Z</time>
      </trkpt>
      <trkpt lat="42.623137" lon="0.469112">
        <ele>2043.000000</ele>
        <time>2021-09-05T11:17:35Z</time>
      </trkpt>
      <trkpt lat="42.623138" lon="0.469111">
        <ele>2043.000000</ele>
        <time>2021-09-05T11:17:36Z</time>
      </trkpt>
      <trkpt lat="42.623138" lon="0.469113">
        <ele>2043.000000</ele>
        <time>2021-09-05T11:17:37Z</time>
      </trkpt>
      <trkpt lat="42.623145" lon="0.469121">
        <ele>2043.000000</ele>
        <time>2021-09-05T11:17:38Z</time>
      </trkpt>
      <trkpt lat="42.623150" lon="0.469125">
        <ele>2043.000000</ele>
        <time>2021-09-05T11:17:39Z</time>
      </trkpt>
      <trkpt lat="42.623147" lon="0.469126">
        <ele>2043.000000</ele>
        <time>2021-09-05T11:17:40Z</time>
      </trkpt>
      <trkpt lat="42.623140" lon="0.469152">
        <ele>2043.000000</ele>
        <time>2021-09-05T11:17:42Z</time>
      </trkpt>
      <trkpt lat="42.623133" lon="0.469158">
        <ele>2043.000000</ele>
        <time>2021-09-05T11:17:42Z</time>
      </trkpt>
      <trkpt lat="42.623130" lon="0.469165">
        <ele>2042.000000</ele>
        <time>2021-09-05T11:17:43Z</time>
      </trkpt>
      <trkpt lat="42.623130" lon="0.469173">
        <ele>2042.000000</ele>
        <time>2021-09-05T11:17:44Z</time>
      </trkpt>
      <trkpt lat="42.623135" lon="0.469178">
        <ele>2042.000000</ele>
        <time>2021-09-05T11:17:45Z</time>
      </trkpt>
      <trkpt lat="42.623134" lon="0.469188">
        <ele>2042.000000</ele>
        <time>2021-09-05T11:17:46Z</time>
      </trkpt>
      <trkpt lat="42.623136" lon="0.469193">
        <ele>2042.000000</ele>
        <time>2021-09-05T11:17:47Z</time>
      </trkpt>
      <trkpt lat="42.623140" lon="0.469198">
        <ele>2042.000000</ele>
        <time>2021-09-05T11:17:48Z</time>
      </trkpt>
      <trkpt lat="42.623144" lon="0.469202">
        <ele>2041.000000</ele>
        <time>2021-09-05T11:17:49Z</time>
      </trkpt>
      <trkpt lat="42.623152" lon="0.469207">
        <ele>2041.000000</ele>
        <time>2021-09-05T11:17:50Z</time>
      </trkpt>
      <trkpt lat="42.623148" lon="0.469215">
        <ele>2041.000000</ele>
        <time>2021-09-05T11:17:51Z</time>
      </trkpt>
      <trkpt lat="42.623148" lon="0.469228">
        <ele>2041.000000</ele>
        <time>2021-09-05T11:17:52Z</time>
      </trkpt>
      <trkpt lat="42.623140" lon="0.469238">
        <ele>2040.000000</ele>
        <time>2021-09-05T11:17:53Z</time>
      </trkpt>
      <trkpt lat="42.623132" lon="0.469242">
        <ele>2040.000000</ele>
        <time>2021-09-05T11:17:54Z</time>
      </trkpt>
      <trkpt lat="42.623130" lon="0.469243">
        <ele>2040.000000</ele>
        <time>2021-09-05T11:17:56Z</time>
      </trkpt>
      <trkpt lat="42.623123" lon="0.469242">
        <ele>2039.000000</ele>
        <time>2021-09-05T11:17:58Z</time>
      </trkpt>
      <trkpt lat="42.623127" lon="0.469243">
        <ele>2039.000000</ele>
        <time>2021-09-05T11:17:59Z</time>
      </trkpt>
      <trkpt lat="42.623128" lon="0.469245">
        <ele>2039.000000</ele>
        <time>2021-09-05T11:18:00Z</time>
      </trkpt>
      <trkpt lat="42.623125" lon="0.469245">
        <ele>2039.000000</ele>
        <time>2021-09-05T11:18:01Z</time>
      </trkpt>
      <trkpt lat="42.623132" lon="0.469254">
        <ele>2039.000000</ele>
        <time>2021-09-05T11:18:02Z</time>
      </trkpt>
      <trkpt lat="42.623133" lon="0.469258">
        <ele>2039.000000</ele>
        <time>2021-09-05T11:18:03Z</time>
      </trkpt>
      <trkpt lat="42.623133" lon="0.469265">
        <ele>2038.000000</ele>
        <time>2021-09-05T11:18:04Z</time>
      </trkpt>
      <trkpt lat="42.623132" lon="0.469275">
        <ele>2038.000000</ele>
        <time>2021-09-05T11:18:06Z</time>
      </trkpt>
      <trkpt lat="42.623138" lon="0.469288">
        <ele>2038.000000</ele>
        <time>2021-09-05T11:18:06Z</time>
      </trkpt>
      <trkpt lat="42.623138" lon="0.469293">
        <ele>2038.000000</ele>
        <time>2021-09-05T11:18:07Z</time>
      </trkpt>
      <trkpt lat="42.623135" lon="0.469295">
        <ele>2038.000000</ele>
        <time>2021-09-05T11:18:08Z</time>
      </trkpt>
      <trkpt lat="42.623131" lon="0.469298">
        <ele>2038.000000</ele>
        <time>2021-09-05T11:18:09Z</time>
      </trkpt>
      <trkpt lat="42.623129" lon="0.469308">
        <ele>2038.000000</ele>
        <time>2021-09-05T11:18:10Z</time>
      </trkpt>
      <trkpt lat="42.623132" lon="0.469312">
        <ele>2037.000000</ele>
        <time>2021-09-05T11:18:11Z</time>
      </trkpt>
      <trkpt lat="42.623135" lon="0.469318">
        <ele>2037.000000</ele>
        <time>2021-09-05T11:18:12Z</time>
      </trkpt>
      <trkpt lat="42.623133" lon="0.469323">
        <ele>2037.000000</ele>
        <time>2021-09-05T11:18:13Z</time>
      </trkpt>
      <trkpt lat="42.623133" lon="0.469332">
        <ele>2037.000000</ele>
        <time>2021-09-05T11:18:14Z</time>
      </trkpt>
      <trkpt lat="42.623128" lon="0.469338">
        <ele>2037.000000</ele>
        <time>2021-09-05T11:18:15Z</time>
      </trkpt>
      <trkpt lat="42.623127" lon="0.469348">
        <ele>2037.000000</ele>
        <time>2021-09-05T11:18:16Z</time>
      </trkpt>
      <trkpt lat="42.623125" lon="0.469360">
        <ele>2036.000000</ele>
        <time>2021-09-05T11:18:17Z</time>
      </trkpt>
      <trkpt lat="42.623120" lon="0.469368">
        <ele>2036.000000</ele>
        <time>2021-09-05T11:18:18Z</time>
      </trkpt>
      <trkpt lat="42.623118" lon="0.469380">
        <ele>2036.000000</ele>
        <time>2021-09-05T11:18:19Z</time>
      </trkpt>
      <trkpt lat="42.623119" lon="0.469388">
        <ele>2036.000000</ele>
        <time>2021-09-05T11:18:20Z</time>
      </trkpt>
      <trkpt lat="42.623127" lon="0.469392">
        <ele>2036.000000</ele>
        <time>2021-09-05T11:18:21Z</time>
      </trkpt>
      <trkpt lat="42.623133" lon="0.469397">
        <ele>2036.000000</ele>
        <time>2021-09-05T11:18:22Z</time>
      </trkpt>
      <trkpt lat="42.623138" lon="0.469405">
        <ele>2036.000000</ele>
        <time>2021-09-05T11:18:23Z</time>
      </trkpt>
      <trkpt lat="42.623140" lon="0.469413">
        <ele>2036.000000</ele>
        <time>2021-09-05T11:18:24Z</time>
      </trkpt>
      <trkpt lat="42.623140" lon="0.469428">
        <ele>2036.000000</ele>
        <time>2021-09-05T11:18:25Z</time>
      </trkpt>
      <trkpt lat="42.623136" lon="0.469437">
        <ele>2036.000000</ele>
        <time>2021-09-05T11:18:26Z</time>
      </trkpt>
      <trkpt lat="42.623137" lon="0.469442">
        <ele>2036.000000</ele>
        <time>2021-09-05T11:18:27Z</time>
      </trkpt>
      <trkpt lat="42.623138" lon="0.469450">
        <ele>2036.000000</ele>
        <time>2021-09-05T11:18:28Z</time>
      </trkpt>
      <trkpt lat="42.623135" lon="0.469465">
        <ele>2036.000000</ele>
        <time>2021-09-05T11:18:30Z</time>
      </trkpt>
      <trkpt lat="42.623133" lon="0.469477">
        <ele>2036.000000</ele>
        <time>2021-09-05T11:18:30Z</time>
      </trkpt>
      <trkpt lat="42.623133" lon="0.469488">
        <ele>2036.000000</ele>
        <time>2021-09-05T11:18:31Z</time>
      </trkpt>
      <trkpt lat="42.623135" lon="0.469503">
        <ele>2036.000000</ele>
        <time>2021-09-05T11:18:32Z</time>
      </trkpt>
      <trkpt lat="42.623137" lon="0.469515">
        <ele>2036.000000</ele>
        <time>2021-09-05T11:18:33Z</time>
      </trkpt>
      <trkpt lat="42.623141" lon="0.469523">
        <ele>2035.000000</ele>
        <time>2021-09-05T11:18:34Z</time>
      </trkpt>
      <trkpt lat="42.623143" lon="0.469535">
        <ele>2035.000000</ele>
        <time>2021-09-05T11:18:35Z</time>
      </trkpt>
      <trkpt lat="42.623138" lon="0.469552">
        <ele>2035.000000</ele>
        <time>2021-09-05T11:18:36Z</time>
      </trkpt>
      <trkpt lat="42.623136" lon="0.469567">
        <ele>2035.000000</ele>
        <time>2021-09-05T11:18:37Z</time>
      </trkpt>
      <trkpt lat="42.623132" lon="0.469580">
        <ele>2035.000000</ele>
        <time>2021-09-05T11:18:38Z</time>
      </trkpt>
      <trkpt lat="42.623131" lon="0.469587">
        <ele>2035.000000</ele>
        <time>2021-09-05T11:18:39Z</time>
      </trkpt>
      <trkpt lat="42.623130" lon="0.469592">
        <ele>2035.000000</ele>
        <time>2021-09-05T11:18:40Z</time>
      </trkpt>
      <trkpt lat="42.623131" lon="0.469603">
        <ele>2035.000000</ele>
        <time>2021-09-05T11:18:41Z</time>
      </trkpt>
      <trkpt lat="42.623140" lon="0.469617">
        <ele>2035.000000</ele>
        <time>2021-09-05T11:18:42Z</time>
      </trkpt>
      <trkpt lat="42.623147" lon="0.469627">
        <ele>2034.000000</ele>
        <time>2021-09-05T11:18:43Z</time>
      </trkpt>
      <trkpt lat="42.623150" lon="0.469632">
        <ele>2034.000000</ele>
        <time>2021-09-05T11:18:44Z</time>
      </trkpt>
      <trkpt lat="42.623153" lon="0.469637">
        <ele>2034.000000</ele>
        <time>2021-09-05T11:18:45Z</time>
      </trkpt>
      <trkpt lat="42.623154" lon="0.469640">
        <ele>2034.000000</ele>
        <time>2021-09-05T11:18:46Z</time>
      </trkpt>
      <trkpt lat="42.623155" lon="0.469650">
        <ele>2034.000000</ele>
        <time>2021-09-05T11:18:47Z</time>
      </trkpt>
      <trkpt lat="42.623158" lon="0.469663">
        <ele>2034.000000</ele>
        <time>2021-09-05T11:18:48Z</time>
      </trkpt>
      <trkpt lat="42.623155" lon="0.469673">
        <ele>2034.000000</ele>
        <time>2021-09-05T11:18:50Z</time>
      </trkpt>
      <trkpt lat="42.623149" lon="0.469688">
        <ele>2034.000000</ele>
        <time>2021-09-05T11:18:50Z</time>
      </trkpt>
      <trkpt lat="42.623145" lon="0.469693">
        <ele>2034.000000</ele>
        <time>2021-09-05T11:18:51Z</time>
      </trkpt>
      <trkpt lat="42.623143" lon="0.469702">
        <ele>2034.000000</ele>
        <time>2021-09-05T11:18:52Z</time>
      </trkpt>
      <trkpt lat="42.623137" lon="0.469710">
        <ele>2034.000000</ele>
        <time>2021-09-05T11:18:53Z</time>
      </trkpt>
      <trkpt lat="42.623128" lon="0.469715">
        <ele>2034.000000</ele>
        <time>2021-09-05T11:18:54Z</time>
      </trkpt>
      <trkpt lat="42.623122" lon="0.469720">
        <ele>2034.000000</ele>
        <time>2021-09-05T11:18:55Z</time>
      </trkpt>
      <trkpt lat="42.623118" lon="0.469725">
        <ele>2034.000000</ele>
        <time>2021-09-05T11:18:56Z</time>
      </trkpt>
      <trkpt lat="42.623112" lon="0.469737">
        <ele>2034.000000</ele>
        <time>2021-09-05T11:18:57Z</time>
      </trkpt>
      <trkpt lat="42.623107" lon="0.469747">
        <ele>2033.000000</ele>
        <time>2021-09-05T11:18:58Z</time>
      </trkpt>
      <trkpt lat="42.623098" lon="0.469753">
        <ele>2033.000000</ele>
        <time>2021-09-05T11:18:59Z</time>
      </trkpt>
      <trkpt lat="42.623095" lon="0.469760">
        <ele>2033.000000</ele>
        <time>2021-09-05T11:19:00Z</time>
      </trkpt>
      <trkpt lat="42.623083" lon="0.469770">
        <ele>2033.000000</ele>
        <time>2021-09-05T11:19:01Z</time>
      </trkpt>
      <trkpt lat="42.623070" lon="0.469776">
        <ele>2033.000000</ele>
        <time>2021-09-05T11:19:02Z</time>
      </trkpt>
      <trkpt lat="42.623060" lon="0.469780">
        <ele>2033.000000</ele>
        <time>2021-09-05T11:19:03Z</time>
      </trkpt>
      <trkpt lat="42.623042" lon="0.469783">
        <ele>2033.000000</ele>
        <time>2021-09-05T11:19:04Z</time>
      </trkpt>
      <trkpt lat="42.623030" lon="0.469787">
        <ele>2033.000000</ele>
        <time>2021-09-05T11:19:05Z</time>
      </trkpt>
      <trkpt lat="42.623027" lon="0.469786">
        <ele>2033.000000</ele>
        <time>2021-09-05T11:19:06Z</time>
      </trkpt>
      <trkpt lat="42.623027" lon="0.469787">
        <ele>2033.000000</ele>
        <time>2021-09-05T11:19:07Z</time>
      </trkpt>
      <trkpt lat="42.623030" lon="0.469787">
        <ele>2033.000000</ele>
        <time>2021-09-05T11:19:08Z</time>
      </trkpt>
      <trkpt lat="42.623027" lon="0.469789">
        <ele>2032.000000</ele>
        <time>2021-09-05T11:19:09Z</time>
      </trkpt>
      <trkpt lat="42.623023" lon="0.469797">
        <ele>2032.000000</ele>
        <time>2021-09-05T11:19:10Z</time>
      </trkpt>
      <trkpt lat="42.623020" lon="0.469803">
        <ele>2032.000000</ele>
        <time>2021-09-05T11:19:11Z</time>
      </trkpt>
      <trkpt lat="42.623022" lon="0.469812">
        <ele>2032.000000</ele>
        <time>2021-09-05T11:19:12Z</time>
      </trkpt>
      <trkpt lat="42.623020" lon="0.469822">
        <ele>2032.000000</ele>
        <time>2021-09-05T11:19:14Z</time>
      </trkpt>
      <trkpt lat="42.623018" lon="0.469838">
        <ele>2032.000000</ele>
        <time>2021-09-05T11:19:14Z</time>
      </trkpt>
      <trkpt lat="42.623015" lon="0.469857">
        <ele>2032.000000</ele>
        <time>2021-09-05T11:19:15Z</time>
      </trkpt>
      <trkpt lat="42.623013" lon="0.469870">
        <ele>2032.000000</ele>
        <time>2021-09-05T11:19:16Z</time>
      </trkpt>
      <trkpt lat="42.623009" lon="0.469883">
        <ele>2032.000000</ele>
        <time>2021-09-05T11:19:17Z</time>
      </trkpt>
      <trkpt lat="42.623005" lon="0.469897">
        <ele>2032.000000</ele>
        <time>2021-09-05T11:19:18Z</time>
      </trkpt>
      <trkpt lat="42.623002" lon="0.469912">
        <ele>2032.000000</ele>
        <time>2021-09-05T11:19:19Z</time>
      </trkpt>
      <trkpt lat="42.623000" lon="0.469923">
        <ele>2032.000000</ele>
        <time>2021-09-05T11:19:20Z</time>
      </trkpt>
      <trkpt lat="42.622998" lon="0.469932">
        <ele>2032.000000</ele>
        <time>2021-09-05T11:19:21Z</time>
      </trkpt>
      <trkpt lat="42.622994" lon="0.469938">
        <ele>2032.000000</ele>
        <time>2021-09-05T11:19:22Z</time>
      </trkpt>
      <trkpt lat="42.622990" lon="0.469945">
        <ele>2032.000000</ele>
        <time>2021-09-05T11:19:23Z</time>
      </trkpt>
      <trkpt lat="42.622989" lon="0.469950">
        <ele>2032.000000</ele>
        <time>2021-09-05T11:19:24Z</time>
      </trkpt>
      <trkpt lat="42.622987" lon="0.469957">
        <ele>2032.000000</ele>
        <time>2021-09-05T11:19:25Z</time>
      </trkpt>
      <trkpt lat="42.622988" lon="0.469963">
        <ele>2032.000000</ele>
        <time>2021-09-05T11:19:26Z</time>
      </trkpt>
      <trkpt lat="42.622990" lon="0.469970">
        <ele>2032.000000</ele>
        <time>2021-09-05T11:19:27Z</time>
      </trkpt>
      <trkpt lat="42.622995" lon="0.469972">
        <ele>2032.000000</ele>
        <time>2021-09-05T11:19:28Z</time>
      </trkpt>
      <trkpt lat="42.622992" lon="0.469968">
        <ele>2032.000000</ele>
        <time>2021-09-05T11:19:29Z</time>
      </trkpt>
      <trkpt lat="42.622995" lon="0.469963">
        <ele>2032.000000</ele>
        <time>2021-09-05T11:19:30Z</time>
      </trkpt>
      <trkpt lat="42.622997" lon="0.469962">
        <ele>2032.000000</ele>
        <time>2021-09-05T11:19:31Z</time>
      </trkpt>
      <trkpt lat="42.623000" lon="0.469965">
        <ele>2032.000000</ele>
        <time>2021-09-05T11:19:34Z</time>
      </trkpt>
      <trkpt lat="42.622998" lon="0.469968">
        <ele>2032.000000</ele>
        <time>2021-09-05T11:19:34Z</time>
      </trkpt>
      <trkpt lat="42.623001" lon="0.469982">
        <ele>2032.000000</ele>
        <time>2021-09-05T11:19:35Z</time>
      </trkpt>
      <trkpt lat="42.623005" lon="0.469993">
        <ele>2032.000000</ele>
        <time>2021-09-05T11:19:36Z</time>
      </trkpt>
      <trkpt lat="42.623003" lon="0.470002">
        <ele>2032.000000</ele>
        <time>2021-09-05T11:19:37Z</time>
      </trkpt>
      <trkpt lat="42.622998" lon="0.470008">
        <ele>2032.000000</ele>
        <time>2021-09-05T11:19:38Z</time>
      </trkpt>
      <trkpt lat="42.622995" lon="0.470017">
        <ele>2032.000000</ele>
        <time>2021-09-05T11:19:39Z</time>
      </trkpt>
      <trkpt lat="42.622992" lon="0.470025">
        <ele>2032.000000</ele>
        <time>2021-09-05T11:19:40Z</time>
      </trkpt>
      <trkpt lat="42.622987" lon="0.470035">
        <ele>2032.000000</ele>
        <time>2021-09-05T11:19:41Z</time>
      </trkpt>
      <trkpt lat="42.622978" lon="0.470040">
        <ele>2032.000000</ele>
        <time>2021-09-05T11:19:42Z</time>
      </trkpt>
      <trkpt lat="42.622965" lon="0.470052">
        <ele>2032.000000</ele>
        <time>2021-09-05T11:19:42Z</time>
      </trkpt>
      <trkpt lat="42.622957" lon="0.470072">
        <ele>2032.000000</ele>
        <time>2021-09-05T11:19:43Z</time>
      </trkpt>
      <trkpt lat="42.622951" lon="0.470085">
        <ele>2032.000000</ele>
        <time>2021-09-05T11:19:44Z</time>
      </trkpt>
      <trkpt lat="42.622944" lon="0.470095">
        <ele>2032.000000</ele>
        <time>2021-09-05T11:19:45Z</time>
      </trkpt>
      <trkpt lat="42.622932" lon="0.470108">
        <ele>2032.000000</ele>
        <time>2021-09-05T11:19:46Z</time>
      </trkpt>
      <trkpt lat="42.622925" lon="0.470113">
        <ele>2032.000000</ele>
        <time>2021-09-05T11:19:47Z</time>
      </trkpt>
      <trkpt lat="42.622925" lon="0.470127">
        <ele>2032.000000</ele>
        <time>2021-09-05T11:19:48Z</time>
      </trkpt>
      <trkpt lat="42.622925" lon="0.470140">
        <ele>2032.000000</ele>
        <time>2021-09-05T11:19:49Z</time>
      </trkpt>
      <trkpt lat="42.622925" lon="0.470152">
        <ele>2032.000000</ele>
        <time>2021-09-05T11:19:50Z</time>
      </trkpt>
      <trkpt lat="42.622923" lon="0.470163">
        <ele>2032.000000</ele>
        <time>2021-09-05T11:19:51Z</time>
      </trkpt>
      <trkpt lat="42.622926" lon="0.470172">
        <ele>2032.000000</ele>
        <time>2021-09-05T11:19:52Z</time>
      </trkpt>
      <trkpt lat="42.622930" lon="0.470182">
        <ele>2032.000000</ele>
        <time>2021-09-05T11:19:53Z</time>
      </trkpt>
      <trkpt lat="42.622937" lon="0.470193">
        <ele>2032.000000</ele>
        <time>2021-09-05T11:19:54Z</time>
      </trkpt>
      <trkpt lat="42.622942" lon="0.470207">
        <ele>2032.000000</ele>
        <time>2021-09-05T11:19:56Z</time>
      </trkpt>
      <trkpt lat="42.622957" lon="0.470218">
        <ele>2032.000000</ele>
        <time>2021-09-05T11:19:56Z</time>
      </trkpt>
      <trkpt lat="42.622967" lon="0.470232">
        <ele>2032.000000</ele>
        <time>2021-09-05T11:19:57Z</time>
      </trkpt>
      <trkpt lat="42.622972" lon="0.470237">
        <ele>2032.000000</ele>
        <time>2021-09-05T11:19:58Z</time>
      </trkpt>
      <trkpt lat="42.622975" lon="0.470243">
        <ele>2032.000000</ele>
        <time>2021-09-05T11:19:59Z</time>
      </trkpt>
      <trkpt lat="42.622982" lon="0.470260">
        <ele>2032.000000</ele>
        <time>2021-09-05T11:20:00Z</time>
      </trkpt>
      <trkpt lat="42.622985" lon="0.470270">
        <ele>2032.000000</ele>
        <time>2021-09-05T11:20:01Z</time>
      </trkpt>
      <trkpt lat="42.622988" lon="0.470278">
        <ele>2032.000000</ele>
        <time>2021-09-05T11:20:02Z</time>
      </trkpt>
      <trkpt lat="42.622990" lon="0.470295">
        <ele>2032.000000</ele>
        <time>2021-09-05T11:20:03Z</time>
      </trkpt>
      <trkpt lat="42.622990" lon="0.470308">
        <ele>2032.000000</ele>
        <time>2021-09-05T11:20:04Z</time>
      </trkpt>
      <trkpt lat="42.622990" lon="0.470313">
        <ele>2032.000000</ele>
        <time>2021-09-05T11:20:05Z</time>
      </trkpt>
      <trkpt lat="42.622992" lon="0.470328">
        <ele>2032.000000</ele>
        <time>2021-09-05T11:20:06Z</time>
      </trkpt>
      <trkpt lat="42.622994" lon="0.470333">
        <ele>2032.000000</ele>
        <time>2021-09-05T11:20:07Z</time>
      </trkpt>
      <trkpt lat="42.622998" lon="0.470340">
        <ele>2032.000000</ele>
        <time>2021-09-05T11:20:08Z</time>
      </trkpt>
      <trkpt lat="42.623001" lon="0.470347">
        <ele>2032.000000</ele>
        <time>2021-09-05T11:20:09Z</time>
      </trkpt>
      <trkpt lat="42.623004" lon="0.470353">
        <ele>2032.000000</ele>
        <time>2021-09-05T11:20:10Z</time>
      </trkpt>
      <trkpt lat="42.623000" lon="0.470358">
        <ele>2032.000000</ele>
        <time>2021-09-05T11:20:11Z</time>
      </trkpt>
      <trkpt lat="42.622998" lon="0.470367">
        <ele>2032.000000</ele>
        <time>2021-09-05T11:20:12Z</time>
      </trkpt>
      <trkpt lat="42.622993" lon="0.470377">
        <ele>2032.000000</ele>
        <time>2021-09-05T11:20:13Z</time>
      </trkpt>
      <trkpt lat="42.622993" lon="0.470387">
        <ele>2032.000000</ele>
        <time>2021-09-05T11:20:14Z</time>
      </trkpt>
      <trkpt lat="42.622992" lon="0.470395">
        <ele>2032.000000</ele>
        <time>2021-09-05T11:20:15Z</time>
      </trkpt>
      <trkpt lat="42.622989" lon="0.470398">
        <ele>2032.000000</ele>
        <time>2021-09-05T11:20:16Z</time>
      </trkpt>
      <trkpt lat="42.622983" lon="0.470407">
        <ele>2031.000000</ele>
        <time>2021-09-05T11:20:17Z</time>
      </trkpt>
      <trkpt lat="42.622977" lon="0.470415">
        <ele>2031.000000</ele>
        <time>2021-09-05T11:20:18Z</time>
      </trkpt>
      <trkpt lat="42.622980" lon="0.470423">
        <ele>2031.000000</ele>
        <time>2021-09-05T11:20:20Z</time>
      </trkpt>
      <trkpt lat="42.622970" lon="0.470425">
        <ele>2031.000000</ele>
        <time>2021-09-05T11:20:20Z</time>
      </trkpt>
      <trkpt lat="42.622962" lon="0.470428">
        <ele>2031.000000</ele>
        <time>2021-09-05T11:20:21Z</time>
      </trkpt>
      <trkpt lat="42.622950" lon="0.470427">
        <ele>2031.000000</ele>
        <time>2021-09-05T11:20:22Z</time>
      </trkpt>
      <trkpt lat="42.622947" lon="0.470428">
        <ele>2031.000000</ele>
        <time>2021-09-05T11:20:23Z</time>
      </trkpt>
      <trkpt lat="42.622943" lon="0.470433">
        <ele>2031.000000</ele>
        <time>2021-09-05T11:20:24Z</time>
      </trkpt>
      <trkpt lat="42.622942" lon="0.470441">
        <ele>2031.000000</ele>
        <time>2021-09-05T11:20:25Z</time>
      </trkpt>
      <trkpt lat="42.622940" lon="0.470453">
        <ele>2031.000000</ele>
        <time>2021-09-05T11:20:26Z</time>
      </trkpt>
      <trkpt lat="42.622943" lon="0.470460">
        <ele>2031.000000</ele>
        <time>2021-09-05T11:20:27Z</time>
      </trkpt>
      <trkpt lat="42.622937" lon="0.470463">
        <ele>2031.000000</ele>
        <time>2021-09-05T11:20:28Z</time>
      </trkpt>
      <trkpt lat="42.622937" lon="0.470475">
        <ele>2031.000000</ele>
        <time>2021-09-05T11:20:29Z</time>
      </trkpt>
      <trkpt lat="42.622933" lon="0.470493">
        <ele>2031.000000</ele>
        <time>2021-09-05T11:20:30Z</time>
      </trkpt>
      <trkpt lat="42.622934" lon="0.470503">
        <ele>2031.000000</ele>
        <time>2021-09-05T11:20:31Z</time>
      </trkpt>
      <trkpt lat="42.622933" lon="0.470510">
        <ele>2031.000000</ele>
        <time>2021-09-05T11:20:32Z</time>
      </trkpt>
      <trkpt lat="42.622930" lon="0.470523">
        <ele>2031.000000</ele>
        <time>2021-09-05T11:20:33Z</time>
      </trkpt>
      <trkpt lat="42.622930" lon="0.470537">
        <ele>2031.000000</ele>
        <time>2021-09-05T11:20:34Z</time>
      </trkpt>
      <trkpt lat="42.622926" lon="0.470552">
        <ele>2031.000000</ele>
        <time>2021-09-05T11:20:35Z</time>
      </trkpt>
      <trkpt lat="42.622929" lon="0.470558">
        <ele>2031.000000</ele>
        <time>2021-09-05T11:20:36Z</time>
      </trkpt>
      <trkpt lat="42.622932" lon="0.470563">
        <ele>2031.000000</ele>
        <time>2021-09-05T11:20:37Z</time>
      </trkpt>
      <trkpt lat="42.622933" lon="0.470575">
        <ele>2031.000000</ele>
        <time>2021-09-05T11:20:38Z</time>
      </trkpt>
      <trkpt lat="42.622935" lon="0.470588">
        <ele>2031.000000</ele>
        <time>2021-09-05T11:20:40Z</time>
      </trkpt>
      <trkpt lat="42.622938" lon="0.470595">
        <ele>2031.000000</ele>
        <time>2021-09-05T11:20:40Z</time>
      </trkpt>
      <trkpt lat="42.622939" lon="0.470598">
        <ele>2031.000000</ele>
        <time>2021-09-05T11:20:41Z</time>
      </trkpt>
      <trkpt lat="42.622940" lon="0.470605">
        <ele>2031.000000</ele>
        <time>2021-09-05T11:20:42Z</time>
      </trkpt>
      <trkpt lat="42.622942" lon="0.470613">
        <ele>2031.000000</ele>
        <time>2021-09-05T11:20:43Z</time>
      </trkpt>
      <trkpt lat="42.622941" lon="0.470620">
        <ele>2031.000000</ele>
        <time>2021-09-05T11:20:44Z</time>
      </trkpt>
      <trkpt lat="42.622938" lon="0.470625">
        <ele>2031.000000</ele>
        <time>2021-09-05T11:20:45Z</time>
      </trkpt>
      <trkpt lat="42.622918" lon="0.470632">
        <ele>2031.000000</ele>
        <time>2021-09-05T11:20:46Z</time>
      </trkpt>
      <trkpt lat="42.622915" lon="0.470638">
        <ele>2031.000000</ele>
        <time>2021-09-05T11:20:47Z</time>
      </trkpt>
      <trkpt lat="42.622911" lon="0.470650">
        <ele>2031.000000</ele>
        <time>2021-09-05T11:20:48Z</time>
      </trkpt>
      <trkpt lat="42.622907" lon="0.470658">
        <ele>2031.000000</ele>
        <time>2021-09-05T11:20:49Z</time>
      </trkpt>
      <trkpt lat="42.622905" lon="0.470670">
        <ele>2031.000000</ele>
        <time>2021-09-05T11:20:50Z</time>
      </trkpt>
      <trkpt lat="42.622901" lon="0.470680">
        <ele>2031.000000</ele>
        <time>2021-09-05T11:20:51Z</time>
      </trkpt>
      <trkpt lat="42.622895" lon="0.470693">
        <ele>2031.000000</ele>
        <time>2021-09-05T11:20:52Z</time>
      </trkpt>
      <trkpt lat="42.622885" lon="0.470703">
        <ele>2032.000000</ele>
        <time>2021-09-05T11:20:53Z</time>
      </trkpt>
      <trkpt lat="42.622877" lon="0.470707">
        <ele>2032.000000</ele>
        <time>2021-09-05T11:20:54Z</time>
      </trkpt>
      <trkpt lat="42.622871" lon="0.470713">
        <ele>2032.000000</ele>
        <time>2021-09-05T11:20:55Z</time>
      </trkpt>
      <trkpt lat="42.622868" lon="0.470725">
        <ele>2032.000000</ele>
        <time>2021-09-05T11:20:56Z</time>
      </trkpt>
      <trkpt lat="42.622869" lon="0.470730">
        <ele>2032.000000</ele>
        <time>2021-09-05T11:20:57Z</time>
      </trkpt>
      <trkpt lat="42.622867" lon="0.470732">
        <ele>2032.000000</ele>
        <time>2021-09-05T11:20:58Z</time>
      </trkpt>
      <trkpt lat="42.622870" lon="0.470732">
        <ele>2032.000000</ele>
        <time>2021-09-05T11:20:59Z</time>
      </trkpt>
      <trkpt lat="42.622862" lon="0.470735">
        <ele>2032.000000</ele>
        <time>2021-09-05T11:21:00Z</time>
      </trkpt>
      <trkpt lat="42.622857" lon="0.470745">
        <ele>2032.000000</ele>
        <time>2021-09-05T11:21:01Z</time>
      </trkpt>
      <trkpt lat="42.622858" lon="0.470752">
        <ele>2032.000000</ele>
        <time>2021-09-05T11:21:02Z</time>
      </trkpt>
      <trkpt lat="42.622860" lon="0.470765">
        <ele>2032.000000</ele>
        <time>2021-09-05T11:21:04Z</time>
      </trkpt>
      <trkpt lat="42.622858" lon="0.470780">
        <ele>2032.000000</ele>
        <time>2021-09-05T11:21:04Z</time>
      </trkpt>
      <trkpt lat="42.622862" lon="0.470797">
        <ele>2032.000000</ele>
        <time>2021-09-05T11:21:05Z</time>
      </trkpt>
      <trkpt lat="42.622862" lon="0.470805">
        <ele>2033.000000</ele>
        <time>2021-09-05T11:21:06Z</time>
      </trkpt>
      <trkpt lat="42.622860" lon="0.470818">
        <ele>2033.000000</ele>
        <time>2021-09-05T11:21:07Z</time>
      </trkpt>
      <trkpt lat="42.622860" lon="0.470830">
        <ele>2033.000000</ele>
        <time>2021-09-05T11:21:08Z</time>
      </trkpt>
      <trkpt lat="42.622861" lon="0.470838">
        <ele>2033.000000</ele>
        <time>2021-09-05T11:21:09Z</time>
      </trkpt>
      <trkpt lat="42.622857" lon="0.470850">
        <ele>2033.000000</ele>
        <time>2021-09-05T11:21:10Z</time>
      </trkpt>
      <trkpt lat="42.622852" lon="0.470857">
        <ele>2033.000000</ele>
        <time>2021-09-05T11:21:11Z</time>
      </trkpt>
      <trkpt lat="42.622833" lon="0.470862">
        <ele>2033.000000</ele>
        <time>2021-09-05T11:21:12Z</time>
      </trkpt>
      <trkpt lat="42.622825" lon="0.470867">
        <ele>2033.000000</ele>
        <time>2021-09-05T11:21:13Z</time>
      </trkpt>
      <trkpt lat="42.622814" lon="0.470873">
        <ele>2033.000000</ele>
        <time>2021-09-05T11:21:14Z</time>
      </trkpt>
      <trkpt lat="42.622806" lon="0.470883">
        <ele>2033.000000</ele>
        <time>2021-09-05T11:21:15Z</time>
      </trkpt>
      <trkpt lat="42.622800" lon="0.470885">
        <ele>2033.000000</ele>
        <time>2021-09-05T11:21:16Z</time>
      </trkpt>
      <trkpt lat="42.622792" lon="0.470892">
        <ele>2033.000000</ele>
        <time>2021-09-05T11:21:17Z</time>
      </trkpt>
      <trkpt lat="42.622787" lon="0.470899">
        <ele>2033.000000</ele>
        <time>2021-09-05T11:21:18Z</time>
      </trkpt>
      <trkpt lat="42.622790" lon="0.470918">
        <ele>2033.000000</ele>
        <time>2021-09-05T11:21:19Z</time>
      </trkpt>
      <trkpt lat="42.622783" lon="0.470942">
        <ele>2033.000000</ele>
        <time>2021-09-05T11:21:20Z</time>
      </trkpt>
      <trkpt lat="42.622782" lon="0.470955">
        <ele>2033.000000</ele>
        <time>2021-09-05T11:21:21Z</time>
      </trkpt>
      <trkpt lat="42.622787" lon="0.470975">
        <ele>2033.000000</ele>
        <time>2021-09-05T11:21:22Z</time>
      </trkpt>
      <trkpt lat="42.622778" lon="0.470988">
        <ele>2033.000000</ele>
        <time>2021-09-05T11:21:23Z</time>
      </trkpt>
      <trkpt lat="42.622778" lon="0.471003">
        <ele>2033.000000</ele>
        <time>2021-09-05T11:21:24Z</time>
      </trkpt>
      <trkpt lat="42.622775" lon="0.471015">
        <ele>2033.000000</ele>
        <time>2021-09-05T11:21:25Z</time>
      </trkpt>
      <trkpt lat="42.622769" lon="0.471023">
        <ele>2033.000000</ele>
        <time>2021-09-05T11:21:27Z</time>
      </trkpt>
      <trkpt lat="42.622763" lon="0.471032">
        <ele>2033.000000</ele>
        <time>2021-09-05T11:21:27Z</time>
      </trkpt>
      <trkpt lat="42.622760" lon="0.471040">
        <ele>2033.000000</ele>
        <time>2021-09-05T11:21:28Z</time>
      </trkpt>
      <trkpt lat="42.622755" lon="0.471047">
        <ele>2033.000000</ele>
        <time>2021-09-05T11:21:29Z</time>
      </trkpt>
      <trkpt lat="42.622749" lon="0.471057">
        <ele>2033.000000</ele>
        <time>2021-09-05T11:21:30Z</time>
      </trkpt>
      <trkpt lat="42.622745" lon="0.471072">
        <ele>2033.000000</ele>
        <time>2021-09-05T11:21:31Z</time>
      </trkpt>
      <trkpt lat="42.622742" lon="0.471087">
        <ele>2033.000000</ele>
        <time>2021-09-05T11:21:33Z</time>
      </trkpt>
      <trkpt lat="42.622740" lon="0.471095">
        <ele>2033.000000</ele>
        <time>2021-09-05T11:21:33Z</time>
      </trkpt>
      <trkpt lat="42.622739" lon="0.471105">
        <ele>2033.000000</ele>
        <time>2021-09-05T11:21:34Z</time>
      </trkpt>
      <trkpt lat="42.622739" lon="0.471115">
        <ele>2033.000000</ele>
        <time>2021-09-05T11:21:35Z</time>
      </trkpt>
      <trkpt lat="42.622748" lon="0.471120">
        <ele>2033.000000</ele>
        <time>2021-09-05T11:21:36Z</time>
      </trkpt>
      <trkpt lat="42.622748" lon="0.471133">
        <ele>2033.000000</ele>
        <time>2021-09-05T11:21:37Z</time>
      </trkpt>
      <trkpt lat="42.622743" lon="0.471142">
        <ele>2033.000000</ele>
        <time>2021-09-05T11:21:38Z</time>
      </trkpt>
      <trkpt lat="42.622736" lon="0.471143">
        <ele>2033.000000</ele>
        <time>2021-09-05T11:21:39Z</time>
      </trkpt>
      <trkpt lat="42.622722" lon="0.471147">
        <ele>2033.000000</ele>
        <time>2021-09-05T11:21:40Z</time>
      </trkpt>
      <trkpt lat="42.622718" lon="0.471152">
        <ele>2033.000000</ele>
        <time>2021-09-05T11:21:41Z</time>
      </trkpt>
      <trkpt lat="42.622722" lon="0.471160">
        <ele>2033.000000</ele>
        <time>2021-09-05T11:21:42Z</time>
      </trkpt>
      <trkpt lat="42.622726" lon="0.471172">
        <ele>2033.000000</ele>
        <time>2021-09-05T11:21:43Z</time>
      </trkpt>
      <trkpt lat="42.622732" lon="0.471182">
        <ele>2033.000000</ele>
        <time>2021-09-05T11:21:44Z</time>
      </trkpt>
      <trkpt lat="42.622738" lon="0.471193">
        <ele>2033.000000</ele>
        <time>2021-09-05T11:21:45Z</time>
      </trkpt>
      <trkpt lat="42.622738" lon="0.471203">
        <ele>2033.000000</ele>
        <time>2021-09-05T11:21:47Z</time>
      </trkpt>
      <trkpt lat="42.622735" lon="0.471217">
        <ele>2033.000000</ele>
        <time>2021-09-05T11:21:47Z</time>
      </trkpt>
      <trkpt lat="42.622722" lon="0.471232">
        <ele>2033.000000</ele>
        <time>2021-09-05T11:21:48Z</time>
      </trkpt>
      <trkpt lat="42.622712" lon="0.471247">
        <ele>2033.000000</ele>
        <time>2021-09-05T11:21:49Z</time>
      </trkpt>
      <trkpt lat="42.622707" lon="0.471262">
        <ele>2033.000000</ele>
        <time>2021-09-05T11:21:50Z</time>
      </trkpt>
      <trkpt lat="42.622702" lon="0.471278">
        <ele>2033.000000</ele>
        <time>2021-09-05T11:21:51Z</time>
      </trkpt>
      <trkpt lat="42.622696" lon="0.471295">
        <ele>2033.000000</ele>
        <time>2021-09-05T11:21:52Z</time>
      </trkpt>
      <trkpt lat="42.622692" lon="0.471307">
        <ele>2033.000000</ele>
        <time>2021-09-05T11:21:53Z</time>
      </trkpt>
      <trkpt lat="42.622687" lon="0.471315">
        <ele>2033.000000</ele>
        <time>2021-09-05T11:21:54Z</time>
      </trkpt>
      <trkpt lat="42.622683" lon="0.471327">
        <ele>2033.000000</ele>
        <time>2021-09-05T11:21:55Z</time>
      </trkpt>
      <trkpt lat="42.622679" lon="0.471335">
        <ele>2033.000000</ele>
        <time>2021-09-05T11:21:56Z</time>
      </trkpt>
      <trkpt lat="42.622671" lon="0.471342">
        <ele>2033.000000</ele>
        <time>2021-09-05T11:21:57Z</time>
      </trkpt>
      <trkpt lat="42.622653" lon="0.471340">
        <ele>2033.000000</ele>
        <time>2021-09-05T11:21:58Z</time>
      </trkpt>
      <trkpt lat="42.622632" lon="0.471338">
        <ele>2031.000000</ele>
        <time>2021-09-05T11:21:59Z</time>
      </trkpt>
      <trkpt lat="42.622617" lon="0.471337">
        <ele>2031.000000</ele>
        <time>2021-09-05T11:22:00Z</time>
      </trkpt>
      <trkpt lat="42.622612" lon="0.471350">
        <ele>2031.000000</ele>
        <time>2021-09-05T11:22:01Z</time>
      </trkpt>
      <trkpt lat="42.622607" lon="0.471363">
        <ele>2031.000000</ele>
        <time>2021-09-05T11:22:02Z</time>
      </trkpt>
      <trkpt lat="42.622605" lon="0.471378">
        <ele>2031.000000</ele>
        <time>2021-09-05T11:22:03Z</time>
      </trkpt>
      <trkpt lat="42.622603" lon="0.471390">
        <ele>2031.000000</ele>
        <time>2021-09-05T11:22:04Z</time>
      </trkpt>
      <trkpt lat="42.622595" lon="0.471397">
        <ele>2031.000000</ele>
        <time>2021-09-05T11:22:05Z</time>
      </trkpt>
      <trkpt lat="42.622585" lon="0.471402">
        <ele>2031.000000</ele>
        <time>2021-09-05T11:22:06Z</time>
      </trkpt>
      <trkpt lat="42.622580" lon="0.471406">
        <ele>2031.000000</ele>
        <time>2021-09-05T11:22:07Z</time>
      </trkpt>
      <trkpt lat="42.622577" lon="0.471409">
        <ele>2031.000000</ele>
        <time>2021-09-05T11:22:08Z</time>
      </trkpt>
      <trkpt lat="42.622573" lon="0.471413">
        <ele>2031.000000</ele>
        <time>2021-09-05T11:22:09Z</time>
      </trkpt>
      <trkpt lat="42.622570" lon="0.471417">
        <ele>2031.000000</ele>
        <time>2021-09-05T11:22:11Z</time>
      </trkpt>
      <trkpt lat="42.622565" lon="0.471423">
        <ele>2031.000000</ele>
        <time>2021-09-05T11:22:11Z</time>
      </trkpt>
      <trkpt lat="42.622555" lon="0.471430">
        <ele>2031.000000</ele>
        <time>2021-09-05T11:22:12Z</time>
      </trkpt>
      <trkpt lat="42.622553" lon="0.471423">
        <ele>2031.000000</ele>
        <time>2021-09-05T11:22:13Z</time>
      </trkpt>
      <trkpt lat="42.622540" lon="0.471417">
        <ele>2030.000000</ele>
        <time>2021-09-05T11:22:14Z</time>
      </trkpt>
      <trkpt lat="42.622527" lon="0.471413">
        <ele>2030.000000</ele>
        <time>2021-09-05T11:22:15Z</time>
      </trkpt>
      <trkpt lat="42.622517" lon="0.471411">
        <ele>2030.000000</ele>
        <time>2021-09-05T11:22:16Z</time>
      </trkpt>
      <trkpt lat="42.622510" lon="0.471409">
        <ele>2030.000000</ele>
        <time>2021-09-05T11:22:17Z</time>
      </trkpt>
      <trkpt lat="42.622505" lon="0.471407">
        <ele>2030.000000</ele>
        <time>2021-09-05T11:22:18Z</time>
      </trkpt>
      <trkpt lat="42.622497" lon="0.471405">
        <ele>2030.000000</ele>
        <time>2021-09-05T11:22:19Z</time>
      </trkpt>
      <trkpt lat="42.622490" lon="0.471405">
        <ele>2030.000000</ele>
        <time>2021-09-05T11:22:20Z</time>
      </trkpt>
      <trkpt lat="42.622478" lon="0.471407">
        <ele>2030.000000</ele>
        <time>2021-09-05T11:22:21Z</time>
      </trkpt>
      <trkpt lat="42.622473" lon="0.471408">
        <ele>2030.000000</ele>
        <time>2021-09-05T11:22:22Z</time>
      </trkpt>
      <trkpt lat="42.622460" lon="0.471407">
        <ele>2030.000000</ele>
        <time>2021-09-05T11:22:23Z</time>
      </trkpt>
      <trkpt lat="42.622448" lon="0.471405">
        <ele>2030.000000</ele>
        <time>2021-09-05T11:22:24Z</time>
      </trkpt>
      <trkpt lat="42.622437" lon="0.471406">
        <ele>2030.000000</ele>
        <time>2021-09-05T11:22:25Z</time>
      </trkpt>
      <trkpt lat="42.622432" lon="0.471405">
        <ele>2029.000000</ele>
        <time>2021-09-05T11:22:26Z</time>
      </trkpt>
      <trkpt lat="42.622425" lon="0.471408">
        <ele>2029.000000</ele>
        <time>2021-09-05T11:22:27Z</time>
      </trkpt>
      <trkpt lat="42.622422" lon="0.471411">
        <ele>2029.000000</ele>
        <time>2021-09-05T11:22:28Z</time>
      </trkpt>
      <trkpt lat="42.622420" lon="0.471423">
        <ele>2029.000000</ele>
        <time>2021-09-05T11:22:29Z</time>
      </trkpt>
      <trkpt lat="42.622413" lon="0.471430">
        <ele>2029.000000</ele>
        <time>2021-09-05T11:22:30Z</time>
      </trkpt>
      <trkpt lat="42.622408" lon="0.471440">
        <ele>2029.000000</ele>
        <time>2021-09-05T11:22:31Z</time>
      </trkpt>
      <trkpt lat="42.622402" lon="0.471447">
        <ele>2029.000000</ele>
        <time>2021-09-05T11:22:33Z</time>
      </trkpt>
      <trkpt lat="42.622402" lon="0.471450">
        <ele>2028.000000</ele>
        <time>2021-09-05T11:22:33Z</time>
      </trkpt>
      <trkpt lat="42.622397" lon="0.471460">
        <ele>2028.000000</ele>
        <time>2021-09-05T11:22:34Z</time>
      </trkpt>
      <trkpt lat="42.622397" lon="0.471472">
        <ele>2028.000000</ele>
        <time>2021-09-05T11:22:35Z</time>
      </trkpt>
      <trkpt lat="42.622400" lon="0.471488">
        <ele>2028.000000</ele>
        <time>2021-09-05T11:22:36Z</time>
      </trkpt>
      <trkpt lat="42.622405" lon="0.471507">
        <ele>2027.000000</ele>
        <time>2021-09-05T11:22:37Z</time>
      </trkpt>
      <trkpt lat="42.622398" lon="0.471513">
        <ele>2027.000000</ele>
        <time>2021-09-05T11:22:38Z</time>
      </trkpt>
      <trkpt lat="42.622399" lon="0.471522">
        <ele>2027.000000</ele>
        <time>2021-09-05T11:22:39Z</time>
      </trkpt>
      <trkpt lat="42.622397" lon="0.471525">
        <ele>2027.000000</ele>
        <time>2021-09-05T11:22:40Z</time>
      </trkpt>
      <trkpt lat="42.622391" lon="0.471537">
        <ele>2027.000000</ele>
        <time>2021-09-05T11:22:41Z</time>
      </trkpt>
      <trkpt lat="42.622390" lon="0.471550">
        <ele>2027.000000</ele>
        <time>2021-09-05T11:22:42Z</time>
      </trkpt>
      <trkpt lat="42.622387" lon="0.471560">
        <ele>2027.000000</ele>
        <time>2021-09-05T11:22:43Z</time>
      </trkpt>
      <trkpt lat="42.622382" lon="0.471570">
        <ele>2026.000000</ele>
        <time>2021-09-05T11:22:44Z</time>
      </trkpt>
      <trkpt lat="42.622373" lon="0.471577">
        <ele>2026.000000</ele>
        <time>2021-09-05T11:22:45Z</time>
      </trkpt>
      <trkpt lat="42.622368" lon="0.471582">
        <ele>2026.000000</ele>
        <time>2021-09-05T11:22:46Z</time>
      </trkpt>
      <trkpt lat="42.622367" lon="0.471583">
        <ele>2026.000000</ele>
        <time>2021-09-05T11:22:47Z</time>
      </trkpt>
      <trkpt lat="42.622362" lon="0.471583">
        <ele>2026.000000</ele>
        <time>2021-09-05T11:22:48Z</time>
      </trkpt>
      <trkpt lat="42.622355" lon="0.471587">
        <ele>2026.000000</ele>
        <time>2021-09-05T11:22:49Z</time>
      </trkpt>
      <trkpt lat="42.622357" lon="0.471587">
        <ele>2025.000000</ele>
        <time>2021-09-05T11:22:50Z</time>
      </trkpt>
      <trkpt lat="42.622357" lon="0.471589">
        <ele>2025.000000</ele>
        <time>2021-09-05T11:22:51Z</time>
      </trkpt>
      <trkpt lat="42.622353" lon="0.471595">
        <ele>2025.000000</ele>
        <time>2021-09-05T11:22:52Z</time>
      </trkpt>
      <trkpt lat="42.622348" lon="0.471601">
        <ele>2025.000000</ele>
        <time>2021-09-05T11:22:54Z</time>
      </trkpt>
      <trkpt lat="42.622335" lon="0.471601">
        <ele>2024.000000</ele>
        <time>2021-09-05T11:22:54Z</time>
      </trkpt>
      <trkpt lat="42.622323" lon="0.471592">
        <ele>2024.000000</ele>
        <time>2021-09-05T11:22:55Z</time>
      </trkpt>
      <trkpt lat="42.622318" lon="0.471588">
        <ele>2024.000000</ele>
        <time>2021-09-05T11:22:56Z</time>
      </trkpt>
      <trkpt lat="42.622313" lon="0.471593">
        <ele>2024.000000</ele>
        <time>2021-09-05T11:22:57Z</time>
      </trkpt>
      <trkpt lat="42.622308" lon="0.471603">
        <ele>2024.000000</ele>
        <time>2021-09-05T11:22:58Z</time>
      </trkpt>
      <trkpt lat="42.622298" lon="0.471611">
        <ele>2024.000000</ele>
        <time>2021-09-05T11:22:59Z</time>
      </trkpt>
      <trkpt lat="42.622288" lon="0.471610">
        <ele>2024.000000</ele>
        <time>2021-09-05T11:23:00Z</time>
      </trkpt>
      <trkpt lat="42.622270" lon="0.471611">
        <ele>2024.000000</ele>
        <time>2021-09-05T11:23:01Z</time>
      </trkpt>
      <trkpt lat="42.622260" lon="0.471613">
        <ele>2024.000000</ele>
        <time>2021-09-05T11:23:02Z</time>
      </trkpt>
      <trkpt lat="42.622245" lon="0.471615">
        <ele>2023.000000</ele>
        <time>2021-09-05T11:23:03Z</time>
      </trkpt>
      <trkpt lat="42.622237" lon="0.471617">
        <ele>2023.000000</ele>
        <time>2021-09-05T11:23:04Z</time>
      </trkpt>
      <trkpt lat="42.622230" lon="0.471617">
        <ele>2023.000000</ele>
        <time>2021-09-05T11:23:05Z</time>
      </trkpt>
      <trkpt lat="42.622225" lon="0.471617">
        <ele>2023.000000</ele>
        <time>2021-09-05T11:23:06Z</time>
      </trkpt>
      <trkpt lat="42.622212" lon="0.471618">
        <ele>2022.000000</ele>
        <time>2021-09-05T11:23:07Z</time>
      </trkpt>
      <trkpt lat="42.622198" lon="0.471621">
        <ele>2022.000000</ele>
        <time>2021-09-05T11:23:08Z</time>
      </trkpt>
      <trkpt lat="42.622188" lon="0.471625">
        <ele>2022.000000</ele>
        <time>2021-09-05T11:23:09Z</time>
      </trkpt>
      <trkpt lat="42.622172" lon="0.471640">
        <ele>2022.000000</ele>
        <time>2021-09-05T11:23:10Z</time>
      </trkpt>
      <trkpt lat="42.622163" lon="0.471645">
        <ele>2021.000000</ele>
        <time>2021-09-05T11:23:11Z</time>
      </trkpt>
      <trkpt lat="42.622157" lon="0.471651">
        <ele>2021.000000</ele>
        <time>2021-09-05T11:23:12Z</time>
      </trkpt>
      <trkpt lat="42.622148" lon="0.471655">
        <ele>2021.000000</ele>
        <time>2021-09-05T11:23:13Z</time>
      </trkpt>
      <trkpt lat="42.622138" lon="0.471662">
        <ele>2021.000000</ele>
        <time>2021-09-05T11:23:14Z</time>
      </trkpt>
      <trkpt lat="42.622137" lon="0.471666">
        <ele>2021.000000</ele>
        <time>2021-09-05T11:23:15Z</time>
      </trkpt>
      <trkpt lat="42.622128" lon="0.471677">
        <ele>2021.000000</ele>
        <time>2021-09-05T11:23:16Z</time>
      </trkpt>
      <trkpt lat="42.622117" lon="0.471689">
        <ele>2021.000000</ele>
        <time>2021-09-05T11:23:18Z</time>
      </trkpt>
      <trkpt lat="42.622107" lon="0.471698">
        <ele>2021.000000</ele>
        <time>2021-09-05T11:23:18Z</time>
      </trkpt>
      <trkpt lat="42.622098" lon="0.471707">
        <ele>2021.000000</ele>
        <time>2021-09-05T11:23:19Z</time>
      </trkpt>
      <trkpt lat="42.622092" lon="0.471716">
        <ele>2021.000000</ele>
        <time>2021-09-05T11:23:20Z</time>
      </trkpt>
      <trkpt lat="42.622085" lon="0.471723">
        <ele>2021.000000</ele>
        <time>2021-09-05T11:23:21Z</time>
      </trkpt>
      <trkpt lat="42.622075" lon="0.471735">
        <ele>2021.000000</ele>
        <time>2021-09-05T11:23:22Z</time>
      </trkpt>
      <trkpt lat="42.622070" lon="0.471743">
        <ele>2021.000000</ele>
        <time>2021-09-05T11:23:23Z</time>
      </trkpt>
      <trkpt lat="42.622063" lon="0.471752">
        <ele>2021.000000</ele>
        <time>2021-09-05T11:23:24Z</time>
      </trkpt>
      <trkpt lat="42.622052" lon="0.471764">
        <ele>2021.000000</ele>
        <time>2021-09-05T11:23:25Z</time>
      </trkpt>
      <trkpt lat="42.622037" lon="0.471779">
        <ele>2021.000000</ele>
        <time>2021-09-05T11:23:26Z</time>
      </trkpt>
      <trkpt lat="42.622025" lon="0.471790">
        <ele>2021.000000</ele>
        <time>2021-09-05T11:23:27Z</time>
      </trkpt>
      <trkpt lat="42.622027" lon="0.471795">
        <ele>2021.000000</ele>
        <time>2021-09-05T11:23:28Z</time>
      </trkpt>
      <trkpt lat="42.622023" lon="0.471803">
        <ele>2021.000000</ele>
        <time>2021-09-05T11:23:29Z</time>
      </trkpt>
      <trkpt lat="42.622020" lon="0.471810">
        <ele>2021.000000</ele>
        <time>2021-09-05T11:23:30Z</time>
      </trkpt>
      <trkpt lat="42.622008" lon="0.471818">
        <ele>2021.000000</ele>
        <time>2021-09-05T11:23:31Z</time>
      </trkpt>
      <trkpt lat="42.621995" lon="0.471825">
        <ele>2021.000000</ele>
        <time>2021-09-05T11:23:32Z</time>
      </trkpt>
      <trkpt lat="42.621990" lon="0.471840">
        <ele>2021.000000</ele>
        <time>2021-09-05T11:23:33Z</time>
      </trkpt>
      <trkpt lat="42.621985" lon="0.471850">
        <ele>2021.000000</ele>
        <time>2021-09-05T11:23:34Z</time>
      </trkpt>
      <trkpt lat="42.621980" lon="0.471860">
        <ele>2021.000000</ele>
        <time>2021-09-05T11:23:35Z</time>
      </trkpt>
      <trkpt lat="42.621976" lon="0.471872">
        <ele>2021.000000</ele>
        <time>2021-09-05T11:23:36Z</time>
      </trkpt>
      <trkpt lat="42.621972" lon="0.471873">
        <ele>2021.000000</ele>
        <time>2021-09-05T11:23:38Z</time>
      </trkpt>
      <trkpt lat="42.621969" lon="0.471877">
        <ele>2021.000000</ele>
        <time>2021-09-05T11:23:38Z</time>
      </trkpt>
      <trkpt lat="42.621967" lon="0.471887">
        <ele>2021.000000</ele>
        <time>2021-09-05T11:23:40Z</time>
      </trkpt>
      <trkpt lat="42.621967" lon="0.471893">
        <ele>2021.000000</ele>
        <time>2021-09-05T11:23:41Z</time>
      </trkpt>
      <trkpt lat="42.621966" lon="0.471900">
        <ele>2021.000000</ele>
        <time>2021-09-05T11:23:42Z</time>
      </trkpt>
      <trkpt lat="42.621966" lon="0.471908">
        <ele>2021.000000</ele>
        <time>2021-09-05T11:23:43Z</time>
      </trkpt>
      <trkpt lat="42.621966" lon="0.471913">
        <ele>2021.000000</ele>
        <time>2021-09-05T11:23:44Z</time>
      </trkpt>
      <trkpt lat="42.621965" lon="0.471918">
        <ele>2021.000000</ele>
        <time>2021-09-05T11:23:45Z</time>
      </trkpt>
      <trkpt lat="42.621965" lon="0.471930">
        <ele>2021.000000</ele>
        <time>2021-09-05T11:23:46Z</time>
      </trkpt>
      <trkpt lat="42.621966" lon="0.471937">
        <ele>2021.000000</ele>
        <time>2021-09-05T11:23:47Z</time>
      </trkpt>
      <trkpt lat="42.621980" lon="0.471928">
        <ele>2021.000000</ele>
        <time>2021-09-05T11:23:48Z</time>
      </trkpt>
      <trkpt lat="42.621977" lon="0.471932">
        <ele>2021.000000</ele>
        <time>2021-09-05T11:23:49Z</time>
      </trkpt>
      <trkpt lat="42.621971" lon="0.471942">
        <ele>2021.000000</ele>
        <time>2021-09-05T11:23:50Z</time>
      </trkpt>
      <trkpt lat="42.621966" lon="0.471950">
        <ele>2021.000000</ele>
        <time>2021-09-05T11:23:51Z</time>
      </trkpt>
      <trkpt lat="42.621958" lon="0.471953">
        <ele>2021.000000</ele>
        <time>2021-09-05T11:23:52Z</time>
      </trkpt>
      <trkpt lat="42.621953" lon="0.471957">
        <ele>2021.000000</ele>
        <time>2021-09-05T11:23:53Z</time>
      </trkpt>
      <trkpt lat="42.621948" lon="0.471963">
        <ele>2019.000000</ele>
        <time>2021-09-05T11:23:54Z</time>
      </trkpt>
      <trkpt lat="42.621953" lon="0.471973">
        <ele>2019.000000</ele>
        <time>2021-09-05T11:23:55Z</time>
      </trkpt>
      <trkpt lat="42.621953" lon="0.471992">
        <ele>2019.000000</ele>
        <time>2021-09-05T11:23:56Z</time>
      </trkpt>
      <trkpt lat="42.621953" lon="0.472005">
        <ele>2019.000000</ele>
        <time>2021-09-05T11:23:57Z</time>
      </trkpt>
      <trkpt lat="42.621953" lon="0.472018">
        <ele>2019.000000</ele>
        <time>2021-09-05T11:23:57Z</time>
      </trkpt>
      <trkpt lat="42.621950" lon="0.472033">
        <ele>2018.000000</ele>
        <time>2021-09-05T11:23:58Z</time>
      </trkpt>
      <trkpt lat="42.621943" lon="0.472047">
        <ele>2018.000000</ele>
        <time>2021-09-05T11:24:00Z</time>
      </trkpt>
      <trkpt lat="42.621935" lon="0.472052">
        <ele>2018.000000</ele>
        <time>2021-09-05T11:24:00Z</time>
      </trkpt>
      <trkpt lat="42.621928" lon="0.472055">
        <ele>2018.000000</ele>
        <time>2021-09-05T11:24:01Z</time>
      </trkpt>
      <trkpt lat="42.621917" lon="0.472058">
        <ele>2017.000000</ele>
        <time>2021-09-05T11:24:02Z</time>
      </trkpt>
      <trkpt lat="42.621907" lon="0.472062">
        <ele>2017.000000</ele>
        <time>2021-09-05T11:24:03Z</time>
      </trkpt>
      <trkpt lat="42.621895" lon="0.472063">
        <ele>2017.000000</ele>
        <time>2021-09-05T11:24:04Z</time>
      </trkpt>
      <trkpt lat="42.621883" lon="0.472065">
        <ele>2017.000000</ele>
        <time>2021-09-05T11:24:05Z</time>
      </trkpt>
      <trkpt lat="42.621870" lon="0.472069">
        <ele>2017.000000</ele>
        <time>2021-09-05T11:24:06Z</time>
      </trkpt>
      <trkpt lat="42.621860" lon="0.472075">
        <ele>2017.000000</ele>
        <time>2021-09-05T11:24:07Z</time>
      </trkpt>
      <trkpt lat="42.621843" lon="0.472085">
        <ele>2016.000000</ele>
        <time>2021-09-05T11:24:08Z</time>
      </trkpt>
      <trkpt lat="42.621838" lon="0.472091">
        <ele>2016.000000</ele>
        <time>2021-09-05T11:24:09Z</time>
      </trkpt>
      <trkpt lat="42.621835" lon="0.472098">
        <ele>2016.000000</ele>
        <time>2021-09-05T11:24:10Z</time>
      </trkpt>
      <trkpt lat="42.621827" lon="0.472127">
        <ele>2016.000000</ele>
        <time>2021-09-05T11:24:11Z</time>
      </trkpt>
      <trkpt lat="42.621818" lon="0.472140">
        <ele>2016.000000</ele>
        <time>2021-09-05T11:24:12Z</time>
      </trkpt>
      <trkpt lat="42.621807" lon="0.472155">
        <ele>2016.000000</ele>
        <time>2021-09-05T11:24:13Z</time>
      </trkpt>
      <trkpt lat="42.621800" lon="0.472162">
        <ele>2016.000000</ele>
        <time>2021-09-05T11:24:14Z</time>
      </trkpt>
      <trkpt lat="42.621798" lon="0.472169">
        <ele>2016.000000</ele>
        <time>2021-09-05T11:24:15Z</time>
      </trkpt>
      <trkpt lat="42.621795" lon="0.472192">
        <ele>2016.000000</ele>
        <time>2021-09-05T11:24:16Z</time>
      </trkpt>
      <trkpt lat="42.621793" lon="0.472205">
        <ele>2016.000000</ele>
        <time>2021-09-05T11:24:17Z</time>
      </trkpt>
      <trkpt lat="42.621787" lon="0.472222">
        <ele>2016.000000</ele>
        <time>2021-09-05T11:24:18Z</time>
      </trkpt>
      <trkpt lat="42.621781" lon="0.472237">
        <ele>2015.000000</ele>
        <time>2021-09-05T11:24:19Z</time>
      </trkpt>
      <trkpt lat="42.621775" lon="0.472252">
        <ele>2015.000000</ele>
        <time>2021-09-05T11:24:20Z</time>
      </trkpt>
      <trkpt lat="42.621771" lon="0.472270">
        <ele>2015.000000</ele>
        <time>2021-09-05T11:24:21Z</time>
      </trkpt>
      <trkpt lat="42.621767" lon="0.472278">
        <ele>2015.000000</ele>
        <time>2021-09-05T11:24:22Z</time>
      </trkpt>
      <trkpt lat="42.621763" lon="0.472290">
        <ele>2015.000000</ele>
        <time>2021-09-05T11:24:24Z</time>
      </trkpt>
      <trkpt lat="42.621759" lon="0.472302">
        <ele>2015.000000</ele>
        <time>2021-09-05T11:24:24Z</time>
      </trkpt>
      <trkpt lat="42.621753" lon="0.472313">
        <ele>2015.000000</ele>
        <time>2021-09-05T11:24:25Z</time>
      </trkpt>
      <trkpt lat="42.621746" lon="0.472330">
        <ele>2015.000000</ele>
        <time>2021-09-05T11:24:26Z</time>
      </trkpt>
      <trkpt lat="42.621742" lon="0.472347">
        <ele>2015.000000</ele>
        <time>2021-09-05T11:24:27Z</time>
      </trkpt>
      <trkpt lat="42.621740" lon="0.472357">
        <ele>2015.000000</ele>
        <time>2021-09-05T11:24:28Z</time>
      </trkpt>
      <trkpt lat="42.621739" lon="0.472372">
        <ele>2015.000000</ele>
        <time>2021-09-05T11:24:29Z</time>
      </trkpt>
      <trkpt lat="42.621738" lon="0.472385">
        <ele>2015.000000</ele>
        <time>2021-09-05T11:24:30Z</time>
      </trkpt>
      <trkpt lat="42.621737" lon="0.472398">
        <ele>2015.000000</ele>
        <time>2021-09-05T11:24:31Z</time>
      </trkpt>
      <trkpt lat="42.621738" lon="0.472408">
        <ele>2015.000000</ele>
        <time>2021-09-05T11:24:32Z</time>
      </trkpt>
      <trkpt lat="42.621736" lon="0.472423">
        <ele>2015.000000</ele>
        <time>2021-09-05T11:24:33Z</time>
      </trkpt>
      <trkpt lat="42.621734" lon="0.472438">
        <ele>2015.000000</ele>
        <time>2021-09-05T11:24:34Z</time>
      </trkpt>
      <trkpt lat="42.621731" lon="0.472455">
        <ele>2014.000000</ele>
        <time>2021-09-05T11:24:35Z</time>
      </trkpt>
      <trkpt lat="42.621730" lon="0.472467">
        <ele>2014.000000</ele>
        <time>2021-09-05T11:24:36Z</time>
      </trkpt>
      <trkpt lat="42.621728" lon="0.472473">
        <ele>2014.000000</ele>
        <time>2021-09-05T11:24:37Z</time>
      </trkpt>
      <trkpt lat="42.621725" lon="0.472488">
        <ele>2014.000000</ele>
        <time>2021-09-05T11:24:38Z</time>
      </trkpt>
      <trkpt lat="42.621722" lon="0.472495">
        <ele>2014.000000</ele>
        <time>2021-09-05T11:24:39Z</time>
      </trkpt>
      <trkpt lat="42.621721" lon="0.472503">
        <ele>2014.000000</ele>
        <time>2021-09-05T11:24:40Z</time>
      </trkpt>
      <trkpt lat="42.621719" lon="0.472513">
        <ele>2014.000000</ele>
        <time>2021-09-05T11:24:41Z</time>
      </trkpt>
      <trkpt lat="42.621732" lon="0.472523">
        <ele>2014.000000</ele>
        <time>2021-09-05T11:24:42Z</time>
      </trkpt>
      <trkpt lat="42.621733" lon="0.472533">
        <ele>2014.000000</ele>
        <time>2021-09-05T11:24:44Z</time>
      </trkpt>
      <trkpt lat="42.621732" lon="0.472552">
        <ele>2014.000000</ele>
        <time>2021-09-05T11:24:44Z</time>
      </trkpt>
      <trkpt lat="42.621732" lon="0.472570">
        <ele>2014.000000</ele>
        <time>2021-09-05T11:24:45Z</time>
      </trkpt>
      <trkpt lat="42.621732" lon="0.472588">
        <ele>2014.000000</ele>
        <time>2021-09-05T11:24:46Z</time>
      </trkpt>
      <trkpt lat="42.621732" lon="0.472605">
        <ele>2014.000000</ele>
        <time>2021-09-05T11:24:47Z</time>
      </trkpt>
      <trkpt lat="42.621735" lon="0.472623">
        <ele>2014.000000</ele>
        <time>2021-09-05T11:24:48Z</time>
      </trkpt>
      <trkpt lat="42.621736" lon="0.472647">
        <ele>2013.000000</ele>
        <time>2021-09-05T11:24:49Z</time>
      </trkpt>
      <trkpt lat="42.621734" lon="0.472660">
        <ele>2013.000000</ele>
        <time>2021-09-05T11:24:50Z</time>
      </trkpt>
      <trkpt lat="42.621732" lon="0.472672">
        <ele>2013.000000</ele>
        <time>2021-09-05T11:24:51Z</time>
      </trkpt>
      <trkpt lat="42.621730" lon="0.472682">
        <ele>2013.000000</ele>
        <time>2021-09-05T11:24:52Z</time>
      </trkpt>
      <trkpt lat="42.621729" lon="0.472703">
        <ele>2013.000000</ele>
        <time>2021-09-05T11:24:53Z</time>
      </trkpt>
      <trkpt lat="42.621727" lon="0.472722">
        <ele>2013.000000</ele>
        <time>2021-09-05T11:24:54Z</time>
      </trkpt>
      <trkpt lat="42.621723" lon="0.472735">
        <ele>2013.000000</ele>
        <time>2021-09-05T11:24:55Z</time>
      </trkpt>
      <trkpt lat="42.621703" lon="0.472750">
        <ele>2013.000000</ele>
        <time>2021-09-05T11:24:56Z</time>
      </trkpt>
      <trkpt lat="42.621700" lon="0.472757">
        <ele>2012.000000</ele>
        <time>2021-09-05T11:24:57Z</time>
      </trkpt>
      <trkpt lat="42.621690" lon="0.472772">
        <ele>2012.000000</ele>
        <time>2021-09-05T11:24:58Z</time>
      </trkpt>
      <trkpt lat="42.621681" lon="0.472783">
        <ele>2012.000000</ele>
        <time>2021-09-05T11:24:59Z</time>
      </trkpt>
      <trkpt lat="42.621676" lon="0.472795">
        <ele>2012.000000</ele>
        <time>2021-09-05T11:25:00Z</time>
      </trkpt>
      <trkpt lat="42.621669" lon="0.472805">
        <ele>2012.000000</ele>
        <time>2021-09-05T11:25:01Z</time>
      </trkpt>
      <trkpt lat="42.621658" lon="0.472822">
        <ele>2012.000000</ele>
        <time>2021-09-05T11:25:02Z</time>
      </trkpt>
      <trkpt lat="42.621652" lon="0.472832">
        <ele>2012.000000</ele>
        <time>2021-09-05T11:25:03Z</time>
      </trkpt>
      <trkpt lat="42.621644" lon="0.472847">
        <ele>2012.000000</ele>
        <time>2021-09-05T11:25:04Z</time>
      </trkpt>
      <trkpt lat="42.621639" lon="0.472860">
        <ele>2012.000000</ele>
        <time>2021-09-05T11:25:05Z</time>
      </trkpt>
      <trkpt lat="42.621633" lon="0.472875">
        <ele>2012.000000</ele>
        <time>2021-09-05T11:25:06Z</time>
      </trkpt>
      <trkpt lat="42.621629" lon="0.472882">
        <ele>2012.000000</ele>
        <time>2021-09-05T11:25:08Z</time>
      </trkpt>
      <trkpt lat="42.621623" lon="0.472898">
        <ele>2012.000000</ele>
        <time>2021-09-05T11:25:08Z</time>
      </trkpt>
      <trkpt lat="42.621622" lon="0.472908">
        <ele>2012.000000</ele>
        <time>2021-09-05T11:25:09Z</time>
      </trkpt>
      <trkpt lat="42.621635" lon="0.472917">
        <ele>2012.000000</ele>
        <time>2021-09-05T11:25:10Z</time>
      </trkpt>
      <trkpt lat="42.621633" lon="0.472925">
        <ele>2012.000000</ele>
        <time>2021-09-05T11:25:11Z</time>
      </trkpt>
      <trkpt lat="42.621637" lon="0.472942">
        <ele>2012.000000</ele>
        <time>2021-09-05T11:25:12Z</time>
      </trkpt>
      <trkpt lat="42.621638" lon="0.472958">
        <ele>2012.000000</ele>
        <time>2021-09-05T11:25:13Z</time>
      </trkpt>
      <trkpt lat="42.621637" lon="0.472967">
        <ele>2012.000000</ele>
        <time>2021-09-05T11:25:14Z</time>
      </trkpt>
      <trkpt lat="42.621632" lon="0.472975">
        <ele>2012.000000</ele>
        <time>2021-09-05T11:25:15Z</time>
      </trkpt>
      <trkpt lat="42.621627" lon="0.472995">
        <ele>2012.000000</ele>
        <time>2021-09-05T11:25:16Z</time>
      </trkpt>
      <trkpt lat="42.621623" lon="0.473010">
        <ele>2012.000000</ele>
        <time>2021-09-05T11:25:17Z</time>
      </trkpt>
      <trkpt lat="42.621619" lon="0.473023">
        <ele>2012.000000</ele>
        <time>2021-09-05T11:25:18Z</time>
      </trkpt>
      <trkpt lat="42.621611" lon="0.473030">
        <ele>2012.000000</ele>
        <time>2021-09-05T11:25:19Z</time>
      </trkpt>
      <trkpt lat="42.621604" lon="0.473040">
        <ele>2012.000000</ele>
        <time>2021-09-05T11:25:20Z</time>
      </trkpt>
      <trkpt lat="42.621597" lon="0.473052">
        <ele>2012.000000</ele>
        <time>2021-09-05T11:25:21Z</time>
      </trkpt>
      <trkpt lat="42.621590" lon="0.473058">
        <ele>2012.000000</ele>
        <time>2021-09-05T11:25:22Z</time>
      </trkpt>
      <trkpt lat="42.621584" lon="0.473068">
        <ele>2012.000000</ele>
        <time>2021-09-05T11:25:23Z</time>
      </trkpt>
      <trkpt lat="42.621579" lon="0.473078">
        <ele>2012.000000</ele>
        <time>2021-09-05T11:25:24Z</time>
      </trkpt>
      <trkpt lat="42.621572" lon="0.473097">
        <ele>2012.000000</ele>
        <time>2021-09-05T11:25:25Z</time>
      </trkpt>
      <trkpt lat="42.621582" lon="0.473112">
        <ele>2012.000000</ele>
        <time>2021-09-05T11:25:26Z</time>
      </trkpt>
      <trkpt lat="42.621577" lon="0.473125">
        <ele>2012.000000</ele>
        <time>2021-09-05T11:25:27Z</time>
      </trkpt>
      <trkpt lat="42.621570" lon="0.473135">
        <ele>2012.000000</ele>
        <time>2021-09-05T11:25:28Z</time>
      </trkpt>
      <trkpt lat="42.621565" lon="0.473138">
        <ele>2012.000000</ele>
        <time>2021-09-05T11:25:29Z</time>
      </trkpt>
      <trkpt lat="42.621565" lon="0.473143">
        <ele>2012.000000</ele>
        <time>2021-09-05T11:25:31Z</time>
      </trkpt>
      <trkpt lat="42.621562" lon="0.473160">
        <ele>2012.000000</ele>
        <time>2021-09-05T11:25:31Z</time>
      </trkpt>
      <trkpt lat="42.621556" lon="0.473172">
        <ele>2012.000000</ele>
        <time>2021-09-05T11:25:32Z</time>
      </trkpt>
      <trkpt lat="42.621551" lon="0.473182">
        <ele>2012.000000</ele>
        <time>2021-09-05T11:25:33Z</time>
      </trkpt>
      <trkpt lat="42.621548" lon="0.473185">
        <ele>2012.000000</ele>
        <time>2021-09-05T11:25:34Z</time>
      </trkpt>
      <trkpt lat="42.621537" lon="0.473192">
        <ele>2012.000000</ele>
        <time>2021-09-05T11:25:35Z</time>
      </trkpt>
      <trkpt lat="42.621528" lon="0.473197">
        <ele>2012.000000</ele>
        <time>2021-09-05T11:25:36Z</time>
      </trkpt>
      <trkpt lat="42.621523" lon="0.473205">
        <ele>2012.000000</ele>
        <time>2021-09-05T11:25:37Z</time>
      </trkpt>
      <trkpt lat="42.621512" lon="0.473212">
        <ele>2012.000000</ele>
        <time>2021-09-05T11:25:38Z</time>
      </trkpt>
      <trkpt lat="42.621510" lon="0.473221">
        <ele>2012.000000</ele>
        <time>2021-09-05T11:25:39Z</time>
      </trkpt>
      <trkpt lat="42.621503" lon="0.473235">
        <ele>2012.000000</ele>
        <time>2021-09-05T11:25:40Z</time>
      </trkpt>
      <trkpt lat="42.621500" lon="0.473252">
        <ele>2012.000000</ele>
        <time>2021-09-05T11:25:41Z</time>
      </trkpt>
      <trkpt lat="42.621495" lon="0.473258">
        <ele>2012.000000</ele>
        <time>2021-09-05T11:25:42Z</time>
      </trkpt>
      <trkpt lat="42.621488" lon="0.473262">
        <ele>2012.000000</ele>
        <time>2021-09-05T11:25:43Z</time>
      </trkpt>
      <trkpt lat="42.621485" lon="0.473267">
        <ele>2012.000000</ele>
        <time>2021-09-05T11:25:44Z</time>
      </trkpt>
      <trkpt lat="42.621482" lon="0.473278">
        <ele>2012.000000</ele>
        <time>2021-09-05T11:25:45Z</time>
      </trkpt>
      <trkpt lat="42.621476" lon="0.473287">
        <ele>2011.000000</ele>
        <time>2021-09-05T11:25:46Z</time>
      </trkpt>
      <trkpt lat="42.621474" lon="0.473282">
        <ele>2011.000000</ele>
        <time>2021-09-05T11:25:47Z</time>
      </trkpt>
      <trkpt lat="42.621462" lon="0.473290">
        <ele>2011.000000</ele>
        <time>2021-09-05T11:25:48Z</time>
      </trkpt>
      <trkpt lat="42.621460" lon="0.473295">
        <ele>2011.000000</ele>
        <time>2021-09-05T11:25:49Z</time>
      </trkpt>
      <trkpt lat="42.621462" lon="0.473293">
        <ele>2011.000000</ele>
        <time>2021-09-05T11:25:51Z</time>
      </trkpt>
      <trkpt lat="42.621458" lon="0.473295">
        <ele>2011.000000</ele>
        <time>2021-09-05T11:25:51Z</time>
      </trkpt>
      <trkpt lat="42.621460" lon="0.473295">
        <ele>2010.000000</ele>
        <time>2021-09-05T11:25:52Z</time>
      </trkpt>
      <trkpt lat="42.621458" lon="0.473313">
        <ele>2010.000000</ele>
        <time>2021-09-05T11:25:53Z</time>
      </trkpt>
      <trkpt lat="42.621455" lon="0.473322">
        <ele>2010.000000</ele>
        <time>2021-09-05T11:25:54Z</time>
      </trkpt>
      <trkpt lat="42.621448" lon="0.473327">
        <ele>2010.000000</ele>
        <time>2021-09-05T11:25:55Z</time>
      </trkpt>
      <trkpt lat="42.621433" lon="0.473330">
        <ele>2010.000000</ele>
        <time>2021-09-05T11:25:56Z</time>
      </trkpt>
      <trkpt lat="42.621427" lon="0.473332">
        <ele>2010.000000</ele>
        <time>2021-09-05T11:25:57Z</time>
      </trkpt>
      <trkpt lat="42.621415" lon="0.473337">
        <ele>2009.000000</ele>
        <time>2021-09-05T11:25:58Z</time>
      </trkpt>
      <trkpt lat="42.621412" lon="0.473350">
        <ele>2009.000000</ele>
        <time>2021-09-05T11:25:59Z</time>
      </trkpt>
      <trkpt lat="42.621410" lon="0.473361">
        <ele>2009.000000</ele>
        <time>2021-09-05T11:26:00Z</time>
      </trkpt>
      <trkpt lat="42.621403" lon="0.473380">
        <ele>2009.000000</ele>
        <time>2021-09-05T11:26:01Z</time>
      </trkpt>
      <trkpt lat="42.621398" lon="0.473385">
        <ele>2009.000000</ele>
        <time>2021-09-05T11:26:02Z</time>
      </trkpt>
      <trkpt lat="42.621393" lon="0.473396">
        <ele>2008.000000</ele>
        <time>2021-09-05T11:26:03Z</time>
      </trkpt>
      <trkpt lat="42.621388" lon="0.473405">
        <ele>2008.000000</ele>
        <time>2021-09-05T11:26:04Z</time>
      </trkpt>
      <trkpt lat="42.621387" lon="0.473417">
        <ele>2008.000000</ele>
        <time>2021-09-05T11:26:05Z</time>
      </trkpt>
      <trkpt lat="42.621388" lon="0.473430">
        <ele>2008.000000</ele>
        <time>2021-09-05T11:26:06Z</time>
      </trkpt>
      <trkpt lat="42.621387" lon="0.473440">
        <ele>2008.000000</ele>
        <time>2021-09-05T11:26:07Z</time>
      </trkpt>
      <trkpt lat="42.621385" lon="0.473447">
        <ele>2007.000000</ele>
        <time>2021-09-05T11:26:08Z</time>
      </trkpt>
      <trkpt lat="42.621372" lon="0.473452">
        <ele>2007.000000</ele>
        <time>2021-09-05T11:26:09Z</time>
      </trkpt>
      <trkpt lat="42.621363" lon="0.473458">
        <ele>2007.000000</ele>
        <time>2021-09-05T11:26:10Z</time>
      </trkpt>
      <trkpt lat="42.621360" lon="0.473468">
        <ele>2007.000000</ele>
        <time>2021-09-05T11:26:11Z</time>
      </trkpt>
      <trkpt lat="42.621355" lon="0.473480">
        <ele>2007.000000</ele>
        <time>2021-09-05T11:26:12Z</time>
      </trkpt>
      <trkpt lat="42.621350" lon="0.473489">
        <ele>2007.000000</ele>
        <time>2021-09-05T11:26:13Z</time>
      </trkpt>
      <trkpt lat="42.621340" lon="0.473499">
        <ele>2007.000000</ele>
        <time>2021-09-05T11:26:15Z</time>
      </trkpt>
      <trkpt lat="42.621332" lon="0.473510">
        <ele>2007.000000</ele>
        <time>2021-09-05T11:26:15Z</time>
      </trkpt>
      <trkpt lat="42.621322" lon="0.473522">
        <ele>2007.000000</ele>
        <time>2021-09-05T11:26:16Z</time>
      </trkpt>
      <trkpt lat="42.621313" lon="0.473533">
        <ele>2007.000000</ele>
        <time>2021-09-05T11:26:17Z</time>
      </trkpt>
      <trkpt lat="42.621302" lon="0.473545">
        <ele>2007.000000</ele>
        <time>2021-09-05T11:26:18Z</time>
      </trkpt>
      <trkpt lat="42.621292" lon="0.473556">
        <ele>2006.000000</ele>
        <time>2021-09-05T11:26:19Z</time>
      </trkpt>
      <trkpt lat="42.621285" lon="0.473565">
        <ele>2006.000000</ele>
        <time>2021-09-05T11:26:20Z</time>
      </trkpt>
      <trkpt lat="42.621275" lon="0.473579">
        <ele>2006.000000</ele>
        <time>2021-09-05T11:26:21Z</time>
      </trkpt>
      <trkpt lat="42.621265" lon="0.473591">
        <ele>2006.000000</ele>
        <time>2021-09-05T11:26:22Z</time>
      </trkpt>
      <trkpt lat="42.621255" lon="0.473601">
        <ele>2006.000000</ele>
        <time>2021-09-05T11:26:23Z</time>
      </trkpt>
      <trkpt lat="42.621250" lon="0.473608">
        <ele>2006.000000</ele>
        <time>2021-09-05T11:26:24Z</time>
      </trkpt>
      <trkpt lat="42.621247" lon="0.473615">
        <ele>2005.000000</ele>
        <time>2021-09-05T11:26:25Z</time>
      </trkpt>
      <trkpt lat="42.621240" lon="0.473626">
        <ele>2005.000000</ele>
        <time>2021-09-05T11:26:26Z</time>
      </trkpt>
      <trkpt lat="42.621233" lon="0.473637">
        <ele>2005.000000</ele>
        <time>2021-09-05T11:26:27Z</time>
      </trkpt>
      <trkpt lat="42.621223" lon="0.473652">
        <ele>2005.000000</ele>
        <time>2021-09-05T11:26:28Z</time>
      </trkpt>
      <trkpt lat="42.621215" lon="0.473664">
        <ele>2005.000000</ele>
        <time>2021-09-05T11:26:29Z</time>
      </trkpt>
      <trkpt lat="42.621205" lon="0.473679">
        <ele>2004.000000</ele>
        <time>2021-09-05T11:26:30Z</time>
      </trkpt>
      <trkpt lat="42.621200" lon="0.473688">
        <ele>2004.000000</ele>
        <time>2021-09-05T11:26:32Z</time>
      </trkpt>
      <trkpt lat="42.621195" lon="0.473713">
        <ele>2004.000000</ele>
        <time>2021-09-05T11:26:32Z</time>
      </trkpt>
      <trkpt lat="42.621188" lon="0.473728">
        <ele>2004.000000</ele>
        <time>2021-09-05T11:26:33Z</time>
      </trkpt>
      <trkpt lat="42.621187" lon="0.473742">
        <ele>2004.000000</ele>
        <time>2021-09-05T11:26:35Z</time>
      </trkpt>
      <trkpt lat="42.621183" lon="0.473762">
        <ele>2004.000000</ele>
        <time>2021-09-05T11:26:35Z</time>
      </trkpt>
      <trkpt lat="42.621183" lon="0.473782">
        <ele>2004.000000</ele>
        <time>2021-09-05T11:26:36Z</time>
      </trkpt>
      <trkpt lat="42.621178" lon="0.473793">
        <ele>2003.000000</ele>
        <time>2021-09-05T11:26:37Z</time>
      </trkpt>
      <trkpt lat="42.621171" lon="0.473805">
        <ele>2003.000000</ele>
        <time>2021-09-05T11:26:38Z</time>
      </trkpt>
      <trkpt lat="42.621167" lon="0.473813">
        <ele>2003.000000</ele>
        <time>2021-09-05T11:26:39Z</time>
      </trkpt>
      <trkpt lat="42.621161" lon="0.473825">
        <ele>2003.000000</ele>
        <time>2021-09-05T11:26:40Z</time>
      </trkpt>
      <trkpt lat="42.621158" lon="0.473833">
        <ele>2003.000000</ele>
        <time>2021-09-05T11:26:41Z</time>
      </trkpt>
      <trkpt lat="42.621154" lon="0.473842">
        <ele>2003.000000</ele>
        <time>2021-09-05T11:26:42Z</time>
      </trkpt>
      <trkpt lat="42.621152" lon="0.473850">
        <ele>2003.000000</ele>
        <time>2021-09-05T11:26:43Z</time>
      </trkpt>
      <trkpt lat="42.621149" lon="0.473862">
        <ele>2002.000000</ele>
        <time>2021-09-05T11:26:44Z</time>
      </trkpt>
      <trkpt lat="42.621145" lon="0.473878">
        <ele>2002.000000</ele>
        <time>2021-09-05T11:26:45Z</time>
      </trkpt>
      <trkpt lat="42.621142" lon="0.473888">
        <ele>2002.000000</ele>
        <time>2021-09-05T11:26:46Z</time>
      </trkpt>
      <trkpt lat="42.621138" lon="0.473893">
        <ele>2002.000000</ele>
        <time>2021-09-05T11:26:47Z</time>
      </trkpt>
      <trkpt lat="42.621133" lon="0.473907">
        <ele>2002.000000</ele>
        <time>2021-09-05T11:26:48Z</time>
      </trkpt>
      <trkpt lat="42.621127" lon="0.473917">
        <ele>2002.000000</ele>
        <time>2021-09-05T11:26:49Z</time>
      </trkpt>
      <trkpt lat="42.621120" lon="0.473930">
        <ele>2002.000000</ele>
        <time>2021-09-05T11:26:50Z</time>
      </trkpt>
      <trkpt lat="42.621123" lon="0.473943">
        <ele>2001.000000</ele>
        <time>2021-09-05T11:26:51Z</time>
      </trkpt>
      <trkpt lat="42.621127" lon="0.473958">
        <ele>2001.000000</ele>
        <time>2021-09-05T11:26:52Z</time>
      </trkpt>
      <trkpt lat="42.621127" lon="0.473972">
        <ele>2001.000000</ele>
        <time>2021-09-05T11:26:53Z</time>
      </trkpt>
      <trkpt lat="42.621122" lon="0.473985">
        <ele>2001.000000</ele>
        <time>2021-09-05T11:26:54Z</time>
      </trkpt>
      <trkpt lat="42.621118" lon="0.473998">
        <ele>2001.000000</ele>
        <time>2021-09-05T11:26:55Z</time>
      </trkpt>
      <trkpt lat="42.621115" lon="0.474015">
        <ele>2000.000000</ele>
        <time>2021-09-05T11:26:56Z</time>
      </trkpt>
      <trkpt lat="42.621111" lon="0.474020">
        <ele>2000.000000</ele>
        <time>2021-09-05T11:26:57Z</time>
      </trkpt>
      <trkpt lat="42.621103" lon="0.474033">
        <ele>2000.000000</ele>
        <time>2021-09-05T11:26:59Z</time>
      </trkpt>
      <trkpt lat="42.621095" lon="0.474045">
        <ele>2000.000000</ele>
        <time>2021-09-05T11:26:59Z</time>
      </trkpt>
      <trkpt lat="42.621089" lon="0.474052">
        <ele>2000.000000</ele>
        <time>2021-09-05T11:27:00Z</time>
      </trkpt>
      <trkpt lat="42.621080" lon="0.474067">
        <ele>2000.000000</ele>
        <time>2021-09-05T11:27:01Z</time>
      </trkpt>
      <trkpt lat="42.621073" lon="0.474077">
        <ele>2000.000000</ele>
        <time>2021-09-05T11:27:02Z</time>
      </trkpt>
      <trkpt lat="42.621065" lon="0.474093">
        <ele>2000.000000</ele>
        <time>2021-09-05T11:27:03Z</time>
      </trkpt>
      <trkpt lat="42.621059" lon="0.474112">
        <ele>2000.000000</ele>
        <time>2021-09-05T11:27:04Z</time>
      </trkpt>
      <trkpt lat="42.621055" lon="0.474127">
        <ele>2000.000000</ele>
        <time>2021-09-05T11:27:05Z</time>
      </trkpt>
      <trkpt lat="42.621051" lon="0.474142">
        <ele>2000.000000</ele>
        <time>2021-09-05T11:27:06Z</time>
      </trkpt>
      <trkpt lat="42.621049" lon="0.474150">
        <ele>2000.000000</ele>
        <time>2021-09-05T11:27:07Z</time>
      </trkpt>
      <trkpt lat="42.621044" lon="0.474163">
        <ele>2000.000000</ele>
        <time>2021-09-05T11:27:08Z</time>
      </trkpt>
      <trkpt lat="42.621041" lon="0.474172">
        <ele>2000.000000</ele>
        <time>2021-09-05T11:27:09Z</time>
      </trkpt>
      <trkpt lat="42.621037" lon="0.474183">
        <ele>1999.000000</ele>
        <time>2021-09-05T11:27:10Z</time>
      </trkpt>
      <trkpt lat="42.621033" lon="0.474198">
        <ele>1999.000000</ele>
        <time>2021-09-05T11:27:11Z</time>
      </trkpt>
      <trkpt lat="42.621029" lon="0.474215">
        <ele>1999.000000</ele>
        <time>2021-09-05T11:27:12Z</time>
      </trkpt>
      <trkpt lat="42.621025" lon="0.474233">
        <ele>1999.000000</ele>
        <time>2021-09-05T11:27:13Z</time>
      </trkpt>
      <trkpt lat="42.621021" lon="0.474252">
        <ele>1999.000000</ele>
        <time>2021-09-05T11:27:14Z</time>
      </trkpt>
      <trkpt lat="42.621018" lon="0.474267">
        <ele>1999.000000</ele>
        <time>2021-09-05T11:27:15Z</time>
      </trkpt>
      <trkpt lat="42.621014" lon="0.474282">
        <ele>1999.000000</ele>
        <time>2021-09-05T11:27:16Z</time>
      </trkpt>
      <trkpt lat="42.621011" lon="0.474292">
        <ele>1999.000000</ele>
        <time>2021-09-05T11:27:17Z</time>
      </trkpt>
      <trkpt lat="42.621008" lon="0.474305">
        <ele>1999.000000</ele>
        <time>2021-09-05T11:27:18Z</time>
      </trkpt>
      <trkpt lat="42.621003" lon="0.474325">
        <ele>1999.000000</ele>
        <time>2021-09-05T11:27:19Z</time>
      </trkpt>
      <trkpt lat="42.620997" lon="0.474345">
        <ele>1999.000000</ele>
        <time>2021-09-05T11:27:20Z</time>
      </trkpt>
      <trkpt lat="42.620993" lon="0.474358">
        <ele>1999.000000</ele>
        <time>2021-09-05T11:27:22Z</time>
      </trkpt>
      <trkpt lat="42.620991" lon="0.474365">
        <ele>1998.000000</ele>
        <time>2021-09-05T11:27:22Z</time>
      </trkpt>
      <trkpt lat="42.620989" lon="0.474372">
        <ele>1998.000000</ele>
        <time>2021-09-05T11:27:23Z</time>
      </trkpt>
      <trkpt lat="42.620987" lon="0.474377">
        <ele>1998.000000</ele>
        <time>2021-09-05T11:27:24Z</time>
      </trkpt>
      <trkpt lat="42.620983" lon="0.474387">
        <ele>1998.000000</ele>
        <time>2021-09-05T11:27:25Z</time>
      </trkpt>
      <trkpt lat="42.620979" lon="0.474398">
        <ele>1998.000000</ele>
        <time>2021-09-05T11:27:26Z</time>
      </trkpt>
      <trkpt lat="42.620974" lon="0.474412">
        <ele>1998.000000</ele>
        <time>2021-09-05T11:27:27Z</time>
      </trkpt>
      <trkpt lat="42.620969" lon="0.474425">
        <ele>1998.000000</ele>
        <time>2021-09-05T11:27:28Z</time>
      </trkpt>
      <trkpt lat="42.620965" lon="0.474433">
        <ele>1998.000000</ele>
        <time>2021-09-05T11:27:29Z</time>
      </trkpt>
      <trkpt lat="42.620962" lon="0.474440">
        <ele>1998.000000</ele>
        <time>2021-09-05T11:27:30Z</time>
      </trkpt>
      <trkpt lat="42.620957" lon="0.474452">
        <ele>1998.000000</ele>
        <time>2021-09-05T11:27:31Z</time>
      </trkpt>
      <trkpt lat="42.620953" lon="0.474460">
        <ele>1997.000000</ele>
        <time>2021-09-05T11:27:32Z</time>
      </trkpt>
      <trkpt lat="42.620949" lon="0.474472">
        <ele>1997.000000</ele>
        <time>2021-09-05T11:27:33Z</time>
      </trkpt>
      <trkpt lat="42.620943" lon="0.474485">
        <ele>1997.000000</ele>
        <time>2021-09-05T11:27:34Z</time>
      </trkpt>
      <trkpt lat="42.620936" lon="0.474505">
        <ele>1997.000000</ele>
        <time>2021-09-05T11:27:35Z</time>
      </trkpt>
      <trkpt lat="42.620934" lon="0.474513">
        <ele>1997.000000</ele>
        <time>2021-09-05T11:27:36Z</time>
      </trkpt>
      <trkpt lat="42.620932" lon="0.474520">
        <ele>1997.000000</ele>
        <time>2021-09-05T11:27:37Z</time>
      </trkpt>
      <trkpt lat="42.620930" lon="0.474527">
        <ele>1996.000000</ele>
        <time>2021-09-05T11:27:38Z</time>
      </trkpt>
      <trkpt lat="42.620928" lon="0.474533">
        <ele>1996.000000</ele>
        <time>2021-09-05T11:27:39Z</time>
      </trkpt>
      <trkpt lat="42.620926" lon="0.474543">
        <ele>1996.000000</ele>
        <time>2021-09-05T11:27:40Z</time>
      </trkpt>
      <trkpt lat="42.620924" lon="0.474548">
        <ele>1996.000000</ele>
        <time>2021-09-05T11:27:42Z</time>
      </trkpt>
      <trkpt lat="42.620923" lon="0.474557">
        <ele>1996.000000</ele>
        <time>2021-09-05T11:27:42Z</time>
      </trkpt>
      <trkpt lat="42.620933" lon="0.474562">
        <ele>1996.000000</ele>
        <time>2021-09-05T11:27:43Z</time>
      </trkpt>
      <trkpt lat="42.620932" lon="0.474570">
        <ele>1996.000000</ele>
        <time>2021-09-05T11:27:44Z</time>
      </trkpt>
      <trkpt lat="42.620927" lon="0.474577">
        <ele>1996.000000</ele>
        <time>2021-09-05T11:27:45Z</time>
      </trkpt>
      <trkpt lat="42.620924" lon="0.474590">
        <ele>1996.000000</ele>
        <time>2021-09-05T11:27:46Z</time>
      </trkpt>
      <trkpt lat="42.620913" lon="0.474598">
        <ele>1995.000000</ele>
        <time>2021-09-05T11:27:47Z</time>
      </trkpt>
      <trkpt lat="42.620907" lon="0.474607">
        <ele>1995.000000</ele>
        <time>2021-09-05T11:27:48Z</time>
      </trkpt>
      <trkpt lat="42.620902" lon="0.474617">
        <ele>1995.000000</ele>
        <time>2021-09-05T11:27:49Z</time>
      </trkpt>
      <trkpt lat="42.620893" lon="0.474623">
        <ele>1995.000000</ele>
        <time>2021-09-05T11:27:50Z</time>
      </trkpt>
      <trkpt lat="42.620883" lon="0.474630">
        <ele>1995.000000</ele>
        <time>2021-09-05T11:27:51Z</time>
      </trkpt>
      <trkpt lat="42.620880" lon="0.474638">
        <ele>1995.000000</ele>
        <time>2021-09-05T11:27:52Z</time>
      </trkpt>
      <trkpt lat="42.620883" lon="0.474650">
        <ele>1995.000000</ele>
        <time>2021-09-05T11:27:53Z</time>
      </trkpt>
      <trkpt lat="42.620882" lon="0.474668">
        <ele>1995.000000</ele>
        <time>2021-09-05T11:27:54Z</time>
      </trkpt>
      <trkpt lat="42.620880" lon="0.474680">
        <ele>1995.000000</ele>
        <time>2021-09-05T11:27:55Z</time>
      </trkpt>
      <trkpt lat="42.620871" lon="0.474685">
        <ele>1995.000000</ele>
        <time>2021-09-05T11:27:56Z</time>
      </trkpt>
      <trkpt lat="42.620866" lon="0.474695">
        <ele>1995.000000</ele>
        <time>2021-09-05T11:27:57Z</time>
      </trkpt>
      <trkpt lat="42.620862" lon="0.474703">
        <ele>1995.000000</ele>
        <time>2021-09-05T11:27:58Z</time>
      </trkpt>
      <trkpt lat="42.620860" lon="0.474713">
        <ele>1995.000000</ele>
        <time>2021-09-05T11:27:59Z</time>
      </trkpt>
      <trkpt lat="42.620856" lon="0.474720">
        <ele>1995.000000</ele>
        <time>2021-09-05T11:28:00Z</time>
      </trkpt>
      <trkpt lat="42.620853" lon="0.474728">
        <ele>1995.000000</ele>
        <time>2021-09-05T11:28:01Z</time>
      </trkpt>
      <trkpt lat="42.620850" lon="0.474735">
        <ele>1995.000000</ele>
        <time>2021-09-05T11:28:02Z</time>
      </trkpt>
      <trkpt lat="42.620849" lon="0.474742">
        <ele>1995.000000</ele>
        <time>2021-09-05T11:28:03Z</time>
      </trkpt>
      <trkpt lat="42.620847" lon="0.474750">
        <ele>1995.000000</ele>
        <time>2021-09-05T11:28:04Z</time>
      </trkpt>
      <trkpt lat="42.620844" lon="0.474768">
        <ele>1994.000000</ele>
        <time>2021-09-05T11:28:06Z</time>
      </trkpt>
      <trkpt lat="42.620843" lon="0.474777">
        <ele>1994.000000</ele>
        <time>2021-09-05T11:28:06Z</time>
      </trkpt>
      <trkpt lat="42.620842" lon="0.474792">
        <ele>1994.000000</ele>
        <time>2021-09-05T11:28:07Z</time>
      </trkpt>
      <trkpt lat="42.620843" lon="0.474808">
        <ele>1994.000000</ele>
        <time>2021-09-05T11:28:08Z</time>
      </trkpt>
      <trkpt lat="42.620845" lon="0.474823">
        <ele>1994.000000</ele>
        <time>2021-09-05T11:28:09Z</time>
      </trkpt>
      <trkpt lat="42.620848" lon="0.474833">
        <ele>1994.000000</ele>
        <time>2021-09-05T11:28:10Z</time>
      </trkpt>
      <trkpt lat="42.620848" lon="0.474842">
        <ele>1994.000000</ele>
        <time>2021-09-05T11:28:11Z</time>
      </trkpt>
      <trkpt lat="42.620846" lon="0.474850">
        <ele>1994.000000</ele>
        <time>2021-09-05T11:28:12Z</time>
      </trkpt>
      <trkpt lat="42.620845" lon="0.474863">
        <ele>1994.000000</ele>
        <time>2021-09-05T11:28:12Z</time>
      </trkpt>
      <trkpt lat="42.620845" lon="0.474877">
        <ele>1994.000000</ele>
        <time>2021-09-05T11:28:13Z</time>
      </trkpt>
      <trkpt lat="42.620845" lon="0.474890">
        <ele>1994.000000</ele>
        <time>2021-09-05T11:28:14Z</time>
      </trkpt>
      <trkpt lat="42.620846" lon="0.474900">
        <ele>1994.000000</ele>
        <time>2021-09-05T11:28:15Z</time>
      </trkpt>
      <trkpt lat="42.620846" lon="0.474910">
        <ele>1994.000000</ele>
        <time>2021-09-05T11:28:16Z</time>
      </trkpt>
      <trkpt lat="42.620845" lon="0.474918">
        <ele>1994.000000</ele>
        <time>2021-09-05T11:28:17Z</time>
      </trkpt>
      <trkpt lat="42.620845" lon="0.474927">
        <ele>1994.000000</ele>
        <time>2021-09-05T11:28:18Z</time>
      </trkpt>
      <trkpt lat="42.620845" lon="0.474935">
        <ele>1993.000000</ele>
        <time>2021-09-05T11:28:19Z</time>
      </trkpt>
      <trkpt lat="42.620844" lon="0.474945">
        <ele>1993.000000</ele>
        <time>2021-09-05T11:28:20Z</time>
      </trkpt>
      <trkpt lat="42.620843" lon="0.474955">
        <ele>1993.000000</ele>
        <time>2021-09-05T11:28:21Z</time>
      </trkpt>
      <trkpt lat="42.620843" lon="0.474965">
        <ele>1993.000000</ele>
        <time>2021-09-05T11:28:22Z</time>
      </trkpt>
      <trkpt lat="42.620843" lon="0.474977">
        <ele>1993.000000</ele>
        <time>2021-09-05T11:28:23Z</time>
      </trkpt>
      <trkpt lat="42.620844" lon="0.474985">
        <ele>1993.000000</ele>
        <time>2021-09-05T11:28:24Z</time>
      </trkpt>
      <trkpt lat="42.620843" lon="0.474997">
        <ele>1993.000000</ele>
        <time>2021-09-05T11:28:25Z</time>
      </trkpt>
      <trkpt lat="42.620842" lon="0.475002">
        <ele>1993.000000</ele>
        <time>2021-09-05T11:28:26Z</time>
      </trkpt>
      <trkpt lat="42.620841" lon="0.475017">
        <ele>1993.000000</ele>
        <time>2021-09-05T11:28:28Z</time>
      </trkpt>
      <trkpt lat="42.620839" lon="0.475025">
        <ele>1993.000000</ele>
        <time>2021-09-05T11:28:28Z</time>
      </trkpt>
      <trkpt lat="42.620838" lon="0.475030">
        <ele>1993.000000</ele>
        <time>2021-09-05T11:28:29Z</time>
      </trkpt>
      <trkpt lat="42.620838" lon="0.475035">
        <ele>1993.000000</ele>
        <time>2021-09-05T11:28:30Z</time>
      </trkpt>
      <trkpt lat="42.620838" lon="0.475035">
        <ele>1993.000000</ele>
        <time>2021-09-05T11:28:31Z</time>
      </trkpt>
      <trkpt lat="42.620837" lon="0.475032">
        <ele>1993.000000</ele>
        <time>2021-09-05T11:28:32Z</time>
      </trkpt>
      <trkpt lat="42.620836" lon="0.475028">
        <ele>1993.000000</ele>
        <time>2021-09-05T11:28:33Z</time>
      </trkpt>
      <trkpt lat="42.620835" lon="0.475032">
        <ele>1993.000000</ele>
        <time>2021-09-05T11:28:34Z</time>
      </trkpt>
      <trkpt lat="42.620833" lon="0.475040">
        <ele>1993.000000</ele>
        <time>2021-09-05T11:28:35Z</time>
      </trkpt>
      <trkpt lat="42.620803" lon="0.475048">
        <ele>1993.000000</ele>
        <time>2021-09-05T11:28:36Z</time>
      </trkpt>
      <trkpt lat="42.620788" lon="0.475055">
        <ele>1993.000000</ele>
        <time>2021-09-05T11:28:37Z</time>
      </trkpt>
      <trkpt lat="42.620778" lon="0.475070">
        <ele>1993.000000</ele>
        <time>2021-09-05T11:28:38Z</time>
      </trkpt>
      <trkpt lat="42.620771" lon="0.475092">
        <ele>1993.000000</ele>
        <time>2021-09-05T11:28:39Z</time>
      </trkpt>
      <trkpt lat="42.620769" lon="0.475110">
        <ele>1993.000000</ele>
        <time>2021-09-05T11:28:40Z</time>
      </trkpt>
      <trkpt lat="42.620762" lon="0.475132">
        <ele>1993.000000</ele>
        <time>2021-09-05T11:28:41Z</time>
      </trkpt>
      <trkpt lat="42.620754" lon="0.475148">
        <ele>1993.000000</ele>
        <time>2021-09-05T11:28:42Z</time>
      </trkpt>
      <trkpt lat="42.620747" lon="0.475167">
        <ele>1993.000000</ele>
        <time>2021-09-05T11:28:43Z</time>
      </trkpt>
      <trkpt lat="42.620740" lon="0.475188">
        <ele>1993.000000</ele>
        <time>2021-09-05T11:28:44Z</time>
      </trkpt>
      <trkpt lat="42.620734" lon="0.475207">
        <ele>1993.000000</ele>
        <time>2021-09-05T11:28:45Z</time>
      </trkpt>
      <trkpt lat="42.620728" lon="0.475227">
        <ele>1993.000000</ele>
        <time>2021-09-05T11:28:46Z</time>
      </trkpt>
      <trkpt lat="42.620721" lon="0.475240">
        <ele>1993.000000</ele>
        <time>2021-09-05T11:28:48Z</time>
      </trkpt>
      <trkpt lat="42.620718" lon="0.475243">
        <ele>1993.000000</ele>
        <time>2021-09-05T11:28:48Z</time>
      </trkpt>
      <trkpt lat="42.620702" lon="0.475248">
        <ele>1993.000000</ele>
        <time>2021-09-05T11:28:49Z</time>
      </trkpt>
      <trkpt lat="42.620695" lon="0.475262">
        <ele>1993.000000</ele>
        <time>2021-09-05T11:28:50Z</time>
      </trkpt>
      <trkpt lat="42.620690" lon="0.475278">
        <ele>1993.000000</ele>
        <time>2021-09-05T11:28:51Z</time>
      </trkpt>
      <trkpt lat="42.620680" lon="0.475295">
        <ele>1993.000000</ele>
        <time>2021-09-05T11:28:52Z</time>
      </trkpt>
      <trkpt lat="42.620670" lon="0.475317">
        <ele>1993.000000</ele>
        <time>2021-09-05T11:28:53Z</time>
      </trkpt>
      <trkpt lat="42.620663" lon="0.475330">
        <ele>1993.000000</ele>
        <time>2021-09-05T11:28:54Z</time>
      </trkpt>
      <trkpt lat="42.620658" lon="0.475342">
        <ele>1993.000000</ele>
        <time>2021-09-05T11:28:55Z</time>
      </trkpt>
      <trkpt lat="42.620648" lon="0.475353">
        <ele>1993.000000</ele>
        <time>2021-09-05T11:28:56Z</time>
      </trkpt>
      <trkpt lat="42.620639" lon="0.475367">
        <ele>1993.000000</ele>
        <time>2021-09-05T11:28:57Z</time>
      </trkpt>
      <trkpt lat="42.620633" lon="0.475380">
        <ele>1993.000000</ele>
        <time>2021-09-05T11:28:58Z</time>
      </trkpt>
      <trkpt lat="42.620627" lon="0.475393">
        <ele>1993.000000</ele>
        <time>2021-09-05T11:28:59Z</time>
      </trkpt>
      <trkpt lat="42.620620" lon="0.475398">
        <ele>1993.000000</ele>
        <time>2021-09-05T11:29:00Z</time>
      </trkpt>
      <trkpt lat="42.620608" lon="0.475412">
        <ele>1993.000000</ele>
        <time>2021-09-05T11:29:01Z</time>
      </trkpt>
      <trkpt lat="42.620599" lon="0.475427">
        <ele>1993.000000</ele>
        <time>2021-09-05T11:29:02Z</time>
      </trkpt>
      <trkpt lat="42.620593" lon="0.475442">
        <ele>1993.000000</ele>
        <time>2021-09-05T11:29:03Z</time>
      </trkpt>
      <trkpt lat="42.620586" lon="0.475462">
        <ele>1993.000000</ele>
        <time>2021-09-05T11:29:04Z</time>
      </trkpt>
      <trkpt lat="42.620580" lon="0.475477">
        <ele>1993.000000</ele>
        <time>2021-09-05T11:29:05Z</time>
      </trkpt>
      <trkpt lat="42.620578" lon="0.475488">
        <ele>1993.000000</ele>
        <time>2021-09-05T11:29:06Z</time>
      </trkpt>
      <trkpt lat="42.620574" lon="0.475498">
        <ele>1993.000000</ele>
        <time>2021-09-05T11:29:07Z</time>
      </trkpt>
      <trkpt lat="42.620568" lon="0.475512">
        <ele>1993.000000</ele>
        <time>2021-09-05T11:29:08Z</time>
      </trkpt>
      <trkpt lat="42.620563" lon="0.475522">
        <ele>1993.000000</ele>
        <time>2021-09-05T11:29:09Z</time>
      </trkpt>
      <trkpt lat="42.620557" lon="0.475535">
        <ele>1993.000000</ele>
        <time>2021-09-05T11:29:10Z</time>
      </trkpt>
      <trkpt lat="42.620551" lon="0.475550">
        <ele>1993.000000</ele>
        <time>2021-09-05T11:29:12Z</time>
      </trkpt>
      <trkpt lat="42.620548" lon="0.475558">
        <ele>1993.000000</ele>
        <time>2021-09-05T11:29:12Z</time>
      </trkpt>
      <trkpt lat="42.620543" lon="0.475572">
        <ele>1993.000000</ele>
        <time>2021-09-05T11:29:13Z</time>
      </trkpt>
      <trkpt lat="42.620537" lon="0.475585">
        <ele>1993.000000</ele>
        <time>2021-09-05T11:29:14Z</time>
      </trkpt>
      <trkpt lat="42.620533" lon="0.475593">
        <ele>1993.000000</ele>
        <time>2021-09-05T11:29:15Z</time>
      </trkpt>
      <trkpt lat="42.620530" lon="0.475598">
        <ele>1993.000000</ele>
        <time>2021-09-05T11:29:16Z</time>
      </trkpt>
      <trkpt lat="42.620525" lon="0.475610">
        <ele>1993.000000</ele>
        <time>2021-09-05T11:29:17Z</time>
      </trkpt>
      <trkpt lat="42.620520" lon="0.475620">
        <ele>1993.000000</ele>
        <time>2021-09-05T11:29:18Z</time>
      </trkpt>
      <trkpt lat="42.620515" lon="0.475632">
        <ele>1993.000000</ele>
        <time>2021-09-05T11:29:19Z</time>
      </trkpt>
      <trkpt lat="42.620510" lon="0.475642">
        <ele>1993.000000</ele>
        <time>2021-09-05T11:29:20Z</time>
      </trkpt>
      <trkpt lat="42.620506" lon="0.475647">
        <ele>1993.000000</ele>
        <time>2021-09-05T11:29:21Z</time>
      </trkpt>
      <trkpt lat="42.620499" lon="0.475658">
        <ele>1993.000000</ele>
        <time>2021-09-05T11:29:22Z</time>
      </trkpt>
      <trkpt lat="42.620492" lon="0.475672">
        <ele>1993.000000</ele>
        <time>2021-09-05T11:29:23Z</time>
      </trkpt>
      <trkpt lat="42.620484" lon="0.475688">
        <ele>1993.000000</ele>
        <time>2021-09-05T11:29:24Z</time>
      </trkpt>
      <trkpt lat="42.620478" lon="0.475702">
        <ele>1993.000000</ele>
        <time>2021-09-05T11:29:25Z</time>
      </trkpt>
      <trkpt lat="42.620473" lon="0.475717">
        <ele>1993.000000</ele>
        <time>2021-09-05T11:29:26Z</time>
      </trkpt>
      <trkpt lat="42.620470" lon="0.475725">
        <ele>1993.000000</ele>
        <time>2021-09-05T11:29:27Z</time>
      </trkpt>
      <trkpt lat="42.620467" lon="0.475733">
        <ele>1993.000000</ele>
        <time>2021-09-05T11:29:28Z</time>
      </trkpt>
      <trkpt lat="42.620463" lon="0.475742">
        <ele>1993.000000</ele>
        <time>2021-09-05T11:29:29Z</time>
      </trkpt>
      <trkpt lat="42.620460" lon="0.475752">
        <ele>1993.000000</ele>
        <time>2021-09-05T11:29:31Z</time>
      </trkpt>
      <trkpt lat="42.620457" lon="0.475760">
        <ele>1993.000000</ele>
        <time>2021-09-05T11:29:31Z</time>
      </trkpt>
      <trkpt lat="42.620456" lon="0.475758">
        <ele>1993.000000</ele>
        <time>2021-09-05T11:29:32Z</time>
      </trkpt>
      <trkpt lat="42.620437" lon="0.475762">
        <ele>1993.000000</ele>
        <time>2021-09-05T11:29:33Z</time>
      </trkpt>
      <trkpt lat="42.620432" lon="0.475768">
        <ele>1994.000000</ele>
        <time>2021-09-05T11:29:34Z</time>
      </trkpt>
      <trkpt lat="42.620427" lon="0.475779">
        <ele>1994.000000</ele>
        <time>2021-09-05T11:29:35Z</time>
      </trkpt>
      <trkpt lat="42.620427" lon="0.475783">
        <ele>1994.000000</ele>
        <time>2021-09-05T11:29:36Z</time>
      </trkpt>
      <trkpt lat="42.620427" lon="0.475787">
        <ele>1994.000000</ele>
        <time>2021-09-05T11:29:37Z</time>
      </trkpt>
      <trkpt lat="42.620423" lon="0.475795">
        <ele>1994.000000</ele>
        <time>2021-09-05T11:29:38Z</time>
      </trkpt>
      <trkpt lat="42.620418" lon="0.475801">
        <ele>1994.000000</ele>
        <time>2021-09-05T11:29:39Z</time>
      </trkpt>
      <trkpt lat="42.620413" lon="0.475802">
        <ele>1994.000000</ele>
        <time>2021-09-05T11:29:40Z</time>
      </trkpt>
      <trkpt lat="42.620407" lon="0.475798">
        <ele>1994.000000</ele>
        <time>2021-09-05T11:29:41Z</time>
      </trkpt>
      <trkpt lat="42.620403" lon="0.475805">
        <ele>1994.000000</ele>
        <time>2021-09-05T11:29:42Z</time>
      </trkpt>
      <trkpt lat="42.620400" lon="0.475815">
        <ele>1994.000000</ele>
        <time>2021-09-05T11:29:43Z</time>
      </trkpt>
      <trkpt lat="42.620397" lon="0.475818">
        <ele>1995.000000</ele>
        <time>2021-09-05T11:29:44Z</time>
      </trkpt>
      <trkpt lat="42.620391" lon="0.475823">
        <ele>1995.000000</ele>
        <time>2021-09-05T11:29:45Z</time>
      </trkpt>
      <trkpt lat="42.620380" lon="0.475833">
        <ele>1995.000000</ele>
        <time>2021-09-05T11:29:46Z</time>
      </trkpt>
      <trkpt lat="42.620374" lon="0.475843">
        <ele>1995.000000</ele>
        <time>2021-09-05T11:29:47Z</time>
      </trkpt>
      <trkpt lat="42.620370" lon="0.475852">
        <ele>1995.000000</ele>
        <time>2021-09-05T11:29:48Z</time>
      </trkpt>
      <trkpt lat="42.620367" lon="0.475855">
        <ele>1995.000000</ele>
        <time>2021-09-05T11:29:49Z</time>
      </trkpt>
      <trkpt lat="42.620365" lon="0.475865">
        <ele>1995.000000</ele>
        <time>2021-09-05T11:29:50Z</time>
      </trkpt>
      <trkpt lat="42.620365" lon="0.475870">
        <ele>1995.000000</ele>
        <time>2021-09-05T11:29:51Z</time>
      </trkpt>
      <trkpt lat="42.620365" lon="0.475870">
        <ele>1995.000000</ele>
        <time>2021-09-05T11:29:52Z</time>
      </trkpt>
      <trkpt lat="42.620362" lon="0.475872">
        <ele>1995.000000</ele>
        <time>2021-09-05T11:29:54Z</time>
      </trkpt>
      <trkpt lat="42.620340" lon="0.475877">
        <ele>1995.000000</ele>
        <time>2021-09-05T11:29:54Z</time>
      </trkpt>
      <trkpt lat="42.620343" lon="0.475890">
        <ele>1996.000000</ele>
        <time>2021-09-05T11:29:55Z</time>
      </trkpt>
      <trkpt lat="42.620342" lon="0.475903">
        <ele>1996.000000</ele>
        <time>2021-09-05T11:29:56Z</time>
      </trkpt>
      <trkpt lat="42.620339" lon="0.475912">
        <ele>1996.000000</ele>
        <time>2021-09-05T11:29:57Z</time>
      </trkpt>
      <trkpt lat="42.620335" lon="0.475918">
        <ele>1996.000000</ele>
        <time>2021-09-05T11:29:58Z</time>
      </trkpt>
      <trkpt lat="42.620333" lon="0.475918">
        <ele>1996.000000</ele>
        <time>2021-09-05T11:29:59Z</time>
      </trkpt>
      <trkpt lat="42.620325" lon="0.475920">
        <ele>1996.000000</ele>
        <time>2021-09-05T11:30:00Z</time>
      </trkpt>
      <trkpt lat="42.620322" lon="0.475927">
        <ele>1996.000000</ele>
        <time>2021-09-05T11:30:01Z</time>
      </trkpt>
      <trkpt lat="42.620325" lon="0.475930">
        <ele>1996.000000</ele>
        <time>2021-09-05T11:30:02Z</time>
      </trkpt>
      <trkpt lat="42.620322" lon="0.475938">
        <ele>1996.000000</ele>
        <time>2021-09-05T11:30:03Z</time>
      </trkpt>
      <trkpt lat="42.620308" lon="0.475957">
        <ele>1997.000000</ele>
        <time>2021-09-05T11:30:04Z</time>
      </trkpt>
      <trkpt lat="42.620298" lon="0.475963">
        <ele>1997.000000</ele>
        <time>2021-09-05T11:30:05Z</time>
      </trkpt>
      <trkpt lat="42.620288" lon="0.475968">
        <ele>1997.000000</ele>
        <time>2021-09-05T11:30:06Z</time>
      </trkpt>
      <trkpt lat="42.620283" lon="0.475972">
        <ele>1997.000000</ele>
        <time>2021-09-05T11:30:07Z</time>
      </trkpt>
      <trkpt lat="42.620273" lon="0.475981">
        <ele>1997.000000</ele>
        <time>2021-09-05T11:30:08Z</time>
      </trkpt>
      <trkpt lat="42.620267" lon="0.475990">
        <ele>1997.000000</ele>
        <time>2021-09-05T11:30:09Z</time>
      </trkpt>
      <trkpt lat="42.620255" lon="0.476004">
        <ele>1997.000000</ele>
        <time>2021-09-05T11:30:10Z</time>
      </trkpt>
      <trkpt lat="42.620248" lon="0.476013">
        <ele>1998.000000</ele>
        <time>2021-09-05T11:30:11Z</time>
      </trkpt>
      <trkpt lat="42.620248" lon="0.476017">
        <ele>1998.000000</ele>
        <time>2021-09-05T11:30:12Z</time>
      </trkpt>
      <trkpt lat="42.620242" lon="0.476027">
        <ele>1998.000000</ele>
        <time>2021-09-05T11:30:13Z</time>
      </trkpt>
      <trkpt lat="42.620235" lon="0.476036">
        <ele>1998.000000</ele>
        <time>2021-09-05T11:30:14Z</time>
      </trkpt>
      <trkpt lat="42.620230" lon="0.476043">
        <ele>1998.000000</ele>
        <time>2021-09-05T11:30:15Z</time>
      </trkpt>
      <trkpt lat="42.620227" lon="0.476049">
        <ele>1999.000000</ele>
        <time>2021-09-05T11:30:17Z</time>
      </trkpt>
      <trkpt lat="42.620230" lon="0.476063">
        <ele>1999.000000</ele>
        <time>2021-09-05T11:30:17Z</time>
      </trkpt>
      <trkpt lat="42.620232" lon="0.476068">
        <ele>1999.000000</ele>
        <time>2021-09-05T11:30:18Z</time>
      </trkpt>
      <trkpt lat="42.620230" lon="0.476080">
        <ele>1999.000000</ele>
        <time>2021-09-05T11:30:19Z</time>
      </trkpt>
      <trkpt lat="42.620228" lon="0.476083">
        <ele>1999.000000</ele>
        <time>2021-09-05T11:30:20Z</time>
      </trkpt>
      <trkpt lat="42.620235" lon="0.476098">
        <ele>1999.000000</ele>
        <time>2021-09-05T11:30:21Z</time>
      </trkpt>
      <trkpt lat="42.620245" lon="0.476107">
        <ele>1999.000000</ele>
        <time>2021-09-05T11:30:22Z</time>
      </trkpt>
      <trkpt lat="42.620252" lon="0.476113">
        <ele>1999.000000</ele>
        <time>2021-09-05T11:30:23Z</time>
      </trkpt>
      <trkpt lat="42.620252" lon="0.476117">
        <ele>1999.000000</ele>
        <time>2021-09-05T11:30:24Z</time>
      </trkpt>
      <trkpt lat="42.620250" lon="0.476122">
        <ele>1999.000000</ele>
        <time>2021-09-05T11:30:25Z</time>
      </trkpt>
      <trkpt lat="42.620247" lon="0.476120">
        <ele>1999.000000</ele>
        <time>2021-09-05T11:30:26Z</time>
      </trkpt>
      <trkpt lat="42.620234" lon="0.476115">
        <ele>1999.000000</ele>
        <time>2021-09-05T11:30:27Z</time>
      </trkpt>
      <trkpt lat="42.620210" lon="0.476115">
        <ele>1999.000000</ele>
        <time>2021-09-05T11:30:28Z</time>
      </trkpt>
      <trkpt lat="42.620203" lon="0.476118">
        <ele>1999.000000</ele>
        <time>2021-09-05T11:30:29Z</time>
      </trkpt>
      <trkpt lat="42.620197" lon="0.476120">
        <ele>1999.000000</ele>
        <time>2021-09-05T11:30:30Z</time>
      </trkpt>
      <trkpt lat="42.620190" lon="0.476123">
        <ele>1999.000000</ele>
        <time>2021-09-05T11:30:31Z</time>
      </trkpt>
      <trkpt lat="42.620187" lon="0.476127">
        <ele>1999.000000</ele>
        <time>2021-09-05T11:30:32Z</time>
      </trkpt>
      <trkpt lat="42.620185" lon="0.476131">
        <ele>1999.000000</ele>
        <time>2021-09-05T11:30:33Z</time>
      </trkpt>
      <trkpt lat="42.620178" lon="0.476140">
        <ele>1999.000000</ele>
        <time>2021-09-05T11:30:34Z</time>
      </trkpt>
      <trkpt lat="42.620168" lon="0.476147">
        <ele>1999.000000</ele>
        <time>2021-09-05T11:30:35Z</time>
      </trkpt>
      <trkpt lat="42.620153" lon="0.476153">
        <ele>1999.000000</ele>
        <time>2021-09-05T11:30:37Z</time>
      </trkpt>
      <trkpt lat="42.620138" lon="0.476158">
        <ele>2000.000000</ele>
        <time>2021-09-05T11:30:37Z</time>
      </trkpt>
      <trkpt lat="42.620123" lon="0.476161">
        <ele>2000.000000</ele>
        <time>2021-09-05T11:30:38Z</time>
      </trkpt>
      <trkpt lat="42.620110" lon="0.476162">
        <ele>2000.000000</ele>
        <time>2021-09-05T11:30:39Z</time>
      </trkpt>
      <trkpt lat="42.620100" lon="0.476163">
        <ele>2000.000000</ele>
        <time>2021-09-05T11:30:40Z</time>
      </trkpt>
      <trkpt lat="42.620088" lon="0.476164">
        <ele>2000.000000</ele>
        <time>2021-09-05T11:30:41Z</time>
      </trkpt>
      <trkpt lat="42.620068" lon="0.476167">
        <ele>2000.000000</ele>
        <time>2021-09-05T11:30:42Z</time>
      </trkpt>
      <trkpt lat="42.620053" lon="0.476168">
        <ele>2000.000000</ele>
        <time>2021-09-05T11:30:43Z</time>
      </trkpt>
      <trkpt lat="42.620045" lon="0.476169">
        <ele>2000.000000</ele>
        <time>2021-09-05T11:30:44Z</time>
      </trkpt>
      <trkpt lat="42.620037" lon="0.476172">
        <ele>2000.000000</ele>
        <time>2021-09-05T11:30:45Z</time>
      </trkpt>
      <trkpt lat="42.620025" lon="0.476188">
        <ele>2000.000000</ele>
        <time>2021-09-05T11:30:46Z</time>
      </trkpt>
      <trkpt lat="42.620010" lon="0.476200">
        <ele>2000.000000</ele>
        <time>2021-09-05T11:30:47Z</time>
      </trkpt>
      <trkpt lat="42.619997" lon="0.476210">
        <ele>2000.000000</ele>
        <time>2021-09-05T11:30:48Z</time>
      </trkpt>
      <trkpt lat="42.619985" lon="0.476214">
        <ele>2000.000000</ele>
        <time>2021-09-05T11:30:49Z</time>
      </trkpt>
      <trkpt lat="42.619972" lon="0.476220">
        <ele>2000.000000</ele>
        <time>2021-09-05T11:30:50Z</time>
      </trkpt>
      <trkpt lat="42.619962" lon="0.476227">
        <ele>2000.000000</ele>
        <time>2021-09-05T11:30:51Z</time>
      </trkpt>
      <trkpt lat="42.619953" lon="0.476234">
        <ele>2000.000000</ele>
        <time>2021-09-05T11:30:52Z</time>
      </trkpt>
      <trkpt lat="42.619943" lon="0.476245">
        <ele>2000.000000</ele>
        <time>2021-09-05T11:30:53Z</time>
      </trkpt>
      <trkpt lat="42.619937" lon="0.476254">
        <ele>2000.000000</ele>
        <time>2021-09-05T11:30:54Z</time>
      </trkpt>
      <trkpt lat="42.619935" lon="0.476260">
        <ele>2000.000000</ele>
        <time>2021-09-05T11:30:56Z</time>
      </trkpt>
      <trkpt lat="42.619933" lon="0.476265">
        <ele>2000.000000</ele>
        <time>2021-09-05T11:30:57Z</time>
      </trkpt>
      <trkpt lat="42.619928" lon="0.476273">
        <ele>2000.000000</ele>
        <time>2021-09-05T11:30:58Z</time>
      </trkpt>
      <trkpt lat="42.619927" lon="0.476279">
        <ele>2000.000000</ele>
        <time>2021-09-05T11:30:59Z</time>
      </trkpt>
      <trkpt lat="42.619922" lon="0.476289">
        <ele>2000.000000</ele>
        <time>2021-09-05T11:31:01Z</time>
      </trkpt>
      <trkpt lat="42.619912" lon="0.476303">
        <ele>2000.000000</ele>
        <time>2021-09-05T11:31:01Z</time>
      </trkpt>
      <trkpt lat="42.619902" lon="0.476317">
        <ele>2000.000000</ele>
        <time>2021-09-05T11:31:02Z</time>
      </trkpt>
      <trkpt lat="42.619893" lon="0.476332">
        <ele>2000.000000</ele>
        <time>2021-09-05T11:31:03Z</time>
      </trkpt>
      <trkpt lat="42.619883" lon="0.476348">
        <ele>2000.000000</ele>
        <time>2021-09-05T11:31:04Z</time>
      </trkpt>
      <trkpt lat="42.619877" lon="0.476362">
        <ele>2000.000000</ele>
        <time>2021-09-05T11:31:05Z</time>
      </trkpt>
      <trkpt lat="42.619870" lon="0.476375">
        <ele>2000.000000</ele>
        <time>2021-09-05T11:31:06Z</time>
      </trkpt>
      <trkpt lat="42.619868" lon="0.476382">
        <ele>2000.000000</ele>
        <time>2021-09-05T11:31:07Z</time>
      </trkpt>
      <trkpt lat="42.619862" lon="0.476395">
        <ele>2000.000000</ele>
        <time>2021-09-05T11:31:08Z</time>
      </trkpt>
      <trkpt lat="42.619850" lon="0.476414">
        <ele>2000.000000</ele>
        <time>2021-09-05T11:31:09Z</time>
      </trkpt>
      <trkpt lat="42.619842" lon="0.476423">
        <ele>2000.000000</ele>
        <time>2021-09-05T11:31:10Z</time>
      </trkpt>
      <trkpt lat="42.619818" lon="0.476422">
        <ele>2000.000000</ele>
        <time>2021-09-05T11:31:11Z</time>
      </trkpt>
      <trkpt lat="42.619808" lon="0.476435">
        <ele>2000.000000</ele>
        <time>2021-09-05T11:31:12Z</time>
      </trkpt>
      <trkpt lat="42.619800" lon="0.476446">
        <ele>2000.000000</ele>
        <time>2021-09-05T11:31:13Z</time>
      </trkpt>
      <trkpt lat="42.619797" lon="0.476458">
        <ele>2000.000000</ele>
        <time>2021-09-05T11:31:14Z</time>
      </trkpt>
      <trkpt lat="42.619787" lon="0.476476">
        <ele>2000.000000</ele>
        <time>2021-09-05T11:31:15Z</time>
      </trkpt>
      <trkpt lat="42.619778" lon="0.476487">
        <ele>2000.000000</ele>
        <time>2021-09-05T11:31:16Z</time>
      </trkpt>
      <trkpt lat="42.619772" lon="0.476496">
        <ele>2000.000000</ele>
        <time>2021-09-05T11:31:17Z</time>
      </trkpt>
      <trkpt lat="42.619763" lon="0.476507">
        <ele>1999.000000</ele>
        <time>2021-09-05T11:31:18Z</time>
      </trkpt>
      <trkpt lat="42.619760" lon="0.476512">
        <ele>1999.000000</ele>
        <time>2021-09-05T11:31:19Z</time>
      </trkpt>
      <trkpt lat="42.619750" lon="0.476523">
        <ele>1999.000000</ele>
        <time>2021-09-05T11:31:20Z</time>
      </trkpt>
      <trkpt lat="42.619748" lon="0.476523">
        <ele>1999.000000</ele>
        <time>2021-09-05T11:31:21Z</time>
      </trkpt>
      <trkpt lat="42.619743" lon="0.476530">
        <ele>1999.000000</ele>
        <time>2021-09-05T11:31:22Z</time>
      </trkpt>
      <trkpt lat="42.619743" lon="0.476531">
        <ele>1999.000000</ele>
        <time>2021-09-05T11:31:23Z</time>
      </trkpt>
      <trkpt lat="42.619745" lon="0.476532">
        <ele>1999.000000</ele>
        <time>2021-09-05T11:31:25Z</time>
      </trkpt>
      <trkpt lat="42.619738" lon="0.476544">
        <ele>1999.000000</ele>
        <time>2021-09-05T11:31:25Z</time>
      </trkpt>
      <trkpt lat="42.619732" lon="0.476556">
        <ele>1999.000000</ele>
        <time>2021-09-05T11:31:26Z</time>
      </trkpt>
      <trkpt lat="42.619725" lon="0.476563">
        <ele>1999.000000</ele>
        <time>2021-09-05T11:31:27Z</time>
      </trkpt>
      <trkpt lat="42.619715" lon="0.476568">
        <ele>1999.000000</ele>
        <time>2021-09-05T11:31:28Z</time>
      </trkpt>
      <trkpt lat="42.619707" lon="0.476568">
        <ele>1999.000000</ele>
        <time>2021-09-05T11:31:29Z</time>
      </trkpt>
      <trkpt lat="42.619698" lon="0.476573">
        <ele>1999.000000</ele>
        <time>2021-09-05T11:31:30Z</time>
      </trkpt>
      <trkpt lat="42.619687" lon="0.476577">
        <ele>1999.000000</ele>
        <time>2021-09-05T11:31:31Z</time>
      </trkpt>
      <trkpt lat="42.619682" lon="0.476581">
        <ele>1999.000000</ele>
        <time>2021-09-05T11:31:32Z</time>
      </trkpt>
      <trkpt lat="42.619682" lon="0.476585">
        <ele>1999.000000</ele>
        <time>2021-09-05T11:31:33Z</time>
      </trkpt>
      <trkpt lat="42.619678" lon="0.476593">
        <ele>1999.000000</ele>
        <time>2021-09-05T11:31:35Z</time>
      </trkpt>
      <trkpt lat="42.619680" lon="0.476603">
        <ele>1999.000000</ele>
        <time>2021-09-05T11:31:36Z</time>
      </trkpt>
      <trkpt lat="42.619683" lon="0.476608">
        <ele>1999.000000</ele>
        <time>2021-09-05T11:31:37Z</time>
      </trkpt>
      <trkpt lat="42.619683" lon="0.476627">
        <ele>1999.000000</ele>
        <time>2021-09-05T11:31:40Z</time>
      </trkpt>
      <trkpt lat="42.619680" lon="0.476630">
        <ele>1999.000000</ele>
        <time>2021-09-05T11:31:41Z</time>
      </trkpt>
      <trkpt lat="42.619677" lon="0.476630">
        <ele>1999.000000</ele>
        <time>2021-09-05T11:31:42Z</time>
      </trkpt>
      <trkpt lat="42.619673" lon="0.476632">
        <ele>1999.000000</ele>
        <time>2021-09-05T11:31:44Z</time>
      </trkpt>
      <trkpt lat="42.619665" lon="0.476634">
        <ele>1999.000000</ele>
        <time>2021-09-05T11:31:44Z</time>
      </trkpt>
      <trkpt lat="42.619665" lon="0.476636">
        <ele>1999.000000</ele>
        <time>2021-09-05T11:31:45Z</time>
      </trkpt>
      <trkpt lat="42.619658" lon="0.476643">
        <ele>1999.000000</ele>
        <time>2021-09-05T11:31:46Z</time>
      </trkpt>
      <trkpt lat="42.619647" lon="0.476648">
        <ele>1999.000000</ele>
        <time>2021-09-05T11:31:47Z</time>
      </trkpt>
      <trkpt lat="42.619638" lon="0.476649">
        <ele>1997.000000</ele>
        <time>2021-09-05T11:31:48Z</time>
      </trkpt>
      <trkpt lat="42.619635" lon="0.476650">
        <ele>1997.000000</ele>
        <time>2021-09-05T11:31:49Z</time>
      </trkpt>
      <trkpt lat="42.619632" lon="0.476651">
        <ele>1997.000000</ele>
        <time>2021-09-05T11:31:50Z</time>
      </trkpt>
      <trkpt lat="42.619623" lon="0.476653">
        <ele>1997.000000</ele>
        <time>2021-09-05T11:31:51Z</time>
      </trkpt>
      <trkpt lat="42.619622" lon="0.476653">
        <ele>1997.000000</ele>
        <time>2021-09-05T11:31:52Z</time>
      </trkpt>
      <trkpt lat="42.619620" lon="0.476656">
        <ele>1997.000000</ele>
        <time>2021-09-05T11:31:53Z</time>
      </trkpt>
      <trkpt lat="42.619600" lon="0.476665">
        <ele>1997.000000</ele>
        <time>2021-09-05T11:31:54Z</time>
      </trkpt>
      <trkpt lat="42.619585" lon="0.476668">
        <ele>1997.000000</ele>
        <time>2021-09-05T11:31:55Z</time>
      </trkpt>
      <trkpt lat="42.619575" lon="0.476672">
        <ele>1997.000000</ele>
        <time>2021-09-05T11:31:56Z</time>
      </trkpt>
      <trkpt lat="42.619565" lon="0.476675">
        <ele>1997.000000</ele>
        <time>2021-09-05T11:31:57Z</time>
      </trkpt>
      <trkpt lat="42.619555" lon="0.476680">
        <ele>1997.000000</ele>
        <time>2021-09-05T11:31:58Z</time>
      </trkpt>
      <trkpt lat="42.619550" lon="0.476687">
        <ele>1997.000000</ele>
        <time>2021-09-05T11:31:59Z</time>
      </trkpt>
      <trkpt lat="42.619548" lon="0.476691">
        <ele>1997.000000</ele>
        <time>2021-09-05T11:32:00Z</time>
      </trkpt>
      <trkpt lat="42.619547" lon="0.476695">
        <ele>1997.000000</ele>
        <time>2021-09-05T11:32:01Z</time>
      </trkpt>
      <trkpt lat="42.619543" lon="0.476700">
        <ele>1997.000000</ele>
        <time>2021-09-05T11:32:02Z</time>
      </trkpt>
      <trkpt lat="42.619540" lon="0.476710">
        <ele>1997.000000</ele>
        <time>2021-09-05T11:32:03Z</time>
      </trkpt>
      <trkpt lat="42.619528" lon="0.476713">
        <ele>1996.000000</ele>
        <time>2021-09-05T11:32:04Z</time>
      </trkpt>
      <trkpt lat="42.619518" lon="0.476720">
        <ele>1996.000000</ele>
        <time>2021-09-05T11:32:05Z</time>
      </trkpt>
      <trkpt lat="42.619510" lon="0.476724">
        <ele>1996.000000</ele>
        <time>2021-09-05T11:32:06Z</time>
      </trkpt>
      <trkpt lat="42.619500" lon="0.476728">
        <ele>1996.000000</ele>
        <time>2021-09-05T11:32:08Z</time>
      </trkpt>
      <trkpt lat="42.619492" lon="0.476723">
        <ele>1996.000000</ele>
        <time>2021-09-05T11:32:08Z</time>
      </trkpt>
      <trkpt lat="42.619483" lon="0.476720">
        <ele>1996.000000</ele>
        <time>2021-09-05T11:32:09Z</time>
      </trkpt>
      <trkpt lat="42.619478" lon="0.476721">
        <ele>1996.000000</ele>
        <time>2021-09-05T11:32:10Z</time>
      </trkpt>
      <trkpt lat="42.619475" lon="0.476718">
        <ele>1996.000000</ele>
        <time>2021-09-05T11:32:11Z</time>
      </trkpt>
      <trkpt lat="42.619470" lon="0.476713">
        <ele>1996.000000</ele>
        <time>2021-09-05T11:32:12Z</time>
      </trkpt>
      <trkpt lat="42.619460" lon="0.476710">
        <ele>1996.000000</ele>
        <time>2021-09-05T11:32:13Z</time>
      </trkpt>
      <trkpt lat="42.619453" lon="0.476710">
        <ele>1996.000000</ele>
        <time>2021-09-05T11:32:14Z</time>
      </trkpt>
      <trkpt lat="42.619443" lon="0.476711">
        <ele>1996.000000</ele>
        <time>2021-09-05T11:32:15Z</time>
      </trkpt>
      <trkpt lat="42.619433" lon="0.476715">
        <ele>1995.000000</ele>
        <time>2021-09-05T11:32:16Z</time>
      </trkpt>
      <trkpt lat="42.619423" lon="0.476725">
        <ele>1995.000000</ele>
        <time>2021-09-05T11:32:17Z</time>
      </trkpt>
      <trkpt lat="42.619415" lon="0.476730">
        <ele>1995.000000</ele>
        <time>2021-09-05T11:32:18Z</time>
      </trkpt>
      <trkpt lat="42.619408" lon="0.476728">
        <ele>1995.000000</ele>
        <time>2021-09-05T11:32:19Z</time>
      </trkpt>
      <trkpt lat="42.619402" lon="0.476725">
        <ele>1995.000000</ele>
        <time>2021-09-05T11:32:20Z</time>
      </trkpt>
      <trkpt lat="42.619395" lon="0.476722">
        <ele>1995.000000</ele>
        <time>2021-09-05T11:32:21Z</time>
      </trkpt>
      <trkpt lat="42.619388" lon="0.476715">
        <ele>1994.000000</ele>
        <time>2021-09-05T11:32:22Z</time>
      </trkpt>
      <trkpt lat="42.619377" lon="0.476713">
        <ele>1994.000000</ele>
        <time>2021-09-05T11:32:23Z</time>
      </trkpt>
      <trkpt lat="42.619362" lon="0.476712">
        <ele>1994.000000</ele>
        <time>2021-09-05T11:32:24Z</time>
      </trkpt>
      <trkpt lat="42.619352" lon="0.476713">
        <ele>1993.000000</ele>
        <time>2021-09-05T11:32:25Z</time>
      </trkpt>
      <trkpt lat="42.619337" lon="0.476715">
        <ele>1993.000000</ele>
        <time>2021-09-05T11:32:26Z</time>
      </trkpt>
      <trkpt lat="42.619328" lon="0.476716">
        <ele>1993.000000</ele>
        <time>2021-09-05T11:32:27Z</time>
      </trkpt>
      <trkpt lat="42.619322" lon="0.476717">
        <ele>1992.000000</ele>
        <time>2021-09-05T11:32:27Z</time>
      </trkpt>
      <trkpt lat="42.619317" lon="0.476719">
        <ele>1992.000000</ele>
        <time>2021-09-05T11:32:28Z</time>
      </trkpt>
      <trkpt lat="42.619303" lon="0.476721">
        <ele>1992.000000</ele>
        <time>2021-09-05T11:32:29Z</time>
      </trkpt>
      <trkpt lat="42.619300" lon="0.476720">
        <ele>1992.000000</ele>
        <time>2021-09-05T11:32:30Z</time>
      </trkpt>
      <trkpt lat="42.619290" lon="0.476718">
        <ele>1991.000000</ele>
        <time>2021-09-05T11:32:31Z</time>
      </trkpt>
      <trkpt lat="42.619287" lon="0.476717">
        <ele>1991.000000</ele>
        <time>2021-09-05T11:32:32Z</time>
      </trkpt>
      <trkpt lat="42.619280" lon="0.476715">
        <ele>1991.000000</ele>
        <time>2021-09-05T11:32:33Z</time>
      </trkpt>
      <trkpt lat="42.619273" lon="0.476714">
        <ele>1990.000000</ele>
        <time>2021-09-05T11:32:34Z</time>
      </trkpt>
      <trkpt lat="42.619263" lon="0.476713">
        <ele>1990.000000</ele>
        <time>2021-09-05T11:32:35Z</time>
      </trkpt>
      <trkpt lat="42.619260" lon="0.476715">
        <ele>1990.000000</ele>
        <time>2021-09-05T11:32:36Z</time>
      </trkpt>
      <trkpt lat="42.619255" lon="0.476716">
        <ele>1990.000000</ele>
        <time>2021-09-05T11:32:37Z</time>
      </trkpt>
      <trkpt lat="42.619245" lon="0.476716">
        <ele>1989.000000</ele>
        <time>2021-09-05T11:32:38Z</time>
      </trkpt>
      <trkpt lat="42.619238" lon="0.476715">
        <ele>1989.000000</ele>
        <time>2021-09-05T11:32:39Z</time>
      </trkpt>
      <trkpt lat="42.619228" lon="0.476713">
        <ele>1989.000000</ele>
        <time>2021-09-05T11:32:40Z</time>
      </trkpt>
      <trkpt lat="42.619218" lon="0.476710">
        <ele>1988.000000</ele>
        <time>2021-09-05T11:32:41Z</time>
      </trkpt>
      <trkpt lat="42.619210" lon="0.476707">
        <ele>1988.000000</ele>
        <time>2021-09-05T11:32:42Z</time>
      </trkpt>
      <trkpt lat="42.619202" lon="0.476705">
        <ele>1988.000000</ele>
        <time>2021-09-05T11:32:43Z</time>
      </trkpt>
      <trkpt lat="42.619195" lon="0.476706">
        <ele>1988.000000</ele>
        <time>2021-09-05T11:32:44Z</time>
      </trkpt>
      <trkpt lat="42.619185" lon="0.476717">
        <ele>1987.000000</ele>
        <time>2021-09-05T11:32:45Z</time>
      </trkpt>
      <trkpt lat="42.619182" lon="0.476720">
        <ele>1987.000000</ele>
        <time>2021-09-05T11:32:46Z</time>
      </trkpt>
      <trkpt lat="42.619168" lon="0.476719">
        <ele>1987.000000</ele>
        <time>2021-09-05T11:32:47Z</time>
      </trkpt>
      <trkpt lat="42.619165" lon="0.476715">
        <ele>1987.000000</ele>
        <time>2021-09-05T11:32:48Z</time>
      </trkpt>
      <trkpt lat="42.619162" lon="0.476714">
        <ele>1987.000000</ele>
        <time>2021-09-05T11:32:49Z</time>
      </trkpt>
      <trkpt lat="42.619160" lon="0.476715">
        <ele>1987.000000</ele>
        <time>2021-09-05T11:32:51Z</time>
      </trkpt>
      <trkpt lat="42.619160" lon="0.476720">
        <ele>1987.000000</ele>
        <time>2021-09-05T11:32:51Z</time>
      </trkpt>
      <trkpt lat="42.619165" lon="0.476727">
        <ele>1987.000000</ele>
        <time>2021-09-05T11:32:52Z</time>
      </trkpt>
      <trkpt lat="42.619172" lon="0.476732">
        <ele>1987.000000</ele>
        <time>2021-09-05T11:32:53Z</time>
      </trkpt>
      <trkpt lat="42.619177" lon="0.476737">
        <ele>1986.000000</ele>
        <time>2021-09-05T11:32:54Z</time>
      </trkpt>
      <trkpt lat="42.619185" lon="0.476742">
        <ele>1986.000000</ele>
        <time>2021-09-05T11:32:55Z</time>
      </trkpt>
      <trkpt lat="42.619192" lon="0.476743">
        <ele>1986.000000</ele>
        <time>2021-09-05T11:32:56Z</time>
      </trkpt>
      <trkpt lat="42.619200" lon="0.476745">
        <ele>1986.000000</ele>
        <time>2021-09-05T11:32:57Z</time>
      </trkpt>
      <trkpt lat="42.619203" lon="0.476745">
        <ele>1986.000000</ele>
        <time>2021-09-05T11:32:58Z</time>
      </trkpt>
      <trkpt lat="42.619207" lon="0.476748">
        <ele>1986.000000</ele>
        <time>2021-09-05T11:32:59Z</time>
      </trkpt>
      <trkpt lat="42.619215" lon="0.476750">
        <ele>1986.000000</ele>
        <time>2021-09-05T11:33:00Z</time>
      </trkpt>
      <trkpt lat="42.619213" lon="0.476753">
        <ele>1986.000000</ele>
        <time>2021-09-05T11:33:01Z</time>
      </trkpt>
      <trkpt lat="42.619213" lon="0.476756">
        <ele>1986.000000</ele>
        <time>2021-09-05T11:33:02Z</time>
      </trkpt>
      <trkpt lat="42.619215" lon="0.476761">
        <ele>1986.000000</ele>
        <time>2021-09-05T11:33:03Z</time>
      </trkpt>
      <trkpt lat="42.619217" lon="0.476766">
        <ele>1985.000000</ele>
        <time>2021-09-05T11:33:04Z</time>
      </trkpt>
      <trkpt lat="42.619215" lon="0.476765">
        <ele>1985.000000</ele>
        <time>2021-09-05T11:33:05Z</time>
      </trkpt>
      <trkpt lat="42.619217" lon="0.476770">
        <ele>1985.000000</ele>
        <time>2021-09-05T11:33:06Z</time>
      </trkpt>
      <trkpt lat="42.619218" lon="0.476795">
        <ele>1985.000000</ele>
        <time>2021-09-05T11:33:07Z</time>
      </trkpt>
      <trkpt lat="42.619220" lon="0.476808">
        <ele>1984.000000</ele>
        <time>2021-09-05T11:33:08Z</time>
      </trkpt>
      <trkpt lat="42.619222" lon="0.476818">
        <ele>1984.000000</ele>
        <time>2021-09-05T11:33:09Z</time>
      </trkpt>
      <trkpt lat="42.619222" lon="0.476825">
        <ele>1984.000000</ele>
        <time>2021-09-05T11:33:10Z</time>
      </trkpt>
      <trkpt lat="42.619222" lon="0.476828">
        <ele>1984.000000</ele>
        <time>2021-09-05T11:33:11Z</time>
      </trkpt>
      <trkpt lat="42.619220" lon="0.476830">
        <ele>1984.000000</ele>
        <time>2021-09-05T11:33:12Z</time>
      </trkpt>
      <trkpt lat="42.619220" lon="0.476828">
        <ele>1983.000000</ele>
        <time>2021-09-05T11:33:13Z</time>
      </trkpt>
      <trkpt lat="42.619220" lon="0.476833">
        <ele>1983.000000</ele>
        <time>2021-09-05T11:33:15Z</time>
      </trkpt>
      <trkpt lat="42.619219" lon="0.476837">
        <ele>1983.000000</ele>
        <time>2021-09-05T11:33:15Z</time>
      </trkpt>
      <trkpt lat="42.619219" lon="0.476843">
        <ele>1983.000000</ele>
        <time>2021-09-05T11:33:16Z</time>
      </trkpt>
      <trkpt lat="42.619220" lon="0.476845">
        <ele>1982.000000</ele>
        <time>2021-09-05T11:33:17Z</time>
      </trkpt>
      <trkpt lat="42.619219" lon="0.476853">
        <ele>1982.000000</ele>
        <time>2021-09-05T11:33:18Z</time>
      </trkpt>
      <trkpt lat="42.619212" lon="0.476857">
        <ele>1982.000000</ele>
        <time>2021-09-05T11:33:19Z</time>
      </trkpt>
      <trkpt lat="42.619200" lon="0.476857">
        <ele>1981.000000</ele>
        <time>2021-09-05T11:33:20Z</time>
      </trkpt>
      <trkpt lat="42.619192" lon="0.476857">
        <ele>1981.000000</ele>
        <time>2021-09-05T11:33:21Z</time>
      </trkpt>
      <trkpt lat="42.619183" lon="0.476858">
        <ele>1981.000000</ele>
        <time>2021-09-05T11:33:22Z</time>
      </trkpt>
      <trkpt lat="42.619172" lon="0.476862">
        <ele>1981.000000</ele>
        <time>2021-09-05T11:33:23Z</time>
      </trkpt>
      <trkpt lat="42.619170" lon="0.476867">
        <ele>1980.000000</ele>
        <time>2021-09-05T11:33:24Z</time>
      </trkpt>
      <trkpt lat="42.619150" lon="0.476875">
        <ele>1980.000000</ele>
        <time>2021-09-05T11:33:25Z</time>
      </trkpt>
      <trkpt lat="42.619137" lon="0.476871">
        <ele>1980.000000</ele>
        <time>2021-09-05T11:33:26Z</time>
      </trkpt>
      <trkpt lat="42.619128" lon="0.476866">
        <ele>1980.000000</ele>
        <time>2021-09-05T11:33:27Z</time>
      </trkpt>
      <trkpt lat="42.619117" lon="0.476861">
        <ele>1980.000000</ele>
        <time>2021-09-05T11:33:28Z</time>
      </trkpt>
      <trkpt lat="42.619103" lon="0.476857">
        <ele>1980.000000</ele>
        <time>2021-09-05T11:33:29Z</time>
      </trkpt>
      <trkpt lat="42.619092" lon="0.476860">
        <ele>1979.000000</ele>
        <time>2021-09-05T11:33:30Z</time>
      </trkpt>
      <trkpt lat="42.619082" lon="0.476863">
        <ele>1979.000000</ele>
        <time>2021-09-05T11:33:31Z</time>
      </trkpt>
      <trkpt lat="42.619075" lon="0.476865">
        <ele>1979.000000</ele>
        <time>2021-09-05T11:33:32Z</time>
      </trkpt>
      <trkpt lat="42.619070" lon="0.476867">
        <ele>1979.000000</ele>
        <time>2021-09-05T11:33:34Z</time>
      </trkpt>
      <trkpt lat="42.619062" lon="0.476868">
        <ele>1978.000000</ele>
        <time>2021-09-05T11:33:34Z</time>
      </trkpt>
      <trkpt lat="42.619053" lon="0.476869">
        <ele>1978.000000</ele>
        <time>2021-09-05T11:33:35Z</time>
      </trkpt>
      <trkpt lat="42.619047" lon="0.476872">
        <ele>1978.000000</ele>
        <time>2021-09-05T11:33:36Z</time>
      </trkpt>
      <trkpt lat="42.619038" lon="0.476876">
        <ele>1978.000000</ele>
        <time>2021-09-05T11:33:37Z</time>
      </trkpt>
      <trkpt lat="42.619023" lon="0.476880">
        <ele>1977.000000</ele>
        <time>2021-09-05T11:33:38Z</time>
      </trkpt>
      <trkpt lat="42.619008" lon="0.476884">
        <ele>1977.000000</ele>
        <time>2021-09-05T11:33:39Z</time>
      </trkpt>
      <trkpt lat="42.619005" lon="0.476885">
        <ele>1977.000000</ele>
        <time>2021-09-05T11:33:40Z</time>
      </trkpt>
      <trkpt lat="42.618995" lon="0.476887">
        <ele>1977.000000</ele>
        <time>2021-09-05T11:33:41Z</time>
      </trkpt>
      <trkpt lat="42.618992" lon="0.476889">
        <ele>1977.000000</ele>
        <time>2021-09-05T11:33:42Z</time>
      </trkpt>
      <trkpt lat="42.618992" lon="0.476891">
        <ele>1977.000000</ele>
        <time>2021-09-05T11:33:43Z</time>
      </trkpt>
      <trkpt lat="42.618990" lon="0.476894">
        <ele>1977.000000</ele>
        <time>2021-09-05T11:33:44Z</time>
      </trkpt>
      <trkpt lat="42.618988" lon="0.476923">
        <ele>1977.000000</ele>
        <time>2021-09-05T11:33:45Z</time>
      </trkpt>
      <trkpt lat="42.618992" lon="0.476923">
        <ele>1977.000000</ele>
        <time>2021-09-05T11:33:46Z</time>
      </trkpt>
      <trkpt lat="42.618998" lon="0.476928">
        <ele>1977.000000</ele>
        <time>2021-09-05T11:33:47Z</time>
      </trkpt>
      <trkpt lat="42.619000" lon="0.476933">
        <ele>1977.000000</ele>
        <time>2021-09-05T11:33:48Z</time>
      </trkpt>
      <trkpt lat="42.618998" lon="0.476942">
        <ele>1977.000000</ele>
        <time>2021-09-05T11:33:49Z</time>
      </trkpt>
      <trkpt lat="42.619003" lon="0.476943">
        <ele>1977.000000</ele>
        <time>2021-09-05T11:33:50Z</time>
      </trkpt>
      <trkpt lat="42.619002" lon="0.476950">
        <ele>1977.000000</ele>
        <time>2021-09-05T11:33:51Z</time>
      </trkpt>
      <trkpt lat="42.619004" lon="0.476952">
        <ele>1977.000000</ele>
        <time>2021-09-05T11:33:52Z</time>
      </trkpt>
      <trkpt lat="42.619010" lon="0.476953">
        <ele>1977.000000</ele>
        <time>2021-09-05T11:33:53Z</time>
      </trkpt>
      <trkpt lat="42.619022" lon="0.476950">
        <ele>1977.000000</ele>
        <time>2021-09-05T11:33:54Z</time>
      </trkpt>
      <trkpt lat="42.619027" lon="0.476952">
        <ele>1977.000000</ele>
        <time>2021-09-05T11:33:55Z</time>
      </trkpt>
      <trkpt lat="42.619037" lon="0.476955">
        <ele>1977.000000</ele>
        <time>2021-09-05T11:33:56Z</time>
      </trkpt>
      <trkpt lat="42.619035" lon="0.476962">
        <ele>1977.000000</ele>
        <time>2021-09-05T11:33:58Z</time>
      </trkpt>
      <trkpt lat="42.619033" lon="0.476967">
        <ele>1976.000000</ele>
        <time>2021-09-05T11:33:58Z</time>
      </trkpt>
      <trkpt lat="42.619033" lon="0.476975">
        <ele>1976.000000</ele>
        <time>2021-09-05T11:33:59Z</time>
      </trkpt>
      <trkpt lat="42.619030" lon="0.476985">
        <ele>1976.000000</ele>
        <time>2021-09-05T11:34:00Z</time>
      </trkpt>
      <trkpt lat="42.619027" lon="0.476987">
        <ele>1976.000000</ele>
        <time>2021-09-05T11:34:01Z</time>
      </trkpt>
      <trkpt lat="42.619017" lon="0.476988">
        <ele>1976.000000</ele>
        <time>2021-09-05T11:34:02Z</time>
      </trkpt>
      <trkpt lat="42.619012" lon="0.476980">
        <ele>1976.000000</ele>
        <time>2021-09-05T11:34:03Z</time>
      </trkpt>
      <trkpt lat="42.619005" lon="0.476982">
        <ele>1976.000000</ele>
        <time>2021-09-05T11:34:04Z</time>
      </trkpt>
      <trkpt lat="42.619003" lon="0.476980">
        <ele>1976.000000</ele>
        <time>2021-09-05T11:34:05Z</time>
      </trkpt>
      <trkpt lat="42.619005" lon="0.476985">
        <ele>1976.000000</ele>
        <time>2021-09-05T11:34:06Z</time>
      </trkpt>
      <trkpt lat="42.619002" lon="0.476988">
        <ele>1976.000000</ele>
        <time>2021-09-05T11:34:07Z</time>
      </trkpt>
      <trkpt lat="42.618998" lon="0.476996">
        <ele>1976.000000</ele>
        <time>2021-09-05T11:34:08Z</time>
      </trkpt>
      <trkpt lat="42.618993" lon="0.477003">
        <ele>1976.000000</ele>
        <time>2021-09-05T11:34:09Z</time>
      </trkpt>
      <trkpt lat="42.618987" lon="0.477003">
        <ele>1976.000000</ele>
        <time>2021-09-05T11:34:10Z</time>
      </trkpt>
      <trkpt lat="42.618977" lon="0.477003">
        <ele>1976.000000</ele>
        <time>2021-09-05T11:34:11Z</time>
      </trkpt>
      <trkpt lat="42.618965" lon="0.477002">
        <ele>1975.000000</ele>
        <time>2021-09-05T11:34:12Z</time>
      </trkpt>
      <trkpt lat="42.618962" lon="0.477001">
        <ele>1975.000000</ele>
        <time>2021-09-05T11:34:13Z</time>
      </trkpt>
      <trkpt lat="42.618952" lon="0.477004">
        <ele>1975.000000</ele>
        <time>2021-09-05T11:34:14Z</time>
      </trkpt>
      <trkpt lat="42.618950" lon="0.477002">
        <ele>1975.000000</ele>
        <time>2021-09-05T11:34:17Z</time>
      </trkpt>
      <trkpt lat="42.618948" lon="0.477003">
        <ele>1975.000000</ele>
        <time>2021-09-05T11:34:18Z</time>
      </trkpt>
      <trkpt lat="42.618942" lon="0.477010">
        <ele>1974.000000</ele>
        <time>2021-09-05T11:34:19Z</time>
      </trkpt>
      <trkpt lat="42.618937" lon="0.477017">
        <ele>1974.000000</ele>
        <time>2021-09-05T11:34:20Z</time>
      </trkpt>
      <trkpt lat="42.618930" lon="0.477022">
        <ele>1974.000000</ele>
        <time>2021-09-05T11:34:22Z</time>
      </trkpt>
      <trkpt lat="42.618927" lon="0.477023">
        <ele>1974.000000</ele>
        <time>2021-09-05T11:34:22Z</time>
      </trkpt>
      <trkpt lat="42.618920" lon="0.477020">
        <ele>1974.000000</ele>
        <time>2021-09-05T11:34:23Z</time>
      </trkpt>
      <trkpt lat="42.618913" lon="0.477013">
        <ele>1974.000000</ele>
        <time>2021-09-05T11:34:24Z</time>
      </trkpt>
      <trkpt lat="42.618915" lon="0.477012">
        <ele>1973.000000</ele>
        <time>2021-09-05T11:34:25Z</time>
      </trkpt>
      <trkpt lat="42.618913" lon="0.477010">
        <ele>1973.000000</ele>
        <time>2021-09-05T11:34:26Z</time>
      </trkpt>
      <trkpt lat="42.618912" lon="0.477011">
        <ele>1973.000000</ele>
        <time>2021-09-05T11:34:27Z</time>
      </trkpt>
      <trkpt lat="42.618907" lon="0.477005">
        <ele>1973.000000</ele>
        <time>2021-09-05T11:34:28Z</time>
      </trkpt>
      <trkpt lat="42.618910" lon="0.477007">
        <ele>1973.000000</ele>
        <time>2021-09-05T11:34:29Z</time>
      </trkpt>
      <trkpt lat="42.618915" lon="0.477013">
        <ele>1973.000000</ele>
        <time>2021-09-05T11:34:30Z</time>
      </trkpt>
      <trkpt lat="42.618915" lon="0.477013">
        <ele>1973.000000</ele>
        <time>2021-09-05T11:34:31Z</time>
      </trkpt>
      <trkpt lat="42.618912" lon="0.477011">
        <ele>1973.000000</ele>
        <time>2021-09-05T11:34:32Z</time>
      </trkpt>
      <trkpt lat="42.618908" lon="0.477010">
        <ele>1973.000000</ele>
        <time>2021-09-05T11:34:33Z</time>
      </trkpt>
      <trkpt lat="42.618903" lon="0.477014">
        <ele>1972.000000</ele>
        <time>2021-09-05T11:34:34Z</time>
      </trkpt>
      <trkpt lat="42.618900" lon="0.477027">
        <ele>1972.000000</ele>
        <time>2021-09-05T11:34:35Z</time>
      </trkpt>
      <trkpt lat="42.618900" lon="0.477029">
        <ele>1972.000000</ele>
        <time>2021-09-05T11:34:36Z</time>
      </trkpt>
      <trkpt lat="42.618895" lon="0.477030">
        <ele>1972.000000</ele>
        <time>2021-09-05T11:34:37Z</time>
      </trkpt>
      <trkpt lat="42.618888" lon="0.477033">
        <ele>1972.000000</ele>
        <time>2021-09-05T11:34:38Z</time>
      </trkpt>
      <trkpt lat="42.618883" lon="0.477034">
        <ele>1972.000000</ele>
        <time>2021-09-05T11:34:39Z</time>
      </trkpt>
      <trkpt lat="42.618878" lon="0.477035">
        <ele>1972.000000</ele>
        <time>2021-09-05T11:34:41Z</time>
      </trkpt>
      <trkpt lat="42.618875" lon="0.477036">
        <ele>1971.000000</ele>
        <time>2021-09-05T11:34:41Z</time>
      </trkpt>
      <trkpt lat="42.618873" lon="0.477038">
        <ele>1971.000000</ele>
        <time>2021-09-05T11:34:42Z</time>
      </trkpt>
      <trkpt lat="42.618868" lon="0.477042">
        <ele>1971.000000</ele>
        <time>2021-09-05T11:34:43Z</time>
      </trkpt>
      <trkpt lat="42.618868" lon="0.477043">
        <ele>1971.000000</ele>
        <time>2021-09-05T11:34:44Z</time>
      </trkpt>
      <trkpt lat="42.618870" lon="0.477043">
        <ele>1971.000000</ele>
        <time>2021-09-05T11:34:46Z</time>
      </trkpt>
      <trkpt lat="42.618873" lon="0.477052">
        <ele>1971.000000</ele>
        <time>2021-09-05T11:34:47Z</time>
      </trkpt>
      <trkpt lat="42.618869" lon="0.477052">
        <ele>1971.000000</ele>
        <time>2021-09-05T11:34:48Z</time>
      </trkpt>
      <trkpt lat="42.618857" lon="0.477047">
        <ele>1971.000000</ele>
        <time>2021-09-05T11:34:49Z</time>
      </trkpt>
      <trkpt lat="42.618853" lon="0.477048">
        <ele>1971.000000</ele>
        <time>2021-09-05T11:34:50Z</time>
      </trkpt>
      <trkpt lat="42.618850" lon="0.477063">
        <ele>1971.000000</ele>
        <time>2021-09-05T11:34:51Z</time>
      </trkpt>
      <trkpt lat="42.618847" lon="0.477073">
        <ele>1971.000000</ele>
        <time>2021-09-05T11:34:52Z</time>
      </trkpt>
      <trkpt lat="42.618843" lon="0.477090">
        <ele>1971.000000</ele>
        <time>2021-09-05T11:34:53Z</time>
      </trkpt>
      <trkpt lat="42.618843" lon="0.477103">
        <ele>1970.000000</ele>
        <time>2021-09-05T11:34:54Z</time>
      </trkpt>
      <trkpt lat="42.618840" lon="0.477117">
        <ele>1970.000000</ele>
        <time>2021-09-05T11:34:55Z</time>
      </trkpt>
      <trkpt lat="42.618834" lon="0.477125">
        <ele>1970.000000</ele>
        <time>2021-09-05T11:34:56Z</time>
      </trkpt>
      <trkpt lat="42.618826" lon="0.477137">
        <ele>1970.000000</ele>
        <time>2021-09-05T11:34:57Z</time>
      </trkpt>
      <trkpt lat="42.618820" lon="0.477145">
        <ele>1970.000000</ele>
        <time>2021-09-05T11:34:58Z</time>
      </trkpt>
      <trkpt lat="42.618810" lon="0.477147">
        <ele>1970.000000</ele>
        <time>2021-09-05T11:34:59Z</time>
      </trkpt>
      <trkpt lat="42.618805" lon="0.477153">
        <ele>1970.000000</ele>
        <time>2021-09-05T11:35:00Z</time>
      </trkpt>
      <trkpt lat="42.618807" lon="0.477155">
        <ele>1969.000000</ele>
        <time>2021-09-05T11:35:01Z</time>
      </trkpt>
      <trkpt lat="42.618803" lon="0.477169">
        <ele>1969.000000</ele>
        <time>2021-09-05T11:35:02Z</time>
      </trkpt>
      <trkpt lat="42.618793" lon="0.477184">
        <ele>1969.000000</ele>
        <time>2021-09-05T11:35:03Z</time>
      </trkpt>
      <trkpt lat="42.618778" lon="0.477185">
        <ele>1969.000000</ele>
        <time>2021-09-05T11:35:05Z</time>
      </trkpt>
      <trkpt lat="42.618768" lon="0.477175">
        <ele>1968.000000</ele>
        <time>2021-09-05T11:35:05Z</time>
      </trkpt>
      <trkpt lat="42.618767" lon="0.477173">
        <ele>1968.000000</ele>
        <time>2021-09-05T11:35:06Z</time>
      </trkpt>
      <trkpt lat="42.618762" lon="0.477175">
        <ele>1968.000000</ele>
        <time>2021-09-05T11:35:07Z</time>
      </trkpt>
      <trkpt lat="42.618762" lon="0.477176">
        <ele>1968.000000</ele>
        <time>2021-09-05T11:35:08Z</time>
      </trkpt>
      <trkpt lat="42.618750" lon="0.477182">
        <ele>1967.000000</ele>
        <time>2021-09-05T11:35:09Z</time>
      </trkpt>
      <trkpt lat="42.618742" lon="0.477187">
        <ele>1967.000000</ele>
        <time>2021-09-05T11:35:10Z</time>
      </trkpt>
      <trkpt lat="42.618738" lon="0.477191">
        <ele>1967.000000</ele>
        <time>2021-09-05T11:35:11Z</time>
      </trkpt>
      <trkpt lat="42.618730" lon="0.477197">
        <ele>1967.000000</ele>
        <time>2021-09-05T11:35:12Z</time>
      </trkpt>
      <trkpt lat="42.618720" lon="0.477200">
        <ele>1967.000000</ele>
        <time>2021-09-05T11:35:13Z</time>
      </trkpt>
      <trkpt lat="42.618713" lon="0.477202">
        <ele>1967.000000</ele>
        <time>2021-09-05T11:35:14Z</time>
      </trkpt>
      <trkpt lat="42.618710" lon="0.477205">
        <ele>1967.000000</ele>
        <time>2021-09-05T11:35:15Z</time>
      </trkpt>
      <trkpt lat="42.618702" lon="0.477212">
        <ele>1967.000000</ele>
        <time>2021-09-05T11:35:16Z</time>
      </trkpt>
      <trkpt lat="42.618692" lon="0.477219">
        <ele>1967.000000</ele>
        <time>2021-09-05T11:35:17Z</time>
      </trkpt>
      <trkpt lat="42.618683" lon="0.477225">
        <ele>1966.000000</ele>
        <time>2021-09-05T11:35:18Z</time>
      </trkpt>
      <trkpt lat="42.618670" lon="0.477232">
        <ele>1966.000000</ele>
        <time>2021-09-05T11:35:19Z</time>
      </trkpt>
      <trkpt lat="42.618662" lon="0.477235">
        <ele>1966.000000</ele>
        <time>2021-09-05T11:35:20Z</time>
      </trkpt>
      <trkpt lat="42.618657" lon="0.477237">
        <ele>1966.000000</ele>
        <time>2021-09-05T11:35:21Z</time>
      </trkpt>
      <trkpt lat="42.618642" lon="0.477243">
        <ele>1966.000000</ele>
        <time>2021-09-05T11:35:22Z</time>
      </trkpt>
      <trkpt lat="42.618630" lon="0.477248">
        <ele>1966.000000</ele>
        <time>2021-09-05T11:35:23Z</time>
      </trkpt>
      <trkpt lat="42.618615" lon="0.477254">
        <ele>1965.000000</ele>
        <time>2021-09-05T11:35:24Z</time>
      </trkpt>
      <trkpt lat="42.618603" lon="0.477259">
        <ele>1965.000000</ele>
        <time>2021-09-05T11:35:25Z</time>
      </trkpt>
      <trkpt lat="42.618587" lon="0.477264">
        <ele>1965.000000</ele>
        <time>2021-09-05T11:35:26Z</time>
      </trkpt>
      <trkpt lat="42.618577" lon="0.477267">
        <ele>1965.000000</ele>
        <time>2021-09-05T11:35:27Z</time>
      </trkpt>
      <trkpt lat="42.618568" lon="0.477269">
        <ele>1965.000000</ele>
        <time>2021-09-05T11:35:29Z</time>
      </trkpt>
      <trkpt lat="42.618557" lon="0.477274">
        <ele>1965.000000</ele>
        <time>2021-09-05T11:35:29Z</time>
      </trkpt>
      <trkpt lat="42.618545" lon="0.477278">
        <ele>1965.000000</ele>
        <time>2021-09-05T11:35:30Z</time>
      </trkpt>
      <trkpt lat="42.618533" lon="0.477280">
        <ele>1965.000000</ele>
        <time>2021-09-05T11:35:31Z</time>
      </trkpt>
      <trkpt lat="42.618525" lon="0.477282">
        <ele>1965.000000</ele>
        <time>2021-09-05T11:35:32Z</time>
      </trkpt>
      <trkpt lat="42.618515" lon="0.477285">
        <ele>1965.000000</ele>
        <time>2021-09-05T11:35:33Z</time>
      </trkpt>
      <trkpt lat="42.618503" lon="0.477288">
        <ele>1965.000000</ele>
        <time>2021-09-05T11:35:34Z</time>
      </trkpt>
      <trkpt lat="42.618493" lon="0.477290">
        <ele>1965.000000</ele>
        <time>2021-09-05T11:35:35Z</time>
      </trkpt>
      <trkpt lat="42.618482" lon="0.477294">
        <ele>1965.000000</ele>
        <time>2021-09-05T11:35:36Z</time>
      </trkpt>
      <trkpt lat="42.618468" lon="0.477298">
        <ele>1965.000000</ele>
        <time>2021-09-05T11:35:37Z</time>
      </trkpt>
      <trkpt lat="42.618455" lon="0.477303">
        <ele>1965.000000</ele>
        <time>2021-09-05T11:35:38Z</time>
      </trkpt>
      <trkpt lat="42.618447" lon="0.477305">
        <ele>1964.000000</ele>
        <time>2021-09-05T11:35:39Z</time>
      </trkpt>
      <trkpt lat="42.618438" lon="0.477308">
        <ele>1964.000000</ele>
        <time>2021-09-05T11:35:40Z</time>
      </trkpt>
      <trkpt lat="42.618427" lon="0.477302">
        <ele>1964.000000</ele>
        <time>2021-09-05T11:35:41Z</time>
      </trkpt>
      <trkpt lat="42.618420" lon="0.477303">
        <ele>1964.000000</ele>
        <time>2021-09-05T11:35:42Z</time>
      </trkpt>
      <trkpt lat="42.618410" lon="0.477313">
        <ele>1964.000000</ele>
        <time>2021-09-05T11:35:43Z</time>
      </trkpt>
      <trkpt lat="42.618398" lon="0.477318">
        <ele>1964.000000</ele>
        <time>2021-09-05T11:35:44Z</time>
      </trkpt>
      <trkpt lat="42.618387" lon="0.477321">
        <ele>1964.000000</ele>
        <time>2021-09-05T11:35:45Z</time>
      </trkpt>
      <trkpt lat="42.618373" lon="0.477320">
        <ele>1963.000000</ele>
        <time>2021-09-05T11:35:46Z</time>
      </trkpt>
      <trkpt lat="42.618365" lon="0.477317">
        <ele>1963.000000</ele>
        <time>2021-09-05T11:35:48Z</time>
      </trkpt>
      <trkpt lat="42.618360" lon="0.477316">
        <ele>1963.000000</ele>
        <time>2021-09-05T11:35:48Z</time>
      </trkpt>
      <trkpt lat="42.618353" lon="0.477318">
        <ele>1963.000000</ele>
        <time>2021-09-05T11:35:49Z</time>
      </trkpt>
      <trkpt lat="42.618347" lon="0.477322">
        <ele>1963.000000</ele>
        <time>2021-09-05T11:35:50Z</time>
      </trkpt>
      <trkpt lat="42.618338" lon="0.477327">
        <ele>1963.000000</ele>
        <time>2021-09-05T11:35:51Z</time>
      </trkpt>
      <trkpt lat="42.618335" lon="0.477329">
        <ele>1963.000000</ele>
        <time>2021-09-05T11:35:52Z</time>
      </trkpt>
      <trkpt lat="42.618327" lon="0.477332">
        <ele>1962.000000</ele>
        <time>2021-09-05T11:35:53Z</time>
      </trkpt>
      <trkpt lat="42.618317" lon="0.477337">
        <ele>1962.000000</ele>
        <time>2021-09-05T11:35:54Z</time>
      </trkpt>
      <trkpt lat="42.618307" lon="0.477343">
        <ele>1962.000000</ele>
        <time>2021-09-05T11:35:55Z</time>
      </trkpt>
      <trkpt lat="42.618300" lon="0.477347">
        <ele>1962.000000</ele>
        <time>2021-09-05T11:35:56Z</time>
      </trkpt>
      <trkpt lat="42.618295" lon="0.477350">
        <ele>1961.000000</ele>
        <time>2021-09-05T11:35:57Z</time>
      </trkpt>
      <trkpt lat="42.618287" lon="0.477353">
        <ele>1961.000000</ele>
        <time>2021-09-05T11:35:58Z</time>
      </trkpt>
      <trkpt lat="42.618270" lon="0.477353">
        <ele>1961.000000</ele>
        <time>2021-09-05T11:35:59Z</time>
      </trkpt>
      <trkpt lat="42.618255" lon="0.477327">
        <ele>1961.000000</ele>
        <time>2021-09-05T11:36:00Z</time>
      </trkpt>
      <trkpt lat="42.618245" lon="0.477323">
        <ele>1960.000000</ele>
        <time>2021-09-05T11:36:01Z</time>
      </trkpt>
      <trkpt lat="42.618235" lon="0.477327">
        <ele>1960.000000</ele>
        <time>2021-09-05T11:36:02Z</time>
      </trkpt>
      <trkpt lat="42.618238" lon="0.477331">
        <ele>1960.000000</ele>
        <time>2021-09-05T11:36:03Z</time>
      </trkpt>
      <trkpt lat="42.618238" lon="0.477335">
        <ele>1960.000000</ele>
        <time>2021-09-05T11:36:04Z</time>
      </trkpt>
      <trkpt lat="42.618242" lon="0.477355">
        <ele>1960.000000</ele>
        <time>2021-09-05T11:36:05Z</time>
      </trkpt>
      <trkpt lat="42.618237" lon="0.477360">
        <ele>1960.000000</ele>
        <time>2021-09-05T11:36:06Z</time>
      </trkpt>
      <trkpt lat="42.618233" lon="0.477362">
        <ele>1960.000000</ele>
        <time>2021-09-05T11:36:07Z</time>
      </trkpt>
      <trkpt lat="42.618232" lon="0.477365">
        <ele>1960.000000</ele>
        <time>2021-09-05T11:36:08Z</time>
      </trkpt>
      <trkpt lat="42.618223" lon="0.477372">
        <ele>1960.000000</ele>
        <time>2021-09-05T11:36:09Z</time>
      </trkpt>
      <trkpt lat="42.618215" lon="0.477380">
        <ele>1960.000000</ele>
        <time>2021-09-05T11:36:10Z</time>
      </trkpt>
      <trkpt lat="42.618212" lon="0.477393">
        <ele>1960.000000</ele>
        <time>2021-09-05T11:36:12Z</time>
      </trkpt>
      <trkpt lat="42.618213" lon="0.477400">
        <ele>1960.000000</ele>
        <time>2021-09-05T11:36:12Z</time>
      </trkpt>
      <trkpt lat="42.618207" lon="0.477403">
        <ele>1960.000000</ele>
        <time>2021-09-05T11:36:13Z</time>
      </trkpt>
      <trkpt lat="42.618202" lon="0.477413">
        <ele>1960.000000</ele>
        <time>2021-09-05T11:36:14Z</time>
      </trkpt>
      <trkpt lat="42.618200" lon="0.477423">
        <ele>1960.000000</ele>
        <time>2021-09-05T11:36:15Z</time>
      </trkpt>
      <trkpt lat="42.618200" lon="0.477432">
        <ele>1960.000000</ele>
        <time>2021-09-05T11:36:16Z</time>
      </trkpt>
      <trkpt lat="42.618197" lon="0.477440">
        <ele>1960.000000</ele>
        <time>2021-09-05T11:36:17Z</time>
      </trkpt>
      <trkpt lat="42.618194" lon="0.477440">
        <ele>1960.000000</ele>
        <time>2021-09-05T11:36:18Z</time>
      </trkpt>
      <trkpt lat="42.618191" lon="0.477452">
        <ele>1959.000000</ele>
        <time>2021-09-05T11:36:19Z</time>
      </trkpt>
      <trkpt lat="42.618188" lon="0.477465">
        <ele>1959.000000</ele>
        <time>2021-09-05T11:36:20Z</time>
      </trkpt>
      <trkpt lat="42.618185" lon="0.477472">
        <ele>1959.000000</ele>
        <time>2021-09-05T11:36:21Z</time>
      </trkpt>
      <trkpt lat="42.618182" lon="0.477473">
        <ele>1959.000000</ele>
        <time>2021-09-05T11:36:22Z</time>
      </trkpt>
      <trkpt lat="42.618163" lon="0.477478">
        <ele>1959.000000</ele>
        <time>2021-09-05T11:36:23Z</time>
      </trkpt>
      <trkpt lat="42.618160" lon="0.477482">
        <ele>1959.000000</ele>
        <time>2021-09-05T11:36:24Z</time>
      </trkpt>
      <trkpt lat="42.618154" lon="0.477485">
        <ele>1958.000000</ele>
        <time>2021-09-05T11:36:25Z</time>
      </trkpt>
      <trkpt lat="42.618150" lon="0.477493">
        <ele>1958.000000</ele>
        <time>2021-09-05T11:36:26Z</time>
      </trkpt>
      <trkpt lat="42.618148" lon="0.477503">
        <ele>1958.000000</ele>
        <time>2021-09-05T11:36:27Z</time>
      </trkpt>
      <trkpt lat="42.618143" lon="0.477512">
        <ele>1957.000000</ele>
        <time>2021-09-05T11:36:28Z</time>
      </trkpt>
      <trkpt lat="42.618142" lon="0.477512">
        <ele>1957.000000</ele>
        <time>2021-09-05T11:36:29Z</time>
      </trkpt>
      <trkpt lat="42.618130" lon="0.477513">
        <ele>1957.000000</ele>
        <time>2021-09-05T11:36:30Z</time>
      </trkpt>
      <trkpt lat="42.618123" lon="0.477513">
        <ele>1956.000000</ele>
        <time>2021-09-05T11:36:32Z</time>
      </trkpt>
      <trkpt lat="42.618112" lon="0.477515">
        <ele>1956.000000</ele>
        <time>2021-09-05T11:36:32Z</time>
      </trkpt>
      <trkpt lat="42.618103" lon="0.477520">
        <ele>1955.000000</ele>
        <time>2021-09-05T11:36:33Z</time>
      </trkpt>
      <trkpt lat="42.618095" lon="0.477520">
        <ele>1955.000000</ele>
        <time>2021-09-05T11:36:34Z</time>
      </trkpt>
      <trkpt lat="42.618090" lon="0.477522">
        <ele>1954.000000</ele>
        <time>2021-09-05T11:36:35Z</time>
      </trkpt>
      <trkpt lat="42.618082" lon="0.477522">
        <ele>1954.000000</ele>
        <time>2021-09-05T11:36:36Z</time>
      </trkpt>
      <trkpt lat="42.618072" lon="0.477522">
        <ele>1954.000000</ele>
        <time>2021-09-05T11:36:37Z</time>
      </trkpt>
      <trkpt lat="42.618065" lon="0.477518">
        <ele>1953.000000</ele>
        <time>2021-09-05T11:36:38Z</time>
      </trkpt>
      <trkpt lat="42.618055" lon="0.477510">
        <ele>1953.000000</ele>
        <time>2021-09-05T11:36:39Z</time>
      </trkpt>
      <trkpt lat="42.618047" lon="0.477498">
        <ele>1953.000000</ele>
        <time>2021-09-05T11:36:40Z</time>
      </trkpt>
      <trkpt lat="42.618038" lon="0.477490">
        <ele>1953.000000</ele>
        <time>2021-09-05T11:36:41Z</time>
      </trkpt>
      <trkpt lat="42.618035" lon="0.477488">
        <ele>1953.000000</ele>
        <time>2021-09-05T11:36:42Z</time>
      </trkpt>
      <trkpt lat="42.618033" lon="0.477483">
        <ele>1953.000000</ele>
        <time>2021-09-05T11:36:42Z</time>
      </trkpt>
      <trkpt lat="42.618030" lon="0.477487">
        <ele>1953.000000</ele>
        <time>2021-09-05T11:36:44Z</time>
      </trkpt>
      <trkpt lat="42.618025" lon="0.477487">
        <ele>1952.000000</ele>
        <time>2021-09-05T11:36:45Z</time>
      </trkpt>
      <trkpt lat="42.618020" lon="0.477482">
        <ele>1952.000000</ele>
        <time>2021-09-05T11:36:46Z</time>
      </trkpt>
      <trkpt lat="42.618015" lon="0.477478">
        <ele>1952.000000</ele>
        <time>2021-09-05T11:36:47Z</time>
      </trkpt>
      <trkpt lat="42.618018" lon="0.477480">
        <ele>1952.000000</ele>
        <time>2021-09-05T11:36:48Z</time>
      </trkpt>
      <trkpt lat="42.618013" lon="0.477477">
        <ele>1952.000000</ele>
        <time>2021-09-05T11:36:49Z</time>
      </trkpt>
      <trkpt lat="42.618007" lon="0.477471">
        <ele>1952.000000</ele>
        <time>2021-09-05T11:36:50Z</time>
      </trkpt>
      <trkpt lat="42.618003" lon="0.477469">
        <ele>1952.000000</ele>
        <time>2021-09-05T11:36:51Z</time>
      </trkpt>
      <trkpt lat="42.617993" lon="0.477464">
        <ele>1952.000000</ele>
        <time>2021-09-05T11:36:52Z</time>
      </trkpt>
      <trkpt lat="42.617985" lon="0.477463">
        <ele>1952.000000</ele>
        <time>2021-09-05T11:36:53Z</time>
      </trkpt>
      <trkpt lat="42.617978" lon="0.477461">
        <ele>1952.000000</ele>
        <time>2021-09-05T11:36:55Z</time>
      </trkpt>
      <trkpt lat="42.617967" lon="0.477455">
        <ele>1951.000000</ele>
        <time>2021-09-05T11:36:55Z</time>
      </trkpt>
      <trkpt lat="42.617957" lon="0.477449">
        <ele>1951.000000</ele>
        <time>2021-09-05T11:36:56Z</time>
      </trkpt>
      <trkpt lat="42.617948" lon="0.477445">
        <ele>1951.000000</ele>
        <time>2021-09-05T11:36:57Z</time>
      </trkpt>
      <trkpt lat="42.617937" lon="0.477439">
        <ele>1951.000000</ele>
        <time>2021-09-05T11:36:58Z</time>
      </trkpt>
      <trkpt lat="42.617927" lon="0.477434">
        <ele>1951.000000</ele>
        <time>2021-09-05T11:36:59Z</time>
      </trkpt>
      <trkpt lat="42.617915" lon="0.477425">
        <ele>1951.000000</ele>
        <time>2021-09-05T11:37:00Z</time>
      </trkpt>
      <trkpt lat="42.617910" lon="0.477419">
        <ele>1951.000000</ele>
        <time>2021-09-05T11:37:01Z</time>
      </trkpt>
      <trkpt lat="42.617903" lon="0.477397">
        <ele>1951.000000</ele>
        <time>2021-09-05T11:37:02Z</time>
      </trkpt>
      <trkpt lat="42.617895" lon="0.477393">
        <ele>1951.000000</ele>
        <time>2021-09-05T11:37:03Z</time>
      </trkpt>
      <trkpt lat="42.617893" lon="0.477392">
        <ele>1951.000000</ele>
        <time>2021-09-05T11:37:04Z</time>
      </trkpt>
      <trkpt lat="42.617888" lon="0.477387">
        <ele>1951.000000</ele>
        <time>2021-09-05T11:37:06Z</time>
      </trkpt>
      <trkpt lat="42.617883" lon="0.477382">
        <ele>1951.000000</ele>
        <time>2021-09-05T11:37:07Z</time>
      </trkpt>
      <trkpt lat="42.617885" lon="0.477378">
        <ele>1951.000000</ele>
        <time>2021-09-05T11:37:08Z</time>
      </trkpt>
      <trkpt lat="42.617878" lon="0.477375">
        <ele>1951.000000</ele>
        <time>2021-09-05T11:37:09Z</time>
      </trkpt>
      <trkpt lat="42.617875" lon="0.477373">
        <ele>1951.000000</ele>
        <time>2021-09-05T11:37:10Z</time>
      </trkpt>
      <trkpt lat="42.617868" lon="0.477381">
        <ele>1951.000000</ele>
        <time>2021-09-05T11:37:11Z</time>
      </trkpt>
      <trkpt lat="42.617863" lon="0.477383">
        <ele>1951.000000</ele>
        <time>2021-09-05T11:37:12Z</time>
      </trkpt>
      <trkpt lat="42.617853" lon="0.477390">
        <ele>1951.000000</ele>
        <time>2021-09-05T11:37:13Z</time>
      </trkpt>
      <trkpt lat="42.617847" lon="0.477398">
        <ele>1951.000000</ele>
        <time>2021-09-05T11:37:14Z</time>
      </trkpt>
      <trkpt lat="42.617840" lon="0.477402">
        <ele>1951.000000</ele>
        <time>2021-09-05T11:37:15Z</time>
      </trkpt>
      <trkpt lat="42.617825" lon="0.477402">
        <ele>1951.000000</ele>
        <time>2021-09-05T11:37:16Z</time>
      </trkpt>
      <trkpt lat="42.617817" lon="0.477404">
        <ele>1951.000000</ele>
        <time>2021-09-05T11:37:18Z</time>
      </trkpt>
      <trkpt lat="42.617808" lon="0.477404">
        <ele>1951.000000</ele>
        <time>2021-09-05T11:37:18Z</time>
      </trkpt>
      <trkpt lat="42.617800" lon="0.477403">
        <ele>1951.000000</ele>
        <time>2021-09-05T11:37:19Z</time>
      </trkpt>
      <trkpt lat="42.617792" lon="0.477405">
        <ele>1951.000000</ele>
        <time>2021-09-05T11:37:20Z</time>
      </trkpt>
      <trkpt lat="42.617783" lon="0.477403">
        <ele>1950.000000</ele>
        <time>2021-09-05T11:37:21Z</time>
      </trkpt>
      <trkpt lat="42.617777" lon="0.477401">
        <ele>1950.000000</ele>
        <time>2021-09-05T11:37:22Z</time>
      </trkpt>
      <trkpt lat="42.617773" lon="0.477401">
        <ele>1950.000000</ele>
        <time>2021-09-05T11:37:23Z</time>
      </trkpt>
      <trkpt lat="42.617768" lon="0.477401">
        <ele>1950.000000</ele>
        <time>2021-09-05T11:37:24Z</time>
      </trkpt>
      <trkpt lat="42.617767" lon="0.477410">
        <ele>1950.000000</ele>
        <time>2021-09-05T11:37:25Z</time>
      </trkpt>
      <trkpt lat="42.617753" lon="0.477402">
        <ele>1950.000000</ele>
        <time>2021-09-05T11:37:26Z</time>
      </trkpt>
      <trkpt lat="42.617737" lon="0.477387">
        <ele>1950.000000</ele>
        <time>2021-09-05T11:37:27Z</time>
      </trkpt>
      <trkpt lat="42.617723" lon="0.477382">
        <ele>1950.000000</ele>
        <time>2021-09-05T11:37:28Z</time>
      </trkpt>
      <trkpt lat="42.617712" lon="0.477380">
        <ele>1950.000000</ele>
        <time>2021-09-05T11:37:29Z</time>
      </trkpt>
      <trkpt lat="42.617700" lon="0.477377">
        <ele>1950.000000</ele>
        <time>2021-09-05T11:37:30Z</time>
      </trkpt>
      <trkpt lat="42.617690" lon="0.477375">
        <ele>1950.000000</ele>
        <time>2021-09-05T11:37:31Z</time>
      </trkpt>
      <trkpt lat="42.617683" lon="0.477374">
        <ele>1950.000000</ele>
        <time>2021-09-05T11:37:32Z</time>
      </trkpt>
      <trkpt lat="42.617668" lon="0.477372">
        <ele>1950.000000</ele>
        <time>2021-09-05T11:37:33Z</time>
      </trkpt>
      <trkpt lat="42.617657" lon="0.477370">
        <ele>1950.000000</ele>
        <time>2021-09-05T11:37:34Z</time>
      </trkpt>
      <trkpt lat="42.617648" lon="0.477367">
        <ele>1950.000000</ele>
        <time>2021-09-05T11:37:35Z</time>
      </trkpt>
      <trkpt lat="42.617642" lon="0.477365">
        <ele>1950.000000</ele>
        <time>2021-09-05T11:37:36Z</time>
      </trkpt>
      <trkpt lat="42.617632" lon="0.477364">
        <ele>1950.000000</ele>
        <time>2021-09-05T11:37:38Z</time>
      </trkpt>
      <trkpt lat="42.617622" lon="0.477364">
        <ele>1950.000000</ele>
        <time>2021-09-05T11:37:38Z</time>
      </trkpt>
      <trkpt lat="42.617615" lon="0.477365">
        <ele>1950.000000</ele>
        <time>2021-09-05T11:37:39Z</time>
      </trkpt>
      <trkpt lat="42.617613" lon="0.477368">
        <ele>1949.000000</ele>
        <time>2021-09-05T11:37:40Z</time>
      </trkpt>
      <trkpt lat="42.617610" lon="0.477371">
        <ele>1949.000000</ele>
        <time>2021-09-05T11:37:41Z</time>
      </trkpt>
      <trkpt lat="42.617602" lon="0.477392">
        <ele>1949.000000</ele>
        <time>2021-09-05T11:37:42Z</time>
      </trkpt>
      <trkpt lat="42.617588" lon="0.477400">
        <ele>1949.000000</ele>
        <time>2021-09-05T11:37:43Z</time>
      </trkpt>
      <trkpt lat="42.617587" lon="0.477409">
        <ele>1949.000000</ele>
        <time>2021-09-05T11:37:44Z</time>
      </trkpt>
      <trkpt lat="42.617578" lon="0.477411">
        <ele>1949.000000</ele>
        <time>2021-09-05T11:37:45Z</time>
      </trkpt>
      <trkpt lat="42.617565" lon="0.477408">
        <ele>1949.000000</ele>
        <time>2021-09-05T11:37:46Z</time>
      </trkpt>
      <trkpt lat="42.617558" lon="0.477410">
        <ele>1949.000000</ele>
        <time>2021-09-05T11:37:47Z</time>
      </trkpt>
      <trkpt lat="42.617550" lon="0.477410">
        <ele>1949.000000</ele>
        <time>2021-09-05T11:37:48Z</time>
      </trkpt>
      <trkpt lat="42.617538" lon="0.477405">
        <ele>1949.000000</ele>
        <time>2021-09-05T11:37:49Z</time>
      </trkpt>
      <trkpt lat="42.617533" lon="0.477407">
        <ele>1949.000000</ele>
        <time>2021-09-05T11:37:50Z</time>
      </trkpt>
      <trkpt lat="42.617528" lon="0.477409">
        <ele>1949.000000</ele>
        <time>2021-09-05T11:37:51Z</time>
      </trkpt>
      <trkpt lat="42.617520" lon="0.477412">
        <ele>1949.000000</ele>
        <time>2021-09-05T11:37:52Z</time>
      </trkpt>
      <trkpt lat="42.617515" lon="0.477414">
        <ele>1949.000000</ele>
        <time>2021-09-05T11:37:53Z</time>
      </trkpt>
      <trkpt lat="42.617508" lon="0.477418">
        <ele>1949.000000</ele>
        <time>2021-09-05T11:37:54Z</time>
      </trkpt>
      <trkpt lat="42.617505" lon="0.477425">
        <ele>1949.000000</ele>
        <time>2021-09-05T11:37:55Z</time>
      </trkpt>
      <trkpt lat="42.617500" lon="0.477432">
        <ele>1949.000000</ele>
        <time>2021-09-05T11:37:56Z</time>
      </trkpt>
      <trkpt lat="42.617498" lon="0.477437">
        <ele>1948.000000</ele>
        <time>2021-09-05T11:37:57Z</time>
      </trkpt>
      <trkpt lat="42.617497" lon="0.477440">
        <ele>1948.000000</ele>
        <time>2021-09-05T11:37:58Z</time>
      </trkpt>
      <trkpt lat="42.617490" lon="0.477442">
        <ele>1948.000000</ele>
        <time>2021-09-05T11:37:59Z</time>
      </trkpt>
      <trkpt lat="42.617483" lon="0.477448">
        <ele>1947.000000</ele>
        <time>2021-09-05T11:38:01Z</time>
      </trkpt>
      <trkpt lat="42.617475" lon="0.477449">
        <ele>1947.000000</ele>
        <time>2021-09-05T11:38:01Z</time>
      </trkpt>
      <trkpt lat="42.617465" lon="0.477453">
        <ele>1947.000000</ele>
        <time>2021-09-05T11:38:02Z</time>
      </trkpt>
      <trkpt lat="42.617458" lon="0.477456">
        <ele>1947.000000</ele>
        <time>2021-09-05T11:38:03Z</time>
      </trkpt>
      <trkpt lat="42.617453" lon="0.477458">
        <ele>1947.000000</ele>
        <time>2021-09-05T11:38:04Z</time>
      </trkpt>
      <trkpt lat="42.617447" lon="0.477461">
        <ele>1947.000000</ele>
        <time>2021-09-05T11:38:05Z</time>
      </trkpt>
      <trkpt lat="42.617438" lon="0.477463">
        <ele>1947.000000</ele>
        <time>2021-09-05T11:38:06Z</time>
      </trkpt>
      <trkpt lat="42.617437" lon="0.477461">
        <ele>1947.000000</ele>
        <time>2021-09-05T11:38:08Z</time>
      </trkpt>
      <trkpt lat="42.617430" lon="0.477445">
        <ele>1947.000000</ele>
        <time>2021-09-05T11:38:09Z</time>
      </trkpt>
      <trkpt lat="42.617420" lon="0.477437">
        <ele>1946.000000</ele>
        <time>2021-09-05T11:38:10Z</time>
      </trkpt>
      <trkpt lat="42.617415" lon="0.477427">
        <ele>1946.000000</ele>
        <time>2021-09-05T11:38:11Z</time>
      </trkpt>
      <trkpt lat="42.617407" lon="0.477415">
        <ele>1946.000000</ele>
        <time>2021-09-05T11:38:12Z</time>
      </trkpt>
      <trkpt lat="42.617398" lon="0.477410">
        <ele>1946.000000</ele>
        <time>2021-09-05T11:38:13Z</time>
      </trkpt>
      <trkpt lat="42.617392" lon="0.477415">
        <ele>1946.000000</ele>
        <time>2021-09-05T11:38:14Z</time>
      </trkpt>
      <trkpt lat="42.617378" lon="0.477417">
        <ele>1945.000000</ele>
        <time>2021-09-05T11:38:15Z</time>
      </trkpt>
      <trkpt lat="42.617372" lon="0.477419">
        <ele>1945.000000</ele>
        <time>2021-09-05T11:38:16Z</time>
      </trkpt>
      <trkpt lat="42.617367" lon="0.477418">
        <ele>1945.000000</ele>
        <time>2021-09-05T11:38:17Z</time>
      </trkpt>
      <trkpt lat="42.617363" lon="0.477419">
        <ele>1945.000000</ele>
        <time>2021-09-05T11:38:18Z</time>
      </trkpt>
      <trkpt lat="42.617353" lon="0.477418">
        <ele>1945.000000</ele>
        <time>2021-09-05T11:38:19Z</time>
      </trkpt>
      <trkpt lat="42.617345" lon="0.477415">
        <ele>1945.000000</ele>
        <time>2021-09-05T11:38:20Z</time>
      </trkpt>
      <trkpt lat="42.617327" lon="0.477404">
        <ele>1945.000000</ele>
        <time>2021-09-05T11:38:21Z</time>
      </trkpt>
      <trkpt lat="42.617313" lon="0.477394">
        <ele>1945.000000</ele>
        <time>2021-09-05T11:38:22Z</time>
      </trkpt>
      <trkpt lat="42.617305" lon="0.477389">
        <ele>1945.000000</ele>
        <time>2021-09-05T11:38:23Z</time>
      </trkpt>
      <trkpt lat="42.617298" lon="0.477386">
        <ele>1944.000000</ele>
        <time>2021-09-05T11:38:25Z</time>
      </trkpt>
      <trkpt lat="42.617285" lon="0.477382">
        <ele>1944.000000</ele>
        <time>2021-09-05T11:38:25Z</time>
      </trkpt>
      <trkpt lat="42.617273" lon="0.477381">
        <ele>1944.000000</ele>
        <time>2021-09-05T11:38:26Z</time>
      </trkpt>
      <trkpt lat="42.617258" lon="0.477388">
        <ele>1944.000000</ele>
        <time>2021-09-05T11:38:27Z</time>
      </trkpt>
      <trkpt lat="42.617248" lon="0.477392">
        <ele>1944.000000</ele>
        <time>2021-09-05T11:38:28Z</time>
      </trkpt>
      <trkpt lat="42.617235" lon="0.477397">
        <ele>1944.000000</ele>
        <time>2021-09-05T11:38:29Z</time>
      </trkpt>
      <trkpt lat="42.617222" lon="0.477397">
        <ele>1944.000000</ele>
        <time>2021-09-05T11:38:30Z</time>
      </trkpt>
      <trkpt lat="42.617212" lon="0.477393">
        <ele>1944.000000</ele>
        <time>2021-09-05T11:38:31Z</time>
      </trkpt>
      <trkpt lat="42.617202" lon="0.477390">
        <ele>1944.000000</ele>
        <time>2021-09-05T11:38:32Z</time>
      </trkpt>
      <trkpt lat="42.617195" lon="0.477392">
        <ele>1943.000000</ele>
        <time>2021-09-05T11:38:33Z</time>
      </trkpt>
      <trkpt lat="42.617190" lon="0.477395">
        <ele>1943.000000</ele>
        <time>2021-09-05T11:38:34Z</time>
      </trkpt>
      <trkpt lat="42.617175" lon="0.477400">
        <ele>1943.000000</ele>
        <time>2021-09-05T11:38:35Z</time>
      </trkpt>
      <trkpt lat="42.617165" lon="0.477407">
        <ele>1943.000000</ele>
        <time>2021-09-05T11:38:36Z</time>
      </trkpt>
      <trkpt lat="42.617157" lon="0.477415">
        <ele>1943.000000</ele>
        <time>2021-09-05T11:38:37Z</time>
      </trkpt>
      <trkpt lat="42.617153" lon="0.477420">
        <ele>1943.000000</ele>
        <time>2021-09-05T11:38:38Z</time>
      </trkpt>
      <trkpt lat="42.617152" lon="0.477425">
        <ele>1943.000000</ele>
        <time>2021-09-05T11:38:39Z</time>
      </trkpt>
      <trkpt lat="42.617150" lon="0.477453">
        <ele>1943.000000</ele>
        <time>2021-09-05T11:38:40Z</time>
      </trkpt>
      <trkpt lat="42.617150" lon="0.477458">
        <ele>1943.000000</ele>
        <time>2021-09-05T11:38:41Z</time>
      </trkpt>
      <trkpt lat="42.617148" lon="0.477463">
        <ele>1943.000000</ele>
        <time>2021-09-05T11:38:42Z</time>
      </trkpt>
      <trkpt lat="42.617150" lon="0.477473">
        <ele>1943.000000</ele>
        <time>2021-09-05T11:38:43Z</time>
      </trkpt>
      <trkpt lat="42.617150" lon="0.477485">
        <ele>1943.000000</ele>
        <time>2021-09-05T11:38:45Z</time>
      </trkpt>
      <trkpt lat="42.617148" lon="0.477495">
        <ele>1943.000000</ele>
        <time>2021-09-05T11:38:45Z</time>
      </trkpt>
      <trkpt lat="42.617145" lon="0.477503">
        <ele>1943.000000</ele>
        <time>2021-09-05T11:38:46Z</time>
      </trkpt>
      <trkpt lat="42.617142" lon="0.477512">
        <ele>1943.000000</ele>
        <time>2021-09-05T11:38:47Z</time>
      </trkpt>
      <trkpt lat="42.617139" lon="0.477515">
        <ele>1943.000000</ele>
        <time>2021-09-05T11:38:48Z</time>
      </trkpt>
      <trkpt lat="42.617135" lon="0.477518">
        <ele>1943.000000</ele>
        <time>2021-09-05T11:38:49Z</time>
      </trkpt>
      <trkpt lat="42.617130" lon="0.477525">
        <ele>1943.000000</ele>
        <time>2021-09-05T11:38:50Z</time>
      </trkpt>
      <trkpt lat="42.617126" lon="0.477528">
        <ele>1943.000000</ele>
        <time>2021-09-05T11:38:51Z</time>
      </trkpt>
      <trkpt lat="42.617123" lon="0.477530">
        <ele>1942.000000</ele>
        <time>2021-09-05T11:38:52Z</time>
      </trkpt>
      <trkpt lat="42.617119" lon="0.477535">
        <ele>1942.000000</ele>
        <time>2021-09-05T11:38:53Z</time>
      </trkpt>
      <trkpt lat="42.617113" lon="0.477545">
        <ele>1942.000000</ele>
        <time>2021-09-05T11:38:54Z</time>
      </trkpt>
      <trkpt lat="42.617110" lon="0.477555">
        <ele>1942.000000</ele>
        <time>2021-09-05T11:38:55Z</time>
      </trkpt>
      <trkpt lat="42.617112" lon="0.477562">
        <ele>1942.000000</ele>
        <time>2021-09-05T11:38:56Z</time>
      </trkpt>
      <trkpt lat="42.617120" lon="0.477570">
        <ele>1941.000000</ele>
        <time>2021-09-05T11:38:59Z</time>
      </trkpt>
      <trkpt lat="42.617117" lon="0.477575">
        <ele>1941.000000</ele>
        <time>2021-09-05T11:39:00Z</time>
      </trkpt>
      <trkpt lat="42.617113" lon="0.477577">
        <ele>1941.000000</ele>
        <time>2021-09-05T11:39:01Z</time>
      </trkpt>
      <trkpt lat="42.617109" lon="0.477582">
        <ele>1940.000000</ele>
        <time>2021-09-05T11:39:03Z</time>
      </trkpt>
      <trkpt lat="42.617110" lon="0.477597">
        <ele>1940.000000</ele>
        <time>2021-09-05T11:39:04Z</time>
      </trkpt>
      <trkpt lat="42.617109" lon="0.477602">
        <ele>1940.000000</ele>
        <time>2021-09-05T11:39:05Z</time>
      </trkpt>
      <trkpt lat="42.617110" lon="0.477607">
        <ele>1940.000000</ele>
        <time>2021-09-05T11:39:06Z</time>
      </trkpt>
      <trkpt lat="42.617107" lon="0.477615">
        <ele>1940.000000</ele>
        <time>2021-09-05T11:39:07Z</time>
      </trkpt>
      <trkpt lat="42.617106" lon="0.477628">
        <ele>1939.000000</ele>
        <time>2021-09-05T11:39:09Z</time>
      </trkpt>
      <trkpt lat="42.617105" lon="0.477638">
        <ele>1939.000000</ele>
        <time>2021-09-05T11:39:09Z</time>
      </trkpt>
      <trkpt lat="42.617105" lon="0.477647">
        <ele>1939.000000</ele>
        <time>2021-09-05T11:39:10Z</time>
      </trkpt>
      <trkpt lat="42.617107" lon="0.477650">
        <ele>1939.000000</ele>
        <time>2021-09-05T11:39:11Z</time>
      </trkpt>
      <trkpt lat="42.617113" lon="0.477655">
        <ele>1939.000000</ele>
        <time>2021-09-05T11:39:12Z</time>
      </trkpt>
      <trkpt lat="42.617118" lon="0.477660">
        <ele>1939.000000</ele>
        <time>2021-09-05T11:39:13Z</time>
      </trkpt>
      <trkpt lat="42.617122" lon="0.477663">
        <ele>1939.000000</ele>
        <time>2021-09-05T11:39:14Z</time>
      </trkpt>
      <trkpt lat="42.617125" lon="0.477672">
        <ele>1939.000000</ele>
        <time>2021-09-05T11:39:15Z</time>
      </trkpt>
      <trkpt lat="42.617121" lon="0.477678">
        <ele>1939.000000</ele>
        <time>2021-09-05T11:39:16Z</time>
      </trkpt>
      <trkpt lat="42.617120" lon="0.477680">
        <ele>1939.000000</ele>
        <time>2021-09-05T11:39:17Z</time>
      </trkpt>
      <trkpt lat="42.617119" lon="0.477683">
        <ele>1939.000000</ele>
        <time>2021-09-05T11:39:18Z</time>
      </trkpt>
      <trkpt lat="42.617117" lon="0.477690">
        <ele>1938.000000</ele>
        <time>2021-09-05T11:39:19Z</time>
      </trkpt>
      <trkpt lat="42.617119" lon="0.477693">
        <ele>1938.000000</ele>
        <time>2021-09-05T11:39:20Z</time>
      </trkpt>
      <trkpt lat="42.617122" lon="0.477702">
        <ele>1938.000000</ele>
        <time>2021-09-05T11:39:21Z</time>
      </trkpt>
      <trkpt lat="42.617128" lon="0.477708">
        <ele>1938.000000</ele>
        <time>2021-09-05T11:39:22Z</time>
      </trkpt>
      <trkpt lat="42.617142" lon="0.477720">
        <ele>1938.000000</ele>
        <time>2021-09-05T11:39:23Z</time>
      </trkpt>
      <trkpt lat="42.617148" lon="0.477732">
        <ele>1938.000000</ele>
        <time>2021-09-05T11:39:24Z</time>
      </trkpt>
      <trkpt lat="42.617151" lon="0.477738">
        <ele>1938.000000</ele>
        <time>2021-09-05T11:39:25Z</time>
      </trkpt>
      <trkpt lat="42.617152" lon="0.477743">
        <ele>1938.000000</ele>
        <time>2021-09-05T11:39:26Z</time>
      </trkpt>
      <trkpt lat="42.617154" lon="0.477752">
        <ele>1937.000000</ele>
        <time>2021-09-05T11:39:27Z</time>
      </trkpt>
      <trkpt lat="42.617157" lon="0.477760">
        <ele>1937.000000</ele>
        <time>2021-09-05T11:39:29Z</time>
      </trkpt>
      <trkpt lat="42.617161" lon="0.477773">
        <ele>1937.000000</ele>
        <time>2021-09-05T11:39:29Z</time>
      </trkpt>
      <trkpt lat="42.617160" lon="0.477782">
        <ele>1937.000000</ele>
        <time>2021-09-05T11:39:30Z</time>
      </trkpt>
      <trkpt lat="42.617152" lon="0.477792">
        <ele>1937.000000</ele>
        <time>2021-09-05T11:39:31Z</time>
      </trkpt>
      <trkpt lat="42.617148" lon="0.477802">
        <ele>1936.000000</ele>
        <time>2021-09-05T11:39:32Z</time>
      </trkpt>
      <trkpt lat="42.617145" lon="0.477808">
        <ele>1936.000000</ele>
        <time>2021-09-05T11:39:33Z</time>
      </trkpt>
      <trkpt lat="42.617142" lon="0.477815">
        <ele>1936.000000</ele>
        <time>2021-09-05T11:39:34Z</time>
      </trkpt>
      <trkpt lat="42.617137" lon="0.477825">
        <ele>1936.000000</ele>
        <time>2021-09-05T11:39:35Z</time>
      </trkpt>
      <trkpt lat="42.617132" lon="0.477832">
        <ele>1936.000000</ele>
        <time>2021-09-05T11:39:36Z</time>
      </trkpt>
      <trkpt lat="42.617128" lon="0.477838">
        <ele>1936.000000</ele>
        <time>2021-09-05T11:39:37Z</time>
      </trkpt>
      <trkpt lat="42.617125" lon="0.477842">
        <ele>1935.000000</ele>
        <time>2021-09-05T11:39:38Z</time>
      </trkpt>
      <trkpt lat="42.617121" lon="0.477850">
        <ele>1935.000000</ele>
        <time>2021-09-05T11:39:39Z</time>
      </trkpt>
      <trkpt lat="42.617122" lon="0.477858">
        <ele>1935.000000</ele>
        <time>2021-09-05T11:39:40Z</time>
      </trkpt>
      <trkpt lat="42.617127" lon="0.477867">
        <ele>1935.000000</ele>
        <time>2021-09-05T11:39:41Z</time>
      </trkpt>
      <trkpt lat="42.617127" lon="0.477877">
        <ele>1935.000000</ele>
        <time>2021-09-05T11:39:42Z</time>
      </trkpt>
      <trkpt lat="42.617125" lon="0.477885">
        <ele>1935.000000</ele>
        <time>2021-09-05T11:39:43Z</time>
      </trkpt>
      <trkpt lat="42.617120" lon="0.477895">
        <ele>1934.000000</ele>
        <time>2021-09-05T11:39:44Z</time>
      </trkpt>
      <trkpt lat="42.617119" lon="0.477908">
        <ele>1934.000000</ele>
        <time>2021-09-05T11:39:45Z</time>
      </trkpt>
      <trkpt lat="42.617116" lon="0.477918">
        <ele>1934.000000</ele>
        <time>2021-09-05T11:39:46Z</time>
      </trkpt>
      <trkpt lat="42.617116" lon="0.477930">
        <ele>1934.000000</ele>
        <time>2021-09-05T11:39:47Z</time>
      </trkpt>
      <trkpt lat="42.617117" lon="0.477938">
        <ele>1934.000000</ele>
        <time>2021-09-05T11:39:48Z</time>
      </trkpt>
      <trkpt lat="42.617118" lon="0.477950">
        <ele>1934.000000</ele>
        <time>2021-09-05T11:39:49Z</time>
      </trkpt>
      <trkpt lat="42.617117" lon="0.477957">
        <ele>1934.000000</ele>
        <time>2021-09-05T11:39:50Z</time>
      </trkpt>
      <trkpt lat="42.617116" lon="0.477970">
        <ele>1934.000000</ele>
        <time>2021-09-05T11:39:51Z</time>
      </trkpt>
      <trkpt lat="42.617113" lon="0.477977">
        <ele>1934.000000</ele>
        <time>2021-09-05T11:39:53Z</time>
      </trkpt>
      <trkpt lat="42.617109" lon="0.477988">
        <ele>1933.000000</ele>
        <time>2021-09-05T11:39:53Z</time>
      </trkpt>
      <trkpt lat="42.617107" lon="0.478003">
        <ele>1933.000000</ele>
        <time>2021-09-05T11:39:54Z</time>
      </trkpt>
      <trkpt lat="42.617104" lon="0.478012">
        <ele>1933.000000</ele>
        <time>2021-09-05T11:39:55Z</time>
      </trkpt>
      <trkpt lat="42.617102" lon="0.478020">
        <ele>1933.000000</ele>
        <time>2021-09-05T11:39:56Z</time>
      </trkpt>
      <trkpt lat="42.617101" lon="0.478028">
        <ele>1932.000000</ele>
        <time>2021-09-05T11:39:57Z</time>
      </trkpt>
      <trkpt lat="42.617100" lon="0.478038">
        <ele>1932.000000</ele>
        <time>2021-09-05T11:39:58Z</time>
      </trkpt>
      <trkpt lat="42.617100" lon="0.478047">
        <ele>1932.000000</ele>
        <time>2021-09-05T11:39:59Z</time>
      </trkpt>
      <trkpt lat="42.617101" lon="0.478055">
        <ele>1931.000000</ele>
        <time>2021-09-05T11:40:00Z</time>
      </trkpt>
      <trkpt lat="42.617102" lon="0.478063">
        <ele>1931.000000</ele>
        <time>2021-09-05T11:40:01Z</time>
      </trkpt>
      <trkpt lat="42.617102" lon="0.478075">
        <ele>1931.000000</ele>
        <time>2021-09-05T11:40:02Z</time>
      </trkpt>
      <trkpt lat="42.617104" lon="0.478085">
        <ele>1930.000000</ele>
        <time>2021-09-05T11:40:03Z</time>
      </trkpt>
      <trkpt lat="42.617105" lon="0.478093">
        <ele>1930.000000</ele>
        <time>2021-09-05T11:40:04Z</time>
      </trkpt>
      <trkpt lat="42.617104" lon="0.478103">
        <ele>1930.000000</ele>
        <time>2021-09-05T11:40:05Z</time>
      </trkpt>
      <trkpt lat="42.617104" lon="0.478112">
        <ele>1930.000000</ele>
        <time>2021-09-05T11:40:06Z</time>
      </trkpt>
      <trkpt lat="42.617104" lon="0.478117">
        <ele>1930.000000</ele>
        <time>2021-09-05T11:40:07Z</time>
      </trkpt>
      <trkpt lat="42.617103" lon="0.478122">
        <ele>1929.000000</ele>
        <time>2021-09-05T11:40:08Z</time>
      </trkpt>
      <trkpt lat="42.617101" lon="0.478128">
        <ele>1929.000000</ele>
        <time>2021-09-05T11:40:09Z</time>
      </trkpt>
      <trkpt lat="42.617099" lon="0.478137">
        <ele>1929.000000</ele>
        <time>2021-09-05T11:40:10Z</time>
      </trkpt>
      <trkpt lat="42.617098" lon="0.478143">
        <ele>1929.000000</ele>
        <time>2021-09-05T11:40:11Z</time>
      </trkpt>
      <trkpt lat="42.617096" lon="0.478150">
        <ele>1929.000000</ele>
        <time>2021-09-05T11:40:12Z</time>
      </trkpt>
      <trkpt lat="42.617095" lon="0.478155">
        <ele>1929.000000</ele>
        <time>2021-09-05T11:40:13Z</time>
      </trkpt>
      <trkpt lat="42.617093" lon="0.478160">
        <ele>1929.000000</ele>
        <time>2021-09-05T11:40:14Z</time>
      </trkpt>
      <trkpt lat="42.617092" lon="0.478167">
        <ele>1929.000000</ele>
        <time>2021-09-05T11:40:15Z</time>
      </trkpt>
      <trkpt lat="42.617091" lon="0.478168">
        <ele>1929.000000</ele>
        <time>2021-09-05T11:40:17Z</time>
      </trkpt>
      <trkpt lat="42.617091" lon="0.478172">
        <ele>1928.000000</ele>
        <time>2021-09-05T11:40:17Z</time>
      </trkpt>
      <trkpt lat="42.617092" lon="0.478170">
        <ele>1928.000000</ele>
        <time>2021-09-05T11:40:18Z</time>
      </trkpt>
      <trkpt lat="42.617093" lon="0.478170">
        <ele>1928.000000</ele>
        <time>2021-09-05T11:40:19Z</time>
      </trkpt>
      <trkpt lat="42.617108" lon="0.478163">
        <ele>1928.000000</ele>
        <time>2021-09-05T11:40:20Z</time>
      </trkpt>
      <trkpt lat="42.617107" lon="0.478157">
        <ele>1928.000000</ele>
        <time>2021-09-05T11:40:21Z</time>
      </trkpt>
      <trkpt lat="42.617107" lon="0.478150">
        <ele>1928.000000</ele>
        <time>2021-09-05T11:40:23Z</time>
      </trkpt>
      <trkpt lat="42.617112" lon="0.478148">
        <ele>1928.000000</ele>
        <time>2021-09-05T11:40:26Z</time>
      </trkpt>
      <trkpt lat="42.617110" lon="0.478148">
        <ele>1928.000000</ele>
        <time>2021-09-05T11:40:27Z</time>
      </trkpt>
      <trkpt lat="42.617117" lon="0.478146">
        <ele>1928.000000</ele>
        <time>2021-09-05T11:40:28Z</time>
      </trkpt>
      <trkpt lat="42.617122" lon="0.478146">
        <ele>1928.000000</ele>
        <time>2021-09-05T11:40:29Z</time>
      </trkpt>
      <trkpt lat="42.617127" lon="0.478145">
        <ele>1928.000000</ele>
        <time>2021-09-05T11:40:30Z</time>
      </trkpt>
      <trkpt lat="42.617132" lon="0.478141">
        <ele>1928.000000</ele>
        <time>2021-09-05T11:40:31Z</time>
      </trkpt>
      <trkpt lat="42.617142" lon="0.478134">
        <ele>1928.000000</ele>
        <time>2021-09-05T11:40:32Z</time>
      </trkpt>
      <trkpt lat="42.617147" lon="0.478130">
        <ele>1928.000000</ele>
        <time>2021-09-05T11:40:33Z</time>
      </trkpt>
      <trkpt lat="42.617155" lon="0.478128">
        <ele>1928.000000</ele>
        <time>2021-09-05T11:40:34Z</time>
      </trkpt>
      <trkpt lat="42.617157" lon="0.478122">
        <ele>1928.000000</ele>
        <time>2021-09-05T11:40:35Z</time>
      </trkpt>
      <trkpt lat="42.617157" lon="0.478117">
        <ele>1927.000000</ele>
        <time>2021-09-05T11:40:37Z</time>
      </trkpt>
      <trkpt lat="42.617157" lon="0.478113">
        <ele>1927.000000</ele>
        <time>2021-09-05T11:40:37Z</time>
      </trkpt>
      <trkpt lat="42.617150" lon="0.478105">
        <ele>1927.000000</ele>
        <time>2021-09-05T11:40:38Z</time>
      </trkpt>
      <trkpt lat="42.617145" lon="0.478100">
        <ele>1927.000000</ele>
        <time>2021-09-05T11:40:39Z</time>
      </trkpt>
      <trkpt lat="42.617137" lon="0.478087">
        <ele>1927.000000</ele>
        <time>2021-09-05T11:40:40Z</time>
      </trkpt>
      <trkpt lat="42.617127" lon="0.478087">
        <ele>1927.000000</ele>
        <time>2021-09-05T11:40:41Z</time>
      </trkpt>
      <trkpt lat="42.617128" lon="0.478087">
        <ele>1927.000000</ele>
        <time>2021-09-05T11:40:42Z</time>
      </trkpt>
      <trkpt lat="42.617127" lon="0.478080">
        <ele>1926.000000</ele>
        <time>2021-09-05T11:40:44Z</time>
      </trkpt>
      <trkpt lat="42.617129" lon="0.478077">
        <ele>1926.000000</ele>
        <time>2021-09-05T11:40:45Z</time>
      </trkpt>
      <trkpt lat="42.617133" lon="0.478073">
        <ele>1926.000000</ele>
        <time>2021-09-05T11:40:46Z</time>
      </trkpt>
      <trkpt lat="42.617145" lon="0.478073">
        <ele>1926.000000</ele>
        <time>2021-09-05T11:40:47Z</time>
      </trkpt>
      <trkpt lat="42.617148" lon="0.478072">
        <ele>1926.000000</ele>
        <time>2021-09-05T11:40:48Z</time>
      </trkpt>
      <trkpt lat="42.617153" lon="0.478070">
        <ele>1926.000000</ele>
        <time>2021-09-05T11:40:49Z</time>
      </trkpt>
      <trkpt lat="42.617151" lon="0.478070">
        <ele>1926.000000</ele>
        <time>2021-09-05T11:40:50Z</time>
      </trkpt>
      <trkpt lat="42.617149" lon="0.478072">
        <ele>1926.000000</ele>
        <time>2021-09-05T11:40:51Z</time>
      </trkpt>
      <trkpt lat="42.617154" lon="0.478068">
        <ele>1925.000000</ele>
        <time>2021-09-05T11:40:52Z</time>
      </trkpt>
      <trkpt lat="42.617156" lon="0.478065">
        <ele>1925.000000</ele>
        <time>2021-09-05T11:40:53Z</time>
      </trkpt>
      <trkpt lat="42.617153" lon="0.478068">
        <ele>1925.000000</ele>
        <time>2021-09-05T11:40:54Z</time>
      </trkpt>
      <trkpt lat="42.617156" lon="0.478065">
        <ele>1925.000000</ele>
        <time>2021-09-05T11:40:56Z</time>
      </trkpt>
      <trkpt lat="42.617160" lon="0.478063">
        <ele>1925.000000</ele>
        <time>2021-09-05T11:40:57Z</time>
      </trkpt>
      <trkpt lat="42.617168" lon="0.478063">
        <ele>1925.000000</ele>
        <time>2021-09-05T11:40:57Z</time>
      </trkpt>
      <trkpt lat="42.617173" lon="0.478067">
        <ele>1924.000000</ele>
        <time>2021-09-05T11:40:59Z</time>
      </trkpt>
      <trkpt lat="42.617175" lon="0.478063">
        <ele>1924.000000</ele>
        <time>2021-09-05T11:40:59Z</time>
      </trkpt>
      <trkpt lat="42.617177" lon="0.478064">
        <ele>1924.000000</ele>
        <time>2021-09-05T11:41:00Z</time>
      </trkpt>
      <trkpt lat="42.617178" lon="0.478057">
        <ele>1924.000000</ele>
        <time>2021-09-05T11:41:01Z</time>
      </trkpt>
      <trkpt lat="42.617178" lon="0.478056">
        <ele>1924.000000</ele>
        <time>2021-09-05T11:41:03Z</time>
      </trkpt>
      <trkpt lat="42.617183" lon="0.478058">
        <ele>1924.000000</ele>
        <time>2021-09-05T11:41:04Z</time>
      </trkpt>
      <trkpt lat="42.617187" lon="0.478065">
        <ele>1924.000000</ele>
        <time>2021-09-05T11:41:05Z</time>
      </trkpt>
      <trkpt lat="42.617185" lon="0.478072">
        <ele>1924.000000</ele>
        <time>2021-09-05T11:41:06Z</time>
      </trkpt>
      <trkpt lat="42.617180" lon="0.478077">
        <ele>1924.000000</ele>
        <time>2021-09-05T11:41:07Z</time>
      </trkpt>
      <trkpt lat="42.617177" lon="0.478085">
        <ele>1924.000000</ele>
        <time>2021-09-05T11:41:08Z</time>
      </trkpt>
      <trkpt lat="42.617173" lon="0.478095">
        <ele>1924.000000</ele>
        <time>2021-09-05T11:41:09Z</time>
      </trkpt>
      <trkpt lat="42.617167" lon="0.478103">
        <ele>1924.000000</ele>
        <time>2021-09-05T11:41:10Z</time>
      </trkpt>
      <trkpt lat="42.617163" lon="0.478115">
        <ele>1924.000000</ele>
        <time>2021-09-05T11:41:11Z</time>
      </trkpt>
      <trkpt lat="42.617161" lon="0.478127">
        <ele>1924.000000</ele>
        <time>2021-09-05T11:41:12Z</time>
      </trkpt>
      <trkpt lat="42.617167" lon="0.478142">
        <ele>1924.000000</ele>
        <time>2021-09-05T11:41:13Z</time>
      </trkpt>
      <trkpt lat="42.617172" lon="0.478150">
        <ele>1924.000000</ele>
        <time>2021-09-05T11:41:14Z</time>
      </trkpt>
      <trkpt lat="42.617177" lon="0.478148">
        <ele>1924.000000</ele>
        <time>2021-09-05T11:41:15Z</time>
      </trkpt>
      <trkpt lat="42.617187" lon="0.478147">
        <ele>1924.000000</ele>
        <time>2021-09-05T11:41:16Z</time>
      </trkpt>
      <trkpt lat="42.617197" lon="0.478148">
        <ele>1924.000000</ele>
        <time>2021-09-05T11:41:17Z</time>
      </trkpt>
      <trkpt lat="42.617198" lon="0.478147">
        <ele>1924.000000</ele>
        <time>2021-09-05T11:41:18Z</time>
      </trkpt>
      <trkpt lat="42.617197" lon="0.478148">
        <ele>1924.000000</ele>
        <time>2021-09-05T11:41:19Z</time>
      </trkpt>
      <trkpt lat="42.617197" lon="0.478149">
        <ele>1923.000000</ele>
        <time>2021-09-05T11:41:20Z</time>
      </trkpt>
      <trkpt lat="42.617200" lon="0.478152">
        <ele>1923.000000</ele>
        <time>2021-09-05T11:41:21Z</time>
      </trkpt>
      <trkpt lat="42.617205" lon="0.478156">
        <ele>1923.000000</ele>
        <time>2021-09-05T11:41:23Z</time>
      </trkpt>
      <trkpt lat="42.617210" lon="0.478160">
        <ele>1923.000000</ele>
        <time>2021-09-05T11:41:23Z</time>
      </trkpt>
      <trkpt lat="42.617213" lon="0.478168">
        <ele>1923.000000</ele>
        <time>2021-09-05T11:41:24Z</time>
      </trkpt>
      <trkpt lat="42.617213" lon="0.478175">
        <ele>1923.000000</ele>
        <time>2021-09-05T11:41:25Z</time>
      </trkpt>
      <trkpt lat="42.617207" lon="0.478177">
        <ele>1923.000000</ele>
        <time>2021-09-05T11:41:26Z</time>
      </trkpt>
      <trkpt lat="42.617198" lon="0.478178">
        <ele>1922.000000</ele>
        <time>2021-09-05T11:41:27Z</time>
      </trkpt>
      <trkpt lat="42.617192" lon="0.478178">
        <ele>1922.000000</ele>
        <time>2021-09-05T11:41:28Z</time>
      </trkpt>
      <trkpt lat="42.617188" lon="0.478182">
        <ele>1922.000000</ele>
        <time>2021-09-05T11:41:29Z</time>
      </trkpt>
      <trkpt lat="42.617185" lon="0.478187">
        <ele>1922.000000</ele>
        <time>2021-09-05T11:41:30Z</time>
      </trkpt>
      <trkpt lat="42.617183" lon="0.478193">
        <ele>1922.000000</ele>
        <time>2021-09-05T11:41:31Z</time>
      </trkpt>
      <trkpt lat="42.617180" lon="0.478202">
        <ele>1921.000000</ele>
        <time>2021-09-05T11:41:32Z</time>
      </trkpt>
      <trkpt lat="42.617175" lon="0.478202">
        <ele>1921.000000</ele>
        <time>2021-09-05T11:41:33Z</time>
      </trkpt>
      <trkpt lat="42.617177" lon="0.478203">
        <ele>1921.000000</ele>
        <time>2021-09-05T11:41:34Z</time>
      </trkpt>
      <trkpt lat="42.617175" lon="0.478205">
        <ele>1921.000000</ele>
        <time>2021-09-05T11:41:35Z</time>
      </trkpt>
      <trkpt lat="42.617177" lon="0.478210">
        <ele>1921.000000</ele>
        <time>2021-09-05T11:41:36Z</time>
      </trkpt>
      <trkpt lat="42.617180" lon="0.478218">
        <ele>1921.000000</ele>
        <time>2021-09-05T11:41:37Z</time>
      </trkpt>
      <trkpt lat="42.617182" lon="0.478225">
        <ele>1920.000000</ele>
        <time>2021-09-05T11:41:38Z</time>
      </trkpt>
      <trkpt lat="42.617178" lon="0.478232">
        <ele>1920.000000</ele>
        <time>2021-09-05T11:41:39Z</time>
      </trkpt>
      <trkpt lat="42.617176" lon="0.478237">
        <ele>1920.000000</ele>
        <time>2021-09-05T11:41:40Z</time>
      </trkpt>
      <trkpt lat="42.617177" lon="0.478242">
        <ele>1920.000000</ele>
        <time>2021-09-05T11:41:41Z</time>
      </trkpt>
      <trkpt lat="42.617177" lon="0.478245">
        <ele>1920.000000</ele>
        <time>2021-09-05T11:41:43Z</time>
      </trkpt>
      <trkpt lat="42.617175" lon="0.478247">
        <ele>1919.000000</ele>
        <time>2021-09-05T11:41:43Z</time>
      </trkpt>
      <trkpt lat="42.617173" lon="0.478248">
        <ele>1919.000000</ele>
        <time>2021-09-05T11:41:44Z</time>
      </trkpt>
      <trkpt lat="42.617175" lon="0.478252">
        <ele>1919.000000</ele>
        <time>2021-09-05T11:41:45Z</time>
      </trkpt>
      <trkpt lat="42.617175" lon="0.478257">
        <ele>1919.000000</ele>
        <time>2021-09-05T11:41:46Z</time>
      </trkpt>
      <trkpt lat="42.617173" lon="0.478263">
        <ele>1919.000000</ele>
        <time>2021-09-05T11:41:47Z</time>
      </trkpt>
      <trkpt lat="42.617173" lon="0.478273">
        <ele>1919.000000</ele>
        <time>2021-09-05T11:41:48Z</time>
      </trkpt>
      <trkpt lat="42.617173" lon="0.478277">
        <ele>1918.000000</ele>
        <time>2021-09-05T11:41:49Z</time>
      </trkpt>
      <trkpt lat="42.617176" lon="0.478280">
        <ele>1918.000000</ele>
        <time>2021-09-05T11:41:50Z</time>
      </trkpt>
      <trkpt lat="42.617182" lon="0.478285">
        <ele>1918.000000</ele>
        <time>2021-09-05T11:41:51Z</time>
      </trkpt>
      <trkpt lat="42.617193" lon="0.478288">
        <ele>1918.000000</ele>
        <time>2021-09-05T11:41:52Z</time>
      </trkpt>
      <trkpt lat="42.617200" lon="0.478292">
        <ele>1918.000000</ele>
        <time>2021-09-05T11:41:53Z</time>
      </trkpt>
      <trkpt lat="42.617210" lon="0.478302">
        <ele>1918.000000</ele>
        <time>2021-09-05T11:41:54Z</time>
      </trkpt>
      <trkpt lat="42.617218" lon="0.478312">
        <ele>1918.000000</ele>
        <time>2021-09-05T11:41:55Z</time>
      </trkpt>
      <trkpt lat="42.617235" lon="0.478325">
        <ele>1917.000000</ele>
        <time>2021-09-05T11:41:56Z</time>
      </trkpt>
      <trkpt lat="42.617243" lon="0.478337">
        <ele>1917.000000</ele>
        <time>2021-09-05T11:41:57Z</time>
      </trkpt>
      <trkpt lat="42.617245" lon="0.478348">
        <ele>1917.000000</ele>
        <time>2021-09-05T11:41:58Z</time>
      </trkpt>
      <trkpt lat="42.617243" lon="0.478358">
        <ele>1917.000000</ele>
        <time>2021-09-05T11:41:59Z</time>
      </trkpt>
      <trkpt lat="42.617232" lon="0.478363">
        <ele>1917.000000</ele>
        <time>2021-09-05T11:42:00Z</time>
      </trkpt>
      <trkpt lat="42.617223" lon="0.478373">
        <ele>1917.000000</ele>
        <time>2021-09-05T11:42:01Z</time>
      </trkpt>
      <trkpt lat="42.617220" lon="0.478383">
        <ele>1917.000000</ele>
        <time>2021-09-05T11:42:02Z</time>
      </trkpt>
      <trkpt lat="42.617210" lon="0.478392">
        <ele>1917.000000</ele>
        <time>2021-09-05T11:42:03Z</time>
      </trkpt>
      <trkpt lat="42.617208" lon="0.478402">
        <ele>1916.000000</ele>
        <time>2021-09-05T11:42:04Z</time>
      </trkpt>
      <trkpt lat="42.617208" lon="0.478417">
        <ele>1916.000000</ele>
        <time>2021-09-05T11:42:05Z</time>
      </trkpt>
      <trkpt lat="42.617205" lon="0.478427">
        <ele>1916.000000</ele>
        <time>2021-09-05T11:42:07Z</time>
      </trkpt>
      <trkpt lat="42.617198" lon="0.478438">
        <ele>1916.000000</ele>
        <time>2021-09-05T11:42:07Z</time>
      </trkpt>
      <trkpt lat="42.617193" lon="0.478445">
        <ele>1916.000000</ele>
        <time>2021-09-05T11:42:08Z</time>
      </trkpt>
      <trkpt lat="42.617187" lon="0.478452">
        <ele>1915.000000</ele>
        <time>2021-09-05T11:42:09Z</time>
      </trkpt>
      <trkpt lat="42.617180" lon="0.478463">
        <ele>1915.000000</ele>
        <time>2021-09-05T11:42:10Z</time>
      </trkpt>
      <trkpt lat="42.617175" lon="0.478475">
        <ele>1915.000000</ele>
        <time>2021-09-05T11:42:11Z</time>
      </trkpt>
      <trkpt lat="42.617173" lon="0.478487">
        <ele>1914.000000</ele>
        <time>2021-09-05T11:42:12Z</time>
      </trkpt>
      <trkpt lat="42.617170" lon="0.478493">
        <ele>1914.000000</ele>
        <time>2021-09-05T11:42:13Z</time>
      </trkpt>
      <trkpt lat="42.617165" lon="0.478505">
        <ele>1914.000000</ele>
        <time>2021-09-05T11:42:14Z</time>
      </trkpt>
      <trkpt lat="42.617161" lon="0.478512">
        <ele>1914.000000</ele>
        <time>2021-09-05T11:42:15Z</time>
      </trkpt>
      <trkpt lat="42.617156" lon="0.478522">
        <ele>1914.000000</ele>
        <time>2021-09-05T11:42:16Z</time>
      </trkpt>
      <trkpt lat="42.617150" lon="0.478532">
        <ele>1913.000000</ele>
        <time>2021-09-05T11:42:17Z</time>
      </trkpt>
      <trkpt lat="42.617146" lon="0.478540">
        <ele>1913.000000</ele>
        <time>2021-09-05T11:42:18Z</time>
      </trkpt>
      <trkpt lat="42.617141" lon="0.478548">
        <ele>1913.000000</ele>
        <time>2021-09-05T11:42:19Z</time>
      </trkpt>
      <trkpt lat="42.617136" lon="0.478557">
        <ele>1913.000000</ele>
        <time>2021-09-05T11:42:20Z</time>
      </trkpt>
      <trkpt lat="42.617131" lon="0.478567">
        <ele>1913.000000</ele>
        <time>2021-09-05T11:42:21Z</time>
      </trkpt>
      <trkpt lat="42.617128" lon="0.478577">
        <ele>1912.000000</ele>
        <time>2021-09-05T11:42:22Z</time>
      </trkpt>
      <trkpt lat="42.617125" lon="0.478592">
        <ele>1912.000000</ele>
        <time>2021-09-05T11:42:23Z</time>
      </trkpt>
      <trkpt lat="42.617126" lon="0.478598">
        <ele>1912.000000</ele>
        <time>2021-09-05T11:42:24Z</time>
      </trkpt>
      <trkpt lat="42.617128" lon="0.478598">
        <ele>1912.000000</ele>
        <time>2021-09-05T11:42:25Z</time>
      </trkpt>
      <trkpt lat="42.617127" lon="0.478605">
        <ele>1911.000000</ele>
        <time>2021-09-05T11:42:26Z</time>
      </trkpt>
      <trkpt lat="42.617125" lon="0.478617">
        <ele>1911.000000</ele>
        <time>2021-09-05T11:42:27Z</time>
      </trkpt>
      <trkpt lat="42.617123" lon="0.478632">
        <ele>1911.000000</ele>
        <time>2021-09-05T11:42:28Z</time>
      </trkpt>
      <trkpt lat="42.617122" lon="0.478648">
        <ele>1911.000000</ele>
        <time>2021-09-05T11:42:29Z</time>
      </trkpt>
      <trkpt lat="42.617122" lon="0.478660">
        <ele>1910.000000</ele>
        <time>2021-09-05T11:42:30Z</time>
      </trkpt>
      <trkpt lat="42.617140" lon="0.478672">
        <ele>1910.000000</ele>
        <time>2021-09-05T11:42:31Z</time>
      </trkpt>
      <trkpt lat="42.617137" lon="0.478687">
        <ele>1910.000000</ele>
        <time>2021-09-05T11:42:32Z</time>
      </trkpt>
      <trkpt lat="42.617133" lon="0.478700">
        <ele>1910.000000</ele>
        <time>2021-09-05T11:42:33Z</time>
      </trkpt>
      <trkpt lat="42.617129" lon="0.478713">
        <ele>1910.000000</ele>
        <time>2021-09-05T11:42:34Z</time>
      </trkpt>
      <trkpt lat="42.617121" lon="0.478722">
        <ele>1909.000000</ele>
        <time>2021-09-05T11:42:35Z</time>
      </trkpt>
      <trkpt lat="42.617107" lon="0.478728">
        <ele>1909.000000</ele>
        <time>2021-09-05T11:42:36Z</time>
      </trkpt>
      <trkpt lat="42.617095" lon="0.478733">
        <ele>1909.000000</ele>
        <time>2021-09-05T11:42:37Z</time>
      </trkpt>
      <trkpt lat="42.617085" lon="0.478735">
        <ele>1909.000000</ele>
        <time>2021-09-05T11:42:38Z</time>
      </trkpt>
      <trkpt lat="42.617075" lon="0.478735">
        <ele>1907.000000</ele>
        <time>2021-09-05T11:42:39Z</time>
      </trkpt>
      <trkpt lat="42.617065" lon="0.478735">
        <ele>1907.000000</ele>
        <time>2021-09-05T11:42:40Z</time>
      </trkpt>
      <trkpt lat="42.617060" lon="0.478742">
        <ele>1906.000000</ele>
        <time>2021-09-05T11:42:41Z</time>
      </trkpt>
      <trkpt lat="42.617057" lon="0.478745">
        <ele>1906.000000</ele>
        <time>2021-09-05T11:42:42Z</time>
      </trkpt>
      <trkpt lat="42.617048" lon="0.478748">
        <ele>1905.000000</ele>
        <time>2021-09-05T11:42:43Z</time>
      </trkpt>
      <trkpt lat="42.617040" lon="0.478747">
        <ele>1905.000000</ele>
        <time>2021-09-05T11:42:44Z</time>
      </trkpt>
      <trkpt lat="42.617032" lon="0.478748">
        <ele>1904.000000</ele>
        <time>2021-09-05T11:42:45Z</time>
      </trkpt>
      <trkpt lat="42.617023" lon="0.478747">
        <ele>1904.000000</ele>
        <time>2021-09-05T11:42:46Z</time>
      </trkpt>
      <trkpt lat="42.617015" lon="0.478746">
        <ele>1903.000000</ele>
        <time>2021-09-05T11:42:47Z</time>
      </trkpt>
      <trkpt lat="42.617010" lon="0.478743">
        <ele>1903.000000</ele>
        <time>2021-09-05T11:42:48Z</time>
      </trkpt>
      <trkpt lat="42.617005" lon="0.478743">
        <ele>1902.000000</ele>
        <time>2021-09-05T11:42:50Z</time>
      </trkpt>
      <trkpt lat="42.616995" lon="0.478742">
        <ele>1902.000000</ele>
        <time>2021-09-05T11:42:50Z</time>
      </trkpt>
      <trkpt lat="42.616987" lon="0.478740">
        <ele>1901.000000</ele>
        <time>2021-09-05T11:42:51Z</time>
      </trkpt>
      <trkpt lat="42.616975" lon="0.478734">
        <ele>1901.000000</ele>
        <time>2021-09-05T11:42:52Z</time>
      </trkpt>
      <trkpt lat="42.616962" lon="0.478724">
        <ele>1901.000000</ele>
        <time>2021-09-05T11:42:53Z</time>
      </trkpt>
      <trkpt lat="42.616957" lon="0.478707">
        <ele>1900.000000</ele>
        <time>2021-09-05T11:42:55Z</time>
      </trkpt>
      <trkpt lat="42.616950" lon="0.478698">
        <ele>1900.000000</ele>
        <time>2021-09-05T11:42:56Z</time>
      </trkpt>
      <trkpt lat="42.616943" lon="0.478693">
        <ele>1900.000000</ele>
        <time>2021-09-05T11:42:57Z</time>
      </trkpt>
      <trkpt lat="42.616940" lon="0.478692">
        <ele>1900.000000</ele>
        <time>2021-09-05T11:42:58Z</time>
      </trkpt>
      <trkpt lat="42.616935" lon="0.478691">
        <ele>1900.000000</ele>
        <time>2021-09-05T11:42:59Z</time>
      </trkpt>
      <trkpt lat="42.616932" lon="0.478689">
        <ele>1900.000000</ele>
        <time>2021-09-05T11:43:00Z</time>
      </trkpt>
      <trkpt lat="42.616925" lon="0.478683">
        <ele>1900.000000</ele>
        <time>2021-09-05T11:43:01Z</time>
      </trkpt>
      <trkpt lat="42.616922" lon="0.478675">
        <ele>1900.000000</ele>
        <time>2021-09-05T11:43:02Z</time>
      </trkpt>
      <trkpt lat="42.616918" lon="0.478670">
        <ele>1899.000000</ele>
        <time>2021-09-05T11:43:03Z</time>
      </trkpt>
      <trkpt lat="42.616912" lon="0.478662">
        <ele>1899.000000</ele>
        <time>2021-09-05T11:43:04Z</time>
      </trkpt>
      <trkpt lat="42.616909" lon="0.478663">
        <ele>1898.000000</ele>
        <time>2021-09-05T11:43:06Z</time>
      </trkpt>
      <trkpt lat="42.616906" lon="0.478663">
        <ele>1898.000000</ele>
        <time>2021-09-05T11:43:07Z</time>
      </trkpt>
      <trkpt lat="42.616895" lon="0.478667">
        <ele>1897.000000</ele>
        <time>2021-09-05T11:43:08Z</time>
      </trkpt>
      <trkpt lat="42.616892" lon="0.478670">
        <ele>1897.000000</ele>
        <time>2021-09-05T11:43:09Z</time>
      </trkpt>
      <trkpt lat="42.616887" lon="0.478665">
        <ele>1897.000000</ele>
        <time>2021-09-05T11:43:10Z</time>
      </trkpt>
      <trkpt lat="42.616882" lon="0.478656">
        <ele>1897.000000</ele>
        <time>2021-09-05T11:43:11Z</time>
      </trkpt>
      <trkpt lat="42.616880" lon="0.478652">
        <ele>1897.000000</ele>
        <time>2021-09-05T11:43:12Z</time>
      </trkpt>
      <trkpt lat="42.616875" lon="0.478646">
        <ele>1897.000000</ele>
        <time>2021-09-05T11:43:14Z</time>
      </trkpt>
      <trkpt lat="42.616872" lon="0.478640">
        <ele>1897.000000</ele>
        <time>2021-09-05T11:43:14Z</time>
      </trkpt>
      <trkpt lat="42.616865" lon="0.478630">
        <ele>1897.000000</ele>
        <time>2021-09-05T11:43:15Z</time>
      </trkpt>
      <trkpt lat="42.616860" lon="0.478622">
        <ele>1897.000000</ele>
        <time>2021-09-05T11:43:16Z</time>
      </trkpt>
      <trkpt lat="42.616853" lon="0.478612">
        <ele>1897.000000</ele>
        <time>2021-09-05T11:43:17Z</time>
      </trkpt>
      <trkpt lat="42.616845" lon="0.478600">
        <ele>1897.000000</ele>
        <time>2021-09-05T11:43:18Z</time>
      </trkpt>
      <trkpt lat="42.616838" lon="0.478591">
        <ele>1896.000000</ele>
        <time>2021-09-05T11:43:19Z</time>
      </trkpt>
      <trkpt lat="42.616835" lon="0.478585">
        <ele>1896.000000</ele>
        <time>2021-09-05T11:43:20Z</time>
      </trkpt>
      <trkpt lat="42.616832" lon="0.478580">
        <ele>1896.000000</ele>
        <time>2021-09-05T11:43:21Z</time>
      </trkpt>
      <trkpt lat="42.616827" lon="0.478575">
        <ele>1895.000000</ele>
        <time>2021-09-05T11:43:22Z</time>
      </trkpt>
      <trkpt lat="42.616822" lon="0.478569">
        <ele>1895.000000</ele>
        <time>2021-09-05T11:43:23Z</time>
      </trkpt>
      <trkpt lat="42.616818" lon="0.478573">
        <ele>1895.000000</ele>
        <time>2021-09-05T11:43:24Z</time>
      </trkpt>
      <trkpt lat="42.616813" lon="0.478567">
        <ele>1894.000000</ele>
        <time>2021-09-05T11:43:25Z</time>
      </trkpt>
      <trkpt lat="42.616807" lon="0.478560">
        <ele>1894.000000</ele>
        <time>2021-09-05T11:43:26Z</time>
      </trkpt>
      <trkpt lat="42.616798" lon="0.478555">
        <ele>1894.000000</ele>
        <time>2021-09-05T11:43:27Z</time>
      </trkpt>
      <trkpt lat="42.616790" lon="0.478552">
        <ele>1894.000000</ele>
        <time>2021-09-05T11:43:28Z</time>
      </trkpt>
      <trkpt lat="42.616785" lon="0.478548">
        <ele>1894.000000</ele>
        <time>2021-09-05T11:43:29Z</time>
      </trkpt>
      <trkpt lat="42.616775" lon="0.478542">
        <ele>1894.000000</ele>
        <time>2021-09-05T11:43:30Z</time>
      </trkpt>
      <trkpt lat="42.616768" lon="0.478535">
        <ele>1894.000000</ele>
        <time>2021-09-05T11:43:31Z</time>
      </trkpt>
      <trkpt lat="42.616763" lon="0.478528">
        <ele>1893.000000</ele>
        <time>2021-09-05T11:43:32Z</time>
      </trkpt>
      <trkpt lat="42.616760" lon="0.478513">
        <ele>1893.000000</ele>
        <time>2021-09-05T11:43:34Z</time>
      </trkpt>
      <trkpt lat="42.616760" lon="0.478502">
        <ele>1893.000000</ele>
        <time>2021-09-05T11:43:34Z</time>
      </trkpt>
      <trkpt lat="42.616760" lon="0.478493">
        <ele>1893.000000</ele>
        <time>2021-09-05T11:43:35Z</time>
      </trkpt>
      <trkpt lat="42.616758" lon="0.478485">
        <ele>1893.000000</ele>
        <time>2021-09-05T11:43:36Z</time>
      </trkpt>
      <trkpt lat="42.616755" lon="0.478478">
        <ele>1893.000000</ele>
        <time>2021-09-05T11:43:37Z</time>
      </trkpt>
      <trkpt lat="42.616751" lon="0.478475">
        <ele>1893.000000</ele>
        <time>2021-09-05T11:43:38Z</time>
      </trkpt>
      <trkpt lat="42.616753" lon="0.478478">
        <ele>1893.000000</ele>
        <time>2021-09-05T11:43:40Z</time>
      </trkpt>
      <trkpt lat="42.616755" lon="0.478480">
        <ele>1894.000000</ele>
        <time>2021-09-05T11:43:41Z</time>
      </trkpt>
      <trkpt lat="42.616758" lon="0.478485">
        <ele>1894.000000</ele>
        <time>2021-09-05T11:43:42Z</time>
      </trkpt>
      <trkpt lat="42.616762" lon="0.478487">
        <ele>1894.000000</ele>
        <time>2021-09-05T11:43:43Z</time>
      </trkpt>
      <trkpt lat="42.616758" lon="0.478485">
        <ele>1894.000000</ele>
        <time>2021-09-05T11:43:44Z</time>
      </trkpt>
      <trkpt lat="42.616755" lon="0.478483">
        <ele>1895.000000</ele>
        <time>2021-09-05T11:43:45Z</time>
      </trkpt>
      <trkpt lat="42.616748" lon="0.478487">
        <ele>1895.000000</ele>
        <time>2021-09-05T11:43:46Z</time>
      </trkpt>
      <trkpt lat="42.616742" lon="0.478491">
        <ele>1895.000000</ele>
        <time>2021-09-05T11:43:47Z</time>
      </trkpt>
      <trkpt lat="42.616738" lon="0.478493">
        <ele>1895.000000</ele>
        <time>2021-09-05T11:43:48Z</time>
      </trkpt>
      <trkpt lat="42.616735" lon="0.478494">
        <ele>1896.000000</ele>
        <time>2021-09-05T11:43:49Z</time>
      </trkpt>
      <trkpt lat="42.616737" lon="0.478493">
        <ele>1896.000000</ele>
        <time>2021-09-05T11:43:50Z</time>
      </trkpt>
      <trkpt lat="42.616740" lon="0.478492">
        <ele>1896.000000</ele>
        <time>2021-09-05T11:43:51Z</time>
      </trkpt>
      <trkpt lat="42.616737" lon="0.478492">
        <ele>1896.000000</ele>
        <time>2021-09-05T11:43:52Z</time>
      </trkpt>
      <trkpt lat="42.616732" lon="0.478493">
        <ele>1896.000000</ele>
        <time>2021-09-05T11:43:53Z</time>
      </trkpt>
      <trkpt lat="42.616725" lon="0.478493">
        <ele>1896.000000</ele>
        <time>2021-09-05T11:43:54Z</time>
      </trkpt>
      <trkpt lat="42.616720" lon="0.478494">
        <ele>1897.000000</ele>
        <time>2021-09-05T11:43:55Z</time>
      </trkpt>
      <trkpt lat="42.616713" lon="0.478495">
        <ele>1897.000000</ele>
        <time>2021-09-05T11:43:57Z</time>
      </trkpt>
      <trkpt lat="42.616707" lon="0.478492">
        <ele>1897.000000</ele>
        <time>2021-09-05T11:43:57Z</time>
      </trkpt>
      <trkpt lat="42.616702" lon="0.478487">
        <ele>1897.000000</ele>
        <time>2021-09-05T11:43:58Z</time>
      </trkpt>
      <trkpt lat="42.616698" lon="0.478453">
        <ele>1897.000000</ele>
        <time>2021-09-05T11:43:59Z</time>
      </trkpt>
      <trkpt lat="42.616693" lon="0.478440">
        <ele>1897.000000</ele>
        <time>2021-09-05T11:44:00Z</time>
      </trkpt>
      <trkpt lat="42.616685" lon="0.478430">
        <ele>1897.000000</ele>
        <time>2021-09-05T11:44:01Z</time>
      </trkpt>
      <trkpt lat="42.616678" lon="0.478425">
        <ele>1897.000000</ele>
        <time>2021-09-05T11:44:02Z</time>
      </trkpt>
      <trkpt lat="42.616672" lon="0.478425">
        <ele>1897.000000</ele>
        <time>2021-09-05T11:44:03Z</time>
      </trkpt>
      <trkpt lat="42.616665" lon="0.478425">
        <ele>1897.000000</ele>
        <time>2021-09-05T11:44:04Z</time>
      </trkpt>
      <trkpt lat="42.616658" lon="0.478425">
        <ele>1897.000000</ele>
        <time>2021-09-05T11:44:05Z</time>
      </trkpt>
      <trkpt lat="42.616655" lon="0.478423">
        <ele>1897.000000</ele>
        <time>2021-09-05T11:44:06Z</time>
      </trkpt>
      <trkpt lat="42.616647" lon="0.478425">
        <ele>1897.000000</ele>
        <time>2021-09-05T11:44:07Z</time>
      </trkpt>
      <trkpt lat="42.616638" lon="0.478418">
        <ele>1897.000000</ele>
        <time>2021-09-05T11:44:08Z</time>
      </trkpt>
      <trkpt lat="42.616628" lon="0.478417">
        <ele>1897.000000</ele>
        <time>2021-09-05T11:44:09Z</time>
      </trkpt>
      <trkpt lat="42.616615" lon="0.478410">
        <ele>1897.000000</ele>
        <time>2021-09-05T11:44:10Z</time>
      </trkpt>
      <trkpt lat="42.616605" lon="0.478408">
        <ele>1897.000000</ele>
        <time>2021-09-05T11:44:11Z</time>
      </trkpt>
      <trkpt lat="42.616598" lon="0.478404">
        <ele>1897.000000</ele>
        <time>2021-09-05T11:44:12Z</time>
      </trkpt>
      <trkpt lat="42.616593" lon="0.478398">
        <ele>1897.000000</ele>
        <time>2021-09-05T11:44:13Z</time>
      </trkpt>
      <trkpt lat="42.616588" lon="0.478378">
        <ele>1897.000000</ele>
        <time>2021-09-05T11:44:14Z</time>
      </trkpt>
      <trkpt lat="42.616580" lon="0.478369">
        <ele>1897.000000</ele>
        <time>2021-09-05T11:44:15Z</time>
      </trkpt>
      <trkpt lat="42.616572" lon="0.478365">
        <ele>1897.000000</ele>
        <time>2021-09-05T11:44:16Z</time>
      </trkpt>
      <trkpt lat="42.616567" lon="0.478362">
        <ele>1897.000000</ele>
        <time>2021-09-05T11:44:17Z</time>
      </trkpt>
      <trkpt lat="42.616560" lon="0.478362">
        <ele>1897.000000</ele>
        <time>2021-09-05T11:44:18Z</time>
      </trkpt>
      <trkpt lat="42.616552" lon="0.478353">
        <ele>1895.000000</ele>
        <time>2021-09-05T11:44:19Z</time>
      </trkpt>
      <trkpt lat="42.616543" lon="0.478348">
        <ele>1895.000000</ele>
        <time>2021-09-05T11:44:21Z</time>
      </trkpt>
      <trkpt lat="42.616543" lon="0.478350">
        <ele>1895.000000</ele>
        <time>2021-09-05T11:44:21Z</time>
      </trkpt>
      <trkpt lat="42.616538" lon="0.478350">
        <ele>1895.000000</ele>
        <time>2021-09-05T11:44:22Z</time>
      </trkpt>
      <trkpt lat="42.616533" lon="0.478357">
        <ele>1895.000000</ele>
        <time>2021-09-05T11:44:23Z</time>
      </trkpt>
      <trkpt lat="42.616527" lon="0.478365">
        <ele>1894.000000</ele>
        <time>2021-09-05T11:44:24Z</time>
      </trkpt>
      <trkpt lat="42.616523" lon="0.478370">
        <ele>1894.000000</ele>
        <time>2021-09-05T11:44:25Z</time>
      </trkpt>
      <trkpt lat="42.616520" lon="0.478373">
        <ele>1894.000000</ele>
        <time>2021-09-05T11:44:26Z</time>
      </trkpt>
      <trkpt lat="42.616518" lon="0.478370">
        <ele>1893.000000</ele>
        <time>2021-09-05T11:44:27Z</time>
      </trkpt>
      <trkpt lat="42.616513" lon="0.478371">
        <ele>1893.000000</ele>
        <time>2021-09-05T11:44:28Z</time>
      </trkpt>
      <trkpt lat="42.616507" lon="0.478375">
        <ele>1893.000000</ele>
        <time>2021-09-05T11:44:29Z</time>
      </trkpt>
      <trkpt lat="42.616498" lon="0.478374">
        <ele>1892.000000</ele>
        <time>2021-09-05T11:44:30Z</time>
      </trkpt>
      <trkpt lat="42.616488" lon="0.478374">
        <ele>1892.000000</ele>
        <time>2021-09-05T11:44:31Z</time>
      </trkpt>
      <trkpt lat="42.616482" lon="0.478370">
        <ele>1891.000000</ele>
        <time>2021-09-05T11:44:32Z</time>
      </trkpt>
      <trkpt lat="42.616477" lon="0.478367">
        <ele>1891.000000</ele>
        <time>2021-09-05T11:44:33Z</time>
      </trkpt>
      <trkpt lat="42.616470" lon="0.478368">
        <ele>1891.000000</ele>
        <time>2021-09-05T11:44:34Z</time>
      </trkpt>
      <trkpt lat="42.616465" lon="0.478372">
        <ele>1891.000000</ele>
        <time>2021-09-05T11:44:35Z</time>
      </trkpt>
      <trkpt lat="42.616462" lon="0.478377">
        <ele>1891.000000</ele>
        <time>2021-09-05T11:44:36Z</time>
      </trkpt>
      <trkpt lat="42.616460" lon="0.478385">
        <ele>1891.000000</ele>
        <time>2021-09-05T11:44:37Z</time>
      </trkpt>
      <trkpt lat="42.616462" lon="0.478392">
        <ele>1891.000000</ele>
        <time>2021-09-05T11:44:38Z</time>
      </trkpt>
      <trkpt lat="42.616467" lon="0.478400">
        <ele>1891.000000</ele>
        <time>2021-09-05T11:44:39Z</time>
      </trkpt>
      <trkpt lat="42.616473" lon="0.478412">
        <ele>1891.000000</ele>
        <time>2021-09-05T11:44:41Z</time>
      </trkpt>
      <trkpt lat="42.616478" lon="0.478423">
        <ele>1891.000000</ele>
        <time>2021-09-05T11:44:41Z</time>
      </trkpt>
      <trkpt lat="42.616485" lon="0.478432">
        <ele>1891.000000</ele>
        <time>2021-09-05T11:44:42Z</time>
      </trkpt>
      <trkpt lat="42.616485" lon="0.478438">
        <ele>1891.000000</ele>
        <time>2021-09-05T11:44:43Z</time>
      </trkpt>
      <trkpt lat="42.616486" lon="0.478442">
        <ele>1890.000000</ele>
        <time>2021-09-05T11:44:44Z</time>
      </trkpt>
      <trkpt lat="42.616487" lon="0.478447">
        <ele>1890.000000</ele>
        <time>2021-09-05T11:44:45Z</time>
      </trkpt>
      <trkpt lat="42.616487" lon="0.478450">
        <ele>1890.000000</ele>
        <time>2021-09-05T11:44:46Z</time>
      </trkpt>
      <trkpt lat="42.616489" lon="0.478455">
        <ele>1890.000000</ele>
        <time>2021-09-05T11:44:47Z</time>
      </trkpt>
      <trkpt lat="42.616488" lon="0.478463">
        <ele>1890.000000</ele>
        <time>2021-09-05T11:44:48Z</time>
      </trkpt>
      <trkpt lat="42.616485" lon="0.478470">
        <ele>1889.000000</ele>
        <time>2021-09-05T11:44:49Z</time>
      </trkpt>
      <trkpt lat="42.616478" lon="0.478482">
        <ele>1889.000000</ele>
        <time>2021-09-05T11:44:50Z</time>
      </trkpt>
      <trkpt lat="42.616473" lon="0.478493">
        <ele>1889.000000</ele>
        <time>2021-09-05T11:44:51Z</time>
      </trkpt>
      <trkpt lat="42.616468" lon="0.478505">
        <ele>1889.000000</ele>
        <time>2021-09-05T11:44:52Z</time>
      </trkpt>
      <trkpt lat="42.616465" lon="0.478507">
        <ele>1889.000000</ele>
        <time>2021-09-05T11:44:53Z</time>
      </trkpt>
      <trkpt lat="42.616460" lon="0.478507">
        <ele>1888.000000</ele>
        <time>2021-09-05T11:44:54Z</time>
      </trkpt>
      <trkpt lat="42.616440" lon="0.478498">
        <ele>1888.000000</ele>
        <time>2021-09-05T11:44:55Z</time>
      </trkpt>
      <trkpt lat="42.616432" lon="0.478497">
        <ele>1888.000000</ele>
        <time>2021-09-05T11:44:56Z</time>
      </trkpt>
      <trkpt lat="42.616423" lon="0.478492">
        <ele>1888.000000</ele>
        <time>2021-09-05T11:44:57Z</time>
      </trkpt>
      <trkpt lat="42.616417" lon="0.478485">
        <ele>1888.000000</ele>
        <time>2021-09-05T11:44:58Z</time>
      </trkpt>
      <trkpt lat="42.616410" lon="0.478482">
        <ele>1888.000000</ele>
        <time>2021-09-05T11:44:59Z</time>
      </trkpt>
      <trkpt lat="42.616402" lon="0.478477">
        <ele>1888.000000</ele>
        <time>2021-09-05T11:45:00Z</time>
      </trkpt>
      <trkpt lat="42.616395" lon="0.478470">
        <ele>1888.000000</ele>
        <time>2021-09-05T11:45:01Z</time>
      </trkpt>
      <trkpt lat="42.616392" lon="0.478458">
        <ele>1887.000000</ele>
        <time>2021-09-05T11:45:02Z</time>
      </trkpt>
      <trkpt lat="42.616387" lon="0.478450">
        <ele>1887.000000</ele>
        <time>2021-09-05T11:45:04Z</time>
      </trkpt>
      <trkpt lat="42.616382" lon="0.478435">
        <ele>1887.000000</ele>
        <time>2021-09-05T11:45:06Z</time>
      </trkpt>
      <trkpt lat="42.616378" lon="0.478430">
        <ele>1887.000000</ele>
        <time>2021-09-05T11:45:06Z</time>
      </trkpt>
      <trkpt lat="42.616375" lon="0.478427">
        <ele>1887.000000</ele>
        <time>2021-09-05T11:45:07Z</time>
      </trkpt>
      <trkpt lat="42.616372" lon="0.478423">
        <ele>1887.000000</ele>
        <time>2021-09-05T11:45:08Z</time>
      </trkpt>
      <trkpt lat="42.616367" lon="0.478418">
        <ele>1887.000000</ele>
        <time>2021-09-05T11:45:09Z</time>
      </trkpt>
      <trkpt lat="42.616362" lon="0.478415">
        <ele>1887.000000</ele>
        <time>2021-09-05T11:45:10Z</time>
      </trkpt>
      <trkpt lat="42.616357" lon="0.478413">
        <ele>1887.000000</ele>
        <time>2021-09-05T11:45:11Z</time>
      </trkpt>
      <trkpt lat="42.616355" lon="0.478408">
        <ele>1887.000000</ele>
        <time>2021-09-05T11:45:12Z</time>
      </trkpt>
      <trkpt lat="42.616353" lon="0.478404">
        <ele>1887.000000</ele>
        <time>2021-09-05T11:45:12Z</time>
      </trkpt>
      <trkpt lat="42.616350" lon="0.478392">
        <ele>1887.000000</ele>
        <time>2021-09-05T11:45:13Z</time>
      </trkpt>
      <trkpt lat="42.616348" lon="0.478382">
        <ele>1886.000000</ele>
        <time>2021-09-05T11:45:14Z</time>
      </trkpt>
      <trkpt lat="42.616347" lon="0.478370">
        <ele>1886.000000</ele>
        <time>2021-09-05T11:45:15Z</time>
      </trkpt>
      <trkpt lat="42.616345" lon="0.478358">
        <ele>1886.000000</ele>
        <time>2021-09-05T11:45:16Z</time>
      </trkpt>
      <trkpt lat="42.616340" lon="0.478343">
        <ele>1886.000000</ele>
        <time>2021-09-05T11:45:17Z</time>
      </trkpt>
      <trkpt lat="42.616334" lon="0.478330">
        <ele>1886.000000</ele>
        <time>2021-09-05T11:45:18Z</time>
      </trkpt>
      <trkpt lat="42.616328" lon="0.478313">
        <ele>1886.000000</ele>
        <time>2021-09-05T11:45:19Z</time>
      </trkpt>
      <trkpt lat="42.616323" lon="0.478300">
        <ele>1886.000000</ele>
        <time>2021-09-05T11:45:20Z</time>
      </trkpt>
      <trkpt lat="42.616318" lon="0.478282">
        <ele>1886.000000</ele>
        <time>2021-09-05T11:45:21Z</time>
      </trkpt>
      <trkpt lat="42.616315" lon="0.478272">
        <ele>1886.000000</ele>
        <time>2021-09-05T11:45:22Z</time>
      </trkpt>
      <trkpt lat="42.616309" lon="0.478253">
        <ele>1886.000000</ele>
        <time>2021-09-05T11:45:23Z</time>
      </trkpt>
      <trkpt lat="42.616303" lon="0.478235">
        <ele>1886.000000</ele>
        <time>2021-09-05T11:45:24Z</time>
      </trkpt>
      <trkpt lat="42.616298" lon="0.478218">
        <ele>1886.000000</ele>
        <time>2021-09-05T11:45:25Z</time>
      </trkpt>
      <trkpt lat="42.616293" lon="0.478202">
        <ele>1886.000000</ele>
        <time>2021-09-05T11:45:27Z</time>
      </trkpt>
      <trkpt lat="42.616287" lon="0.478185">
        <ele>1886.000000</ele>
        <time>2021-09-05T11:45:27Z</time>
      </trkpt>
      <trkpt lat="42.616281" lon="0.478170">
        <ele>1886.000000</ele>
        <time>2021-09-05T11:45:28Z</time>
      </trkpt>
      <trkpt lat="42.616275" lon="0.478155">
        <ele>1886.000000</ele>
        <time>2021-09-05T11:45:29Z</time>
      </trkpt>
      <trkpt lat="42.616265" lon="0.478140">
        <ele>1886.000000</ele>
        <time>2021-09-05T11:45:30Z</time>
      </trkpt>
      <trkpt lat="42.616257" lon="0.478127">
        <ele>1886.000000</ele>
        <time>2021-09-05T11:45:31Z</time>
      </trkpt>
      <trkpt lat="42.616250" lon="0.478120">
        <ele>1885.000000</ele>
        <time>2021-09-05T11:45:32Z</time>
      </trkpt>
      <trkpt lat="42.616245" lon="0.478115">
        <ele>1885.000000</ele>
        <time>2021-09-05T11:45:33Z</time>
      </trkpt>
      <trkpt lat="42.616239" lon="0.478110">
        <ele>1885.000000</ele>
        <time>2021-09-05T11:45:34Z</time>
      </trkpt>
      <trkpt lat="42.616235" lon="0.478110">
        <ele>1885.000000</ele>
        <time>2021-09-05T11:45:35Z</time>
      </trkpt>
      <trkpt lat="42.616227" lon="0.478108">
        <ele>1885.000000</ele>
        <time>2021-09-05T11:45:36Z</time>
      </trkpt>
      <trkpt lat="42.616218" lon="0.478112">
        <ele>1885.000000</ele>
        <time>2021-09-05T11:45:37Z</time>
      </trkpt>
      <trkpt lat="42.616210" lon="0.478113">
        <ele>1885.000000</ele>
        <time>2021-09-05T11:45:38Z</time>
      </trkpt>
      <trkpt lat="42.616197" lon="0.478112">
        <ele>1885.000000</ele>
        <time>2021-09-05T11:45:39Z</time>
      </trkpt>
      <trkpt lat="42.616185" lon="0.478111">
        <ele>1884.000000</ele>
        <time>2021-09-05T11:45:40Z</time>
      </trkpt>
      <trkpt lat="42.616175" lon="0.478110">
        <ele>1884.000000</ele>
        <time>2021-09-05T11:45:41Z</time>
      </trkpt>
      <trkpt lat="42.616163" lon="0.478109">
        <ele>1884.000000</ele>
        <time>2021-09-05T11:45:42Z</time>
      </trkpt>
      <trkpt lat="42.616153" lon="0.478106">
        <ele>1884.000000</ele>
        <time>2021-09-05T11:45:43Z</time>
      </trkpt>
      <trkpt lat="42.616145" lon="0.478103">
        <ele>1883.000000</ele>
        <time>2021-09-05T11:45:44Z</time>
      </trkpt>
      <trkpt lat="42.616138" lon="0.478102">
        <ele>1883.000000</ele>
        <time>2021-09-05T11:45:45Z</time>
      </trkpt>
      <trkpt lat="42.616132" lon="0.478099">
        <ele>1883.000000</ele>
        <time>2021-09-05T11:45:46Z</time>
      </trkpt>
      <trkpt lat="42.616125" lon="0.478096">
        <ele>1882.000000</ele>
        <time>2021-09-05T11:45:48Z</time>
      </trkpt>
      <trkpt lat="42.616120" lon="0.478096">
        <ele>1882.000000</ele>
        <time>2021-09-05T11:45:48Z</time>
      </trkpt>
      <trkpt lat="42.616113" lon="0.478096">
        <ele>1882.000000</ele>
        <time>2021-09-05T11:45:49Z</time>
      </trkpt>
      <trkpt lat="42.616103" lon="0.478096">
        <ele>1882.000000</ele>
        <time>2021-09-05T11:45:50Z</time>
      </trkpt>
      <trkpt lat="42.616092" lon="0.478095">
        <ele>1882.000000</ele>
        <time>2021-09-05T11:45:51Z</time>
      </trkpt>
      <trkpt lat="42.616087" lon="0.478095">
        <ele>1881.000000</ele>
        <time>2021-09-05T11:45:52Z</time>
      </trkpt>
      <trkpt lat="42.616082" lon="0.478094">
        <ele>1881.000000</ele>
        <time>2021-09-05T11:45:53Z</time>
      </trkpt>
      <trkpt lat="42.616075" lon="0.478087">
        <ele>1881.000000</ele>
        <time>2021-09-05T11:45:54Z</time>
      </trkpt>
      <trkpt lat="42.616068" lon="0.478078">
        <ele>1881.000000</ele>
        <time>2021-09-05T11:45:55Z</time>
      </trkpt>
      <trkpt lat="42.616068" lon="0.478070">
        <ele>1880.000000</ele>
        <time>2021-09-05T11:45:56Z</time>
      </trkpt>
      <trkpt lat="42.616063" lon="0.478060">
        <ele>1880.000000</ele>
        <time>2021-09-05T11:45:57Z</time>
      </trkpt>
      <trkpt lat="42.616057" lon="0.478053">
        <ele>1880.000000</ele>
        <time>2021-09-05T11:45:58Z</time>
      </trkpt>
      <trkpt lat="42.616053" lon="0.478040">
        <ele>1880.000000</ele>
        <time>2021-09-05T11:45:59Z</time>
      </trkpt>
      <trkpt lat="42.616053" lon="0.478027">
        <ele>1879.000000</ele>
        <time>2021-09-05T11:46:00Z</time>
      </trkpt>
      <trkpt lat="42.616050" lon="0.478015">
        <ele>1879.000000</ele>
        <time>2021-09-05T11:46:01Z</time>
      </trkpt>
      <trkpt lat="42.616045" lon="0.478007">
        <ele>1879.000000</ele>
        <time>2021-09-05T11:46:02Z</time>
      </trkpt>
      <trkpt lat="42.616037" lon="0.477997">
        <ele>1879.000000</ele>
        <time>2021-09-05T11:46:03Z</time>
      </trkpt>
      <trkpt lat="42.616031" lon="0.477977">
        <ele>1878.000000</ele>
        <time>2021-09-05T11:46:04Z</time>
      </trkpt>
      <trkpt lat="42.616029" lon="0.477965">
        <ele>1878.000000</ele>
        <time>2021-09-05T11:46:05Z</time>
      </trkpt>
      <trkpt lat="42.616026" lon="0.477955">
        <ele>1878.000000</ele>
        <time>2021-09-05T11:46:06Z</time>
      </trkpt>
      <trkpt lat="42.616023" lon="0.477945">
        <ele>1878.000000</ele>
        <time>2021-09-05T11:46:07Z</time>
      </trkpt>
      <trkpt lat="42.616020" lon="0.477937">
        <ele>1878.000000</ele>
        <time>2021-09-05T11:46:08Z</time>
      </trkpt>
      <trkpt lat="42.616016" lon="0.477928">
        <ele>1877.000000</ele>
        <time>2021-09-05T11:46:09Z</time>
      </trkpt>
      <trkpt lat="42.616014" lon="0.477920">
        <ele>1877.000000</ele>
        <time>2021-09-05T11:46:10Z</time>
      </trkpt>
      <trkpt lat="42.616011" lon="0.477917">
        <ele>1877.000000</ele>
        <time>2021-09-05T11:46:12Z</time>
      </trkpt>
      <trkpt lat="42.616009" lon="0.477913">
        <ele>1877.000000</ele>
        <time>2021-09-05T11:46:12Z</time>
      </trkpt>
      <trkpt lat="42.616002" lon="0.477910">
        <ele>1876.000000</ele>
        <time>2021-09-05T11:46:13Z</time>
      </trkpt>
      <trkpt lat="42.615997" lon="0.477907">
        <ele>1876.000000</ele>
        <time>2021-09-05T11:46:14Z</time>
      </trkpt>
      <trkpt lat="42.615992" lon="0.477905">
        <ele>1876.000000</ele>
        <time>2021-09-05T11:46:15Z</time>
      </trkpt>
      <trkpt lat="42.615987" lon="0.477902">
        <ele>1876.000000</ele>
        <time>2021-09-05T11:46:16Z</time>
      </trkpt>
      <trkpt lat="42.615982" lon="0.477895">
        <ele>1876.000000</ele>
        <time>2021-09-05T11:46:17Z</time>
      </trkpt>
      <trkpt lat="42.615980" lon="0.477891">
        <ele>1876.000000</ele>
        <time>2021-09-05T11:46:18Z</time>
      </trkpt>
      <trkpt lat="42.615978" lon="0.477885">
        <ele>1876.000000</ele>
        <time>2021-09-05T11:46:19Z</time>
      </trkpt>
      <trkpt lat="42.615977" lon="0.477882">
        <ele>1876.000000</ele>
        <time>2021-09-05T11:46:20Z</time>
      </trkpt>
      <trkpt lat="42.615972" lon="0.477875">
        <ele>1876.000000</ele>
        <time>2021-09-05T11:46:21Z</time>
      </trkpt>
      <trkpt lat="42.615965" lon="0.477868">
        <ele>1876.000000</ele>
        <time>2021-09-05T11:46:22Z</time>
      </trkpt>
      <trkpt lat="42.615958" lon="0.477863">
        <ele>1876.000000</ele>
        <time>2021-09-05T11:46:23Z</time>
      </trkpt>
      <trkpt lat="42.615953" lon="0.477853">
        <ele>1876.000000</ele>
        <time>2021-09-05T11:46:24Z</time>
      </trkpt>
      <trkpt lat="42.615948" lon="0.477847">
        <ele>1875.000000</ele>
        <time>2021-09-05T11:46:25Z</time>
      </trkpt>
      <trkpt lat="42.615948" lon="0.477837">
        <ele>1875.000000</ele>
        <time>2021-09-05T11:46:26Z</time>
      </trkpt>
      <trkpt lat="42.615947" lon="0.477833">
        <ele>1875.000000</ele>
        <time>2021-09-05T11:46:27Z</time>
      </trkpt>
      <trkpt lat="42.615946" lon="0.477827">
        <ele>1875.000000</ele>
        <time>2021-09-05T11:46:28Z</time>
      </trkpt>
      <trkpt lat="42.615946" lon="0.477823">
        <ele>1874.000000</ele>
        <time>2021-09-05T11:46:29Z</time>
      </trkpt>
      <trkpt lat="42.615942" lon="0.477818">
        <ele>1874.000000</ele>
        <time>2021-09-05T11:46:31Z</time>
      </trkpt>
      <trkpt lat="42.615936" lon="0.477810">
        <ele>1874.000000</ele>
        <time>2021-09-05T11:46:31Z</time>
      </trkpt>
      <trkpt lat="42.615929" lon="0.477802">
        <ele>1873.000000</ele>
        <time>2021-09-05T11:46:32Z</time>
      </trkpt>
      <trkpt lat="42.615921" lon="0.477793">
        <ele>1873.000000</ele>
        <time>2021-09-05T11:46:33Z</time>
      </trkpt>
      <trkpt lat="42.615917" lon="0.477787">
        <ele>1872.000000</ele>
        <time>2021-09-05T11:46:34Z</time>
      </trkpt>
      <trkpt lat="42.615912" lon="0.477780">
        <ele>1872.000000</ele>
        <time>2021-09-05T11:46:35Z</time>
      </trkpt>
      <trkpt lat="42.615907" lon="0.477772">
        <ele>1871.000000</ele>
        <time>2021-09-05T11:46:36Z</time>
      </trkpt>
      <trkpt lat="42.615901" lon="0.477763">
        <ele>1871.000000</ele>
        <time>2021-09-05T11:46:37Z</time>
      </trkpt>
      <trkpt lat="42.615896" lon="0.477755">
        <ele>1870.000000</ele>
        <time>2021-09-05T11:46:38Z</time>
      </trkpt>
      <trkpt lat="42.615893" lon="0.477750">
        <ele>1870.000000</ele>
        <time>2021-09-05T11:46:39Z</time>
      </trkpt>
      <trkpt lat="42.615891" lon="0.477748">
        <ele>1869.000000</ele>
        <time>2021-09-05T11:46:40Z</time>
      </trkpt>
      <trkpt lat="42.615889" lon="0.477747">
        <ele>1869.000000</ele>
        <time>2021-09-05T11:46:41Z</time>
      </trkpt>
      <trkpt lat="42.615882" lon="0.477738">
        <ele>1868.000000</ele>
        <time>2021-09-05T11:46:42Z</time>
      </trkpt>
      <trkpt lat="42.615875" lon="0.477730">
        <ele>1868.000000</ele>
        <time>2021-09-05T11:46:43Z</time>
      </trkpt>
      <trkpt lat="42.615870" lon="0.477723">
        <ele>1868.000000</ele>
        <time>2021-09-05T11:46:44Z</time>
      </trkpt>
      <trkpt lat="42.615866" lon="0.477717">
        <ele>1868.000000</ele>
        <time>2021-09-05T11:46:45Z</time>
      </trkpt>
      <trkpt lat="42.615862" lon="0.477710">
        <ele>1868.000000</ele>
        <time>2021-09-05T11:46:46Z</time>
      </trkpt>
      <trkpt lat="42.615858" lon="0.477703">
        <ele>1868.000000</ele>
        <time>2021-09-05T11:46:47Z</time>
      </trkpt>
      <trkpt lat="42.615854" lon="0.477693">
        <ele>1868.000000</ele>
        <time>2021-09-05T11:46:48Z</time>
      </trkpt>
      <trkpt lat="42.615848" lon="0.477683">
        <ele>1868.000000</ele>
        <time>2021-09-05T11:46:49Z</time>
      </trkpt>
      <trkpt lat="42.615843" lon="0.477673">
        <ele>1868.000000</ele>
        <time>2021-09-05T11:46:50Z</time>
      </trkpt>
      <trkpt lat="42.615840" lon="0.477665">
        <ele>1867.000000</ele>
        <time>2021-09-05T11:46:51Z</time>
      </trkpt>
      <trkpt lat="42.615833" lon="0.477652">
        <ele>1867.000000</ele>
        <time>2021-09-05T11:46:52Z</time>
      </trkpt>
      <trkpt lat="42.615830" lon="0.477643">
        <ele>1867.000000</ele>
        <time>2021-09-05T11:46:53Z</time>
      </trkpt>
      <trkpt lat="42.615829" lon="0.477640">
        <ele>1866.000000</ele>
        <time>2021-09-05T11:46:55Z</time>
      </trkpt>
      <trkpt lat="42.615828" lon="0.477637">
        <ele>1866.000000</ele>
        <time>2021-09-05T11:46:55Z</time>
      </trkpt>
      <trkpt lat="42.615825" lon="0.477632">
        <ele>1864.000000</ele>
        <time>2021-09-05T11:46:56Z</time>
      </trkpt>
      <trkpt lat="42.615823" lon="0.477627">
        <ele>1864.000000</ele>
        <time>2021-09-05T11:46:57Z</time>
      </trkpt>
      <trkpt lat="42.615820" lon="0.477622">
        <ele>1863.000000</ele>
        <time>2021-09-05T11:46:58Z</time>
      </trkpt>
      <trkpt lat="42.615814" lon="0.477608">
        <ele>1863.000000</ele>
        <time>2021-09-05T11:46:59Z</time>
      </trkpt>
      <trkpt lat="42.615809" lon="0.477597">
        <ele>1863.000000</ele>
        <time>2021-09-05T11:47:00Z</time>
      </trkpt>
      <trkpt lat="42.615828" lon="0.477587">
        <ele>1863.000000</ele>
        <time>2021-09-05T11:47:01Z</time>
      </trkpt>
      <trkpt lat="42.615828" lon="0.477575">
        <ele>1863.000000</ele>
        <time>2021-09-05T11:47:02Z</time>
      </trkpt>
      <trkpt lat="42.615830" lon="0.477565">
        <ele>1862.000000</ele>
        <time>2021-09-05T11:47:03Z</time>
      </trkpt>
      <trkpt lat="42.615830" lon="0.477557">
        <ele>1862.000000</ele>
        <time>2021-09-05T11:47:04Z</time>
      </trkpt>
      <trkpt lat="42.615828" lon="0.477553">
        <ele>1862.000000</ele>
        <time>2021-09-05T11:47:05Z</time>
      </trkpt>
      <trkpt lat="42.615820" lon="0.477548">
        <ele>1861.000000</ele>
        <time>2021-09-05T11:47:06Z</time>
      </trkpt>
      <trkpt lat="42.615813" lon="0.477542">
        <ele>1861.000000</ele>
        <time>2021-09-05T11:47:07Z</time>
      </trkpt>
      <trkpt lat="42.615807" lon="0.477542">
        <ele>1861.000000</ele>
        <time>2021-09-05T11:47:08Z</time>
      </trkpt>
      <trkpt lat="42.615802" lon="0.477537">
        <ele>1861.000000</ele>
        <time>2021-09-05T11:47:09Z</time>
      </trkpt>
      <trkpt lat="42.615795" lon="0.477540">
        <ele>1861.000000</ele>
        <time>2021-09-05T11:47:10Z</time>
      </trkpt>
      <trkpt lat="42.615792" lon="0.477540">
        <ele>1861.000000</ele>
        <time>2021-09-05T11:47:11Z</time>
      </trkpt>
      <trkpt lat="42.615785" lon="0.477542">
        <ele>1861.000000</ele>
        <time>2021-09-05T11:47:12Z</time>
      </trkpt>
      <trkpt lat="42.615780" lon="0.477540">
        <ele>1861.000000</ele>
        <time>2021-09-05T11:47:13Z</time>
      </trkpt>
      <trkpt lat="42.615775" lon="0.477543">
        <ele>1861.000000</ele>
        <time>2021-09-05T11:47:14Z</time>
      </trkpt>
      <trkpt lat="42.615770" lon="0.477542">
        <ele>1861.000000</ele>
        <time>2021-09-05T11:47:15Z</time>
      </trkpt>
      <trkpt lat="42.615765" lon="0.477545">
        <ele>1861.000000</ele>
        <time>2021-09-05T11:47:16Z</time>
      </trkpt>
      <trkpt lat="42.615765" lon="0.477550">
        <ele>1861.000000</ele>
        <time>2021-09-05T11:47:17Z</time>
      </trkpt>
      <trkpt lat="42.615763" lon="0.477558">
        <ele>1861.000000</ele>
        <time>2021-09-05T11:47:19Z</time>
      </trkpt>
      <trkpt lat="42.615765" lon="0.477567">
        <ele>1861.000000</ele>
        <time>2021-09-05T11:47:19Z</time>
      </trkpt>
      <trkpt lat="42.615765" lon="0.477572">
        <ele>1861.000000</ele>
        <time>2021-09-05T11:47:20Z</time>
      </trkpt>
      <trkpt lat="42.615764" lon="0.477572">
        <ele>1862.000000</ele>
        <time>2021-09-05T11:47:23Z</time>
      </trkpt>
      <trkpt lat="42.615760" lon="0.477570">
        <ele>1862.000000</ele>
        <time>2021-09-05T11:47:25Z</time>
      </trkpt>
      <trkpt lat="42.615762" lon="0.477575">
        <ele>1862.000000</ele>
        <time>2021-09-05T11:47:26Z</time>
      </trkpt>
      <trkpt lat="42.615760" lon="0.477580">
        <ele>1862.000000</ele>
        <time>2021-09-05T11:47:27Z</time>
      </trkpt>
      <trkpt lat="42.615755" lon="0.477587">
        <ele>1862.000000</ele>
        <time>2021-09-05T11:47:28Z</time>
      </trkpt>
      <trkpt lat="42.615753" lon="0.477590">
        <ele>1862.000000</ele>
        <time>2021-09-05T11:47:29Z</time>
      </trkpt>
      <trkpt lat="42.615753" lon="0.477593">
        <ele>1862.000000</ele>
        <time>2021-09-05T11:47:30Z</time>
      </trkpt>
      <trkpt lat="42.615755" lon="0.477602">
        <ele>1862.000000</ele>
        <time>2021-09-05T11:47:31Z</time>
      </trkpt>
      <trkpt lat="42.615754" lon="0.477612">
        <ele>1862.000000</ele>
        <time>2021-09-05T11:47:32Z</time>
      </trkpt>
      <trkpt lat="42.615755" lon="0.477615">
        <ele>1862.000000</ele>
        <time>2021-09-05T11:47:33Z</time>
      </trkpt>
      <trkpt lat="42.615756" lon="0.477627">
        <ele>1862.000000</ele>
        <time>2021-09-05T11:47:34Z</time>
      </trkpt>
      <trkpt lat="42.615759" lon="0.477638">
        <ele>1862.000000</ele>
        <time>2021-09-05T11:47:35Z</time>
      </trkpt>
      <trkpt lat="42.615760" lon="0.477653">
        <ele>1862.000000</ele>
        <time>2021-09-05T11:47:36Z</time>
      </trkpt>
      <trkpt lat="42.615765" lon="0.477668">
        <ele>1862.000000</ele>
        <time>2021-09-05T11:47:37Z</time>
      </trkpt>
      <trkpt lat="42.615768" lon="0.477677">
        <ele>1862.000000</ele>
        <time>2021-09-05T11:47:39Z</time>
      </trkpt>
      <trkpt lat="42.615768" lon="0.477685">
        <ele>1862.000000</ele>
        <time>2021-09-05T11:47:39Z</time>
      </trkpt>
      <trkpt lat="42.615770" lon="0.477695">
        <ele>1862.000000</ele>
        <time>2021-09-05T11:47:40Z</time>
      </trkpt>
      <trkpt lat="42.615768" lon="0.477703">
        <ele>1861.000000</ele>
        <time>2021-09-05T11:47:41Z</time>
      </trkpt>
      <trkpt lat="42.615767" lon="0.477705">
        <ele>1861.000000</ele>
        <time>2021-09-05T11:47:42Z</time>
      </trkpt>
      <trkpt lat="42.615763" lon="0.477713">
        <ele>1861.000000</ele>
        <time>2021-09-05T11:47:43Z</time>
      </trkpt>
      <trkpt lat="42.615757" lon="0.477720">
        <ele>1861.000000</ele>
        <time>2021-09-05T11:47:44Z</time>
      </trkpt>
      <trkpt lat="42.615753" lon="0.477730">
        <ele>1861.000000</ele>
        <time>2021-09-05T11:47:45Z</time>
      </trkpt>
      <trkpt lat="42.615750" lon="0.477733">
        <ele>1860.000000</ele>
        <time>2021-09-05T11:47:46Z</time>
      </trkpt>
      <trkpt lat="42.615747" lon="0.477742">
        <ele>1860.000000</ele>
        <time>2021-09-05T11:47:47Z</time>
      </trkpt>
      <trkpt lat="42.615749" lon="0.477753">
        <ele>1860.000000</ele>
        <time>2021-09-05T11:47:48Z</time>
      </trkpt>
      <trkpt lat="42.615750" lon="0.477765">
        <ele>1860.000000</ele>
        <time>2021-09-05T11:47:49Z</time>
      </trkpt>
      <trkpt lat="42.615749" lon="0.477770">
        <ele>1860.000000</ele>
        <time>2021-09-05T11:47:50Z</time>
      </trkpt>
      <trkpt lat="42.615749" lon="0.477782">
        <ele>1860.000000</ele>
        <time>2021-09-05T11:47:51Z</time>
      </trkpt>
      <trkpt lat="42.615749" lon="0.477795">
        <ele>1860.000000</ele>
        <time>2021-09-05T11:47:52Z</time>
      </trkpt>
      <trkpt lat="42.615749" lon="0.477805">
        <ele>1860.000000</ele>
        <time>2021-09-05T11:47:53Z</time>
      </trkpt>
      <trkpt lat="42.615750" lon="0.477812">
        <ele>1860.000000</ele>
        <time>2021-09-05T11:47:54Z</time>
      </trkpt>
      <trkpt lat="42.615748" lon="0.477818">
        <ele>1860.000000</ele>
        <time>2021-09-05T11:47:55Z</time>
      </trkpt>
      <trkpt lat="42.615745" lon="0.477822">
        <ele>1860.000000</ele>
        <time>2021-09-05T11:47:56Z</time>
      </trkpt>
      <trkpt lat="42.615742" lon="0.477823">
        <ele>1859.000000</ele>
        <time>2021-09-05T11:47:57Z</time>
      </trkpt>
      <trkpt lat="42.615744" lon="0.477820">
        <ele>1859.000000</ele>
        <time>2021-09-05T11:47:58Z</time>
      </trkpt>
      <trkpt lat="42.615742" lon="0.477823">
        <ele>1859.000000</ele>
        <time>2021-09-05T11:47:59Z</time>
      </trkpt>
      <trkpt lat="42.615745" lon="0.477835">
        <ele>1859.000000</ele>
        <time>2021-09-05T11:48:00Z</time>
      </trkpt>
      <trkpt lat="42.615747" lon="0.477840">
        <ele>1859.000000</ele>
        <time>2021-09-05T11:48:02Z</time>
      </trkpt>
      <trkpt lat="42.615749" lon="0.477850">
        <ele>1859.000000</ele>
        <time>2021-09-05T11:48:02Z</time>
      </trkpt>
      <trkpt lat="42.615749" lon="0.477858">
        <ele>1859.000000</ele>
        <time>2021-09-05T11:48:03Z</time>
      </trkpt>
      <trkpt lat="42.615751" lon="0.477870">
        <ele>1858.000000</ele>
        <time>2021-09-05T11:48:04Z</time>
      </trkpt>
      <trkpt lat="42.615752" lon="0.477883">
        <ele>1858.000000</ele>
        <time>2021-09-05T11:48:05Z</time>
      </trkpt>
      <trkpt lat="42.615753" lon="0.477897">
        <ele>1858.000000</ele>
        <time>2021-09-05T11:48:06Z</time>
      </trkpt>
      <trkpt lat="42.615753" lon="0.477900">
        <ele>1858.000000</ele>
        <time>2021-09-05T11:48:07Z</time>
      </trkpt>
      <trkpt lat="42.615753" lon="0.477902">
        <ele>1858.000000</ele>
        <time>2021-09-05T11:48:08Z</time>
      </trkpt>
      <trkpt lat="42.615754" lon="0.477907">
        <ele>1857.000000</ele>
        <time>2021-09-05T11:48:09Z</time>
      </trkpt>
      <trkpt lat="42.615756" lon="0.477920">
        <ele>1857.000000</ele>
        <time>2021-09-05T11:48:10Z</time>
      </trkpt>
      <trkpt lat="42.615757" lon="0.477928">
        <ele>1857.000000</ele>
        <time>2021-09-05T11:48:11Z</time>
      </trkpt>
      <trkpt lat="42.615757" lon="0.477933">
        <ele>1857.000000</ele>
        <time>2021-09-05T11:48:12Z</time>
      </trkpt>
      <trkpt lat="42.615758" lon="0.477938">
        <ele>1857.000000</ele>
        <time>2021-09-05T11:48:13Z</time>
      </trkpt>
      <trkpt lat="42.615759" lon="0.477947">
        <ele>1857.000000</ele>
        <time>2021-09-05T11:48:14Z</time>
      </trkpt>
      <trkpt lat="42.615759" lon="0.477952">
        <ele>1857.000000</ele>
        <time>2021-09-05T11:48:15Z</time>
      </trkpt>
      <trkpt lat="42.615761" lon="0.477962">
        <ele>1856.000000</ele>
        <time>2021-09-05T11:48:16Z</time>
      </trkpt>
      <trkpt lat="42.615762" lon="0.477978">
        <ele>1856.000000</ele>
        <time>2021-09-05T11:48:17Z</time>
      </trkpt>
      <trkpt lat="42.615755" lon="0.477998">
        <ele>1856.000000</ele>
        <time>2021-09-05T11:48:18Z</time>
      </trkpt>
      <trkpt lat="42.615753" lon="0.478005">
        <ele>1856.000000</ele>
        <time>2021-09-05T11:48:19Z</time>
      </trkpt>
      <trkpt lat="42.615757" lon="0.478015">
        <ele>1855.000000</ele>
        <time>2021-09-05T11:48:20Z</time>
      </trkpt>
      <trkpt lat="42.615759" lon="0.478025">
        <ele>1855.000000</ele>
        <time>2021-09-05T11:48:21Z</time>
      </trkpt>
      <trkpt lat="42.615763" lon="0.478042">
        <ele>1855.000000</ele>
        <time>2021-09-05T11:48:22Z</time>
      </trkpt>
      <trkpt lat="42.615765" lon="0.478055">
        <ele>1855.000000</ele>
        <time>2021-09-05T11:48:23Z</time>
      </trkpt>
      <trkpt lat="42.615764" lon="0.478072">
        <ele>1855.000000</ele>
        <time>2021-09-05T11:48:24Z</time>
      </trkpt>
      <trkpt lat="42.615762" lon="0.478083">
        <ele>1854.000000</ele>
        <time>2021-09-05T11:48:25Z</time>
      </trkpt>
      <trkpt lat="42.615762" lon="0.478095">
        <ele>1854.000000</ele>
        <time>2021-09-05T11:48:26Z</time>
      </trkpt>
      <trkpt lat="42.615762" lon="0.478110">
        <ele>1854.000000</ele>
        <time>2021-09-05T11:48:27Z</time>
      </trkpt>
      <trkpt lat="42.615760" lon="0.478122">
        <ele>1854.000000</ele>
        <time>2021-09-05T11:48:28Z</time>
      </trkpt>
      <trkpt lat="42.615758" lon="0.478138">
        <ele>1854.000000</ele>
        <time>2021-09-05T11:48:29Z</time>
      </trkpt>
      <trkpt lat="42.615756" lon="0.478148">
        <ele>1854.000000</ele>
        <time>2021-09-05T11:48:30Z</time>
      </trkpt>
      <trkpt lat="42.615755" lon="0.478165">
        <ele>1854.000000</ele>
        <time>2021-09-05T11:48:31Z</time>
      </trkpt>
      <trkpt lat="42.615756" lon="0.478180">
        <ele>1853.000000</ele>
        <time>2021-09-05T11:48:32Z</time>
      </trkpt>
      <trkpt lat="42.615757" lon="0.478205">
        <ele>1853.000000</ele>
        <time>2021-09-05T11:48:33Z</time>
      </trkpt>
      <trkpt lat="42.615757" lon="0.478220">
        <ele>1853.000000</ele>
        <time>2021-09-05T11:48:34Z</time>
      </trkpt>
      <trkpt lat="42.615756" lon="0.478233">
        <ele>1853.000000</ele>
        <time>2021-09-05T11:48:35Z</time>
      </trkpt>
      <trkpt lat="42.615756" lon="0.478247">
        <ele>1852.000000</ele>
        <time>2021-09-05T11:48:36Z</time>
      </trkpt>
      <trkpt lat="42.615754" lon="0.478262">
        <ele>1852.000000</ele>
        <time>2021-09-05T11:48:37Z</time>
      </trkpt>
      <trkpt lat="42.615752" lon="0.478277">
        <ele>1852.000000</ele>
        <time>2021-09-05T11:48:38Z</time>
      </trkpt>
      <trkpt lat="42.615738" lon="0.478290">
        <ele>1852.000000</ele>
        <time>2021-09-05T11:48:39Z</time>
      </trkpt>
      <trkpt lat="42.615728" lon="0.478297">
        <ele>1851.000000</ele>
        <time>2021-09-05T11:48:40Z</time>
      </trkpt>
      <trkpt lat="42.615720" lon="0.478302">
        <ele>1851.000000</ele>
        <time>2021-09-05T11:48:41Z</time>
      </trkpt>
      <trkpt lat="42.615715" lon="0.478310">
        <ele>1851.000000</ele>
        <time>2021-09-05T11:48:42Z</time>
      </trkpt>
      <trkpt lat="42.615712" lon="0.478310">
        <ele>1851.000000</ele>
        <time>2021-09-05T11:48:43Z</time>
      </trkpt>
      <trkpt lat="42.615708" lon="0.478312">
        <ele>1850.000000</ele>
        <time>2021-09-05T11:48:46Z</time>
      </trkpt>
      <trkpt lat="42.615705" lon="0.478313">
        <ele>1850.000000</ele>
        <time>2021-09-05T11:48:46Z</time>
      </trkpt>
      <trkpt lat="42.615703" lon="0.478316">
        <ele>1850.000000</ele>
        <time>2021-09-05T11:48:47Z</time>
      </trkpt>
      <trkpt lat="42.615700" lon="0.478318">
        <ele>1850.000000</ele>
        <time>2021-09-05T11:48:48Z</time>
      </trkpt>
      <trkpt lat="42.615695" lon="0.478319">
        <ele>1849.000000</ele>
        <time>2021-09-05T11:48:50Z</time>
      </trkpt>
      <trkpt lat="42.615697" lon="0.478319">
        <ele>1849.000000</ele>
        <time>2021-09-05T11:48:51Z</time>
      </trkpt>
      <trkpt lat="42.615695" lon="0.478320">
        <ele>1849.000000</ele>
        <time>2021-09-05T11:48:52Z</time>
      </trkpt>
      <trkpt lat="42.615692" lon="0.478322">
        <ele>1848.000000</ele>
        <time>2021-09-05T11:48:53Z</time>
      </trkpt>
      <trkpt lat="42.615697" lon="0.478320">
        <ele>1848.000000</ele>
        <time>2021-09-05T11:48:54Z</time>
      </trkpt>
      <trkpt lat="42.615702" lon="0.478320">
        <ele>1848.000000</ele>
        <time>2021-09-05T11:48:55Z</time>
      </trkpt>
      <trkpt lat="42.615705" lon="0.478324">
        <ele>1848.000000</ele>
        <time>2021-09-05T11:48:56Z</time>
      </trkpt>
      <trkpt lat="42.615708" lon="0.478330">
        <ele>1848.000000</ele>
        <time>2021-09-05T11:48:57Z</time>
      </trkpt>
      <trkpt lat="42.615710" lon="0.478335">
        <ele>1848.000000</ele>
        <time>2021-09-05T11:48:58Z</time>
      </trkpt>
      <trkpt lat="42.615707" lon="0.478342">
        <ele>1848.000000</ele>
        <time>2021-09-05T11:49:01Z</time>
      </trkpt>
      <trkpt lat="42.615707" lon="0.478340">
        <ele>1848.000000</ele>
        <time>2021-09-05T11:49:02Z</time>
      </trkpt>
      <trkpt lat="42.615705" lon="0.478335">
        <ele>1848.000000</ele>
        <time>2021-09-05T11:49:03Z</time>
      </trkpt>
      <trkpt lat="42.615702" lon="0.478328">
        <ele>1848.000000</ele>
        <time>2021-09-05T11:49:05Z</time>
      </trkpt>
      <trkpt lat="42.615700" lon="0.478320">
        <ele>1848.000000</ele>
        <time>2021-09-05T11:49:06Z</time>
      </trkpt>
      <trkpt lat="42.615702" lon="0.478324">
        <ele>1848.000000</ele>
        <time>2021-09-05T11:49:07Z</time>
      </trkpt>
      <trkpt lat="42.615697" lon="0.478311">
        <ele>1847.000000</ele>
        <time>2021-09-05T11:49:08Z</time>
      </trkpt>
      <trkpt lat="42.615698" lon="0.478314">
        <ele>1847.000000</ele>
        <time>2021-09-05T11:49:10Z</time>
      </trkpt>
      <trkpt lat="42.615703" lon="0.478327">
        <ele>1847.000000</ele>
        <time>2021-09-05T11:49:10Z</time>
      </trkpt>
      <trkpt lat="42.615703" lon="0.478324">
        <ele>1846.000000</ele>
        <time>2021-09-05T11:49:11Z</time>
      </trkpt>
      <trkpt lat="42.615703" lon="0.478298">
        <ele>1846.000000</ele>
        <time>2021-09-05T11:49:12Z</time>
      </trkpt>
      <trkpt lat="42.615705" lon="0.478295">
        <ele>1846.000000</ele>
        <time>2021-09-05T11:49:13Z</time>
      </trkpt>
      <trkpt lat="42.615707" lon="0.478288">
        <ele>1846.000000</ele>
        <time>2021-09-05T11:49:14Z</time>
      </trkpt>
      <trkpt lat="42.615707" lon="0.478275">
        <ele>1846.000000</ele>
        <time>2021-09-05T11:49:15Z</time>
      </trkpt>
      <trkpt lat="42.615706" lon="0.478285">
        <ele>1846.000000</ele>
        <time>2021-09-05T11:49:16Z</time>
      </trkpt>
      <trkpt lat="42.615705" lon="0.478297">
        <ele>1846.000000</ele>
        <time>2021-09-05T11:49:17Z</time>
      </trkpt>
      <trkpt lat="42.615702" lon="0.478305">
        <ele>1846.000000</ele>
        <time>2021-09-05T11:49:18Z</time>
      </trkpt>
      <trkpt lat="42.615698" lon="0.478307">
        <ele>1846.000000</ele>
        <time>2021-09-05T11:49:19Z</time>
      </trkpt>
      <trkpt lat="42.615685" lon="0.478303">
        <ele>1846.000000</ele>
        <time>2021-09-05T11:49:20Z</time>
      </trkpt>
      <trkpt lat="42.615672" lon="0.478303">
        <ele>1846.000000</ele>
        <time>2021-09-05T11:49:21Z</time>
      </trkpt>
      <trkpt lat="42.615665" lon="0.478303">
        <ele>1846.000000</ele>
        <time>2021-09-05T11:49:22Z</time>
      </trkpt>
      <trkpt lat="42.615657" lon="0.478301">
        <ele>1846.000000</ele>
        <time>2021-09-05T11:49:23Z</time>
      </trkpt>
      <trkpt lat="42.615647" lon="0.478305">
        <ele>1847.000000</ele>
        <time>2021-09-05T11:49:24Z</time>
      </trkpt>
      <trkpt lat="42.615645" lon="0.478308">
        <ele>1847.000000</ele>
        <time>2021-09-05T11:49:25Z</time>
      </trkpt>
      <trkpt lat="42.615638" lon="0.478310">
        <ele>1847.000000</ele>
        <time>2021-09-05T11:49:26Z</time>
      </trkpt>
      <trkpt lat="42.615630" lon="0.478310">
        <ele>1847.000000</ele>
        <time>2021-09-05T11:49:27Z</time>
      </trkpt>
      <trkpt lat="42.615620" lon="0.478312">
        <ele>1847.000000</ele>
        <time>2021-09-05T11:49:27Z</time>
      </trkpt>
      <trkpt lat="42.615607" lon="0.478314">
        <ele>1847.000000</ele>
        <time>2021-09-05T11:49:29Z</time>
      </trkpt>
      <trkpt lat="42.615595" lon="0.478325">
        <ele>1847.000000</ele>
        <time>2021-09-05T11:49:29Z</time>
      </trkpt>
      <trkpt lat="42.615582" lon="0.478332">
        <ele>1847.000000</ele>
        <time>2021-09-05T11:49:30Z</time>
      </trkpt>
      <trkpt lat="42.615570" lon="0.478333">
        <ele>1847.000000</ele>
        <time>2021-09-05T11:49:31Z</time>
      </trkpt>
      <trkpt lat="42.615558" lon="0.478333">
        <ele>1847.000000</ele>
        <time>2021-09-05T11:49:32Z</time>
      </trkpt>
      <trkpt lat="42.615548" lon="0.478335">
        <ele>1846.000000</ele>
        <time>2021-09-05T11:49:33Z</time>
      </trkpt>
      <trkpt lat="42.615537" lon="0.478332">
        <ele>1846.000000</ele>
        <time>2021-09-05T11:49:34Z</time>
      </trkpt>
      <trkpt lat="42.615530" lon="0.478330">
        <ele>1846.000000</ele>
        <time>2021-09-05T11:49:35Z</time>
      </trkpt>
      <trkpt lat="42.615522" lon="0.478318">
        <ele>1846.000000</ele>
        <time>2021-09-05T11:49:36Z</time>
      </trkpt>
      <trkpt lat="42.615518" lon="0.478308">
        <ele>1846.000000</ele>
        <time>2021-09-05T11:49:37Z</time>
      </trkpt>
      <trkpt lat="42.615510" lon="0.478303">
        <ele>1846.000000</ele>
        <time>2021-09-05T11:49:38Z</time>
      </trkpt>
      <trkpt lat="42.615502" lon="0.478300">
        <ele>1846.000000</ele>
        <time>2021-09-05T11:49:39Z</time>
      </trkpt>
      <trkpt lat="42.615490" lon="0.478298">
        <ele>1846.000000</ele>
        <time>2021-09-05T11:49:40Z</time>
      </trkpt>
      <trkpt lat="42.615480" lon="0.478299">
        <ele>1846.000000</ele>
        <time>2021-09-05T11:49:41Z</time>
      </trkpt>
      <trkpt lat="42.615472" lon="0.478298">
        <ele>1846.000000</ele>
        <time>2021-09-05T11:49:42Z</time>
      </trkpt>
      <trkpt lat="42.615460" lon="0.478297">
        <ele>1846.000000</ele>
        <time>2021-09-05T11:49:43Z</time>
      </trkpt>
      <trkpt lat="42.615448" lon="0.478295">
        <ele>1846.000000</ele>
        <time>2021-09-05T11:49:44Z</time>
      </trkpt>
      <trkpt lat="42.615440" lon="0.478302">
        <ele>1846.000000</ele>
        <time>2021-09-05T11:49:45Z</time>
      </trkpt>
      <trkpt lat="42.615430" lon="0.478297">
        <ele>1846.000000</ele>
        <time>2021-09-05T11:49:46Z</time>
      </trkpt>
      <trkpt lat="42.615417" lon="0.478290">
        <ele>1846.000000</ele>
        <time>2021-09-05T11:49:47Z</time>
      </trkpt>
      <trkpt lat="42.615407" lon="0.478287">
        <ele>1846.000000</ele>
        <time>2021-09-05T11:49:48Z</time>
      </trkpt>
      <trkpt lat="42.615393" lon="0.478287">
        <ele>1846.000000</ele>
        <time>2021-09-05T11:49:49Z</time>
      </trkpt>
      <trkpt lat="42.615385" lon="0.478290">
        <ele>1846.000000</ele>
        <time>2021-09-05T11:49:50Z</time>
      </trkpt>
      <trkpt lat="42.615375" lon="0.478290">
        <ele>1846.000000</ele>
        <time>2021-09-05T11:49:52Z</time>
      </trkpt>
      <trkpt lat="42.615368" lon="0.478290">
        <ele>1845.000000</ele>
        <time>2021-09-05T11:49:52Z</time>
      </trkpt>
      <trkpt lat="42.615358" lon="0.478285">
        <ele>1845.000000</ele>
        <time>2021-09-05T11:49:53Z</time>
      </trkpt>
      <trkpt lat="42.615347" lon="0.478263">
        <ele>1845.000000</ele>
        <time>2021-09-05T11:49:54Z</time>
      </trkpt>
      <trkpt lat="42.615338" lon="0.478253">
        <ele>1845.000000</ele>
        <time>2021-09-05T11:49:55Z</time>
      </trkpt>
      <trkpt lat="42.615328" lon="0.478245">
        <ele>1844.000000</ele>
        <time>2021-09-05T11:49:56Z</time>
      </trkpt>
      <trkpt lat="42.615317" lon="0.478237">
        <ele>1844.000000</ele>
        <time>2021-09-05T11:49:57Z</time>
      </trkpt>
      <trkpt lat="42.615307" lon="0.478227">
        <ele>1843.000000</ele>
        <time>2021-09-05T11:49:58Z</time>
      </trkpt>
      <trkpt lat="42.615293" lon="0.478218">
        <ele>1843.000000</ele>
        <time>2021-09-05T11:49:59Z</time>
      </trkpt>
      <trkpt lat="42.615282" lon="0.478212">
        <ele>1843.000000</ele>
        <time>2021-09-05T11:50:00Z</time>
      </trkpt>
      <trkpt lat="42.615265" lon="0.478206">
        <ele>1842.000000</ele>
        <time>2021-09-05T11:50:01Z</time>
      </trkpt>
      <trkpt lat="42.615252" lon="0.478199">
        <ele>1842.000000</ele>
        <time>2021-09-05T11:50:02Z</time>
      </trkpt>
      <trkpt lat="42.615233" lon="0.478190">
        <ele>1842.000000</ele>
        <time>2021-09-05T11:50:03Z</time>
      </trkpt>
      <trkpt lat="42.615220" lon="0.478184">
        <ele>1842.000000</ele>
        <time>2021-09-05T11:50:04Z</time>
      </trkpt>
      <trkpt lat="42.615207" lon="0.478180">
        <ele>1842.000000</ele>
        <time>2021-09-05T11:50:05Z</time>
      </trkpt>
      <trkpt lat="42.615192" lon="0.478176">
        <ele>1842.000000</ele>
        <time>2021-09-05T11:50:06Z</time>
      </trkpt>
      <trkpt lat="42.615173" lon="0.478173">
        <ele>1842.000000</ele>
        <time>2021-09-05T11:50:07Z</time>
      </trkpt>
      <trkpt lat="42.615160" lon="0.478188">
        <ele>1842.000000</ele>
        <time>2021-09-05T11:50:08Z</time>
      </trkpt>
      <trkpt lat="42.615148" lon="0.478192">
        <ele>1843.000000</ele>
        <time>2021-09-05T11:50:09Z</time>
      </trkpt>
      <trkpt lat="42.615137" lon="0.478191">
        <ele>1843.000000</ele>
        <time>2021-09-05T11:50:10Z</time>
      </trkpt>
      <trkpt lat="42.615122" lon="0.478184">
        <ele>1843.000000</ele>
        <time>2021-09-05T11:50:11Z</time>
      </trkpt>
      <trkpt lat="42.615110" lon="0.478177">
        <ele>1843.000000</ele>
        <time>2021-09-05T11:50:12Z</time>
      </trkpt>
      <trkpt lat="42.615098" lon="0.478174">
        <ele>1843.000000</ele>
        <time>2021-09-05T11:50:13Z</time>
      </trkpt>
      <trkpt lat="42.615088" lon="0.478173">
        <ele>1844.000000</ele>
        <time>2021-09-05T11:50:14Z</time>
      </trkpt>
      <trkpt lat="42.615075" lon="0.478172">
        <ele>1844.000000</ele>
        <time>2021-09-05T11:50:16Z</time>
      </trkpt>
      <trkpt lat="42.615063" lon="0.478170">
        <ele>1844.000000</ele>
        <time>2021-09-05T11:50:16Z</time>
      </trkpt>
      <trkpt lat="42.615050" lon="0.478169">
        <ele>1844.000000</ele>
        <time>2021-09-05T11:50:17Z</time>
      </trkpt>
      <trkpt lat="42.615035" lon="0.478166">
        <ele>1844.000000</ele>
        <time>2021-09-05T11:50:18Z</time>
      </trkpt>
      <trkpt lat="42.615023" lon="0.478164">
        <ele>1844.000000</ele>
        <time>2021-09-05T11:50:19Z</time>
      </trkpt>
      <trkpt lat="42.615010" lon="0.478162">
        <ele>1844.000000</ele>
        <time>2021-09-05T11:50:20Z</time>
      </trkpt>
      <trkpt lat="42.614998" lon="0.478160">
        <ele>1844.000000</ele>
        <time>2021-09-05T11:50:21Z</time>
      </trkpt>
      <trkpt lat="42.614988" lon="0.478160">
        <ele>1844.000000</ele>
        <time>2021-09-05T11:50:22Z</time>
      </trkpt>
      <trkpt lat="42.614978" lon="0.478160">
        <ele>1844.000000</ele>
        <time>2021-09-05T11:50:23Z</time>
      </trkpt>
      <trkpt lat="42.614972" lon="0.478161">
        <ele>1844.000000</ele>
        <time>2021-09-05T11:50:24Z</time>
      </trkpt>
      <trkpt lat="42.614957" lon="0.478180">
        <ele>1844.000000</ele>
        <time>2021-09-05T11:50:25Z</time>
      </trkpt>
      <trkpt lat="42.614943" lon="0.478185">
        <ele>1844.000000</ele>
        <time>2021-09-05T11:50:26Z</time>
      </trkpt>
      <trkpt lat="42.614928" lon="0.478191">
        <ele>1844.000000</ele>
        <time>2021-09-05T11:50:27Z</time>
      </trkpt>
      <trkpt lat="42.614912" lon="0.478196">
        <ele>1844.000000</ele>
        <time>2021-09-05T11:50:28Z</time>
      </trkpt>
      <trkpt lat="42.614898" lon="0.478196">
        <ele>1844.000000</ele>
        <time>2021-09-05T11:50:29Z</time>
      </trkpt>
      <trkpt lat="42.614885" lon="0.478198">
        <ele>1844.000000</ele>
        <time>2021-09-05T11:50:30Z</time>
      </trkpt>
      <trkpt lat="42.614872" lon="0.478200">
        <ele>1843.000000</ele>
        <time>2021-09-05T11:50:31Z</time>
      </trkpt>
      <trkpt lat="42.614860" lon="0.478200">
        <ele>1843.000000</ele>
        <time>2021-09-05T11:50:32Z</time>
      </trkpt>
      <trkpt lat="42.614848" lon="0.478202">
        <ele>1843.000000</ele>
        <time>2021-09-05T11:50:33Z</time>
      </trkpt>
      <trkpt lat="42.614835" lon="0.478203">
        <ele>1843.000000</ele>
        <time>2021-09-05T11:50:34Z</time>
      </trkpt>
      <trkpt lat="42.614822" lon="0.478204">
        <ele>1843.000000</ele>
        <time>2021-09-05T11:50:36Z</time>
      </trkpt>
      <trkpt lat="42.614810" lon="0.478202">
        <ele>1842.000000</ele>
        <time>2021-09-05T11:50:36Z</time>
      </trkpt>
      <trkpt lat="42.614797" lon="0.478188">
        <ele>1842.000000</ele>
        <time>2021-09-05T11:50:37Z</time>
      </trkpt>
      <trkpt lat="42.614785" lon="0.478190">
        <ele>1842.000000</ele>
        <time>2021-09-05T11:50:38Z</time>
      </trkpt>
      <trkpt lat="42.614775" lon="0.478192">
        <ele>1841.000000</ele>
        <time>2021-09-05T11:50:39Z</time>
      </trkpt>
      <trkpt lat="42.614765" lon="0.478192">
        <ele>1841.000000</ele>
        <time>2021-09-05T11:50:40Z</time>
      </trkpt>
      <trkpt lat="42.614752" lon="0.478194">
        <ele>1840.000000</ele>
        <time>2021-09-05T11:50:41Z</time>
      </trkpt>
      <trkpt lat="42.614742" lon="0.478197">
        <ele>1840.000000</ele>
        <time>2021-09-05T11:50:42Z</time>
      </trkpt>
      <trkpt lat="42.614728" lon="0.478197">
        <ele>1840.000000</ele>
        <time>2021-09-05T11:50:43Z</time>
      </trkpt>
      <trkpt lat="42.614713" lon="0.478194">
        <ele>1839.000000</ele>
        <time>2021-09-05T11:50:44Z</time>
      </trkpt>
      <trkpt lat="42.614700" lon="0.478190">
        <ele>1839.000000</ele>
        <time>2021-09-05T11:50:45Z</time>
      </trkpt>
      <trkpt lat="42.614690" lon="0.478190">
        <ele>1839.000000</ele>
        <time>2021-09-05T11:50:46Z</time>
      </trkpt>
      <trkpt lat="42.614677" lon="0.478193">
        <ele>1838.000000</ele>
        <time>2021-09-05T11:50:47Z</time>
      </trkpt>
      <trkpt lat="42.614663" lon="0.478197">
        <ele>1838.000000</ele>
        <time>2021-09-05T11:50:48Z</time>
      </trkpt>
      <trkpt lat="42.614652" lon="0.478200">
        <ele>1838.000000</ele>
        <time>2021-09-05T11:50:49Z</time>
      </trkpt>
      <trkpt lat="42.614640" lon="0.478201">
        <ele>1838.000000</ele>
        <time>2021-09-05T11:50:50Z</time>
      </trkpt>
      <trkpt lat="42.614625" lon="0.478202">
        <ele>1838.000000</ele>
        <time>2021-09-05T11:50:51Z</time>
      </trkpt>
      <trkpt lat="42.614610" lon="0.478203">
        <ele>1837.000000</ele>
        <time>2021-09-05T11:50:52Z</time>
      </trkpt>
      <trkpt lat="42.614595" lon="0.478204">
        <ele>1837.000000</ele>
        <time>2021-09-05T11:50:53Z</time>
      </trkpt>
      <trkpt lat="42.614580" lon="0.478205">
        <ele>1837.000000</ele>
        <time>2021-09-05T11:50:54Z</time>
      </trkpt>
      <trkpt lat="42.614563" lon="0.478206">
        <ele>1837.000000</ele>
        <time>2021-09-05T11:50:55Z</time>
      </trkpt>
      <trkpt lat="42.614547" lon="0.478208">
        <ele>1837.000000</ele>
        <time>2021-09-05T11:50:56Z</time>
      </trkpt>
      <trkpt lat="42.614535" lon="0.478212">
        <ele>1837.000000</ele>
        <time>2021-09-05T11:50:57Z</time>
      </trkpt>
      <trkpt lat="42.614522" lon="0.478238">
        <ele>1837.000000</ele>
        <time>2021-09-05T11:50:58Z</time>
      </trkpt>
      <trkpt lat="42.614508" lon="0.478248">
        <ele>1836.000000</ele>
        <time>2021-09-05T11:51:00Z</time>
      </trkpt>
      <trkpt lat="42.614497" lon="0.478258">
        <ele>1836.000000</ele>
        <time>2021-09-05T11:51:00Z</time>
      </trkpt>
      <trkpt lat="42.614485" lon="0.478265">
        <ele>1836.000000</ele>
        <time>2021-09-05T11:51:01Z</time>
      </trkpt>
      <trkpt lat="42.614470" lon="0.478272">
        <ele>1835.000000</ele>
        <time>2021-09-05T11:51:02Z</time>
      </trkpt>
      <trkpt lat="42.614462" lon="0.478277">
        <ele>1835.000000</ele>
        <time>2021-09-05T11:51:03Z</time>
      </trkpt>
      <trkpt lat="42.614450" lon="0.478288">
        <ele>1835.000000</ele>
        <time>2021-09-05T11:51:04Z</time>
      </trkpt>
      <trkpt lat="42.614440" lon="0.478299">
        <ele>1835.000000</ele>
        <time>2021-09-05T11:51:05Z</time>
      </trkpt>
      <trkpt lat="42.614430" lon="0.478310">
        <ele>1835.000000</ele>
        <time>2021-09-05T11:51:06Z</time>
      </trkpt>
      <trkpt lat="42.614420" lon="0.478323">
        <ele>1834.000000</ele>
        <time>2021-09-05T11:51:07Z</time>
      </trkpt>
      <trkpt lat="42.614412" lon="0.478335">
        <ele>1834.000000</ele>
        <time>2021-09-05T11:51:08Z</time>
      </trkpt>
      <trkpt lat="42.614403" lon="0.478347">
        <ele>1834.000000</ele>
        <time>2021-09-05T11:51:09Z</time>
      </trkpt>
      <trkpt lat="42.614392" lon="0.478361">
        <ele>1834.000000</ele>
        <time>2021-09-05T11:51:10Z</time>
      </trkpt>
      <trkpt lat="42.614377" lon="0.478375">
        <ele>1834.000000</ele>
        <time>2021-09-05T11:51:11Z</time>
      </trkpt>
      <trkpt lat="42.614358" lon="0.478389">
        <ele>1834.000000</ele>
        <time>2021-09-05T11:51:12Z</time>
      </trkpt>
      <trkpt lat="42.614348" lon="0.478396">
        <ele>1834.000000</ele>
        <time>2021-09-05T11:51:13Z</time>
      </trkpt>
      <trkpt lat="42.614338" lon="0.478402">
        <ele>1833.000000</ele>
        <time>2021-09-05T11:51:14Z</time>
      </trkpt>
      <trkpt lat="42.614335" lon="0.478402">
        <ele>1833.000000</ele>
        <time>2021-09-05T11:51:15Z</time>
      </trkpt>
      <trkpt lat="42.614332" lon="0.478403">
        <ele>1833.000000</ele>
        <time>2021-09-05T11:51:16Z</time>
      </trkpt>
      <trkpt lat="42.614325" lon="0.478408">
        <ele>1833.000000</ele>
        <time>2021-09-05T11:51:17Z</time>
      </trkpt>
      <trkpt lat="42.614318" lon="0.478414">
        <ele>1833.000000</ele>
        <time>2021-09-05T11:51:18Z</time>
      </trkpt>
      <trkpt lat="42.614312" lon="0.478420">
        <ele>1833.000000</ele>
        <time>2021-09-05T11:51:19Z</time>
      </trkpt>
      <trkpt lat="42.614302" lon="0.478428">
        <ele>1833.000000</ele>
        <time>2021-09-05T11:51:20Z</time>
      </trkpt>
      <trkpt lat="42.614288" lon="0.478439">
        <ele>1832.000000</ele>
        <time>2021-09-05T11:51:21Z</time>
      </trkpt>
      <trkpt lat="42.614268" lon="0.478454">
        <ele>1832.000000</ele>
        <time>2021-09-05T11:51:23Z</time>
      </trkpt>
      <trkpt lat="42.614257" lon="0.478463">
        <ele>1832.000000</ele>
        <time>2021-09-05T11:51:23Z</time>
      </trkpt>
      <trkpt lat="42.614245" lon="0.478470">
        <ele>1832.000000</ele>
        <time>2021-09-05T11:51:24Z</time>
      </trkpt>
      <trkpt lat="42.614227" lon="0.478483">
        <ele>1832.000000</ele>
        <time>2021-09-05T11:51:25Z</time>
      </trkpt>
      <trkpt lat="42.614210" lon="0.478494">
        <ele>1831.000000</ele>
        <time>2021-09-05T11:51:26Z</time>
      </trkpt>
      <trkpt lat="42.614192" lon="0.478505">
        <ele>1831.000000</ele>
        <time>2021-09-05T11:51:27Z</time>
      </trkpt>
      <trkpt lat="42.614175" lon="0.478516">
        <ele>1831.000000</ele>
        <time>2021-09-05T11:51:28Z</time>
      </trkpt>
      <trkpt lat="42.614160" lon="0.478525">
        <ele>1830.000000</ele>
        <time>2021-09-05T11:51:29Z</time>
      </trkpt>
      <trkpt lat="42.614145" lon="0.478533">
        <ele>1830.000000</ele>
        <time>2021-09-05T11:51:30Z</time>
      </trkpt>
      <trkpt lat="42.614133" lon="0.478538">
        <ele>1830.000000</ele>
        <time>2021-09-05T11:51:31Z</time>
      </trkpt>
      <trkpt lat="42.614118" lon="0.478544">
        <ele>1830.000000</ele>
        <time>2021-09-05T11:51:32Z</time>
      </trkpt>
      <trkpt lat="42.614103" lon="0.478502">
        <ele>1830.000000</ele>
        <time>2021-09-05T11:51:33Z</time>
      </trkpt>
      <trkpt lat="42.614090" lon="0.478500">
        <ele>1829.000000</ele>
        <time>2021-09-05T11:51:34Z</time>
      </trkpt>
      <trkpt lat="42.614077" lon="0.478502">
        <ele>1829.000000</ele>
        <time>2021-09-05T11:51:35Z</time>
      </trkpt>
      <trkpt lat="42.614065" lon="0.478499">
        <ele>1829.000000</ele>
        <time>2021-09-05T11:51:36Z</time>
      </trkpt>
      <trkpt lat="42.614053" lon="0.478502">
        <ele>1828.000000</ele>
        <time>2021-09-05T11:51:37Z</time>
      </trkpt>
      <trkpt lat="42.614042" lon="0.478504">
        <ele>1828.000000</ele>
        <time>2021-09-05T11:51:38Z</time>
      </trkpt>
      <trkpt lat="42.614028" lon="0.478509">
        <ele>1828.000000</ele>
        <time>2021-09-05T11:51:39Z</time>
      </trkpt>
      <trkpt lat="42.614013" lon="0.478514">
        <ele>1828.000000</ele>
        <time>2021-09-05T11:51:40Z</time>
      </trkpt>
      <trkpt lat="42.614000" lon="0.478518">
        <ele>1828.000000</ele>
        <time>2021-09-05T11:51:41Z</time>
      </trkpt>
      <trkpt lat="42.613988" lon="0.478520">
        <ele>1827.000000</ele>
        <time>2021-09-05T11:51:43Z</time>
      </trkpt>
      <trkpt lat="42.613977" lon="0.478521">
        <ele>1827.000000</ele>
        <time>2021-09-05T11:51:43Z</time>
      </trkpt>
      <trkpt lat="42.613960" lon="0.478522">
        <ele>1827.000000</ele>
        <time>2021-09-05T11:51:44Z</time>
      </trkpt>
      <trkpt lat="42.613947" lon="0.478520">
        <ele>1827.000000</ele>
        <time>2021-09-05T11:51:45Z</time>
      </trkpt>
      <trkpt lat="42.613932" lon="0.478519">
        <ele>1827.000000</ele>
        <time>2021-09-05T11:51:46Z</time>
      </trkpt>
      <trkpt lat="42.613922" lon="0.478503">
        <ele>1827.000000</ele>
        <time>2021-09-05T11:51:47Z</time>
      </trkpt>
      <trkpt lat="42.613908" lon="0.478507">
        <ele>1827.000000</ele>
        <time>2021-09-05T11:51:48Z</time>
      </trkpt>
      <trkpt lat="42.613893" lon="0.478508">
        <ele>1827.000000</ele>
        <time>2021-09-05T11:51:49Z</time>
      </trkpt>
      <trkpt lat="42.613878" lon="0.478507">
        <ele>1826.000000</ele>
        <time>2021-09-05T11:51:50Z</time>
      </trkpt>
      <trkpt lat="42.613865" lon="0.478504">
        <ele>1826.000000</ele>
        <time>2021-09-05T11:51:51Z</time>
      </trkpt>
      <trkpt lat="42.613853" lon="0.478504">
        <ele>1826.000000</ele>
        <time>2021-09-05T11:51:52Z</time>
      </trkpt>
      <trkpt lat="42.613843" lon="0.478506">
        <ele>1826.000000</ele>
        <time>2021-09-05T11:51:53Z</time>
      </trkpt>
      <trkpt lat="42.613833" lon="0.478507">
        <ele>1826.000000</ele>
        <time>2021-09-05T11:51:54Z</time>
      </trkpt>
      <trkpt lat="42.613822" lon="0.478507">
        <ele>1826.000000</ele>
        <time>2021-09-05T11:51:55Z</time>
      </trkpt>
      <trkpt lat="42.613812" lon="0.478506">
        <ele>1825.000000</ele>
        <time>2021-09-05T11:51:56Z</time>
      </trkpt>
      <trkpt lat="42.613798" lon="0.478502">
        <ele>1825.000000</ele>
        <time>2021-09-05T11:51:57Z</time>
      </trkpt>
      <trkpt lat="42.613787" lon="0.478496">
        <ele>1825.000000</ele>
        <time>2021-09-05T11:51:58Z</time>
      </trkpt>
      <trkpt lat="42.613777" lon="0.478491">
        <ele>1824.000000</ele>
        <time>2021-09-05T11:51:59Z</time>
      </trkpt>
      <trkpt lat="42.613763" lon="0.478484">
        <ele>1824.000000</ele>
        <time>2021-09-05T11:52:01Z</time>
      </trkpt>
      <trkpt lat="42.613750" lon="0.478479">
        <ele>1823.000000</ele>
        <time>2021-09-05T11:52:01Z</time>
      </trkpt>
      <trkpt lat="42.613737" lon="0.478473">
        <ele>1823.000000</ele>
        <time>2021-09-05T11:52:02Z</time>
      </trkpt>
      <trkpt lat="42.613725" lon="0.478468">
        <ele>1822.000000</ele>
        <time>2021-09-05T11:52:03Z</time>
      </trkpt>
      <trkpt lat="42.613712" lon="0.478462">
        <ele>1822.000000</ele>
        <time>2021-09-05T11:52:04Z</time>
      </trkpt>
      <trkpt lat="42.613700" lon="0.478458">
        <ele>1822.000000</ele>
        <time>2021-09-05T11:52:05Z</time>
      </trkpt>
      <trkpt lat="42.613690" lon="0.478455">
        <ele>1822.000000</ele>
        <time>2021-09-05T11:52:07Z</time>
      </trkpt>
      <trkpt lat="42.613682" lon="0.478453">
        <ele>1821.000000</ele>
        <time>2021-09-05T11:52:07Z</time>
      </trkpt>
      <trkpt lat="42.613677" lon="0.478450">
        <ele>1821.000000</ele>
        <time>2021-09-05T11:52:08Z</time>
      </trkpt>
      <trkpt lat="42.613675" lon="0.478447">
        <ele>1820.000000</ele>
        <time>2021-09-05T11:52:09Z</time>
      </trkpt>
      <trkpt lat="42.613672" lon="0.478417">
        <ele>1820.000000</ele>
        <time>2021-09-05T11:52:10Z</time>
      </trkpt>
      <trkpt lat="42.613668" lon="0.478398">
        <ele>1820.000000</ele>
        <time>2021-09-05T11:52:11Z</time>
      </trkpt>
      <trkpt lat="42.613663" lon="0.478382">
        <ele>1819.000000</ele>
        <time>2021-09-05T11:52:12Z</time>
      </trkpt>
      <trkpt lat="42.613662" lon="0.478368">
        <ele>1819.000000</ele>
        <time>2021-09-05T11:52:13Z</time>
      </trkpt>
      <trkpt lat="42.613665" lon="0.478363">
        <ele>1819.000000</ele>
        <time>2021-09-05T11:52:14Z</time>
      </trkpt>
      <trkpt lat="42.613668" lon="0.478355">
        <ele>1819.000000</ele>
        <time>2021-09-05T11:52:15Z</time>
      </trkpt>
      <trkpt lat="42.613670" lon="0.478352">
        <ele>1819.000000</ele>
        <time>2021-09-05T11:52:16Z</time>
      </trkpt>
      <trkpt lat="42.613668" lon="0.478348">
        <ele>1819.000000</ele>
        <time>2021-09-05T11:52:18Z</time>
      </trkpt>
      <trkpt lat="42.613672" lon="0.478352">
        <ele>1819.000000</ele>
        <time>2021-09-05T11:52:20Z</time>
      </trkpt>
      <trkpt lat="42.613677" lon="0.478357">
        <ele>1819.000000</ele>
        <time>2021-09-05T11:52:21Z</time>
      </trkpt>
      <trkpt lat="42.613672" lon="0.478355">
        <ele>1819.000000</ele>
        <time>2021-09-05T11:52:22Z</time>
      </trkpt>
      <trkpt lat="42.613670" lon="0.478352">
        <ele>1819.000000</ele>
        <time>2021-09-05T11:52:23Z</time>
      </trkpt>
      <trkpt lat="42.613672" lon="0.478352">
        <ele>1819.000000</ele>
        <time>2021-09-05T11:52:24Z</time>
      </trkpt>
      <trkpt lat="42.613677" lon="0.478340">
        <ele>1819.000000</ele>
        <time>2021-09-05T11:52:26Z</time>
      </trkpt>
      <trkpt lat="42.613683" lon="0.478333">
        <ele>1819.000000</ele>
        <time>2021-09-05T11:52:26Z</time>
      </trkpt>
      <trkpt lat="42.613693" lon="0.478328">
        <ele>1819.000000</ele>
        <time>2021-09-05T11:52:27Z</time>
      </trkpt>
      <trkpt lat="42.613702" lon="0.478320">
        <ele>1819.000000</ele>
        <time>2021-09-05T11:52:28Z</time>
      </trkpt>
      <trkpt lat="42.613708" lon="0.478308">
        <ele>1819.000000</ele>
        <time>2021-09-05T11:52:29Z</time>
      </trkpt>
      <trkpt lat="42.613718" lon="0.478300">
        <ele>1819.000000</ele>
        <time>2021-09-05T11:52:30Z</time>
      </trkpt>
      <trkpt lat="42.613727" lon="0.478290">
        <ele>1818.000000</ele>
        <time>2021-09-05T11:52:31Z</time>
      </trkpt>
      <trkpt lat="42.613737" lon="0.478285">
        <ele>1818.000000</ele>
        <time>2021-09-05T11:52:32Z</time>
      </trkpt>
      <trkpt lat="42.613745" lon="0.478280">
        <ele>1818.000000</ele>
        <time>2021-09-05T11:52:33Z</time>
      </trkpt>
      <trkpt lat="42.613752" lon="0.478272">
        <ele>1818.000000</ele>
        <time>2021-09-05T11:52:34Z</time>
      </trkpt>
      <trkpt lat="42.613760" lon="0.478261">
        <ele>1818.000000</ele>
        <time>2021-09-05T11:52:35Z</time>
      </trkpt>
      <trkpt lat="42.613767" lon="0.478255">
        <ele>1818.000000</ele>
        <time>2021-09-05T11:52:36Z</time>
      </trkpt>
      <trkpt lat="42.613775" lon="0.478249">
        <ele>1818.000000</ele>
        <time>2021-09-05T11:52:37Z</time>
      </trkpt>
      <trkpt lat="42.613783" lon="0.478240">
        <ele>1818.000000</ele>
        <time>2021-09-05T11:52:38Z</time>
      </trkpt>
      <trkpt lat="42.613787" lon="0.478228">
        <ele>1819.000000</ele>
        <time>2021-09-05T11:52:39Z</time>
      </trkpt>
      <trkpt lat="42.613792" lon="0.478218">
        <ele>1819.000000</ele>
        <time>2021-09-05T11:52:40Z</time>
      </trkpt>
      <trkpt lat="42.613797" lon="0.478222">
        <ele>1819.000000</ele>
        <time>2021-09-05T11:52:41Z</time>
      </trkpt>
      <trkpt lat="42.613800" lon="0.478217">
        <ele>1819.000000</ele>
        <time>2021-09-05T11:52:43Z</time>
      </trkpt>
      <trkpt lat="42.613798" lon="0.478218">
        <ele>1820.000000</ele>
        <time>2021-09-05T11:52:44Z</time>
      </trkpt>
      <trkpt lat="42.613795" lon="0.478221">
        <ele>1820.000000</ele>
        <time>2021-09-05T11:52:45Z</time>
      </trkpt>
      <trkpt lat="42.613792" lon="0.478224">
        <ele>1820.000000</ele>
        <time>2021-09-05T11:52:46Z</time>
      </trkpt>
      <trkpt lat="42.613793" lon="0.478232">
        <ele>1820.000000</ele>
        <time>2021-09-05T11:52:47Z</time>
      </trkpt>
      <trkpt lat="42.613797" lon="0.478245">
        <ele>1820.000000</ele>
        <time>2021-09-05T11:52:48Z</time>
      </trkpt>
      <trkpt lat="42.613796" lon="0.478253">
        <ele>1821.000000</ele>
        <time>2021-09-05T11:52:50Z</time>
      </trkpt>
      <trkpt lat="42.613793" lon="0.478260">
        <ele>1822.000000</ele>
        <time>2021-09-05T11:52:52Z</time>
      </trkpt>
      <trkpt lat="42.613795" lon="0.478253">
        <ele>1822.000000</ele>
        <time>2021-09-05T11:52:54Z</time>
      </trkpt>
      <trkpt lat="42.613795" lon="0.478248">
        <ele>1822.000000</ele>
        <time>2021-09-05T11:52:55Z</time>
      </trkpt>
      <trkpt lat="42.613796" lon="0.478247">
        <ele>1822.000000</ele>
        <time>2021-09-05T11:52:56Z</time>
      </trkpt>
      <trkpt lat="42.613797" lon="0.478248">
        <ele>1822.000000</ele>
        <time>2021-09-05T11:52:57Z</time>
      </trkpt>
      <trkpt lat="42.613796" lon="0.478253">
        <ele>1822.000000</ele>
        <time>2021-09-05T11:52:58Z</time>
      </trkpt>
      <trkpt lat="42.613799" lon="0.478262">
        <ele>1822.000000</ele>
        <time>2021-09-05T11:52:59Z</time>
      </trkpt>
      <trkpt lat="42.613802" lon="0.478267">
        <ele>1823.000000</ele>
        <time>2021-09-05T11:53:00Z</time>
      </trkpt>
      <trkpt lat="42.613803" lon="0.478280">
        <ele>1823.000000</ele>
        <time>2021-09-05T11:53:01Z</time>
      </trkpt>
      <trkpt lat="42.613802" lon="0.478275">
        <ele>1823.000000</ele>
        <time>2021-09-05T11:53:02Z</time>
      </trkpt>
      <trkpt lat="42.613800" lon="0.478262">
        <ele>1823.000000</ele>
        <time>2021-09-05T11:53:03Z</time>
      </trkpt>
      <trkpt lat="42.613800" lon="0.478257">
        <ele>1823.000000</ele>
        <time>2021-09-05T11:53:04Z</time>
      </trkpt>
      <trkpt lat="42.613799" lon="0.478248">
        <ele>1823.000000</ele>
        <time>2021-09-05T11:53:05Z</time>
      </trkpt>
      <trkpt lat="42.613800" lon="0.478243">
        <ele>1823.000000</ele>
        <time>2021-09-05T11:53:06Z</time>
      </trkpt>
      <trkpt lat="42.613802" lon="0.478245">
        <ele>1823.000000</ele>
        <time>2021-09-05T11:53:07Z</time>
      </trkpt>
      <trkpt lat="42.613803" lon="0.478248">
        <ele>1823.000000</ele>
        <time>2021-09-05T11:53:08Z</time>
      </trkpt>
      <trkpt lat="42.613804" lon="0.478250">
        <ele>1823.000000</ele>
        <time>2021-09-05T11:53:09Z</time>
      </trkpt>
      <trkpt lat="42.613805" lon="0.478250">
        <ele>1824.000000</ele>
        <time>2021-09-05T11:53:11Z</time>
      </trkpt>
      <trkpt lat="42.613808" lon="0.478242">
        <ele>1824.000000</ele>
        <time>2021-09-05T11:53:14Z</time>
      </trkpt>
      <trkpt lat="42.613811" lon="0.478240">
        <ele>1824.000000</ele>
        <time>2021-09-05T11:53:15Z</time>
      </trkpt>
      <trkpt lat="42.613835" lon="0.478242">
        <ele>1824.000000</ele>
        <time>2021-09-05T11:53:16Z</time>
      </trkpt>
      <trkpt lat="42.613833" lon="0.478240">
        <ele>1824.000000</ele>
        <time>2021-09-05T11:53:17Z</time>
      </trkpt>
      <trkpt lat="42.613833" lon="0.478239">
        <ele>1824.000000</ele>
        <time>2021-09-05T11:53:18Z</time>
      </trkpt>
      <trkpt lat="42.613835" lon="0.478238">
        <ele>1824.000000</ele>
        <time>2021-09-05T11:53:19Z</time>
      </trkpt>
      <trkpt lat="42.613827" lon="0.478242">
        <ele>1824.000000</ele>
        <time>2021-09-05T11:53:20Z</time>
      </trkpt>
    </trkseg>
  </trk>
</gpx>
